<?xml version='1.0' encoding='UTF-8'?><gpx version="1.1" creator="JPX - https://github.com/jenetics/jpx" xmlns="http://www.topografix.com/GPX/1/1"><trk><trkseg><trkpt lat="46.56648656756696" lon="26.921426867457388"><ele>160.0</ele><time>2026-04-25T06:56:35.999Z</time></trkpt><trkpt lat="46.56659693733631" lon="26.921402765239076"><ele>160.0</ele><time>2026-04-25T06:56:37.999Z</time></trkpt><trkpt lat="46.566660544927316" lon="26.92139318363949"><ele>160.0</ele><time>2026-04-25T06:56:38.999Z</time></trkpt><trkpt lat="46.56673319456689" lon="26.921432192124357"><ele>160.0</ele><time>2026-04-25T06:56:39.999Z</time></trkpt><trkpt lat="46.566811907464555" lon="26.92141919063563"><ele>160.0</ele><time>2026-04-25T06:56:40.999Z</time></trkpt><trkpt lat="46.56688543445089" lon="26.921407045761377"><ele>160.0</ele><time>2026-04-25T06:56:41.999Z</time></trkpt><trkpt lat="46.566951108387435" lon="26.921396258364524"><ele>160.0</ele><time>2026-04-25T06:56:42.999Z</time></trkpt><trkpt lat="46.56701829935261" lon="26.921385197517537"><ele>160.0</ele><time>2026-04-25T06:56:43.999Z</time></trkpt><trkpt lat="46.56709329846149" lon="26.921370947108528"><ele>160.0</ele><time>2026-04-25T06:56:44.999Z</time></trkpt><trkpt lat="46.567173756044994" lon="26.921350782556644"><ele>160.0</ele><time>2026-04-25T06:56:45.999Z</time></trkpt><trkpt lat="46.56726043376063" lon="26.92132905439042"><ele>160.0</ele><time>2026-04-25T06:56:46.999Z</time></trkpt><trkpt lat="46.5673374928077" lon="26.921309738256216"><ele>160.0</ele><time>2026-04-25T06:56:47.999Z</time></trkpt><trkpt lat="46.56740013710138" lon="26.92129403543485"><ele>160.0</ele><time>2026-04-25T06:56:48.999Z</time></trkpt><trkpt lat="46.56746338797992" lon="26.92126309834058"><ele>160.0</ele><time>2026-04-25T06:56:49.999Z</time></trkpt><trkpt lat="46.56752732761849" lon="26.921235806086997"><ele>160.0</ele><time>2026-04-25T06:56:50.999Z</time></trkpt><trkpt lat="46.567588921069806" lon="26.92120951529041"><ele>160.0</ele><time>2026-04-25T06:56:51.999Z</time></trkpt><trkpt lat="46.567660202180846" lon="26.921177679584144"><ele>160.0</ele><time>2026-04-25T06:56:52.999Z</time></trkpt><trkpt lat="46.5677241223304" lon="26.921147680460773"><ele>160.0</ele><time>2026-04-25T06:56:53.999Z</time></trkpt><trkpt lat="46.56782463299097" lon="26.921100508614668"><ele>160.0</ele><time>2026-04-25T06:56:55.999Z</time></trkpt><trkpt lat="46.56789070325935" lon="26.921069500394527"><ele>159.66666666666669</ele><time>2026-04-25T06:56:57.999Z</time></trkpt><trkpt lat="46.56796905438236" lon="26.920797898121073"><ele>159.33333333333334</ele><time>2026-04-25T06:57:00.999Z</time></trkpt><trkpt lat="46.56793500505975" lon="26.920639513498106"><ele>159.0</ele><time>2026-04-25T06:57:02.999Z</time></trkpt><trkpt lat="46.56789223976776" lon="26.920440585490226"><ele>159.0</ele><time>2026-04-25T06:57:04.999Z</time></trkpt><trkpt lat="46.56786918945387" lon="26.920333364113066"><ele>159.0</ele><time>2026-04-25T06:57:05.999Z</time></trkpt><trkpt lat="46.567841920988876" lon="26.92020652153497"><ele>159.0</ele><time>2026-04-25T06:57:06.999Z</time></trkpt><trkpt lat="46.56781828973659" lon="26.920096647061914"><ele>159.0</ele><time>2026-04-25T06:57:07.998Z</time></trkpt><trkpt lat="46.56779220689556" lon="26.919975351552644"><ele>159.0</ele><time>2026-04-25T06:57:08.998Z</time></trkpt><trkpt lat="46.56776899876939" lon="26.91986742459836"><ele>159.0</ele><time>2026-04-25T06:57:09.998Z</time></trkpt><trkpt lat="46.56774915891042" lon="26.919775161417736"><ele>159.2</ele><time>2026-04-25T06:57:10.998Z</time></trkpt><trkpt lat="46.56771346569514" lon="26.919609173894578"><ele>159.4</ele><time>2026-04-25T06:57:12.998Z</time></trkpt><trkpt lat="46.567675359088135" lon="26.91943075867015"><ele>159.6</ele><time>2026-04-25T06:57:14.998Z</time></trkpt><trkpt lat="46.56765300828387" lon="26.919326203107776"><ele>159.8</ele><time>2026-04-25T06:57:15.998Z</time></trkpt><trkpt lat="46.56762753607946" lon="26.919207489429628"><ele>160.0</ele><time>2026-04-25T06:57:16.998Z</time></trkpt><trkpt lat="46.56760034514533" lon="26.919080633225082"><ele>160.33333333333334</ele><time>2026-04-25T06:57:17.998Z</time></trkpt><trkpt lat="46.567572357200724" lon="26.918950058654776"><ele>160.66666666666669</ele><time>2026-04-25T06:57:18.998Z</time></trkpt><trkpt lat="46.567550332425704" lon="26.918847304568363"><ele>161.0</ele><time>2026-04-25T06:57:19.998Z</time></trkpt><trkpt lat="46.56753104626222" lon="26.918757327166453"><ele>161.33333333333334</ele><time>2026-04-25T06:57:20.998Z</time></trkpt><trkpt lat="46.56750756021599" lon="26.918647755694668"><ele>161.66666666666666</ele><time>2026-04-25T06:57:21.998Z</time></trkpt><trkpt lat="46.56748393518558" lon="26.918537535805566"><ele>162.0</ele><time>2026-04-25T06:57:22.998Z</time></trkpt><trkpt lat="46.5674627054864" lon="26.918438491066457"><ele>162.0</ele><time>2026-04-25T06:57:23.998Z</time></trkpt><trkpt lat="46.56743041138524" lon="26.91835507396718"><ele>162.0</ele><time>2026-04-25T06:57:24.998Z</time></trkpt><trkpt lat="46.567413390805804" lon="26.918246596172082"><ele>162.0</ele><time>2026-04-25T06:57:25.998Z</time></trkpt><trkpt lat="46.56739260044299" lon="26.91813236651475"><ele>162.0</ele><time>2026-04-25T06:57:26.998Z</time></trkpt><trkpt lat="46.567372165276154" lon="26.918010347748382"><ele>162.0</ele><time>2026-04-25T06:57:27.999Z</time></trkpt><trkpt lat="46.56734292384539" lon="26.917889984328063"><ele>162.0</ele><time>2026-04-25T06:57:28.999Z</time></trkpt><trkpt lat="46.56731454923586" lon="26.917773334378865"><ele>162.0</ele><time>2026-04-25T06:57:29.999Z</time></trkpt><trkpt lat="46.567287545761936" lon="26.917646367288988"><ele>162.0</ele><time>2026-04-25T06:57:30.999Z</time></trkpt><trkpt lat="46.56726979834342" lon="26.91753728437358"><ele>162.0</ele><time>2026-04-25T06:57:31.999Z</time></trkpt><trkpt lat="46.5672409013373" lon="26.91741619666685"><ele>162.0</ele><time>2026-04-25T06:57:32.999Z</time></trkpt><trkpt lat="46.567221081617134" lon="26.917295997270262"><ele>162.0</ele><time>2026-04-25T06:57:33.999Z</time></trkpt><trkpt lat="46.567204706619336" lon="26.91718046422958"><ele>162.0</ele><time>2026-04-25T06:57:34.999Z</time></trkpt><trkpt lat="46.56718232208745" lon="26.917079914004375"><ele>162.0</ele><time>2026-04-25T06:57:35.999Z</time></trkpt><trkpt lat="46.5671480709242" lon="26.916953338725314"><ele>162.0</ele><time>2026-04-25T06:57:37.999Z</time></trkpt><trkpt lat="46.56713436895442" lon="26.916856610936396"><ele>162.0</ele><time>2026-04-25T06:57:40.999Z</time></trkpt><trkpt lat="46.56712277829348" lon="26.91676009381902"><ele>162.0</ele><time>2026-04-25T06:57:42.999Z</time></trkpt><trkpt lat="46.567202362051574" lon="26.916664956988864"><ele>162.0</ele><time>2026-04-25T06:57:44.999Z</time></trkpt><trkpt lat="46.56726500451928" lon="26.916641657569187"><ele>162.0</ele><time>2026-04-25T06:57:45.999Z</time></trkpt><trkpt lat="46.56733615971654" lon="26.916610799137523"><ele>162.33333333333334</ele><time>2026-04-25T06:57:46.999Z</time></trkpt><trkpt lat="46.56740135720696" lon="26.916572339895456"><ele>162.66666666666666</ele><time>2026-04-25T06:57:47.999Z</time></trkpt><trkpt lat="46.56746763878907" lon="26.916538119959647"><ele>163.0</ele><time>2026-04-25T06:57:48.999Z</time></trkpt><trkpt lat="46.56752806645542" lon="26.916498047382934"><ele>163.33333333333331</ele><time>2026-04-25T06:57:49.999Z</time></trkpt><trkpt lat="46.5676369503875" lon="26.91643038359511"><ele>163.66666666666666</ele><time>2026-04-25T06:57:51.999Z</time></trkpt><trkpt lat="46.56774063495862" lon="26.91636545935205"><ele>164.0</ele><time>2026-04-25T06:57:53.999Z</time></trkpt><trkpt lat="46.56780091476165" lon="26.91632630156699"><ele>163.66666666666666</ele><time>2026-04-25T06:57:55.999Z</time></trkpt><trkpt lat="46.56787624459211" lon="26.91627606568059"><ele>163.33333333333331</ele><time>2026-04-25T06:58:34.999Z</time></trkpt><trkpt lat="46.56793473359253" lon="26.916238576578056"><ele>163.0</ele><time>2026-04-25T06:58:35.999Z</time></trkpt><trkpt lat="46.568007590332066" lon="26.916202282133604"><ele>162.66666666666666</ele><time>2026-04-25T06:58:36.999Z</time></trkpt><trkpt lat="46.56807823086461" lon="26.91616781904696"><ele>162.33333333333334</ele><time>2026-04-25T06:58:37.999Z</time></trkpt><trkpt lat="46.56815764800837" lon="26.916114473011714"><ele>162.0</ele><time>2026-04-25T06:58:38.999Z</time></trkpt><trkpt lat="46.5682491686989" lon="26.9160601989766"><ele>162.0</ele><time>2026-04-25T06:58:39.999Z</time></trkpt><trkpt lat="46.568338495108875" lon="26.91600857895915"><ele>162.0</ele><time>2026-04-25T06:58:40.999Z</time></trkpt><trkpt lat="46.56842862316791" lon="26.915962253737398"><ele>162.0</ele><time>2026-04-25T06:58:41.999Z</time></trkpt><trkpt lat="46.56851907030091" lon="26.915916723036023"><ele>162.0</ele><time>2026-04-25T06:58:42.999Z</time></trkpt><trkpt lat="46.56861204388539" lon="26.91586726136365"><ele>162.0</ele><time>2026-04-25T06:58:43.999Z</time></trkpt><trkpt lat="46.568695233913985" lon="26.915821984262077"><ele>162.33333333333334</ele><time>2026-04-25T06:58:44.999Z</time></trkpt><trkpt lat="46.568768394971" lon="26.915783672176023"><ele>162.66666666666666</ele><time>2026-04-25T06:58:45.999Z</time></trkpt><trkpt lat="46.56884061832963" lon="26.915746017722153"><ele>163.0</ele><time>2026-04-25T06:58:46.999Z</time></trkpt><trkpt lat="46.56891133178339" lon="26.915709701357347"><ele>163.33333333333331</ele><time>2026-04-25T06:58:47.999Z</time></trkpt><trkpt lat="46.56897177376928" lon="26.91568074884646"><ele>163.66666666666666</ele><time>2026-04-25T06:58:48.999Z</time></trkpt><trkpt lat="46.569081768202416" lon="26.9156258473475"><ele>164.0</ele><time>2026-04-25T06:58:50.999Z</time></trkpt><trkpt lat="46.56915171182704" lon="26.915587825770345"><ele>163.99999999999997</ele><time>2026-04-25T06:58:51.999Z</time></trkpt><trkpt lat="46.56922099831384" lon="26.915554328558883"><ele>164.0</ele><time>2026-04-25T06:58:52.999Z</time></trkpt><trkpt lat="46.569285270981126" lon="26.915519277041515"><ele>164.0</ele><time>2026-04-25T06:58:53.999Z</time></trkpt><trkpt lat="46.569347391985154" lon="26.91548706853911"><ele>164.0</ele><time>2026-04-25T06:58:54.999Z</time></trkpt><trkpt lat="46.569411043483385" lon="26.915454277503727"><ele>164.0</ele><time>2026-04-25T06:58:55.999Z</time></trkpt><trkpt lat="46.56947397683448" lon="26.91542227226336"><ele>163.99999999999997</ele><time>2026-04-25T06:58:56.999Z</time></trkpt><trkpt lat="46.56953560420456" lon="26.915394953305434"><ele>164.0</ele><time>2026-04-25T06:58:57.999Z</time></trkpt><trkpt lat="46.56960032626625" lon="26.91536606262236"><ele>164.14285714285714</ele><time>2026-04-25T06:58:58.999Z</time></trkpt><trkpt lat="46.56966183948249" lon="26.915339910446193"><ele>164.28571428571428</ele><time>2026-04-25T06:58:59.999Z</time></trkpt><trkpt lat="46.56972177779772" lon="26.915304781936037"><ele>164.42857142857144</ele><time>2026-04-25T06:59:00.999Z</time></trkpt><trkpt lat="46.56979060234909" lon="26.915273317250314"><ele>164.57142857142856</ele><time>2026-04-25T06:59:01.999Z</time></trkpt><trkpt lat="46.56985836276664" lon="26.915247251514632"><ele>164.71428571428572</ele><time>2026-04-25T06:59:02.999Z</time></trkpt><trkpt lat="46.569921115721534" lon="26.91523713460165"><ele>164.85714285714286</ele><time>2026-04-25T06:59:03.999Z</time></trkpt><trkpt lat="46.570025456123496" lon="26.91524282618342"><ele>165.0</ele><time>2026-04-25T06:59:05.999Z</time></trkpt><trkpt lat="46.57012527122905" lon="26.915227944041348"><ele>165.0</ele><time>2026-04-25T06:59:07.999Z</time></trkpt><trkpt lat="46.57019422568244" lon="26.915100019436444"><ele>165.0</ele><time>2026-04-25T06:59:09.999Z</time></trkpt><trkpt lat="46.570132959711984" lon="26.91492059480515"><ele>165.0</ele><time>2026-04-25T06:59:10.999Z</time></trkpt><trkpt lat="46.570047006592645" lon="26.914848580500102"><ele>165.0</ele><time>2026-04-25T06:59:11.999Z</time></trkpt><trkpt lat="46.570024764506734" lon="26.914704192382775"><ele>165.0</ele><time>2026-04-25T06:59:13.999Z</time></trkpt><trkpt lat="46.56998506545957" lon="26.914585148069865"><ele>165.0</ele><time>2026-04-25T06:59:15.998Z</time></trkpt><trkpt lat="46.569953414343" lon="26.914490236838475"><ele>165.0</ele><time>2026-04-25T06:59:17.998Z</time></trkpt><trkpt lat="46.569909020546646" lon="26.914409418609278"><ele>165.0</ele><time>2026-04-25T06:59:36.999Z</time></trkpt><trkpt lat="46.569882540098966" lon="26.9142834131722"><ele>165.0</ele><time>2026-04-25T06:59:38.999Z</time></trkpt><trkpt lat="46.569898657657546" lon="26.914117358908317"><ele>165.0</ele><time>2026-04-25T06:59:40.999Z</time></trkpt><trkpt lat="46.56987039858844" lon="26.91395174025933"><ele>164.83333333333334</ele><time>2026-04-25T06:59:42.999Z</time></trkpt><trkpt lat="46.569853705309626" lon="26.91385249179343"><ele>164.66666666666666</ele><time>2026-04-25T06:59:43.999Z</time></trkpt><trkpt lat="46.569835983584866" lon="26.913747128789087"><ele>164.5</ele><time>2026-04-25T06:59:44.999Z</time></trkpt><trkpt lat="46.5698209840181" lon="26.913657950147474"><ele>164.33333333333331</ele><time>2026-04-25T06:59:45.999Z</time></trkpt><trkpt lat="46.56979178955266" lon="26.91348918626108"><ele>164.16666666666666</ele><time>2026-04-25T06:59:47.999Z</time></trkpt><trkpt lat="46.569782729318455" lon="26.91339208286922"><ele>164.0</ele><time>2026-04-25T06:59:48.999Z</time></trkpt><trkpt lat="46.569763926166715" lon="26.91323859877933"><ele>163.83333333333331</ele><time>2026-04-25T06:59:50.999Z</time></trkpt><trkpt lat="46.56974866490225" lon="26.91311869574208"><ele>163.66666666666666</ele><time>2026-04-25T06:59:52.999Z</time></trkpt><trkpt lat="46.56973354448789" lon="26.9130100489008"><ele>163.5</ele><time>2026-04-25T06:59:54.999Z</time></trkpt><trkpt lat="46.569724875204095" lon="26.912917821677926"><ele>163.33333333333334</ele><time>2026-04-25T06:59:56.999Z</time></trkpt><trkpt lat="46.569715217468776" lon="26.912801985059968"><ele>163.16666666666669</ele><time>2026-04-25T07:00:08.999Z</time></trkpt><trkpt lat="46.5696960922226" lon="26.912643305317538"><ele>163.0</ele><time>2026-04-25T07:00:11.999Z</time></trkpt><trkpt lat="46.56967049279945" lon="26.912471957233887"><ele>162.83333333333334</ele><time>2026-04-25T07:00:13.999Z</time></trkpt><trkpt lat="46.56964440303482" lon="26.91229543102102"><ele>162.66666666666669</ele><time>2026-04-25T07:00:15.999Z</time></trkpt><trkpt lat="46.569633609421835" lon="26.912194019681287"><ele>162.5</ele><time>2026-04-25T07:00:16.999Z</time></trkpt><trkpt lat="46.569620366969716" lon="26.912088083425797"><ele>162.33333333333334</ele><time>2026-04-25T07:00:17.999Z</time></trkpt><trkpt lat="46.56960317913845" lon="26.91197329451255"><ele>162.16666666666666</ele><time>2026-04-25T07:00:18.999Z</time></trkpt><trkpt lat="46.56958663074827" lon="26.91187342727391"><ele>162.0</ele><time>2026-04-25T07:00:19.999Z</time></trkpt><trkpt lat="46.56956079606588" lon="26.911700594646696"><ele>162.39999999999998</ele><time>2026-04-25T07:00:21.999Z</time></trkpt><trkpt lat="46.569549543816855" lon="26.91159390464261"><ele>162.79999999999998</ele><time>2026-04-25T07:00:22.999Z</time></trkpt><trkpt lat="46.56953636751733" lon="26.91149081422773"><ele>163.2</ele><time>2026-04-25T07:00:23.999Z</time></trkpt><trkpt lat="46.56950594854428" lon="26.91138722149453"><ele>163.6</ele><time>2026-04-25T07:00:24.999Z</time></trkpt><trkpt lat="46.56951750864525" lon="26.911217253382507"><ele>164.0</ele><time>2026-04-25T07:00:26.999Z</time></trkpt><trkpt lat="46.56953242932479" lon="26.91105583192459"><ele>164.5</ele><time>2026-04-25T07:00:28.999Z</time></trkpt><trkpt lat="46.56955646294725" lon="26.91089836418793"><ele>165.0</ele><time>2026-04-25T07:00:30.999Z</time></trkpt><trkpt lat="46.56952614589827" lon="26.910731280816425"><ele>165.5</ele><time>2026-04-25T07:00:32.999Z</time></trkpt><trkpt lat="46.569470550145674" lon="26.910648007621713"><ele>166.0</ele><time>2026-04-25T07:00:33.999Z</time></trkpt><trkpt lat="46.569414830410395" lon="26.91060170792976"><ele>166.5</ele><time>2026-04-25T07:00:34.999Z</time></trkpt><trkpt lat="46.56934882639974" lon="26.910552782175532"><ele>167.0</ele><time>2026-04-25T07:00:35.999Z</time></trkpt><trkpt lat="46.569257011223165" lon="26.910437240106265"><ele>167.0</ele><time>2026-04-25T07:00:37.999Z</time></trkpt><trkpt lat="46.56915431024589" lon="26.910330572151604"><ele>167.0</ele><time>2026-04-25T07:00:39.999Z</time></trkpt><trkpt lat="46.56909444281958" lon="26.910276198383247"><ele>167.0</ele><time>2026-04-25T07:00:40.999Z</time></trkpt><trkpt lat="46.56903499479911" lon="26.910219876656914"><ele>167.0</ele><time>2026-04-25T07:00:41.999Z</time></trkpt><trkpt lat="46.568972661833044" lon="26.910163980953477"><ele>167.0</ele><time>2026-04-25T07:00:42.999Z</time></trkpt><trkpt lat="46.56891453005084" lon="26.910116810286222"><ele>167.0</ele><time>2026-04-25T07:00:43.999Z</time></trkpt><trkpt lat="46.568859547586804" lon="26.91007033893836"><ele>167.28571428571428</ele><time>2026-04-25T07:00:44.999Z</time></trkpt><trkpt lat="46.56880576692548" lon="26.910016580817874"><ele>167.57142857142858</ele><time>2026-04-25T07:00:45.999Z</time></trkpt><trkpt lat="46.56874730870774" lon="26.909963818688176"><ele>167.85714285714286</ele><time>2026-04-25T07:00:46.999Z</time></trkpt><trkpt lat="46.568684060050835" lon="26.90991945296972"><ele>168.14285714285714</ele><time>2026-04-25T07:00:47.999Z</time></trkpt><trkpt lat="46.56863299669119" lon="26.909862792588918"><ele>168.42857142857142</ele><time>2026-04-25T07:00:48.999Z</time></trkpt><trkpt lat="46.568579611634" lon="26.909812545626867"><ele>168.71428571428572</ele><time>2026-04-25T07:00:49.999Z</time></trkpt><trkpt lat="46.568481253952534" lon="26.909730667159813"><ele>169.0</ele><time>2026-04-25T07:00:51.999Z</time></trkpt><trkpt lat="46.56839653615222" lon="26.90960022577721"><ele>169.0</ele><time>2026-04-25T07:00:53.999Z</time></trkpt><trkpt lat="46.568363799511566" lon="26.909518756635784"><ele>169.0</ele><time>2026-04-25T07:00:54.999Z</time></trkpt><trkpt lat="46.568331252636725" lon="26.90944031183793"><ele>169.0</ele><time>2026-04-25T07:00:55.999Z</time></trkpt><trkpt lat="46.56831573433425" lon="26.909341885289287"><ele>169.0</ele><time>2026-04-25T07:00:56.999Z</time></trkpt><trkpt lat="46.568304326060904" lon="26.90924029847842"><ele>169.0</ele><time>2026-04-25T07:00:57.999Z</time></trkpt><trkpt lat="46.56828634447122" lon="26.909133459858925"><ele>169.0</ele><time>2026-04-25T07:00:58.999Z</time></trkpt><trkpt lat="46.56826726994821" lon="26.90901022741218"><ele>169.0</ele><time>2026-04-25T07:00:59.999Z</time></trkpt><trkpt lat="46.56824297477768" lon="26.908881674426947"><ele>169.0</ele><time>2026-04-25T07:01:00.999Z</time></trkpt><trkpt lat="46.56822221711881" lon="26.908762951433154"><ele>169.0</ele><time>2026-04-25T07:01:01.999Z</time></trkpt><trkpt lat="46.56820203317868" lon="26.90862864195915"><ele>169.0</ele><time>2026-04-25T07:01:02.999Z</time></trkpt><trkpt lat="46.56818219992" lon="26.908498211500188"><ele>169.0</ele><time>2026-04-25T07:01:03.999Z</time></trkpt><trkpt lat="46.56816084256772" lon="26.90836705109317"><ele>169.0</ele><time>2026-04-25T07:01:04.999Z</time></trkpt><trkpt lat="46.568154563850456" lon="26.908231101962766"><ele>169.39999999999998</ele><time>2026-04-25T07:01:05.999Z</time></trkpt><trkpt lat="46.56814001170477" lon="26.90813282350616"><ele>169.8</ele><time>2026-04-25T07:01:06.999Z</time></trkpt><trkpt lat="46.568119724891034" lon="26.90799581575127"><ele>170.2</ele><time>2026-04-25T07:01:07.999Z</time></trkpt><trkpt lat="46.568099364495616" lon="26.907858311058874"><ele>170.60000000000002</ele><time>2026-04-25T07:01:08.999Z</time></trkpt><trkpt lat="46.568078762137354" lon="26.907719172295458"><ele>171.0</ele><time>2026-04-25T07:01:09.999Z</time></trkpt><trkpt lat="46.568058287511526" lon="26.907580524362523"><ele>171.0</ele><time>2026-04-25T07:01:10.999Z</time></trkpt><trkpt lat="46.568038265080055" lon="26.90744503803944"><ele>171.0</ele><time>2026-04-25T07:01:11.999Z</time></trkpt><trkpt lat="46.56801607798937" lon="26.907306676781"><ele>171.0</ele><time>2026-04-25T07:01:12.999Z</time></trkpt><trkpt lat="46.56799287071327" lon="26.907167795439797"><ele>171.0</ele><time>2026-04-25T07:01:13.999Z</time></trkpt><trkpt lat="46.56797260996175" lon="26.907046547245997"><ele>171.0</ele><time>2026-04-25T07:01:14.999Z</time></trkpt><trkpt lat="46.56795275439077" lon="26.90692772380876"><ele>171.0</ele><time>2026-04-25T07:01:15.999Z</time></trkpt><trkpt lat="46.56793158192408" lon="26.906801019558763"><ele>171.0</ele><time>2026-04-25T07:01:16.999Z</time></trkpt><trkpt lat="46.567903578942264" lon="26.90663343885688"><ele>171.0</ele><time>2026-04-25T07:01:17.999Z</time></trkpt><trkpt lat="46.567870832729035" lon="26.906433584230943"><ele>171.0</ele><time>2026-04-25T07:01:18.999Z</time></trkpt><trkpt lat="46.56783958304113" lon="26.90624342164591"><ele>171.0</ele><time>2026-04-25T07:01:19.999Z</time></trkpt><trkpt lat="46.56780888839238" lon="26.906056636626037"><ele>171.0</ele><time>2026-04-25T07:01:20.999Z</time></trkpt><trkpt lat="46.567776572232155" lon="26.90585998429522"><ele>171.0</ele><time>2026-04-25T07:01:21.999Z</time></trkpt><trkpt lat="46.567743076317285" lon="26.905656152833473"><ele>171.0</ele><time>2026-04-25T07:01:22.999Z</time></trkpt><trkpt lat="46.56771130588678" lon="26.905462679920113"><ele>171.0</ele><time>2026-04-25T07:01:23.999Z</time></trkpt><trkpt lat="46.56768349711457" lon="26.90529296954712"><ele>171.0</ele><time>2026-04-25T07:01:24.999Z</time></trkpt><trkpt lat="46.56765732437378" lon="26.905133243477593"><ele>171.0</ele><time>2026-04-25T07:01:25.999Z</time></trkpt><trkpt lat="46.567630210678765" lon="26.904967774997555"><ele>171.0</ele><time>2026-04-25T07:01:26.999Z</time></trkpt><trkpt lat="46.56760482843346" lon="26.904812873145566"><ele>170.83333333333334</ele><time>2026-04-25T07:01:27.999Z</time></trkpt><trkpt lat="46.567582105489386" lon="26.904674200379436"><ele>170.66666666666666</ele><time>2026-04-25T07:01:28.999Z</time></trkpt><trkpt lat="46.56752901194695" lon="26.90456123999915"><ele>170.5</ele><time>2026-04-25T07:01:29.998Z</time></trkpt><trkpt lat="46.567510217881726" lon="26.90443368886117"><ele>170.33333333333331</ele><time>2026-04-25T07:01:30.998Z</time></trkpt><trkpt lat="46.567491641232344" lon="26.90431781891071"><ele>170.16666666666666</ele><time>2026-04-25T07:01:31.998Z</time></trkpt><trkpt lat="46.56747522018963" lon="26.904220733735787"><ele>170.0</ele><time>2026-04-25T07:01:32.998Z</time></trkpt><trkpt lat="46.56746280831141" lon="26.9040424866927"><ele>169.83333333333331</ele><time>2026-04-25T07:01:34.998Z</time></trkpt><trkpt lat="46.56747731914626" lon="26.903952048126747"><ele>169.66666666666666</ele><time>2026-04-25T07:01:35.998Z</time></trkpt><trkpt lat="46.567490545675135" lon="26.903860519917085"><ele>169.5</ele><time>2026-04-25T07:01:36.998Z</time></trkpt><trkpt lat="46.56743421738302" lon="26.903697973468145"><ele>169.33333333333334</ele><time>2026-04-25T07:01:38.998Z</time></trkpt><trkpt lat="46.56737034163508" lon="26.903652982176308"><ele>169.16666666666669</ele><time>2026-04-25T07:01:39.998Z</time></trkpt><trkpt lat="46.56729465459759" lon="26.903649301205398"><ele>169.0</ele><time>2026-04-25T07:01:40.998Z</time></trkpt><trkpt lat="46.56722138922762" lon="26.903689331610945"><ele>169.0</ele><time>2026-04-25T07:01:41.998Z</time></trkpt><trkpt lat="46.56715082250593" lon="26.90372100287928"><ele>169.0</ele><time>2026-04-25T07:01:42.998Z</time></trkpt><trkpt lat="46.567084181785646" lon="26.903711537620012"><ele>169.0</ele><time>2026-04-25T07:01:43.998Z</time></trkpt><trkpt lat="46.56702746278404" lon="26.903643116134873"><ele>169.0</ele><time>2026-04-25T07:01:44.998Z</time></trkpt><trkpt lat="46.566974543285895" lon="26.9035508808593"><ele>169.0</ele><time>2026-04-25T07:01:45.998Z</time></trkpt><trkpt lat="46.56691802115094" lon="26.90345577874483"><ele>169.0</ele><time>2026-04-25T07:01:46.998Z</time></trkpt><trkpt lat="46.56685147578895" lon="26.903357189289935"><ele>169.2</ele><time>2026-04-25T07:01:47.998Z</time></trkpt><trkpt lat="46.56677658623896" lon="26.90325223760137"><ele>169.39999999999998</ele><time>2026-04-25T07:01:48.998Z</time></trkpt><trkpt lat="46.56669513224263" lon="26.903147656893783"><ele>169.6</ele><time>2026-04-25T07:01:49.999Z</time></trkpt><trkpt lat="46.56661204372665" lon="26.903059329663584"><ele>169.8</ele><time>2026-04-25T07:01:50.999Z</time></trkpt><trkpt lat="46.56653132826544" lon="26.902970625919306"><ele>170.0</ele><time>2026-04-25T07:01:51.999Z</time></trkpt><trkpt lat="46.566436855461724" lon="26.902882034864835"><ele>170.0</ele><time>2026-04-25T07:01:52.999Z</time></trkpt><trkpt lat="46.56634024212389" lon="26.90277687715444"><ele>170.0</ele><time>2026-04-25T07:01:53.999Z</time></trkpt><trkpt lat="46.566235194440665" lon="26.902671987118065"><ele>170.0</ele><time>2026-04-25T07:01:54.999Z</time></trkpt><trkpt lat="46.56612538947228" lon="26.902553303888048"><ele>170.0</ele><time>2026-04-25T07:01:55.999Z</time></trkpt><trkpt lat="46.56601452912468" lon="26.90242011248743"><ele>170.25</ele><time>2026-04-25T07:01:56.999Z</time></trkpt><trkpt lat="46.565899959850384" lon="26.902295905902907"><ele>170.5</ele><time>2026-04-25T07:01:57.999Z</time></trkpt><trkpt lat="46.5657923621672" lon="26.90217932154528"><ele>170.75</ele><time>2026-04-25T07:01:58.999Z</time></trkpt><trkpt lat="46.5656895390219" lon="26.902061396311634"><ele>171.0</ele><time>2026-04-25T07:01:59.999Z</time></trkpt><trkpt lat="46.565578388217304" lon="26.901947781886545"><ele>171.0</ele><time>2026-04-25T07:02:00.999Z</time></trkpt><trkpt lat="46.565470049920734" lon="26.90182857217761"><ele>171.0</ele><time>2026-04-25T07:02:01.999Z</time></trkpt><trkpt lat="46.56536490349092" lon="26.901710358319097"><ele>171.0</ele><time>2026-04-25T07:02:02.999Z</time></trkpt><trkpt lat="46.56526235233422" lon="26.90159728770911"><ele>171.0</ele><time>2026-04-25T07:02:03.999Z</time></trkpt><trkpt lat="46.565164947991256" lon="26.90148797677717"><ele>171.0</ele><time>2026-04-25T07:02:04.999Z</time></trkpt><trkpt lat="46.56506794759372" lon="26.901387979597686"><ele>171.0</ele><time>2026-04-25T07:02:05.999Z</time></trkpt><trkpt lat="46.56497548300985" lon="26.901292557338365"><ele>171.0</ele><time>2026-04-25T07:02:06.999Z</time></trkpt><trkpt lat="46.56489043595764" lon="26.9011918431934"><ele>171.0</ele><time>2026-04-25T07:02:07.999Z</time></trkpt><trkpt lat="46.56480098361028" lon="26.90109916269381"><ele>171.0</ele><time>2026-04-25T07:02:08.999Z</time></trkpt><trkpt lat="46.564713208415405" lon="26.90100651823"><ele>171.0</ele><time>2026-04-25T07:02:09.999Z</time></trkpt><trkpt lat="46.56462317899436" lon="26.900909885659125"><ele>171.0</ele><time>2026-04-25T07:02:10.999Z</time></trkpt><trkpt lat="46.564528020429485" lon="26.900799494559433"><ele>171.0</ele><time>2026-04-25T07:02:11.999Z</time></trkpt><trkpt lat="46.564429410996894" lon="26.900694763242075"><ele>171.25</ele><time>2026-04-25T07:02:12.999Z</time></trkpt><trkpt lat="46.56433340375484" lon="26.900600602062575"><ele>171.5</ele><time>2026-04-25T07:02:13.999Z</time></trkpt><trkpt lat="46.564242443223165" lon="26.900496844045424"><ele>171.75</ele><time>2026-04-25T07:02:14.999Z</time></trkpt><trkpt lat="46.564148386420165" lon="26.90039321613416"><ele>172.0</ele><time>2026-04-25T07:02:15.999Z</time></trkpt><trkpt lat="46.56405055033862" lon="26.90029103241146"><ele>172.0</ele><time>2026-04-25T07:02:16.999Z</time></trkpt><trkpt lat="46.56395299244749" lon="26.90018500742938"><ele>172.0</ele><time>2026-04-25T07:02:17.999Z</time></trkpt><trkpt lat="46.56385668995913" lon="26.900079405217763"><ele>172.0</ele><time>2026-04-25T07:02:18.999Z</time></trkpt><trkpt lat="46.56376480438775" lon="26.89997962173792"><ele>172.0</ele><time>2026-04-25T07:02:19.999Z</time></trkpt><trkpt lat="46.56368178118679" lon="26.89989270573081"><ele>172.0</ele><time>2026-04-25T07:02:20.999Z</time></trkpt><trkpt lat="46.5636047408389" lon="26.899798851308162"><ele>172.0</ele><time>2026-04-25T07:02:21.999Z</time></trkpt><trkpt lat="46.5635349800923" lon="26.89972051938949"><ele>172.0</ele><time>2026-04-25T07:02:22.999Z</time></trkpt><trkpt lat="46.563484358536904" lon="26.899635673586094"><ele>172.0</ele><time>2026-04-25T07:02:23.999Z</time></trkpt><trkpt lat="46.56342727481087" lon="26.899568510815755"><ele>172.0</ele><time>2026-04-25T07:02:24.999Z</time></trkpt><trkpt lat="46.56336963842313" lon="26.899510683066822"><ele>172.0</ele><time>2026-04-25T07:02:25.999Z</time></trkpt><trkpt lat="46.56330708906495" lon="26.899449365355636"><ele>172.0</ele><time>2026-04-25T07:02:26.999Z</time></trkpt><trkpt lat="46.56321902123929" lon="26.899420740116156"><ele>172.0</ele><time>2026-04-25T07:02:27.999Z</time></trkpt><trkpt lat="46.56313712591515" lon="26.899368904634372"><ele>172.0</ele><time>2026-04-25T07:02:28.999Z</time></trkpt><trkpt lat="46.563052265383156" lon="26.89930085768889"><ele>172.0</ele><time>2026-04-25T07:02:29.999Z</time></trkpt><trkpt lat="46.56296714987908" lon="26.89920297578051"><ele>172.0</ele><time>2026-04-25T07:02:30.999Z</time></trkpt><trkpt lat="46.56288302988889" lon="26.899071635161523"><ele>172.25</ele><time>2026-04-25T07:02:31.999Z</time></trkpt><trkpt lat="46.56280838246207" lon="26.89891890783401"><ele>172.5</ele><time>2026-04-25T07:02:32.999Z</time></trkpt><trkpt lat="46.56273581680638" lon="26.89874058968227"><ele>172.75</ele><time>2026-04-25T07:02:33.999Z</time></trkpt><trkpt lat="46.56267239070035" lon="26.89855836994813"><ele>173.0</ele><time>2026-04-25T07:02:34.999Z</time></trkpt><trkpt lat="46.56261300881416" lon="26.898362096395875"><ele>173.0</ele><time>2026-04-25T07:02:35.999Z</time></trkpt><trkpt lat="46.562523479281246" lon="26.898189779609854"><ele>173.0</ele><time>2026-04-25T07:02:36.999Z</time></trkpt><trkpt lat="46.56244418816857" lon="26.898014789564275"><ele>173.0</ele><time>2026-04-25T07:02:37.999Z</time></trkpt><trkpt lat="46.562367448267466" lon="26.897856219269425"><ele>173.0</ele><time>2026-04-25T07:02:38.999Z</time></trkpt><trkpt lat="46.562291963883624" lon="26.897700551430937"><ele>173.0</ele><time>2026-04-25T07:02:39.999Z</time></trkpt><trkpt lat="46.56222403445717" lon="26.89755395176799"><ele>173.0</ele><time>2026-04-25T07:02:40.999Z</time></trkpt><trkpt lat="46.562153837935085" lon="26.897397536667082"><ele>173.0</ele><time>2026-04-25T07:02:41.999Z</time></trkpt><trkpt lat="46.562129475565804" lon="26.8971961225785"><ele>173.0</ele><time>2026-04-25T07:02:42.999Z</time></trkpt><trkpt lat="46.56206971382908" lon="26.89703480291362"><ele>173.0</ele><time>2026-04-25T07:02:43.999Z</time></trkpt><trkpt lat="46.561973736414494" lon="26.896849106899655"><ele>173.0</ele><time>2026-04-25T07:02:44.999Z</time></trkpt><trkpt lat="46.56185798939856" lon="26.89671460724374"><ele>173.0</ele><time>2026-04-25T07:02:45.999Z</time></trkpt><trkpt lat="46.561785844174814" lon="26.896574731936038"><ele>173.0</ele><time>2026-04-25T07:02:46.999Z</time></trkpt><trkpt lat="46.56172561050256" lon="26.89643687155567"><ele>173.5</ele><time>2026-04-25T07:02:47.999Z</time></trkpt><trkpt lat="46.56167399278167" lon="26.89631555875844"><ele>174.0</ele><time>2026-04-25T07:02:48.999Z</time></trkpt><trkpt lat="46.56162145375109" lon="26.896207028442454"><ele>174.5</ele><time>2026-04-25T07:02:49.999Z</time></trkpt><trkpt lat="46.56157847656271" lon="26.896108966597748"><ele>175.0</ele><time>2026-04-25T07:02:50.999Z</time></trkpt><trkpt lat="46.56154409627883" lon="26.896011562042577"><ele>175.5</ele><time>2026-04-25T07:02:51.999Z</time></trkpt><trkpt lat="46.561512204829135" lon="26.895907958906694"><ele>176.0</ele><time>2026-04-25T07:02:52.999Z</time></trkpt><trkpt lat="46.56148114767499" lon="26.895789848680213"><ele>176.20000000000002</ele><time>2026-04-25T07:02:53.999Z</time></trkpt><trkpt lat="46.561455018049266" lon="26.895654985151385"><ele>176.4</ele><time>2026-04-25T07:02:54.999Z</time></trkpt><trkpt lat="46.561404279897445" lon="26.8955379962254"><ele>176.6</ele><time>2026-04-25T07:02:55.999Z</time></trkpt><trkpt lat="46.56129266883381" lon="26.895454620293307"><ele>176.8</ele><time>2026-04-25T07:02:56.999Z</time></trkpt><trkpt lat="46.561236058873355" lon="26.89531738331876"><ele>177.0</ele><time>2026-04-25T07:02:57.999Z</time></trkpt><trkpt lat="46.56116897811285" lon="26.895164370511015"><ele>176.75</ele><time>2026-04-25T07:02:58.999Z</time></trkpt><trkpt lat="46.5610969790152" lon="26.895009345225205"><ele>176.5</ele><time>2026-04-25T07:02:59.999Z</time></trkpt><trkpt lat="46.56102107793183" lon="26.894846372922018"><ele>176.25</ele><time>2026-04-25T07:03:00.999Z</time></trkpt><trkpt lat="46.56094313913601" lon="26.89467967911952"><ele>176.0</ele><time>2026-04-25T07:03:01.999Z</time></trkpt><trkpt lat="46.56086986142629" lon="26.89452485669364"><ele>176.0</ele><time>2026-04-25T07:03:02.999Z</time></trkpt><trkpt lat="46.56079658131868" lon="26.894370727764898"><ele>176.0</ele><time>2026-04-25T07:03:03.999Z</time></trkpt><trkpt lat="46.56072146723536" lon="26.894210321759047"><ele>176.0</ele><time>2026-04-25T07:03:04.999Z</time></trkpt><trkpt lat="46.560644703883405" lon="26.894045336803657"><ele>176.0</ele><time>2026-04-25T07:03:05.999Z</time></trkpt><trkpt lat="46.56056806509317" lon="26.89387616980413"><ele>176.0</ele><time>2026-04-25T07:03:06.999Z</time></trkpt><trkpt lat="46.56049122160608" lon="26.893709834512627"><ele>176.0</ele><time>2026-04-25T07:03:07.999Z</time></trkpt><trkpt lat="46.56041491352367" lon="26.893544821356322"><ele>176.0</ele><time>2026-04-25T07:03:08.999Z</time></trkpt><trkpt lat="46.560339132326625" lon="26.893378748168463"><ele>176.0</ele><time>2026-04-25T07:03:09.999Z</time></trkpt><trkpt lat="46.560264307656695" lon="26.893212945279437"><ele>176.25</ele><time>2026-04-25T07:03:10.999Z</time></trkpt><trkpt lat="46.560187065790664" lon="26.89304824311245"><ele>176.5</ele><time>2026-04-25T07:03:11.999Z</time></trkpt><trkpt lat="46.56010890843901" lon="26.892882686387026"><ele>176.75</ele><time>2026-04-25T07:03:12.999Z</time></trkpt><trkpt lat="46.56003132150838" lon="26.8927133060157"><ele>177.0</ele><time>2026-04-25T07:03:13.999Z</time></trkpt><trkpt lat="46.55995418279159" lon="26.892546724255702"><ele>177.5</ele><time>2026-04-25T07:03:14.999Z</time></trkpt><trkpt lat="46.55987719313373" lon="26.892381981026023"><ele>178.0</ele><time>2026-04-25T07:03:15.999Z</time></trkpt><trkpt lat="46.55980324107046" lon="26.892218899151157"><ele>178.5</ele><time>2026-04-25T07:03:16.999Z</time></trkpt><trkpt lat="46.55972400251225" lon="26.892052696128037"><ele>179.0</ele><time>2026-04-25T07:03:17.999Z</time></trkpt><trkpt lat="46.55964635512252" lon="26.891887780927387"><ele>179.0</ele><time>2026-04-25T07:03:18.999Z</time></trkpt><trkpt lat="46.55957207712462" lon="26.891724442047458"><ele>179.0</ele><time>2026-04-25T07:03:19.999Z</time></trkpt><trkpt lat="46.55949466787508" lon="26.891563448089215"><ele>179.0</ele><time>2026-04-25T07:03:20.999Z</time></trkpt><trkpt lat="46.55942036010383" lon="26.891399366073486"><ele>179.0</ele><time>2026-04-25T07:03:21.999Z</time></trkpt><trkpt lat="46.55934280927179" lon="26.89123393082952"><ele>179.25</ele><time>2026-04-25T07:03:22.999Z</time></trkpt><trkpt lat="46.55925401443203" lon="26.891078756902875"><ele>179.5</ele><time>2026-04-25T07:03:23.999Z</time></trkpt><trkpt lat="46.55918439610824" lon="26.89090464762285"><ele>179.75</ele><time>2026-04-25T07:03:24.999Z</time></trkpt><trkpt lat="46.559108147711505" lon="26.890738117952182"><ele>180.0</ele><time>2026-04-25T07:03:25.999Z</time></trkpt><trkpt lat="46.55903158551246" lon="26.89056985142169"><ele>180.25</ele><time>2026-04-25T07:03:26.999Z</time></trkpt><trkpt lat="46.55896185500566" lon="26.890410275711215"><ele>180.5</ele><time>2026-04-25T07:03:27.999Z</time></trkpt><trkpt lat="46.55888830096048" lon="26.890245305285784"><ele>180.75</ele><time>2026-04-25T07:03:28.999Z</time></trkpt><trkpt lat="46.558815498957344" lon="26.890088525483765"><ele>181.0</ele><time>2026-04-25T07:03:29.999Z</time></trkpt><trkpt lat="46.558731193170196" lon="26.889921716569464"><ele>180.75</ele><time>2026-04-25T07:03:30.999Z</time></trkpt><trkpt lat="46.558651074302055" lon="26.88974647859821"><ele>180.5</ele><time>2026-04-25T07:03:31.999Z</time></trkpt><trkpt lat="46.55857410394384" lon="26.889583421622223"><ele>180.25</ele><time>2026-04-25T07:03:32.999Z</time></trkpt><trkpt lat="46.55849471945991" lon="26.88940589212348"><ele>180.0</ele><time>2026-04-25T07:03:33.999Z</time></trkpt><trkpt lat="46.55841600505561" lon="26.889225688866873"><ele>180.0</ele><time>2026-04-25T07:03:34.999Z</time></trkpt><trkpt lat="46.5583347353046" lon="26.88904109291879"><ele>180.0</ele><time>2026-04-25T07:03:35.999Z</time></trkpt><trkpt lat="46.55825057671906" lon="26.888861952638628"><ele>180.0</ele><time>2026-04-25T07:03:36.999Z</time></trkpt><trkpt lat="46.55816175061493" lon="26.88867560488811"><ele>180.0</ele><time>2026-04-25T07:03:37.999Z</time></trkpt><trkpt lat="46.558080577006685" lon="26.888496439835695"><ele>180.0</ele><time>2026-04-25T07:03:38.999Z</time></trkpt><trkpt lat="46.557997172186255" lon="26.888317574179727"><ele>180.0</ele><time>2026-04-25T07:03:39.999Z</time></trkpt><trkpt lat="46.55791871548231" lon="26.88815074807735"><ele>180.0</ele><time>2026-04-25T07:03:40.999Z</time></trkpt><trkpt lat="46.5578384837353" lon="26.887982111093873"><ele>180.75</ele><time>2026-04-25T07:03:41.999Z</time></trkpt><trkpt lat="46.557759084401866" lon="26.887814324464514"><ele>181.5</ele><time>2026-04-25T07:03:42.999Z</time></trkpt><trkpt lat="46.55767922322693" lon="26.88764966728612"><ele>182.25</ele><time>2026-04-25T07:03:43.999Z</time></trkpt><trkpt lat="46.55760399836404" lon="26.88747852857902"><ele>183.0</ele><time>2026-04-25T07:03:44.999Z</time></trkpt><trkpt lat="46.55753374695911" lon="26.887311794427784"><ele>183.25</ele><time>2026-04-25T07:03:45.999Z</time></trkpt><trkpt lat="46.55745861881451" lon="26.887155184944415"><ele>183.5</ele><time>2026-04-25T07:03:46.999Z</time></trkpt><trkpt lat="46.55738194349058" lon="26.886996532579175"><ele>183.75</ele><time>2026-04-25T07:03:47.999Z</time></trkpt><trkpt lat="46.55731186810855" lon="26.88685308758689"><ele>184.0</ele><time>2026-04-25T07:03:48.999Z</time></trkpt><trkpt lat="46.55725303794256" lon="26.886727230627436"><ele>184.0</ele><time>2026-04-25T07:03:49.999Z</time></trkpt><trkpt lat="46.55720212861596" lon="26.886611691405413"><ele>184.0</ele><time>2026-04-25T07:03:50.999Z</time></trkpt><trkpt lat="46.55715620639218" lon="26.886510785423404"><ele>184.0</ele><time>2026-04-25T07:03:51.999Z</time></trkpt><trkpt lat="46.55713098278391" lon="26.88640976350859"><ele>184.0</ele><time>2026-04-25T07:03:52.999Z</time></trkpt><trkpt lat="46.55713412673736" lon="26.886297912897614"><ele>184.0</ele><time>2026-04-25T07:03:53.999Z</time></trkpt><trkpt lat="46.55716361621171" lon="26.886174203176783"><ele>184.0</ele><time>2026-04-25T07:03:54.999Z</time></trkpt><trkpt lat="46.55720738779371" lon="26.886039845034066"><ele>184.0</ele><time>2026-04-25T07:03:55.999Z</time></trkpt><trkpt lat="46.55725397008885" lon="26.885912053370316"><ele>184.0</ele><time>2026-04-25T07:03:56.999Z</time></trkpt><trkpt lat="46.557314947790516" lon="26.885784657904455"><ele>184.0</ele><time>2026-04-25T07:03:57.999Z</time></trkpt><trkpt lat="46.55739016745744" lon="26.88566162377491"><ele>184.0</ele><time>2026-04-25T07:03:58.999Z</time></trkpt><trkpt lat="46.55747714569245" lon="26.88553802034505"><ele>184.0</ele><time>2026-04-25T07:03:59.999Z</time></trkpt><trkpt lat="46.557566438321004" lon="26.88540984091352"><ele>184.0</ele><time>2026-04-25T07:04:00.999Z</time></trkpt><trkpt lat="46.55766385044131" lon="26.885287933752075"><ele>184.0</ele><time>2026-04-25T07:04:01.999Z</time></trkpt><trkpt lat="46.55777017578475" lon="26.885162550600676"><ele>184.0</ele><time>2026-04-25T07:04:02.999Z</time></trkpt><trkpt lat="46.557881774930436" lon="26.885036054592106"><ele>184.0</ele><time>2026-04-25T07:04:03.999Z</time></trkpt><trkpt lat="46.557986007264915" lon="26.88491210579901"><ele>184.5</ele><time>2026-04-25T07:04:04.999Z</time></trkpt><trkpt lat="46.55809208844697" lon="26.884785760288725"><ele>185.0</ele><time>2026-04-25T07:04:05.999Z</time></trkpt><trkpt lat="46.558201419769446" lon="26.884661639440587"><ele>185.5</ele><time>2026-04-25T07:04:06.999Z</time></trkpt><trkpt lat="46.558313363131745" lon="26.884528364376"><ele>186.0</ele><time>2026-04-25T07:04:07.999Z</time></trkpt><trkpt lat="46.558421291846905" lon="26.884401692145833"><ele>186.0</ele><time>2026-04-25T07:04:08.999Z</time></trkpt><trkpt lat="46.55852036315629" lon="26.884292548553415"><ele>186.0</ele><time>2026-04-25T07:04:09.999Z</time></trkpt><trkpt lat="46.55861117202799" lon="26.884189357402928"><ele>186.0</ele><time>2026-04-25T07:04:10.999Z</time></trkpt><trkpt lat="46.55877855722912" lon="26.88402932372902"><ele>186.0</ele><time>2026-04-25T07:04:12.999Z</time></trkpt><trkpt lat="46.55884910375952" lon="26.883969462860662"><ele>185.75</ele><time>2026-04-25T07:04:13.999Z</time></trkpt><trkpt lat="46.55895255560016" lon="26.88390724488955"><ele>185.5</ele><time>2026-04-25T07:04:14.999Z</time></trkpt><trkpt lat="46.559058044585846" lon="26.883832617348972"><ele>185.25</ele><time>2026-04-25T07:04:15.999Z</time></trkpt><trkpt lat="46.55917653634904" lon="26.883757562454424"><ele>185.0</ele><time>2026-04-25T07:04:16.999Z</time></trkpt><trkpt lat="46.559306929822974" lon="26.883698390343774"><ele>185.0</ele><time>2026-04-25T07:04:17.999Z</time></trkpt><trkpt lat="46.55944994308422" lon="26.883644370506573"><ele>185.0</ele><time>2026-04-25T07:04:18.999Z</time></trkpt><trkpt lat="46.55959103729572" lon="26.883599613675777"><ele>185.0</ele><time>2026-04-25T07:04:19.999Z</time></trkpt><trkpt lat="46.559736973975824" lon="26.883569206986472"><ele>185.0</ele><time>2026-04-25T07:04:20.999Z</time></trkpt><trkpt lat="46.559870156560685" lon="26.88354011491862"><ele>185.25</ele><time>2026-04-25T07:04:21.999Z</time></trkpt><trkpt lat="46.560013416319336" lon="26.883525608209915"><ele>185.5</ele><time>2026-04-25T07:04:22.999Z</time></trkpt><trkpt lat="46.56014388725341" lon="26.883522400111705"><ele>185.75</ele><time>2026-04-25T07:04:23.999Z</time></trkpt><trkpt lat="46.56027471051722" lon="26.88352503389281"><ele>186.0</ele><time>2026-04-25T07:04:24.999Z</time></trkpt><trkpt lat="46.56041403795662" lon="26.88352906705391"><ele>186.0</ele><time>2026-04-25T07:04:25.999Z</time></trkpt><trkpt lat="46.56055623111947" lon="26.883526432508585"><ele>186.0</ele><time>2026-04-25T07:04:26.999Z</time></trkpt><trkpt lat="46.560699374762216" lon="26.883526470657706"><ele>186.0</ele><time>2026-04-25T07:04:27.999Z</time></trkpt><trkpt lat="46.560848753254405" lon="26.883526731390038"><ele>186.0</ele><time>2026-04-25T07:04:28.999Z</time></trkpt><trkpt lat="46.56100030287146" lon="26.883517229577944"><ele>186.0</ele><time>2026-04-25T07:04:29.999Z</time></trkpt><trkpt lat="46.561161023328665" lon="26.883507522431515"><ele>186.0</ele><time>2026-04-25T07:04:30.999Z</time></trkpt><trkpt lat="46.56130192144758" lon="26.883481190945"><ele>186.0</ele><time>2026-04-25T07:04:31.999Z</time></trkpt><trkpt lat="46.56143953673326" lon="26.88345440727749"><ele>186.0</ele><time>2026-04-25T07:04:32.999Z</time></trkpt><trkpt lat="46.56156230831397" lon="26.88343451738993"><ele>186.0</ele><time>2026-04-25T07:04:33.999Z</time></trkpt><trkpt lat="46.56167378523564" lon="26.883407263516595"><ele>186.0</ele><time>2026-04-25T07:04:34.999Z</time></trkpt><trkpt lat="46.561796982511105" lon="26.883369847467755"><ele>186.0</ele><time>2026-04-25T07:04:35.999Z</time></trkpt><trkpt lat="46.561920485286926" lon="26.883332889218106"><ele>186.0</ele><time>2026-04-25T07:04:36.999Z</time></trkpt><trkpt lat="46.561995386678525" lon="26.88332090952009"><ele>186.0</ele><time>2026-04-25T07:04:37.999Z</time></trkpt><trkpt lat="46.562065054030036" lon="26.883299621024438"><ele>185.5</ele><time>2026-04-25T07:04:39.999Z</time></trkpt><trkpt lat="46.5622069678463" lon="26.883258491482767"><ele>185.0</ele><time>2026-04-25T07:04:41.999Z</time></trkpt><trkpt lat="46.562305335874335" lon="26.883222821847713"><ele>184.5</ele><time>2026-04-25T07:04:42.999Z</time></trkpt><trkpt lat="46.56241666667841" lon="26.883182603235138"><ele>184.0</ele><time>2026-04-25T07:04:43.999Z</time></trkpt><trkpt lat="46.56253153096525" lon="26.883159270712227"><ele>184.0</ele><time>2026-04-25T07:04:44.999Z</time></trkpt><trkpt lat="46.56264528224778" lon="26.883125550986545"><ele>184.0</ele><time>2026-04-25T07:04:45.999Z</time></trkpt><trkpt lat="46.56276311784197" lon="26.883091466935234"><ele>184.0</ele><time>2026-04-25T07:04:46.999Z</time></trkpt><trkpt lat="46.562878127041785" lon="26.883056855652896"><ele>184.0</ele><time>2026-04-25T07:04:47.999Z</time></trkpt><trkpt lat="46.56299151350681" lon="26.883022331571308"><ele>183.83333333333334</ele><time>2026-04-25T07:04:48.999Z</time></trkpt><trkpt lat="46.56309201682809" lon="26.882981689633215"><ele>183.66666666666669</ele><time>2026-04-25T07:04:49.999Z</time></trkpt><trkpt lat="46.563185696573875" lon="26.882957804532015"><ele>183.5</ele><time>2026-04-25T07:04:50.999Z</time></trkpt><trkpt lat="46.563276085351674" lon="26.882926893268806"><ele>183.33333333333334</ele><time>2026-04-25T07:04:51.999Z</time></trkpt><trkpt lat="46.563348665306044" lon="26.882903791434572"><ele>183.16666666666666</ele><time>2026-04-25T07:04:52.999Z</time></trkpt><trkpt lat="46.563414952416" lon="26.88287680932645"><ele>183.0</ele><time>2026-04-25T07:04:54.999Z</time></trkpt><trkpt lat="46.56359650449053" lon="26.88272918626544"><ele>183.66666666666666</ele><time>2026-04-25T07:04:55.999Z</time></trkpt><trkpt lat="46.56332811507846" lon="26.88254850521121"><ele>184.33333333333331</ele><time>2026-04-25T07:04:57.999Z</time></trkpt><trkpt lat="46.563257071252785" lon="26.882468660128126"><ele>185.0</ele><time>2026-04-25T07:04:58.999Z</time></trkpt><trkpt lat="46.563169901310815" lon="26.882378033770767"><ele>185.0</ele><time>2026-04-25T07:04:59.999Z</time></trkpt><trkpt lat="46.563077264552994" lon="26.882288230529024"><ele>185.0</ele><time>2026-04-25T07:05:00.999Z</time></trkpt><trkpt lat="46.56298658044087" lon="26.88220032021108"><ele>185.0</ele><time>2026-04-25T07:05:01.999Z</time></trkpt><trkpt lat="46.562898684910884" lon="26.88211511314221"><ele>185.0</ele><time>2026-04-25T07:05:02.999Z</time></trkpt><trkpt lat="46.5627822574589" lon="26.88208447268751"><ele>185.0</ele><time>2026-04-25T07:05:03.999Z</time></trkpt><trkpt lat="46.56265996816944" lon="26.882064004548685"><ele>185.25</ele><time>2026-04-25T07:05:04.999Z</time></trkpt><trkpt lat="46.562526814768404" lon="26.882056943907887"><ele>185.5</ele><time>2026-04-25T07:05:05.999Z</time></trkpt><trkpt lat="46.562389360960516" lon="26.882043552788062"><ele>185.75</ele><time>2026-04-25T07:05:06.999Z</time></trkpt><trkpt lat="46.56225526611219" lon="26.881986202134353"><ele>186.0</ele><time>2026-04-25T07:05:07.999Z</time></trkpt><trkpt lat="46.56211442123078" lon="26.881927156096697"><ele>186.25</ele><time>2026-04-25T07:05:08.999Z</time></trkpt><trkpt lat="46.56197978175626" lon="26.88188512496391"><ele>186.5</ele><time>2026-04-25T07:05:09.999Z</time></trkpt><trkpt lat="46.561859839155936" lon="26.88181664791584"><ele>186.75</ele><time>2026-04-25T07:05:10.999Z</time></trkpt><trkpt lat="46.561737160086096" lon="26.881748197015945"><ele>187.0</ele><time>2026-04-25T07:05:11.999Z</time></trkpt><trkpt lat="46.561633729301334" lon="26.881646208836127"><ele>187.39999999999998</ele><time>2026-04-25T07:05:12.999Z</time></trkpt><trkpt lat="46.561539268474085" lon="26.88155671803386"><ele>187.79999999999998</ele><time>2026-04-25T07:05:13.999Z</time></trkpt><trkpt lat="46.5614679340682" lon="26.881464740079462"><ele>188.2</ele><time>2026-04-25T07:05:14.999Z</time></trkpt><trkpt lat="46.56139353919344" lon="26.881374167778215"><ele>188.6</ele><time>2026-04-25T07:05:15.999Z</time></trkpt><trkpt lat="46.561355447108696" lon="26.881227738264876"><ele>189.0</ele><time>2026-04-25T07:05:16.999Z</time></trkpt><trkpt lat="46.56133260844206" lon="26.88107523748048"><ele>189.25</ele><time>2026-04-25T07:05:17.999Z</time></trkpt><trkpt lat="46.56130106784803" lon="26.8809200855899"><ele>189.5</ele><time>2026-04-25T07:05:18.999Z</time></trkpt><trkpt lat="46.561269656044836" lon="26.8807655672365"><ele>189.75</ele><time>2026-04-25T07:05:19.999Z</time></trkpt><trkpt lat="46.561239478047355" lon="26.880597809188274"><ele>190.0</ele><time>2026-04-25T07:05:20.999Z</time></trkpt><trkpt lat="46.56121039826914" lon="26.880417381378567"><ele>190.0</ele><time>2026-04-25T07:05:21.999Z</time></trkpt><trkpt lat="46.561180624861045" lon="26.88023264988332"><ele>190.0</ele><time>2026-04-25T07:05:22.999Z</time></trkpt><trkpt lat="46.56114967560896" lon="26.88004297969719"><ele>190.0</ele><time>2026-04-25T07:05:23.999Z</time></trkpt><trkpt lat="46.56111795854939" lon="26.879848965186405"><ele>190.0</ele><time>2026-04-25T07:05:24.999Z</time></trkpt><trkpt lat="46.56108310498595" lon="26.879653502647717"><ele>190.0</ele><time>2026-04-25T07:05:25.999Z</time></trkpt><trkpt lat="46.56104586224844" lon="26.879450014993605"><ele>190.0</ele><time>2026-04-25T07:05:26.999Z</time></trkpt><trkpt lat="46.56100764988858" lon="26.879252185013083"><ele>190.0</ele><time>2026-04-25T07:05:27.999Z</time></trkpt><trkpt lat="46.56096970804509" lon="26.879057611945544"><ele>190.0</ele><time>2026-04-25T07:05:28.999Z</time></trkpt><trkpt lat="46.560921396436946" lon="26.878882283150073"><ele>190.25</ele><time>2026-04-25T07:05:29.999Z</time></trkpt><trkpt lat="46.56088794284829" lon="26.878694619383246"><ele>190.5</ele><time>2026-04-25T07:05:30.999Z</time></trkpt><trkpt lat="46.56085328832234" lon="26.87851151071673"><ele>190.75</ele><time>2026-04-25T07:05:31.999Z</time></trkpt><trkpt lat="46.56084217630578" lon="26.878325312826966"><ele>191.0</ele><time>2026-04-25T07:05:32.999Z</time></trkpt><trkpt lat="46.56082151461377" lon="26.878148578695292"><ele>191.25</ele><time>2026-04-25T07:05:33.999Z</time></trkpt><trkpt lat="46.56080128683696" lon="26.877975556138093"><ele>191.5</ele><time>2026-04-25T07:05:34.999Z</time></trkpt><trkpt lat="46.56078106934246" lon="26.877802621546415"><ele>191.75</ele><time>2026-04-25T07:05:35.999Z</time></trkpt><trkpt lat="46.56076077646261" lon="26.877629042124997"><ele>192.0</ele><time>2026-04-25T07:05:36.999Z</time></trkpt><trkpt lat="46.56073925267154" lon="26.877446232506312"><ele>192.25</ele><time>2026-04-25T07:05:37.999Z</time></trkpt><trkpt lat="46.56071760388024" lon="26.877263027582387"><ele>192.5</ele><time>2026-04-25T07:05:38.999Z</time></trkpt><trkpt lat="46.56069506324207" lon="26.87707227532901"><ele>192.75</ele><time>2026-04-25T07:05:39.999Z</time></trkpt><trkpt lat="46.56067255142954" lon="26.876882379008205"><ele>193.0</ele><time>2026-04-25T07:05:40.999Z</time></trkpt><trkpt lat="46.56064695626889" lon="26.87668736448989"><ele>193.0</ele><time>2026-04-25T07:05:41.999Z</time></trkpt><trkpt lat="46.56062070222667" lon="26.876487329816815"><ele>193.0</ele><time>2026-04-25T07:05:42.999Z</time></trkpt><trkpt lat="46.56059204843599" lon="26.87626814012047"><ele>193.0</ele><time>2026-04-25T07:05:43.999Z</time></trkpt><trkpt lat="46.56056695372122" lon="26.876075622236158"><ele>193.0</ele><time>2026-04-25T07:05:44.999Z</time></trkpt><trkpt lat="46.56053944849615" lon="26.875864611742195"><ele>193.33333333333331</ele><time>2026-04-25T07:05:45.999Z</time></trkpt><trkpt lat="46.560510521955834" lon="26.87564269742049"><ele>193.66666666666669</ele><time>2026-04-25T07:05:46.999Z</time></trkpt><trkpt lat="46.56048193213291" lon="26.875423366277875"><ele>194.0</ele><time>2026-04-25T07:05:47.999Z</time></trkpt><trkpt lat="46.56045199564256" lon="26.875193703970375"><ele>194.25</ele><time>2026-04-25T07:05:48.999Z</time></trkpt><trkpt lat="46.56042388959837" lon="26.87497868081717"><ele>194.5</ele><time>2026-04-25T07:05:49.999Z</time></trkpt><trkpt lat="46.56036859540691" lon="26.874780773224764"><ele>194.75</ele><time>2026-04-25T07:05:50.999Z</time></trkpt><trkpt lat="46.560335659317815" lon="26.87459091802479"><ele>195.0</ele><time>2026-04-25T07:05:52Z</time></trkpt><trkpt lat="46.56029718362057" lon="26.87441332690498"><ele>195.25</ele><time>2026-04-25T07:05:53Z</time></trkpt><trkpt lat="46.56024010116187" lon="26.874255474820586"><ele>195.5</ele><time>2026-04-25T07:05:54Z</time></trkpt><trkpt lat="46.560166167058945" lon="26.874122850107696"><ele>195.75</ele><time>2026-04-25T07:05:55Z</time></trkpt><trkpt lat="46.56007114215799" lon="26.87399544402165"><ele>196.0</ele><time>2026-04-25T07:05:56Z</time></trkpt><trkpt lat="46.55996391009645" lon="26.873881238320124"><ele>196.0</ele><time>2026-04-25T07:05:57Z</time></trkpt><trkpt lat="46.55986978552394" lon="26.873752875317937"><ele>196.0</ele><time>2026-04-25T07:05:58Z</time></trkpt><trkpt lat="46.5597765528856" lon="26.87364503918509"><ele>196.0</ele><time>2026-04-25T07:05:59Z</time></trkpt><trkpt lat="46.55969169380835" lon="26.873525584547448"><ele>196.0</ele><time>2026-04-25T07:06:00Z</time></trkpt><trkpt lat="46.559601420274696" lon="26.87339427222162"><ele>196.25</ele><time>2026-04-25T07:06:01Z</time></trkpt><trkpt lat="46.55951701234295" lon="26.873248405493616"><ele>196.5</ele><time>2026-04-25T07:06:02Z</time></trkpt><trkpt lat="46.55942383453622" lon="26.873100744063937"><ele>196.75</ele><time>2026-04-25T07:06:03Z</time></trkpt><trkpt lat="46.5594079038027" lon="26.872882737521476"><ele>197.0</ele><time>2026-04-25T07:06:04Z</time></trkpt><trkpt lat="46.559370970168196" lon="26.87267741855744"><ele>196.66666666666669</ele><time>2026-04-25T07:06:05Z</time></trkpt><trkpt lat="46.5593432837614" lon="26.872456731350407"><ele>196.33333333333331</ele><time>2026-04-25T07:06:06Z</time></trkpt><trkpt lat="46.55931970229786" lon="26.87223258302767"><ele>196.0</ele><time>2026-04-25T07:06:07Z</time></trkpt><trkpt lat="46.55929485538375" lon="26.871996864268002"><ele>196.66666666666666</ele><time>2026-04-25T07:06:08Z</time></trkpt><trkpt lat="46.55926938575707" lon="26.871755237959945"><ele>197.33333333333331</ele><time>2026-04-25T07:06:09Z</time></trkpt><trkpt lat="46.55924483253923" lon="26.871520112232815"><ele>198.0</ele><time>2026-04-25T07:06:10Z</time></trkpt><trkpt lat="46.55922031079217" lon="26.87128580908503"><ele>198.0</ele><time>2026-04-25T07:06:11Z</time></trkpt><trkpt lat="46.55919404704992" lon="26.871051410267665"><ele>198.0</ele><time>2026-04-25T07:06:12Z</time></trkpt><trkpt lat="46.559150444442714" lon="26.8708266224883"><ele>198.0</ele><time>2026-04-25T07:06:13Z</time></trkpt><trkpt lat="46.559152440800474" lon="26.87059743757266"><ele>198.25</ele><time>2026-04-25T07:06:14Z</time></trkpt><trkpt lat="46.559146682353145" lon="26.870389925341108"><ele>198.5</ele><time>2026-04-25T07:06:15Z</time></trkpt><trkpt lat="46.55914138464266" lon="26.870199016314352"><ele>198.75</ele><time>2026-04-25T07:06:16Z</time></trkpt><trkpt lat="46.559153224407524" lon="26.87001631457113"><ele>199.0</ele><time>2026-04-25T07:06:17Z</time></trkpt><trkpt lat="46.559174620907974" lon="26.869816597462158"><ele>199.0</ele><time>2026-04-25T07:06:18Z</time></trkpt><trkpt lat="46.55920457680096" lon="26.8696307295412"><ele>199.0</ele><time>2026-04-25T07:06:19Z</time></trkpt><trkpt lat="46.55923783082722" lon="26.869463371329406"><ele>199.0</ele><time>2026-04-25T07:06:20Z</time></trkpt><trkpt lat="46.55927174938816" lon="26.869292668719286"><ele>199.0</ele><time>2026-04-25T07:06:21Z</time></trkpt><trkpt lat="46.559324186779534" lon="26.869139947324616"><ele>199.16666666666666</ele><time>2026-04-25T07:06:22Z</time></trkpt><trkpt lat="46.55938089293051" lon="26.868996398604132"><ele>199.33333333333331</ele><time>2026-04-25T07:06:23Z</time></trkpt><trkpt lat="46.559413995029665" lon="26.868865449541627"><ele>199.5</ele><time>2026-04-25T07:06:24Z</time></trkpt><trkpt lat="46.559459247986496" lon="26.868793802132018"><ele>199.66666666666669</ele><time>2026-04-25T07:06:26Z</time></trkpt><trkpt lat="46.55952295982227" lon="26.86874168210243"><ele>199.83333333333334</ele><time>2026-04-25T07:06:36Z</time></trkpt><trkpt lat="46.559575376579005" lon="26.868673572054128"><ele>200.0</ele><time>2026-04-25T07:06:37Z</time></trkpt><trkpt lat="46.55963417886142" lon="26.86860127038055"><ele>200.0</ele><time>2026-04-25T07:06:38Z</time></trkpt><trkpt lat="46.55969174526391" lon="26.86853889337571"><ele>200.0</ele><time>2026-04-25T07:06:39Z</time></trkpt><trkpt lat="46.5597598639364" lon="26.868466554874825"><ele>200.0</ele><time>2026-04-25T07:06:40Z</time></trkpt><trkpt lat="46.55984074016404" lon="26.868380008357995"><ele>200.0</ele><time>2026-04-25T07:06:41Z</time></trkpt><trkpt lat="46.55992645674655" lon="26.868278367328156"><ele>200.0</ele><time>2026-04-25T07:06:42Z</time></trkpt><trkpt lat="46.56000703366912" lon="26.868155304552186"><ele>200.25</ele><time>2026-04-25T07:06:43Z</time></trkpt><trkpt lat="46.560091415011534" lon="26.868056610149594"><ele>200.5</ele><time>2026-04-25T07:06:44Z</time></trkpt><trkpt lat="46.56018217912407" lon="26.867961594111275"><ele>200.75</ele><time>2026-04-25T07:06:45Z</time></trkpt><trkpt lat="46.56026849151954" lon="26.867821961950973"><ele>201.0</ele><time>2026-04-25T07:06:46Z</time></trkpt><trkpt lat="46.56034607543383" lon="26.86769884947957"><ele>201.5</ele><time>2026-04-25T07:06:47Z</time></trkpt><trkpt lat="46.560425768219666" lon="26.867553571983866"><ele>202.0</ele><time>2026-04-25T07:06:48Z</time></trkpt><trkpt lat="46.56050549599147" lon="26.867394325117782"><ele>202.5</ele><time>2026-04-25T07:06:49Z</time></trkpt><trkpt lat="46.560580494016385" lon="26.867227361635024"><ele>203.0</ele><time>2026-04-25T07:06:50Z</time></trkpt><trkpt lat="46.560630707663734" lon="26.867019296253304"><ele>203.0</ele><time>2026-04-25T07:06:51Z</time></trkpt><trkpt lat="46.56067487853549" lon="26.86682074503792"><ele>203.0</ele><time>2026-04-25T07:06:52Z</time></trkpt><trkpt lat="46.56071861678342" lon="26.866624310199537"><ele>203.0</ele><time>2026-04-25T07:06:53Z</time></trkpt><trkpt lat="46.56076469252246" lon="26.86641829797161"><ele>203.0</ele><time>2026-04-25T07:06:54Z</time></trkpt><trkpt lat="46.56081225698191" lon="26.866205629423096"><ele>203.0</ele><time>2026-04-25T07:06:55Z</time></trkpt><trkpt lat="46.560859581179336" lon="26.865994035131422"><ele>203.0</ele><time>2026-04-25T07:06:56Z</time></trkpt><trkpt lat="46.56090580340918" lon="26.86578705352191"><ele>203.0</ele><time>2026-04-25T07:06:57Z</time></trkpt><trkpt lat="46.56095230978482" lon="26.865578418607768"><ele>203.0</ele><time>2026-04-25T07:06:58Z</time></trkpt><trkpt lat="46.56099840128377" lon="26.865371644764434"><ele>203.0</ele><time>2026-04-25T07:06:59Z</time></trkpt><trkpt lat="46.56104646972053" lon="26.865157786400793"><ele>203.0</ele><time>2026-04-25T07:07:00Z</time></trkpt><trkpt lat="46.56108742283258" lon="26.864949604004824"><ele>203.0</ele><time>2026-04-25T07:07:01Z</time></trkpt><trkpt lat="46.56112905929987" lon="26.864738350690637"><ele>203.0</ele><time>2026-04-25T07:07:02Z</time></trkpt><trkpt lat="46.561171487506996" lon="26.864523220135286"><ele>203.0</ele><time>2026-04-25T07:07:03Z</time></trkpt><trkpt lat="46.56120199544973" lon="26.86429274676261"><ele>203.33333333333334</ele><time>2026-04-25T07:07:04Z</time></trkpt><trkpt lat="46.56123103940496" lon="26.864065896031704"><ele>203.66666666666669</ele><time>2026-04-25T07:07:05Z</time></trkpt><trkpt lat="46.56125651445501" lon="26.86383971249957"><ele>204.0</ele><time>2026-04-25T07:07:06Z</time></trkpt><trkpt lat="46.56127743130185" lon="26.86361034472976"><ele>204.66666666666669</ele><time>2026-04-25T07:07:07Z</time></trkpt><trkpt lat="46.561300284809484" lon="26.863376980890415"><ele>205.33333333333334</ele><time>2026-04-25T07:07:08Z</time></trkpt><trkpt lat="46.561323808092" lon="26.863145207601587"><ele>206.0</ele><time>2026-04-25T07:07:09Z</time></trkpt><trkpt lat="46.561347325922384" lon="26.86291636101946"><ele>206.0</ele><time>2026-04-25T07:07:10Z</time></trkpt><trkpt lat="46.56137172594367" lon="26.86267893004056"><ele>206.0</ele><time>2026-04-25T07:07:11Z</time></trkpt><trkpt lat="46.56139572305201" lon="26.862444744490276"><ele>206.0</ele><time>2026-04-25T07:07:12Z</time></trkpt><trkpt lat="46.56141860441166" lon="26.862221305501283"><ele>206.75</ele><time>2026-04-25T07:07:13Z</time></trkpt><trkpt lat="46.561441324995414" lon="26.861999436500184"><ele>207.5</ele><time>2026-04-25T07:07:14Z</time></trkpt><trkpt lat="46.56146282736894" lon="26.861786458520623"><ele>208.25</ele><time>2026-04-25T07:07:15Z</time></trkpt><trkpt lat="46.56148773693199" lon="26.861575766166762"><ele>209.0</ele><time>2026-04-25T07:07:16Z</time></trkpt><trkpt lat="46.5615203171674" lon="26.861376923277604"><ele>210.0</ele><time>2026-04-25T07:07:17Z</time></trkpt><trkpt lat="46.56155369507841" lon="26.861173212044005"><ele>211.0</ele><time>2026-04-25T07:07:18Z</time></trkpt><trkpt lat="46.56158376830374" lon="26.860977496078515"><ele>212.0</ele><time>2026-04-25T07:07:19Z</time></trkpt><trkpt lat="46.561613149739976" lon="26.86078092906055"><ele>213.0</ele><time>2026-04-25T07:07:20Z</time></trkpt><trkpt lat="46.56159609813454" lon="26.860566520465365"><ele>213.75</ele><time>2026-04-25T07:07:21Z</time></trkpt><trkpt lat="46.561591637690576" lon="26.86036851057848"><ele>214.5</ele><time>2026-04-25T07:07:22Z</time></trkpt><trkpt lat="46.56158764177966" lon="26.860171014142786"><ele>215.25</ele><time>2026-04-25T07:07:23Z</time></trkpt><trkpt lat="46.561583207772856" lon="26.859963076652548"><ele>216.0</ele><time>2026-04-25T07:07:24Z</time></trkpt><trkpt lat="46.56157228270243" lon="26.859749558838146"><ele>217.33333333333331</ele><time>2026-04-25T07:07:25Z</time></trkpt><trkpt lat="46.56156064681493" lon="26.8595334593074"><ele>218.66666666666666</ele><time>2026-04-25T07:07:26Z</time></trkpt><trkpt lat="46.561548735600894" lon="26.859312246463144"><ele>220.0</ele><time>2026-04-25T07:07:27Z</time></trkpt><trkpt lat="46.561521939228655" lon="26.859096431260102"><ele>220.5</ele><time>2026-04-25T07:07:28Z</time></trkpt><trkpt lat="46.56151270490699" lon="26.858878335516145"><ele>221.0</ele><time>2026-04-25T07:07:29Z</time></trkpt><trkpt lat="46.56150296450917" lon="26.85867191496392"><ele>221.5</ele><time>2026-04-25T07:07:30Z</time></trkpt><trkpt lat="46.561497501242606" lon="26.858461647045445"><ele>222.0</ele><time>2026-04-25T07:07:31Z</time></trkpt><trkpt lat="46.56149591015154" lon="26.85825307758811"><ele>222.5</ele><time>2026-04-25T07:07:32Z</time></trkpt><trkpt lat="46.56149520223748" lon="26.858055020566088"><ele>223.0</ele><time>2026-04-25T07:07:33Z</time></trkpt><trkpt lat="46.561518934065475" lon="26.85786033266877"><ele>223.5</ele><time>2026-04-25T07:07:34Z</time></trkpt><trkpt lat="46.56151820193917" lon="26.85767195760498"><ele>224.0</ele><time>2026-04-25T07:07:35Z</time></trkpt><trkpt lat="46.561510060010605" lon="26.85748996150221"><ele>224.0</ele><time>2026-04-25T07:07:36Z</time></trkpt><trkpt lat="46.56145710454537" lon="26.857288405827887"><ele>224.0</ele><time>2026-04-25T07:07:37Z</time></trkpt><trkpt lat="46.56137034696165" lon="26.857124851393795"><ele>224.0</ele><time>2026-04-25T07:07:38Z</time></trkpt><trkpt lat="46.5612953384664" lon="26.856966020514523"><ele>224.0</ele><time>2026-04-25T07:07:39Z</time></trkpt><trkpt lat="46.56124768569245" lon="26.856803772854988"><ele>223.75</ele><time>2026-04-25T07:07:40Z</time></trkpt><trkpt lat="46.561220715668746" lon="26.8566625072338"><ele>223.5</ele><time>2026-04-25T07:07:41Z</time></trkpt><trkpt lat="46.56120112043312" lon="26.85649676818196"><ele>223.25</ele><time>2026-04-25T07:07:42Z</time></trkpt><trkpt lat="46.56121061545267" lon="26.856319422967488"><ele>223.0</ele><time>2026-04-25T07:07:43Z</time></trkpt><trkpt lat="46.56121628175262" lon="26.85613468104832"><ele>222.25</ele><time>2026-04-25T07:07:44Z</time></trkpt><trkpt lat="46.56122946543281" lon="26.855944096473735"><ele>221.5</ele><time>2026-04-25T07:07:45Z</time></trkpt><trkpt lat="46.561248162479096" lon="26.855745877856805"><ele>220.75</ele><time>2026-04-25T07:07:46Z</time></trkpt><trkpt lat="46.56126234192502" lon="26.855541740620094"><ele>220.0</ele><time>2026-04-25T07:07:47Z</time></trkpt><trkpt lat="46.56127692353152" lon="26.855325775173352"><ele>219.5</ele><time>2026-04-25T07:07:48Z</time></trkpt><trkpt lat="46.56124721675397" lon="26.855094993098135"><ele>219.0</ele><time>2026-04-25T07:07:49Z</time></trkpt><trkpt lat="46.56122222743141" lon="26.85487824871539"><ele>218.5</ele><time>2026-04-25T07:07:50Z</time></trkpt><trkpt lat="46.561190448243515" lon="26.854691141300272"><ele>218.0</ele><time>2026-04-25T07:07:51Z</time></trkpt><trkpt lat="46.56117661509424" lon="26.85451061218817"><ele>216.75</ele><time>2026-04-25T07:07:52Z</time></trkpt><trkpt lat="46.56112411072478" lon="26.854346554647258"><ele>215.5</ele><time>2026-04-25T07:07:53Z</time></trkpt><trkpt lat="46.56104638024183" lon="26.854208391634195"><ele>214.25</ele><time>2026-04-25T07:07:54Z</time></trkpt><trkpt lat="46.56094672557406" lon="26.8540920623961"><ele>213.0</ele><time>2026-04-25T07:07:55Z</time></trkpt><trkpt lat="46.5608397253037" lon="26.853982761048524"><ele>213.0</ele><time>2026-04-25T07:07:56Z</time></trkpt><trkpt lat="46.56072859558404" lon="26.853861319499423"><ele>213.0</ele><time>2026-04-25T07:07:57Z</time></trkpt><trkpt lat="46.56061369062681" lon="26.853718178245675"><ele>213.0</ele><time>2026-04-25T07:07:58.001Z</time></trkpt><trkpt lat="46.56049147448245" lon="26.85357970652861"><ele>213.0</ele><time>2026-04-25T07:07:59.001Z</time></trkpt><trkpt lat="46.560388412318964" lon="26.853420522861036"><ele>213.0</ele><time>2026-04-25T07:08:00.001Z</time></trkpt><trkpt lat="46.56026962383852" lon="26.853265555583498"><ele>213.0</ele><time>2026-04-25T07:08:01.001Z</time></trkpt><trkpt lat="46.56016901442391" lon="26.853102054269154"><ele>213.0</ele><time>2026-04-25T07:08:02.001Z</time></trkpt><trkpt lat="46.560041734905" lon="26.85296932042321"><ele>213.0</ele><time>2026-04-25T07:08:03.001Z</time></trkpt><trkpt lat="46.55991221357352" lon="26.852849139514056"><ele>213.0</ele><time>2026-04-25T07:08:04.001Z</time></trkpt><trkpt lat="46.559785878899866" lon="26.852713702291982"><ele>213.0</ele><time>2026-04-25T07:08:05.001Z</time></trkpt><trkpt lat="46.55966357539263" lon="26.852585392261826"><ele>213.33333333333331</ele><time>2026-04-25T07:08:06.001Z</time></trkpt><trkpt lat="46.55953241038248" lon="26.852469872509143"><ele>213.66666666666666</ele><time>2026-04-25T07:08:07.001Z</time></trkpt><trkpt lat="46.55939700433155" lon="26.852369324714175"><ele>214.0</ele><time>2026-04-25T07:08:08.001Z</time></trkpt><trkpt lat="46.559271909429576" lon="26.852259568965138"><ele>214.0</ele><time>2026-04-25T07:08:09.001Z</time></trkpt><trkpt lat="46.55914974146295" lon="26.85214060867217"><ele>214.0</ele><time>2026-04-25T07:08:10.001Z</time></trkpt><trkpt lat="46.5590277116727" lon="26.852027281704284"><ele>214.0</ele><time>2026-04-25T07:08:11.001Z</time></trkpt><trkpt lat="46.55890762541834" lon="26.8519184697225"><ele>214.0</ele><time>2026-04-25T07:08:12.001Z</time></trkpt><trkpt lat="46.558792681164675" lon="26.851804332623303"><ele>215.0</ele><time>2026-04-25T07:08:13Z</time></trkpt><trkpt lat="46.55866954264409" lon="26.85168095577761"><ele>216.0</ele><time>2026-04-25T07:08:14Z</time></trkpt><trkpt lat="46.55859436768329" lon="26.85158182219625"><ele>217.0</ele><time>2026-04-25T07:08:15Z</time></trkpt><trkpt lat="46.55848431803732" lon="26.851484260956596"><ele>218.0</ele><time>2026-04-25T07:08:16Z</time></trkpt><trkpt lat="46.55847633089505" lon="26.85125817793689"><ele>218.0</ele><time>2026-04-25T07:08:17Z</time></trkpt><trkpt lat="46.55840190906097" lon="26.851067040791666"><ele>218.0</ele><time>2026-04-25T07:08:18Z</time></trkpt><trkpt lat="46.558337512596" lon="26.850860039978325"><ele>218.0</ele><time>2026-04-25T07:08:19Z</time></trkpt><trkpt lat="46.5582644862688" lon="26.850641075166035"><ele>217.66666666666669</ele><time>2026-04-25T07:08:20Z</time></trkpt><trkpt lat="46.558189375399174" lon="26.850415920660918"><ele>217.33333333333331</ele><time>2026-04-25T07:08:21Z</time></trkpt><trkpt lat="46.558111657391606" lon="26.85018206431909"><ele>217.0</ele><time>2026-04-25T07:08:22Z</time></trkpt><trkpt lat="46.55807784613678" lon="26.849971228465556"><ele>216.75</ele><time>2026-04-25T07:08:23Z</time></trkpt><trkpt lat="46.55803816937703" lon="26.849769125983826"><ele>216.5</ele><time>2026-04-25T07:08:24Z</time></trkpt><trkpt lat="46.55800086925583" lon="26.849579129432637"><ele>216.25</ele><time>2026-04-25T07:08:25Z</time></trkpt><trkpt lat="46.55797706378265" lon="26.84940861786292"><ele>216.0</ele><time>2026-04-25T07:08:26Z</time></trkpt><trkpt lat="46.55795734830525" lon="26.849234646587437"><ele>216.5</ele><time>2026-04-25T07:08:27Z</time></trkpt><trkpt lat="46.55794914175716" lon="26.849067658792936"><ele>217.0</ele><time>2026-04-25T07:08:28Z</time></trkpt><trkpt lat="46.55794791911619" lon="26.84886136913105"><ele>217.5</ele><time>2026-04-25T07:08:29Z</time></trkpt><trkpt lat="46.55794491609963" lon="26.84865675431662"><ele>218.0</ele><time>2026-04-25T07:08:30Z</time></trkpt><trkpt lat="46.55794186813934" lon="26.84844704147818"><ele>218.33333333333334</ele><time>2026-04-25T07:08:31Z</time></trkpt><trkpt lat="46.55791557959977" lon="26.84822236542959"><ele>218.66666666666669</ele><time>2026-04-25T07:08:32Z</time></trkpt><trkpt lat="46.55787214479146" lon="26.848005245295344"><ele>219.0</ele><time>2026-04-25T07:08:33Z</time></trkpt><trkpt lat="46.55779487916483" lon="26.847814666919028"><ele>219.33333333333331</ele><time>2026-04-25T07:08:34Z</time></trkpt><trkpt lat="46.55772403623881" lon="26.84762200219192"><ele>219.66666666666666</ele><time>2026-04-25T07:08:35Z</time></trkpt><trkpt lat="46.55763364594636" lon="26.847450867826975"><ele>220.0</ele><time>2026-04-25T07:08:36Z</time></trkpt><trkpt lat="46.55752230399841" lon="26.84729657912661"><ele>220.0</ele><time>2026-04-25T07:08:37Z</time></trkpt><trkpt lat="46.55742364516781" lon="26.84714473883429"><ele>220.0</ele><time>2026-04-25T07:08:38Z</time></trkpt><trkpt lat="46.55733408347452" lon="26.84701580460793"><ele>220.0</ele><time>2026-04-25T07:08:39Z</time></trkpt><trkpt lat="46.55724651175938" lon="26.84688912231057"><ele>220.0</ele><time>2026-04-25T07:08:40Z</time></trkpt><trkpt lat="46.55715680149233" lon="26.846758636215554"><ele>220.0</ele><time>2026-04-25T07:08:41Z</time></trkpt><trkpt lat="46.557066898052234" lon="26.8466278675289"><ele>220.0</ele><time>2026-04-25T07:08:42Z</time></trkpt><trkpt lat="46.5569881024664" lon="26.846501464632276"><ele>220.0</ele><time>2026-04-25T07:08:43Z</time></trkpt><trkpt lat="46.556921598642866" lon="26.846374988088545"><ele>220.0</ele><time>2026-04-25T07:08:44Z</time></trkpt><trkpt lat="46.55685788445585" lon="26.84625456797086"><ele>221.2</ele><time>2026-04-25T07:08:45Z</time></trkpt><trkpt lat="46.556792476103944" lon="26.846131399119137"><ele>222.4</ele><time>2026-04-25T07:08:46Z</time></trkpt><trkpt lat="46.55672475361191" lon="26.84600387257686"><ele>223.60000000000002</ele><time>2026-04-25T07:08:47Z</time></trkpt><trkpt lat="46.55665970786966" lon="26.84588756848145"><ele>224.8</ele><time>2026-04-25T07:08:48Z</time></trkpt><trkpt lat="46.55659861536258" lon="26.84577989270095"><ele>226.0</ele><time>2026-04-25T07:08:49Z</time></trkpt><trkpt lat="46.556535327744186" lon="26.84566824258371"><ele>226.0</ele><time>2026-04-25T07:08:50Z</time></trkpt><trkpt lat="46.55647287315192" lon="26.84555808679587"><ele>226.00000000000003</ele><time>2026-04-25T07:08:51Z</time></trkpt><trkpt lat="46.5564117880103" lon="26.845471057240008"><ele>226.00000000000003</ele><time>2026-04-25T07:08:52Z</time></trkpt><trkpt lat="46.55635156572463" lon="26.84536060301794"><ele>226.0</ele><time>2026-04-25T07:08:53Z</time></trkpt><trkpt lat="46.55627274181337" lon="26.84524853663558"><ele>226.0</ele><time>2026-04-25T07:08:54Z</time></trkpt><trkpt lat="46.556182576630306" lon="26.845133535698682"><ele>226.25</ele><time>2026-04-25T07:08:55Z</time></trkpt><trkpt lat="46.55607288443611" lon="26.845024181009265"><ele>226.5</ele><time>2026-04-25T07:08:56Z</time></trkpt><trkpt lat="46.555960045337244" lon="26.84490704025294"><ele>226.75</ele><time>2026-04-25T07:08:57Z</time></trkpt><trkpt lat="46.55584673758552" lon="26.84479621644566"><ele>227.0</ele><time>2026-04-25T07:08:58Z</time></trkpt><trkpt lat="46.555753568122874" lon="26.844654901426924"><ele>227.0</ele><time>2026-04-25T07:08:59Z</time></trkpt><trkpt lat="46.555662738772845" lon="26.84456020908097"><ele>227.0</ele><time>2026-04-25T07:09:00Z</time></trkpt><trkpt lat="46.555631463962" lon="26.84445275852645"><ele>227.0</ele><time>2026-04-25T07:09:01Z</time></trkpt><trkpt lat="46.55555957026467" lon="26.84430423138304"><ele>227.0</ele><time>2026-04-25T07:09:03Z</time></trkpt><trkpt lat="46.55549694308549" lon="26.844173974720036"><ele>227.0</ele><time>2026-04-25T07:09:05Z</time></trkpt><trkpt lat="46.55548015725336" lon="26.844081010341966"><ele>226.50000000000003</ele><time>2026-04-25T07:09:07Z</time></trkpt><trkpt lat="46.55554233498577" lon="26.844057850690923"><ele>226.0</ele><time>2026-04-25T07:09:08Z</time></trkpt><trkpt lat="46.55560998549228" lon="26.84399660506131"><ele>225.5</ele><time>2026-04-25T07:09:09Z</time></trkpt><trkpt lat="46.55568007441558" lon="26.843933151899357"><ele>225.0</ele><time>2026-04-25T07:09:10Z</time></trkpt><trkpt lat="46.55575366095902" lon="26.843866532225128"><ele>224.50000000000003</ele><time>2026-04-25T07:09:11Z</time></trkpt><trkpt lat="46.55582337128984" lon="26.843776569177948"><ele>224.0</ele><time>2026-04-25T07:09:12Z</time></trkpt><trkpt lat="46.55589976552221" lon="26.843711793503342"><ele>224.0</ele><time>2026-04-25T07:09:13Z</time></trkpt><trkpt lat="46.55598580803573" lon="26.84363869298173"><ele>223.99999999999997</ele><time>2026-04-25T07:09:14Z</time></trkpt><trkpt lat="46.55606306653228" lon="26.84354417933485"><ele>223.99999999999997</ele><time>2026-04-25T07:09:15Z</time></trkpt><trkpt lat="46.55614861374312" lon="26.84348499384072"><ele>224.0</ele><time>2026-04-25T07:09:16Z</time></trkpt><trkpt lat="46.55623021568394" lon="26.843410115910228"><ele>224.0</ele><time>2026-04-25T07:09:17Z</time></trkpt><trkpt lat="46.55630904986605" lon="26.843349588853254"><ele>224.2</ele><time>2026-04-25T07:09:18Z</time></trkpt><trkpt lat="46.55638852261314" lon="26.843266153981116"><ele>224.39999999999998</ele><time>2026-04-25T07:09:19Z</time></trkpt><trkpt lat="46.55647660972285" lon="26.843197414617734"><ele>224.6</ele><time>2026-04-25T07:09:20Z</time></trkpt><trkpt lat="46.556556646149616" lon="26.84311982658478"><ele>224.8</ele><time>2026-04-25T07:09:21Z</time></trkpt><trkpt lat="46.55665127465366" lon="26.843066364722578"><ele>225.0</ele><time>2026-04-25T07:09:22Z</time></trkpt><trkpt lat="46.5567415280602" lon="26.84298945244862"><ele>225.0</ele><time>2026-04-25T07:09:23Z</time></trkpt><trkpt lat="46.55681915338977" lon="26.842908755490217"><ele>225.0</ele><time>2026-04-25T07:09:24Z</time></trkpt><trkpt lat="46.55689743097018" lon="26.842841664828764"><ele>225.0</ele><time>2026-04-25T07:09:25Z</time></trkpt><trkpt lat="46.55697500105932" lon="26.842785564462645"><ele>225.0</ele><time>2026-04-25T07:09:26Z</time></trkpt><trkpt lat="46.55703769724764" lon="26.842712033300216"><ele>225.0</ele><time>2026-04-25T07:09:27Z</time></trkpt><trkpt lat="46.55705056141593" lon="26.84255771455815"><ele>225.6</ele><time>2026-04-25T07:09:28Z</time></trkpt><trkpt lat="46.55700538543057" lon="26.842390298937307"><ele>226.2</ele><time>2026-04-25T07:09:29Z</time></trkpt><trkpt lat="46.556969678060646" lon="26.842238560666015"><ele>226.8</ele><time>2026-04-25T07:09:30Z</time></trkpt><trkpt lat="46.556931927647376" lon="26.842086699913374"><ele>227.4</ele><time>2026-04-25T07:09:31Z</time></trkpt><trkpt lat="46.55691016486937" lon="26.841952921790806"><ele>228.0</ele><time>2026-04-25T07:09:32Z</time></trkpt><trkpt lat="46.55689126307859" lon="26.841809213674924"><ele>229.60000000000002</ele><time>2026-04-25T07:09:33Z</time></trkpt><trkpt lat="46.55688295723373" lon="26.84166406133918"><ele>231.20000000000002</ele><time>2026-04-25T07:09:34Z</time></trkpt><trkpt lat="46.556884338916404" lon="26.841508804066308"><ele>232.8</ele><time>2026-04-25T07:09:35Z</time></trkpt><trkpt lat="46.556884841715565" lon="26.841353548717876"><ele>234.4</ele><time>2026-04-25T07:09:36Z</time></trkpt><trkpt lat="46.55692180777112" lon="26.841214156134132"><ele>236.0</ele><time>2026-04-25T07:09:37Z</time></trkpt><trkpt lat="46.556948219540935" lon="26.8410679363684"><ele>237.4</ele><time>2026-04-25T07:09:38Z</time></trkpt><trkpt lat="46.55696107463549" lon="26.840916790748718"><ele>238.8</ele><time>2026-04-25T07:09:39Z</time></trkpt><trkpt lat="46.556998701101705" lon="26.84077377826951"><ele>240.20000000000002</ele><time>2026-04-25T07:09:40Z</time></trkpt><trkpt lat="46.55702158291663" lon="26.84062730288919"><ele>241.60000000000002</ele><time>2026-04-25T07:09:41Z</time></trkpt><trkpt lat="46.55705371319362" lon="26.840486592281025"><ele>243.0</ele><time>2026-04-25T07:09:42Z</time></trkpt><trkpt lat="46.557078367741134" lon="26.840350369358077"><ele>244.4</ele><time>2026-04-25T07:09:43Z</time></trkpt><trkpt lat="46.55710015872028" lon="26.840229354688944"><ele>245.8</ele><time>2026-04-25T07:09:44Z</time></trkpt><trkpt lat="46.55711948121681" lon="26.84012205623377"><ele>247.2</ele><time>2026-04-25T07:09:45Z</time></trkpt><trkpt lat="46.55715562340751" lon="26.840045141662625"><ele>248.6</ele><time>2026-04-25T07:09:46Z</time></trkpt><trkpt lat="46.5572616548872" lon="26.839930176676543"><ele>250.0</ele><time>2026-04-25T07:09:48Z</time></trkpt><trkpt lat="46.55735228704408" lon="26.839910723317292"><ele>251.2</ele><time>2026-04-25T07:09:49Z</time></trkpt><trkpt lat="46.55744655499907" lon="26.839913821694907"><ele>252.4</ele><time>2026-04-25T07:09:50Z</time></trkpt><trkpt lat="46.557547120337354" lon="26.839927997796167"><ele>253.60000000000002</ele><time>2026-04-25T07:09:51Z</time></trkpt><trkpt lat="46.557648245952365" lon="26.839953089897623"><ele>254.8</ele><time>2026-04-25T07:09:52Z</time></trkpt><trkpt lat="46.55774809322498" lon="26.839977656909834"><ele>256.0</ele><time>2026-04-25T07:09:53Z</time></trkpt><trkpt lat="46.557848399956924" lon="26.840009234274714"><ele>255.8</ele><time>2026-04-25T07:09:54Z</time></trkpt><trkpt lat="46.55795049188325" lon="26.84005213280713"><ele>255.60000000000002</ele><time>2026-04-25T07:09:55Z</time></trkpt><trkpt lat="46.55805051432432" lon="26.840090235479302"><ele>255.4</ele><time>2026-04-25T07:09:56Z</time></trkpt><trkpt lat="46.55814548893229" lon="26.840121516355694"><ele>255.2</ele><time>2026-04-25T07:09:57Z</time></trkpt><trkpt lat="46.558233117277304" lon="26.840137147583647"><ele>255.0</ele><time>2026-04-25T07:09:58Z</time></trkpt><trkpt lat="46.55832120107283" lon="26.840136761197364"><ele>255.8</ele><time>2026-04-25T07:09:59Z</time></trkpt><trkpt lat="46.55841699815493" lon="26.840110432242266"><ele>256.6</ele><time>2026-04-25T07:10:00Z</time></trkpt><trkpt lat="46.55851960623609" lon="26.840078201411213"><ele>257.4</ele><time>2026-04-25T07:10:01Z</time></trkpt><trkpt lat="46.55861761504109" lon="26.840011271155408"><ele>258.2</ele><time>2026-04-25T07:10:02Z</time></trkpt><trkpt lat="46.55871651950065" lon="26.839942647877955"><ele>259.0</ele><time>2026-04-25T07:10:03Z</time></trkpt><trkpt lat="46.558811590567295" lon="26.839876360988857"><ele>259.2</ele><time>2026-04-25T07:10:04.001Z</time></trkpt><trkpt lat="46.55889805684145" lon="26.839791084887235"><ele>259.4</ele><time>2026-04-25T07:10:05.001Z</time></trkpt><trkpt lat="46.55898899854894" lon="26.83973416560328"><ele>259.6</ele><time>2026-04-25T07:10:06.001Z</time></trkpt><trkpt lat="46.55908149238913" lon="26.839669114047226"><ele>259.8</ele><time>2026-04-25T07:10:07.001Z</time></trkpt><trkpt lat="46.55917334579298" lon="26.839609369397188"><ele>260.0</ele><time>2026-04-25T07:10:08.001Z</time></trkpt><trkpt lat="46.5592684176185" lon="26.83954960897471"><ele>260.0</ele><time>2026-04-25T07:10:09.001Z</time></trkpt><trkpt lat="46.559366868089946" lon="26.839485545427003"><ele>260.0</ele><time>2026-04-25T07:10:10.001Z</time></trkpt><trkpt lat="46.55944955459517" lon="26.839430276722297"><ele>260.0</ele><time>2026-04-25T07:10:11.001Z</time></trkpt><trkpt lat="46.55952076418321" lon="26.83939233735818"><ele>260.0</ele><time>2026-04-25T07:10:12.001Z</time></trkpt><trkpt lat="46.55958895183658" lon="26.839359492154454"><ele>260.0</ele><time>2026-04-25T07:10:13Z</time></trkpt><trkpt lat="46.55965044629371" lon="26.839332155985637"><ele>260.0</ele><time>2026-04-25T07:10:14Z</time></trkpt><trkpt lat="46.55975222220309" lon="26.839293539279282"><ele>261.25</ele><time>2026-04-25T07:10:16Z</time></trkpt><trkpt lat="46.55976982677652" lon="26.838997866991733"><ele>262.5</ele><time>2026-04-25T07:10:18Z</time></trkpt><trkpt lat="46.55974733492447" lon="26.838867945792035"><ele>263.75</ele><time>2026-04-25T07:10:19Z</time></trkpt><trkpt lat="46.559722721173706" lon="26.83872576766907"><ele>265.0</ele><time>2026-04-25T07:10:20Z</time></trkpt><trkpt lat="46.559697157955995" lon="26.83857810519758"><ele>265.0</ele><time>2026-04-25T07:10:21Z</time></trkpt><trkpt lat="46.55967032858904" lon="26.838423042495865"><ele>265.0</ele><time>2026-04-25T07:10:22Z</time></trkpt><trkpt lat="46.55964421779722" lon="26.838271748213565"><ele>265.0</ele><time>2026-04-25T07:10:23Z</time></trkpt><trkpt lat="46.559620449107236" lon="26.838134024827422"><ele>265.0</ele><time>2026-04-25T07:10:24Z</time></trkpt><trkpt lat="46.559595397564195" lon="26.837988868166633"><ele>265.0</ele><time>2026-04-25T07:10:25Z</time></trkpt><trkpt lat="46.55957007909336" lon="26.83784216484961"><ele>265.0</ele><time>2026-04-25T07:10:26Z</time></trkpt><trkpt lat="46.5595387859418" lon="26.83767388214214"><ele>265.0</ele><time>2026-04-25T07:10:27Z</time></trkpt><trkpt lat="46.55950838538952" lon="26.837517455164104"><ele>265.0</ele><time>2026-04-25T07:10:28Z</time></trkpt><trkpt lat="46.55947832591098" lon="26.837362783255433"><ele>265.0</ele><time>2026-04-25T07:10:29Z</time></trkpt><trkpt lat="46.559448405295576" lon="26.83720882584678"><ele>264.75</ele><time>2026-04-25T07:10:30Z</time></trkpt><trkpt lat="46.55941491398293" lon="26.837036495339476"><ele>264.5</ele><time>2026-04-25T07:10:31Z</time></trkpt><trkpt lat="46.5593807580457" lon="26.836860744946687"><ele>264.25</ele><time>2026-04-25T07:10:31.999Z</time></trkpt><trkpt lat="46.55934986592585" lon="26.836701788654253"><ele>264.0</ele><time>2026-04-25T07:10:32.999Z</time></trkpt><trkpt lat="46.559322865203" lon="26.83656285561451"><ele>264.8</ele><time>2026-04-25T07:10:33.999Z</time></trkpt><trkpt lat="46.55929339812646" lon="26.83641123191849"><ele>265.59999999999997</ele><time>2026-04-25T07:10:34.999Z</time></trkpt><trkpt lat="46.55926370620798" lon="26.8362584512827"><ele>266.4</ele><time>2026-04-25T07:10:35.999Z</time></trkpt><trkpt lat="46.559234281508736" lon="26.836107045302832"><ele>267.2</ele><time>2026-04-25T07:10:36.999Z</time></trkpt><trkpt lat="46.55922510302395" lon="26.835954532670844"><ele>268.0</ele><time>2026-04-25T07:10:37.999Z</time></trkpt><trkpt lat="46.5592099398776" lon="26.835790551077675"><ele>268.5</ele><time>2026-04-25T07:10:38.999Z</time></trkpt><trkpt lat="46.55919514763203" lon="26.83562831001656"><ele>269.0</ele><time>2026-04-25T07:10:39.999Z</time></trkpt><trkpt lat="46.559179534107216" lon="26.835457061175767"><ele>269.5</ele><time>2026-04-25T07:10:40.999Z</time></trkpt><trkpt lat="46.55916295116581" lon="26.835277299680588"><ele>270.0</ele><time>2026-04-25T07:10:41.999Z</time></trkpt><trkpt lat="46.55914712101946" lon="26.83509513407522"><ele>270.25</ele><time>2026-04-25T07:10:42.999Z</time></trkpt><trkpt lat="46.55913490486532" lon="26.834913375541767"><ele>270.5</ele><time>2026-04-25T07:10:43.999Z</time></trkpt><trkpt lat="46.55912287343927" lon="26.834728820083164"><ele>270.75</ele><time>2026-04-25T07:10:44.999Z</time></trkpt><trkpt lat="46.55911053327552" lon="26.83454136870253"><ele>271.0</ele><time>2026-04-25T07:10:45.999Z</time></trkpt><trkpt lat="46.55909806876564" lon="26.834354516866966"><ele>271.5</ele><time>2026-04-25T07:10:46.999Z</time></trkpt><trkpt lat="46.55908553008204" lon="26.834166553079513"><ele>272.0</ele><time>2026-04-25T07:10:47.999Z</time></trkpt><trkpt lat="46.559072706617336" lon="26.833978565368323"><ele>272.5</ele><time>2026-04-25T07:10:48.999Z</time></trkpt><trkpt lat="46.5590600986336" lon="26.83379107672756"><ele>273.0</ele><time>2026-04-25T07:10:49.999Z</time></trkpt><trkpt lat="46.55904758118016" lon="26.833602963057185"><ele>273.5</ele><time>2026-04-25T07:10:50.999Z</time></trkpt><trkpt lat="46.559034741684286" lon="26.833410009699158"><ele>274.0</ele><time>2026-04-25T07:10:51.999Z</time></trkpt><trkpt lat="46.55902280288517" lon="26.833230592086107"><ele>274.5</ele><time>2026-04-25T07:10:52.999Z</time></trkpt><trkpt lat="46.55901157300339" lon="26.83306035644877"><ele>275.0</ele><time>2026-04-25T07:10:53.999Z</time></trkpt><trkpt lat="46.55900046467863" lon="26.83289086193893"><ele>275.0</ele><time>2026-04-25T07:10:54.999Z</time></trkpt><trkpt lat="46.55898990133167" lon="26.832732527181147"><ele>275.0</ele><time>2026-04-25T07:10:55.999Z</time></trkpt><trkpt lat="46.55897984892147" lon="26.832586182573664"><ele>275.0</ele><time>2026-04-25T07:10:56.999Z</time></trkpt><trkpt lat="46.558985084780566" lon="26.83246446379721"><ele>275.0</ele><time>2026-04-25T07:10:57.999Z</time></trkpt><trkpt lat="46.55898798480418" lon="26.832359866999518"><ele>275.0</ele><time>2026-04-25T07:10:58.999Z</time></trkpt><trkpt lat="46.559067285836775" lon="26.832255701389485"><ele>275.5</ele><time>2026-04-25T07:11:00.999Z</time></trkpt><trkpt lat="46.55911116715301" lon="26.832177243496158"><ele>276.0</ele><time>2026-04-25T07:11:01.999Z</time></trkpt><trkpt lat="46.55918318607754" lon="26.832165639000344"><ele>276.5</ele><time>2026-04-25T07:11:02.999Z</time></trkpt><trkpt lat="46.559246026213174" lon="26.832122653708943"><ele>277.0</ele><time>2026-04-25T07:11:03.999Z</time></trkpt><trkpt lat="46.55935290800227" lon="26.83203980386744"><ele>277.5</ele><time>2026-04-25T07:11:05.999Z</time></trkpt><trkpt lat="46.55940744644027" lon="26.831978608113104"><ele>278.0</ele><time>2026-04-25T07:11:06.999Z</time></trkpt><trkpt lat="46.55945757062183" lon="26.831899163202966"><ele>278.0</ele><time>2026-04-25T07:11:09.999Z</time></trkpt><trkpt lat="46.55949251898482" lon="26.832104703303823"><ele>278.0</ele><time>2026-04-25T07:11:14.999Z</time></trkpt><trkpt lat="46.55950389803348" lon="26.83223707313409"><ele>278.0</ele><time>2026-04-25T07:11:16.999Z</time></trkpt><trkpt lat="46.55951832630819" lon="26.832392587754118"><ele>278.0</ele><time>2026-04-25T07:11:18.999Z</time></trkpt><trkpt lat="46.55953051549723" lon="26.832552483327927"><ele>277.6</ele><time>2026-04-25T07:11:20.999Z</time></trkpt><trkpt lat="46.55953048704269" lon="26.832648123139528"><ele>277.20000000000005</ele><time>2026-04-25T07:11:21.999Z</time></trkpt><trkpt lat="46.559540587792725" lon="26.83278906674609"><ele>276.8</ele><time>2026-04-25T07:11:23.999Z</time></trkpt><trkpt lat="46.55956708762103" lon="26.832929031153412"><ele>276.40000000000003</ele><time>2026-04-25T07:11:25.999Z</time></trkpt><trkpt lat="46.55958015927516" lon="26.833090981209814"><ele>276.0</ele><time>2026-04-25T07:11:27.999Z</time></trkpt><trkpt lat="46.559594738806574" lon="26.833232298499983"><ele>276.0</ele><time>2026-04-25T07:11:29.999Z</time></trkpt><trkpt lat="46.55960454880124" lon="26.833367060365955"><ele>276.0</ele><time>2026-04-25T07:11:31.999Z</time></trkpt><trkpt lat="46.55961667108453" lon="26.833482612811206"><ele>276.0</ele><time>2026-04-25T07:11:33.999Z</time></trkpt><trkpt lat="46.559625496379425" lon="26.833611917341972"><ele>276.0</ele><time>2026-04-25T07:11:36.999Z</time></trkpt><trkpt lat="46.55963942443204" lon="26.83374412351584"><ele>276.0</ele><time>2026-04-25T07:11:39.999Z</time></trkpt><trkpt lat="46.55964906619683" lon="26.833861366936965"><ele>276.0</ele><time>2026-04-25T07:11:42.999Z</time></trkpt><trkpt lat="46.559647411292545" lon="26.83397077129454"><ele>273.0</ele><time>2026-04-25T07:12:34Z</time></trkpt><trkpt lat="46.55970900450331" lon="26.834024536061346"><ele>273.0</ele><time>2026-04-25T07:12:50Z</time></trkpt></trkseg><trkseg><trkpt lat="46.5597872850645" lon="26.83536451931534"><ele>269.0</ele><time>2026-04-25T07:40:44Z</time></trkpt><trkpt lat="46.55979445762861" lon="26.835474614801225"><ele>269.0</ele><time>2026-04-25T07:40:46Z</time></trkpt><trkpt lat="46.55979645931338" lon="26.83561316948967"><ele>269.0</ele><time>2026-04-25T07:40:48Z</time></trkpt><trkpt lat="46.5598010041986" lon="26.83572853197337"><ele>269.0</ele><time>2026-04-25T07:40:49.999Z</time></trkpt><trkpt lat="46.55982278970899" lon="26.835828174816108"><ele>269.0</ele><time>2026-04-25T07:40:51.999Z</time></trkpt><trkpt lat="46.55981637800373" lon="26.835943465180566"><ele>269.0</ele><time>2026-04-25T07:40:54.999Z</time></trkpt><trkpt lat="46.559747399086525" lon="26.836011039043417"><ele>268.83333333333337</ele><time>2026-04-25T07:40:57.999Z</time></trkpt><trkpt lat="46.559675363525365" lon="26.836017276088267"><ele>268.6666666666667</ele><time>2026-04-25T07:40:59.999Z</time></trkpt><trkpt lat="46.559591645617296" lon="26.836036796271507"><ele>268.5</ele><time>2026-04-25T07:41:01.999Z</time></trkpt><trkpt lat="46.55950034534654" lon="26.836049377631838"><ele>268.3333333333333</ele><time>2026-04-25T07:41:03.999Z</time></trkpt><trkpt lat="46.55941279905" lon="26.836068998402478"><ele>268.16666666666663</ele><time>2026-04-25T07:41:05.999Z</time></trkpt><trkpt lat="46.5593260212141" lon="26.83609336514063"><ele>268.0</ele><time>2026-04-25T07:41:07.999Z</time></trkpt><trkpt lat="46.559259247182595" lon="26.83611887680998"><ele>268.0</ele><time>2026-04-25T07:41:09.999Z</time></trkpt><trkpt lat="46.559192832850364" lon="26.83616193457824"><ele>268.0</ele><time>2026-04-25T07:41:13.999Z</time></trkpt><trkpt lat="46.559182353782084" lon="26.836302249362067"><ele>268.0</ele><time>2026-04-25T07:41:16.999Z</time></trkpt><trkpt lat="46.55921937795387" lon="26.836434560403205"><ele>268.0</ele><time>2026-04-25T07:41:18.999Z</time></trkpt><trkpt lat="46.559242701742" lon="26.836558682586805"><ele>268.0</ele><time>2026-04-25T07:41:20.999Z</time></trkpt><trkpt lat="46.559264546918065" lon="26.836685042738164"><ele>268.0</ele><time>2026-04-25T07:41:22.999Z</time></trkpt><trkpt lat="46.55928866122269" lon="26.836812239741896"><ele>267.0</ele><time>2026-04-25T07:41:24.999Z</time></trkpt><trkpt lat="46.55931004050338" lon="26.83694134258721"><ele>266.0</ele><time>2026-04-25T07:41:26.999Z</time></trkpt><trkpt lat="46.55934782085984" lon="26.8371099849682"><ele>265.0</ele><time>2026-04-25T07:41:28.999Z</time></trkpt><trkpt lat="46.55940810000477" lon="26.83726832480565"><ele>264.0</ele><time>2026-04-25T07:41:30.999Z</time></trkpt><trkpt lat="46.55944225649287" lon="26.83744407810162"><ele>264.0</ele><time>2026-04-25T07:41:32.999Z</time></trkpt><trkpt lat="46.55944475123555" lon="26.837545355143384"><ele>264.0</ele><time>2026-04-25T07:41:33.999Z</time></trkpt><trkpt lat="46.55946324242708" lon="26.837640085210893"><ele>264.0</ele><time>2026-04-25T07:41:34.999Z</time></trkpt><trkpt lat="46.55948807320414" lon="26.837734626907977"><ele>264.0</ele><time>2026-04-25T07:41:35.999Z</time></trkpt><trkpt lat="46.55950999782882" lon="26.837845760439563"><ele>264.0</ele><time>2026-04-25T07:41:36.999Z</time></trkpt><trkpt lat="46.55953369764762" lon="26.837955535811176"><ele>264.0</ele><time>2026-04-25T07:41:37.999Z</time></trkpt><trkpt lat="46.55955128133862" lon="26.838060946149913"><ele>264.0</ele><time>2026-04-25T07:41:38.999Z</time></trkpt><trkpt lat="46.55956559992232" lon="26.838161880032533"><ele>264.1666666666667</ele><time>2026-04-25T07:41:39.999Z</time></trkpt><trkpt lat="46.559581745767" lon="26.838265499667166"><ele>264.3333333333333</ele><time>2026-04-25T07:41:40.999Z</time></trkpt><trkpt lat="46.55959925701722" lon="26.838375204402798"><ele>264.5</ele><time>2026-04-25T07:41:41.999Z</time></trkpt><trkpt lat="46.55961766185073" lon="26.83848451333857"><ele>264.66666666666663</ele><time>2026-04-25T07:41:42.999Z</time></trkpt><trkpt lat="46.55963905456824" lon="26.838591568790616"><ele>264.8333333333333</ele><time>2026-04-25T07:41:43.999Z</time></trkpt><trkpt lat="46.559659852683396" lon="26.838698002519145"><ele>265.0</ele><time>2026-04-25T07:41:44.999Z</time></trkpt><trkpt lat="46.559677875434296" lon="26.838804156983265"><ele>265.0</ele><time>2026-04-25T07:41:45.999Z</time></trkpt><trkpt lat="46.55969551624594" lon="26.838897057695075"><ele>265.0</ele><time>2026-04-25T07:41:46.999Z</time></trkpt><trkpt lat="46.55972196356388" lon="26.839048168666157"><ele>265.0</ele><time>2026-04-25T07:41:48.999Z</time></trkpt><trkpt lat="46.55974630650937" lon="26.839157834824245"><ele>265.0</ele><time>2026-04-25T07:41:50.999Z</time></trkpt><trkpt lat="46.559649963311045" lon="26.839243317417953"><ele>265.0</ele><time>2026-04-25T07:41:52.999Z</time></trkpt><trkpt lat="46.5595817975031" lon="26.83930794560318"><ele>265.0</ele><time>2026-04-25T07:41:53.999Z</time></trkpt><trkpt lat="46.5595029067223" lon="26.83933550461125"><ele>264.0</ele><time>2026-04-25T07:41:54.999Z</time></trkpt><trkpt lat="46.559428482850926" lon="26.839378322684006"><ele>263.0</ele><time>2026-04-25T07:41:55.999Z</time></trkpt><trkpt lat="46.55933055331048" lon="26.839435515664327"><ele>262.0</ele><time>2026-04-25T07:41:57.999Z</time></trkpt><trkpt lat="46.55926937135814" lon="26.83948111456881"><ele>261.0</ele><time>2026-04-25T07:41:58.998Z</time></trkpt><trkpt lat="46.55917405662846" lon="26.839562751017716"><ele>260.0</ele><time>2026-04-25T07:41:59.998Z</time></trkpt><trkpt lat="46.55907985932847" lon="26.839618078284428"><ele>260.0</ele><time>2026-04-25T07:42:00.998Z</time></trkpt><trkpt lat="46.55898813057786" lon="26.83967025932066"><ele>260.0</ele><time>2026-04-25T07:42:01.998Z</time></trkpt><trkpt lat="46.55890383734151" lon="26.83970744822838"><ele>260.0</ele><time>2026-04-25T07:42:02.998Z</time></trkpt><trkpt lat="46.55883104837109" lon="26.839766023054523"><ele>260.0</ele><time>2026-04-25T07:42:03.998Z</time></trkpt><trkpt lat="46.558755529084294" lon="26.839842849479272"><ele>260.0</ele><time>2026-04-25T07:42:04.998Z</time></trkpt><trkpt lat="46.55866492700917" lon="26.839901673605535"><ele>259.83333333333337</ele><time>2026-04-25T07:42:05.998Z</time></trkpt><trkpt lat="46.558573476390876" lon="26.839956184966216"><ele>259.6666666666667</ele><time>2026-04-25T07:42:06.998Z</time></trkpt><trkpt lat="46.55848138159855" lon="26.840004009928723"><ele>259.5</ele><time>2026-04-25T07:42:07.998Z</time></trkpt><trkpt lat="46.558411532412364" lon="26.840039973702975"><ele>259.3333333333333</ele><time>2026-04-25T07:42:08.998Z</time></trkpt><trkpt lat="46.55833191295063" lon="26.840054163875397"><ele>259.16666666666663</ele><time>2026-04-25T07:42:09.998Z</time></trkpt><trkpt lat="46.558244935764854" lon="26.84006760940984"><ele>259.0</ele><time>2026-04-25T07:42:10.998Z</time></trkpt><trkpt lat="46.55815152010892" lon="26.840058886535775"><ele>259.0</ele><time>2026-04-25T07:42:11.998Z</time></trkpt><trkpt lat="46.55806171526454" lon="26.840016045086685"><ele>259.0</ele><time>2026-04-25T07:42:12.998Z</time></trkpt><trkpt lat="46.55798075749552" lon="26.840011009802012"><ele>259.0</ele><time>2026-04-25T07:42:13.998Z</time></trkpt><trkpt lat="46.557891633502756" lon="26.839976918115475"><ele>259.0</ele><time>2026-04-25T07:42:14.998Z</time></trkpt><trkpt lat="46.55780345560253" lon="26.83994416884671"><ele>259.0</ele><time>2026-04-25T07:42:15.998Z</time></trkpt><trkpt lat="46.55771547435274" lon="26.839909935424547"><ele>258.4</ele><time>2026-04-25T07:42:17Z</time></trkpt><trkpt lat="46.55763011829289" lon="26.83988300413657"><ele>257.79999999999995</ele><time>2026-04-25T07:42:18Z</time></trkpt><trkpt lat="46.55753634774769" lon="26.839861917097075"><ele>257.20000000000005</ele><time>2026-04-25T07:42:19Z</time></trkpt><trkpt lat="46.55744040240533" lon="26.839847297873888"><ele>256.6</ele><time>2026-04-25T07:42:20Z</time></trkpt><trkpt lat="46.55735351723317" lon="26.83983992532077"><ele>256.0</ele><time>2026-04-25T07:42:21Z</time></trkpt><trkpt lat="46.55726879670163" lon="26.839845415064207"><ele>255.99999999999997</ele><time>2026-04-25T07:42:22Z</time></trkpt><trkpt lat="46.55718896384871" lon="26.839881388908953"><ele>256.0</ele><time>2026-04-25T07:42:23Z</time></trkpt><trkpt lat="46.55712087429849" lon="26.839939686768943"><ele>256.0</ele><time>2026-04-25T07:42:24Z</time></trkpt><trkpt lat="46.557065144199235" lon="26.840025544445325"><ele>256.0</ele><time>2026-04-25T07:42:25Z</time></trkpt><trkpt lat="46.55702176406836" lon="26.84014606246712"><ele>255.99999999999997</ele><time>2026-04-25T07:42:26Z</time></trkpt><trkpt lat="46.55700040878131" lon="26.840297006220286"><ele>256.0</ele><time>2026-04-25T07:42:27Z</time></trkpt><trkpt lat="46.5569931101566" lon="26.840459931105514"><ele>253.4</ele><time>2026-04-25T07:42:28Z</time></trkpt><trkpt lat="46.556982082529" lon="26.840615108685114"><ele>250.8</ele><time>2026-04-25T07:42:29Z</time></trkpt><trkpt lat="46.55695603489672" lon="26.840767389903984"><ele>248.20000000000002</ele><time>2026-04-25T07:42:30Z</time></trkpt><trkpt lat="46.556923158924434" lon="26.84091272495736"><ele>245.60000000000002</ele><time>2026-04-25T07:42:31Z</time></trkpt><trkpt lat="46.55687934129783" lon="26.841054191165046"><ele>243.0</ele><time>2026-04-25T07:42:32Z</time></trkpt><trkpt lat="46.55684105355494" lon="26.84120483923936"><ele>241.60000000000002</ele><time>2026-04-25T07:42:33Z</time></trkpt><trkpt lat="46.55681383017131" lon="26.841364153448822"><ele>240.20000000000002</ele><time>2026-04-25T07:42:34Z</time></trkpt><trkpt lat="46.55681032141714" lon="26.84152404580878"><ele>238.8</ele><time>2026-04-25T07:42:35Z</time></trkpt><trkpt lat="46.556818864649316" lon="26.84168658609334"><ele>237.4</ele><time>2026-04-25T07:42:36Z</time></trkpt><trkpt lat="46.55683031737285" lon="26.841843356389962"><ele>236.0</ele><time>2026-04-25T07:42:37Z</time></trkpt><trkpt lat="46.556855571690434" lon="26.84199302441223"><ele>234.4</ele><time>2026-04-25T07:42:38Z</time></trkpt><trkpt lat="46.55688486454783" lon="26.84213000898182"><ele>232.8</ele><time>2026-04-25T07:42:39Z</time></trkpt><trkpt lat="46.556917556911486" lon="26.8422596651462"><ele>231.20000000000002</ele><time>2026-04-25T07:42:40Z</time></trkpt><trkpt lat="46.55694812447891" lon="26.842387713285795"><ele>229.60000000000002</ele><time>2026-04-25T07:42:41Z</time></trkpt><trkpt lat="46.55696950211662" lon="26.842512948270354"><ele>228.0</ele><time>2026-04-25T07:42:42Z</time></trkpt><trkpt lat="46.556958973278704" lon="26.842639951903784"><ele>227.4</ele><time>2026-04-25T07:42:43Z</time></trkpt><trkpt lat="46.55691155354606" lon="26.8427434948092"><ele>226.8</ele><time>2026-04-25T07:42:44Z</time></trkpt><trkpt lat="46.55683593626019" lon="26.84282920622626"><ele>226.2</ele><time>2026-04-25T07:42:45Z</time></trkpt><trkpt lat="46.55674256668779" lon="26.842897794333574"><ele>225.6</ele><time>2026-04-25T07:42:46Z</time></trkpt><trkpt lat="46.55663946650329" lon="26.84296727119939"><ele>225.0</ele><time>2026-04-25T07:42:47Z</time></trkpt><trkpt lat="46.55654551652909" lon="26.843042814884676"><ele>225.0</ele><time>2026-04-25T07:42:48Z</time></trkpt><trkpt lat="46.556458812118805" lon="26.843115967596585"><ele>225.0</ele><time>2026-04-25T07:42:48.999Z</time></trkpt><trkpt lat="46.55636802308941" lon="26.8431863555957"><ele>225.0</ele><time>2026-04-25T07:42:49.999Z</time></trkpt><trkpt lat="46.55628196692393" lon="26.843257151267846"><ele>225.0</ele><time>2026-04-25T07:42:50.999Z</time></trkpt><trkpt lat="46.55618749589356" lon="26.8433240650288"><ele>225.0</ele><time>2026-04-25T07:42:51.999Z</time></trkpt><trkpt lat="46.55610063199032" lon="26.843390367139172"><ele>224.8</ele><time>2026-04-25T07:42:52.999Z</time></trkpt><trkpt lat="46.55602090884334" lon="26.843474480113066"><ele>224.6</ele><time>2026-04-25T07:42:53.999Z</time></trkpt><trkpt lat="46.55594405440612" lon="26.843576688927442"><ele>224.39999999999998</ele><time>2026-04-25T07:42:54.999Z</time></trkpt><trkpt lat="46.5558654076924" lon="26.8436683974638"><ele>224.2</ele><time>2026-04-25T07:42:55.999Z</time></trkpt><trkpt lat="46.555779555532986" lon="26.84374230696584"><ele>224.0</ele><time>2026-04-25T07:42:56.999Z</time></trkpt><trkpt lat="46.55570100660863" lon="26.843804070790974"><ele>224.00000000000003</ele><time>2026-04-25T07:42:57.999Z</time></trkpt><trkpt lat="46.555630531145276" lon="26.843860681609847"><ele>224.0</ele><time>2026-04-25T07:42:58.999Z</time></trkpt><trkpt lat="46.55556748826133" lon="26.843913933393402"><ele>224.0</ele><time>2026-04-25T07:42:59.999Z</time></trkpt><trkpt lat="46.55551185519454" lon="26.843964215149608"><ele>224.0</ele><time>2026-04-25T07:43:00.999Z</time></trkpt><trkpt lat="46.55542778499019" lon="26.84404032497237"><ele>224.00000000000003</ele><time>2026-04-25T07:43:02.999Z</time></trkpt><trkpt lat="46.55540362559359" lon="26.84412840017784"><ele>224.0</ele><time>2026-04-25T07:43:23.999Z</time></trkpt><trkpt lat="46.555437373822095" lon="26.844211918499976"><ele>224.6</ele><time>2026-04-25T07:43:24.999Z</time></trkpt><trkpt lat="46.555505424669185" lon="26.84434072553949"><ele>225.2</ele><time>2026-04-25T07:43:26.999Z</time></trkpt><trkpt lat="46.55558350619418" lon="26.844498562595433"><ele>225.79999999999998</ele><time>2026-04-25T07:43:28.999Z</time></trkpt><trkpt lat="46.55562808722438" lon="26.8445711689989"><ele>226.39999999999998</ele><time>2026-04-25T07:43:29.999Z</time></trkpt><trkpt lat="46.555679210752906" lon="26.844644293059055"><ele>227.0</ele><time>2026-04-25T07:43:30.999Z</time></trkpt><trkpt lat="46.55573994787111" lon="26.84471991759226"><ele>227.0</ele><time>2026-04-25T07:43:31.999Z</time></trkpt><trkpt lat="46.555809625541094" lon="26.844799046568223"><ele>227.0</ele><time>2026-04-25T07:43:32.999Z</time></trkpt><trkpt lat="46.55588285109179" lon="26.844884251323936"><ele>227.0</ele><time>2026-04-25T07:43:33.999Z</time></trkpt><trkpt lat="46.55596115499958" lon="26.844968296612937"><ele>227.0</ele><time>2026-04-25T07:43:34.999Z</time></trkpt><trkpt lat="46.556041975938875" lon="26.845049519424602"><ele>227.0</ele><time>2026-04-25T07:43:35.999Z</time></trkpt><trkpt lat="46.55612276412887" lon="26.8451324924359"><ele>226.8</ele><time>2026-04-25T07:43:36.999Z</time></trkpt><trkpt lat="46.556196202680546" lon="26.845223560171327"><ele>226.6</ele><time>2026-04-25T07:43:37.999Z</time></trkpt><trkpt lat="46.55628076190594" lon="26.84533021145405"><ele>226.40000000000003</ele><time>2026-04-25T07:43:38.999Z</time></trkpt><trkpt lat="46.55635273642986" lon="26.845453695006864"><ele>226.20000000000002</ele><time>2026-04-25T07:43:39.999Z</time></trkpt><trkpt lat="46.55641868486451" lon="26.845591704523144"><ele>226.0</ele><time>2026-04-25T07:43:40.999Z</time></trkpt><trkpt lat="46.5564960504253" lon="26.845741118176115"><ele>226.0</ele><time>2026-04-25T07:43:41.999Z</time></trkpt><trkpt lat="46.55657062770598" lon="26.845882942417088"><ele>226.0</ele><time>2026-04-25T07:43:42.999Z</time></trkpt><trkpt lat="46.55664499710313" lon="26.846011876980892"><ele>226.0</ele><time>2026-04-25T07:43:43.999Z</time></trkpt><trkpt lat="46.55671256325209" lon="26.846137806608613"><ele>226.0</ele><time>2026-04-25T07:43:44.999Z</time></trkpt><trkpt lat="46.55678509718308" lon="26.846261331474153"><ele>227.25</ele><time>2026-04-25T07:43:45.999Z</time></trkpt><trkpt lat="46.55686770064313" lon="26.846404441584642"><ele>228.5</ele><time>2026-04-25T07:43:46.999Z</time></trkpt><trkpt lat="46.55695163267651" lon="26.846538766539478"><ele>229.75</ele><time>2026-04-25T07:43:47.999Z</time></trkpt><trkpt lat="46.55703741199803" lon="26.846670653971152"><ele>231.0</ele><time>2026-04-25T07:43:48.999Z</time></trkpt><trkpt lat="46.55712904038695" lon="26.846804584784042"><ele>228.25</ele><time>2026-04-25T07:43:49.999Z</time></trkpt><trkpt lat="46.55721551971583" lon="26.84694364504886"><ele>225.5</ele><time>2026-04-25T07:43:50.999Z</time></trkpt><trkpt lat="46.55730916554397" lon="26.847080408416975"><ele>222.75</ele><time>2026-04-25T07:43:51.999Z</time></trkpt><trkpt lat="46.55740897208613" lon="26.847208002961015"><ele>220.0</ele><time>2026-04-25T07:43:52.999Z</time></trkpt><trkpt lat="46.55750593536248" lon="26.847345802074788"><ele>220.0</ele><time>2026-04-25T07:43:53.999Z</time></trkpt><trkpt lat="46.55758949224972" lon="26.847492489684953"><ele>220.0</ele><time>2026-04-25T07:43:54.999Z</time></trkpt><trkpt lat="46.55766767019452" lon="26.847648896895258"><ele>220.0</ele><time>2026-04-25T07:43:55.999Z</time></trkpt><trkpt lat="46.55773732542258" lon="26.84780775055364"><ele>220.0</ele><time>2026-04-25T07:43:56.999Z</time></trkpt><trkpt lat="46.55778996704113" lon="26.847951628955897"><ele>220.2</ele><time>2026-04-25T07:43:57.999Z</time></trkpt><trkpt lat="46.557823237717145" lon="26.84808195635074"><ele>220.4</ele><time>2026-04-25T07:43:58.999Z</time></trkpt><trkpt lat="46.55784830581936" lon="26.848207115751144"><ele>220.60000000000002</ele><time>2026-04-25T07:43:59.999Z</time></trkpt><trkpt lat="46.55786550083906" lon="26.848345014543096"><ele>220.8</ele><time>2026-04-25T07:44:00.999Z</time></trkpt><trkpt lat="46.55787255292522" lon="26.84849841232945"><ele>221.0</ele><time>2026-04-25T07:44:01.999Z</time></trkpt><trkpt lat="46.55787150667791" lon="26.848675971875604"><ele>221.75</ele><time>2026-04-25T07:44:02.999Z</time></trkpt><trkpt lat="46.5578656137799" lon="26.848853127395085"><ele>222.5</ele><time>2026-04-25T07:44:03.999Z</time></trkpt><trkpt lat="46.55787425380771" lon="26.849041440621733"><ele>223.25</ele><time>2026-04-25T07:44:04.999Z</time></trkpt><trkpt lat="46.557880967387554" lon="26.849230330633137"><ele>224.0</ele><time>2026-04-25T07:44:05.999Z</time></trkpt><trkpt lat="46.55789032760246" lon="26.849423548190593"><ele>222.25</ele><time>2026-04-25T07:44:06.999Z</time></trkpt><trkpt lat="46.557928490243945" lon="26.8496071281053"><ele>220.5</ele><time>2026-04-25T07:44:07.998Z</time></trkpt><trkpt lat="46.55796885157866" lon="26.84978657108079"><ele>218.75</ele><time>2026-04-25T07:44:08.998Z</time></trkpt><trkpt lat="46.55800767940667" lon="26.849966183276027"><ele>217.0</ele><time>2026-04-25T07:44:09.998Z</time></trkpt><trkpt lat="46.55804433430592" lon="26.850138493139617"><ele>217.0</ele><time>2026-04-25T07:44:10.998Z</time></trkpt><trkpt lat="46.558086680586804" lon="26.850307845903767"><ele>217.0</ele><time>2026-04-25T07:44:11.998Z</time></trkpt><trkpt lat="46.55813414339943" lon="26.85047377007012"><ele>217.0</ele><time>2026-04-25T07:44:12.998Z</time></trkpt><trkpt lat="46.55818424086605" lon="26.850632581243353"><ele>217.0</ele><time>2026-04-25T07:44:13.998Z</time></trkpt><trkpt lat="46.55823920040959" lon="26.850790148492603"><ele>217.0</ele><time>2026-04-25T07:44:14.998Z</time></trkpt><trkpt lat="46.558291068556315" lon="26.85094685077502"><ele>217.0</ele><time>2026-04-25T07:44:15.998Z</time></trkpt><trkpt lat="46.55833854310976" lon="26.851099639479834"><ele>217.0</ele><time>2026-04-25T07:44:16.998Z</time></trkpt><trkpt lat="46.55838146020188" lon="26.851241743597267"><ele>217.0</ele><time>2026-04-25T07:44:17.998Z</time></trkpt><trkpt lat="46.5584249448453" lon="26.851372692783713"><ele>217.0</ele><time>2026-04-25T07:44:18.998Z</time></trkpt><trkpt lat="46.55848722057591" lon="26.85149949612768"><ele>217.25</ele><time>2026-04-25T07:44:19.998Z</time></trkpt><trkpt lat="46.558572148692086" lon="26.851613841476546"><ele>217.5</ele><time>2026-04-25T07:44:20.998Z</time></trkpt><trkpt lat="46.55867096791757" lon="26.851721226815364"><ele>217.75</ele><time>2026-04-25T07:44:21.998Z</time></trkpt><trkpt lat="46.55877738621924" lon="26.85182384995893"><ele>218.0</ele><time>2026-04-25T07:44:23Z</time></trkpt><trkpt lat="46.55888942128658" lon="26.851930021903478"><ele>217.0</ele><time>2026-04-25T07:44:24Z</time></trkpt><trkpt lat="46.55900334534642" lon="26.852043249138468"><ele>216.0</ele><time>2026-04-25T07:44:25Z</time></trkpt><trkpt lat="46.55912093224862" lon="26.852148295017702"><ele>215.0</ele><time>2026-04-25T07:44:26Z</time></trkpt><trkpt lat="46.55924474513304" lon="26.85224800632565"><ele>214.0</ele><time>2026-04-25T07:44:27Z</time></trkpt><trkpt lat="46.5593590809981" lon="26.852368720775956"><ele>214.0</ele><time>2026-04-25T07:44:28Z</time></trkpt><trkpt lat="46.55947778125732" lon="26.852470262384642"><ele>214.0</ele><time>2026-04-25T07:44:29Z</time></trkpt><trkpt lat="46.5596060624709" lon="26.852567216418205"><ele>214.0</ele><time>2026-04-25T07:44:30Z</time></trkpt><trkpt lat="46.559727522805154" lon="26.852698641100467"><ele>214.0</ele><time>2026-04-25T07:44:31Z</time></trkpt><trkpt lat="46.55984885244973" lon="26.85282228162152"><ele>213.66666666666666</ele><time>2026-04-25T07:44:32Z</time></trkpt><trkpt lat="46.55997321006251" lon="26.85295770120622"><ele>213.33333333333331</ele><time>2026-04-25T07:44:33Z</time></trkpt><trkpt lat="46.56009463828498" lon="26.853098525154383"><ele>213.0</ele><time>2026-04-25T07:44:34Z</time></trkpt><trkpt lat="46.56021309049644" lon="26.85323691002981"><ele>213.0</ele><time>2026-04-25T07:44:35Z</time></trkpt><trkpt lat="46.560323083587" lon="26.853376577434013"><ele>213.0</ele><time>2026-04-25T07:44:36Z</time></trkpt><trkpt lat="46.5604248758558" lon="26.853523860414168"><ele>213.0</ele><time>2026-04-25T07:44:37Z</time></trkpt><trkpt lat="46.5605235516182" lon="26.8536749049592"><ele>213.0</ele><time>2026-04-25T07:44:38Z</time></trkpt><trkpt lat="46.56062701417283" lon="26.853807801472215"><ele>213.0</ele><time>2026-04-25T07:44:39Z</time></trkpt><trkpt lat="46.56073565786421" lon="26.853930092108897"><ele>213.0</ele><time>2026-04-25T07:44:40Z</time></trkpt><trkpt lat="46.560838558986326" lon="26.854041710150476"><ele>213.0</ele><time>2026-04-25T07:44:41Z</time></trkpt><trkpt lat="46.56093677129581" lon="26.854154583901174"><ele>213.0</ele><time>2026-04-25T07:44:42Z</time></trkpt><trkpt lat="46.5610178027408" lon="26.854260052925508"><ele>212.8</ele><time>2026-04-25T07:44:43Z</time></trkpt><trkpt lat="46.56107081060017" lon="26.854363271815373"><ele>212.60000000000002</ele><time>2026-04-25T07:44:44Z</time></trkpt><trkpt lat="46.56111290275451" lon="26.854494306325847"><ele>212.39999999999998</ele><time>2026-04-25T07:44:45Z</time></trkpt><trkpt lat="46.561143390393006" lon="26.854648347264042"><ele>212.2</ele><time>2026-04-25T07:44:46Z</time></trkpt><trkpt lat="46.56116919052806" lon="26.854807600067964"><ele>212.0</ele><time>2026-04-25T07:44:47Z</time></trkpt><trkpt lat="46.561195876148716" lon="26.85497138117166"><ele>212.25</ele><time>2026-04-25T07:44:48Z</time></trkpt><trkpt lat="46.561215584082476" lon="26.85514606574383"><ele>212.5</ele><time>2026-04-25T07:44:49Z</time></trkpt><trkpt lat="46.56121755419036" lon="26.855312251108778"><ele>212.75</ele><time>2026-04-25T07:44:50Z</time></trkpt><trkpt lat="46.56120206269434" lon="26.855484035959265"><ele>213.0</ele><time>2026-04-25T07:44:51Z</time></trkpt><trkpt lat="46.561179433600415" lon="26.85565758551598"><ele>213.0</ele><time>2026-04-25T07:44:52Z</time></trkpt><trkpt lat="46.56116346045374" lon="26.85583463027334"><ele>213.0</ele><time>2026-04-25T07:44:53Z</time></trkpt><trkpt lat="46.56115239278007" lon="26.85601576049001"><ele>213.0</ele><time>2026-04-25T07:44:54Z</time></trkpt><trkpt lat="46.5611462095976" lon="26.85619524542079"><ele>213.0</ele><time>2026-04-25T07:44:55Z</time></trkpt><trkpt lat="46.56114262735771" lon="26.856358698260262"><ele>213.0</ele><time>2026-04-25T07:44:56Z</time></trkpt><trkpt lat="46.56115042105962" lon="26.85652531703743"><ele>213.0</ele><time>2026-04-25T07:44:57Z</time></trkpt><trkpt lat="46.56116678038318" lon="26.856688020901274"><ele>213.0</ele><time>2026-04-25T07:44:58Z</time></trkpt><trkpt lat="46.561211857204874" lon="26.856839236293943"><ele>213.0</ele><time>2026-04-25T07:44:59Z</time></trkpt><trkpt lat="46.5612770834358" lon="26.85697510676976"><ele>215.75</ele><time>2026-04-25T07:44:59.999Z</time></trkpt><trkpt lat="46.56134693700995" lon="26.85712319713187"><ele>218.5</ele><time>2026-04-25T07:45:00.999Z</time></trkpt><trkpt lat="46.561405428252925" lon="26.857283359470618"><ele>221.25</ele><time>2026-04-25T07:45:01.999Z</time></trkpt><trkpt lat="46.561442268814695" lon="26.85744903934054"><ele>224.0</ele><time>2026-04-25T07:45:02.999Z</time></trkpt><trkpt lat="46.561457131992185" lon="26.857621796019178"><ele>224.0</ele><time>2026-04-25T07:45:03.999Z</time></trkpt><trkpt lat="46.56145752201896" lon="26.857802330870975"><ele>224.0</ele><time>2026-04-25T07:45:04.999Z</time></trkpt><trkpt lat="46.56145448803765" lon="26.857982364581765"><ele>224.0</ele><time>2026-04-25T07:45:05.999Z</time></trkpt><trkpt lat="46.56145583006226" lon="26.85817031351576"><ele>224.0</ele><time>2026-04-25T07:45:06.999Z</time></trkpt><trkpt lat="46.56146069705389" lon="26.858362778531802"><ele>223.5</ele><time>2026-04-25T07:45:07.999Z</time></trkpt><trkpt lat="46.56146744355907" lon="26.858556101502156"><ele>223.0</ele><time>2026-04-25T07:45:08.999Z</time></trkpt><trkpt lat="46.56147890836987" lon="26.858748998043033"><ele>222.5</ele><time>2026-04-25T07:45:09.999Z</time></trkpt><trkpt lat="46.56148655237906" lon="26.858943633080735"><ele>222.0</ele><time>2026-04-25T07:45:10.999Z</time></trkpt><trkpt lat="46.561495133074075" lon="26.85914292914046"><ele>221.5</ele><time>2026-04-25T07:45:11.999Z</time></trkpt><trkpt lat="46.561504554602834" lon="26.859338546567344"><ele>221.0</ele><time>2026-04-25T07:45:12.999Z</time></trkpt><trkpt lat="46.56150998728184" lon="26.859538883786268"><ele>220.5</ele><time>2026-04-25T07:45:13.999Z</time></trkpt><trkpt lat="46.56151439067016" lon="26.859756430935555"><ele>220.0</ele><time>2026-04-25T07:45:14.999Z</time></trkpt><trkpt lat="46.56152326246748" lon="26.859965402596057"><ele>219.0</ele><time>2026-04-25T07:45:15.999Z</time></trkpt><trkpt lat="46.56153080903154" lon="26.86018320499171"><ele>218.0</ele><time>2026-04-25T07:45:16.999Z</time></trkpt><trkpt lat="46.56153259619974" lon="26.860404951683872"><ele>217.0</ele><time>2026-04-25T07:45:17.999Z</time></trkpt><trkpt lat="46.561540807821565" lon="26.860609300084974"><ele>216.0</ele><time>2026-04-25T07:45:18.999Z</time></trkpt><trkpt lat="46.56154431318352" lon="26.86080678809743"><ele>215.25</ele><time>2026-04-25T07:45:19.999Z</time></trkpt><trkpt lat="46.56153708587057" lon="26.86099979764547"><ele>214.5</ele><time>2026-04-25T07:45:20.999Z</time></trkpt><trkpt lat="46.56150223292231" lon="26.861190064156894"><ele>213.75</ele><time>2026-04-25T07:45:21.999Z</time></trkpt><trkpt lat="46.56145726616258" lon="26.86138151726887"><ele>213.0</ele><time>2026-04-25T07:45:22.999Z</time></trkpt><trkpt lat="46.56141747503415" lon="26.861582781672322"><ele>211.66666666666669</ele><time>2026-04-25T07:45:23.999Z</time></trkpt><trkpt lat="46.561378794306144" lon="26.86179434772267"><ele>210.33333333333334</ele><time>2026-04-25T07:45:24.999Z</time></trkpt><trkpt lat="46.56135338914089" lon="26.862014964649248"><ele>209.0</ele><time>2026-04-25T07:45:25.999Z</time></trkpt><trkpt lat="46.56133584258409" lon="26.862246282682833"><ele>209.0</ele><time>2026-04-25T07:45:26.999Z</time></trkpt><trkpt lat="46.56131801079011" lon="26.862477945829692"><ele>209.0</ele><time>2026-04-25T07:45:27.999Z</time></trkpt><trkpt lat="46.56129763486793" lon="26.862701942298237"><ele>209.0</ele><time>2026-04-25T07:45:28.999Z</time></trkpt><trkpt lat="46.561286337055044" lon="26.862920479180605"><ele>208.25</ele><time>2026-04-25T07:45:29.999Z</time></trkpt><trkpt lat="46.56126727616929" lon="26.863133940440523"><ele>207.5</ele><time>2026-04-25T07:45:30.999Z</time></trkpt><trkpt lat="46.561238209970384" lon="26.86334720035695"><ele>206.75</ele><time>2026-04-25T07:45:31.999Z</time></trkpt><trkpt lat="46.56122577281274" lon="26.863543944684306"><ele>206.0</ele><time>2026-04-25T07:45:32.999Z</time></trkpt><trkpt lat="46.5612085449022" lon="26.863724767813743"><ele>205.5</ele><time>2026-04-25T07:45:33.999Z</time></trkpt><trkpt lat="46.561191504620425" lon="26.863910716446824"><ele>205.0</ele><time>2026-04-25T07:45:34.999Z</time></trkpt><trkpt lat="46.561171164299985" lon="26.86409677736577"><ele>204.5</ele><time>2026-04-25T07:45:35.999Z</time></trkpt><trkpt lat="46.56114976716201" lon="26.864288512735627"><ele>204.0</ele><time>2026-04-25T07:45:36.999Z</time></trkpt><trkpt lat="46.561125153312084" lon="26.864487364536874"><ele>204.0</ele><time>2026-04-25T07:45:37.999Z</time></trkpt><trkpt lat="46.561088189687126" lon="26.86466793573678"><ele>204.0</ele><time>2026-04-25T07:45:38.999Z</time></trkpt><trkpt lat="46.561044626946455" lon="26.864847097060185"><ele>204.0</ele><time>2026-04-25T07:45:39.999Z</time></trkpt><trkpt lat="46.56099800896842" lon="26.865032153485817"><ele>204.0</ele><time>2026-04-25T07:45:40.999Z</time></trkpt><trkpt lat="46.56094682867801" lon="26.865224044884066"><ele>204.0</ele><time>2026-04-25T07:45:41.999Z</time></trkpt><trkpt lat="46.56090263710143" lon="26.865421366354674"><ele>204.0</ele><time>2026-04-25T07:45:42.999Z</time></trkpt><trkpt lat="46.5608639782364" lon="26.865626081412163"><ele>204.0</ele><time>2026-04-25T07:45:43.999Z</time></trkpt><trkpt lat="46.56082541089985" lon="26.865821597129088"><ele>204.0</ele><time>2026-04-25T07:45:44.999Z</time></trkpt><trkpt lat="46.56078319815024" lon="26.866015646097722"><ele>203.75</ele><time>2026-04-25T07:45:45.999Z</time></trkpt><trkpt lat="46.56074232348868" lon="26.866208059799128"><ele>203.5</ele><time>2026-04-25T07:45:46.999Z</time></trkpt><trkpt lat="46.56069854953075" lon="26.8664006694914"><ele>203.25</ele><time>2026-04-25T07:45:47.999Z</time></trkpt><trkpt lat="46.560654164244674" lon="26.8665945997977"><ele>203.0</ele><time>2026-04-25T07:45:48.999Z</time></trkpt><trkpt lat="46.560608673681266" lon="26.86679316335015"><ele>203.0</ele><time>2026-04-25T07:45:49.999Z</time></trkpt><trkpt lat="46.56056199013518" lon="26.866984129613673"><ele>203.0</ele><time>2026-04-25T07:45:50.999Z</time></trkpt><trkpt lat="46.560513688580535" lon="26.86716836368022"><ele>203.0</ele><time>2026-04-25T07:45:51.999Z</time></trkpt><trkpt lat="46.5604698851299" lon="26.867360664312077"><ele>203.0</ele><time>2026-04-25T07:45:52.999Z</time></trkpt><trkpt lat="46.56037468068994" lon="26.867519160781796"><ele>202.5</ele><time>2026-04-25T07:45:53.999Z</time></trkpt><trkpt lat="46.5602867034789" lon="26.867679420635625"><ele>202.0</ele><time>2026-04-25T07:45:54.999Z</time></trkpt><trkpt lat="46.56018977086404" lon="26.86783379486954"><ele>201.5</ele><time>2026-04-25T07:45:55.999Z</time></trkpt><trkpt lat="46.56008642320869" lon="26.867979978559244"><ele>201.0</ele><time>2026-04-25T07:45:56.999Z</time></trkpt><trkpt lat="46.55997675664034" lon="26.868106547217987"><ele>201.0</ele><time>2026-04-25T07:45:57.999Z</time></trkpt><trkpt lat="46.55986324139336" lon="26.868227410238482"><ele>201.0</ele><time>2026-04-25T07:45:58.999Z</time></trkpt><trkpt lat="46.55975103880944" lon="26.868340584299116"><ele>201.0</ele><time>2026-04-25T07:45:59.999Z</time></trkpt><trkpt lat="46.559643573448206" lon="26.868450982530092"><ele>201.0</ele><time>2026-04-25T07:46:00.999Z</time></trkpt><trkpt lat="46.55954425477971" lon="26.868550026786767"><ele>200.75</ele><time>2026-04-25T07:46:01.999Z</time></trkpt><trkpt lat="46.55945330244505" lon="26.868657001112325"><ele>200.5</ele><time>2026-04-25T07:46:02.999Z</time></trkpt><trkpt lat="46.559372437082274" lon="26.868789732519325"><ele>200.25</ele><time>2026-04-25T07:46:03.999Z</time></trkpt><trkpt lat="46.55929763818561" lon="26.86894128075093"><ele>200.0</ele><time>2026-04-25T07:46:04.999Z</time></trkpt><trkpt lat="46.55923382498879" lon="26.869109107727525"><ele>199.75</ele><time>2026-04-25T07:46:05.999Z</time></trkpt><trkpt lat="46.55918163079772" lon="26.86928764148003"><ele>199.5</ele><time>2026-04-25T07:46:06.999Z</time></trkpt><trkpt lat="46.55914519007796" lon="26.86946550385574"><ele>199.25</ele><time>2026-04-25T07:46:07.999Z</time></trkpt><trkpt lat="46.55912400172732" lon="26.869636789627855"><ele>199.0</ele><time>2026-04-25T07:46:08.999Z</time></trkpt><trkpt lat="46.55910612958953" lon="26.869793061998795"><ele>199.0</ele><time>2026-04-25T07:46:09.999Z</time></trkpt><trkpt lat="46.55908955416222" lon="26.86994419304234"><ele>199.0</ele><time>2026-04-25T07:46:10.999Z</time></trkpt><trkpt lat="46.55907366284431" lon="26.87009752559898"><ele>199.0</ele><time>2026-04-25T07:46:11.999Z</time></trkpt><trkpt lat="46.559062920512446" lon="26.87026977749385"><ele>199.0</ele><time>2026-04-25T07:46:12.999Z</time></trkpt><trkpt lat="46.55906610342701" lon="26.870448834782987"><ele>199.0</ele><time>2026-04-25T07:46:13.999Z</time></trkpt><trkpt lat="46.55907273251614" lon="26.870596330719753"><ele>199.0</ele><time>2026-04-25T07:46:14.999Z</time></trkpt><trkpt lat="46.55909083647606" lon="26.870735759385035"><ele>199.0</ele><time>2026-04-25T07:46:15.999Z</time></trkpt><trkpt lat="46.55910809776728" lon="26.870880942581596"><ele>199.0</ele><time>2026-04-25T07:46:16.999Z</time></trkpt><trkpt lat="46.55912840548519" lon="26.871041295933118"><ele>199.0</ele><time>2026-04-25T07:46:17.999Z</time></trkpt><trkpt lat="46.559147416136405" lon="26.871190288337353"><ele>198.79999999999998</ele><time>2026-04-25T07:46:18.999Z</time></trkpt><trkpt lat="46.55916601910674" lon="26.87133140784841"><ele>198.6</ele><time>2026-04-25T07:46:19.999Z</time></trkpt><trkpt lat="46.55917897404178" lon="26.871489850993278"><ele>198.4</ele><time>2026-04-25T07:46:20.999Z</time></trkpt><trkpt lat="46.55918739407533" lon="26.871660676471734"><ele>198.2</ele><time>2026-04-25T07:46:21.999Z</time></trkpt><trkpt lat="46.55919802815407" lon="26.87183861383063"><ele>198.0</ele><time>2026-04-25T07:46:22.999Z</time></trkpt><trkpt lat="46.559217914141335" lon="26.8720202969551"><ele>197.75</ele><time>2026-04-25T07:46:23.998Z</time></trkpt><trkpt lat="46.559238321254774" lon="26.872209919469878"><ele>197.5</ele><time>2026-04-25T07:46:24.998Z</time></trkpt><trkpt lat="46.559258101256276" lon="26.872401663062345"><ele>197.25</ele><time>2026-04-25T07:46:25.998Z</time></trkpt><trkpt lat="46.55928273523116" lon="26.872597495643266"><ele>197.0</ele><time>2026-04-25T07:46:26.998Z</time></trkpt><trkpt lat="46.55931031693206" lon="26.87278584617001"><ele>197.0</ele><time>2026-04-25T07:46:27.998Z</time></trkpt><trkpt lat="46.559342375770754" lon="26.872962941820973"><ele>197.0</ele><time>2026-04-25T07:46:29Z</time></trkpt><trkpt lat="46.55939475026146" lon="26.873133522805247"><ele>197.0</ele><time>2026-04-25T07:46:30Z</time></trkpt><trkpt lat="46.55947426685255" lon="26.873302227143128"><ele>197.0</ele><time>2026-04-25T07:46:31Z</time></trkpt><trkpt lat="46.559577658029866" lon="26.87346009429795"><ele>196.75</ele><time>2026-04-25T07:46:32Z</time></trkpt><trkpt lat="46.55968727425876" lon="26.87359931291995"><ele>196.5</ele><time>2026-04-25T07:46:33Z</time></trkpt><trkpt lat="46.55978938370473" lon="26.87373198103724"><ele>196.25</ele><time>2026-04-25T07:46:34Z</time></trkpt><trkpt lat="46.55988608494521" lon="26.873850046221424"><ele>196.0</ele><time>2026-04-25T07:46:35Z</time></trkpt><trkpt lat="46.55998789778929" lon="26.873960739903136"><ele>196.0</ele><time>2026-04-25T07:46:36Z</time></trkpt><trkpt lat="46.56008283231289" lon="26.87407071265187"><ele>196.0</ele><time>2026-04-25T07:46:37Z</time></trkpt><trkpt lat="46.56017351841124" lon="26.874205150804762"><ele>196.0</ele><time>2026-04-25T07:46:38Z</time></trkpt><trkpt lat="46.5602417817904" lon="26.874366056486863"><ele>196.0</ele><time>2026-04-25T07:46:39Z</time></trkpt><trkpt lat="46.560289058145365" lon="26.87455107336119"><ele>195.75</ele><time>2026-04-25T07:46:40Z</time></trkpt><trkpt lat="46.56031861050375" lon="26.874735474241664"><ele>195.5</ele><time>2026-04-25T07:46:41Z</time></trkpt><trkpt lat="46.560341718547434" lon="26.87491108176416"><ele>195.25</ele><time>2026-04-25T07:46:42Z</time></trkpt><trkpt lat="46.560370487856225" lon="26.87507921808793"><ele>195.0</ele><time>2026-04-25T07:46:43Z</time></trkpt><trkpt lat="46.56039243971369" lon="26.875259942658897"><ele>194.75</ele><time>2026-04-25T07:46:44Z</time></trkpt><trkpt lat="46.5604133094351" lon="26.875439553533056"><ele>194.5</ele><time>2026-04-25T07:46:45Z</time></trkpt><trkpt lat="46.560438568556116" lon="26.875621593376806"><ele>194.25</ele><time>2026-04-25T07:46:46Z</time></trkpt><trkpt lat="46.560463252000524" lon="26.87580232659131"><ele>194.0</ele><time>2026-04-25T07:46:47Z</time></trkpt><trkpt lat="46.56048705578638" lon="26.875987311631455"><ele>193.75</ele><time>2026-04-25T07:46:48Z</time></trkpt><trkpt lat="46.56050577081602" lon="26.876177303509227"><ele>193.5</ele><time>2026-04-25T07:46:49Z</time></trkpt><trkpt lat="46.56052855817635" lon="26.87637418422878"><ele>193.25</ele><time>2026-04-25T07:46:50Z</time></trkpt><trkpt lat="46.56055364583275" lon="26.87656683305472"><ele>193.0</ele><time>2026-04-25T07:46:51Z</time></trkpt><trkpt lat="46.56057797487877" lon="26.876762219743554"><ele>193.0</ele><time>2026-04-25T07:46:52Z</time></trkpt><trkpt lat="46.56060050805698" lon="26.876965215279434"><ele>193.0</ele><time>2026-04-25T07:46:53Z</time></trkpt><trkpt lat="46.560627825188035" lon="26.877150452813982"><ele>193.0</ele><time>2026-04-25T07:46:54Z</time></trkpt><trkpt lat="46.560646179939305" lon="26.877326872153773"><ele>193.0</ele><time>2026-04-25T07:46:55Z</time></trkpt><trkpt lat="46.56066575330846" lon="26.877506373299287"><ele>192.75</ele><time>2026-04-25T07:46:56Z</time></trkpt><trkpt lat="46.56068633969459" lon="26.87769513348082"><ele>192.5</ele><time>2026-04-25T07:46:57Z</time></trkpt><trkpt lat="46.56071356746462" lon="26.87788840948047"><ele>192.25</ele><time>2026-04-25T07:46:58Z</time></trkpt><trkpt lat="46.56073927121256" lon="26.87808116932635"><ele>192.0</ele><time>2026-04-25T07:46:59Z</time></trkpt><trkpt lat="46.560768292576995" lon="26.87827118855285"><ele>191.75</ele><time>2026-04-25T07:47:00Z</time></trkpt><trkpt lat="46.560793038184684" lon="26.878454192985618"><ele>191.5</ele><time>2026-04-25T07:47:01Z</time></trkpt><trkpt lat="46.5608163675782" lon="26.878642260384478"><ele>191.25</ele><time>2026-04-25T07:47:02Z</time></trkpt><trkpt lat="46.56084720135351" lon="26.878815470429892"><ele>191.0</ele><time>2026-04-25T07:47:03Z</time></trkpt><trkpt lat="46.56088257460868" lon="26.87898682765638"><ele>191.0</ele><time>2026-04-25T07:47:04Z</time></trkpt><trkpt lat="46.56091720427163" lon="26.879168659153382"><ele>191.0</ele><time>2026-04-25T07:47:05Z</time></trkpt><trkpt lat="46.56095376390622" lon="26.87935553606672"><ele>191.0</ele><time>2026-04-25T07:47:06Z</time></trkpt><trkpt lat="46.560989314164985" lon="26.879547867107707"><ele>191.0</ele><time>2026-04-25T07:47:07Z</time></trkpt><trkpt lat="46.56102283634914" lon="26.879728303099693"><ele>190.75</ele><time>2026-04-25T07:47:08Z</time></trkpt><trkpt lat="46.56105220829844" lon="26.8798971836088"><ele>190.5</ele><time>2026-04-25T07:47:09Z</time></trkpt><trkpt lat="46.56107934643833" lon="26.880071837522177"><ele>190.25</ele><time>2026-04-25T07:47:10Z</time></trkpt><trkpt lat="46.56111065580305" lon="26.880240371152624"><ele>190.0</ele><time>2026-04-25T07:47:11Z</time></trkpt><trkpt lat="46.56113557957791" lon="26.880390666802732"><ele>190.0</ele><time>2026-04-25T07:47:12Z</time></trkpt><trkpt lat="46.56116664468891" lon="26.880543024078086"><ele>190.0</ele><time>2026-04-25T07:47:13Z</time></trkpt><trkpt lat="46.561194994414784" lon="26.880702302107117"><ele>190.0</ele><time>2026-04-25T07:47:14Z</time></trkpt><trkpt lat="46.561221109398026" lon="26.88085666518877"><ele>190.0</ele><time>2026-04-25T07:47:15Z</time></trkpt><trkpt lat="46.56124405190209" lon="26.881007763006327"><ele>190.0</ele><time>2026-04-25T07:47:16Z</time></trkpt><trkpt lat="46.56127723136403" lon="26.88116304364011"><ele>189.75</ele><time>2026-04-25T07:47:17Z</time></trkpt><trkpt lat="46.56133135180261" lon="26.881313644363487"><ele>189.5</ele><time>2026-04-25T07:47:17.999Z</time></trkpt><trkpt lat="46.56139653977564" lon="26.881453739424504"><ele>189.25</ele><time>2026-04-25T07:47:18.999Z</time></trkpt><trkpt lat="46.56148033986555" lon="26.88157947449443"><ele>189.0</ele><time>2026-04-25T07:47:19.999Z</time></trkpt><trkpt lat="46.56158570940599" lon="26.881672337809686"><ele>189.0</ele><time>2026-04-25T07:47:20.999Z</time></trkpt><trkpt lat="46.561702416857365" lon="26.881749368532276"><ele>189.0</ele><time>2026-04-25T07:47:21.999Z</time></trkpt><trkpt lat="46.561826742789876" lon="26.881816401940288"><ele>189.0</ele><time>2026-04-25T07:47:22.999Z</time></trkpt><trkpt lat="46.561940900827835" lon="26.881880546550004"><ele>189.0</ele><time>2026-04-25T07:47:23.999Z</time></trkpt><trkpt lat="46.562055787401135" lon="26.881937334212676"><ele>188.39999999999998</ele><time>2026-04-25T07:47:24.999Z</time></trkpt><trkpt lat="46.56215776039294" lon="26.881979192191608"><ele>187.8</ele><time>2026-04-25T07:47:25.999Z</time></trkpt><trkpt lat="46.562253156625346" lon="26.882034937889465"><ele>187.2</ele><time>2026-04-25T07:47:26.999Z</time></trkpt><trkpt lat="46.562343383846176" lon="26.88206374142613"><ele>186.60000000000002</ele><time>2026-04-25T07:47:27.999Z</time></trkpt><trkpt lat="46.562427029496334" lon="26.88207808345911"><ele>186.0</ele><time>2026-04-25T07:47:28.999Z</time></trkpt><trkpt lat="46.562509949356105" lon="26.882091585653964"><ele>186.0</ele><time>2026-04-25T07:47:29.999Z</time></trkpt><trkpt lat="46.56259223590235" lon="26.88209895460023"><ele>186.0</ele><time>2026-04-25T07:47:30.999Z</time></trkpt><trkpt lat="46.56267084172505" lon="26.88210599392541"><ele>186.0</ele><time>2026-04-25T07:47:31.999Z</time></trkpt><trkpt lat="46.56274545141059" lon="26.882107601986252"><ele>186.0</ele><time>2026-04-25T07:47:32.999Z</time></trkpt><trkpt lat="46.56282320206872" lon="26.88212899144409"><ele>186.0</ele><time>2026-04-25T07:47:33.999Z</time></trkpt><trkpt lat="46.56289459415814" lon="26.88217360922339"><ele>186.0</ele><time>2026-04-25T07:47:34.999Z</time></trkpt><trkpt lat="46.56294878844247" lon="26.882229560187348"><ele>185.83333333333334</ele><time>2026-04-25T07:47:35.999Z</time></trkpt><trkpt lat="46.56303012058299" lon="26.882320115539507"><ele>185.66666666666666</ele><time>2026-04-25T07:47:37.999Z</time></trkpt><trkpt lat="46.56310626365661" lon="26.882392182642306"><ele>185.5</ele><time>2026-04-25T07:47:39.999Z</time></trkpt><trkpt lat="46.563185294438675" lon="26.88247295918331"><ele>185.33333333333331</ele><time>2026-04-25T07:47:41.999Z</time></trkpt><trkpt lat="46.56325591890649" lon="26.88254815915587"><ele>185.16666666666666</ele><time>2026-04-25T07:47:43.999Z</time></trkpt><trkpt lat="46.56330582220696" lon="26.882604139640257"><ele>185.0</ele><time>2026-04-25T07:47:45.999Z</time></trkpt><trkpt lat="46.563358992554825" lon="26.88268960236333"><ele>184.6</ele><time>2026-04-25T07:47:48.999Z</time></trkpt><trkpt lat="46.56328594704337" lon="26.88285296081083"><ele>184.2</ele><time>2026-04-25T07:47:53.999Z</time></trkpt><trkpt lat="46.56317095377649" lon="26.882869635352016"><ele>183.8</ele><time>2026-04-25T07:47:55.999Z</time></trkpt><trkpt lat="46.563099523907894" lon="26.882891551529436"><ele>183.4</ele><time>2026-04-25T07:47:56.999Z</time></trkpt><trkpt lat="46.563037185471146" lon="26.88291503869634"><ele>183.0</ele><time>2026-04-25T07:47:57.999Z</time></trkpt><trkpt lat="46.56297036168672" lon="26.882939700918243"><ele>183.0</ele><time>2026-04-25T07:47:58.999Z</time></trkpt><trkpt lat="46.56288967871624" lon="26.882964907646297"><ele>183.0</ele><time>2026-04-25T07:47:59.999Z</time></trkpt><trkpt lat="46.56280153956181" lon="26.882989788441698"><ele>183.0</ele><time>2026-04-25T07:48:00.999Z</time></trkpt><trkpt lat="46.562699429508925" lon="26.883017464328574"><ele>183.0</ele><time>2026-04-25T07:48:01.999Z</time></trkpt><trkpt lat="46.56259413073238" lon="26.883049481224916"><ele>183.0</ele><time>2026-04-25T07:48:02.999Z</time></trkpt><trkpt lat="46.562496388182026" lon="26.88307978854572"><ele>183.2</ele><time>2026-04-25T07:48:03.999Z</time></trkpt><trkpt lat="46.56240770653693" lon="26.883104191392302"><ele>183.4</ele><time>2026-04-25T07:48:04.999Z</time></trkpt><trkpt lat="46.56230930394721" lon="26.88313541122764"><ele>183.6</ele><time>2026-04-25T07:48:05.999Z</time></trkpt><trkpt lat="46.562208511634" lon="26.88317220511781"><ele>183.79999999999998</ele><time>2026-04-25T07:48:06.999Z</time></trkpt><trkpt lat="46.56210420204639" lon="26.883208540619183"><ele>184.0</ele><time>2026-04-25T07:48:07.999Z</time></trkpt><trkpt lat="46.561995664451516" lon="26.88324439717689"><ele>184.39999999999998</ele><time>2026-04-25T07:48:08.999Z</time></trkpt><trkpt lat="46.56188993508075" lon="26.883274274126073"><ele>184.8</ele><time>2026-04-25T07:48:09.999Z</time></trkpt><trkpt lat="46.56178125216232" lon="26.883301500039764"><ele>185.2</ele><time>2026-04-25T07:48:10.999Z</time></trkpt><trkpt lat="46.561670463454966" lon="26.883322655111517"><ele>185.60000000000002</ele><time>2026-04-25T07:48:11.999Z</time></trkpt><trkpt lat="46.56156088934717" lon="26.88335277497733"><ele>186.0</ele><time>2026-04-25T07:48:12.999Z</time></trkpt><trkpt lat="46.56144691391998" lon="26.883382842076525"><ele>186.0</ele><time>2026-04-25T07:48:13.999Z</time></trkpt><trkpt lat="46.5613380792663" lon="26.8834008746203"><ele>186.0</ele><time>2026-04-25T07:48:14.999Z</time></trkpt><trkpt lat="46.561218864186586" lon="26.883419937944538"><ele>186.0</ele><time>2026-04-25T07:48:15.999Z</time></trkpt><trkpt lat="46.56109278559715" lon="26.883428056194443"><ele>186.0</ele><time>2026-04-25T07:48:16.999Z</time></trkpt><trkpt lat="46.56097124906662" lon="26.8834368807152"><ele>186.0</ele><time>2026-04-25T07:48:17.999Z</time></trkpt><trkpt lat="46.56085010088346" lon="26.88344570462739"><ele>186.0</ele><time>2026-04-25T07:48:18.999Z</time></trkpt><trkpt lat="46.56072497287063" lon="26.88345526564428"><ele>186.0</ele><time>2026-04-25T07:48:19.999Z</time></trkpt><trkpt lat="46.56059684278317" lon="26.883459880086804"><ele>186.0</ele><time>2026-04-25T07:48:20.999Z</time></trkpt><trkpt lat="46.560459672102596" lon="26.883464088835243"><ele>186.0</ele><time>2026-04-25T07:48:21.999Z</time></trkpt><trkpt lat="46.560328285846815" lon="26.883471523887845"><ele>186.0</ele><time>2026-04-25T07:48:22.999Z</time></trkpt><trkpt lat="46.560208925471365" lon="26.883471280411513"><ele>186.0</ele><time>2026-04-25T07:48:23.999Z</time></trkpt><trkpt lat="46.56008670246112" lon="26.883465942633993"><ele>186.0</ele><time>2026-04-25T07:48:24.999Z</time></trkpt><trkpt lat="46.55995491845796" lon="26.883477897476396"><ele>186.0</ele><time>2026-04-25T07:48:25.999Z</time></trkpt><trkpt lat="46.55982016711564" lon="26.883496814038658"><ele>186.0</ele><time>2026-04-25T07:48:26.999Z</time></trkpt><trkpt lat="46.55968646179728" lon="26.883517831047346"><ele>186.0</ele><time>2026-04-25T07:48:27.999Z</time></trkpt><trkpt lat="46.559550156032245" lon="26.88354391298587"><ele>186.0</ele><time>2026-04-25T07:48:28.999Z</time></trkpt><trkpt lat="46.55941241422004" lon="26.883583632813274"><ele>185.75</ele><time>2026-04-25T07:48:29.999Z</time></trkpt><trkpt lat="46.559272978703454" lon="26.883636774992002"><ele>185.5</ele><time>2026-04-25T07:48:30.999Z</time></trkpt><trkpt lat="46.559142593068486" lon="26.8837029794913"><ele>185.25</ele><time>2026-04-25T07:48:31.999Z</time></trkpt><trkpt lat="46.55901597897116" lon="26.883777213158716"><ele>185.0</ele><time>2026-04-25T07:48:32.999Z</time></trkpt><trkpt lat="46.55889831105054" lon="26.88385618731062"><ele>185.0</ele><time>2026-04-25T07:48:33.999Z</time></trkpt><trkpt lat="46.55879131952605" lon="26.883933515662168"><ele>185.0</ele><time>2026-04-25T07:48:35Z</time></trkpt><trkpt lat="46.55869238158428" lon="26.884008929116955"><ele>185.0</ele><time>2026-04-25T07:48:36Z</time></trkpt><trkpt lat="46.558599187142896" lon="26.884095826221067"><ele>185.0</ele><time>2026-04-25T07:48:37Z</time></trkpt><trkpt lat="46.55850229086747" lon="26.884198124249707"><ele>185.25</ele><time>2026-04-25T07:48:38Z</time></trkpt><trkpt lat="46.55839972385542" lon="26.88431613198037"><ele>185.5</ele><time>2026-04-25T07:48:39Z</time></trkpt><trkpt lat="46.558298271784246" lon="26.884436598215842"><ele>185.75</ele><time>2026-04-25T07:48:40Z</time></trkpt><trkpt lat="46.55819230429005" lon="26.88455996261523"><ele>186.0</ele><time>2026-04-25T07:48:41Z</time></trkpt><trkpt lat="46.55808654053046" lon="26.884679446758454"><ele>186.0</ele><time>2026-04-25T07:48:42Z</time></trkpt><trkpt lat="46.557985758472306" lon="26.884793195389665"><ele>186.0</ele><time>2026-04-25T07:48:43Z</time></trkpt><trkpt lat="46.55789973883017" lon="26.884894154120936"><ele>186.0</ele><time>2026-04-25T07:48:44Z</time></trkpt><trkpt lat="46.55781926455188" lon="26.88498626385302"><ele>186.0</ele><time>2026-04-25T07:48:45Z</time></trkpt><trkpt lat="46.55774751470222" lon="26.88507293212431"><ele>186.0</ele><time>2026-04-25T07:48:46Z</time></trkpt><trkpt lat="46.55768350625431" lon="26.885153522318284"><ele>185.66666666666666</ele><time>2026-04-25T07:48:47Z</time></trkpt><trkpt lat="46.557616573111005" lon="26.885224295181285"><ele>185.33333333333334</ele><time>2026-04-25T07:48:48Z</time></trkpt><trkpt lat="46.55755475289" lon="26.88529017021185"><ele>185.0</ele><time>2026-04-25T07:48:49Z</time></trkpt><trkpt lat="46.55749253904794" lon="26.885349159006743"><ele>184.66666666666669</ele><time>2026-04-25T07:48:50Z</time></trkpt><trkpt lat="46.55742163102562" lon="26.885397892202658"><ele>184.33333333333334</ele><time>2026-04-25T07:48:51Z</time></trkpt><trkpt lat="46.55735676578079" lon="26.8854347177732"><ele>184.0</ele><time>2026-04-25T07:48:52Z</time></trkpt><trkpt lat="46.55724650084632" lon="26.885482791118395"><ele>184.0</ele><time>2026-04-25T07:48:54Z</time></trkpt><trkpt lat="46.55715360461142" lon="26.885505270603943"><ele>184.0</ele><time>2026-04-25T07:48:56Z</time></trkpt><trkpt lat="46.55711427858061" lon="26.88528711603489"><ele>184.0</ele><time>2026-04-25T07:48:57Z</time></trkpt><trkpt lat="46.557062271961996" lon="26.885184372785364"><ele>184.0</ele><time>2026-04-25T07:48:59Z</time></trkpt><trkpt lat="46.557020051835615" lon="26.88509927215488"><ele>184.0</ele><time>2026-04-25T07:49:01Z</time></trkpt><trkpt lat="46.556981819788824" lon="26.88501294322772"><ele>184.66666666666669</ele><time>2026-04-25T07:49:04Z</time></trkpt><trkpt lat="46.55691033471445" lon="26.885022607263547"><ele>185.33333333333334</ele><time>2026-04-25T07:58:06.999Z</time></trkpt><trkpt lat="46.55683420883296" lon="26.885025536426532"><ele>186.0</ele><time>2026-04-25T07:58:10.999Z</time></trkpt><trkpt lat="46.55676259203775" lon="26.885022810254732"><ele>186.66666666666666</ele><time>2026-04-25T07:58:12.999Z</time></trkpt><trkpt lat="46.556695598174066" lon="26.884999355145315"><ele>187.33333333333331</ele><time>2026-04-25T07:58:14.999Z</time></trkpt><trkpt lat="46.556622857487234" lon="26.884963526430507"><ele>188.0</ele><time>2026-04-25T07:58:16.999Z</time></trkpt><trkpt lat="46.556527440405034" lon="26.884928347989774"><ele>188.0</ele><time>2026-04-25T07:58:18.999Z</time></trkpt><trkpt lat="46.55647276642673" lon="26.884880307999346"><ele>188.0</ele><time>2026-04-25T07:58:19.999Z</time></trkpt><trkpt lat="46.55641775063376" lon="26.8848213863671"><ele>188.0</ele><time>2026-04-25T07:58:20.999Z</time></trkpt><trkpt lat="46.55632937346606" lon="26.884698991551694"><ele>188.0</ele><time>2026-04-25T07:58:22.999Z</time></trkpt><trkpt lat="46.55628079938339" lon="26.884635955452143"><ele>188.0</ele><time>2026-04-25T07:58:23.999Z</time></trkpt><trkpt lat="46.556218506841454" lon="26.884482762081177"><ele>188.0</ele><time>2026-04-25T07:58:26Z</time></trkpt><trkpt lat="46.5561761173873" lon="26.884397166403065"><ele>188.66666666666666</ele><time>2026-04-25T07:58:27Z</time></trkpt><trkpt lat="46.556134975252434" lon="26.884311675492572"><ele>189.33333333333331</ele><time>2026-04-25T07:58:28Z</time></trkpt><trkpt lat="46.55609400715124" lon="26.88422032340953"><ele>190.0</ele><time>2026-04-25T07:58:29Z</time></trkpt><trkpt lat="46.55604978868689" lon="26.88411929290305"><ele>190.66666666666666</ele><time>2026-04-25T07:58:30Z</time></trkpt><trkpt lat="46.556010319728536" lon="26.884030413809967"><ele>191.33333333333334</ele><time>2026-04-25T07:58:31Z</time></trkpt><trkpt lat="46.55596793029312" lon="26.883935491587156"><ele>192.0</ele><time>2026-04-25T07:58:32Z</time></trkpt><trkpt lat="46.55591743510894" lon="26.883827017327338"><ele>193.2</ele><time>2026-04-25T07:58:33Z</time></trkpt><trkpt lat="46.555867823376325" lon="26.88371423418176"><ele>194.39999999999998</ele><time>2026-04-25T07:58:34Z</time></trkpt><trkpt lat="46.55581185462218" lon="26.883593647287697"><ele>195.60000000000002</ele><time>2026-04-25T07:58:35Z</time></trkpt><trkpt lat="46.5557530868834" lon="26.883467479083446"><ele>196.8</ele><time>2026-04-25T07:58:36Z</time></trkpt><trkpt lat="46.5557010894529" lon="26.883355932076874"><ele>198.0</ele><time>2026-04-25T07:58:37Z</time></trkpt><trkpt lat="46.55564413368878" lon="26.883229230025314"><ele>199.0</ele><time>2026-04-25T07:58:38Z</time></trkpt><trkpt lat="46.555581787145" lon="26.88309385244988"><ele>200.0</ele><time>2026-04-25T07:58:39Z</time></trkpt><trkpt lat="46.555522472018325" lon="26.882965702395463"><ele>201.0</ele><time>2026-04-25T07:58:40Z</time></trkpt><trkpt lat="46.55546900725805" lon="26.882846492934235"><ele>202.0</ele><time>2026-04-25T07:58:41Z</time></trkpt><trkpt lat="46.55541035372222" lon="26.882722838463117"><ele>203.0</ele><time>2026-04-25T07:58:42Z</time></trkpt><trkpt lat="46.55535472592178" lon="26.882599944148637"><ele>203.8</ele><time>2026-04-25T07:58:43Z</time></trkpt><trkpt lat="46.55529813379169" lon="26.88246954712799"><ele>204.60000000000002</ele><time>2026-04-25T07:58:44Z</time></trkpt><trkpt lat="46.555239484303776" lon="26.882335424931192"><ele>205.39999999999998</ele><time>2026-04-25T07:58:45Z</time></trkpt><trkpt lat="46.5551810123554" lon="26.882205849125548"><ele>206.2</ele><time>2026-04-25T07:58:46Z</time></trkpt><trkpt lat="46.55511797490913" lon="26.88207147863271"><ele>207.0</ele><time>2026-04-25T07:58:47Z</time></trkpt><trkpt lat="46.55505403308714" lon="26.881938620167922"><ele>207.0</ele><time>2026-04-25T07:58:48Z</time></trkpt><trkpt lat="46.55498701246327" lon="26.881804752768677"><ele>207.0</ele><time>2026-04-25T07:58:49Z</time></trkpt><trkpt lat="46.55491736858925" lon="26.881664942228117"><ele>207.0</ele><time>2026-04-25T07:58:50Z</time></trkpt><trkpt lat="46.55485128703043" lon="26.88152252468717"><ele>207.0</ele><time>2026-04-25T07:58:51Z</time></trkpt><trkpt lat="46.554787122250325" lon="26.881383274287757"><ele>207.25</ele><time>2026-04-25T07:58:52Z</time></trkpt><trkpt lat="46.55472797445539" lon="26.881252859775582"><ele>207.5</ele><time>2026-04-25T07:58:53Z</time></trkpt><trkpt lat="46.55466724623074" lon="26.88111495185872"><ele>207.75</ele><time>2026-04-25T07:58:54Z</time></trkpt><trkpt lat="46.554605380230754" lon="26.880976907791105"><ele>208.0</ele><time>2026-04-25T07:58:55Z</time></trkpt><trkpt lat="46.554541247299674" lon="26.880834063871927"><ele>208.75</ele><time>2026-04-25T07:58:56Z</time></trkpt><trkpt lat="46.554469416986386" lon="26.880674929891182"><ele>209.5</ele><time>2026-04-25T07:58:57Z</time></trkpt><trkpt lat="46.55439735284094" lon="26.88051607006933"><ele>210.25</ele><time>2026-04-25T07:58:58Z</time></trkpt><trkpt lat="46.55432293900095" lon="26.8803456022684"><ele>211.0</ele><time>2026-04-25T07:58:59Z</time></trkpt><trkpt lat="46.55424271450233" lon="26.880171903883504"><ele>211.5</ele><time>2026-04-25T07:59:00Z</time></trkpt><trkpt lat="46.55416968160504" lon="26.880012728312973"><ele>212.0</ele><time>2026-04-25T07:59:01Z</time></trkpt><trkpt lat="46.554098698882946" lon="26.879856712083484"><ele>212.5</ele><time>2026-04-25T07:59:02Z</time></trkpt><trkpt lat="46.55402238602615" lon="26.879690145606"><ele>213.0</ele><time>2026-04-25T07:59:03Z</time></trkpt><trkpt lat="46.55393979125283" lon="26.879510615862753"><ele>213.0</ele><time>2026-04-25T07:59:04Z</time></trkpt><trkpt lat="46.55385765554325" lon="26.879333903891002"><ele>213.0</ele><time>2026-04-25T07:59:05Z</time></trkpt><trkpt lat="46.553775868789664" lon="26.879152415147118"><ele>213.0</ele><time>2026-04-25T07:59:06Z</time></trkpt><trkpt lat="46.55369300789201" lon="26.878968262348764"><ele>213.0</ele><time>2026-04-25T07:59:07Z</time></trkpt><trkpt lat="46.55360778842234" lon="26.8787799499741"><ele>212.66666666666669</ele><time>2026-04-25T07:59:08Z</time></trkpt><trkpt lat="46.5535222585271" lon="26.8785880966742"><ele>212.33333333333334</ele><time>2026-04-25T07:59:09Z</time></trkpt><trkpt lat="46.553437150018546" lon="26.87840222119615"><ele>212.0</ele><time>2026-04-25T07:59:10Z</time></trkpt><trkpt lat="46.553355193044005" lon="26.878215339975913"><ele>212.66666666666669</ele><time>2026-04-25T07:59:11Z</time></trkpt><trkpt lat="46.55327051356743" lon="26.87803322981344"><ele>213.33333333333331</ele><time>2026-04-25T07:59:12Z</time></trkpt><trkpt lat="46.553187600971896" lon="26.877847240287586"><ele>214.0</ele><time>2026-04-25T07:59:13Z</time></trkpt><trkpt lat="46.55310112212135" lon="26.877663020768566"><ele>215.33333333333331</ele><time>2026-04-25T07:59:14Z</time></trkpt><trkpt lat="46.5530153754826" lon="26.877478711385375"><ele>216.66666666666669</ele><time>2026-04-25T07:59:15Z</time></trkpt><trkpt lat="46.55292744841196" lon="26.877292378314557"><ele>218.0</ele><time>2026-04-25T07:59:16Z</time></trkpt><trkpt lat="46.55284168151281" lon="26.877101892039544"><ele>218.0</ele><time>2026-04-25T07:59:17Z</time></trkpt><trkpt lat="46.552758691827016" lon="26.876913350649556"><ele>218.0</ele><time>2026-04-25T07:59:18Z</time></trkpt><trkpt lat="46.55267522851157" lon="26.876731301787956"><ele>218.0</ele><time>2026-04-25T07:59:19Z</time></trkpt><trkpt lat="46.55259068377822" lon="26.876538006144674"><ele>219.0</ele><time>2026-04-25T07:59:20Z</time></trkpt><trkpt lat="46.552505575999454" lon="26.87634748395764"><ele>220.0</ele><time>2026-04-25T07:59:21Z</time></trkpt><trkpt lat="46.55241489203172" lon="26.87614715500727"><ele>221.0</ele><time>2026-04-25T07:59:22Z</time></trkpt><trkpt lat="46.55231941562335" lon="26.875939864262204"><ele>221.0</ele><time>2026-04-25T07:59:23Z</time></trkpt><trkpt lat="46.55222595141335" lon="26.87573460865459"><ele>221.0</ele><time>2026-04-25T07:59:24Z</time></trkpt><trkpt lat="46.55213446169058" lon="26.87553184781903"><ele>221.0</ele><time>2026-04-25T07:59:25Z</time></trkpt><trkpt lat="46.55203895445605" lon="26.87532393791036"><ele>221.0</ele><time>2026-04-25T07:59:26Z</time></trkpt><trkpt lat="46.551943871938754" lon="26.875117300247428"><ele>221.0</ele><time>2026-04-25T07:59:27Z</time></trkpt><trkpt lat="46.55184917894954" lon="26.87490749698964"><ele>221.0</ele><time>2026-04-25T07:59:28Z</time></trkpt><trkpt lat="46.5517568508221" lon="26.87470003111641"><ele>221.66666666666669</ele><time>2026-04-25T07:59:29Z</time></trkpt><trkpt lat="46.551661162063596" lon="26.87449773979839"><ele>222.33333333333331</ele><time>2026-04-25T07:59:30Z</time></trkpt><trkpt lat="46.551572139298514" lon="26.874303923435125"><ele>223.0</ele><time>2026-04-25T07:59:31Z</time></trkpt><trkpt lat="46.551483127209494" lon="26.87410681149823"><ele>223.33333333333331</ele><time>2026-04-25T07:59:32Z</time></trkpt><trkpt lat="46.55139030104845" lon="26.87390450613069"><ele>223.66666666666669</ele><time>2026-04-25T07:59:33Z</time></trkpt><trkpt lat="46.551295783401706" lon="26.873699935155585"><ele>224.0</ele><time>2026-04-25T07:59:34Z</time></trkpt><trkpt lat="46.55120211114111" lon="26.873499885717333"><ele>223.66666666666669</ele><time>2026-04-25T07:59:35Z</time></trkpt><trkpt lat="46.55112362847543" lon="26.873281595453186"><ele>223.33333333333331</ele><time>2026-04-25T07:59:36Z</time></trkpt><trkpt lat="46.55102901736607" lon="26.873072823790817"><ele>223.0</ele><time>2026-04-25T07:59:36.999Z</time></trkpt><trkpt lat="46.55093656512212" lon="26.872870599615936"><ele>223.0</ele><time>2026-04-25T07:59:37.999Z</time></trkpt><trkpt lat="46.55084520435359" lon="26.872668639480647"><ele>223.0</ele><time>2026-04-25T07:59:38.999Z</time></trkpt><trkpt lat="46.550754343933825" lon="26.87246822837858"><ele>223.0</ele><time>2026-04-25T07:59:39.999Z</time></trkpt><trkpt lat="46.55066585214509" lon="26.87227187096753"><ele>224.0</ele><time>2026-04-25T07:59:40.999Z</time></trkpt><trkpt lat="46.55057744348721" lon="26.872076401042623"><ele>225.0</ele><time>2026-04-25T07:59:41.999Z</time></trkpt><trkpt lat="46.55049107736402" lon="26.871886805996457"><ele>226.0</ele><time>2026-04-25T07:59:42.999Z</time></trkpt><trkpt lat="46.550406510966894" lon="26.87170016979958"><ele>225.66666666666666</ele><time>2026-04-25T07:59:43.999Z</time></trkpt><trkpt lat="46.55031636207699" lon="26.87150099362512"><ele>225.33333333333331</ele><time>2026-04-25T07:59:44.999Z</time></trkpt><trkpt lat="46.55023335466702" lon="26.871316519809827"><ele>225.0</ele><time>2026-04-25T07:59:45.999Z</time></trkpt><trkpt lat="46.550152582272666" lon="26.871139584902373"><ele>225.0</ele><time>2026-04-25T07:59:46.999Z</time></trkpt><trkpt lat="46.55006744400201" lon="26.87095776427228"><ele>225.0</ele><time>2026-04-25T07:59:47.999Z</time></trkpt><trkpt lat="46.549982216921016" lon="26.87077327442054"><ele>225.0</ele><time>2026-04-25T07:59:48.999Z</time></trkpt><trkpt lat="46.54989824886835" lon="26.87058963686174"><ele>225.0</ele><time>2026-04-25T07:59:49.999Z</time></trkpt><trkpt lat="46.549817016945774" lon="26.870411218360314"><ele>225.0</ele><time>2026-04-25T07:59:50.999Z</time></trkpt><trkpt lat="46.5497385510469" lon="26.870238722830297"><ele>225.0</ele><time>2026-04-25T07:59:51.999Z</time></trkpt><trkpt lat="46.549664024570184" lon="26.87007523068304"><ele>225.0</ele><time>2026-04-25T07:59:52.999Z</time></trkpt><trkpt lat="46.54959253905328" lon="26.869918315621035"><ele>225.0</ele><time>2026-04-25T07:59:53.999Z</time></trkpt><trkpt lat="46.54952038057435" lon="26.869760495334564"><ele>225.0</ele><time>2026-04-25T07:59:54.999Z</time></trkpt><trkpt lat="46.54944705779518" lon="26.869601034333776"><ele>225.0</ele><time>2026-04-25T07:59:55.999Z</time></trkpt><trkpt lat="46.54937531548193" lon="26.86944472911612"><ele>225.0</ele><time>2026-04-25T07:59:56.999Z</time></trkpt><trkpt lat="46.54930782672043" lon="26.869295632619988"><ele>225.2</ele><time>2026-04-25T07:59:57.999Z</time></trkpt><trkpt lat="46.5492392983971" lon="26.86917145241804"><ele>225.4</ele><time>2026-04-25T07:59:58.999Z</time></trkpt><trkpt lat="46.54918367398219" lon="26.869054137819848"><ele>225.60000000000002</ele><time>2026-04-25T07:59:59.999Z</time></trkpt><trkpt lat="46.54913626327683" lon="26.868940453313705"><ele>225.8</ele><time>2026-04-25T08:00:00.999Z</time></trkpt><trkpt lat="46.54909483770187" lon="26.868832566850514"><ele>226.0</ele><time>2026-04-25T08:00:01.999Z</time></trkpt><trkpt lat="46.54906269000794" lon="26.868725643507943"><ele>226.0</ele><time>2026-04-25T08:00:02.999Z</time></trkpt><trkpt lat="46.54904453214643" lon="26.868595922131508"><ele>226.00000000000003</ele><time>2026-04-25T08:00:03.999Z</time></trkpt><trkpt lat="46.54903345816988" lon="26.868454111459638"><ele>226.00000000000003</ele><time>2026-04-25T08:00:04.999Z</time></trkpt><trkpt lat="46.54899415334009" lon="26.8683250665626"><ele>226.0</ele><time>2026-04-25T08:00:05.999Z</time></trkpt><trkpt lat="46.548934542771" lon="26.868217378291963"><ele>226.0</ele><time>2026-04-25T08:00:06.999Z</time></trkpt><trkpt lat="46.54888096133621" lon="26.8680982454462"><ele>226.25</ele><time>2026-04-25T08:00:07.999Z</time></trkpt><trkpt lat="46.548843975470376" lon="26.867948512562105"><ele>226.5</ele><time>2026-04-25T08:00:08.999Z</time></trkpt><trkpt lat="46.54881234414731" lon="26.86778005167445"><ele>226.75</ele><time>2026-04-25T08:00:09.999Z</time></trkpt><trkpt lat="46.548780218819125" lon="26.86760280718946"><ele>227.0</ele><time>2026-04-25T08:00:10.999Z</time></trkpt><trkpt lat="46.54874838939914" lon="26.867424092792138"><ele>227.0</ele><time>2026-04-25T08:00:11.999Z</time></trkpt><trkpt lat="46.54871486512471" lon="26.86723602633286"><ele>227.0</ele><time>2026-04-25T08:00:12.999Z</time></trkpt><trkpt lat="46.548682449710306" lon="26.86705539874104"><ele>227.0</ele><time>2026-04-25T08:00:13.999Z</time></trkpt><trkpt lat="46.548652608813825" lon="26.86688313722313"><ele>227.0</ele><time>2026-04-25T08:00:14.999Z</time></trkpt><trkpt lat="46.54862189085335" lon="26.866700337952533"><ele>226.75</ele><time>2026-04-25T08:00:15.999Z</time></trkpt><trkpt lat="46.548606024583435" lon="26.86650288369442"><ele>226.5</ele><time>2026-04-25T08:00:16.999Z</time></trkpt><trkpt lat="46.548574114777495" lon="26.86630603206768"><ele>226.25</ele><time>2026-04-25T08:00:17.999Z</time></trkpt><trkpt lat="46.54854086407527" lon="26.86610675170226"><ele>226.0</ele><time>2026-04-25T08:00:18.999Z</time></trkpt><trkpt lat="46.54850756729777" lon="26.8659091757984"><ele>226.5</ele><time>2026-04-25T08:00:19.999Z</time></trkpt><trkpt lat="46.54847435937144" lon="26.8657098831923"><ele>227.0</ele><time>2026-04-25T08:00:20.999Z</time></trkpt><trkpt lat="46.54844068847223" lon="26.865507745219745"><ele>227.5</ele><time>2026-04-25T08:00:21.999Z</time></trkpt><trkpt lat="46.548406304652104" lon="26.865301619983082"><ele>228.0</ele><time>2026-04-25T08:00:22.999Z</time></trkpt><trkpt lat="46.5483705039815" lon="26.865088809807904"><ele>228.66666666666669</ele><time>2026-04-25T08:00:23.999Z</time></trkpt><trkpt lat="46.548334384701754" lon="26.86487095297854"><ele>229.33333333333334</ele><time>2026-04-25T08:00:24.999Z</time></trkpt><trkpt lat="46.54829698484602" lon="26.864649258605446"><ele>230.0</ele><time>2026-04-25T08:00:25.999Z</time></trkpt><trkpt lat="46.54825843288073" lon="26.864414169308"><ele>230.66666666666669</ele><time>2026-04-25T08:00:26.999Z</time></trkpt><trkpt lat="46.54821943402522" lon="26.864183529593763"><ele>231.33333333333331</ele><time>2026-04-25T08:00:27.999Z</time></trkpt><trkpt lat="46.548181599638056" lon="26.863957070446975"><ele>232.0</ele><time>2026-04-25T08:00:28.999Z</time></trkpt><trkpt lat="46.548145213365814" lon="26.863738777720428"><ele>232.0</ele><time>2026-04-25T08:00:29.999Z</time></trkpt><trkpt lat="46.54810899529782" lon="26.863521600053513"><ele>232.0</ele><time>2026-04-25T08:00:30.999Z</time></trkpt><trkpt lat="46.54807452691645" lon="26.863313777826736"><ele>232.0</ele><time>2026-04-25T08:00:32Z</time></trkpt><trkpt lat="46.548041116809614" lon="26.86311229465956"><ele>232.0</ele><time>2026-04-25T08:00:33Z</time></trkpt><trkpt lat="46.54800716337721" lon="26.86291134561503"><ele>232.0</ele><time>2026-04-25T08:00:34Z</time></trkpt><trkpt lat="46.5479736159783" lon="26.862715278398387"><ele>232.0</ele><time>2026-04-25T08:00:35Z</time></trkpt><trkpt lat="46.547939662808524" lon="26.862516837471247"><ele>232.0</ele><time>2026-04-25T08:00:36Z</time></trkpt><trkpt lat="46.54790538062182" lon="26.862318208201472"><ele>232.0</ele><time>2026-04-25T08:00:37Z</time></trkpt><trkpt lat="46.54787054143874" lon="26.8621158962211"><ele>231.75</ele><time>2026-04-25T08:00:38Z</time></trkpt><trkpt lat="46.547835112669645" lon="26.86191125028684"><ele>231.5</ele><time>2026-04-25T08:00:39Z</time></trkpt><trkpt lat="46.547800795710934" lon="26.861709263836076"><ele>231.25</ele><time>2026-04-25T08:00:40Z</time></trkpt><trkpt lat="46.54776629748809" lon="26.861506701615387"><ele>231.0</ele><time>2026-04-25T08:00:41Z</time></trkpt><trkpt lat="46.547732051248275" lon="26.861310308711772"><ele>231.0</ele><time>2026-04-25T08:00:42Z</time></trkpt><trkpt lat="46.54769806185495" lon="26.86110875154124"><ele>231.0</ele><time>2026-04-25T08:00:43Z</time></trkpt><trkpt lat="46.54766259001606" lon="26.860905089759356"><ele>231.0</ele><time>2026-04-25T08:00:44Z</time></trkpt><trkpt lat="46.54762825098238" lon="26.860702970988232"><ele>231.0</ele><time>2026-04-25T08:00:45Z</time></trkpt><trkpt lat="46.54759141391552" lon="26.860489848592128"><ele>231.0</ele><time>2026-04-25T08:00:46Z</time></trkpt><trkpt lat="46.54755657601642" lon="26.860283465195916"><ele>231.0</ele><time>2026-04-25T08:00:47Z</time></trkpt><trkpt lat="46.547520349043104" lon="26.86007422748941"><ele>231.0</ele><time>2026-04-25T08:00:48Z</time></trkpt><trkpt lat="46.54748379050261" lon="26.859859062471415"><ele>231.0</ele><time>2026-04-25T08:00:49Z</time></trkpt><trkpt lat="46.547445639839864" lon="26.85963686874015"><ele>231.0</ele><time>2026-04-25T08:00:50Z</time></trkpt><trkpt lat="46.547407931884706" lon="26.859417586823444"><ele>231.0</ele><time>2026-04-25T08:00:51Z</time></trkpt><trkpt lat="46.54736961019096" lon="26.85919455939647"><ele>231.0</ele><time>2026-04-25T08:00:52Z</time></trkpt><trkpt lat="46.5473313859988" lon="26.858973683845605"><ele>231.66666666666669</ele><time>2026-04-25T08:00:53Z</time></trkpt><trkpt lat="46.54729657180129" lon="26.858752492388703"><ele>232.33333333333334</ele><time>2026-04-25T08:00:54Z</time></trkpt><trkpt lat="46.54726084050125" lon="26.858532140814415"><ele>233.0</ele><time>2026-04-25T08:00:55Z</time></trkpt><trkpt lat="46.54722558654383" lon="26.858308184979958"><ele>233.0</ele><time>2026-04-25T08:00:56Z</time></trkpt><trkpt lat="46.547189584673006" lon="26.85808462080962"><ele>233.0</ele><time>2026-04-25T08:00:57Z</time></trkpt><trkpt lat="46.54715260176444" lon="26.85785736964087"><ele>233.0</ele><time>2026-04-25T08:00:58Z</time></trkpt><trkpt lat="46.54711261560625" lon="26.857634009917973"><ele>233.0</ele><time>2026-04-25T08:00:59Z</time></trkpt><trkpt lat="46.547071371336145" lon="26.85740913429345"><ele>233.0</ele><time>2026-04-25T08:01:00Z</time></trkpt><trkpt lat="46.54703000034755" lon="26.857179443890093"><ele>233.0</ele><time>2026-04-25T08:01:01Z</time></trkpt><trkpt lat="46.54698881088963" lon="26.85695220826974"><ele>233.0</ele><time>2026-04-25T08:01:02Z</time></trkpt><trkpt lat="46.54694790484497" lon="26.85672596716417"><ele>233.0</ele><time>2026-04-25T08:01:03Z</time></trkpt><trkpt lat="46.54691745901599" lon="26.856501575722447"><ele>233.0</ele><time>2026-04-25T08:01:04Z</time></trkpt><trkpt lat="46.54688026809345" lon="26.856277748757876"><ele>233.0</ele><time>2026-04-25T08:01:05Z</time></trkpt><trkpt lat="46.54684158390738" lon="26.856058805620645"><ele>233.0</ele><time>2026-04-25T08:01:06Z</time></trkpt><trkpt lat="46.54680198834438" lon="26.855836898761478"><ele>233.0</ele><time>2026-04-25T08:01:07Z</time></trkpt><trkpt lat="46.54676226106793" lon="26.855610286792913"><ele>233.33333333333334</ele><time>2026-04-25T08:01:08Z</time></trkpt><trkpt lat="46.54672355305018" lon="26.85538801555163"><ele>233.66666666666669</ele><time>2026-04-25T08:01:09Z</time></trkpt><trkpt lat="46.54668418019111" lon="26.85516348300133"><ele>234.0</ele><time>2026-04-25T08:01:10Z</time></trkpt><trkpt lat="46.5466294833461" lon="26.854938881803996"><ele>234.66666666666669</ele><time>2026-04-25T08:01:11Z</time></trkpt><trkpt lat="46.54659001599668" lon="26.854708310770025"><ele>235.33333333333334</ele><time>2026-04-25T08:01:12Z</time></trkpt><trkpt lat="46.54656567604546" lon="26.854471976318962"><ele>236.0</ele><time>2026-04-25T08:01:13Z</time></trkpt><trkpt lat="46.546527126137605" lon="26.854244761702397"><ele>237.66666666666669</ele><time>2026-04-25T08:01:14Z</time></trkpt><trkpt lat="46.54647425693795" lon="26.854025870952373"><ele>239.33333333333331</ele><time>2026-04-25T08:01:15Z</time></trkpt><trkpt lat="46.54644983928358" lon="26.853789229539117"><ele>241.0</ele><time>2026-04-25T08:01:16Z</time></trkpt><trkpt lat="46.546412781762605" lon="26.853570811349872"><ele>241.66666666666666</ele><time>2026-04-25T08:01:17Z</time></trkpt><trkpt lat="46.54637603773805" lon="26.8533542406071"><ele>242.33333333333331</ele><time>2026-04-25T08:01:18Z</time></trkpt><trkpt lat="46.54633962356431" lon="26.85313682673196"><ele>243.0</ele><time>2026-04-25T08:01:19Z</time></trkpt><trkpt lat="46.54630300547778" lon="26.85291835702589"><ele>243.0</ele><time>2026-04-25T08:01:19.999Z</time></trkpt><trkpt lat="46.54626739884966" lon="26.852705495881086"><ele>243.0</ele><time>2026-04-25T08:01:20.999Z</time></trkpt><trkpt lat="46.54623097285138" lon="26.852486676705315"><ele>243.0</ele><time>2026-04-25T08:01:21.999Z</time></trkpt><trkpt lat="46.54619668630416" lon="26.852280709953465"><ele>243.33333333333331</ele><time>2026-04-25T08:01:22.999Z</time></trkpt><trkpt lat="46.54615767891719" lon="26.85206740956524"><ele>243.66666666666666</ele><time>2026-04-25T08:01:23.999Z</time></trkpt><trkpt lat="46.546124663478636" lon="26.851853660057422"><ele>244.0</ele><time>2026-04-25T08:01:24.999Z</time></trkpt><trkpt lat="46.546082538559794" lon="26.851639344837675"><ele>244.66666666666666</ele><time>2026-04-25T08:01:25.999Z</time></trkpt><trkpt lat="46.54609815511354" lon="26.85141481811906"><ele>245.33333333333331</ele><time>2026-04-25T08:01:26.999Z</time></trkpt><trkpt lat="46.54606811014262" lon="26.851185576112567"><ele>246.0</ele><time>2026-04-25T08:01:27.999Z</time></trkpt><trkpt lat="46.54608201707861" lon="26.85096198530952"><ele>246.33333333333331</ele><time>2026-04-25T08:01:28.999Z</time></trkpt><trkpt lat="46.54610805369799" lon="26.85074339578687"><ele>246.66666666666666</ele><time>2026-04-25T08:01:29.999Z</time></trkpt><trkpt lat="46.54614187080111" lon="26.85052485188638"><ele>247.0</ele><time>2026-04-25T08:01:30.999Z</time></trkpt><trkpt lat="46.54622279862751" lon="26.85032271036121"><ele>248.0</ele><time>2026-04-25T08:01:31.999Z</time></trkpt><trkpt lat="46.54627709504158" lon="26.850116468644853"><ele>249.0</ele><time>2026-04-25T08:01:32.999Z</time></trkpt><trkpt lat="46.54635777092869" lon="26.84992231451086"><ele>250.0</ele><time>2026-04-25T08:01:33.999Z</time></trkpt><trkpt lat="46.5464394132016" lon="26.849723994579882"><ele>250.0</ele><time>2026-04-25T08:01:34.999Z</time></trkpt><trkpt lat="46.54652918200466" lon="26.849532164338825"><ele>250.0</ele><time>2026-04-25T08:01:35.999Z</time></trkpt><trkpt lat="46.546624892643415" lon="26.84934385547889"><ele>250.0</ele><time>2026-04-25T08:01:36.999Z</time></trkpt><trkpt lat="46.546721176588356" lon="26.849153861738834"><ele>250.66666666666666</ele><time>2026-04-25T08:01:37.999Z</time></trkpt><trkpt lat="46.54681832788822" lon="26.848960996154382"><ele>251.33333333333331</ele><time>2026-04-25T08:01:38.999Z</time></trkpt><trkpt lat="46.54691325829299" lon="26.848773695017716"><ele>252.0</ele><time>2026-04-25T08:01:39.999Z</time></trkpt><trkpt lat="46.5470087419206" lon="26.84858530261138"><ele>252.0</ele><time>2026-04-25T08:01:40.999Z</time></trkpt><trkpt lat="46.547100327544456" lon="26.848395043121236"><ele>252.0</ele><time>2026-04-25T08:01:41.999Z</time></trkpt><trkpt lat="46.54719220802176" lon="26.848205508197456"><ele>252.0</ele><time>2026-04-25T08:01:42.999Z</time></trkpt><trkpt lat="46.54728687112554" lon="26.84800981483594"><ele>252.0</ele><time>2026-04-25T08:01:43.999Z</time></trkpt><trkpt lat="46.5473816072741" lon="26.847814601025775"><ele>252.0</ele><time>2026-04-25T08:01:44.999Z</time></trkpt><trkpt lat="46.54747923717467" lon="26.847613826676163"><ele>252.0</ele><time>2026-04-25T08:01:45.999Z</time></trkpt><trkpt lat="46.547576898439296" lon="26.847412338539304"><ele>253.33333333333331</ele><time>2026-04-25T08:01:46.999Z</time></trkpt><trkpt lat="46.54767530507218" lon="26.84720906799672"><ele>254.66666666666666</ele><time>2026-04-25T08:01:47.999Z</time></trkpt><trkpt lat="46.54777307116198" lon="26.847006891184947"><ele>256.0</ele><time>2026-04-25T08:01:48.999Z</time></trkpt><trkpt lat="46.54787547540719" lon="26.84680945641208"><ele>256.3333333333333</ele><time>2026-04-25T08:01:49.999Z</time></trkpt><trkpt lat="46.54798846072096" lon="26.846628429804593"><ele>256.6666666666667</ele><time>2026-04-25T08:01:50.999Z</time></trkpt><trkpt lat="46.54810176338357" lon="26.84644689475607"><ele>257.0</ele><time>2026-04-25T08:01:51.999Z</time></trkpt><trkpt lat="46.54821485359726" lon="26.846265010502254"><ele>257.0</ele><time>2026-04-25T08:01:52.999Z</time></trkpt><trkpt lat="46.54832378200925" lon="26.84607406904249"><ele>257.0</ele><time>2026-04-25T08:01:53.999Z</time></trkpt><trkpt lat="46.54844164015029" lon="26.84590036195153"><ele>257.0</ele><time>2026-04-25T08:01:54.999Z</time></trkpt><trkpt lat="46.548559919936814" lon="26.84572630300259"><ele>257.33333333333337</ele><time>2026-04-25T08:01:55.999Z</time></trkpt><trkpt lat="46.54868786116132" lon="26.845566059054313"><ele>257.6666666666667</ele><time>2026-04-25T08:01:56.999Z</time></trkpt><trkpt lat="46.54880351890185" lon="26.84539575820548"><ele>258.0</ele><time>2026-04-25T08:01:57.999Z</time></trkpt><trkpt lat="46.54891249385614" lon="26.845216319004173"><ele>259.0</ele><time>2026-04-25T08:01:58.999Z</time></trkpt><trkpt lat="46.54900909175309" lon="26.845035980784164"><ele>260.0</ele><time>2026-04-25T08:01:59.999Z</time></trkpt><trkpt lat="46.5491048856823" lon="26.844846565451146"><ele>261.0</ele><time>2026-04-25T08:02:00.999Z</time></trkpt><trkpt lat="46.549170299456804" lon="26.844630007106687"><ele>261.0</ele><time>2026-04-25T08:02:01.999Z</time></trkpt><trkpt lat="46.54925247121739" lon="26.844436131953163"><ele>261.0</ele><time>2026-04-25T08:02:02.999Z</time></trkpt><trkpt lat="46.54932081540039" lon="26.84422855752993"><ele>261.0</ele><time>2026-04-25T08:02:03.999Z</time></trkpt><trkpt lat="46.54938654809585" lon="26.844023676058303"><ele>261.0</ele><time>2026-04-25T08:02:04.999Z</time></trkpt><trkpt lat="46.54944694818191" lon="26.84383277069742"><ele>261.0</ele><time>2026-04-25T08:02:05.999Z</time></trkpt><trkpt lat="46.549508527892506" lon="26.84363813693862"><ele>261.0</ele><time>2026-04-25T08:02:06.999Z</time></trkpt><trkpt lat="46.54956929332086" lon="26.84344535563713"><ele>261.0</ele><time>2026-04-25T08:02:07.999Z</time></trkpt><trkpt lat="46.54962716821965" lon="26.843261150612488"><ele>261.0</ele><time>2026-04-25T08:02:08.999Z</time></trkpt><trkpt lat="46.549678226636274" lon="26.84309786543001"><ele>261.0</ele><time>2026-04-25T08:02:09.999Z</time></trkpt><trkpt lat="46.5497234053606" lon="26.84295338347647"><ele>261.0</ele><time>2026-04-25T08:02:10.999Z</time></trkpt><trkpt lat="46.54976347284082" lon="26.84282524731819"><ele>261.0</ele><time>2026-04-25T08:02:11.999Z</time></trkpt><trkpt lat="46.54980106029912" lon="26.842704589386848"><ele>261.0</ele><time>2026-04-25T08:02:12.999Z</time></trkpt><trkpt lat="46.54984069529" lon="26.842577178680493"><ele>261.8</ele><time>2026-04-25T08:02:13.999Z</time></trkpt><trkpt lat="46.54987744380941" lon="26.842459046810934"><ele>262.6</ele><time>2026-04-25T08:02:14.999Z</time></trkpt><trkpt lat="46.549912293725974" lon="26.84234713069685"><ele>263.4</ele><time>2026-04-25T08:02:15.999Z</time></trkpt><trkpt lat="46.54994735575245" lon="26.84223576238457"><ele>264.2</ele><time>2026-04-25T08:02:16.999Z</time></trkpt><trkpt lat="46.550019970679266" lon="26.8421157835239"><ele>265.0</ele><time>2026-04-25T08:02:18.999Z</time></trkpt><trkpt lat="46.55012048075005" lon="26.842152062541672"><ele>265.0</ele><time>2026-04-25T08:02:19.999Z</time></trkpt><trkpt lat="46.55021498189383" lon="26.842104548494923"><ele>265.0</ele><time>2026-04-25T08:02:20.999Z</time></trkpt><trkpt lat="46.550308394469546" lon="26.84205758176271"><ele>265.0</ele><time>2026-04-25T08:02:21.999Z</time></trkpt><trkpt lat="46.550404550636124" lon="26.842009243374964"><ele>265.0</ele><time>2026-04-25T08:02:22.999Z</time></trkpt><trkpt lat="46.55049879843937" lon="26.8419624101098"><ele>265.0</ele><time>2026-04-25T08:02:23.999Z</time></trkpt><trkpt lat="46.55059850670204" lon="26.84191238791517"><ele>265.0</ele><time>2026-04-25T08:02:24.999Z</time></trkpt><trkpt lat="46.55069967322991" lon="26.841861525775677"><ele>265.0</ele><time>2026-04-25T08:02:25.999Z</time></trkpt><trkpt lat="46.5508078505348" lon="26.84180541875241"><ele>265.0</ele><time>2026-04-25T08:02:26.999Z</time></trkpt><trkpt lat="46.55090853793044" lon="26.84174546421915"><ele>265.0</ele><time>2026-04-25T08:02:27.999Z</time></trkpt><trkpt lat="46.55101625686936" lon="26.84168139817248"><ele>265.0</ele><time>2026-04-25T08:02:28.999Z</time></trkpt><trkpt lat="46.55112652385827" lon="26.8416159615986"><ele>263.25</ele><time>2026-04-25T08:02:29.999Z</time></trkpt><trkpt lat="46.551245142294235" lon="26.8415448248819"><ele>261.5</ele><time>2026-04-25T08:02:30.999Z</time></trkpt><trkpt lat="46.551364676813684" lon="26.841497916404233"><ele>259.75</ele><time>2026-04-25T08:02:31.999Z</time></trkpt><trkpt lat="46.55148202682315" lon="26.84145158000536"><ele>258.0</ele><time>2026-04-25T08:02:32.999Z</time></trkpt><trkpt lat="46.55160011735841" lon="26.841403012953972"><ele>258.0</ele><time>2026-04-25T08:02:33.999Z</time></trkpt><trkpt lat="46.551713995160874" lon="26.841336254651708"><ele>258.0</ele><time>2026-04-25T08:02:34.999Z</time></trkpt><trkpt lat="46.55183293614758" lon="26.84127765276848"><ele>258.0</ele><time>2026-04-25T08:02:35.999Z</time></trkpt><trkpt lat="46.55195137327848" lon="26.84122612057099"><ele>258.0</ele><time>2026-04-25T08:02:36.999Z</time></trkpt><trkpt lat="46.55207124803429" lon="26.841230035630332"><ele>255.25</ele><time>2026-04-25T08:02:37.999Z</time></trkpt><trkpt lat="46.55219724198904" lon="26.841233221842806"><ele>252.5</ele><time>2026-04-25T08:02:38.999Z</time></trkpt><trkpt lat="46.552323504246765" lon="26.84127889376872"><ele>249.75</ele><time>2026-04-25T08:02:39.999Z</time></trkpt><trkpt lat="46.55245971131022" lon="26.84130392067444"><ele>247.0</ele><time>2026-04-25T08:02:40.999Z</time></trkpt><trkpt lat="46.55258030263045" lon="26.841344043375614"><ele>247.0</ele><time>2026-04-25T08:02:41.999Z</time></trkpt><trkpt lat="46.55271091401675" lon="26.84136408998331"><ele>247.0</ele><time>2026-04-25T08:02:42.999Z</time></trkpt><trkpt lat="46.55284757907189" lon="26.841339827072765"><ele>247.0</ele><time>2026-04-25T08:02:43.999Z</time></trkpt><trkpt lat="46.55297774647731" lon="26.841298812528144"><ele>247.0</ele><time>2026-04-25T08:02:45Z</time></trkpt><trkpt lat="46.55309890130712" lon="26.84127095238885"><ele>244.75</ele><time>2026-04-25T08:02:46Z</time></trkpt><trkpt lat="46.55322267710332" lon="26.84131834037173"><ele>242.5</ele><time>2026-04-25T08:02:47Z</time></trkpt><trkpt lat="46.5533505158953" lon="26.84133556935336"><ele>240.25</ele><time>2026-04-25T08:02:48Z</time></trkpt><trkpt lat="46.553478420963316" lon="26.841352807277083"><ele>238.0</ele><time>2026-04-25T08:02:49Z</time></trkpt><trkpt lat="46.55359648624109" lon="26.841368719073344"><ele>236.60000000000002</ele><time>2026-04-25T08:02:50Z</time></trkpt><trkpt lat="46.55370747842435" lon="26.841383677625423"><ele>235.20000000000002</ele><time>2026-04-25T08:02:51Z</time></trkpt><trkpt lat="46.553808725071725" lon="26.841397322748236"><ele>233.8</ele><time>2026-04-25T08:02:52Z</time></trkpt><trkpt lat="46.5539062885762" lon="26.841410471500712"><ele>232.4</ele><time>2026-04-25T08:02:53Z</time></trkpt><trkpt lat="46.55399821077571" lon="26.841422859966038"><ele>231.0</ele><time>2026-04-25T08:02:54Z</time></trkpt><trkpt lat="46.55408014487367" lon="26.841433902321686"><ele>231.0</ele><time>2026-04-25T08:02:55Z</time></trkpt><trkpt lat="46.55415329560428" lon="26.84142586905001"><ele>231.0</ele><time>2026-04-25T08:02:56Z</time></trkpt><trkpt lat="46.55422061068447" lon="26.8414829650076"><ele>231.0</ele><time>2026-04-25T08:02:57Z</time></trkpt><trkpt lat="46.55427644680774" lon="26.841580444185688"><ele>231.0</ele><time>2026-04-25T08:02:58Z</time></trkpt><trkpt lat="46.554317622192166" lon="26.841713449272977"><ele>231.0</ele><time>2026-04-25T08:02:59Z</time></trkpt><trkpt lat="46.554344839122344" lon="26.841861784192304"><ele>231.0</ele><time>2026-04-25T08:03:00Z</time></trkpt><trkpt lat="46.554362578683495" lon="26.84198662086886"><ele>231.33333333333334</ele><time>2026-04-25T08:03:01Z</time></trkpt><trkpt lat="46.55438595836948" lon="26.84209559420546"><ele>231.66666666666669</ele><time>2026-04-25T08:03:02Z</time></trkpt><trkpt lat="46.554412727327005" lon="26.84219948499952"><ele>232.0</ele><time>2026-04-25T08:03:03Z</time></trkpt><trkpt lat="46.55444276195752" lon="26.842312871984237"><ele>232.33333333333334</ele><time>2026-04-25T08:03:04Z</time></trkpt><trkpt lat="46.55447715523786" lon="26.842436997038526"><ele>232.66666666666669</ele><time>2026-04-25T08:03:05Z</time></trkpt><trkpt lat="46.554509158917796" lon="26.842568296248384"><ele>233.0</ele><time>2026-04-25T08:03:06Z</time></trkpt><trkpt lat="46.55453858008991" lon="26.842683662942466"><ele>232.16666666666669</ele><time>2026-04-25T08:03:07Z</time></trkpt><trkpt lat="46.55457310004394" lon="26.842789207357722"><ele>231.33333333333334</ele><time>2026-04-25T08:03:08Z</time></trkpt><trkpt lat="46.554619812204336" lon="26.842889266751044"><ele>230.5</ele><time>2026-04-25T08:03:09Z</time></trkpt><trkpt lat="46.554683643345236" lon="26.84298957794051"><ele>229.66666666666669</ele><time>2026-04-25T08:03:10Z</time></trkpt><trkpt lat="46.554752794063724" lon="26.843088166032707"><ele>228.83333333333334</ele><time>2026-04-25T08:03:11Z</time></trkpt><trkpt lat="46.554819693645655" lon="26.843184357128568"><ele>228.0</ele><time>2026-04-25T08:03:12Z</time></trkpt><trkpt lat="46.55488483369256" lon="26.84326852732165"><ele>228.0</ele><time>2026-04-25T08:03:13Z</time></trkpt><trkpt lat="46.55494184887094" lon="26.84334481924737"><ele>228.0</ele><time>2026-04-25T08:03:14Z</time></trkpt><trkpt lat="46.555004141643686" lon="26.843437029913304"><ele>228.0</ele><time>2026-04-25T08:03:15Z</time></trkpt><trkpt lat="46.555067069258875" lon="26.84352215718964"><ele>228.0</ele><time>2026-04-25T08:03:16Z</time></trkpt><trkpt lat="46.5551353956465" lon="26.843624214080343"><ele>228.0</ele><time>2026-04-25T08:03:17Z</time></trkpt><trkpt lat="46.55519620010866" lon="26.843706150743067"><ele>228.0</ele><time>2026-04-25T08:03:18Z</time></trkpt><trkpt lat="46.55524188571389" lon="26.843793057993715"><ele>227.2</ele><time>2026-04-25T08:03:19Z</time></trkpt><trkpt lat="46.55528087847558" lon="26.843874160338892"><ele>226.4</ele><time>2026-04-25T08:03:20Z</time></trkpt><trkpt lat="46.55534448133611" lon="26.844006435226206"><ele>225.59999999999997</ele><time>2026-04-25T08:03:22Z</time></trkpt><trkpt lat="46.55542126518792" lon="26.844105149778084"><ele>224.79999999999998</ele><time>2026-04-25T08:03:24Z</time></trkpt><trkpt lat="46.55557262474805" lon="26.84403042800259"><ele>224.0</ele><time>2026-04-25T08:03:26Z</time></trkpt><trkpt lat="46.55563484139798" lon="26.84397410216435"><ele>224.00000000000003</ele><time>2026-04-25T08:03:27Z</time></trkpt><trkpt lat="46.55570140018997" lon="26.843913844690125"><ele>224.0</ele><time>2026-04-25T08:03:27.999Z</time></trkpt><trkpt lat="46.555770625995144" lon="26.843851172956605"><ele>224.0</ele><time>2026-04-25T08:03:28.999Z</time></trkpt><trkpt lat="46.55583980960762" lon="26.843788539373218"><ele>224.0</ele><time>2026-04-25T08:03:29.999Z</time></trkpt><trkpt lat="46.555898753585346" lon="26.84373517611492"><ele>224.00000000000003</ele><time>2026-04-25T08:03:30.999Z</time></trkpt><trkpt lat="46.55595814163919" lon="26.843674500989792"><ele>224.0</ele><time>2026-04-25T08:03:31.999Z</time></trkpt><trkpt lat="46.55602000466804" lon="26.843585218804463"><ele>224.00000000000003</ele><time>2026-04-25T08:03:32.999Z</time></trkpt><trkpt lat="46.556103591966405" lon="26.843530015298096"><ele>224.0</ele><time>2026-04-25T08:03:33.999Z</time></trkpt><trkpt lat="46.556175405060955" lon="26.843460024589255"><ele>224.0</ele><time>2026-04-25T08:03:34.999Z</time></trkpt><trkpt lat="46.55624898586244" lon="26.843393024936454"><ele>224.0</ele><time>2026-04-25T08:03:35.999Z</time></trkpt><trkpt lat="46.55633052108286" lon="26.84333201501059"><ele>224.00000000000003</ele><time>2026-04-25T08:03:36.999Z</time></trkpt><trkpt lat="46.556406677071244" lon="26.84326924596466"><ele>224.0</ele><time>2026-04-25T08:03:37.999Z</time></trkpt><trkpt lat="46.55647611274366" lon="26.843186632989614"><ele>224.2</ele><time>2026-04-25T08:03:38.999Z</time></trkpt><trkpt lat="46.556564358693194" lon="26.84313946735293"><ele>224.39999999999998</ele><time>2026-04-25T08:03:39.999Z</time></trkpt><trkpt lat="46.55663892180781" lon="26.843076891133222"><ele>224.6</ele><time>2026-04-25T08:03:40.999Z</time></trkpt><trkpt lat="46.556721732350674" lon="26.84300632154363"><ele>224.8</ele><time>2026-04-25T08:03:41.999Z</time></trkpt><trkpt lat="46.556803521622655" lon="26.84293662224092"><ele>225.0</ele><time>2026-04-25T08:03:42.999Z</time></trkpt><trkpt lat="46.55687469895046" lon="26.842850090606255"><ele>225.0</ele><time>2026-04-25T08:03:43.999Z</time></trkpt><trkpt lat="46.55695831655167" lon="26.842811948094365"><ele>225.0</ele><time>2026-04-25T08:03:44.999Z</time></trkpt><trkpt lat="46.557016828748274" lon="26.842693719858314"><ele>225.0</ele><time>2026-04-25T08:03:45.999Z</time></trkpt><trkpt lat="46.55704752156745" lon="26.842569498967446"><ele>225.0</ele><time>2026-04-25T08:03:46.999Z</time></trkpt><trkpt lat="46.55700697635877" lon="26.842398533019505"><ele>225.0</ele><time>2026-04-25T08:03:47.999Z</time></trkpt><trkpt lat="46.55697171423086" lon="26.84224675188945"><ele>225.6</ele><time>2026-04-25T08:03:48.999Z</time></trkpt><trkpt lat="46.556936518670675" lon="26.842105168654594"><ele>226.2</ele><time>2026-04-25T08:03:49.999Z</time></trkpt><trkpt lat="46.55691379066822" lon="26.841980488395848"><ele>226.8</ele><time>2026-04-25T08:03:50.999Z</time></trkpt><trkpt lat="46.5568964433533" lon="26.841848598834737"><ele>227.4</ele><time>2026-04-25T08:03:51.999Z</time></trkpt><trkpt lat="46.556878329201226" lon="26.841713496014258"><ele>228.0</ele><time>2026-04-25T08:03:52.999Z</time></trkpt><trkpt lat="46.55688388690304" lon="26.841580357982682"><ele>229.60000000000002</ele><time>2026-04-25T08:03:53.999Z</time></trkpt><trkpt lat="46.556884841716105" lon="26.841438386996668"><ele>231.20000000000002</ele><time>2026-04-25T08:03:54.999Z</time></trkpt><trkpt lat="46.556903916659294" lon="26.841313204007424"><ele>232.8</ele><time>2026-04-25T08:03:55.999Z</time></trkpt><trkpt lat="46.556928574491295" lon="26.841176694286954"><ele>234.4</ele><time>2026-04-25T08:03:56.999Z</time></trkpt><trkpt lat="46.556954096745585" lon="26.84103539906034"><ele>236.0</ele><time>2026-04-25T08:03:57.999Z</time></trkpt><trkpt lat="46.556967415688504" lon="26.84089014262698"><ele>237.4</ele><time>2026-04-25T08:03:58.999Z</time></trkpt><trkpt lat="46.55699920843371" lon="26.8407508248649"><ele>238.8</ele><time>2026-04-25T08:03:59.999Z</time></trkpt><trkpt lat="46.55702628663041" lon="26.840609073692104"><ele>240.20000000000002</ele><time>2026-04-25T08:04:00.999Z</time></trkpt><trkpt lat="46.55705614523464" lon="26.840472971845582"><ele>241.60000000000002</ele><time>2026-04-25T08:04:01.999Z</time></trkpt><trkpt lat="46.55707949667057" lon="26.840344082048805"><ele>243.0</ele><time>2026-04-25T08:04:02.999Z</time></trkpt><trkpt lat="46.55710068623432" lon="26.840226425218052"><ele>245.16666666666666</ele><time>2026-04-25T08:04:03.999Z</time></trkpt><trkpt lat="46.55712027683341" lon="26.840117638156688"><ele>247.33333333333331</ele><time>2026-04-25T08:04:04.999Z</time></trkpt><trkpt lat="46.55715989925757" lon="26.840035130466493"><ele>249.5</ele><time>2026-04-25T08:04:05.999Z</time></trkpt><trkpt lat="46.557213502137074" lon="26.83997617006313"><ele>251.66666666666666</ele><time>2026-04-25T08:04:06.999Z</time></trkpt><trkpt lat="46.5572769696154" lon="26.839906748414123"><ele>253.83333333333331</ele><time>2026-04-25T08:04:07.999Z</time></trkpt><trkpt lat="46.557365278832634" lon="26.83989115745865"><ele>256.0</ele><time>2026-04-25T08:04:08.999Z</time></trkpt><trkpt lat="46.5574598263098" lon="26.83989768230253"><ele>256.0</ele><time>2026-04-25T08:04:09.999Z</time></trkpt><trkpt lat="46.55756093395992" lon="26.83992100774635"><ele>256.0</ele><time>2026-04-25T08:04:10.999Z</time></trkpt><trkpt lat="46.55766490203694" lon="26.839947405690452"><ele>256.0</ele><time>2026-04-25T08:04:11.999Z</time></trkpt><trkpt lat="46.55777489241341" lon="26.839980993166268"><ele>256.0</ele><time>2026-04-25T08:04:12.999Z</time></trkpt><trkpt lat="46.55788629126809" lon="26.840023258518205"><ele>256.0</ele><time>2026-04-25T08:04:13.999Z</time></trkpt><trkpt lat="46.55799209675638" lon="26.840062483395222"><ele>256.6</ele><time>2026-04-25T08:04:14.999Z</time></trkpt><trkpt lat="46.55809615346508" lon="26.840097465415337"><ele>257.20000000000005</ele><time>2026-04-25T08:04:15.999Z</time></trkpt><trkpt lat="46.558198320036375" lon="26.840121535551393"><ele>257.79999999999995</ele><time>2026-04-25T08:04:16.999Z</time></trkpt><trkpt lat="46.5582974039762" lon="26.840129791830012"><ele>258.4</ele><time>2026-04-25T08:04:17.999Z</time></trkpt><trkpt lat="46.5584029486304" lon="26.84011141949993"><ele>259.0</ele><time>2026-04-25T08:04:18.999Z</time></trkpt><trkpt lat="46.55851345383323" lon="26.840117309167677"><ele>259.0</ele><time>2026-04-25T08:04:19.999Z</time></trkpt><trkpt lat="46.558618731066446" lon="26.83998931791958"><ele>259.0</ele><time>2026-04-25T08:04:20.999Z</time></trkpt><trkpt lat="46.55873081513336" lon="26.839932728663477"><ele>259.0</ele><time>2026-04-25T08:04:21.999Z</time></trkpt><trkpt lat="46.55883353668549" lon="26.839861047427448"><ele>259.0</ele><time>2026-04-25T08:04:22.999Z</time></trkpt><trkpt lat="46.558924538424144" lon="26.839797674994166"><ele>259.2</ele><time>2026-04-25T08:04:23.999Z</time></trkpt><trkpt lat="46.559012672639476" lon="26.839737699603273"><ele>259.4</ele><time>2026-04-25T08:04:24.999Z</time></trkpt><trkpt lat="46.55910154434628" lon="26.83965442943549"><ele>259.6</ele><time>2026-04-25T08:04:25.999Z</time></trkpt><trkpt lat="46.55920237462201" lon="26.839590528096537"><ele>259.8</ele><time>2026-04-25T08:04:26.999Z</time></trkpt><trkpt lat="46.559310232680446" lon="26.839521741628747"><ele>260.0</ele><time>2026-04-25T08:04:27.999Z</time></trkpt><trkpt lat="46.55941398980274" lon="26.83945083564662"><ele>260.25</ele><time>2026-04-25T08:04:28.999Z</time></trkpt><trkpt lat="46.55953858731495" lon="26.8394048740808"><ele>260.5</ele><time>2026-04-25T08:04:29.999Z</time></trkpt><trkpt lat="46.55965801920873" lon="26.83934244160801"><ele>260.75</ele><time>2026-04-25T08:04:30.999Z</time></trkpt><trkpt lat="46.559773294644785" lon="26.839282621942836"><ele>261.0</ele><time>2026-04-25T08:04:31.999Z</time></trkpt><trkpt lat="46.55988325074285" lon="26.83923320451724"><ele>262.0</ele><time>2026-04-25T08:04:32.999Z</time></trkpt><trkpt lat="46.5599999282107" lon="26.83918467492951"><ele>263.0</ele><time>2026-04-25T08:04:33.999Z</time></trkpt><trkpt lat="46.560111431942246" lon="26.83913716713637"><ele>264.0</ele><time>2026-04-25T08:04:34.999Z</time></trkpt><trkpt lat="46.56021879274133" lon="26.83906805865835"><ele>265.0</ele><time>2026-04-25T08:04:35.999Z</time></trkpt><trkpt lat="46.560330209127066" lon="26.839021788640668"><ele>264.5</ele><time>2026-04-25T08:04:36.999Z</time></trkpt><trkpt lat="46.560443145778365" lon="26.838974583930746"><ele>264.0</ele><time>2026-04-25T08:04:37.999Z</time></trkpt><trkpt lat="46.56055955114139" lon="26.83892863617278"><ele>263.5</ele><time>2026-04-25T08:04:38.999Z</time></trkpt><trkpt lat="46.56067719718391" lon="26.838877225662273"><ele>263.0</ele><time>2026-04-25T08:04:39.999Z</time></trkpt><trkpt lat="46.56080006401788" lon="26.83884659429187"><ele>263.0</ele><time>2026-04-25T08:04:40.999Z</time></trkpt><trkpt lat="46.56091085359126" lon="26.838770095603998"><ele>263.0</ele><time>2026-04-25T08:04:41.999Z</time></trkpt><trkpt lat="46.5610267748531" lon="26.838722429802687"><ele>263.0</ele><time>2026-04-25T08:04:42.999Z</time></trkpt><trkpt lat="46.5611338377389" lon="26.8386772450997"><ele>263.0</ele><time>2026-04-25T08:04:44Z</time></trkpt><trkpt lat="46.56123248746168" lon="26.83862519723007"><ele>263.0</ele><time>2026-04-25T08:04:45Z</time></trkpt><trkpt lat="46.56133349808976" lon="26.83857185066231"><ele>263.0</ele><time>2026-04-25T08:04:46Z</time></trkpt><trkpt lat="46.56143381788139" lon="26.8385215944389"><ele>263.0</ele><time>2026-04-25T08:04:47Z</time></trkpt><trkpt lat="46.56154477475323" lon="26.83847058466832"><ele>263.0</ele><time>2026-04-25T08:04:48Z</time></trkpt><trkpt lat="46.56164913001135" lon="26.838413300257727"><ele>263.0</ele><time>2026-04-25T08:04:49Z</time></trkpt><trkpt lat="46.56176283121695" lon="26.83836142770655"><ele>263.0</ele><time>2026-04-25T08:04:50Z</time></trkpt><trkpt lat="46.56187738326028" lon="26.838307942647745"><ele>263.0</ele><time>2026-04-25T08:04:51Z</time></trkpt><trkpt lat="46.56198889632386" lon="26.83825579825537"><ele>263.0</ele><time>2026-04-25T08:04:52Z</time></trkpt><trkpt lat="46.56210006877379" lon="26.83819529225552"><ele>263.0</ele><time>2026-04-25T08:04:53Z</time></trkpt><trkpt lat="46.56220323437858" lon="26.838168276871286"><ele>262.1666666666667</ele><time>2026-04-25T08:04:54Z</time></trkpt><trkpt lat="46.56229197308744" lon="26.838125391720443"><ele>261.33333333333337</ele><time>2026-04-25T08:04:55Z</time></trkpt><trkpt lat="46.56237060731095" lon="26.838087393556957"><ele>260.5</ele><time>2026-04-25T08:04:56Z</time></trkpt><trkpt lat="46.562440308451585" lon="26.83802894647955"><ele>259.6666666666667</ele><time>2026-04-25T08:04:57Z</time></trkpt><trkpt lat="46.56251766193969" lon="26.838001942142427"><ele>258.8333333333333</ele><time>2026-04-25T08:04:58Z</time></trkpt><trkpt lat="46.56258732054254" lon="26.837973007975624"><ele>258.0</ele><time>2026-04-25T08:04:59Z</time></trkpt><trkpt lat="46.56265519509865" lon="26.837936252577105"><ele>258.0</ele><time>2026-04-25T08:05:00Z</time></trkpt><trkpt lat="46.56272967651693" lon="26.837923435011476"><ele>258.0</ele><time>2026-04-25T08:05:01Z</time></trkpt><trkpt lat="46.56279716391498" lon="26.837894491292204"><ele>258.0</ele><time>2026-04-25T08:05:02Z</time></trkpt><trkpt lat="46.56287453956865" lon="26.837861306725973"><ele>258.0</ele><time>2026-04-25T08:05:03Z</time></trkpt><trkpt lat="46.56295626726879" lon="26.837826255658868"><ele>258.0</ele><time>2026-04-25T08:05:04Z</time></trkpt><trkpt lat="46.56304129426098" lon="26.83779097815774"><ele>258.0</ele><time>2026-04-25T08:05:05Z</time></trkpt><trkpt lat="46.56312850860956" lon="26.837755841977"><ele>258.0</ele><time>2026-04-25T08:05:06Z</time></trkpt><trkpt lat="46.563216205338975" lon="26.837720511452872"><ele>258.0</ele><time>2026-04-25T08:05:07Z</time></trkpt><trkpt lat="46.56329969934507" lon="26.83768687405573"><ele>258.0</ele><time>2026-04-25T08:05:08Z</time></trkpt><trkpt lat="46.5633728495215" lon="26.837657403930866"><ele>258.0</ele><time>2026-04-25T08:05:09Z</time></trkpt><trkpt lat="46.5634469727712" lon="26.837627541748894"><ele>258.0</ele><time>2026-04-25T08:05:10Z</time></trkpt><trkpt lat="46.563516347369685" lon="26.83759959268943"><ele>258.0</ele><time>2026-04-25T08:05:11Z</time></trkpt><trkpt lat="46.56359342721034" lon="26.837568539405137"><ele>258.0</ele><time>2026-04-25T08:05:12Z</time></trkpt><trkpt lat="46.563678972862846" lon="26.837528683165207"><ele>258.0</ele><time>2026-04-25T08:05:13Z</time></trkpt><trkpt lat="46.563766384644914" lon="26.837487087309864"><ele>258.0</ele><time>2026-04-25T08:05:14Z</time></trkpt><trkpt lat="46.56385815841724" lon="26.837443239273682"><ele>258.0</ele><time>2026-04-25T08:05:15Z</time></trkpt><trkpt lat="46.56395823630285" lon="26.837395565468434"><ele>258.0</ele><time>2026-04-25T08:05:16Z</time></trkpt><trkpt lat="46.56405702563171" lon="26.837348505490677"><ele>257.6</ele><time>2026-04-25T08:05:17Z</time></trkpt><trkpt lat="46.564159106601224" lon="26.83729987747833"><ele>257.20000000000005</ele><time>2026-04-25T08:05:18Z</time></trkpt><trkpt lat="46.564259459149774" lon="26.837251979422508"><ele>256.8</ele><time>2026-04-25T08:05:19Z</time></trkpt><trkpt lat="46.5643588618242" lon="26.837199895012255"><ele>256.40000000000003</ele><time>2026-04-25T08:05:20Z</time></trkpt><trkpt lat="46.564452941047854" lon="26.837129241486576"><ele>256.0</ele><time>2026-04-25T08:05:21Z</time></trkpt><trkpt lat="46.56455289009647" lon="26.837081029627434"><ele>256.0</ele><time>2026-04-25T08:05:22Z</time></trkpt><trkpt lat="46.56465371518515" lon="26.836998535515654"><ele>256.0</ele><time>2026-04-25T08:05:23Z</time></trkpt><trkpt lat="46.56476026917184" lon="26.836919005271668"><ele>256.0</ele><time>2026-04-25T08:05:24Z</time></trkpt><trkpt lat="46.564849108491" lon="26.836815564778846"><ele>256.0</ele><time>2026-04-25T08:05:25Z</time></trkpt><trkpt lat="46.56492708553793" lon="26.836701305219577"><ele>256.0</ele><time>2026-04-25T08:05:26Z</time></trkpt><trkpt lat="46.565012510128305" lon="26.83657613271683"><ele>256.0</ele><time>2026-04-25T08:05:27Z</time></trkpt><trkpt lat="46.56510385737094" lon="26.836440433748812"><ele>256.0</ele><time>2026-04-25T08:05:28Z</time></trkpt><trkpt lat="46.565193740628764" lon="26.836305816685282"><ele>256.0</ele><time>2026-04-25T08:05:29Z</time></trkpt><trkpt lat="46.565275874457555" lon="26.836182927578953"><ele>256.0</ele><time>2026-04-25T08:05:30Z</time></trkpt><trkpt lat="46.56535367061099" lon="26.83606506172046"><ele>256.0</ele><time>2026-04-25T08:05:31Z</time></trkpt><trkpt lat="46.565424827263115" lon="26.835945436382932"><ele>256.0</ele><time>2026-04-25T08:05:32Z</time></trkpt><trkpt lat="46.56549172584747" lon="26.835831353290633"><ele>256.0</ele><time>2026-04-25T08:05:33Z</time></trkpt><trkpt lat="46.56556291967371" lon="26.835710773521647"><ele>256.0</ele><time>2026-04-25T08:05:34Z</time></trkpt><trkpt lat="46.56563522275257" lon="26.83558954620198"><ele>256.75</ele><time>2026-04-25T08:05:35Z</time></trkpt><trkpt lat="46.565708984391044" lon="26.83546587308491"><ele>257.5</ele><time>2026-04-25T08:05:36Z</time></trkpt><trkpt lat="46.56578250301288" lon="26.83534260776194"><ele>258.25</ele><time>2026-04-25T08:05:37Z</time></trkpt><trkpt lat="46.565858709748845" lon="26.83521975787948"><ele>259.0</ele><time>2026-04-25T08:05:38Z</time></trkpt><trkpt lat="46.5659371210243" lon="26.83509337677585"><ele>260.0</ele><time>2026-04-25T08:05:39Z</time></trkpt><trkpt lat="46.566019650081024" lon="26.834959732049374"><ele>261.0</ele><time>2026-04-25T08:05:40Z</time></trkpt><trkpt lat="46.56610821798248" lon="26.834837196101525"><ele>262.0</ele><time>2026-04-25T08:05:41Z</time></trkpt><trkpt lat="46.56620727448941" lon="26.834715688562845"><ele>263.0</ele><time>2026-04-25T08:05:42Z</time></trkpt><trkpt lat="46.56630587968003" lon="26.83459410866211"><ele>263.25</ele><time>2026-04-25T08:05:43Z</time></trkpt><trkpt lat="46.56640837913465" lon="26.834467727064652"><ele>263.5</ele><time>2026-04-25T08:05:44Z</time></trkpt><trkpt lat="46.56650883497565" lon="26.834345111458017"><ele>263.75</ele><time>2026-04-25T08:05:45Z</time></trkpt><trkpt lat="46.56660894949458" lon="26.834222504881435"><ele>264.0</ele><time>2026-04-25T08:05:46Z</time></trkpt><trkpt lat="46.56671044479248" lon="26.83411100692251"><ele>265.0</ele><time>2026-04-25T08:05:47Z</time></trkpt><trkpt lat="46.56681758789131" lon="26.834001417815927"><ele>266.0</ele><time>2026-04-25T08:05:48Z</time></trkpt><trkpt lat="46.566931664905134" lon="26.83389486900871"><ele>267.0</ele><time>2026-04-25T08:05:49Z</time></trkpt><trkpt lat="46.56704734859095" lon="26.833786819666997"><ele>268.0</ele><time>2026-04-25T08:05:50Z</time></trkpt><trkpt lat="46.56716260716426" lon="26.833679167172246"><ele>268.0</ele><time>2026-04-25T08:05:51Z</time></trkpt><trkpt lat="46.567278140950684" lon="26.833571257714265"><ele>268.0</ele><time>2026-04-25T08:05:52Z</time></trkpt><trkpt lat="46.56739160098504" lon="26.833465285168344"><ele>268.0</ele><time>2026-04-25T08:05:53Z</time></trkpt><trkpt lat="46.56750008965114" lon="26.833356466428455"><ele>268.0</ele><time>2026-04-25T08:05:54Z</time></trkpt><trkpt lat="46.56760783448923" lon="26.833247923313415"><ele>269.0</ele><time>2026-04-25T08:05:55Z</time></trkpt><trkpt lat="46.56771364255117" lon="26.833139119833387"><ele>270.0</ele><time>2026-04-25T08:05:56Z</time></trkpt><trkpt lat="46.5678125132049" lon="26.833027419118384"><ele>271.0</ele><time>2026-04-25T08:05:57Z</time></trkpt><trkpt lat="46.56791356446429" lon="26.832913352511355"><ele>272.0</ele><time>2026-04-25T08:05:58Z</time></trkpt><trkpt lat="46.56801709818105" lon="26.832797026641"><ele>272.0</ele><time>2026-04-25T08:05:59Z</time></trkpt><trkpt lat="46.56812002784002" lon="26.832672855835792"><ele>272.0</ele><time>2026-04-25T08:06:00Z</time></trkpt><trkpt lat="46.5682228989455" lon="26.832547818264946"><ele>272.0</ele><time>2026-04-25T08:06:01Z</time></trkpt><trkpt lat="46.56831941167555" lon="26.83243050923723"><ele>272.0</ele><time>2026-04-25T08:06:02Z</time></trkpt><trkpt lat="46.56840579484232" lon="26.832325114555683"><ele>273.0</ele><time>2026-04-25T08:06:03Z</time></trkpt><trkpt lat="46.56849572780617" lon="26.83222467014455"><ele>274.0</ele><time>2026-04-25T08:06:03.999Z</time></trkpt><trkpt lat="46.56858819820108" lon="26.832122179085346"><ele>275.0</ele><time>2026-04-25T08:06:04.999Z</time></trkpt><trkpt lat="46.56868514379103" lon="26.8320155001041"><ele>276.0</ele><time>2026-04-25T08:06:05.999Z</time></trkpt><trkpt lat="46.56877790387783" lon="26.831913426619856"><ele>276.0</ele><time>2026-04-25T08:06:06.999Z</time></trkpt><trkpt lat="46.5688543483856" lon="26.831829307115104"><ele>276.0</ele><time>2026-04-25T08:06:07.999Z</time></trkpt><trkpt lat="46.56893271091296" lon="26.83174307839002"><ele>276.0</ele><time>2026-04-25T08:06:08.999Z</time></trkpt><trkpt lat="46.569025073091154" lon="26.83167180277449"><ele>276.0</ele><time>2026-04-25T08:06:09.999Z</time></trkpt><trkpt lat="46.569119024567776" lon="26.831578921342174"><ele>276.0</ele><time>2026-04-25T08:06:10.999Z</time></trkpt><trkpt lat="46.569201314265925" lon="26.831485203931244"><ele>276.8</ele><time>2026-04-25T08:06:11.999Z</time></trkpt><trkpt lat="46.569284248776576" lon="26.831378928243005"><ele>277.6</ele><time>2026-04-25T08:06:12.999Z</time></trkpt><trkpt lat="46.569359766395095" lon="26.831258652148634"><ele>278.4</ele><time>2026-04-25T08:06:13.999Z</time></trkpt><trkpt lat="46.5694219839602" lon="26.831148056207926"><ele>279.2</ele><time>2026-04-25T08:06:14.999Z</time></trkpt><trkpt lat="46.569476841164196" lon="26.83104700001564"><ele>280.0</ele><time>2026-04-25T08:06:15.999Z</time></trkpt><trkpt lat="46.56953537992661" lon="26.83093916176107"><ele>280.0</ele><time>2026-04-25T08:06:16.999Z</time></trkpt><trkpt lat="46.56959506963875" lon="26.83082920321746"><ele>280.0</ele><time>2026-04-25T08:06:17.999Z</time></trkpt><trkpt lat="46.56966061507753" lon="26.830708452806373"><ele>280.0</ele><time>2026-04-25T08:06:18.999Z</time></trkpt><trkpt lat="46.569721104453556" lon="26.83059696284852"><ele>280.0</ele><time>2026-04-25T08:06:19.999Z</time></trkpt><trkpt lat="46.56977492536314" lon="26.83049776417045"><ele>280.0</ele><time>2026-04-25T08:06:20.999Z</time></trkpt><trkpt lat="46.56982236770049" lon="26.83041032163646"><ele>280.0</ele><time>2026-04-25T08:06:21.999Z</time></trkpt><trkpt lat="46.569865712766145" lon="26.830330431089255"><ele>280.0</ele><time>2026-04-25T08:06:22.999Z</time></trkpt><trkpt lat="46.569910902084516" lon="26.830247140130187"><ele>280.0</ele><time>2026-04-25T08:06:23.999Z</time></trkpt><trkpt lat="46.56996399869637" lon="26.830192436554118"><ele>280.0</ele><time>2026-04-25T08:06:24.999Z</time></trkpt><trkpt lat="46.57001434384555" lon="26.830127622100896"><ele>280.0</ele><time>2026-04-25T08:06:25.999Z</time></trkpt><trkpt lat="46.57006895657704" lon="26.830058100117853"><ele>280.0</ele><time>2026-04-25T08:06:26.999Z</time></trkpt><trkpt lat="46.5701251594701" lon="26.82999768489624"><ele>280.0</ele><time>2026-04-25T08:06:27.999Z</time></trkpt><trkpt lat="46.570180959179055" lon="26.82993863225828"><ele>280.0</ele><time>2026-04-25T08:06:28.999Z</time></trkpt><trkpt lat="46.57023243060647" lon="26.829884332431096"><ele>280.0</ele><time>2026-04-25T08:06:29.999Z</time></trkpt><trkpt lat="46.57028526636458" lon="26.829828604982463"><ele>280.0</ele><time>2026-04-25T08:06:30.999Z</time></trkpt><trkpt lat="46.570400422495666" lon="26.829738289261908"><ele>280.0</ele><time>2026-04-25T08:06:32.999Z</time></trkpt><trkpt lat="46.57046023210876" lon="26.829691178495207"><ele>280.0</ele><time>2026-04-25T08:06:33.999Z</time></trkpt><trkpt lat="46.57052616678659" lon="26.82963941188349"><ele>280.0</ele><time>2026-04-25T08:06:34.999Z</time></trkpt><trkpt lat="46.57050778527747" lon="26.82931206331832"><ele>277.0</ele><time>2026-04-25T08:06:35.999Z</time></trkpt><trkpt lat="46.57049397120288" lon="26.82918381265344"><ele>274.0</ele><time>2026-04-25T08:06:36.999Z</time></trkpt><trkpt lat="46.57049051885953" lon="26.829039181971332"><ele>271.0</ele><time>2026-04-25T08:06:37.999Z</time></trkpt><trkpt lat="46.57048610491135" lon="26.828895637639828"><ele>268.0</ele><time>2026-04-25T08:06:38.999Z</time></trkpt><trkpt lat="46.57048234378763" lon="26.82876781380747"><ele>265.0</ele><time>2026-04-25T08:06:39.999Z</time></trkpt><trkpt lat="46.57047894041669" lon="26.828650627444002"><ele>265.0</ele><time>2026-04-25T08:06:40.999Z</time></trkpt><trkpt lat="46.57047520199524" lon="26.828526074485893"><ele>265.0</ele><time>2026-04-25T08:06:41.999Z</time></trkpt><trkpt lat="46.570470892724394" lon="26.82838392685574"><ele>265.0</ele><time>2026-04-25T08:06:42.999Z</time></trkpt><trkpt lat="46.57046994434508" lon="26.828266482718234"><ele>265.0</ele><time>2026-04-25T08:06:43.999Z</time></trkpt><trkpt lat="46.570473916911645" lon="26.82813160164577"><ele>265.0</ele><time>2026-04-25T08:06:44.999Z</time></trkpt><trkpt lat="46.57047783029215" lon="26.827993016057505"><ele>264.66666666666663</ele><time>2026-04-25T08:06:45.999Z</time></trkpt><trkpt lat="46.57048156598022" lon="26.827858562473967"><ele>264.3333333333333</ele><time>2026-04-25T08:06:46.999Z</time></trkpt><trkpt lat="46.57048503929518" lon="26.827733552037845"><ele>264.0</ele><time>2026-04-25T08:06:47.999Z</time></trkpt><trkpt lat="46.57048948750097" lon="26.82761476719258"><ele>263.6666666666667</ele><time>2026-04-25T08:06:48.999Z</time></trkpt><trkpt lat="46.57049617327249" lon="26.827477773438236"><ele>263.33333333333337</ele><time>2026-04-25T08:06:50Z</time></trkpt><trkpt lat="46.57050229076602" lon="26.827346317086064"><ele>263.0</ele><time>2026-04-25T08:06:51Z</time></trkpt><trkpt lat="46.57050832682855" lon="26.82721661029289"><ele>263.0</ele><time>2026-04-25T08:06:52Z</time></trkpt><trkpt lat="46.5705047094151" lon="26.827074015032217"><ele>263.0</ele><time>2026-04-25T08:06:53Z</time></trkpt><trkpt lat="46.57049791480238" lon="26.826946615741367"><ele>263.0</ele><time>2026-04-25T08:06:54Z</time></trkpt><trkpt lat="46.57048969584574" lon="26.826807956315633"><ele>263.0</ele><time>2026-04-25T08:06:55Z</time></trkpt><trkpt lat="46.57048030948692" lon="26.82668423300492"><ele>263.0</ele><time>2026-04-25T08:06:56Z</time></trkpt><trkpt lat="46.57047203828904" lon="26.826576425703863"><ele>263.0</ele><time>2026-04-25T08:06:57Z</time></trkpt><trkpt lat="46.570464204105576" lon="26.826474314139382"><ele>263.0</ele><time>2026-04-25T08:06:58Z</time></trkpt><trkpt lat="46.57046065830861" lon="26.826371087986754"><ele>263.0</ele><time>2026-04-25T08:06:59Z</time></trkpt><trkpt lat="46.570458501656745" lon="26.826274882368846"><ele>263.0</ele><time>2026-04-25T08:07:00Z</time></trkpt><trkpt lat="46.57045639406726" lon="26.82618086500236"><ele>263.0</ele><time>2026-04-25T08:07:01Z</time></trkpt><trkpt lat="46.57047844824098" lon="26.826009382252238"><ele>263.0</ele><time>2026-04-25T08:07:03Z</time></trkpt><trkpt lat="46.57051459624248" lon="26.825924130588028"><ele>263.0</ele><time>2026-04-25T08:07:04Z</time></trkpt><trkpt lat="46.570557682516274" lon="26.82584001415672"><ele>263.33333333333337</ele><time>2026-04-25T08:07:05Z</time></trkpt><trkpt lat="46.57060279461688" lon="26.825760075306885"><ele>263.6666666666667</ele><time>2026-04-25T08:07:06Z</time></trkpt><trkpt lat="46.57065131924736" lon="26.82567908038521"><ele>264.0</ele><time>2026-04-25T08:07:07Z</time></trkpt><trkpt lat="46.57070905833464" lon="26.825599798856555"><ele>264.3333333333333</ele><time>2026-04-25T08:07:08Z</time></trkpt><trkpt lat="46.5707768377236" lon="26.82551613427588"><ele>264.66666666666663</ele><time>2026-04-25T08:07:09Z</time></trkpt><trkpt lat="46.57083516470046" lon="26.82543631892171"><ele>265.0</ele><time>2026-04-25T08:07:10Z</time></trkpt><trkpt lat="46.57088581776557" lon="26.825360451880584"><ele>265.0</ele><time>2026-04-25T08:07:11Z</time></trkpt><trkpt lat="46.570942369026085" lon="26.82527130972162"><ele>265.0</ele><time>2026-04-25T08:07:12Z</time></trkpt><trkpt lat="46.57098630197145" lon="26.825190473786957"><ele>265.0</ele><time>2026-04-25T08:07:13Z</time></trkpt><trkpt lat="46.57105152473839" lon="26.8250703231243"><ele>265.0</ele><time>2026-04-25T08:07:15Z</time></trkpt><trkpt lat="46.571140668105805" lon="26.824946117914106"><ele>265.0</ele><time>2026-04-25T08:07:17Z</time></trkpt><trkpt lat="46.57121739824564" lon="26.824825111036834"><ele>263.8333333333333</ele><time>2026-04-25T08:07:19Z</time></trkpt><trkpt lat="46.571288332463055" lon="26.824708568055318"><ele>262.66666666666663</ele><time>2026-04-25T08:07:21Z</time></trkpt><trkpt lat="46.57134362564888" lon="26.82465720798895"><ele>261.5</ele><time>2026-04-25T08:07:22Z</time></trkpt><trkpt lat="46.5714104585023" lon="26.824618148102598"><ele>260.3333333333333</ele><time>2026-04-25T08:07:23Z</time></trkpt><trkpt lat="46.57149499712086" lon="26.824573039431513"><ele>259.1666666666667</ele><time>2026-04-25T08:07:24Z</time></trkpt><trkpt lat="46.571577607464086" lon="26.82452895996697"><ele>258.0</ele><time>2026-04-25T08:07:25Z</time></trkpt><trkpt lat="46.571657919179614" lon="26.824486106958382"><ele>258.0</ele><time>2026-04-25T08:07:26Z</time></trkpt><trkpt lat="46.57173730423092" lon="26.824443533340936"><ele>258.0</ele><time>2026-04-25T08:07:27Z</time></trkpt><trkpt lat="46.571821427526785" lon="26.824398312318973"><ele>258.0</ele><time>2026-04-25T08:07:28Z</time></trkpt><trkpt lat="46.571909484456086" lon="26.82435097681171"><ele>258.0</ele><time>2026-04-25T08:07:29Z</time></trkpt><trkpt lat="46.57199288588525" lon="26.824306143953372"><ele>258.0</ele><time>2026-04-25T08:07:30Z</time></trkpt><trkpt lat="46.57207733815466" lon="26.824257203659155"><ele>258.0</ele><time>2026-04-25T08:07:31Z</time></trkpt><trkpt lat="46.572154356487886" lon="26.824208410189286"><ele>257.8333333333333</ele><time>2026-04-25T08:07:32Z</time></trkpt><trkpt lat="46.57223729283216" lon="26.82414306165122"><ele>257.6666666666667</ele><time>2026-04-25T08:07:33Z</time></trkpt><trkpt lat="46.57231689825365" lon="26.8240524762091"><ele>257.5</ele><time>2026-04-25T08:07:34Z</time></trkpt><trkpt lat="46.57238252604187" lon="26.82398419216703"><ele>257.33333333333337</ele><time>2026-04-25T08:07:35Z</time></trkpt><trkpt lat="46.57244857846086" lon="26.823939548962343"><ele>257.1666666666667</ele><time>2026-04-25T08:07:36Z</time></trkpt><trkpt lat="46.57251707003445" lon="26.8238909544213"><ele>257.0</ele><time>2026-04-25T08:07:37Z</time></trkpt><trkpt lat="46.57259663939233" lon="26.823841403141284"><ele>257.0</ele><time>2026-04-25T08:07:38Z</time></trkpt><trkpt lat="46.57266942803806" lon="26.823794083390084"><ele>257.0</ele><time>2026-04-25T08:07:39Z</time></trkpt><trkpt lat="46.57273685086253" lon="26.823750252036138"><ele>257.0</ele><time>2026-04-25T08:07:40Z</time></trkpt><trkpt lat="46.57279657684529" lon="26.82371142417269"><ele>257.0</ele><time>2026-04-25T08:07:41Z</time></trkpt><trkpt lat="46.572864538049274" lon="26.82366724276178"><ele>257.0</ele><time>2026-04-25T08:07:42Z</time></trkpt><trkpt lat="46.572928677090104" lon="26.82362554610184"><ele>257.0</ele><time>2026-04-25T08:07:43Z</time></trkpt><trkpt lat="46.57298883454445" lon="26.823586437873423"><ele>257.0</ele><time>2026-04-25T08:07:44Z</time></trkpt><trkpt lat="46.57305700603394" lon="26.8235481384496"><ele>256.0</ele><time>2026-04-25T08:07:45Z</time></trkpt><trkpt lat="46.57313691432282" lon="26.823502931159577"><ele>255.0</ele><time>2026-04-25T08:07:46Z</time></trkpt><trkpt lat="46.57322362503167" lon="26.823438608684334"><ele>254.0</ele><time>2026-04-25T08:07:47Z</time></trkpt><trkpt lat="46.57330480356139" lon="26.823373066684674"><ele>253.0</ele><time>2026-04-25T08:07:48Z</time></trkpt><trkpt lat="46.573392360707665" lon="26.823302374625786"><ele>252.0</ele><time>2026-04-25T08:07:49Z</time></trkpt><trkpt lat="46.57347854426586" lon="26.82323207680622"><ele>252.0</ele><time>2026-04-25T08:07:50Z</time></trkpt><trkpt lat="46.57355324742785" lon="26.82316341740084"><ele>252.0</ele><time>2026-04-25T08:07:51Z</time></trkpt><trkpt lat="46.573626433598896" lon="26.823095782718777"><ele>252.0</ele><time>2026-04-25T08:07:52Z</time></trkpt><trkpt lat="46.57369760864898" lon="26.823030006598383"><ele>252.0</ele><time>2026-04-25T08:07:53Z</time></trkpt><trkpt lat="46.573775855176756" lon="26.822936420987137"><ele>252.0</ele><time>2026-04-25T08:07:54Z</time></trkpt><trkpt lat="46.57384818992004" lon="26.822847460126457"><ele>249.8</ele><time>2026-04-25T08:07:55Z</time></trkpt><trkpt lat="46.57391760417017" lon="26.822752349107866"><ele>247.6</ele><time>2026-04-25T08:07:56Z</time></trkpt><trkpt lat="46.5739528052484" lon="26.82257337490896"><ele>245.40000000000003</ele><time>2026-04-25T08:07:57Z</time></trkpt><trkpt lat="46.57397723266836" lon="26.82246341233442"><ele>243.20000000000002</ele><time>2026-04-25T08:07:58Z</time></trkpt><trkpt lat="46.57397772343919" lon="26.82231702537915"><ele>241.0</ele><time>2026-04-25T08:07:59Z</time></trkpt><trkpt lat="46.57398005226046" lon="26.82218386024246"><ele>240.99999999999997</ele><time>2026-04-25T08:08:00Z</time></trkpt><trkpt lat="46.57398047034602" lon="26.822047377676505"><ele>241.0</ele><time>2026-04-25T08:08:01Z</time></trkpt><trkpt lat="46.57398064166254" lon="26.821922849289034"><ele>241.0</ele><time>2026-04-25T08:08:02Z</time></trkpt><trkpt lat="46.5739806416631" lon="26.821808482125086"><ele>241.0</ele><time>2026-04-25T08:08:03Z</time></trkpt><trkpt lat="46.57397984336934" lon="26.82168109284983"><ele>240.99999999999997</ele><time>2026-04-25T08:08:04Z</time></trkpt><trkpt lat="46.573979741666335" lon="26.821552672093333"><ele>241.0</ele><time>2026-04-25T08:08:05Z</time></trkpt><trkpt lat="46.57397974166723" lon="26.821421735794452"><ele>241.16666666666666</ele><time>2026-04-25T08:08:06Z</time></trkpt><trkpt lat="46.57399665542641" lon="26.821299087571855"><ele>241.33333333333331</ele><time>2026-04-25T08:08:07Z</time></trkpt><trkpt lat="46.57401846063056" lon="26.821177354158582"><ele>241.5</ele><time>2026-04-25T08:08:08Z</time></trkpt><trkpt lat="46.5740486937463" lon="26.821043644502478"><ele>241.66666666666669</ele><time>2026-04-25T08:08:09Z</time></trkpt><trkpt lat="46.57409095849465" lon="26.820926004620688"><ele>241.83333333333334</ele><time>2026-04-25T08:08:10Z</time></trkpt><trkpt lat="46.57412896487144" lon="26.820809174490282"><ele>242.0</ele><time>2026-04-25T08:08:11Z</time></trkpt><trkpt lat="46.574169644477806" lon="26.820696483268634"><ele>242.2</ele><time>2026-04-25T08:08:12Z</time></trkpt><trkpt lat="46.57422117796185" lon="26.82058158962187"><ele>242.39999999999998</ele><time>2026-04-25T08:08:13Z</time></trkpt><trkpt lat="46.57427656893529" lon="26.820462060388206"><ele>242.60000000000002</ele><time>2026-04-25T08:08:14Z</time></trkpt><trkpt lat="46.57433397999715" lon="26.820348250100643"><ele>242.8</ele><time>2026-04-25T08:08:15Z</time></trkpt><trkpt lat="46.5743908982471" lon="26.820234413805757"><ele>243.0</ele><time>2026-04-25T08:08:16Z</time></trkpt><trkpt lat="46.574441206212406" lon="26.82012251437401"><ele>243.4</ele><time>2026-04-25T08:08:17Z</time></trkpt><trkpt lat="46.574486340938314" lon="26.820014135140354"><ele>243.8</ele><time>2026-04-25T08:08:18Z</time></trkpt><trkpt lat="46.57453574625459" lon="26.819894565386974"><ele>244.2</ele><time>2026-04-25T08:08:19Z</time></trkpt><trkpt lat="46.574584243143086" lon="26.819773906153355"><ele>244.6</ele><time>2026-04-25T08:08:20Z</time></trkpt><trkpt lat="46.57463592467175" lon="26.819645636721276"><ele>245.0</ele><time>2026-04-25T08:08:20.999Z</time></trkpt><trkpt lat="46.574688881243986" lon="26.819513619770902"><ele>244.50000000000003</ele><time>2026-04-25T08:08:21.999Z</time></trkpt><trkpt lat="46.57473540452976" lon="26.819398471508656"><ele>244.0</ele><time>2026-04-25T08:08:22.999Z</time></trkpt><trkpt lat="46.57477895420737" lon="26.819290262999008"><ele>243.5</ele><time>2026-04-25T08:08:23.999Z</time></trkpt><trkpt lat="46.574823057960934" lon="26.8191798656755"><ele>243.0</ele><time>2026-04-25T08:08:24.999Z</time></trkpt><trkpt lat="46.574867299430885" lon="26.81906955406673"><ele>242.50000000000003</ele><time>2026-04-25T08:08:25.999Z</time></trkpt><trkpt lat="46.574903030387986" lon="26.818980757437018"><ele>242.0</ele><time>2026-04-25T08:08:26.999Z</time></trkpt><trkpt lat="46.574938442164694" lon="26.81889275341594"><ele>242.0</ele><time>2026-04-25T08:08:27.999Z</time></trkpt><trkpt lat="46.574976348062265" lon="26.818808265550473"><ele>242.0</ele><time>2026-04-25T08:08:28.999Z</time></trkpt><trkpt lat="46.575018475572485" lon="26.818715070321076"><ele>242.0</ele><time>2026-04-25T08:08:29.999Z</time></trkpt><trkpt lat="46.57513409192547" lon="26.818583417920088"><ele>242.0</ele><time>2026-04-25T08:08:31.999Z</time></trkpt><trkpt lat="46.575217117960406" lon="26.8185079567537"><ele>242.0</ele><time>2026-04-25T08:08:32.999Z</time></trkpt><trkpt lat="46.57530369281637" lon="26.818441732070784"><ele>242.33333333333334</ele><time>2026-04-25T08:08:33.999Z</time></trkpt><trkpt lat="46.575395251462595" lon="26.81838049438092"><ele>242.66666666666669</ele><time>2026-04-25T08:08:34.999Z</time></trkpt><trkpt lat="46.57547176293188" lon="26.81833495425629"><ele>243.0</ele><time>2026-04-25T08:08:35.999Z</time></trkpt><trkpt lat="46.57555427696197" lon="26.81829764312167"><ele>243.33333333333331</ele><time>2026-04-25T08:08:36.999Z</time></trkpt><trkpt lat="46.57563036608212" lon="26.81826323704636"><ele>243.66666666666666</ele><time>2026-04-25T08:08:37.999Z</time></trkpt><trkpt lat="46.57570891892086" lon="26.81822771699278"><ele>244.0</ele><time>2026-04-25T08:08:38.999Z</time></trkpt><trkpt lat="46.57577623939437" lon="26.818190868494458"><ele>243.99999999999997</ele><time>2026-04-25T08:08:39.999Z</time></trkpt><trkpt lat="46.575897338413576" lon="26.81812387113156"><ele>244.0</ele><time>2026-04-25T08:08:41.999Z</time></trkpt><trkpt lat="46.57596885640915" lon="26.818085824386532"><ele>244.0</ele><time>2026-04-25T08:08:42.999Z</time></trkpt><trkpt lat="46.57604360107657" lon="26.81804618221128"><ele>244.0</ele><time>2026-04-25T08:08:43.999Z</time></trkpt><trkpt lat="46.57611888798331" lon="26.818006381798842"><ele>243.99999999999997</ele><time>2026-04-25T08:08:44.999Z</time></trkpt><trkpt lat="46.57618858766892" lon="26.817969534432546"><ele>244.0</ele><time>2026-04-25T08:08:45.999Z</time></trkpt><trkpt lat="46.57625190668686" lon="26.817948615362365"><ele>246.0</ele><time>2026-04-25T08:08:46.999Z</time></trkpt><trkpt lat="46.57634028875208" lon="26.817915251533766"><ele>247.99999999999997</ele><time>2026-04-25T08:08:48.999Z</time></trkpt><trkpt lat="46.57643021947434" lon="26.81776218756275"><ele>249.99999999999997</ele><time>2026-04-25T08:08:50.999Z</time></trkpt><trkpt lat="46.57645485820646" lon="26.817632796854312"><ele>252.0</ele><time>2026-04-25T08:08:52.999Z</time></trkpt><trkpt lat="46.57648302959283" lon="26.817504065805068"><ele>254.0</ele><time>2026-04-25T08:08:54.999Z</time></trkpt><trkpt lat="46.57651538727949" lon="26.81737221452283"><ele>254.0</ele><time>2026-04-25T08:08:57Z</time></trkpt><trkpt lat="46.57655872416614" lon="26.81724247631482"><ele>253.99999999999997</ele><time>2026-04-25T08:08:59Z</time></trkpt><trkpt lat="46.57661528759" lon="26.81710750288941"><ele>253.99999999999997</ele><time>2026-04-25T08:09:01Z</time></trkpt><trkpt lat="46.57667952298323" lon="26.816980681750493"><ele>254.0</ele><time>2026-04-25T08:09:03Z</time></trkpt><trkpt lat="46.57673508686834" lon="26.81688430962067"><ele>254.0</ele><time>2026-04-25T08:09:05Z</time></trkpt><trkpt lat="46.57679926830285" lon="26.816773692606525"><ele>253.66666666666669</ele><time>2026-04-25T08:09:07Z</time></trkpt><trkpt lat="46.57685729384083" lon="26.81667521446482"><ele>253.33333333333334</ele><time>2026-04-25T08:09:09Z</time></trkpt><trkpt lat="46.57690519852653" lon="26.81656019199376"><ele>253.0</ele><time>2026-04-25T08:09:11Z</time></trkpt><trkpt lat="46.576940611761515" lon="26.81642737735759"><ele>252.66666666666669</ele><time>2026-04-25T08:09:13Z</time></trkpt><trkpt lat="46.576954930786144" lon="26.816335548805803"><ele>252.33333333333334</ele><time>2026-04-25T08:09:15Z</time></trkpt><trkpt lat="46.57693671149326" lon="26.816452390252305"><ele>252.0</ele><time>2026-04-25T08:10:57.999Z</time></trkpt><trkpt lat="46.576922544066875" lon="26.816556484320138"><ele>252.0</ele><time>2026-04-25T08:11:02Z</time></trkpt><trkpt lat="46.57687526313161" lon="26.81663034091925"><ele>252.0</ele><time>2026-04-25T08:11:04Z</time></trkpt><trkpt lat="46.57682698985854" lon="26.816726492051174"><ele>252.0</ele><time>2026-04-25T08:11:07Z</time></trkpt><trkpt lat="46.57678247910684" lon="26.816802602639875"><ele>252.0</ele><time>2026-04-25T08:11:10Z</time></trkpt><trkpt lat="46.57673312215612" lon="26.816887697630538"><ele>252.0</ele><time>2026-04-25T08:11:13Z</time></trkpt><trkpt lat="46.576690261267444" lon="26.816961979799547"><ele>252.0</ele><time>2026-04-25T08:11:15Z</time></trkpt><trkpt lat="46.57664978230399" lon="26.817032478831052"><ele>252.0</ele><time>2026-04-25T08:11:17Z</time></trkpt><trkpt lat="46.57661399369128" lon="26.81711059216667"><ele>252.33333333333334</ele><time>2026-04-25T08:11:19Z</time></trkpt><trkpt lat="46.57656881064896" lon="26.817218018272598"><ele>252.66666666666669</ele><time>2026-04-25T08:11:22Z</time></trkpt><trkpt lat="46.576532155219425" lon="26.817306907993487"><ele>253.0</ele><time>2026-04-25T08:11:24Z</time></trkpt><trkpt lat="46.57649806546644" lon="26.81738957570864"><ele>253.33333333333334</ele><time>2026-04-25T08:11:25Z</time></trkpt><trkpt lat="46.57648083495302" lon="26.81751301521006"><ele>253.66666666666669</ele><time>2026-04-25T08:11:27Z</time></trkpt><trkpt lat="46.57645343005494" lon="26.817624682496618"><ele>254.0</ele><time>2026-04-25T08:11:29Z</time></trkpt><trkpt lat="46.576436184525306" lon="26.817733131238214"><ele>254.0</ele><time>2026-04-25T08:11:31Z</time></trkpt><trkpt lat="46.57641796931726" lon="26.81784823280752"><ele>254.0</ele><time>2026-04-25T08:11:33Z</time></trkpt><trkpt lat="46.57639008590472" lon="26.817972933494158"><ele>254.0</ele><time>2026-04-25T08:11:35Z</time></trkpt><trkpt lat="46.576498763190315" lon="26.818159489443687"><ele>254.0</ele><time>2026-04-25T08:11:37Z</time></trkpt><trkpt lat="46.57655239677174" lon="26.81830895846107"><ele>254.0</ele><time>2026-04-25T08:11:39Z</time></trkpt><trkpt lat="46.57661806436571" lon="26.81845249600494"><ele>254.0</ele><time>2026-04-25T08:11:41Z</time></trkpt><trkpt lat="46.57669328318574" lon="26.818604743164066"><ele>254.0</ele><time>2026-04-25T08:11:43Z</time></trkpt><trkpt lat="46.57675819116524" lon="26.818732115820232"><ele>254.0</ele><time>2026-04-25T08:11:45Z</time></trkpt><trkpt lat="46.57683334051949" lon="26.818871631206534"><ele>254.6</ele><time>2026-04-25T08:11:47Z</time></trkpt><trkpt lat="46.57687545556555" lon="26.818943657432204"><ele>255.2</ele><time>2026-04-25T08:11:48Z</time></trkpt><trkpt lat="46.57695367082904" lon="26.819068200536066"><ele>255.79999999999998</ele><time>2026-04-25T08:11:50Z</time></trkpt><trkpt lat="46.57703080262076" lon="26.819189761827253"><ele>256.4</ele><time>2026-04-25T08:11:52Z</time></trkpt><trkpt lat="46.57710656282678" lon="26.819275684567465"><ele>257.0</ele><time>2026-04-25T08:11:54Z</time></trkpt><trkpt lat="46.577181570919876" lon="26.819370606078667"><ele>259.33333333333337</ele><time>2026-04-25T08:11:56Z</time></trkpt><trkpt lat="46.57724802054217" lon="26.819503864363725"><ele>261.6666666666667</ele><time>2026-04-25T08:11:58Z</time></trkpt><trkpt lat="46.57727524459182" lon="26.81966039644208"><ele>264.0</ele><time>2026-04-25T08:12:00Z</time></trkpt><trkpt lat="46.57727419583664" lon="26.819754465790723"><ele>266.3333333333333</ele><time>2026-04-25T08:12:01Z</time></trkpt><trkpt lat="46.57726646604996" lon="26.819854758479615"><ele>268.66666666666663</ele><time>2026-04-25T08:12:02Z</time></trkpt><trkpt lat="46.57724926693053" lon="26.819948831550875"><ele>271.0</ele><time>2026-04-25T08:12:03Z</time></trkpt><trkpt lat="46.57722605835798" lon="26.820038840379986"><ele>271.0</ele><time>2026-04-25T08:12:04Z</time></trkpt><trkpt lat="46.57719691492586" lon="26.820128279330667"><ele>271.0</ele><time>2026-04-25T08:12:05Z</time></trkpt><trkpt lat="46.5771744377577" lon="26.820223159960207"><ele>271.0</ele><time>2026-04-25T08:12:06Z</time></trkpt><trkpt lat="46.57715264338246" lon="26.82031896361652"><ele>271.0</ele><time>2026-04-25T08:12:07Z</time></trkpt><trkpt lat="46.57712560844229" lon="26.820421055860173"><ele>271.0</ele><time>2026-04-25T08:12:08Z</time></trkpt><trkpt lat="46.57710200432627" lon="26.820528956646555"><ele>271.0</ele><time>2026-04-25T08:12:09Z</time></trkpt><trkpt lat="46.57707708981607" lon="26.82063775264335"><ele>271.0</ele><time>2026-04-25T08:12:10Z</time></trkpt><trkpt lat="46.57705838092027" lon="26.820742008434507"><ele>271.0</ele><time>2026-04-25T08:12:11Z</time></trkpt><trkpt lat="46.57703822759205" lon="26.82083342468225"><ele>271.0</ele><time>2026-04-25T08:12:12Z</time></trkpt><trkpt lat="46.577014876481606" lon="26.820942326191297"><ele>271.0</ele><time>2026-04-25T08:12:13Z</time></trkpt><trkpt lat="46.57698984806376" lon="26.821054617783133"><ele>271.0</ele><time>2026-04-25T08:12:14Z</time></trkpt><trkpt lat="46.576964917999796" lon="26.82116252919396"><ele>271.0</ele><time>2026-04-25T08:12:15Z</time></trkpt><trkpt lat="46.57693703359911" lon="26.82127702875861"><ele>271.0</ele><time>2026-04-25T08:12:16Z</time></trkpt><trkpt lat="46.57690772620199" lon="26.82139208976225"><ele>269.3333333333333</ele><time>2026-04-25T08:12:17Z</time></trkpt><trkpt lat="46.57688254423366" lon="26.821498815025357"><ele>267.66666666666663</ele><time>2026-04-25T08:12:18Z</time></trkpt><trkpt lat="46.57685919669222" lon="26.821606134595527"><ele>266.0</ele><time>2026-04-25T08:12:19Z</time></trkpt><trkpt lat="46.57683000368365" lon="26.82171313917157"><ele>264.3333333333333</ele><time>2026-04-25T08:12:20Z</time></trkpt><trkpt lat="46.57680092469878" lon="26.82181967571949"><ele>262.6666666666667</ele><time>2026-04-25T08:12:21Z</time></trkpt><trkpt lat="46.57677432023704" lon="26.821912003017182"><ele>261.0</ele><time>2026-04-25T08:12:22Z</time></trkpt><trkpt lat="46.57674810238015" lon="26.8220086722225"><ele>261.0</ele><time>2026-04-25T08:12:23Z</time></trkpt><trkpt lat="46.57672138647198" lon="26.822104134257707"><ele>261.0</ele><time>2026-04-25T08:12:24Z</time></trkpt><trkpt lat="46.57669314113274" lon="26.82220165706698"><ele>261.0</ele><time>2026-04-25T08:12:25Z</time></trkpt><trkpt lat="46.57666980529012" lon="26.822293150992778"><ele>261.0</ele><time>2026-04-25T08:12:26Z</time></trkpt><trkpt lat="46.57665341832192" lon="26.822392730471087"><ele>261.0</ele><time>2026-04-25T08:12:27Z</time></trkpt><trkpt lat="46.576640205509925" lon="26.822576236303508"><ele>261.0</ele><time>2026-04-25T08:12:29Z</time></trkpt><trkpt lat="46.57663530517422" lon="26.822685693794803"><ele>260.5</ele><time>2026-04-25T08:12:30Z</time></trkpt><trkpt lat="46.57663628308987" lon="26.82279312151645"><ele>260.0</ele><time>2026-04-25T08:12:31Z</time></trkpt><trkpt lat="46.57664194747462" lon="26.822892221510106"><ele>259.5</ele><time>2026-04-25T08:12:32Z</time></trkpt><trkpt lat="46.576643410143305" lon="26.822997163609465"><ele>259.0</ele><time>2026-04-25T08:12:33Z</time></trkpt><trkpt lat="46.576640303905855" lon="26.82311261281667"><ele>258.5</ele><time>2026-04-25T08:12:34Z</time></trkpt><trkpt lat="46.57663101467977" lon="26.823229167685884"><ele>258.0</ele><time>2026-04-25T08:12:34.999Z</time></trkpt><trkpt lat="46.57662758770171" lon="26.823345076992034"><ele>257.99999999999994</ele><time>2026-04-25T08:12:35.999Z</time></trkpt><trkpt lat="46.57662560743754" lon="26.82345278321277"><ele>258.0</ele><time>2026-04-25T08:12:36.999Z</time></trkpt><trkpt lat="46.5766230570525" lon="26.82356323053311"><ele>258.0</ele><time>2026-04-25T08:12:37.999Z</time></trkpt><trkpt lat="46.57661510942583" lon="26.823657689726737"><ele>258.0</ele><time>2026-04-25T08:12:38.999Z</time></trkpt><trkpt lat="46.57660144063305" lon="26.823751956538285"><ele>258.0</ele><time>2026-04-25T08:12:39.999Z</time></trkpt><trkpt lat="46.576575756660525" lon="26.823851346358985"><ele>257.99999999999994</ele><time>2026-04-25T08:12:40.999Z</time></trkpt><trkpt lat="46.576538142980425" lon="26.823948937422184"><ele>258.0</ele><time>2026-04-25T08:12:41.999Z</time></trkpt><trkpt lat="46.57649280493742" lon="26.824054716545266"><ele>257.3333333333333</ele><time>2026-04-25T08:12:42.999Z</time></trkpt><trkpt lat="46.576447730761394" lon="26.82416792757992"><ele>256.6666666666667</ele><time>2026-04-25T08:12:43.999Z</time></trkpt><trkpt lat="46.57641024524916" lon="26.82428929824884"><ele>256.0</ele><time>2026-04-25T08:12:44.999Z</time></trkpt><trkpt lat="46.57638158549435" lon="26.824409835088034"><ele>255.33333333333334</ele><time>2026-04-25T08:12:45.999Z</time></trkpt><trkpt lat="46.57635365636203" lon="26.824529480970323"><ele>254.66666666666669</ele><time>2026-04-25T08:12:46.999Z</time></trkpt><trkpt lat="46.5763255650088" lon="26.824655215529262"><ele>254.0</ele><time>2026-04-25T08:12:47.999Z</time></trkpt><trkpt lat="46.5763037848535" lon="26.82477306367518"><ele>253.6</ele><time>2026-04-25T08:12:48.999Z</time></trkpt><trkpt lat="46.57628616486086" lon="26.824903745479794"><ele>253.2</ele><time>2026-04-25T08:12:49.999Z</time></trkpt><trkpt lat="46.576273139091505" lon="26.825035729804217"><ele>252.79999999999998</ele><time>2026-04-25T08:12:50.999Z</time></trkpt><trkpt lat="46.576269148392335" lon="26.825165047786705"><ele>252.39999999999998</ele><time>2026-04-25T08:12:51.999Z</time></trkpt><trkpt lat="46.57626743362098" lon="26.825298248395395"><ele>252.0</ele><time>2026-04-25T08:12:52.999Z</time></trkpt><trkpt lat="46.57627172350847" lon="26.825428097695685"><ele>251.5</ele><time>2026-04-25T08:12:53.999Z</time></trkpt><trkpt lat="46.57627579097983" lon="26.825561584898132"><ele>251.0</ele><time>2026-04-25T08:12:54.999Z</time></trkpt><trkpt lat="46.57628294801253" lon="26.825679784257975"><ele>250.5</ele><time>2026-04-25T08:12:55.999Z</time></trkpt><trkpt lat="46.5762889921502" lon="26.82579455190344"><ele>250.0</ele><time>2026-04-25T08:12:56.999Z</time></trkpt><trkpt lat="46.57630202284541" lon="26.825914028411336"><ele>249.5</ele><time>2026-04-25T08:12:57.999Z</time></trkpt><trkpt lat="46.57631747640622" lon="26.826040764467866"><ele>249.0</ele><time>2026-04-25T08:12:58.999Z</time></trkpt><trkpt lat="46.57633889173555" lon="26.826182786143637"><ele>247.79999999999998</ele><time>2026-04-25T08:12:59.999Z</time></trkpt><trkpt lat="46.57636328064247" lon="26.826315490895933"><ele>246.59999999999997</ele><time>2026-04-25T08:13:00.999Z</time></trkpt><trkpt lat="46.57638129409019" lon="26.82643807285273"><ele>245.4</ele><time>2026-04-25T08:13:01.999Z</time></trkpt><trkpt lat="46.57639837151172" lon="26.826568042341325"><ele>244.2</ele><time>2026-04-25T08:13:02.999Z</time></trkpt><trkpt lat="46.576420905353864" lon="26.826701127152923"><ele>243.0</ele><time>2026-04-25T08:13:03.999Z</time></trkpt><trkpt lat="46.57644421320079" lon="26.82683710985799"><ele>241.60000000000002</ele><time>2026-04-25T08:13:04.999Z</time></trkpt><trkpt lat="46.576467290553246" lon="26.82696805046608"><ele>240.20000000000002</ele><time>2026-04-25T08:13:05.999Z</time></trkpt><trkpt lat="46.576494768237026" lon="26.82709483243094"><ele>238.8</ele><time>2026-04-25T08:13:06.999Z</time></trkpt><trkpt lat="46.57653505568156" lon="26.827219795293896"><ele>237.4</ele><time>2026-04-25T08:13:08Z</time></trkpt><trkpt lat="46.57658247402637" lon="26.82733221809027"><ele>236.0</ele><time>2026-04-25T08:13:09Z</time></trkpt><trkpt lat="46.576637378026646" lon="26.82744768341708"><ele>236.0</ele><time>2026-04-25T08:13:10Z</time></trkpt><trkpt lat="46.57669616135975" lon="26.8275579923882"><ele>236.00000000000003</ele><time>2026-04-25T08:13:11Z</time></trkpt><trkpt lat="46.57676219271724" lon="26.82766775097058"><ele>236.00000000000003</ele><time>2026-04-25T08:13:12Z</time></trkpt><trkpt lat="46.576829860892374" lon="26.827774585074422"><ele>236.0</ele><time>2026-04-25T08:13:13Z</time></trkpt><trkpt lat="46.57689309273663" lon="26.82787537007355"><ele>236.0</ele><time>2026-04-25T08:13:14Z</time></trkpt><trkpt lat="46.576943976416274" lon="26.82796851827658"><ele>235.16666666666669</ele><time>2026-04-25T08:13:15Z</time></trkpt><trkpt lat="46.57698504375621" lon="26.828053013509898"><ele>234.33333333333334</ele><time>2026-04-25T08:13:16Z</time></trkpt><trkpt lat="46.57702145492877" lon="26.82813470006211"><ele>233.5</ele><time>2026-04-25T08:13:17Z</time></trkpt><trkpt lat="46.577075106137" lon="26.828287410709052"><ele>232.66666666666669</ele><time>2026-04-25T08:13:19Z</time></trkpt><trkpt lat="46.57710768064456" lon="26.828370756627073"><ele>231.83333333333334</ele><time>2026-04-25T08:13:20Z</time></trkpt><trkpt lat="46.57717881225449" lon="26.828523729482214"><ele>231.0</ele><time>2026-04-25T08:13:22Z</time></trkpt><trkpt lat="46.57725865012365" lon="26.828601444408413"><ele>229.83333333333334</ele><time>2026-04-25T08:13:24Z</time></trkpt><trkpt lat="46.577370581122416" lon="26.828684772577375"><ele>228.66666666666669</ele><time>2026-04-25T08:13:26Z</time></trkpt><trkpt lat="46.577439042185595" lon="26.82870691315924"><ele>227.5</ele><time>2026-04-25T08:13:27Z</time></trkpt><trkpt lat="46.577509078548324" lon="26.82871820484971"><ele>226.33333333333334</ele><time>2026-04-25T08:13:28Z</time></trkpt><trkpt lat="46.577577030437816" lon="26.828722915383157"><ele>225.16666666666669</ele><time>2026-04-25T08:13:29Z</time></trkpt><trkpt lat="46.577642816342355" lon="26.828730913607792"><ele>224.0</ele><time>2026-04-25T08:13:30Z</time></trkpt><trkpt lat="46.5777609921112" lon="26.828748806898957"><ele>224.00000000000003</ele><time>2026-04-25T08:13:32Z</time></trkpt><trkpt lat="46.57786080043163" lon="26.82877446826691"><ele>224.0</ele><time>2026-04-25T08:13:34Z</time></trkpt><trkpt lat="46.57792838179982" lon="26.828781658715673"><ele>224.0</ele><time>2026-04-25T08:13:35Z</time></trkpt><trkpt lat="46.57799591803496" lon="26.828822595978952"><ele>224.0</ele><time>2026-04-25T08:13:36Z</time></trkpt><trkpt lat="46.57806206675662" lon="26.828871745869037"><ele>224.00000000000003</ele><time>2026-04-25T08:13:37Z</time></trkpt><trkpt lat="46.57812112796724" lon="26.82891503112533"><ele>224.0</ele><time>2026-04-25T08:13:38Z</time></trkpt><trkpt lat="46.578219231827" lon="26.82898876247541"><ele>224.00000000000003</ele><time>2026-04-25T08:13:40Z</time></trkpt><trkpt lat="46.57830602682111" lon="26.829054782033612"><ele>224.0</ele><time>2026-04-25T08:13:42Z</time></trkpt><trkpt lat="46.57840652839632" lon="26.829116453831922"><ele>224.0</ele><time>2026-04-25T08:13:44Z</time></trkpt><trkpt lat="46.57846999576674" lon="26.82915561973098"><ele>224.0</ele><time>2026-04-25T08:13:45Z</time></trkpt><trkpt lat="46.578534696861205" lon="26.82920835242915"><ele>224.00000000000003</ele><time>2026-04-25T08:13:46Z</time></trkpt><trkpt lat="46.578594735324984" lon="26.829258376282603"><ele>224.0</ele><time>2026-04-25T08:13:47Z</time></trkpt><trkpt lat="46.578659351245356" lon="26.82931320838904"><ele>223.16666666666669</ele><time>2026-04-25T08:13:48Z</time></trkpt><trkpt lat="46.57872585272207" lon="26.829359255278483"><ele>222.33333333333334</ele><time>2026-04-25T08:13:49Z</time></trkpt><trkpt lat="46.578789405551696" lon="26.829401612396296"><ele>221.5</ele><time>2026-04-25T08:13:50Z</time></trkpt><trkpt lat="46.57885578051583" lon="26.82944583555999"><ele>220.66666666666669</ele><time>2026-04-25T08:13:51Z</time></trkpt><trkpt lat="46.57897424791671" lon="26.829518093560566"><ele>219.83333333333334</ele><time>2026-04-25T08:13:53Z</time></trkpt><trkpt lat="46.57903638915543" lon="26.82955489048633"><ele>219.0</ele><time>2026-04-25T08:13:54Z</time></trkpt><trkpt lat="46.579094539178044" lon="26.829592097898804"><ele>219.0</ele><time>2026-04-25T08:13:55Z</time></trkpt><trkpt lat="46.579155711973186" lon="26.829639185958737"><ele>219.0</ele><time>2026-04-25T08:13:56Z</time></trkpt><trkpt lat="46.57927189340588" lon="26.829725385925073"><ele>219.0</ele><time>2026-04-25T08:13:58Z</time></trkpt><trkpt lat="46.57933764880413" lon="26.82976382940769"><ele>219.0</ele><time>2026-04-25T08:13:59Z</time></trkpt><trkpt lat="46.57939875541519" lon="26.82980345653251"><ele>219.0</ele><time>2026-04-25T08:14:00Z</time></trkpt><trkpt lat="46.57945672793314" lon="26.82984561574845"><ele>219.0</ele><time>2026-04-25T08:14:01Z</time></trkpt><trkpt lat="46.57956774011523" lon="26.829927249604374"><ele>218.6</ele><time>2026-04-25T08:14:03Z</time></trkpt><trkpt lat="46.57968070613397" lon="26.830006776719305"><ele>218.2</ele><time>2026-04-25T08:14:05Z</time></trkpt><trkpt lat="46.57979262642971" lon="26.830085568166208"><ele>217.79999999999998</ele><time>2026-04-25T08:14:07Z</time></trkpt><trkpt lat="46.579887758276364" lon="26.830144396274992"><ele>217.39999999999998</ele><time>2026-04-25T08:14:09Z</time></trkpt><trkpt lat="46.57997141906412" lon="26.83019664359027"><ele>217.0</ele><time>2026-04-25T08:14:11Z</time></trkpt><trkpt lat="46.580087584951826" lon="26.83026913062577"><ele>217.0</ele><time>2026-04-25T08:14:13Z</time></trkpt><trkpt lat="46.580152609087804" lon="26.83030869710082"><ele>217.0</ele><time>2026-04-25T08:14:14Z</time></trkpt><trkpt lat="46.58021041225296" lon="26.8303462826982"><ele>217.0</ele><time>2026-04-25T08:14:15Z</time></trkpt><trkpt lat="46.580313327674716" lon="26.83040978642173"><ele>217.0</ele><time>2026-04-25T08:14:17Z</time></trkpt><trkpt lat="46.58039974735929" lon="26.83045201473334"><ele>217.0</ele><time>2026-04-25T08:14:19Z</time></trkpt><trkpt lat="46.58050942143026" lon="26.830528522261982"><ele>217.39999999999998</ele><time>2026-04-25T08:14:21Z</time></trkpt><trkpt lat="46.580617337996586" lon="26.83062170457021"><ele>217.79999999999998</ele><time>2026-04-25T08:14:23Z</time></trkpt><trkpt lat="46.580722354364674" lon="26.830695049324635"><ele>218.2</ele><time>2026-04-25T08:14:25Z</time></trkpt><trkpt lat="46.58082361044902" lon="26.83076214009089"><ele>218.6</ele><time>2026-04-25T08:14:27Z</time></trkpt><trkpt lat="46.58088686107313" lon="26.83080447123679"><ele>219.0</ele><time>2026-04-25T08:14:28Z</time></trkpt><trkpt lat="46.580951090933354" lon="26.83084800955375"><ele>219.0</ele><time>2026-04-25T08:14:29Z</time></trkpt><trkpt lat="46.581014550176036" lon="26.83088957826891"><ele>219.0</ele><time>2026-04-25T08:14:30Z</time></trkpt><trkpt lat="46.581074756038674" lon="26.830929826820565"><ele>219.0</ele><time>2026-04-25T08:14:31Z</time></trkpt><trkpt lat="46.581138356679546" lon="26.830970866376735"><ele>219.0</ele><time>2026-04-25T08:14:32Z</time></trkpt><trkpt lat="46.581196561884425" lon="26.83100882989364"><ele>219.0</ele><time>2026-04-25T08:14:33Z</time></trkpt><trkpt lat="46.58131370511488" lon="26.831086159506995"><ele>219.0</ele><time>2026-04-25T08:14:35Z</time></trkpt><trkpt lat="46.58137487242236" lon="26.831127123884624"><ele>218.39999999999998</ele><time>2026-04-25T08:14:36Z</time></trkpt><trkpt lat="46.58148320861375" lon="26.83119766525981"><ele>217.79999999999998</ele><time>2026-04-25T08:14:38Z</time></trkpt><trkpt lat="46.58157707794184" lon="26.831245180533813"><ele>217.20000000000002</ele><time>2026-04-25T08:14:40Z</time></trkpt><trkpt lat="46.58167894677615" lon="26.831310394925932"><ele>216.60000000000002</ele><time>2026-04-25T08:14:41.999Z</time></trkpt><trkpt lat="46.58173596040421" lon="26.83135264116171"><ele>216.0</ele><time>2026-04-25T08:14:42.999Z</time></trkpt><trkpt lat="46.58179368390984" lon="26.831394122108996"><ele>216.0</ele><time>2026-04-25T08:14:43.999Z</time></trkpt><trkpt lat="46.58185433171335" lon="26.831440058046425"><ele>216.0</ele><time>2026-04-25T08:14:44.999Z</time></trkpt><trkpt lat="46.58191685978354" lon="26.831473999343885"><ele>216.0</ele><time>2026-04-25T08:14:45.999Z</time></trkpt><trkpt lat="46.581984377534084" lon="26.83152357041782"><ele>216.0</ele><time>2026-04-25T08:14:46.999Z</time></trkpt><trkpt lat="46.58204939082375" lon="26.831566414151467"><ele>216.0</ele><time>2026-04-25T08:14:47.999Z</time></trkpt><trkpt lat="46.58211438660269" lon="26.83161148420045"><ele>216.0</ele><time>2026-04-25T08:14:48.999Z</time></trkpt><trkpt lat="46.582177602091484" lon="26.831663705245106"><ele>216.0</ele><time>2026-04-25T08:14:49.999Z</time></trkpt><trkpt lat="46.582238885236386" lon="26.831712057636825"><ele>216.16666666666666</ele><time>2026-04-25T08:14:50.999Z</time></trkpt><trkpt lat="46.58230653756307" lon="26.83175902988127"><ele>216.33333333333331</ele><time>2026-04-25T08:14:51.999Z</time></trkpt><trkpt lat="46.58237891512781" lon="26.83180805257713"><ele>216.5</ele><time>2026-04-25T08:14:52.999Z</time></trkpt><trkpt lat="46.58245000723101" lon="26.83185408950656"><ele>216.66666666666666</ele><time>2026-04-25T08:14:53.999Z</time></trkpt><trkpt lat="46.58252028498273" lon="26.83190071305437"><ele>216.83333333333331</ele><time>2026-04-25T08:14:54.999Z</time></trkpt><trkpt lat="46.58259503240444" lon="26.83195771655261"><ele>217.0</ele><time>2026-04-25T08:14:55.999Z</time></trkpt><trkpt lat="46.58266690222864" lon="26.832008867587277"><ele>216.66666666666666</ele><time>2026-04-25T08:14:56.999Z</time></trkpt><trkpt lat="46.582739764098875" lon="26.83206063625781"><ele>216.33333333333331</ele><time>2026-04-25T08:14:57.999Z</time></trkpt><trkpt lat="46.58281170462095" lon="26.832104749699205"><ele>216.0</ele><time>2026-04-25T08:14:58.999Z</time></trkpt><trkpt lat="46.58288420168541" lon="26.832149483476446"><ele>215.66666666666669</ele><time>2026-04-25T08:14:59.999Z</time></trkpt><trkpt lat="46.5829503858194" lon="26.832194128870636"><ele>215.33333333333334</ele><time>2026-04-25T08:15:00.999Z</time></trkpt><trkpt lat="46.58302258114707" lon="26.832242782408155"><ele>215.0</ele><time>2026-04-25T08:15:01.999Z</time></trkpt><trkpt lat="46.583086467330006" lon="26.83228534640631"><ele>215.00000000000003</ele><time>2026-04-25T08:15:02.999Z</time></trkpt><trkpt lat="46.58319458083798" lon="26.83235913981496"><ele>215.0</ele><time>2026-04-25T08:15:04.999Z</time></trkpt><trkpt lat="46.58325591914965" lon="26.832399109944912"><ele>215.0</ele><time>2026-04-25T08:15:05.999Z</time></trkpt><trkpt lat="46.58331943948025" lon="26.832446408429345"><ele>215.0</ele><time>2026-04-25T08:15:06.999Z</time></trkpt><trkpt lat="46.58338927161802" lon="26.83249653734403"><ele>215.00000000000003</ele><time>2026-04-25T08:15:07.999Z</time></trkpt><trkpt lat="46.583458966676126" lon="26.83255001075968"><ele>215.0</ele><time>2026-04-25T08:15:08.999Z</time></trkpt><trkpt lat="46.58353162943518" lon="26.83261411749659"><ele>214.33333333333334</ele><time>2026-04-25T08:15:09.999Z</time></trkpt><trkpt lat="46.58359815065048" lon="26.83267799817508"><ele>213.66666666666669</ele><time>2026-04-25T08:15:10.999Z</time></trkpt><trkpt lat="46.58366840291771" lon="26.832746779621083"><ele>213.0</ele><time>2026-04-25T08:15:11.999Z</time></trkpt><trkpt lat="46.58373324455709" lon="26.8328149620991"><ele>212.33333333333331</ele><time>2026-04-25T08:15:12.999Z</time></trkpt><trkpt lat="46.58379163962947" lon="26.832880397619718"><ele>211.66666666666666</ele><time>2026-04-25T08:15:14Z</time></trkpt><trkpt lat="46.5838515140126" lon="26.832952576673907"><ele>211.0</ele><time>2026-04-25T08:15:15Z</time></trkpt><trkpt lat="46.58391260518345" lon="26.833031592851558"><ele>210.71428571428572</ele><time>2026-04-25T08:15:16Z</time></trkpt><trkpt lat="46.58396838338286" lon="26.833108352513875"><ele>210.42857142857144</ele><time>2026-04-25T08:15:17Z</time></trkpt><trkpt lat="46.58402371394007" lon="26.833186710726046"><ele>210.14285714285714</ele><time>2026-04-25T08:15:18Z</time></trkpt><trkpt lat="46.58407005235262" lon="26.83325888337573"><ele>209.85714285714286</ele><time>2026-04-25T08:15:19Z</time></trkpt><trkpt lat="46.58411439821462" lon="26.833337466989164"><ele>209.57142857142856</ele><time>2026-04-25T08:15:20Z</time></trkpt><trkpt lat="46.58415968896268" lon="26.83342253834362"><ele>209.28571428571428</ele><time>2026-04-25T08:15:21Z</time></trkpt><trkpt lat="46.58420479351035" lon="26.833513151687267"><ele>209.0</ele><time>2026-04-25T08:15:22Z</time></trkpt><trkpt lat="46.58424903993883" lon="26.83360716354287"><ele>208.50000000000003</ele><time>2026-04-25T08:15:23Z</time></trkpt><trkpt lat="46.584296520565054" lon="26.83370399802223"><ele>208.0</ele><time>2026-04-25T08:15:24Z</time></trkpt><trkpt lat="46.58434298455596" lon="26.83379915099076"><ele>207.5</ele><time>2026-04-25T08:15:25Z</time></trkpt><trkpt lat="46.58439400918744" lon="26.83389365133082"><ele>207.0</ele><time>2026-04-25T08:15:26Z</time></trkpt><trkpt lat="46.58444599153688" lon="26.83398592188748"><ele>206.50000000000003</ele><time>2026-04-25T08:15:27Z</time></trkpt><trkpt lat="46.584498537035195" lon="26.834082641503986"><ele>206.0</ele><time>2026-04-25T08:15:28Z</time></trkpt><trkpt lat="46.58455613801522" lon="26.83418376366244"><ele>206.00000000000003</ele><time>2026-04-25T08:15:29Z</time></trkpt><trkpt lat="46.584616260050886" lon="26.83428528184066"><ele>206.0</ele><time>2026-04-25T08:15:30Z</time></trkpt><trkpt lat="46.584671778033446" lon="26.83438609995694"><ele>206.0</ele><time>2026-04-25T08:15:31Z</time></trkpt><trkpt lat="46.58473045836563" lon="26.834496938560413"><ele>206.0</ele><time>2026-04-25T08:15:32Z</time></trkpt><trkpt lat="46.58478539513741" lon="26.834597888335566"><ele>206.00000000000003</ele><time>2026-04-25T08:15:33Z</time></trkpt><trkpt lat="46.58483693596247" lon="26.834690528012274"><ele>206.0</ele><time>2026-04-25T08:15:34Z</time></trkpt><trkpt lat="46.58489374935274" lon="26.834790472105208"><ele>206.00000000000003</ele><time>2026-04-25T08:15:35Z</time></trkpt><trkpt lat="46.58495268380993" lon="26.834895534082197"><ele>206.0</ele><time>2026-04-25T08:15:36Z</time></trkpt><trkpt lat="46.58501006161985" lon="26.835002862565215"><ele>206.0</ele><time>2026-04-25T08:15:37Z</time></trkpt><trkpt lat="46.585061781043116" lon="26.835091923691557"><ele>206.0</ele><time>2026-04-25T08:15:38Z</time></trkpt><trkpt lat="46.58510578131262" lon="26.835181225361627"><ele>206.00000000000003</ele><time>2026-04-25T08:15:39Z</time></trkpt><trkpt lat="46.585155973802586" lon="26.835282699147516"><ele>206.0</ele><time>2026-04-25T08:15:40Z</time></trkpt><trkpt lat="46.58521181800795" lon="26.835388573475047"><ele>206.16666666666669</ele><time>2026-04-25T08:15:41Z</time></trkpt><trkpt lat="46.58525896991266" lon="26.835476123268368"><ele>206.33333333333334</ele><time>2026-04-25T08:15:42Z</time></trkpt><trkpt lat="46.58530352912908" lon="26.835553719642103"><ele>206.5</ele><time>2026-04-25T08:15:43Z</time></trkpt><trkpt lat="46.58535243108849" lon="26.83564265349997"><ele>206.66666666666669</ele><time>2026-04-25T08:15:44Z</time></trkpt><trkpt lat="46.58539819886237" lon="26.835727422888848"><ele>206.83333333333334</ele><time>2026-04-25T08:15:45Z</time></trkpt><trkpt lat="46.585441674717266" lon="26.835804342684895"><ele>207.0</ele><time>2026-04-25T08:15:46Z</time></trkpt><trkpt lat="46.585533262620274" lon="26.83591382527839"><ele>207.0</ele><time>2026-04-25T08:15:48Z</time></trkpt><trkpt lat="46.58558920461531" lon="26.835957169374208"><ele>207.0</ele><time>2026-04-25T08:15:49Z</time></trkpt><trkpt lat="46.58564955425811" lon="26.83599653299756"><ele>207.0</ele><time>2026-04-25T08:15:50Z</time></trkpt><trkpt lat="46.58571327709573" lon="26.83603272325657"><ele>207.0</ele><time>2026-04-25T08:15:51Z</time></trkpt><trkpt lat="46.58578666866563" lon="26.836059989884614"><ele>207.0</ele><time>2026-04-25T08:15:52Z</time></trkpt><trkpt lat="46.58586805043351" lon="26.836095344977352"><ele>207.0</ele><time>2026-04-25T08:15:53Z</time></trkpt><trkpt lat="46.58595976001432" lon="26.836050805297642"><ele>208.66666666666666</ele><time>2026-04-25T08:15:54Z</time></trkpt><trkpt lat="46.58604718942853" lon="26.83602072545069"><ele>210.33333333333331</ele><time>2026-04-25T08:15:55Z</time></trkpt><trkpt lat="46.586133059662544" lon="26.836019253749384"><ele>212.0</ele><time>2026-04-25T08:15:56Z</time></trkpt><trkpt lat="46.586206408389586" lon="26.83600257993259"><ele>213.66666666666666</ele><time>2026-04-25T08:15:57Z</time></trkpt><trkpt lat="46.586271516301146" lon="26.836007176865063"><ele>215.33333333333331</ele><time>2026-04-25T08:15:58Z</time></trkpt><trkpt lat="46.586344198874045" lon="26.83598902902876"><ele>217.0</ele><time>2026-04-25T08:15:59Z</time></trkpt><trkpt lat="46.58642147454182" lon="26.835999389919515"><ele>217.0</ele><time>2026-04-25T08:16:00Z</time></trkpt><trkpt lat="46.586500804417554" lon="26.836007396079072"><ele>217.0</ele><time>2026-04-25T08:16:01Z</time></trkpt><trkpt lat="46.586571936153376" lon="26.83600719308113"><ele>217.0</ele><time>2026-04-25T08:16:02Z</time></trkpt><trkpt lat="46.58663967443104" lon="26.836022206595935"><ele>217.0</ele><time>2026-04-25T08:16:03Z</time></trkpt><trkpt lat="46.586705219109064" lon="26.836051110274774"><ele>217.0</ele><time>2026-04-25T08:16:04Z</time></trkpt><trkpt lat="46.58677584050017" lon="26.836099180021904"><ele>217.0</ele><time>2026-04-25T08:16:05Z</time></trkpt><trkpt lat="46.58684752645562" lon="26.836162371529717"><ele>217.0</ele><time>2026-04-25T08:16:06Z</time></trkpt><trkpt lat="46.5869186325296" lon="26.836229445206676"><ele>216.99999999999997</ele><time>2026-04-25T08:16:07Z</time></trkpt><trkpt lat="46.58699026497336" lon="26.8362716511885"><ele>217.0</ele><time>2026-04-25T08:16:08Z</time></trkpt><trkpt lat="46.58706198171993" lon="26.83629601550038"><ele>217.0</ele><time>2026-04-25T08:16:09Z</time></trkpt><trkpt lat="46.58714175913784" lon="26.8363127230637"><ele>217.0</ele><time>2026-04-25T08:16:10Z</time></trkpt><trkpt lat="46.58721950194064" lon="26.836347673402937"><ele>216.99999999999997</ele><time>2026-04-25T08:16:11Z</time></trkpt><trkpt lat="46.58729406048002" lon="26.83635987214529"><ele>217.0</ele><time>2026-04-25T08:16:12Z</time></trkpt><trkpt lat="46.58741341576252" lon="26.836368355849284"><ele>216.66666666666666</ele><time>2026-04-25T08:16:14Z</time></trkpt><trkpt lat="46.587480908248644" lon="26.83639978696485"><ele>216.33333333333331</ele><time>2026-04-25T08:16:15Z</time></trkpt><trkpt lat="46.58754755581628" lon="26.836429449026294"><ele>216.0</ele><time>2026-04-25T08:16:16Z</time></trkpt><trkpt lat="46.587620367570445" lon="26.836479830340732"><ele>215.66666666666669</ele><time>2026-04-25T08:16:17Z</time></trkpt><trkpt lat="46.587693811826576" lon="26.83652729561881"><ele>215.33333333333334</ele><time>2026-04-25T08:16:18Z</time></trkpt><trkpt lat="46.587766417831006" lon="26.836580657278244"><ele>215.0</ele><time>2026-04-25T08:16:19Z</time></trkpt><trkpt lat="46.587845054391984" lon="26.836637047952017"><ele>214.50000000000003</ele><time>2026-04-25T08:16:20Z</time></trkpt><trkpt lat="46.587927219400854" lon="26.836683164749466"><ele>214.0</ele><time>2026-04-25T08:16:21Z</time></trkpt><trkpt lat="46.58801234658813" lon="26.836721340844985"><ele>213.5</ele><time>2026-04-25T08:16:22Z</time></trkpt><trkpt lat="46.588094898276545" lon="26.836756488081736"><ele>213.0</ele><time>2026-04-25T08:16:23Z</time></trkpt><trkpt lat="46.58817473437639" lon="26.836789391109026"><ele>212.50000000000003</ele><time>2026-04-25T08:16:24Z</time></trkpt><trkpt lat="46.588254743894225" lon="26.83682490819957"><ele>212.0</ele><time>2026-04-25T08:16:25Z</time></trkpt><trkpt lat="46.588326362544215" lon="26.836870216061516"><ele>212.00000000000003</ele><time>2026-04-25T08:16:26Z</time></trkpt><trkpt lat="46.5884002661955" lon="26.83692395584387"><ele>212.0</ele><time>2026-04-25T08:16:27Z</time></trkpt><trkpt lat="46.58846895575255" lon="26.83698480385263"><ele>212.0</ele><time>2026-04-25T08:16:28Z</time></trkpt><trkpt lat="46.58852020400086" lon="26.837052911313663"><ele>212.0</ele><time>2026-04-25T08:16:29Z</time></trkpt><trkpt lat="46.58855726802615" lon="26.837134089214352"><ele>212.00000000000003</ele><time>2026-04-25T08:16:30Z</time></trkpt><trkpt lat="46.58857046729369" lon="26.837294969949017"><ele>212.0</ele><time>2026-04-25T08:16:32Z</time></trkpt><trkpt lat="46.588534779966125" lon="26.837454288129596"><ele>212.00000000000003</ele><time>2026-04-25T08:16:34Z</time></trkpt><trkpt lat="46.58847981388507" lon="26.837618910761478"><ele>212.0</ele><time>2026-04-25T08:16:36Z</time></trkpt><trkpt lat="46.5884484141362" lon="26.83770301090167"><ele>212.0</ele><time>2026-04-25T08:16:37Z</time></trkpt><trkpt lat="46.58841185342221" lon="26.837784978712666"><ele>212.0</ele><time>2026-04-25T08:16:38Z</time></trkpt><trkpt lat="46.588380923335805" lon="26.837864822660976"><ele>212.00000000000003</ele><time>2026-04-25T08:16:39Z</time></trkpt><trkpt lat="46.58832678528524" lon="26.838030417381095"><ele>212.0</ele><time>2026-04-25T08:16:41Z</time></trkpt><trkpt lat="46.58828421977609" lon="26.838187149302435"><ele>211.33333333333334</ele><time>2026-04-25T08:16:43Z</time></trkpt><trkpt lat="46.588247635358336" lon="26.83832243409971"><ele>210.66666666666669</ele><time>2026-04-25T08:16:45Z</time></trkpt><trkpt lat="46.58822831439859" lon="26.8384112775316"><ele>210.0</ele><time>2026-04-25T08:16:47Z</time></trkpt><trkpt lat="46.588259841614" lon="26.838511952005064"><ele>209.33333333333331</ele><time>2026-04-25T08:16:50Z</time></trkpt><trkpt lat="46.58830518899436" lon="26.838610061306706"><ele>208.66666666666666</ele><time>2026-04-25T08:16:52Z</time></trkpt><trkpt lat="46.588360017004824" lon="26.838745151222206"><ele>208.0</ele><time>2026-04-25T08:16:54Z</time></trkpt><trkpt lat="46.58840787802327" lon="26.83887407069701"><ele>207.4</ele><time>2026-04-25T08:16:55.999Z</time></trkpt><trkpt lat="46.58843565401279" lon="26.83900765444743"><ele>206.8</ele><time>2026-04-25T08:16:57.999Z</time></trkpt><trkpt lat="46.588460766289266" lon="26.83915464919626"><ele>206.2</ele><time>2026-04-25T08:16:59.999Z</time></trkpt><trkpt lat="46.58848481389824" lon="26.839303031930022"><ele>205.6</ele><time>2026-04-25T08:17:01.999Z</time></trkpt><trkpt lat="46.58851749905591" lon="26.839438557175086"><ele>205.0</ele><time>2026-04-25T08:17:03.999Z</time></trkpt><trkpt lat="46.58855559324092" lon="26.839578593114517"><ele>203.6</ele><time>2026-04-25T08:17:05.999Z</time></trkpt><trkpt lat="46.58859572322776" lon="26.839713151835607"><ele>202.2</ele><time>2026-04-25T08:17:07.999Z</time></trkpt><trkpt lat="46.58866430075579" lon="26.839843446759385"><ele>200.8</ele><time>2026-04-25T08:17:09.999Z</time></trkpt><trkpt lat="46.588738733417486" lon="26.839960204636682"><ele>199.4</ele><time>2026-04-25T08:17:11.999Z</time></trkpt><trkpt lat="46.58882509556388" lon="26.840067945179097"><ele>198.0</ele><time>2026-04-25T08:17:13.999Z</time></trkpt><trkpt lat="46.5889192132102" lon="26.840154286280573"><ele>196.83333333333334</ele><time>2026-04-25T08:17:15.999Z</time></trkpt><trkpt lat="46.58897848065761" lon="26.840200004322046"><ele>195.66666666666666</ele><time>2026-04-25T08:17:16.999Z</time></trkpt><trkpt lat="46.58903885272391" lon="26.840233605454962"><ele>194.5</ele><time>2026-04-25T08:17:17.999Z</time></trkpt><trkpt lat="46.58914539956492" lon="26.84029666280735"><ele>193.33333333333331</ele><time>2026-04-25T08:17:20Z</time></trkpt><trkpt lat="46.58923223914988" lon="26.840351379987407"><ele>192.16666666666666</ele><time>2026-04-25T08:17:22Z</time></trkpt><trkpt lat="46.58933154828044" lon="26.840399509756566"><ele>191.0</ele><time>2026-04-25T08:17:24Z</time></trkpt><trkpt lat="46.58942164807513" lon="26.840469150020123"><ele>191.0</ele><time>2026-04-25T08:17:26Z</time></trkpt><trkpt lat="46.589460700427566" lon="26.84054502722074"><ele>191.0</ele><time>2026-04-25T08:17:27Z</time></trkpt><trkpt lat="46.58950697961333" lon="26.84061078560619"><ele>191.0</ele><time>2026-04-25T08:17:28Z</time></trkpt><trkpt lat="46.589588666059356" lon="26.84071969960345"><ele>191.0</ele><time>2026-04-25T08:17:30Z</time></trkpt><trkpt lat="46.58969080719274" lon="26.84082511347802"><ele>191.0</ele><time>2026-04-25T08:17:32Z</time></trkpt><trkpt lat="46.58974615701302" lon="26.840883754832852"><ele>191.0</ele><time>2026-04-25T08:17:33Z</time></trkpt><trkpt lat="46.589801523225276" lon="26.840937976670823"><ele>191.0</ele><time>2026-04-25T08:17:34Z</time></trkpt><trkpt lat="46.58989936508173" lon="26.840987373024486"><ele>191.0</ele><time>2026-04-25T08:17:36Z</time></trkpt><trkpt lat="46.59000602009305" lon="26.841041027120024"><ele>191.0</ele><time>2026-04-25T08:17:38Z</time></trkpt><trkpt lat="46.59008278637732" lon="26.841041295058417"><ele>191.0</ele><time>2026-04-25T08:17:39Z</time></trkpt><trkpt lat="46.59019693666483" lon="26.84102635727888"><ele>191.0</ele><time>2026-04-25T08:17:41Z</time></trkpt><trkpt lat="46.59029403121288" lon="26.84097797305683"><ele>190.5</ele><time>2026-04-25T08:17:43Z</time></trkpt><trkpt lat="46.59035113379652" lon="26.840929945700072"><ele>190.0</ele><time>2026-04-25T08:17:44Z</time></trkpt><trkpt lat="46.59040752587127" lon="26.84087345330445"><ele>189.5</ele><time>2026-04-25T08:17:45Z</time></trkpt><trkpt lat="46.59046448226348" lon="26.840810549823896"><ele>189.0</ele><time>2026-04-25T08:17:46Z</time></trkpt><trkpt lat="46.59051694401942" lon="26.84074458693693"><ele>188.5</ele><time>2026-04-25T08:17:47Z</time></trkpt><trkpt lat="46.59060512039326" lon="26.84062674702295"><ele>188.0</ele><time>2026-04-25T08:17:49Z</time></trkpt><trkpt lat="46.59068719386196" lon="26.840538820530412"><ele>188.0</ele><time>2026-04-25T08:17:51Z</time></trkpt><trkpt lat="46.590794753022166" lon="26.840484240404667"><ele>188.0</ele><time>2026-04-25T08:17:53Z</time></trkpt><trkpt lat="46.59085444554512" lon="26.840450895226986"><ele>188.0</ele><time>2026-04-25T08:17:54Z</time></trkpt><trkpt lat="46.590916010096734" lon="26.84047899978241"><ele>188.0</ele><time>2026-04-25T08:17:55Z</time></trkpt><trkpt lat="46.59097557718484" lon="26.84051647273501"><ele>188.0</ele><time>2026-04-25T08:17:56Z</time></trkpt><trkpt lat="46.5910666433114" lon="26.84060863508838"><ele>188.0</ele><time>2026-04-25T08:17:58Z</time></trkpt><trkpt lat="46.59114805131746" lon="26.840746126437423"><ele>187.83333333333331</ele><time>2026-04-25T08:18:00Z</time></trkpt><trkpt lat="46.591189148666594" lon="26.840828883647085"><ele>187.66666666666666</ele><time>2026-04-25T08:18:01Z</time></trkpt><trkpt lat="46.59123597206102" lon="26.840912950308883"><ele>187.5</ele><time>2026-04-25T08:18:02Z</time></trkpt><trkpt lat="46.591284790347714" lon="26.840997812836978"><ele>187.33333333333334</ele><time>2026-04-25T08:18:03Z</time></trkpt><trkpt lat="46.591336094315956" lon="26.841079473130105"><ele>187.16666666666669</ele><time>2026-04-25T08:18:04Z</time></trkpt><trkpt lat="46.59139241515316" lon="26.84115161380553"><ele>187.0</ele><time>2026-04-25T08:18:05Z</time></trkpt><trkpt lat="46.591458488619175" lon="26.841220929363068"><ele>187.33333333333334</ele><time>2026-04-25T08:18:06Z</time></trkpt><trkpt lat="46.59153012380189" lon="26.84127793605254"><ele>187.66666666666669</ele><time>2026-04-25T08:18:07Z</time></trkpt><trkpt lat="46.59160582447118" lon="26.84132730956231"><ele>188.0</ele><time>2026-04-25T08:18:08Z</time></trkpt><trkpt lat="46.591681544036774" lon="26.841373671599772"><ele>188.33333333333334</ele><time>2026-04-25T08:18:09Z</time></trkpt><trkpt lat="46.59175707097725" lon="26.841423607191615"><ele>188.66666666666666</ele><time>2026-04-25T08:18:10Z</time></trkpt><trkpt lat="46.591824887981204" lon="26.84145949238795"><ele>189.0</ele><time>2026-04-25T08:18:11Z</time></trkpt><trkpt lat="46.59189047875323" lon="26.841489275222084"><ele>189.0</ele><time>2026-04-25T08:18:12Z</time></trkpt><trkpt lat="46.59200537050607" lon="26.841503083515583"><ele>189.0</ele><time>2026-04-25T08:18:14Z</time></trkpt><trkpt lat="46.592072481409595" lon="26.841512181720443"><ele>189.0</ele><time>2026-04-25T08:18:15Z</time></trkpt><trkpt lat="46.5921419039115" lon="26.841501202900073"><ele>189.0</ele><time>2026-04-25T08:18:16Z</time></trkpt><trkpt lat="46.59220417834001" lon="26.841438135786348"><ele>189.0</ele><time>2026-04-25T08:18:17Z</time></trkpt><trkpt lat="46.592262607939425" lon="26.841388532816133"><ele>189.0</ele><time>2026-04-25T08:18:19Z</time></trkpt><trkpt lat="46.592331424019" lon="26.841329997395654"><ele>189.2</ele><time>2026-04-25T08:18:42Z</time></trkpt><trkpt lat="46.59241362215797" lon="26.841260012572924"><ele>189.39999999999998</ele><time>2026-04-25T08:18:44Z</time></trkpt><trkpt lat="46.59250444556558" lon="26.84112291834103"><ele>189.6</ele><time>2026-04-25T08:18:46Z</time></trkpt><trkpt lat="46.59254552434909" lon="26.841042647301755"><ele>189.8</ele><time>2026-04-25T08:18:47Z</time></trkpt><trkpt lat="46.59258700457129" lon="26.840961593091198"><ele>190.0</ele><time>2026-04-25T08:18:47.999Z</time></trkpt><trkpt lat="46.5926923301414" lon="26.84082768912518"><ele>190.0</ele><time>2026-04-25T08:18:49.999Z</time></trkpt><trkpt lat="46.59275925333193" lon="26.840751165952547"><ele>190.0</ele><time>2026-04-25T08:18:50.999Z</time></trkpt><trkpt lat="46.59283907863055" lon="26.840661868739236"><ele>190.0</ele><time>2026-04-25T08:18:51.999Z</time></trkpt><trkpt lat="46.5929226967561" lon="26.84056869336326"><ele>190.0</ele><time>2026-04-25T08:18:52.999Z</time></trkpt><trkpt lat="46.59300137213897" lon="26.840481025744403"><ele>190.0</ele><time>2026-04-25T08:18:53.999Z</time></trkpt><trkpt lat="46.59308078888277" lon="26.840392532173095"><ele>190.6</ele><time>2026-04-25T08:18:54.999Z</time></trkpt><trkpt lat="46.59316551724246" lon="26.84029852871857"><ele>191.2</ele><time>2026-04-25T08:18:55.999Z</time></trkpt><trkpt lat="46.5932539329517" lon="26.840200572226212"><ele>191.8</ele><time>2026-04-25T08:18:56.999Z</time></trkpt><trkpt lat="46.59334437642427" lon="26.840100342940374"><ele>192.4</ele><time>2026-04-25T08:18:57.999Z</time></trkpt><trkpt lat="46.593429999638424" lon="26.839986633402102"><ele>193.0</ele><time>2026-04-25T08:18:58.999Z</time></trkpt><trkpt lat="46.59351037890416" lon="26.83987776448567"><ele>193.0</ele><time>2026-04-25T08:18:59.999Z</time></trkpt><trkpt lat="46.593589975596885" lon="26.839770110679133"><ele>193.0</ele><time>2026-04-25T08:19:00.999Z</time></trkpt><trkpt lat="46.593658335046946" lon="26.839676569377932"><ele>193.0</ele><time>2026-04-25T08:19:01.999Z</time></trkpt><trkpt lat="46.59379081680487" lon="26.839477639727384"><ele>193.0</ele><time>2026-04-25T08:19:02.999Z</time></trkpt><trkpt lat="46.593873096769336" lon="26.839353410170816"><ele>194.0</ele><time>2026-04-25T08:19:03.999Z</time></trkpt><trkpt lat="46.5939622796941" lon="26.839212545814284"><ele>195.0</ele><time>2026-04-25T08:19:04.999Z</time></trkpt><trkpt lat="46.594046888871645" lon="26.839073065039763"><ele>196.0</ele><time>2026-04-25T08:19:05.999Z</time></trkpt><trkpt lat="46.594132526869444" lon="26.838932661395486"><ele>197.0</ele><time>2026-04-25T08:19:06.999Z</time></trkpt><trkpt lat="46.59421657003602" lon="26.838794872161802"><ele>197.0</ele><time>2026-04-25T08:19:07.999Z</time></trkpt><trkpt lat="46.59430230165402" lon="26.838653827984423"><ele>197.0</ele><time>2026-04-25T08:19:08.999Z</time></trkpt><trkpt lat="46.59438187958216" lon="26.83851022511322"><ele>197.0</ele><time>2026-04-25T08:19:09.999Z</time></trkpt><trkpt lat="46.59446311294036" lon="26.838365266770403"><ele>197.0</ele><time>2026-04-25T08:19:10.999Z</time></trkpt><trkpt lat="46.59454733679518" lon="26.838215096330867"><ele>198.75</ele><time>2026-04-25T08:19:11.999Z</time></trkpt><trkpt lat="46.594636342106995" lon="26.83808199383345"><ele>200.5</ele><time>2026-04-25T08:19:12.999Z</time></trkpt><trkpt lat="46.594726795745295" lon="26.837947038343103"><ele>202.25</ele><time>2026-04-25T08:19:13.999Z</time></trkpt><trkpt lat="46.59481663201422" lon="26.83781293702044"><ele>204.0</ele><time>2026-04-25T08:19:14.999Z</time></trkpt><trkpt lat="46.59490639174987" lon="26.837670218492512"><ele>203.0</ele><time>2026-04-25T08:19:15.999Z</time></trkpt><trkpt lat="46.59499218156967" lon="26.8375208359408"><ele>202.0</ele><time>2026-04-25T08:19:16.999Z</time></trkpt><trkpt lat="46.59507752445397" lon="26.83737223164579"><ele>201.0</ele><time>2026-04-25T08:19:17.999Z</time></trkpt><trkpt lat="46.595160050790334" lon="26.837219690707514"><ele>200.0</ele><time>2026-04-25T08:19:18.999Z</time></trkpt><trkpt lat="46.595230703270474" lon="26.83708702207064"><ele>200.0</ele><time>2026-04-25T08:19:19.999Z</time></trkpt><trkpt lat="46.595301332101364" lon="26.836954397871597"><ele>200.0</ele><time>2026-04-25T08:19:20.999Z</time></trkpt><trkpt lat="46.59537147779462" lon="26.836822680973587"><ele>200.0</ele><time>2026-04-25T08:19:21.999Z</time></trkpt><trkpt lat="46.59544313038502" lon="26.836683684097867"><ele>200.0</ele><time>2026-04-25T08:19:22.999Z</time></trkpt><trkpt lat="46.59551853819951" lon="26.836533681767325"><ele>200.0</ele><time>2026-04-25T08:19:23.999Z</time></trkpt><trkpt lat="46.59560187049746" lon="26.836367915857405"><ele>200.0</ele><time>2026-04-25T08:19:24.999Z</time></trkpt><trkpt lat="46.595679773540624" lon="26.836212950065907"><ele>200.0</ele><time>2026-04-25T08:19:26Z</time></trkpt><trkpt lat="46.59575621023893" lon="26.836059207511287"><ele>200.0</ele><time>2026-04-25T08:19:27Z</time></trkpt><trkpt lat="46.5958234049074" lon="26.835900473294853"><ele>200.0</ele><time>2026-04-25T08:19:28Z</time></trkpt><trkpt lat="46.59588291458145" lon="26.83572877128223"><ele>200.0</ele><time>2026-04-25T08:19:29Z</time></trkpt><trkpt lat="46.59593325540719" lon="26.835553716152372"><ele>200.0</ele><time>2026-04-25T08:19:30Z</time></trkpt><trkpt lat="46.59597865070789" lon="26.83537963135496"><ele>200.0</ele><time>2026-04-25T08:19:31Z</time></trkpt><trkpt lat="46.596015269424235" lon="26.835188916408242"><ele>200.0</ele><time>2026-04-25T08:19:32Z</time></trkpt><trkpt lat="46.596044446619274" lon="26.83501715030638"><ele>200.0</ele><time>2026-04-25T08:19:33Z</time></trkpt><trkpt lat="46.59607606141298" lon="26.834830295665416"><ele>200.0</ele><time>2026-04-25T08:19:34Z</time></trkpt><trkpt lat="46.59610624779238" lon="26.834651662892366"><ele>200.0</ele><time>2026-04-25T08:19:35Z</time></trkpt><trkpt lat="46.59613467113515" lon="26.834484485259992"><ele>200.0</ele><time>2026-04-25T08:19:36Z</time></trkpt><trkpt lat="46.59616224038049" lon="26.83432829267136"><ele>200.0</ele><time>2026-04-25T08:19:37Z</time></trkpt><trkpt lat="46.596188572180814" lon="26.83418058530141"><ele>200.0</ele><time>2026-04-25T08:19:38Z</time></trkpt><trkpt lat="46.59621265769916" lon="26.83403415027702"><ele>200.0</ele><time>2026-04-25T08:19:39Z</time></trkpt><trkpt lat="46.596237405156245" lon="26.83387734531979"><ele>200.0</ele><time>2026-04-25T08:19:40Z</time></trkpt><trkpt lat="46.59625984517504" lon="26.83369437956121"><ele>200.25</ele><time>2026-04-25T08:19:41Z</time></trkpt><trkpt lat="46.596271111670724" lon="26.833520407262018"><ele>200.5</ele><time>2026-04-25T08:19:42Z</time></trkpt><trkpt lat="46.596279261024144" lon="26.833325717409974"><ele>200.75</ele><time>2026-04-25T08:19:43Z</time></trkpt><trkpt lat="46.59627271457805" lon="26.83314730578995"><ele>201.0</ele><time>2026-04-25T08:19:44Z</time></trkpt><trkpt lat="46.59626598263513" lon="26.83296490619484"><ele>200.0</ele><time>2026-04-25T08:19:45Z</time></trkpt><trkpt lat="46.59625897069539" lon="26.83277259147545"><ele>199.0</ele><time>2026-04-25T08:19:46Z</time></trkpt><trkpt lat="46.596249633966714" lon="26.83256869175496"><ele>198.0</ele><time>2026-04-25T08:19:47Z</time></trkpt><trkpt lat="46.596237238669886" lon="26.832358853754624"><ele>197.0</ele><time>2026-04-25T08:19:48Z</time></trkpt><trkpt lat="46.596224605256964" lon="26.832146123208148"><ele>196.5</ele><time>2026-04-25T08:19:49Z</time></trkpt><trkpt lat="46.59621176909267" lon="26.83193328541013"><ele>196.0</ele><time>2026-04-25T08:19:50Z</time></trkpt><trkpt lat="46.596177047944906" lon="26.831718712677297"><ele>195.5</ele><time>2026-04-25T08:19:51Z</time></trkpt><trkpt lat="46.59612893362054" lon="26.831511512309866"><ele>195.0</ele><time>2026-04-25T08:19:52Z</time></trkpt><trkpt lat="46.596059326664275" lon="26.831310434410522"><ele>194.75</ele><time>2026-04-25T08:19:53Z</time></trkpt><trkpt lat="46.595994961882305" lon="26.83111825097436"><ele>194.5</ele><time>2026-04-25T08:19:54Z</time></trkpt><trkpt lat="46.59593338485845" lon="26.830934414826928"><ele>194.25</ele><time>2026-04-25T08:19:55Z</time></trkpt><trkpt lat="46.59587179175118" lon="26.830749228248948"><ele>194.0</ele><time>2026-04-25T08:19:56Z</time></trkpt><trkpt lat="46.59582123981046" lon="26.830569837301773"><ele>194.0</ele><time>2026-04-25T08:19:57Z</time></trkpt><trkpt lat="46.595785385348414" lon="26.83039554224013"><ele>194.0</ele><time>2026-04-25T08:19:58Z</time></trkpt><trkpt lat="46.59575652368162" lon="26.83020789075904"><ele>194.0</ele><time>2026-04-25T08:19:59Z</time></trkpt><trkpt lat="46.59573059511521" lon="26.83001685722001"><ele>194.0</ele><time>2026-04-25T08:20:00Z</time></trkpt><trkpt lat="46.59572848685783" lon="26.8298400802946"><ele>195.0</ele><time>2026-04-25T08:20:01Z</time></trkpt><trkpt lat="46.595721037562946" lon="26.829656689716472"><ele>196.0</ele><time>2026-04-25T08:20:02Z</time></trkpt><trkpt lat="46.59570787081752" lon="26.829467257131977"><ele>197.0</ele><time>2026-04-25T08:20:03Z</time></trkpt><trkpt lat="46.59568384699074" lon="26.82929511666723"><ele>198.0</ele><time>2026-04-25T08:20:04Z</time></trkpt><trkpt lat="46.59561951048309" lon="26.829121644902948"><ele>197.0</ele><time>2026-04-25T08:20:05Z</time></trkpt><trkpt lat="46.595511893210904" lon="26.82897255404023"><ele>196.0</ele><time>2026-04-25T08:20:06Z</time></trkpt><trkpt lat="46.595408981782064" lon="26.82883904346034"><ele>195.0</ele><time>2026-04-25T08:20:07Z</time></trkpt><trkpt lat="46.59531108787404" lon="26.82872147976864"><ele>194.0</ele><time>2026-04-25T08:20:08Z</time></trkpt><trkpt lat="46.595205860370214" lon="26.828595346576357"><ele>195.75</ele><time>2026-04-25T08:20:09Z</time></trkpt><trkpt lat="46.595114820968234" lon="26.82846483116321"><ele>197.5</ele><time>2026-04-25T08:20:10Z</time></trkpt><trkpt lat="46.59502120736404" lon="26.828308438007618"><ele>199.25</ele><time>2026-04-25T08:20:11Z</time></trkpt><trkpt lat="46.59494534340527" lon="26.82814500159744"><ele>201.0</ele><time>2026-04-25T08:20:12Z</time></trkpt><trkpt lat="46.59487871706893" lon="26.82797015506903"><ele>201.0</ele><time>2026-04-25T08:20:13Z</time></trkpt><trkpt lat="46.59482690376778" lon="26.82778440633018"><ele>201.0</ele><time>2026-04-25T08:20:14Z</time></trkpt><trkpt lat="46.594789218392556" lon="26.827583312355216"><ele>201.0</ele><time>2026-04-25T08:20:15Z</time></trkpt><trkpt lat="46.59476687561863" lon="26.827369856613053"><ele>201.0</ele><time>2026-04-25T08:20:16Z</time></trkpt><trkpt lat="46.594760476877" lon="26.827157673153323"><ele>202.66666666666669</ele><time>2026-04-25T08:20:17Z</time></trkpt><trkpt lat="46.594762956516604" lon="26.826940647397738"><ele>204.33333333333334</ele><time>2026-04-25T08:20:18Z</time></trkpt><trkpt lat="46.59476422127643" lon="26.826713188387707"><ele>206.0</ele><time>2026-04-25T08:20:19Z</time></trkpt><trkpt lat="46.59476550710139" lon="26.826490006734986"><ele>207.0</ele><time>2026-04-25T08:20:20Z</time></trkpt><trkpt lat="46.59477043536591" lon="26.826262422503266"><ele>208.0</ele><time>2026-04-25T08:20:21Z</time></trkpt><trkpt lat="46.594778757592294" lon="26.8260300370162"><ele>209.0</ele><time>2026-04-25T08:20:22Z</time></trkpt><trkpt lat="46.59478722503122" lon="26.82580025593713"><ele>209.0</ele><time>2026-04-25T08:20:23Z</time></trkpt><trkpt lat="46.59481981933835" lon="26.82559553674956"><ele>209.0</ele><time>2026-04-25T08:20:24Z</time></trkpt><trkpt lat="46.59485297451969" lon="26.82537116123473"><ele>209.0</ele><time>2026-04-25T08:20:25Z</time></trkpt><trkpt lat="46.594888677652506" lon="26.825154902785552"><ele>207.33333333333334</ele><time>2026-04-25T08:20:26Z</time></trkpt><trkpt lat="46.594928896592556" lon="26.82494399156014"><ele>205.66666666666669</ele><time>2026-04-25T08:20:27Z</time></trkpt><trkpt lat="46.59497021573976" lon="26.824729059961722"><ele>204.0</ele><time>2026-04-25T08:20:28Z</time></trkpt><trkpt lat="46.59501194659269" lon="26.82451192986987"><ele>203.0</ele><time>2026-04-25T08:20:29Z</time></trkpt><trkpt lat="46.595054330479016" lon="26.82428983066678"><ele>202.0</ele><time>2026-04-25T08:20:30Z</time></trkpt><trkpt lat="46.59509701952782" lon="26.824068602587452"><ele>201.0</ele><time>2026-04-25T08:20:31Z</time></trkpt><trkpt lat="46.59514104021077" lon="26.823841231543913"><ele>201.0</ele><time>2026-04-25T08:20:32Z</time></trkpt><trkpt lat="46.595181374178594" lon="26.823629478962946"><ele>201.0</ele><time>2026-04-25T08:20:33Z</time></trkpt><trkpt lat="46.59522250152502" lon="26.823413824641747"><ele>201.0</ele><time>2026-04-25T08:20:34Z</time></trkpt><trkpt lat="46.59526614076132" lon="26.82318589174089"><ele>200.0</ele><time>2026-04-25T08:20:35Z</time></trkpt><trkpt lat="46.59530641095478" lon="26.82297644310332"><ele>199.0</ele><time>2026-04-25T08:20:36Z</time></trkpt><trkpt lat="46.59534604774824" lon="26.822772643520416"><ele>198.0</ele><time>2026-04-25T08:20:37Z</time></trkpt><trkpt lat="46.59538294089283" lon="26.822581038301944"><ele>197.0</ele><time>2026-04-25T08:20:38Z</time></trkpt><trkpt lat="46.595418384400276" lon="26.822394977246844"><ele>201.25</ele><time>2026-04-25T08:20:39Z</time></trkpt><trkpt lat="46.59545447635668" lon="26.822204852257265"><ele>205.5</ele><time>2026-04-25T08:20:40Z</time></trkpt><trkpt lat="46.59548839855187" lon="26.822006890705467"><ele>209.75</ele><time>2026-04-25T08:20:41Z</time></trkpt><trkpt lat="46.59551006026587" lon="26.821797280637416"><ele>214.0</ele><time>2026-04-25T08:20:42Z</time></trkpt><trkpt lat="46.595515778199385" lon="26.821588951780587"><ele>214.0</ele><time>2026-04-25T08:20:43Z</time></trkpt><trkpt lat="46.59550529936332" lon="26.821368288473476"><ele>214.0</ele><time>2026-04-25T08:20:44Z</time></trkpt><trkpt lat="46.59549729918352" lon="26.82115157505409"><ele>214.0</ele><time>2026-04-25T08:20:45Z</time></trkpt><trkpt lat="46.59548988301846" lon="26.820933601666894"><ele>212.0</ele><time>2026-04-25T08:20:46Z</time></trkpt><trkpt lat="46.595485228374095" lon="26.82072042058763"><ele>210.0</ele><time>2026-04-25T08:20:47Z</time></trkpt><trkpt lat="46.595497798701906" lon="26.820512171646246"><ele>208.0</ele><time>2026-04-25T08:20:47.999Z</time></trkpt><trkpt lat="46.595541199848206" lon="26.820325710271717"><ele>206.0</ele><time>2026-04-25T08:20:48.999Z</time></trkpt><trkpt lat="46.59560073507353" lon="26.820122297325057"><ele>205.25</ele><time>2026-04-25T08:20:49.999Z</time></trkpt><trkpt lat="46.59566352040598" lon="26.819933748519674"><ele>204.5</ele><time>2026-04-25T08:20:50.999Z</time></trkpt><trkpt lat="46.595736878249824" lon="26.81974997751349"><ele>203.75</ele><time>2026-04-25T08:20:51.999Z</time></trkpt><trkpt lat="46.595810044530865" lon="26.819557449750995"><ele>203.0</ele><time>2026-04-25T08:20:52.999Z</time></trkpt><trkpt lat="46.595870773527196" lon="26.819370347951207"><ele>202.33333333333334</ele><time>2026-04-25T08:20:53.999Z</time></trkpt><trkpt lat="46.59591479944868" lon="26.81916308167038"><ele>201.66666666666669</ele><time>2026-04-25T08:20:54.999Z</time></trkpt><trkpt lat="46.59593587640593" lon="26.818947700540022"><ele>201.0</ele><time>2026-04-25T08:20:55.999Z</time></trkpt><trkpt lat="46.59593281081763" lon="26.818722402537997"><ele>201.0</ele><time>2026-04-25T08:20:56.999Z</time></trkpt><trkpt lat="46.595930912843976" lon="26.81850161827997"><ele>201.0</ele><time>2026-04-25T08:20:57.999Z</time></trkpt><trkpt lat="46.5959266724047" lon="26.81827548672132"><ele>201.0</ele><time>2026-04-25T08:20:58.999Z</time></trkpt><trkpt lat="46.59592125645436" lon="26.818051235003864"><ele>200.66666666666669</ele><time>2026-04-25T08:20:59.999Z</time></trkpt><trkpt lat="46.595915618212665" lon="26.817818733551665"><ele>200.33333333333334</ele><time>2026-04-25T08:21:00.999Z</time></trkpt><trkpt lat="46.595911335786596" lon="26.817589853203543"><ele>200.0</ele><time>2026-04-25T08:21:01.999Z</time></trkpt><trkpt lat="46.595914466320856" lon="26.81735301374336"><ele>199.66666666666669</ele><time>2026-04-25T08:21:02.999Z</time></trkpt><trkpt lat="46.595917368857315" lon="26.817133423058362"><ele>199.33333333333331</ele><time>2026-04-25T08:21:03.999Z</time></trkpt><trkpt lat="46.59592036538956" lon="26.81690672144429"><ele>199.0</ele><time>2026-04-25T08:21:04.999Z</time></trkpt><trkpt lat="46.59592344686552" lon="26.81667359324835"><ele>199.0</ele><time>2026-04-25T08:21:05.999Z</time></trkpt><trkpt lat="46.59592618975214" lon="26.816452758539036"><ele>199.0</ele><time>2026-04-25T08:21:06.999Z</time></trkpt><trkpt lat="46.595928609086634" lon="26.81624750841121"><ele>199.0</ele><time>2026-04-25T08:21:07.999Z</time></trkpt><trkpt lat="46.59593879898617" lon="26.81604265419926"><ele>199.0</ele><time>2026-04-25T08:21:08.999Z</time></trkpt><trkpt lat="46.5959485609845" lon="26.81582890978102"><ele>199.0</ele><time>2026-04-25T08:21:09.999Z</time></trkpt><trkpt lat="46.5959582531494" lon="26.815617651210783"><ele>199.0</ele><time>2026-04-25T08:21:10.999Z</time></trkpt><trkpt lat="46.5959687469916" lon="26.815391767812688"><ele>199.0</ele><time>2026-04-25T08:21:11.999Z</time></trkpt><trkpt lat="46.59597871135856" lon="26.815178314805095"><ele>199.0</ele><time>2026-04-25T08:21:12.999Z</time></trkpt><trkpt lat="46.595988643408795" lon="26.814965554282107"><ele>199.0</ele><time>2026-04-25T08:21:13.999Z</time></trkpt><trkpt lat="46.59600120873615" lon="26.814741052226122"><ele>199.0</ele><time>2026-04-25T08:21:14.999Z</time></trkpt><trkpt lat="46.59601336106515" lon="26.814522768041606"><ele>199.0</ele><time>2026-04-25T08:21:15.999Z</time></trkpt><trkpt lat="46.59602605941506" lon="26.814294676253287"><ele>199.0</ele><time>2026-04-25T08:21:16.999Z</time></trkpt><trkpt lat="46.59603863147793" lon="26.814067249921354"><ele>199.0</ele><time>2026-04-25T08:21:17.999Z</time></trkpt><trkpt lat="46.596052442761376" lon="26.813844996001453"><ele>199.0</ele><time>2026-04-25T08:21:18.999Z</time></trkpt><trkpt lat="46.59607078734816" lon="26.813614351837213"><ele>199.33333333333331</ele><time>2026-04-25T08:21:19.999Z</time></trkpt><trkpt lat="46.59608907494714" lon="26.813384423931996"><ele>199.66666666666669</ele><time>2026-04-25T08:21:20.999Z</time></trkpt><trkpt lat="46.59610734459906" lon="26.81315472273157"><ele>200.0</ele><time>2026-04-25T08:21:21.999Z</time></trkpt><trkpt lat="46.59613529717945" lon="26.812936068498416"><ele>200.0</ele><time>2026-04-25T08:21:22.999Z</time></trkpt><trkpt lat="46.59616421781278" lon="26.812703856861656"><ele>200.0</ele><time>2026-04-25T08:21:23.999Z</time></trkpt><trkpt lat="46.59619155092615" lon="26.81248439131667"><ele>200.0</ele><time>2026-04-25T08:21:24.999Z</time></trkpt><trkpt lat="46.596221181600974" lon="26.81226357531168"><ele>200.0</ele><time>2026-04-25T08:21:25.999Z</time></trkpt><trkpt lat="46.596253453958056" lon="26.81202840774412"><ele>200.0</ele><time>2026-04-25T08:21:26.999Z</time></trkpt><trkpt lat="46.59628548889044" lon="26.811794971176447"><ele>200.0</ele><time>2026-04-25T08:21:27.999Z</time></trkpt><trkpt lat="46.596316437351696" lon="26.81156945136156"><ele>200.0</ele><time>2026-04-25T08:21:28.999Z</time></trkpt><trkpt lat="46.59634819017768" lon="26.81133807011163"><ele>200.0</ele><time>2026-04-25T08:21:29.999Z</time></trkpt><trkpt lat="46.59637920943106" lon="26.811110271134766"><ele>200.0</ele><time>2026-04-25T08:21:30.999Z</time></trkpt><trkpt lat="46.5964085830254" lon="26.810894549899512"><ele>200.0</ele><time>2026-04-25T08:21:32Z</time></trkpt><trkpt lat="46.59644001835659" lon="26.810668364744565"><ele>200.0</ele><time>2026-04-25T08:21:33Z</time></trkpt><trkpt lat="46.596469290606024" lon="26.810453703936403"><ele>200.0</ele><time>2026-04-25T08:21:34Z</time></trkpt><trkpt lat="46.596499284884324" lon="26.810233237443992"><ele>200.5</ele><time>2026-04-25T08:21:35Z</time></trkpt><trkpt lat="46.596527612877" lon="26.81002651054958"><ele>201.0</ele><time>2026-04-25T08:21:36Z</time></trkpt><trkpt lat="46.596557447492565" lon="26.80980878875092"><ele>201.5</ele><time>2026-04-25T08:21:37Z</time></trkpt><trkpt lat="46.596586575438025" lon="26.809596224150233"><ele>202.0</ele><time>2026-04-25T08:21:38Z</time></trkpt><trkpt lat="46.59661510795646" lon="26.809388004814906"><ele>202.0</ele><time>2026-04-25T08:21:39Z</time></trkpt><trkpt lat="46.596644349880236" lon="26.809174359053088"><ele>202.0</ele><time>2026-04-25T08:21:40Z</time></trkpt><trkpt lat="46.596672631086165" lon="26.808967224456495"><ele>202.0</ele><time>2026-04-25T08:21:41Z</time></trkpt><trkpt lat="46.59670173842369" lon="26.808754040112568"><ele>202.0</ele><time>2026-04-25T08:21:42Z</time></trkpt><trkpt lat="46.5967305026071" lon="26.808544205054865"><ele>202.0</ele><time>2026-04-25T08:21:43Z</time></trkpt><trkpt lat="46.596759228372456" lon="26.808335290493144"><ele>202.0</ele><time>2026-04-25T08:21:44Z</time></trkpt><trkpt lat="46.59678713821641" lon="26.808135343122586"><ele>202.0</ele><time>2026-04-25T08:21:45Z</time></trkpt><trkpt lat="46.59681560221171" lon="26.80793677215041"><ele>202.0</ele><time>2026-04-25T08:21:46Z</time></trkpt><trkpt lat="46.59684417467473" lon="26.807737444083138"><ele>202.25</ele><time>2026-04-25T08:21:47Z</time></trkpt><trkpt lat="46.59687180453678" lon="26.807535663520458"><ele>202.5</ele><time>2026-04-25T08:21:48Z</time></trkpt><trkpt lat="46.59689856656409" lon="26.807343296860335"><ele>202.75</ele><time>2026-04-25T08:21:49Z</time></trkpt><trkpt lat="46.59692548651762" lon="26.807165608203853"><ele>203.0</ele><time>2026-04-25T08:21:50Z</time></trkpt><trkpt lat="46.59695588385289" lon="26.807007073958843"><ele>203.0</ele><time>2026-04-25T08:21:51Z</time></trkpt><trkpt lat="46.597001823991214" lon="26.806856559290246"><ele>203.0</ele><time>2026-04-25T08:21:52Z</time></trkpt><trkpt lat="46.59707159701684" lon="26.80672686463532"><ele>203.0</ele><time>2026-04-25T08:21:53Z</time></trkpt><trkpt lat="46.59715531684947" lon="26.80661140434742"><ele>203.0</ele><time>2026-04-25T08:21:54Z</time></trkpt><trkpt lat="46.59724737289048" lon="26.806505855238672"><ele>205.0</ele><time>2026-04-25T08:21:55Z</time></trkpt><trkpt lat="46.59733905355154" lon="26.806410429778055"><ele>207.0</ele><time>2026-04-25T08:21:56Z</time></trkpt><trkpt lat="46.59743123317445" lon="26.806314138287814"><ele>209.0</ele><time>2026-04-25T08:21:57Z</time></trkpt><trkpt lat="46.59752192721444" lon="26.806217716388765"><ele>211.0</ele><time>2026-04-25T08:21:58Z</time></trkpt><trkpt lat="46.59760643786208" lon="26.806127445735676"><ele>213.0</ele><time>2026-04-25T08:21:59Z</time></trkpt><trkpt lat="46.59768695622194" lon="26.806038939781484"><ele>212.66666666666666</ele><time>2026-04-25T08:22:00Z</time></trkpt><trkpt lat="46.59775757070661" lon="26.805972251071136"><ele>212.33333333333331</ele><time>2026-04-25T08:22:01Z</time></trkpt><trkpt lat="46.59781892875051" lon="26.805912954506507"><ele>212.0</ele><time>2026-04-25T08:22:02Z</time></trkpt><trkpt lat="46.597899746604156" lon="26.805834777335274"><ele>211.66666666666666</ele><time>2026-04-25T08:22:04Z</time></trkpt><trkpt lat="46.597883979559384" lon="26.805699809202267"><ele>211.33333333333331</ele><time>2026-04-25T08:22:05Z</time></trkpt><trkpt lat="46.597929243247954" lon="26.805599076983956"><ele>211.0</ele><time>2026-04-25T08:22:08Z</time></trkpt><trkpt lat="46.598009041141445" lon="26.80572905784815"><ele>211.0</ele><time>2026-04-25T08:22:09Z</time></trkpt><trkpt lat="46.5979931534257" lon="26.805494740944653"><ele>211.0</ele><time>2026-04-25T08:22:12Z</time></trkpt><trkpt lat="46.59806181154791" lon="26.805407427914766"><ele>211.0</ele><time>2026-04-25T08:22:15Z</time></trkpt><trkpt lat="46.598094081635594" lon="26.805302057591977"><ele>211.0</ele><time>2026-04-25T08:22:18Z</time></trkpt><trkpt lat="46.598151379421346" lon="26.80526220782752"><ele>211.0</ele><time>2026-04-25T08:22:20Z</time></trkpt><trkpt lat="46.598154114501384" lon="26.80512033077963"><ele>210.14285714285714</ele><time>2026-04-25T08:22:23Z</time></trkpt><trkpt lat="46.59814938435879" lon="26.80501600436325"><ele>209.28571428571428</ele><time>2026-04-25T08:22:25Z</time></trkpt><trkpt lat="46.59811562388896" lon="26.80492228493277"><ele>208.42857142857144</ele><time>2026-04-25T08:22:28Z</time></trkpt><trkpt lat="46.59808412335904" lon="26.804834837524176"><ele>207.57142857142856</ele><time>2026-04-25T08:22:31Z</time></trkpt><trkpt lat="46.59804389066316" lon="26.804740868552695"><ele>206.7142857142857</ele><time>2026-04-25T08:22:34Z</time></trkpt><trkpt lat="46.59800262912256" lon="26.804652704202876"><ele>205.85714285714286</ele><time>2026-04-25T08:22:37Z</time></trkpt><trkpt lat="46.59795951327733" lon="26.80456533169841"><ele>205.0</ele><time>2026-04-25T08:22:39.999Z</time></trkpt><trkpt lat="46.59781135260763" lon="26.804620165811908"><ele>205.0</ele><time>2026-04-25T08:23:21.999Z</time></trkpt><trkpt lat="46.597721296488174" lon="26.80460341725717"><ele>205.0</ele><time>2026-04-25T08:23:24.999Z</time></trkpt><trkpt lat="46.59762919371324" lon="26.804579108674645"><ele>205.0</ele><time>2026-04-25T08:23:26.999Z</time></trkpt><trkpt lat="46.597513771777415" lon="26.804544154693914"><ele>205.0</ele><time>2026-04-25T08:23:28.999Z</time></trkpt><trkpt lat="46.59740750134807" lon="26.804507895478174"><ele>205.0</ele><time>2026-04-25T08:23:30.999Z</time></trkpt><trkpt lat="46.59729793141972" lon="26.804470253453673"><ele>205.0</ele><time>2026-04-25T08:23:32.999Z</time></trkpt><trkpt lat="46.59720757288753" lon="26.80437455717094"><ele>205.0</ele><time>2026-04-25T08:23:34.999Z</time></trkpt><trkpt lat="46.59711825272618" lon="26.804271273104447"><ele>205.0</ele><time>2026-04-25T08:23:36.999Z</time></trkpt><trkpt lat="46.597066251297775" lon="26.80421147005652"><ele>205.0</ele><time>2026-04-25T08:23:38Z</time></trkpt><trkpt lat="46.596967233882744" lon="26.804097597435838"><ele>205.0</ele><time>2026-04-25T08:23:40Z</time></trkpt><trkpt lat="46.59685606881335" lon="26.804091792799007"><ele>205.4</ele><time>2026-04-25T08:23:41Z</time></trkpt><trkpt lat="46.59673282320565" lon="26.804078776519354"><ele>205.8</ele><time>2026-04-25T08:23:43Z</time></trkpt><trkpt lat="46.596624549019914" lon="26.804068624545085"><ele>206.2</ele><time>2026-04-25T08:23:45Z</time></trkpt><trkpt lat="46.59650702677407" lon="26.804056172242152"><ele>206.6</ele><time>2026-04-25T08:23:47Z</time></trkpt><trkpt lat="46.596445341322145" lon="26.80408766444104"><ele>207.0</ele><time>2026-04-25T08:23:48Z</time></trkpt><trkpt lat="46.596326379936556" lon="26.804087381592897"><ele>207.0</ele><time>2026-04-25T08:23:50Z</time></trkpt><trkpt lat="46.59623150749643" lon="26.80412123695977"><ele>207.0</ele><time>2026-04-25T08:23:52Z</time></trkpt><trkpt lat="46.596112897126886" lon="26.804144942527092"><ele>207.0</ele><time>2026-04-25T08:23:54Z</time></trkpt><trkpt lat="46.5960510488729" lon="26.804249963132747"><ele>207.0</ele><time>2026-04-25T08:23:56Z</time></trkpt><trkpt lat="46.59599911491882" lon="26.804312624496852"><ele>207.0</ele><time>2026-04-25T08:23:57Z</time></trkpt><trkpt lat="46.59594951563748" lon="26.804371218932033"><ele>207.0</ele><time>2026-04-25T08:23:58Z</time></trkpt><trkpt lat="46.59586655547323" lon="26.804480008082503"><ele>206.5</ele><time>2026-04-25T08:24:00Z</time></trkpt><trkpt lat="46.59580721830265" lon="26.804532484428663"><ele>206.0</ele><time>2026-04-25T08:24:01Z</time></trkpt><trkpt lat="46.595757744127454" lon="26.804607115232447"><ele>205.5</ele><time>2026-04-25T08:24:02Z</time></trkpt><trkpt lat="46.59570530927011" lon="26.804678167718684"><ele>205.0</ele><time>2026-04-25T08:24:03Z</time></trkpt><trkpt lat="46.59561992601046" lon="26.804823037041423"><ele>204.5</ele><time>2026-04-25T08:24:05Z</time></trkpt><trkpt lat="46.59557196605374" lon="26.80488911159506"><ele>204.0</ele><time>2026-04-25T08:24:06Z</time></trkpt><trkpt lat="46.59552283999608" lon="26.80495678930181"><ele>204.0</ele><time>2026-04-25T08:24:07Z</time></trkpt><trkpt lat="46.595433452269575" lon="26.80492774405154"><ele>204.0</ele><time>2026-04-25T08:24:08Z</time></trkpt><trkpt lat="46.595366001469884" lon="26.804947383142924"><ele>204.0</ele><time>2026-04-25T08:24:09Z</time></trkpt><trkpt lat="46.59524915349578" lon="26.804984022799882"><ele>204.0</ele><time>2026-04-25T08:24:11Z</time></trkpt><trkpt lat="46.595174318736234" lon="26.805006892952957"><ele>204.0</ele><time>2026-04-25T08:24:12Z</time></trkpt><trkpt lat="46.595104763439565" lon="26.805043484833607"><ele>204.0</ele><time>2026-04-25T08:24:13Z</time></trkpt><trkpt lat="46.595033622992226" lon="26.805035457987692"><ele>204.79999999999998</ele><time>2026-04-25T08:24:14Z</time></trkpt><trkpt lat="46.594965438977404" lon="26.805047848690855"><ele>205.6</ele><time>2026-04-25T08:24:15Z</time></trkpt><trkpt lat="46.59487252489333" lon="26.804984473067"><ele>206.4</ele><time>2026-04-25T08:24:17Z</time></trkpt><trkpt lat="46.59477920826374" lon="26.80492134236997"><ele>207.2</ele><time>2026-04-25T08:24:19Z</time></trkpt><trkpt lat="46.594678985202286" lon="26.804851776691414"><ele>208.0</ele><time>2026-04-25T08:24:21Z</time></trkpt><trkpt lat="46.59457631180757" lon="26.804773274555615"><ele>208.4</ele><time>2026-04-25T08:24:23Z</time></trkpt><trkpt lat="46.59448470527451" lon="26.804657453850094"><ele>208.8</ele><time>2026-04-25T08:24:25Z</time></trkpt><trkpt lat="46.59438802547962" lon="26.80459071663824"><ele>209.2</ele><time>2026-04-25T08:24:27Z</time></trkpt><trkpt lat="46.594291104626095" lon="26.804501230009787"><ele>209.6</ele><time>2026-04-25T08:24:29Z</time></trkpt><trkpt lat="46.59424499021904" lon="26.8044282702764"><ele>210.0</ele><time>2026-04-25T08:24:30Z</time></trkpt><trkpt lat="46.594172237015705" lon="26.804313937536005"><ele>211.16666666666666</ele><time>2026-04-25T08:24:32Z</time></trkpt><trkpt lat="46.59412717294721" lon="26.80424285114706"><ele>212.33333333333331</ele><time>2026-04-25T08:24:33Z</time></trkpt><trkpt lat="46.594091131891865" lon="26.80406686622093"><ele>213.5</ele><time>2026-04-25T08:24:35Z</time></trkpt><trkpt lat="46.59407003833436" lon="26.80397029950842"><ele>214.66666666666666</ele><time>2026-04-25T08:24:36Z</time></trkpt><trkpt lat="46.59403679499028" lon="26.80387751752785"><ele>215.83333333333331</ele><time>2026-04-25T08:24:37Z</time></trkpt><trkpt lat="46.59403185348883" lon="26.803775514606194"><ele>217.0</ele><time>2026-04-25T08:24:38Z</time></trkpt><trkpt lat="46.594018487815276" lon="26.803677860178908"><ele>217.0</ele><time>2026-04-25T08:24:39Z</time></trkpt><trkpt lat="46.59401032152321" lon="26.803577748401334"><ele>217.0</ele><time>2026-04-25T08:24:40Z</time></trkpt><trkpt lat="46.59402406183222" lon="26.803472678653772"><ele>217.0</ele><time>2026-04-25T08:24:41Z</time></trkpt><trkpt lat="46.59402943261145" lon="26.80336803050358"><ele>217.0</ele><time>2026-04-25T08:24:42Z</time></trkpt><trkpt lat="46.594012010175035" lon="26.80326682526395"><ele>217.0</ele><time>2026-04-25T08:24:43Z</time></trkpt><trkpt lat="46.59401855248937" lon="26.80317248300255"><ele>217.0</ele><time>2026-04-25T08:24:44Z</time></trkpt><trkpt lat="46.594021287472216" lon="26.803072391651725"><ele>217.0</ele><time>2026-04-25T08:24:45Z</time></trkpt><trkpt lat="46.59404290845117" lon="26.802887407215678"><ele>217.83333333333331</ele><time>2026-04-25T08:24:47Z</time></trkpt><trkpt lat="46.59404855067789" lon="26.802786079837137"><ele>218.66666666666666</ele><time>2026-04-25T08:24:48Z</time></trkpt><trkpt lat="46.59394732557422" lon="26.802688609336833"><ele>219.5</ele><time>2026-04-25T08:24:49Z</time></trkpt><trkpt lat="46.59389355540255" lon="26.802625933005622"><ele>220.33333333333331</ele><time>2026-04-25T08:24:49.999Z</time></trkpt><trkpt lat="46.593831952798396" lon="26.80255913428092"><ele>221.16666666666666</ele><time>2026-04-25T08:24:50.999Z</time></trkpt><trkpt lat="46.593774847575254" lon="26.802497524723915"><ele>222.0</ele><time>2026-04-25T08:24:51.999Z</time></trkpt><trkpt lat="46.593719285252206" lon="26.802437579802078"><ele>224.2</ele><time>2026-04-25T08:24:52.999Z</time></trkpt><trkpt lat="46.59366258219232" lon="26.802376349547917"><ele>226.39999999999998</ele><time>2026-04-25T08:24:53.999Z</time></trkpt><trkpt lat="46.59360501819997" lon="26.80231350236389"><ele>228.60000000000002</ele><time>2026-04-25T08:24:54.999Z</time></trkpt><trkpt lat="46.59355559686636" lon="26.802140467453363"><ele>230.8</ele><time>2026-04-25T08:24:55.999Z</time></trkpt><trkpt lat="46.593511014994526" lon="26.80198214060593"><ele>233.0</ele><time>2026-04-25T08:24:57.999Z</time></trkpt><trkpt lat="46.59348717535849" lon="26.801897012699268"><ele>231.57142857142858</ele><time>2026-04-25T08:24:58.999Z</time></trkpt><trkpt lat="46.593471840662936" lon="26.801794738080382"><ele>230.14285714285714</ele><time>2026-04-25T08:24:59.999Z</time></trkpt><trkpt lat="46.593439155137226" lon="26.80171445583016"><ele>228.71428571428572</ele><time>2026-04-25T08:25:00.999Z</time></trkpt><trkpt lat="46.59340465125941" lon="26.80162970661182"><ele>227.28571428571428</ele><time>2026-04-25T08:25:01.999Z</time></trkpt><trkpt lat="46.59336875263717" lon="26.801541530789542"><ele>225.85714285714283</ele><time>2026-04-25T08:25:02.999Z</time></trkpt><trkpt lat="46.593332869168776" lon="26.80145089726285"><ele>224.42857142857142</ele><time>2026-04-25T08:25:03.999Z</time></trkpt><trkpt lat="46.59329920742926" lon="26.801368251872034"><ele>223.0</ele><time>2026-04-25T08:25:04.999Z</time></trkpt><trkpt lat="46.59326512304035" lon="26.80128516148274"><ele>223.0</ele><time>2026-04-25T08:25:05.999Z</time></trkpt><trkpt lat="46.59322868918649" lon="26.801194926202587"><ele>223.0</ele><time>2026-04-25T08:25:06.999Z</time></trkpt><trkpt lat="46.593189687742665" lon="26.80109734214717"><ele>223.0</ele><time>2026-04-25T08:25:07.999Z</time></trkpt><trkpt lat="46.59315155479045" lon="26.80100355490161"><ele>223.0</ele><time>2026-04-25T08:25:08.999Z</time></trkpt><trkpt lat="46.59311618686729" lon="26.800916983079865"><ele>223.0</ele><time>2026-04-25T08:25:09.999Z</time></trkpt><trkpt lat="46.59308093355532" lon="26.80083043587366"><ele>223.0</ele><time>2026-04-25T08:25:10.999Z</time></trkpt><trkpt lat="46.59304609743419" lon="26.800744912462182"><ele>223.0</ele><time>2026-04-25T08:25:11.999Z</time></trkpt><trkpt lat="46.59298291135143" lon="26.800717697519936"><ele>223.14285714285714</ele><time>2026-04-25T08:25:12.999Z</time></trkpt><trkpt lat="46.59298037186902" lon="26.80060214098733"><ele>223.28571428571428</ele><time>2026-04-25T08:25:13.999Z</time></trkpt><trkpt lat="46.59296697234749" lon="26.800495178001064"><ele>223.42857142857144</ele><time>2026-04-25T08:25:14.999Z</time></trkpt><trkpt lat="46.59298486460178" lon="26.800390341085453"><ele>223.57142857142856</ele><time>2026-04-25T08:25:15.999Z</time></trkpt><trkpt lat="46.592972807491066" lon="26.80028820221351"><ele>223.71428571428572</ele><time>2026-04-25T08:25:16.999Z</time></trkpt><trkpt lat="46.5929705073798" lon="26.800185367605156"><ele>223.85714285714286</ele><time>2026-04-25T08:25:17.999Z</time></trkpt><trkpt lat="46.59296838902865" lon="26.800090659850465"><ele>224.0</ele><time>2026-04-25T08:25:18.999Z</time></trkpt><trkpt lat="46.59296612179608" lon="26.799989295687986"><ele>225.16666666666669</ele><time>2026-04-25T08:25:19.999Z</time></trkpt><trkpt lat="46.59296367642883" lon="26.799885219599584"><ele>226.33333333333334</ele><time>2026-04-25T08:25:20.999Z</time></trkpt><trkpt lat="46.592961416622146" lon="26.79978053224951"><ele>227.5</ele><time>2026-04-25T08:25:21.999Z</time></trkpt><trkpt lat="46.592958022651466" lon="26.799673741699547"><ele>228.66666666666669</ele><time>2026-04-25T08:25:22.999Z</time></trkpt><trkpt lat="46.59294524737999" lon="26.799525206061872"><ele>229.83333333333334</ele><time>2026-04-25T08:25:23.999Z</time></trkpt><trkpt lat="46.59290713327054" lon="26.799445902257943"><ele>231.0</ele><time>2026-04-25T08:25:24.999Z</time></trkpt><trkpt lat="46.592863918608174" lon="26.79935809540531"><ele>232.20000000000002</ele><time>2026-04-25T08:25:25.999Z</time></trkpt><trkpt lat="46.59282043947489" lon="26.799268312848326"><ele>233.40000000000003</ele><time>2026-04-25T08:25:26.999Z</time></trkpt><trkpt lat="46.59277755915757" lon="26.799173529091366"><ele>234.6</ele><time>2026-04-25T08:25:27.999Z</time></trkpt><trkpt lat="46.59272280645957" lon="26.799078024184862"><ele>235.8</ele><time>2026-04-25T08:25:28.999Z</time></trkpt><trkpt lat="46.59265562545924" lon="26.798934746264187"><ele>237.0</ele><time>2026-04-25T08:25:30.999Z</time></trkpt><trkpt lat="46.59259125833942" lon="26.798765137103125"><ele>237.0</ele><time>2026-04-25T08:25:32.999Z</time></trkpt><trkpt lat="46.59264997807638" lon="26.79868699057478"><ele>237.0</ele><time>2026-04-25T08:25:33.999Z</time></trkpt><trkpt lat="46.592659996349035" lon="26.798585375475042"><ele>237.0</ele><time>2026-04-25T08:25:34.999Z</time></trkpt><trkpt lat="46.592676799406235" lon="26.79841801307241"><ele>237.0</ele><time>2026-04-25T08:25:36.999Z</time></trkpt><trkpt lat="46.59268606049974" lon="26.798320118000383"><ele>237.0</ele><time>2026-04-25T08:25:37.999Z</time></trkpt><trkpt lat="46.5926972370916" lon="26.79821169950546"><ele>237.0</ele><time>2026-04-25T08:25:38.999Z</time></trkpt><trkpt lat="46.59270685583642" lon="26.798114332449295"><ele>235.39999999999998</ele><time>2026-04-25T08:25:39.999Z</time></trkpt><trkpt lat="46.592715854954754" lon="26.798022999754743"><ele>233.79999999999998</ele><time>2026-04-25T08:25:40.999Z</time></trkpt><trkpt lat="46.59269158691118" lon="26.797811283988132"><ele>232.2</ele><time>2026-04-25T08:25:41.999Z</time></trkpt><trkpt lat="46.5926611581369" lon="26.797729590037648"><ele>230.6</ele><time>2026-04-25T08:25:42.999Z</time></trkpt><trkpt lat="46.592600907008844" lon="26.797569097335945"><ele>229.0</ele><time>2026-04-25T08:25:45Z</time></trkpt><trkpt lat="46.592564483930296" lon="26.797472052547988"><ele>228.99999999999997</ele><time>2026-04-25T08:25:46Z</time></trkpt><trkpt lat="46.59252624418699" lon="26.797371834220435"><ele>229.0</ele><time>2026-04-25T08:25:47Z</time></trkpt><trkpt lat="46.59249326113453" lon="26.797284625127723"><ele>229.0</ele><time>2026-04-25T08:25:48Z</time></trkpt><trkpt lat="46.59245720665196" lon="26.797187830537904"><ele>229.0</ele><time>2026-04-25T08:25:49Z</time></trkpt><trkpt lat="46.59241711511706" lon="26.797082153467706"><ele>228.99999999999997</ele><time>2026-04-25T08:25:50Z</time></trkpt><trkpt lat="46.59237437951972" lon="26.79696870651332"><ele>229.0</ele><time>2026-04-25T08:25:51Z</time></trkpt><trkpt lat="46.59233654174077" lon="26.796868427815504"><ele>229.99999999999997</ele><time>2026-04-25T08:25:52Z</time></trkpt><trkpt lat="46.59230249570471" lon="26.796777285854436"><ele>231.0</ele><time>2026-04-25T08:25:53Z</time></trkpt><trkpt lat="46.59226821713546" lon="26.796685432150948"><ele>232.0</ele><time>2026-04-25T08:25:54Z</time></trkpt><trkpt lat="46.592236621367924" lon="26.796597287309993"><ele>233.0</ele><time>2026-04-25T08:25:55Z</time></trkpt><trkpt lat="46.59220480150827" lon="26.79650692341708"><ele>233.99999999999997</ele><time>2026-04-25T08:25:56Z</time></trkpt><trkpt lat="46.59217149968335" lon="26.796413094456717"><ele>235.0</ele><time>2026-04-25T08:25:57Z</time></trkpt><trkpt lat="46.59211336455326" lon="26.796247581359022"><ele>235.0</ele><time>2026-04-25T08:25:59Z</time></trkpt><trkpt lat="46.59207918681762" lon="26.79614924834197"><ele>234.99999999999997</ele><time>2026-04-25T08:26:00Z</time></trkpt><trkpt lat="46.59204896531827" lon="26.796062737227704"><ele>235.0</ele><time>2026-04-25T08:26:01Z</time></trkpt><trkpt lat="46.59201632125583" lon="26.79596942390452"><ele>235.0</ele><time>2026-04-25T08:26:02Z</time></trkpt><trkpt lat="46.59198246104845" lon="26.795873365705713"><ele>234.99999999999997</ele><time>2026-04-25T08:26:03Z</time></trkpt><trkpt lat="46.591947723067506" lon="26.795773678046896"><ele>235.0</ele><time>2026-04-25T08:26:04Z</time></trkpt><trkpt lat="46.59191294340996" lon="26.79567339314543"><ele>235.0</ele><time>2026-04-25T08:26:05Z</time></trkpt><trkpt lat="46.59186798500725" lon="26.79556549449867"><ele>235.16666666666666</ele><time>2026-04-25T08:26:06Z</time></trkpt><trkpt lat="46.59182594164005" lon="26.795481101090736"><ele>235.33333333333331</ele><time>2026-04-25T08:26:07Z</time></trkpt><trkpt lat="46.591787936665675" lon="26.795405583405287"><ele>235.5</ele><time>2026-04-25T08:26:08Z</time></trkpt><trkpt lat="46.5917203381402" lon="26.795265851896314"><ele>235.66666666666669</ele><time>2026-04-25T08:26:10Z</time></trkpt><trkpt lat="46.59167289606531" lon="26.795193466693753"><ele>235.83333333333334</ele><time>2026-04-25T08:26:11Z</time></trkpt><trkpt lat="46.59162926776387" lon="26.79510452588605"><ele>236.0</ele><time>2026-04-25T08:26:12Z</time></trkpt><trkpt lat="46.59158871609647" lon="26.795017440560365"><ele>236.83333333333334</ele><time>2026-04-25T08:26:13Z</time></trkpt><trkpt lat="46.591540835418655" lon="26.794908136225022"><ele>237.66666666666669</ele><time>2026-04-25T08:26:14Z</time></trkpt><trkpt lat="46.59149469714799" lon="26.794815464817926"><ele>238.5</ele><time>2026-04-25T08:26:15Z</time></trkpt><trkpt lat="46.59144897978851" lon="26.7947237720243"><ele>239.33333333333331</ele><time>2026-04-25T08:26:16Z</time></trkpt><trkpt lat="46.591404077944574" lon="26.794633514330627"><ele>240.16666666666666</ele><time>2026-04-25T08:26:17Z</time></trkpt><trkpt lat="46.591363745392684" lon="26.79455162240783"><ele>241.0</ele><time>2026-04-25T08:26:18Z</time></trkpt><trkpt lat="46.591320388635424" lon="26.794464551080775"><ele>240.99999999999997</ele><time>2026-04-25T08:26:19Z</time></trkpt><trkpt lat="46.59127225550784" lon="26.79436229789867"><ele>241.0</ele><time>2026-04-25T08:26:21Z</time></trkpt><trkpt lat="46.59118434623444" lon="26.794302639025535"><ele>241.0</ele><time>2026-04-25T08:26:22Z</time></trkpt><trkpt lat="46.59111368081257" lon="26.79425467756604"><ele>241.0</ele><time>2026-04-25T08:26:23Z</time></trkpt><trkpt lat="46.59104418868217" lon="26.794206709211416"><ele>240.99999999999997</ele><time>2026-04-25T08:26:24Z</time></trkpt><trkpt lat="46.59098265825794" lon="26.79416423661612"><ele>241.0</ele><time>2026-04-25T08:26:25Z</time></trkpt><trkpt lat="46.59092201679281" lon="26.794107430649063"><ele>241.49999999999997</ele><time>2026-04-25T08:26:26Z</time></trkpt><trkpt lat="46.590841992226004" lon="26.794091247352277"><ele>242.0</ele><time>2026-04-25T08:26:27Z</time></trkpt><trkpt lat="46.59077853359113" lon="26.794024950770954"><ele>242.5</ele><time>2026-04-25T08:26:28Z</time></trkpt><trkpt lat="46.5907127754958" lon="26.793979217532847"><ele>243.0</ele><time>2026-04-25T08:26:29Z</time></trkpt><trkpt lat="46.5906408446896" lon="26.79392983479614"><ele>243.49999999999997</ele><time>2026-04-25T08:26:30Z</time></trkpt><trkpt lat="46.59055824281322" lon="26.793873461724147"><ele>244.0</ele><time>2026-04-25T08:26:31Z</time></trkpt><trkpt lat="46.590486581318586" lon="26.793824594824645"><ele>243.99999999999997</ele><time>2026-04-25T08:26:32Z</time></trkpt><trkpt lat="46.59041505549309" lon="26.79377568936821"><ele>244.0</ele><time>2026-04-25T08:26:33Z</time></trkpt><trkpt lat="46.59034712654931" lon="26.793729009031086"><ele>244.0</ele><time>2026-04-25T08:26:34Z</time></trkpt><trkpt lat="46.590272769092145" lon="26.79367791108965"><ele>244.0</ele><time>2026-04-25T08:26:35Z</time></trkpt><trkpt lat="46.59021009956615" lon="26.79360645530929"><ele>243.99999999999997</ele><time>2026-04-25T08:26:36Z</time></trkpt><trkpt lat="46.59013955390679" lon="26.79351936354018"><ele>244.0</ele><time>2026-04-25T08:26:37Z</time></trkpt><trkpt lat="46.59008146114635" lon="26.793447887094914"><ele>243.33333333333331</ele><time>2026-04-25T08:26:38Z</time></trkpt><trkpt lat="46.590018947234924" lon="26.79337118024171"><ele>242.66666666666666</ele><time>2026-04-25T08:26:39Z</time></trkpt><trkpt lat="46.5899555874767" lon="26.793293042197387"><ele>242.0</ele><time>2026-04-25T08:26:40Z</time></trkpt><trkpt lat="46.58989228330422" lon="26.79321514229336"><ele>241.33333333333331</ele><time>2026-04-25T08:26:41Z</time></trkpt><trkpt lat="46.589837126249684" lon="26.793165998391615"><ele>240.66666666666666</ele><time>2026-04-25T08:26:42Z</time></trkpt><trkpt lat="46.58975107063625" lon="26.793040662433768"><ele>240.0</ele><time>2026-04-25T08:26:44Z</time></trkpt><trkpt lat="46.58969033513318" lon="26.79297854176919"><ele>240.0</ele><time>2026-04-25T08:26:45Z</time></trkpt><trkpt lat="46.5896296493031" lon="26.792910865429462"><ele>240.0</ele><time>2026-04-25T08:26:46Z</time></trkpt><trkpt lat="46.589579853291674" lon="26.792832657498522"><ele>240.0</ele><time>2026-04-25T08:26:47Z</time></trkpt><trkpt lat="46.589523949398114" lon="26.79275852106361"><ele>240.0</ele><time>2026-04-25T08:26:48Z</time></trkpt><trkpt lat="46.589469891422326" lon="26.792671035536124"><ele>240.0</ele><time>2026-04-25T08:26:49Z</time></trkpt><trkpt lat="46.58943492139627" lon="26.792569505219433"><ele>240.0</ele><time>2026-04-25T08:26:50Z</time></trkpt><trkpt lat="46.58937802479141" lon="26.79248362348355"><ele>240.33333333333334</ele><time>2026-04-25T08:26:51Z</time></trkpt><trkpt lat="46.58933197544846" lon="26.79238853199049"><ele>240.66666666666669</ele><time>2026-04-25T08:26:52Z</time></trkpt><trkpt lat="46.58928931641094" lon="26.79229776438688"><ele>241.0</ele><time>2026-04-25T08:26:53Z</time></trkpt><trkpt lat="46.589241409523424" lon="26.79219905419427"><ele>241.33333333333334</ele><time>2026-04-25T08:26:54Z</time></trkpt><trkpt lat="46.58919186615846" lon="26.79209723627607"><ele>241.66666666666669</ele><time>2026-04-25T08:26:55Z</time></trkpt><trkpt lat="46.58914008461617" lon="26.791990965267214"><ele>242.0</ele><time>2026-04-25T08:26:56Z</time></trkpt><trkpt lat="46.589079096878606" lon="26.79190666391533"><ele>242.33333333333334</ele><time>2026-04-25T08:26:57Z</time></trkpt><trkpt lat="46.58902569059246" lon="26.79179412939894"><ele>242.66666666666669</ele><time>2026-04-25T08:26:58Z</time></trkpt><trkpt lat="46.588987702073986" lon="26.79167648603702"><ele>243.0</ele><time>2026-04-25T08:26:59Z</time></trkpt><trkpt lat="46.588948537360864" lon="26.791596367648335"><ele>243.33333333333331</ele><time>2026-04-25T08:27:00Z</time></trkpt><trkpt lat="46.58889210170113" lon="26.791509144608955"><ele>243.66666666666666</ele><time>2026-04-25T08:27:01Z</time></trkpt><trkpt lat="46.588854769969885" lon="26.79140335647228"><ele>244.0</ele><time>2026-04-25T08:27:01.999Z</time></trkpt><trkpt lat="46.58880552687171" lon="26.79130086975109"><ele>243.99999999999997</ele><time>2026-04-25T08:27:02.999Z</time></trkpt><trkpt lat="46.58876019210387" lon="26.791207771082636"><ele>244.0</ele><time>2026-04-25T08:27:03.999Z</time></trkpt><trkpt lat="46.5887139426827" lon="26.791113009269385"><ele>244.0</ele><time>2026-04-25T08:27:04.999Z</time></trkpt><trkpt lat="46.58865340313946" lon="26.791027653932186"><ele>244.0</ele><time>2026-04-25T08:27:05.999Z</time></trkpt><trkpt lat="46.58861780622387" lon="26.79091465234768"><ele>243.99999999999997</ele><time>2026-04-25T08:27:06.999Z</time></trkpt><trkpt lat="46.5885694125832" lon="26.79081521165645"><ele>244.0</ele><time>2026-04-25T08:27:07.999Z</time></trkpt><trkpt lat="46.58851628263822" lon="26.790705994373454"><ele>244.0</ele><time>2026-04-25T08:27:08.999Z</time></trkpt><trkpt lat="46.588467078114" lon="26.790604047172483"><ele>243.99999999999997</ele><time>2026-04-25T08:27:09.999Z</time></trkpt><trkpt lat="46.5884131768067" lon="26.790493889100564"><ele>243.99999999999997</ele><time>2026-04-25T08:27:10.999Z</time></trkpt><trkpt lat="46.588357499724346" lon="26.790381452669635"><ele>244.0</ele><time>2026-04-25T08:27:11.999Z</time></trkpt><trkpt lat="46.5883054963635" lon="26.790291283079437"><ele>244.0</ele><time>2026-04-25T08:27:12.999Z</time></trkpt><trkpt lat="46.58822503620525" lon="26.790153091689465"><ele>244.66666666666666</ele><time>2026-04-25T08:27:14.999Z</time></trkpt><trkpt lat="46.58817345108887" lon="26.79006428919308"><ele>245.33333333333331</ele><time>2026-04-25T08:27:15.999Z</time></trkpt><trkpt lat="46.588116949329404" lon="26.789965913269604"><ele>246.0</ele><time>2026-04-25T08:27:16.999Z</time></trkpt><trkpt lat="46.58806560359138" lon="26.789878320385007"><ele>246.66666666666669</ele><time>2026-04-25T08:27:17.999Z</time></trkpt><trkpt lat="46.58801128725826" lon="26.789785249301204"><ele>247.33333333333334</ele><time>2026-04-25T08:27:18.999Z</time></trkpt><trkpt lat="46.587956063734694" lon="26.78968922497807"><ele>248.0</ele><time>2026-04-25T08:27:19.999Z</time></trkpt><trkpt lat="46.587897196762256" lon="26.789617237652777"><ele>248.00000000000003</ele><time>2026-04-25T08:27:20.999Z</time></trkpt><trkpt lat="46.58785583719684" lon="26.789537907882995"><ele>248.0</ele><time>2026-04-25T08:27:21.999Z</time></trkpt><trkpt lat="46.587810970695635" lon="26.78946481211196"><ele>248.0</ele><time>2026-04-25T08:27:22.999Z</time></trkpt><trkpt lat="46.5877625583273" lon="26.789380894144013"><ele>248.0</ele><time>2026-04-25T08:27:23.999Z</time></trkpt><trkpt lat="46.58771918533267" lon="26.78930675812614"><ele>248.00000000000003</ele><time>2026-04-25T08:27:24.999Z</time></trkpt><trkpt lat="46.58765149277761" lon="26.78916368753763"><ele>248.0</ele><time>2026-04-25T08:27:26.999Z</time></trkpt><trkpt lat="46.58759683805953" lon="26.78910089627299"><ele>247.83333333333334</ele><time>2026-04-25T08:27:27.999Z</time></trkpt><trkpt lat="46.58756003813544" lon="26.78900680425482"><ele>247.66666666666669</ele><time>2026-04-25T08:27:28.999Z</time></trkpt><trkpt lat="46.58751516804442" lon="26.78892931603083"><ele>247.5</ele><time>2026-04-25T08:27:29.999Z</time></trkpt><trkpt lat="46.58742838915111" lon="26.788911641050323"><ele>247.33333333333331</ele><time>2026-04-25T08:27:30.999Z</time></trkpt><trkpt lat="46.58736199185819" lon="26.78885631500641"><ele>247.16666666666666</ele><time>2026-04-25T08:27:31.999Z</time></trkpt><trkpt lat="46.587292899118204" lon="26.788827863708708"><ele>247.0</ele><time>2026-04-25T08:27:32.999Z</time></trkpt><trkpt lat="46.58722685441225" lon="26.788781751743056"><ele>247.0</ele><time>2026-04-25T08:27:33.999Z</time></trkpt><trkpt lat="46.587172064916714" lon="26.788720789148478"><ele>247.0</ele><time>2026-04-25T08:27:34.999Z</time></trkpt><trkpt lat="46.587101350163636" lon="26.78869578519648"><ele>247.0</ele><time>2026-04-25T08:27:35.999Z</time></trkpt><trkpt lat="46.587027015660844" lon="26.788669748341313"><ele>247.0</ele><time>2026-04-25T08:27:36.999Z</time></trkpt><trkpt lat="46.586967553660514" lon="26.788603347933886"><ele>247.0</ele><time>2026-04-25T08:27:37.999Z</time></trkpt><trkpt lat="46.586899556501024" lon="26.788583282884478"><ele>247.0</ele><time>2026-04-25T08:27:38.999Z</time></trkpt><trkpt lat="46.58684143135116" lon="26.78851664586762"><ele>247.0</ele><time>2026-04-25T08:27:39.999Z</time></trkpt><trkpt lat="46.58677870997165" lon="26.78847321146663"><ele>249.25</ele><time>2026-04-25T08:27:40.999Z</time></trkpt><trkpt lat="46.58666636224364" lon="26.78839066953113"><ele>251.5</ele><time>2026-04-25T08:27:42.999Z</time></trkpt><trkpt lat="46.58656120968378" lon="26.78828034399658"><ele>253.75</ele><time>2026-04-25T08:27:44.999Z</time></trkpt><trkpt lat="46.58646650694489" lon="26.78818464261817"><ele>256.0</ele><time>2026-04-25T08:27:46.999Z</time></trkpt><trkpt lat="46.58637948036833" lon="26.788097511483308"><ele>256.0</ele><time>2026-04-25T08:27:48.999Z</time></trkpt><trkpt lat="46.586293530978885" lon="26.788009860730504"><ele>256.0</ele><time>2026-04-25T08:27:51Z</time></trkpt><trkpt lat="46.58624058558617" lon="26.787879118496793"><ele>256.0</ele><time>2026-04-25T08:27:52Z</time></trkpt><trkpt lat="46.586212750754314" lon="26.78770606695711"><ele>256.0</ele><time>2026-04-25T08:27:54Z</time></trkpt><trkpt lat="46.58619756849495" lon="26.78761353700216"><ele>256.0</ele><time>2026-04-25T08:27:55Z</time></trkpt><trkpt lat="46.58617396173039" lon="26.7874681116329"><ele>254.8</ele><time>2026-04-25T08:27:57Z</time></trkpt><trkpt lat="46.58614869168779" lon="26.787314673176024"><ele>253.60000000000002</ele><time>2026-04-25T08:27:59Z</time></trkpt><trkpt lat="46.586131866374345" lon="26.787145629547805"><ele>252.4</ele><time>2026-04-25T08:28:01Z</time></trkpt><trkpt lat="46.586091173803425" lon="26.78705878607629"><ele>251.2</ele><time>2026-04-25T08:28:02Z</time></trkpt><trkpt lat="46.58606395190266" lon="26.786893867527613"><ele>250.0</ele><time>2026-04-25T08:28:04Z</time></trkpt><trkpt lat="46.58606731065492" lon="26.78680186813159"><ele>250.0</ele><time>2026-04-25T08:28:05Z</time></trkpt><trkpt lat="46.586030479312825" lon="26.786635050632707"><ele>250.0</ele><time>2026-04-25T08:28:07Z</time></trkpt><trkpt lat="46.58599465402466" lon="26.78647228481891"><ele>250.0</ele><time>2026-04-25T08:28:09Z</time></trkpt><trkpt lat="46.585975228491485" lon="26.786384553252372"><ele>250.0</ele><time>2026-04-25T08:28:10Z</time></trkpt><trkpt lat="46.58593736741015" lon="26.786211391793515"><ele>250.0</ele><time>2026-04-25T08:28:12Z</time></trkpt><trkpt lat="46.585917432510975" lon="26.786121796687524"><ele>251.8</ele><time>2026-04-25T08:28:13Z</time></trkpt><trkpt lat="46.58588140133839" lon="26.78595614760344"><ele>253.6</ele><time>2026-04-25T08:28:15Z</time></trkpt><trkpt lat="46.585831352872574" lon="26.78579547455519"><ele>255.39999999999998</ele><time>2026-04-25T08:28:17Z</time></trkpt><trkpt lat="46.58579819606757" lon="26.785623954405274"><ele>257.2</ele><time>2026-04-25T08:28:19Z</time></trkpt><trkpt lat="46.58578790253291" lon="26.785529113289584"><ele>259.0</ele><time>2026-04-25T08:28:20Z</time></trkpt><trkpt lat="46.58573483535305" lon="26.78536120423651"><ele>259.0</ele><time>2026-04-25T08:28:22Z</time></trkpt><trkpt lat="46.58571549830047" lon="26.785265253792065"><ele>259.0</ele><time>2026-04-25T08:28:23Z</time></trkpt><trkpt lat="46.585691856355474" lon="26.785166227723078"><ele>259.0</ele><time>2026-04-25T08:28:24Z</time></trkpt><trkpt lat="46.585675185789924" lon="26.785076724801147"><ele>259.0</ele><time>2026-04-25T08:28:25Z</time></trkpt><trkpt lat="46.585666146564144" lon="26.784965734588308"><ele>259.0</ele><time>2026-04-25T08:28:26Z</time></trkpt><trkpt lat="46.58564270652976" lon="26.784856075857153"><ele>259.0</ele><time>2026-04-25T08:28:27Z</time></trkpt><trkpt lat="46.585600848401924" lon="26.784762463668525"><ele>259.0</ele><time>2026-04-25T08:28:28Z</time></trkpt><trkpt lat="46.585580134446744" lon="26.78464975057387"><ele>260.66666666666663</ele><time>2026-04-25T08:28:29Z</time></trkpt><trkpt lat="46.585556427937924" lon="26.784536784539327"><ele>262.3333333333333</ele><time>2026-04-25T08:28:30Z</time></trkpt><trkpt lat="46.585533336831375" lon="26.784425188775558"><ele>264.0</ele><time>2026-04-25T08:28:31Z</time></trkpt><trkpt lat="46.5855035341731" lon="26.7843184620591"><ele>265.6666666666667</ele><time>2026-04-25T08:28:32Z</time></trkpt><trkpt lat="46.5854773505703" lon="26.784207498933544"><ele>267.33333333333337</ele><time>2026-04-25T08:28:33Z</time></trkpt><trkpt lat="46.58545043708783" lon="26.78410451841461"><ele>269.0</ele><time>2026-04-25T08:28:34Z</time></trkpt><trkpt lat="46.58542509822091" lon="26.784001898636056"><ele>269.42857142857144</ele><time>2026-04-25T08:28:35Z</time></trkpt><trkpt lat="46.58540299579904" lon="26.783905661361967"><ele>269.8571428571429</ele><time>2026-04-25T08:28:36Z</time></trkpt><trkpt lat="46.58536933119313" lon="26.78382789559847"><ele>270.2857142857143</ele><time>2026-04-25T08:28:37Z</time></trkpt><trkpt lat="46.58535699859007" lon="26.78373424290364"><ele>270.7142857142857</ele><time>2026-04-25T08:28:38Z</time></trkpt><trkpt lat="46.58533574144138" lon="26.78364709675115"><ele>271.1428571428571</ele><time>2026-04-25T08:28:39Z</time></trkpt><trkpt lat="46.58530774805879" lon="26.783546770481497"><ele>271.57142857142856</ele><time>2026-04-25T08:28:40Z</time></trkpt><trkpt lat="46.5852773045456" lon="26.783453661704574"><ele>272.0</ele><time>2026-04-25T08:28:41Z</time></trkpt><trkpt lat="46.58524686038634" lon="26.783367055328977"><ele>272.33333333333337</ele><time>2026-04-25T08:28:42Z</time></trkpt><trkpt lat="46.58521821452836" lon="26.783283231165626"><ele>272.6666666666667</ele><time>2026-04-25T08:28:43Z</time></trkpt><trkpt lat="46.58519563744068" lon="26.783196727546958"><ele>273.0</ele><time>2026-04-25T08:28:44Z</time></trkpt><trkpt lat="46.5851277608695" lon="26.783041128239542"><ele>273.3333333333333</ele><time>2026-04-25T08:28:46Z</time></trkpt><trkpt lat="46.585089447339385" lon="26.782942729281253"><ele>273.66666666666663</ele><time>2026-04-25T08:28:47Z</time></trkpt><trkpt lat="46.58502697673489" lon="26.78288093197104"><ele>274.0</ele><time>2026-04-25T08:28:48Z</time></trkpt><trkpt lat="46.58496251927433" lon="26.782811964507538"><ele>274.0</ele><time>2026-04-25T08:28:49Z</time></trkpt><trkpt lat="46.58489947334067" lon="26.782757188549443"><ele>274.0</ele><time>2026-04-25T08:28:50Z</time></trkpt><trkpt lat="46.58482894828917" lon="26.7826993738024"><ele>274.0</ele><time>2026-04-25T08:28:51Z</time></trkpt><trkpt lat="46.58477117912878" lon="26.782634657473274"><ele>274.0</ele><time>2026-04-25T08:28:52Z</time></trkpt><trkpt lat="46.5847027920847" lon="26.782584077284728"><ele>274.0</ele><time>2026-04-25T08:28:53Z</time></trkpt><trkpt lat="46.58464116958536" lon="26.78252550874524"><ele>274.0</ele><time>2026-04-25T08:28:54Z</time></trkpt><trkpt lat="46.58456466703778" lon="26.782482988951774"><ele>275.3333333333333</ele><time>2026-04-25T08:28:55Z</time></trkpt><trkpt lat="46.5844585726535" lon="26.782395854457093"><ele>276.66666666666663</ele><time>2026-04-25T08:28:57Z</time></trkpt><trkpt lat="46.584405699712526" lon="26.782334537029683"><ele>278.0</ele><time>2026-04-25T08:28:58Z</time></trkpt><trkpt lat="46.584340597734425" lon="26.7822813650366"><ele>279.3333333333333</ele><time>2026-04-25T08:28:58.999Z</time></trkpt><trkpt lat="46.58426900310177" lon="26.7822377831775"><ele>280.6666666666667</ele><time>2026-04-25T08:28:59.999Z</time></trkpt><trkpt lat="46.58419509758441" lon="26.782188586859633"><ele>282.0</ele><time>2026-04-25T08:29:00.999Z</time></trkpt><trkpt lat="46.584137860914666" lon="26.782132701854234"><ele>282.0</ele><time>2026-04-25T08:29:01.999Z</time></trkpt><trkpt lat="46.584070619434385" lon="26.782099652057774"><ele>282.0</ele><time>2026-04-25T08:29:02.999Z</time></trkpt><trkpt lat="46.5840046841021" lon="26.782046011302807"><ele>282.0</ele><time>2026-04-25T08:29:03.999Z</time></trkpt><trkpt lat="46.58393705494796" lon="26.78198756457163"><ele>282.0</ele><time>2026-04-25T08:29:04.999Z</time></trkpt><trkpt lat="46.58386425365139" lon="26.781932511760864"><ele>282.0</ele><time>2026-04-25T08:29:05.999Z</time></trkpt><trkpt lat="46.58378641431191" lon="26.78187802470441"><ele>282.0</ele><time>2026-04-25T08:29:06.999Z</time></trkpt><trkpt lat="46.583716746124836" lon="26.781816858938388"><ele>281.8333333333333</ele><time>2026-04-25T08:29:07.999Z</time></trkpt><trkpt lat="46.583662246128" lon="26.7817486003931"><ele>281.6666666666667</ele><time>2026-04-25T08:29:08.999Z</time></trkpt><trkpt lat="46.58359662021298" lon="26.78170358223037"><ele>281.5</ele><time>2026-04-25T08:29:09.999Z</time></trkpt><trkpt lat="46.58353268629672" lon="26.781646488876866"><ele>281.33333333333337</ele><time>2026-04-25T08:29:10.999Z</time></trkpt><trkpt lat="46.58345560016546" lon="26.78158753394132"><ele>281.1666666666667</ele><time>2026-04-25T08:29:11.999Z</time></trkpt><trkpt lat="46.58339067196393" lon="26.781529119261506"><ele>281.0</ele><time>2026-04-25T08:29:12.999Z</time></trkpt><trkpt lat="46.58332404064228" lon="26.781463537031815"><ele>281.0</ele><time>2026-04-25T08:29:13.999Z</time></trkpt><trkpt lat="46.583257134332925" lon="26.78141579499477"><ele>281.0</ele><time>2026-04-25T08:29:14.999Z</time></trkpt><trkpt lat="46.58319136698646" lon="26.78134768111418"><ele>281.0</ele><time>2026-04-25T08:29:15.999Z</time></trkpt><trkpt lat="46.58311515096751" lon="26.78129535589284"><ele>281.0</ele><time>2026-04-25T08:29:16.999Z</time></trkpt><trkpt lat="46.58304588633648" lon="26.781242934865837"><ele>281.0</ele><time>2026-04-25T08:29:17.999Z</time></trkpt><trkpt lat="46.58298694105922" lon="26.78117780214185"><ele>281.0</ele><time>2026-04-25T08:29:18.999Z</time></trkpt><trkpt lat="46.582926338152056" lon="26.78112021186586"><ele>281.0</ele><time>2026-04-25T08:29:19.999Z</time></trkpt><trkpt lat="46.582864935770196" lon="26.781066341029902"><ele>281.0</ele><time>2026-04-25T08:29:20.999Z</time></trkpt><trkpt lat="46.582793369184124" lon="26.781024087920795"><ele>281.0</ele><time>2026-04-25T08:29:21.999Z</time></trkpt><trkpt lat="46.58271705385845" lon="26.780959388321367"><ele>281.0</ele><time>2026-04-25T08:29:22.999Z</time></trkpt><trkpt lat="46.58265947928913" lon="26.780886068428956"><ele>281.0</ele><time>2026-04-25T08:29:23.999Z</time></trkpt><trkpt lat="46.58258294379958" lon="26.780827625023296"><ele>281.0</ele><time>2026-04-25T08:29:24.999Z</time></trkpt><trkpt lat="46.58251195829896" lon="26.780765941393625"><ele>281.1666666666667</ele><time>2026-04-25T08:29:25.999Z</time></trkpt><trkpt lat="46.58244691145493" lon="26.780702512852997"><ele>281.33333333333337</ele><time>2026-04-25T08:29:26.999Z</time></trkpt><trkpt lat="46.582367049076346" lon="26.780649125005446"><ele>281.5</ele><time>2026-04-25T08:29:27.999Z</time></trkpt><trkpt lat="46.58229384712368" lon="26.780586305729503"><ele>281.6666666666667</ele><time>2026-04-25T08:29:28.999Z</time></trkpt><trkpt lat="46.58221742194774" lon="26.78052958402488"><ele>281.8333333333333</ele><time>2026-04-25T08:29:29.999Z</time></trkpt><trkpt lat="46.582141503219944" lon="26.780454424404976"><ele>282.0</ele><time>2026-04-25T08:29:30.999Z</time></trkpt><trkpt lat="46.58206391893655" lon="26.780395500331633"><ele>283.5</ele><time>2026-04-25T08:29:31.999Z</time></trkpt><trkpt lat="46.58199463410163" lon="26.780331060306896"><ele>285.0</ele><time>2026-04-25T08:29:32.999Z</time></trkpt><trkpt lat="46.581912822438944" lon="26.78027471063979"><ele>286.5</ele><time>2026-04-25T08:29:33.999Z</time></trkpt><trkpt lat="46.581845132693886" lon="26.78021449474682"><ele>288.0</ele><time>2026-04-25T08:29:34.999Z</time></trkpt><trkpt lat="46.58177645430494" lon="26.780157914462322"><ele>289.5</ele><time>2026-04-25T08:29:35.999Z</time></trkpt><trkpt lat="46.58171586660829" lon="26.780113586261834"><ele>291.0</ele><time>2026-04-25T08:29:36.999Z</time></trkpt><trkpt lat="46.581605362803145" lon="26.780025364721062"><ele>291.0</ele><time>2026-04-25T08:29:38.999Z</time></trkpt><trkpt lat="46.58153897670785" lon="26.779982678015358"><ele>291.0</ele><time>2026-04-25T08:29:39.999Z</time></trkpt><trkpt lat="46.58147526244188" lon="26.779945351193184"><ele>291.0</ele><time>2026-04-25T08:29:40.999Z</time></trkpt><trkpt lat="46.58139851738463" lon="26.77989937867959"><ele>291.0</ele><time>2026-04-25T08:29:41.999Z</time></trkpt><trkpt lat="46.58133366398116" lon="26.779844721776428"><ele>291.0</ele><time>2026-04-25T08:29:42.999Z</time></trkpt><trkpt lat="46.58125821968504" lon="26.77981102325658"><ele>291.0</ele><time>2026-04-25T08:29:43.999Z</time></trkpt><trkpt lat="46.58113852332774" lon="26.77977065742329"><ele>292.1428571428571</ele><time>2026-04-25T08:29:45.999Z</time></trkpt><trkpt lat="46.58106416397228" lon="26.77973467251636"><ele>293.2857142857143</ele><time>2026-04-25T08:29:46.999Z</time></trkpt><trkpt lat="46.58099411205376" lon="26.779724464029155"><ele>294.42857142857144</ele><time>2026-04-25T08:29:47.999Z</time></trkpt><trkpt lat="46.580924306601396" lon="26.779701317299885"><ele>295.57142857142856</ele><time>2026-04-25T08:29:48.999Z</time></trkpt><trkpt lat="46.580857755788145" lon="26.779683870800646"><ele>296.7142857142857</ele><time>2026-04-25T08:29:49.999Z</time></trkpt><trkpt lat="46.58079267572667" lon="26.779653131514372"><ele>297.85714285714283</ele><time>2026-04-25T08:29:50.999Z</time></trkpt><trkpt lat="46.5807306805506" lon="26.779600067225598"><ele>299.0</ele><time>2026-04-25T08:29:51.999Z</time></trkpt><trkpt lat="46.58066117863267" lon="26.779539936862175"><ele>299.0</ele><time>2026-04-25T08:29:52.999Z</time></trkpt><trkpt lat="46.5806020451468" lon="26.779477700063683"><ele>299.0</ele><time>2026-04-25T08:29:53.999Z</time></trkpt><trkpt lat="46.580556951555536" lon="26.779384069665465"><ele>299.0</ele><time>2026-04-25T08:29:54.999Z</time></trkpt><trkpt lat="46.58051726246473" lon="26.77930546583259"><ele>299.0</ele><time>2026-04-25T08:29:56.001Z</time></trkpt><trkpt lat="46.580478834125465" lon="26.779220143206704"><ele>299.0</ele><time>2026-04-25T08:29:57.001Z</time></trkpt><trkpt lat="46.580450250142015" lon="26.77911052041325"><ele>299.0</ele><time>2026-04-25T08:29:58.001Z</time></trkpt><trkpt lat="46.58043167549653" lon="26.779012319351065"><ele>299.0</ele><time>2026-04-25T08:29:59.001Z</time></trkpt><trkpt lat="46.58041522865529" lon="26.778910296890885"><ele>299.33333333333337</ele><time>2026-04-25T08:30:00.001Z</time></trkpt><trkpt lat="46.58041736593522" lon="26.77880835542888"><ele>299.6666666666667</ele><time>2026-04-25T08:30:01.001Z</time></trkpt><trkpt lat="46.58040892594537" lon="26.778717388895465"><ele>300.0</ele><time>2026-04-25T08:30:02.001Z</time></trkpt><trkpt lat="46.580397053114446" lon="26.77862503456123"><ele>300.3333333333333</ele><time>2026-04-25T08:30:03Z</time></trkpt><trkpt lat="46.58038090810512" lon="26.77850454990977"><ele>300.66666666666663</ele><time>2026-04-25T08:30:05Z</time></trkpt><trkpt lat="46.58032010139993" lon="26.778440187791972"><ele>301.0</ele><time>2026-04-25T08:30:07Z</time></trkpt><trkpt lat="46.58021185940541" lon="26.778399281833877"><ele>302.8</ele><time>2026-04-25T08:30:09Z</time></trkpt><trkpt lat="46.58012522284635" lon="26.778357940926057"><ele>304.6</ele><time>2026-04-25T08:30:11Z</time></trkpt><trkpt lat="46.58004271486619" lon="26.77829961524918"><ele>306.4</ele><time>2026-04-25T08:30:13Z</time></trkpt><trkpt lat="46.57998159663077" lon="26.77815547563989"><ele>308.2</ele><time>2026-04-25T08:30:15Z</time></trkpt><trkpt lat="46.57994345773241" lon="26.77798666993631"><ele>310.0</ele><time>2026-04-25T08:30:17Z</time></trkpt><trkpt lat="46.5799134459933" lon="26.77783508547213"><ele>310.0</ele><time>2026-04-25T08:30:19Z</time></trkpt><trkpt lat="46.57985797771565" lon="26.77774760152909"><ele>310.0</ele><time>2026-04-25T08:30:21Z</time></trkpt><trkpt lat="46.579801264012104" lon="26.777614058776624"><ele>310.0</ele><time>2026-04-25T08:30:23Z</time></trkpt><trkpt lat="46.5797489669851" lon="26.777511982271243"><ele>310.0</ele><time>2026-04-25T08:30:25Z</time></trkpt><trkpt lat="46.57968922443017" lon="26.777420460358886"><ele>310.0</ele><time>2026-04-25T08:30:27Z</time></trkpt><trkpt lat="46.579628190513446" lon="26.777337060448765"><ele>310.0</ele><time>2026-04-25T08:30:29Z</time></trkpt><trkpt lat="46.579569565014" lon="26.7772608869806"><ele>311.6</ele><time>2026-04-25T08:30:31Z</time></trkpt><trkpt lat="46.579498995930976" lon="26.777183787311756"><ele>313.2</ele><time>2026-04-25T08:30:33Z</time></trkpt><trkpt lat="46.579422900177114" lon="26.777084455950614"><ele>314.8</ele><time>2026-04-25T08:30:35Z</time></trkpt><trkpt lat="46.57934871150444" lon="26.776994456463424"><ele>316.4</ele><time>2026-04-25T08:30:37Z</time></trkpt><trkpt lat="46.57930355531672" lon="26.776918434629195"><ele>318.0</ele><time>2026-04-25T08:30:39Z</time></trkpt><trkpt lat="46.57925170520249" lon="26.776797852288684"><ele>319.2</ele><time>2026-04-25T08:30:41Z</time></trkpt><trkpt lat="46.579257153683386" lon="26.776638057570995"><ele>320.4</ele><time>2026-04-25T08:30:43Z</time></trkpt><trkpt lat="46.57933327409571" lon="26.776503574816353"><ele>321.59999999999997</ele><time>2026-04-25T08:30:45Z</time></trkpt><trkpt lat="46.57938812055959" lon="26.776447471223186"><ele>322.8</ele><time>2026-04-25T08:30:46Z</time></trkpt><trkpt lat="46.579479737054776" lon="26.77638051034934"><ele>324.0</ele><time>2026-04-25T08:30:48Z</time></trkpt><trkpt lat="46.57957541349502" lon="26.77626733776028"><ele>324.0</ele><time>2026-04-25T08:30:50Z</time></trkpt><trkpt lat="46.579631193164516" lon="26.776211952661747"><ele>324.0</ele><time>2026-04-25T08:30:51Z</time></trkpt><trkpt lat="46.579721092399296" lon="26.776103284217612"><ele>324.0</ele><time>2026-04-25T08:30:53Z</time></trkpt><trkpt lat="46.57978645656178" lon="26.77606235999751"><ele>324.0</ele><time>2026-04-25T08:30:54Z</time></trkpt><trkpt lat="46.579860565258414" lon="26.776026203912203"><ele>324.0</ele><time>2026-04-25T08:30:55Z</time></trkpt><trkpt lat="46.57992997388238" lon="26.775988461426348"><ele>324.0</ele><time>2026-04-25T08:30:56Z</time></trkpt><trkpt lat="46.57999975284279" lon="26.775964778255215"><ele>326.79999999999995</ele><time>2026-04-25T08:30:57Z</time></trkpt><trkpt lat="46.58011641238354" lon="26.775945525587503"><ele>329.59999999999997</ele><time>2026-04-25T08:30:59Z</time></trkpt><trkpt lat="46.5802316390696" lon="26.775921688880516"><ele>332.4</ele><time>2026-04-25T08:31:01Z</time></trkpt><trkpt lat="46.58029996021548" lon="26.775940909362024"><ele>335.2</ele><time>2026-04-25T08:31:02Z</time></trkpt><trkpt lat="46.58042165896397" lon="26.77594800244658"><ele>338.0</ele><time>2026-04-25T08:31:04Z</time></trkpt><trkpt lat="46.58052274763708" lon="26.775871721407707"><ele>338.1666666666667</ele><time>2026-04-25T08:31:06Z</time></trkpt><trkpt lat="46.580555389486605" lon="26.775788019515783"><ele>338.33333333333337</ele><time>2026-04-25T08:31:07Z</time></trkpt><trkpt lat="46.58057965530117" lon="26.77569036862292"><ele>338.5</ele><time>2026-04-25T08:31:08Z</time></trkpt><trkpt lat="46.58061084792823" lon="26.775577058422716"><ele>338.6666666666667</ele><time>2026-04-25T08:31:09Z</time></trkpt><trkpt lat="46.58067674511602" lon="26.775422100489152"><ele>338.8333333333333</ele><time>2026-04-25T08:31:11Z</time></trkpt><trkpt lat="46.58073362866117" lon="26.775348295592647"><ele>339.0</ele><time>2026-04-25T08:31:12Z</time></trkpt><trkpt lat="46.58078382357909" lon="26.775288867002516"><ele>339.0</ele><time>2026-04-25T08:31:13Z</time></trkpt><trkpt lat="46.58089941286161" lon="26.77520530643405"><ele>339.0</ele><time>2026-04-25T08:31:15Z</time></trkpt><trkpt lat="46.58100646171045" lon="26.775168600910618"><ele>339.0</ele><time>2026-04-25T08:31:17Z</time></trkpt><trkpt lat="46.58113884695801" lon="26.7751784711106"><ele>339.0</ele><time>2026-04-25T08:31:19Z</time></trkpt><trkpt lat="46.58121280174779" lon="26.775209773603677"><ele>339.0</ele><time>2026-04-25T08:31:19.999Z</time></trkpt><trkpt lat="46.58127652041842" lon="26.77525069358429"><ele>340.0</ele><time>2026-04-25T08:31:20.999Z</time></trkpt><trkpt lat="46.58134008051838" lon="26.775291297682468"><ele>341.0</ele><time>2026-04-25T08:31:21.999Z</time></trkpt><trkpt lat="46.58141052718391" lon="26.775340103435695"><ele>342.0</ele><time>2026-04-25T08:31:22.999Z</time></trkpt><trkpt lat="46.58147801056652" lon="26.775365457330896"><ele>343.0</ele><time>2026-04-25T08:31:23.999Z</time></trkpt><trkpt lat="46.581544451184136" lon="26.77536272054031"><ele>344.0</ele><time>2026-04-25T08:31:24.999Z</time></trkpt><trkpt lat="46.58162240579948" lon="26.775353143763525"><ele>345.0</ele><time>2026-04-25T08:31:25.999Z</time></trkpt><trkpt lat="46.58169387640746" lon="26.775335880052037"><ele>346.0</ele><time>2026-04-25T08:31:26.999Z</time></trkpt><trkpt lat="46.58175947999841" lon="26.77533041800292"><ele>346.0</ele><time>2026-04-25T08:31:27.999Z</time></trkpt><trkpt lat="46.581871334665685" lon="26.775386380755087"><ele>346.0</ele><time>2026-04-25T08:31:29.999Z</time></trkpt><trkpt lat="46.58191958575836" lon="26.77545236335572"><ele>346.0</ele><time>2026-04-25T08:31:30.999Z</time></trkpt><trkpt lat="46.581984763372475" lon="26.775611933589982"><ele>346.0</ele><time>2026-04-25T08:31:32.999Z</time></trkpt><trkpt lat="46.58202068059523" lon="26.775691919616083"><ele>346.0</ele><time>2026-04-25T08:31:33.999Z</time></trkpt><trkpt lat="46.582093281253805" lon="26.775841197896813"><ele>346.66666666666663</ele><time>2026-04-25T08:31:35.999Z</time></trkpt><trkpt lat="46.58214778928445" lon="26.77593323139098"><ele>347.3333333333333</ele><time>2026-04-25T08:31:36.999Z</time></trkpt><trkpt lat="46.582211736557646" lon="26.7760059992332"><ele>348.0</ele><time>2026-04-25T08:31:37.999Z</time></trkpt><trkpt lat="46.58226580122582" lon="26.776064473200393"><ele>348.6666666666667</ele><time>2026-04-25T08:31:38.999Z</time></trkpt><trkpt lat="46.58233353102936" lon="26.776142265055903"><ele>349.33333333333337</ele><time>2026-04-25T08:31:40.999Z</time></trkpt><trkpt lat="46.582401258438814" lon="26.776260794289552"><ele>350.0</ele><time>2026-04-25T08:31:42.999Z</time></trkpt><trkpt lat="46.5824579158579" lon="26.776410249717493"><ele>350.0</ele><time>2026-04-25T08:31:44.999Z</time></trkpt><trkpt lat="46.58250063434663" lon="26.776537399383777"><ele>350.0</ele><time>2026-04-25T08:31:46.999Z</time></trkpt><trkpt lat="46.58259405641262" lon="26.77662772203362"><ele>350.0</ele><time>2026-04-25T08:31:48.999Z</time></trkpt><trkpt lat="46.582700732023895" lon="26.776609547676063"><ele>350.0</ele><time>2026-04-25T08:31:50.999Z</time></trkpt><trkpt lat="46.582787087087084" lon="26.776492792869522"><ele>350.0</ele><time>2026-04-25T08:31:52.999Z</time></trkpt><trkpt lat="46.58283662335649" lon="26.776348750648953"><ele>350.8</ele><time>2026-04-25T08:31:54.999Z</time></trkpt><trkpt lat="46.58285709114727" lon="26.77626041701779"><ele>351.6</ele><time>2026-04-25T08:31:55.999Z</time></trkpt><trkpt lat="46.5829124759567" lon="26.7761126601833"><ele>352.4</ele><time>2026-04-25T08:31:57.999Z</time></trkpt><trkpt lat="46.582969339982114" lon="26.7759862327283"><ele>353.2</ele><time>2026-04-25T08:31:59.999Z</time></trkpt><trkpt lat="46.58300549308038" lon="26.77590401323816"><ele>354.0</ele><time>2026-04-25T08:32:00.999Z</time></trkpt><trkpt lat="46.583052163780565" lon="26.775764675222394"><ele>356.2</ele><time>2026-04-25T08:32:03.001Z</time></trkpt><trkpt lat="46.58311550721047" lon="26.775618505065548"><ele>358.4</ele><time>2026-04-25T08:32:05.001Z</time></trkpt><trkpt lat="46.58313723394185" lon="26.775530379542012"><ele>360.6</ele><time>2026-04-25T08:32:06.001Z</time></trkpt><trkpt lat="46.583158954117955" lon="26.77544007881301"><ele>362.8</ele><time>2026-04-25T08:32:07Z</time></trkpt><trkpt lat="46.58323299179729" lon="26.77526814919773"><ele>365.0</ele><time>2026-04-25T08:32:09Z</time></trkpt><trkpt lat="46.583270020371394" lon="26.7751876960075"><ele>367.6</ele><time>2026-04-25T08:32:10Z</time></trkpt><trkpt lat="46.583329634944036" lon="26.775048197668173"><ele>370.2</ele><time>2026-04-25T08:32:12Z</time></trkpt><trkpt lat="46.58340362877326" lon="26.774922480599283"><ele>372.79999999999995</ele><time>2026-04-25T08:32:14Z</time></trkpt><trkpt lat="46.58349705381805" lon="26.77482208287584"><ele>375.4</ele><time>2026-04-25T08:32:16Z</time></trkpt><trkpt lat="46.58355638536789" lon="26.77477302011581"><ele>378.0</ele><time>2026-04-25T08:32:17Z</time></trkpt><trkpt lat="46.58362137823875" lon="26.77474553630128"><ele>377.0</ele><time>2026-04-25T08:32:18Z</time></trkpt><trkpt lat="46.58369169738269" lon="26.774723409705512"><ele>376.0</ele><time>2026-04-25T08:32:19Z</time></trkpt><trkpt lat="46.58375652236988" lon="26.774701324209843"><ele>375.0</ele><time>2026-04-25T08:32:20Z</time></trkpt><trkpt lat="46.58381446695684" lon="26.77466227841829"><ele>374.0</ele><time>2026-04-25T08:32:21Z</time></trkpt><trkpt lat="46.583884598714796" lon="26.774589567862506"><ele>373.0</ele><time>2026-04-25T08:32:23Z</time></trkpt><trkpt lat="46.58391705210308" lon="26.774454376266082"><ele>372.0</ele><time>2026-04-25T08:32:25Z</time></trkpt><trkpt lat="46.58390603058177" lon="26.7743631207267"><ele>372.6666666666667</ele><time>2026-04-25T08:32:26Z</time></trkpt><trkpt lat="46.58389780788893" lon="26.77426299837159"><ele>373.3333333333333</ele><time>2026-04-25T08:32:27Z</time></trkpt><trkpt lat="46.58388413580071" lon="26.774084760849938"><ele>374.0</ele><time>2026-04-25T08:32:29Z</time></trkpt><trkpt lat="46.58388265682082" lon="26.773980508105005"><ele>374.66666666666663</ele><time>2026-04-25T08:32:30Z</time></trkpt><trkpt lat="46.58389121157559" lon="26.773881214434198"><ele>375.3333333333333</ele><time>2026-04-25T08:32:31Z</time></trkpt><trkpt lat="46.58391267012206" lon="26.77378253096278"><ele>376.0</ele><time>2026-04-25T08:32:32Z</time></trkpt><trkpt lat="46.58393827410392" lon="26.773674752637703"><ele>376.0</ele><time>2026-04-25T08:32:33Z</time></trkpt><trkpt lat="46.58394660088932" lon="26.773577450178152"><ele>376.0</ele><time>2026-04-25T08:32:34Z</time></trkpt><trkpt lat="46.58396349595285" lon="26.773466040374924"><ele>376.0</ele><time>2026-04-25T08:32:35Z</time></trkpt><trkpt lat="46.58398226362173" lon="26.773377691366044"><ele>376.0</ele><time>2026-04-25T08:32:36Z</time></trkpt><trkpt lat="46.58401941351585" lon="26.773196593884183"><ele>376.0</ele><time>2026-04-25T08:32:38Z</time></trkpt><trkpt lat="46.58403284964731" lon="26.77309456913225"><ele>376.0</ele><time>2026-04-25T08:32:39Z</time></trkpt><trkpt lat="46.584036848704294" lon="26.772982739900407"><ele>376.6</ele><time>2026-04-25T08:32:40Z</time></trkpt><trkpt lat="46.58405031163005" lon="26.772879724379056"><ele>377.20000000000005</ele><time>2026-04-25T08:32:41Z</time></trkpt><trkpt lat="46.58405864737778" lon="26.772772997590902"><ele>377.79999999999995</ele><time>2026-04-25T08:32:42Z</time></trkpt><trkpt lat="46.58405987121686" lon="26.772673859068533"><ele>378.4</ele><time>2026-04-25T08:32:43Z</time></trkpt><trkpt lat="46.58405909044324" lon="26.772494708003386"><ele>379.0</ele><time>2026-04-25T08:32:45Z</time></trkpt><trkpt lat="46.584069939191586" lon="26.77231371863838"><ele>379.0</ele><time>2026-04-25T08:32:47Z</time></trkpt><trkpt lat="46.58404786270724" lon="26.772226427139174"><ele>379.0</ele><time>2026-04-25T08:32:48Z</time></trkpt><trkpt lat="46.58396420358102" lon="26.772124769759113"><ele>379.0</ele><time>2026-04-25T08:32:50Z</time></trkpt><trkpt lat="46.58388879808725" lon="26.772129260659455"><ele>379.0</ele><time>2026-04-25T08:32:51Z</time></trkpt><trkpt lat="46.58380137401523" lon="26.772083476880123"><ele>379.0</ele><time>2026-04-25T08:32:53Z</time></trkpt><trkpt lat="46.58371290278377" lon="26.77202258427274"><ele>379.0</ele><time>2026-04-25T08:32:56Z</time></trkpt><trkpt lat="46.583640444407536" lon="26.77197863991945"><ele>381.0</ele><time>2026-04-25T08:33:00Z</time></trkpt><trkpt lat="46.58357395951199" lon="26.771938318347516"><ele>383.0</ele><time>2026-04-25T08:33:03Z</time></trkpt><trkpt lat="46.58349409104999" lon="26.771889804468533"><ele>385.0</ele><time>2026-04-25T08:33:06Z</time></trkpt><trkpt lat="46.583402497745524" lon="26.77183412106345"><ele>387.0</ele><time>2026-04-25T08:33:08Z</time></trkpt><trkpt lat="46.5833315775986" lon="26.77179100587411"><ele>389.00000000000006</ele><time>2026-04-25T08:33:10Z</time></trkpt><trkpt lat="46.583315131310705" lon="26.77163088965047"><ele>391.0</ele><time>2026-04-25T08:33:11Z</time></trkpt><trkpt lat="46.583287899513195" lon="26.771541570356167"><ele>391.00000000000006</ele><time>2026-04-25T08:33:12Z</time></trkpt><trkpt lat="46.583253767197206" lon="26.77143219563098"><ele>391.0</ele><time>2026-04-25T08:33:13Z</time></trkpt><trkpt lat="46.583218691269536" lon="26.77132001524269"><ele>391.0</ele><time>2026-04-25T08:33:13.999Z</time></trkpt><trkpt lat="46.58319232081081" lon="26.77123432120572"><ele>391.0</ele><time>2026-04-25T08:33:14.999Z</time></trkpt><trkpt lat="46.583163289525956" lon="26.77114029130485"><ele>391.00000000000006</ele><time>2026-04-25T08:33:15.999Z</time></trkpt><trkpt lat="46.58310815841218" lon="26.770963761713627"><ele>391.0</ele><time>2026-04-25T08:33:17.999Z</time></trkpt><trkpt lat="46.58306302642275" lon="26.77081710266616"><ele>389.4</ele><time>2026-04-25T08:33:19.999Z</time></trkpt><trkpt lat="46.58302023866348" lon="26.77067518358958"><ele>387.8</ele><time>2026-04-25T08:33:21.999Z</time></trkpt><trkpt lat="46.582923128592455" lon="26.77061535924106"><ele>386.2</ele><time>2026-04-25T08:33:24.999Z</time></trkpt><trkpt lat="46.58283083082355" lon="26.770505475510806"><ele>384.59999999999997</ele><time>2026-04-25T08:33:26.999Z</time></trkpt><trkpt lat="46.58274125765937" lon="26.770398389338016"><ele>383.0</ele><time>2026-04-25T08:33:28.999Z</time></trkpt><trkpt lat="46.58264773874849" lon="26.770286737687417"><ele>384.5</ele><time>2026-04-25T08:33:30.999Z</time></trkpt><trkpt lat="46.58259831416161" lon="26.770227902102082"><ele>386.0</ele><time>2026-04-25T08:33:31.999Z</time></trkpt><trkpt lat="46.58254797828128" lon="26.770168417063584"><ele>387.5</ele><time>2026-04-25T08:33:32.999Z</time></trkpt><trkpt lat="46.58249131957272" lon="26.770101459944883"><ele>389.0</ele><time>2026-04-25T08:33:33.999Z</time></trkpt><trkpt lat="46.58243183096792" lon="26.770030061027416"><ele>390.49999999999994</ele><time>2026-04-25T08:33:34.999Z</time></trkpt><trkpt lat="46.582382021388" lon="26.769970781450454"><ele>392.0</ele><time>2026-04-25T08:33:35.999Z</time></trkpt><trkpt lat="46.58229670472545" lon="26.76986918160067"><ele>392.0</ele><time>2026-04-25T08:33:37.999Z</time></trkpt><trkpt lat="46.582203938106986" lon="26.76975884555018"><ele>392.0</ele><time>2026-04-25T08:33:39.999Z</time></trkpt><trkpt lat="46.58211073437533" lon="26.769648192861577"><ele>392.0</ele><time>2026-04-25T08:33:41.999Z</time></trkpt><trkpt lat="46.58201954133927" lon="26.76954602430851"><ele>392.0</ele><time>2026-04-25T08:33:43.999Z</time></trkpt><trkpt lat="46.58192470392638" lon="26.769451971808934"><ele>393.6</ele><time>2026-04-25T08:33:45.999Z</time></trkpt><trkpt lat="46.581833447032" lon="26.769361292083044"><ele>395.20000000000005</ele><time>2026-04-25T08:33:47.999Z</time></trkpt><trkpt lat="46.58175678293379" lon="26.769282396929746"><ele>396.8</ele><time>2026-04-25T08:33:49.999Z</time></trkpt><trkpt lat="46.58167593781939" lon="26.769192074866712"><ele>398.4</ele><time>2026-04-25T08:33:51.999Z</time></trkpt><trkpt lat="46.581569214525814" lon="26.769099344043994"><ele>400.0</ele><time>2026-04-25T08:33:53.999Z</time></trkpt><trkpt lat="46.58148154751255" lon="26.76901136803096"><ele>400.00000000000006</ele><time>2026-04-25T08:33:55.999Z</time></trkpt><trkpt lat="46.58142019020996" lon="26.768950587479903"><ele>400.0</ele><time>2026-04-25T08:33:56.999Z</time></trkpt><trkpt lat="46.581364553417195" lon="26.76889500988004"><ele>400.0</ele><time>2026-04-25T08:33:57.999Z</time></trkpt><trkpt lat="46.58127063499178" lon="26.768801406734976"><ele>400.0</ele><time>2026-04-25T08:33:59.999Z</time></trkpt><trkpt lat="46.58120280112068" lon="26.768734021492346"><ele>400.00000000000006</ele><time>2026-04-25T08:34:01.999Z</time></trkpt><trkpt lat="46.58112607842131" lon="26.768650061941216"><ele>400.0</ele><time>2026-04-25T08:34:04.999Z</time></trkpt><trkpt lat="46.581052388596184" lon="26.768682784271082"><ele>400.4</ele><time>2026-04-25T08:34:06.999Z</time></trkpt><trkpt lat="46.58096623019446" lon="26.768737509435635"><ele>400.8</ele><time>2026-04-25T08:34:09Z</time></trkpt><trkpt lat="46.58087576453757" lon="26.768762531410793"><ele>401.20000000000005</ele><time>2026-04-25T08:34:11Z</time></trkpt><trkpt lat="46.58077717745688" lon="26.768669212486834"><ele>401.6</ele><time>2026-04-25T08:34:13Z</time></trkpt><trkpt lat="46.58071393413711" lon="26.7684931958023"><ele>402.0</ele><time>2026-04-25T08:34:15Z</time></trkpt><trkpt lat="46.58069862786082" lon="26.76838716412522"><ele>402.0</ele><time>2026-04-25T08:34:16Z</time></trkpt><trkpt lat="46.58062334125629" lon="26.768203593956468"><ele>402.0</ele><time>2026-04-25T08:34:18Z</time></trkpt><trkpt lat="46.580623627856774" lon="26.76805107765948"><ele>402.0</ele><time>2026-04-25T08:34:20Z</time></trkpt><trkpt lat="46.58062424125372" lon="26.767955092202484"><ele>402.0</ele><time>2026-04-25T08:34:21Z</time></trkpt><trkpt lat="46.58062424125226" lon="26.767794577832063"><ele>402.0</ele><time>2026-04-25T08:34:23Z</time></trkpt><trkpt lat="46.58062424125144" lon="26.767690082147723"><ele>402.3333333333333</ele><time>2026-04-25T08:34:25Z</time></trkpt><trkpt lat="46.58062424124842" lon="26.76757482481243"><ele>402.66666666666663</ele><time>2026-04-25T08:34:29Z</time></trkpt><trkpt lat="46.580624505085886" lon="26.767476808051534"><ele>403.0</ele><time>2026-04-25T08:34:32Z</time></trkpt><trkpt lat="46.580624926613645" lon="26.76735865303134"><ele>403.3333333333333</ele><time>2026-04-25T08:34:35Z</time></trkpt><trkpt lat="46.58062528375931" lon="26.76725854353594"><ele>403.66666666666663</ele><time>2026-04-25T08:34:37Z</time></trkpt><trkpt lat="46.5806260193377" lon="26.767103775765996"><ele>404.0</ele><time>2026-04-25T08:34:39Z</time></trkpt><trkpt lat="46.58062785488691" lon="26.76692871886339"><ele>404.2</ele><time>2026-04-25T08:34:41Z</time></trkpt><trkpt lat="46.58062965468942" lon="26.766767815708846"><ele>404.4</ele><time>2026-04-25T08:34:43Z</time></trkpt><trkpt lat="46.580630727946804" lon="26.766672180754544"><ele>404.6</ele><time>2026-04-25T08:34:44Z</time></trkpt><trkpt lat="46.580631832116175" lon="26.766573317631366"><ele>404.8</ele><time>2026-04-25T08:34:45Z</time></trkpt><trkpt lat="46.58063415795326" lon="26.766365060385446"><ele>405.0</ele><time>2026-04-25T08:34:47Z</time></trkpt><trkpt lat="46.58063537133484" lon="26.76625641485999"><ele>405.0</ele><time>2026-04-25T08:34:48Z</time></trkpt><trkpt lat="46.580607797410245" lon="26.766160311894236"><ele>405.0</ele><time>2026-04-25T08:34:50Z</time></trkpt><trkpt lat="46.580594416881766" lon="26.766070589735527"><ele>405.0</ele><time>2026-04-25T08:34:51Z</time></trkpt><trkpt lat="46.580579924062945" lon="26.765973349040614"><ele>405.0</ele><time>2026-04-25T08:34:52Z</time></trkpt><trkpt lat="46.58056412251574" lon="26.765867353147346"><ele>405.0</ele><time>2026-04-25T08:34:53Z</time></trkpt><trkpt lat="46.58055048214925" lon="26.765775552705424"><ele>405.0</ele><time>2026-04-25T08:34:54Z</time></trkpt><trkpt lat="46.580523191014116" lon="26.765593803287402"><ele>404.6</ele><time>2026-04-25T08:34:56Z</time></trkpt><trkpt lat="46.58049596177006" lon="26.76541513473647"><ele>404.2</ele><time>2026-04-25T08:34:58Z</time></trkpt><trkpt lat="46.58048227841541" lon="26.765325369766142"><ele>403.79999999999995</ele><time>2026-04-25T08:34:59Z</time></trkpt><trkpt lat="46.580458379928984" lon="26.76516424995399"><ele>403.4</ele><time>2026-04-25T08:35:01Z</time></trkpt><trkpt lat="46.58043687040733" lon="26.765021977523677"><ele>403.0</ele><time>2026-04-25T08:35:03Z</time></trkpt><trkpt lat="46.580420936694374" lon="26.764918673614613"><ele>401.75</ele><time>2026-04-25T08:35:05Z</time></trkpt><trkpt lat="46.58057054864824" lon="26.765057093742836"><ele>400.5</ele><time>2026-04-25T08:35:07Z</time></trkpt><trkpt lat="46.580493797293556" lon="26.764906713005956"><ele>399.25</ele><time>2026-04-25T08:35:11Z</time></trkpt><trkpt lat="46.580435526223226" lon="26.76502878748052"><ele>398.0</ele><time>2026-04-25T08:35:13Z</time></trkpt><trkpt lat="46.58035821493666" lon="26.76509575884868"><ele>398.2</ele><time>2026-04-25T08:35:14.999Z</time></trkpt><trkpt lat="46.58026637779874" lon="26.76515239071384"><ele>398.4</ele><time>2026-04-25T08:35:16.999Z</time></trkpt><trkpt lat="46.5801538939099" lon="26.76519896375337"><ele>398.59999999999997</ele><time>2026-04-25T08:35:18.999Z</time></trkpt><trkpt lat="46.58005083829194" lon="26.765256550873907"><ele>398.79999999999995</ele><time>2026-04-25T08:35:20.999Z</time></trkpt><trkpt lat="46.579960464429305" lon="26.765331611393293"><ele>399.0</ele><time>2026-04-25T08:35:22.999Z</time></trkpt><trkpt lat="46.579767185420735" lon="26.765219940399565"><ele>402.4</ele><time>2026-04-25T08:35:24.999Z</time></trkpt><trkpt lat="46.57966608414258" lon="26.765310848766433"><ele>405.79999999999995</ele><time>2026-04-25T08:35:26.999Z</time></trkpt><trkpt lat="46.579607272656816" lon="26.765364059159236"><ele>409.20000000000005</ele><time>2026-04-25T08:35:27.999Z</time></trkpt><trkpt lat="46.57950621406691" lon="26.765451575313467"><ele>412.6</ele><time>2026-04-25T08:35:29.999Z</time></trkpt><trkpt lat="46.57941029814708" lon="26.765532237381528"><ele>416.0</ele><time>2026-04-25T08:35:31.999Z</time></trkpt><trkpt lat="46.57930488632365" lon="26.765619168044136"><ele>415.99999999999994</ele><time>2026-04-25T08:35:33.999Z</time></trkpt><trkpt lat="46.5792403708953" lon="26.7656021810825"><ele>416.0</ele><time>2026-04-25T08:35:35.999Z</time></trkpt><trkpt lat="46.57913701576191" lon="26.76560046473777"><ele>416.0</ele><time>2026-04-25T08:35:37.999Z</time></trkpt><trkpt lat="46.5790437419245" lon="26.765599459861164"><ele>416.0</ele><time>2026-04-25T08:35:39.999Z</time></trkpt><trkpt lat="46.578975289640844" lon="26.76559849250121"><ele>415.99999999999994</ele><time>2026-04-25T08:35:42.999Z</time></trkpt><trkpt lat="46.57889265871073" lon="26.765597230001816"><ele>416.0</ele><time>2026-04-25T08:35:46.999Z</time></trkpt><trkpt lat="46.578805736092754" lon="26.765595901928968"><ele>416.0</ele><time>2026-04-25T08:35:50.999Z</time></trkpt><trkpt lat="46.57872559791066" lon="26.76559460855255"><ele>416.0</ele><time>2026-04-25T08:35:53.999Z</time></trkpt><trkpt lat="46.578694338461396" lon="26.765413647785618"><ele>416.0</ele><time>2026-04-25T08:35:55.999Z</time></trkpt><trkpt lat="46.57869671875885" lon="26.765279680904563"><ele>416.0</ele><time>2026-04-25T08:35:57.999Z</time></trkpt><trkpt lat="46.57870590278964" lon="26.76513252345793"><ele>416.0</ele><time>2026-04-25T08:35:59.999Z</time></trkpt><trkpt lat="46.57868754132332" lon="26.764967738383632"><ele>417.66666666666663</ele><time>2026-04-25T08:36:01.999Z</time></trkpt><trkpt lat="46.578662852275244" lon="26.76479674211739"><ele>419.3333333333333</ele><time>2026-04-25T08:36:03.999Z</time></trkpt><trkpt lat="46.578581269841244" lon="26.764674289236602"><ele>421.0</ele><time>2026-04-25T08:36:05.999Z</time></trkpt><trkpt lat="46.57853206177713" lon="26.764613244808768"><ele>422.66666666666663</ele><time>2026-04-25T08:36:06.999Z</time></trkpt><trkpt lat="46.5784769722593" lon="26.764556345045214"><ele>424.3333333333333</ele><time>2026-04-25T08:36:07.999Z</time></trkpt><trkpt lat="46.57841636126702" lon="26.764493990255556"><ele>426.0</ele><time>2026-04-25T08:36:08.999Z</time></trkpt><trkpt lat="46.5783214764695" lon="26.764410291545428"><ele>426.0</ele><time>2026-04-25T08:36:10.999Z</time></trkpt><trkpt lat="46.578261082766616" lon="26.764367864867094"><ele>426.0</ele><time>2026-04-25T08:36:11.999Z</time></trkpt><trkpt lat="46.57815615245133" lon="26.7642455673776"><ele>426.0</ele><time>2026-04-25T08:36:14Z</time></trkpt><trkpt lat="46.57810189991605" lon="26.764175322613735"><ele>426.0</ele><time>2026-04-25T08:36:15Z</time></trkpt><trkpt lat="46.578060046877305" lon="26.764096565249307"><ele>426.0</ele><time>2026-04-25T08:36:16Z</time></trkpt><trkpt lat="46.57795567736143" lon="26.763997221979963"><ele>426.85714285714283</ele><time>2026-04-25T08:36:18Z</time></trkpt><trkpt lat="46.577885546705076" lon="26.76396868394994"><ele>427.7142857142857</ele><time>2026-04-25T08:36:19Z</time></trkpt><trkpt lat="46.57781144550061" lon="26.763940520583176"><ele>428.57142857142856</ele><time>2026-04-25T08:36:20Z</time></trkpt><trkpt lat="46.57774775348359" lon="26.763890142991947"><ele>429.42857142857144</ele><time>2026-04-25T08:36:21Z</time></trkpt><trkpt lat="46.57767307185177" lon="26.763842035714582"><ele>430.2857142857143</ele><time>2026-04-25T08:36:22Z</time></trkpt><trkpt lat="46.577607487384526" lon="26.763790648527884"><ele>431.1428571428571</ele><time>2026-04-25T08:36:23Z</time></trkpt><trkpt lat="46.577546511276886" lon="26.76375542542793"><ele>432.0</ele><time>2026-04-25T08:36:24Z</time></trkpt><trkpt lat="46.57743912429584" lon="26.763680814758665"><ele>432.0</ele><time>2026-04-25T08:36:26Z</time></trkpt><trkpt lat="46.57738297509592" lon="26.76363015088636"><ele>432.00000000000006</ele><time>2026-04-25T08:36:27Z</time></trkpt><trkpt lat="46.577306760990254" lon="26.76356491140182"><ele>432.00000000000006</ele><time>2026-04-25T08:36:29Z</time></trkpt><trkpt lat="46.57726092529275" lon="26.763421426354313"><ele>432.0</ele><time>2026-04-25T08:36:31Z</time></trkpt><trkpt lat="46.57725490343031" lon="26.763232440468613"><ele>432.0</ele><time>2026-04-25T08:36:33Z</time></trkpt><trkpt lat="46.57726217513858" lon="26.76313961040853"><ele>429.8333333333333</ele><time>2026-04-25T08:36:34Z</time></trkpt><trkpt lat="46.57726946267762" lon="26.76302546014914"><ele>427.66666666666663</ele><time>2026-04-25T08:36:35Z</time></trkpt><trkpt lat="46.577283697690575" lon="26.762910648846653"><ele>425.5</ele><time>2026-04-25T08:36:36Z</time></trkpt><trkpt lat="46.577302883496245" lon="26.762801310181864"><ele>423.3333333333333</ele><time>2026-04-25T08:36:37Z</time></trkpt><trkpt lat="46.577299038873235" lon="26.76270340899576"><ele>421.16666666666663</ele><time>2026-04-25T08:36:38Z</time></trkpt><trkpt lat="46.57727777564534" lon="26.76252430177607"><ele>419.0</ele><time>2026-04-25T08:36:40Z</time></trkpt><trkpt lat="46.577300018280944" lon="26.762426331163663"><ele>418.99999999999994</ele><time>2026-04-25T08:36:41Z</time></trkpt><trkpt lat="46.57733621054156" lon="26.76234293231819"><ele>419.0</ele><time>2026-04-25T08:36:42Z</time></trkpt><trkpt lat="46.577379781135775" lon="26.762247109812147"><ele>419.0</ele><time>2026-04-25T08:36:43Z</time></trkpt><trkpt lat="46.577420992912906" lon="26.762148358531157"><ele>419.0</ele><time>2026-04-25T08:36:44Z</time></trkpt><trkpt lat="46.57745672692513" lon="26.762058481083244"><ele>419.0</ele><time>2026-04-25T08:36:45Z</time></trkpt><trkpt lat="46.57747550672937" lon="26.7619663894017"><ele>418.99999999999994</ele><time>2026-04-25T08:36:46Z</time></trkpt><trkpt lat="46.57749244915334" lon="26.76187051189195"><ele>419.0</ele><time>2026-04-25T08:36:47Z</time></trkpt><trkpt lat="46.57751084949735" lon="26.761764804216234"><ele>419.79999999999995</ele><time>2026-04-25T08:36:48Z</time></trkpt><trkpt lat="46.57749582710594" lon="26.761661719895265"><ele>420.59999999999997</ele><time>2026-04-25T08:36:49Z</time></trkpt><trkpt lat="46.577495337490184" lon="26.761477916566076"><ele>421.4</ele><time>2026-04-25T08:36:51Z</time></trkpt><trkpt lat="46.577411758350685" lon="26.76134577429749"><ele>422.2</ele><time>2026-04-25T08:36:53Z</time></trkpt><trkpt lat="46.57735197361081" lon="26.761309888072105"><ele>423.0</ele><time>2026-04-25T08:36:54Z</time></trkpt><trkpt lat="46.577280327298375" lon="26.761292158194102"><ele>423.0</ele><time>2026-04-25T08:36:55Z</time></trkpt><trkpt lat="46.577208522339106" lon="26.761268813968446"><ele>423.0</ele><time>2026-04-25T08:36:56Z</time></trkpt><trkpt lat="46.577103249132776" lon="26.761183972357042"><ele>423.0</ele><time>2026-04-25T08:36:58Z</time></trkpt><trkpt lat="46.57704262105626" lon="26.761097691827075"><ele>423.0</ele><time>2026-04-25T08:36:59Z</time></trkpt><trkpt lat="46.57700184730808" lon="26.761013353441356"><ele>423.0</ele><time>2026-04-25T08:37:00Z</time></trkpt><trkpt lat="46.57695702861188" lon="26.760937778080958"><ele>423.0</ele><time>2026-04-25T08:37:01Z</time></trkpt><trkpt lat="46.57690228844864" lon="26.760852709049594"><ele>422.6666666666667</ele><time>2026-04-25T08:37:02Z</time></trkpt><trkpt lat="46.57688148187088" lon="26.760746331165656"><ele>422.33333333333337</ele><time>2026-04-25T08:37:03Z</time></trkpt><trkpt lat="46.57688171749351" lon="26.760630776622396"><ele>422.0</ele><time>2026-04-25T08:37:04Z</time></trkpt><trkpt lat="46.57685837519026" lon="26.76054244656928"><ele>421.6666666666667</ele><time>2026-04-25T08:37:05Z</time></trkpt><trkpt lat="46.57682084672767" lon="26.760377587486666"><ele>421.33333333333337</ele><time>2026-04-25T08:37:07Z</time></trkpt><trkpt lat="46.57679314829581" lon="26.760293128069264"><ele>421.0</ele><time>2026-04-25T08:37:08Z</time></trkpt><trkpt lat="46.576720711628184" lon="26.76019282756863"><ele>419.6666666666667</ele><time>2026-04-25T08:37:10Z</time></trkpt><trkpt lat="46.576656773882604" lon="26.760087001154787"><ele>418.33333333333337</ele><time>2026-04-25T08:37:12Z</time></trkpt><trkpt lat="46.57657333625321" lon="26.75998811971197"><ele>417.0</ele><time>2026-04-25T08:37:14Z</time></trkpt><trkpt lat="46.576499858303464" lon="26.759936917451707"><ele>415.66666666666663</ele><time>2026-04-25T08:37:16Z</time></trkpt><trkpt lat="46.57642738404811" lon="26.759927323511576"><ele>414.3333333333333</ele><time>2026-04-25T08:37:17.999Z</time></trkpt><trkpt lat="46.57634353080554" lon="26.75993350494486"><ele>413.0</ele><time>2026-04-25T08:37:19.999Z</time></trkpt><trkpt lat="46.57625489260069" lon="26.759984335885353"><ele>412.99999999999994</ele><time>2026-04-25T08:37:22.999Z</time></trkpt><trkpt lat="46.576193472350845" lon="26.760035682409004"><ele>413.0</ele><time>2026-04-25T08:37:24.999Z</time></trkpt><trkpt lat="46.57614781072693" lon="26.760116358621556"><ele>413.0</ele><time>2026-04-25T08:37:26.999Z</time></trkpt><trkpt lat="46.576123778899984" lon="26.760224727312252"><ele>413.0</ele><time>2026-04-25T08:37:28.999Z</time></trkpt><trkpt lat="46.57610665193228" lon="26.7603491007881"><ele>412.99999999999994</ele><time>2026-04-25T08:37:30.999Z</time></trkpt><trkpt lat="46.57607314041525" lon="26.76048511695254"><ele>413.0</ele><time>2026-04-25T08:37:32.999Z</time></trkpt><trkpt lat="46.57600447230904" lon="26.760600918056653"><ele>412.99999999999994</ele><time>2026-04-25T08:37:34.999Z</time></trkpt><trkpt lat="46.57589830726217" lon="26.760666022043434"><ele>413.0</ele><time>2026-04-25T08:37:36.999Z</time></trkpt><trkpt lat="46.575824152957935" lon="26.760665958422795"><ele>413.0</ele><time>2026-04-25T08:37:37.999Z</time></trkpt><trkpt lat="46.5757534508301" lon="26.760672356427946"><ele>413.0</ele><time>2026-04-25T08:37:38.999Z</time></trkpt><trkpt lat="46.575674676810046" lon="26.760650762727984"><ele>412.99999999999994</ele><time>2026-04-25T08:37:39.999Z</time></trkpt><trkpt lat="46.57559944195528" lon="26.760625576411254"><ele>413.0</ele><time>2026-04-25T08:37:40.999Z</time></trkpt><trkpt lat="46.57550349685219" lon="26.760601503677528"><ele>413.0</ele><time>2026-04-25T08:37:42.999Z</time></trkpt><trkpt lat="46.57540397829969" lon="26.76077383019591"><ele>413.0</ele><time>2026-04-25T08:37:44.999Z</time></trkpt><trkpt lat="46.57531194475124" lon="26.760783673311362"><ele>413.0</ele><time>2026-04-25T08:37:46.999Z</time></trkpt><trkpt lat="46.57520372235516" lon="26.760795949045136"><ele>413.0</ele><time>2026-04-25T08:37:48.999Z</time></trkpt><trkpt lat="46.57510251674457" lon="26.760807295350403"><ele>412.75</ele><time>2026-04-25T08:37:50.999Z</time></trkpt><trkpt lat="46.57494713258127" lon="26.76087827114323"><ele>412.5</ele><time>2026-04-25T08:37:51.999Z</time></trkpt><trkpt lat="46.574863053450905" lon="26.760820982731882"><ele>412.25</ele><time>2026-04-25T08:37:53.999Z</time></trkpt><trkpt lat="46.574777005856824" lon="26.76076347608685"><ele>412.0</ele><time>2026-04-25T08:37:55.999Z</time></trkpt><trkpt lat="46.5746847347498" lon="26.760701962016622"><ele>412.0</ele><time>2026-04-25T08:37:57.999Z</time></trkpt><trkpt lat="46.57459245899186" lon="26.76064017899859"><ele>412.0</ele><time>2026-04-25T08:37:59.999Z</time></trkpt><trkpt lat="46.574482001197296" lon="26.760566592025857"><ele>412.0</ele><time>2026-04-25T08:38:01.999Z</time></trkpt><trkpt lat="46.5744196921907" lon="26.760524163673193"><ele>412.0</ele><time>2026-04-25T08:38:02.999Z</time></trkpt><trkpt lat="46.57434519723511" lon="26.760472382360096"><ele>412.0</ele><time>2026-04-25T08:38:03.999Z</time></trkpt><trkpt lat="46.57426506324041" lon="26.760484912214384"><ele>411.6666666666667</ele><time>2026-04-25T08:38:05.999Z</time></trkpt><trkpt lat="46.57415289017034" lon="26.760459576405975"><ele>411.33333333333337</ele><time>2026-04-25T08:38:07.999Z</time></trkpt><trkpt lat="46.57406642434247" lon="26.76044005569571"><ele>411.0</ele><time>2026-04-25T08:38:09.999Z</time></trkpt><trkpt lat="46.57404397792308" lon="26.760330348459167"><ele>410.66666666666663</ele><time>2026-04-25T08:38:11.999Z</time></trkpt><trkpt lat="46.57397294498809" lon="26.76035447153878"><ele>410.3333333333333</ele><time>2026-04-25T08:38:13.999Z</time></trkpt><trkpt lat="46.57389183282873" lon="26.760374733198777"><ele>410.0</ele><time>2026-04-25T08:38:15.999Z</time></trkpt><trkpt lat="46.57380711801915" lon="26.760399448704472"><ele>409.99999999999994</ele><time>2026-04-25T08:38:17.999Z</time></trkpt><trkpt lat="46.57372028479643" lon="26.760424739109535"><ele>410.0</ele><time>2026-04-25T08:38:20Z</time></trkpt><trkpt lat="46.57363033406285" lon="26.760450720881447"><ele>410.0</ele><time>2026-04-25T08:38:22Z</time></trkpt><trkpt lat="46.57356131967391" lon="26.760470575241712"><ele>410.0</ele><time>2026-04-25T08:38:24Z</time></trkpt><trkpt lat="46.57349216474804" lon="26.760514552368562"><ele>409.99999999999994</ele><time>2026-04-25T08:38:26Z</time></trkpt><trkpt lat="46.57345033290292" lon="26.760389204866897"><ele>410.0</ele><time>2026-04-25T08:38:28Z</time></trkpt><trkpt lat="46.5734456321858" lon="26.760295121755448"><ele>407.0</ele><time>2026-04-25T08:38:29Z</time></trkpt><trkpt lat="46.5734318717688" lon="26.76015024749008"><ele>404.0</ele><time>2026-04-25T08:38:31Z</time></trkpt><trkpt lat="46.57340279179355" lon="26.76001736131113"><ele>401.0</ele><time>2026-04-25T08:38:33Z</time></trkpt><trkpt lat="46.57335336085837" lon="26.759925892924908"><ele>398.0</ele><time>2026-04-25T08:38:35Z</time></trkpt><trkpt lat="46.57326801429972" lon="26.759916741407114"><ele>395.0</ele><time>2026-04-25T08:38:37Z</time></trkpt><trkpt lat="46.573167955500374" lon="26.759958816146035"><ele>395.0</ele><time>2026-04-25T08:38:39Z</time></trkpt><trkpt lat="46.5730743971208" lon="26.75998261694092"><ele>395.0</ele><time>2026-04-25T08:38:41Z</time></trkpt><trkpt lat="46.5729747796011" lon="26.759973104392646"><ele>395.0</ele><time>2026-04-25T08:38:43Z</time></trkpt><trkpt lat="46.572884235011806" lon="26.759939173214057"><ele>395.0</ele><time>2026-04-25T08:38:45Z</time></trkpt><trkpt lat="46.57279038836551" lon="26.759909515093348"><ele>395.0</ele><time>2026-04-25T08:38:47Z</time></trkpt><trkpt lat="46.572704959595605" lon="26.759880344883427"><ele>394.0</ele><time>2026-04-25T08:38:49Z</time></trkpt><trkpt lat="46.572634837492956" lon="26.75988875822895"><ele>393.0</ele><time>2026-04-25T08:38:51Z</time></trkpt><trkpt lat="46.57255325715689" lon="26.75994279837839"><ele>392.0</ele><time>2026-04-25T08:38:53Z</time></trkpt><trkpt lat="46.57249054049017" lon="26.760081959275556"><ele>391.0</ele><time>2026-04-25T08:38:55Z</time></trkpt><trkpt lat="46.57241930425239" lon="26.760185459992044"><ele>390.0</ele><time>2026-04-25T08:38:57Z</time></trkpt><trkpt lat="46.57231982340032" lon="26.760231819670693"><ele>391.6</ele><time>2026-04-25T08:38:59Z</time></trkpt><trkpt lat="46.57222233455507" lon="26.760265817534652"><ele>393.2</ele><time>2026-04-25T08:39:01Z</time></trkpt><trkpt lat="46.572117795332865" lon="26.76031707375576"><ele>394.79999999999995</ele><time>2026-04-25T08:39:03Z</time></trkpt><trkpt lat="46.57201440989328" lon="26.760356730364315"><ele>396.4</ele><time>2026-04-25T08:39:05Z</time></trkpt><trkpt lat="46.571951816268765" lon="26.760381924738528"><ele>398.0</ele><time>2026-04-25T08:39:06Z</time></trkpt><trkpt lat="46.571839039884914" lon="26.760385878332787"><ele>397.99999999999994</ele><time>2026-04-25T08:39:08Z</time></trkpt><trkpt lat="46.57174927191165" lon="26.760358244338352"><ele>398.0</ele><time>2026-04-25T08:39:10Z</time></trkpt><trkpt lat="46.57164733644424" lon="26.760298672107112"><ele>398.0</ele><time>2026-04-25T08:39:12Z</time></trkpt><trkpt lat="46.57155967419924" lon="26.760262074404515"><ele>398.0</ele><time>2026-04-25T08:39:14Z</time></trkpt><trkpt lat="46.57148020903568" lon="26.760202231916487"><ele>397.99999999999994</ele><time>2026-04-25T08:39:16Z</time></trkpt><trkpt lat="46.57141990890743" lon="26.760167462647434"><ele>398.0</ele><time>2026-04-25T08:39:18Z</time></trkpt><trkpt lat="46.57136568985391" lon="26.760109354386127"><ele>395.79999999999995</ele><time>2026-04-25T08:39:20.999Z</time></trkpt><trkpt lat="46.571416315437375" lon="26.759850049045532"><ele>393.6</ele><time>2026-04-25T08:39:21.999Z</time></trkpt><trkpt lat="46.57140941926" lon="26.759729776122878"><ele>391.4</ele><time>2026-04-25T08:39:24.999Z</time></trkpt><trkpt lat="46.57138648261226" lon="26.759633365906343"><ele>389.20000000000005</ele><time>2026-04-25T08:39:26.999Z</time></trkpt><trkpt lat="46.57132181445529" lon="26.759548284879298"><ele>387.0</ele><time>2026-04-25T08:39:28.999Z</time></trkpt><trkpt lat="46.571245014806095" lon="26.759538888683576"><ele>389.20000000000005</ele><time>2026-04-25T08:39:30.999Z</time></trkpt><trkpt lat="46.571166152489084" lon="26.759588159956902"><ele>391.4</ele><time>2026-04-25T08:39:32.999Z</time></trkpt><trkpt lat="46.57108585029115" lon="26.759640800946663"><ele>393.6</ele><time>2026-04-25T08:39:34.999Z</time></trkpt><trkpt lat="46.57099961866535" lon="26.759632456594755"><ele>395.79999999999995</ele><time>2026-04-25T08:39:36.999Z</time></trkpt><trkpt lat="46.570908194635635" lon="26.759739803424363"><ele>398.0</ele><time>2026-04-25T08:39:38.999Z</time></trkpt><trkpt lat="46.570813745823095" lon="26.75971518330289"><ele>398.0</ele><time>2026-04-25T08:39:40.999Z</time></trkpt><trkpt lat="46.570711881100664" lon="26.759688812514028"><ele>398.0</ele><time>2026-04-25T08:39:42.999Z</time></trkpt><trkpt lat="46.570638192643564" lon="26.759670040939394"><ele>398.0</ele><time>2026-04-25T08:39:44.999Z</time></trkpt><trkpt lat="46.57057780655699" lon="26.75961989681506"><ele>398.0</ele><time>2026-04-25T08:39:47.999Z</time></trkpt><trkpt lat="46.57062434978726" lon="26.759251540586884"><ele>396.4</ele><time>2026-04-25T08:39:48.999Z</time></trkpt><trkpt lat="46.57065788164389" lon="26.759123119015452"><ele>394.79999999999995</ele><time>2026-04-25T08:39:50.999Z</time></trkpt><trkpt lat="46.5706995418666" lon="26.759009572523155"><ele>393.2</ele><time>2026-04-25T08:39:52.999Z</time></trkpt><trkpt lat="46.57070469812721" lon="26.758896083117982"><ele>391.6</ele><time>2026-04-25T08:39:54.999Z</time></trkpt><trkpt lat="46.5706436534088" lon="26.758795589750456"><ele>390.0</ele><time>2026-04-25T08:39:56.999Z</time></trkpt><trkpt lat="46.57053865454751" lon="26.75875029751952"><ele>390.0</ele><time>2026-04-25T08:39:58.999Z</time></trkpt><trkpt lat="46.57043342897902" lon="26.758738503018066"><ele>390.0</ele><time>2026-04-25T08:40:00.999Z</time></trkpt><trkpt lat="46.57032046960654" lon="26.7587431889753"><ele>390.0</ele><time>2026-04-25T08:40:02.999Z</time></trkpt><trkpt lat="46.570207862168154" lon="26.75873891942704"><ele>390.0</ele><time>2026-04-25T08:40:04.999Z</time></trkpt><trkpt lat="46.57008610495094" lon="26.75870045442961"><ele>391.1666666666667</ele><time>2026-04-25T08:40:06.999Z</time></trkpt><trkpt lat="46.57001873755904" lon="26.758705730049588"><ele>392.33333333333337</ele><time>2026-04-25T08:40:07.999Z</time></trkpt><trkpt lat="46.56995153339353" lon="26.758700660178963"><ele>393.5</ele><time>2026-04-25T08:40:08.999Z</time></trkpt><trkpt lat="46.56988253486369" lon="26.758697241402064"><ele>394.6666666666667</ele><time>2026-04-25T08:40:09.999Z</time></trkpt><trkpt lat="46.56976183740619" lon="26.75865484702555"><ele>395.83333333333337</ele><time>2026-04-25T08:40:11.999Z</time></trkpt><trkpt lat="46.5697010315272" lon="26.758614541945054"><ele>397.0</ele><time>2026-04-25T08:40:12.999Z</time></trkpt><trkpt lat="46.56957948705654" lon="26.758548710970473"><ele>396.1666666666667</ele><time>2026-04-25T08:40:14.999Z</time></trkpt><trkpt lat="46.5695198280538" lon="26.7585039567333"><ele>395.33333333333337</ele><time>2026-04-25T08:40:15.999Z</time></trkpt><trkpt lat="46.56942275601562" lon="26.758442732167435"><ele>394.5</ele><time>2026-04-25T08:40:17.999Z</time></trkpt><trkpt lat="46.569335216299024" lon="26.758345076003692"><ele>393.66666666666663</ele><time>2026-04-25T08:40:19.999Z</time></trkpt><trkpt lat="46.56928383266498" lon="26.758273123176906"><ele>392.8333333333333</ele><time>2026-04-25T08:40:20.999Z</time></trkpt><trkpt lat="46.569243628554325" lon="26.75820129907724"><ele>392.0</ele><time>2026-04-25T08:40:21.999Z</time></trkpt><trkpt lat="46.56919677920061" lon="26.758038957871225"><ele>391.99999999999994</ele><time>2026-04-25T08:40:23.999Z</time></trkpt><trkpt lat="46.569173354735334" lon="26.75793827570218"><ele>392.0</ele><time>2026-04-25T08:40:24.999Z</time></trkpt><trkpt lat="46.56912685883632" lon="26.757793084502826"><ele>392.0</ele><time>2026-04-25T08:40:27Z</time></trkpt><trkpt lat="46.5690939101493" lon="26.757680360572145"><ele>392.0</ele><time>2026-04-25T08:40:29Z</time></trkpt><trkpt lat="46.56904295102363" lon="26.757579460850685"><ele>391.99999999999994</ele><time>2026-04-25T08:40:31Z</time></trkpt><trkpt lat="46.568992160655625" lon="26.757501246219036"><ele>392.0</ele><time>2026-04-25T08:40:33Z</time></trkpt><trkpt lat="46.56895417505827" lon="26.757413855340392"><ele>391.0</ele><time>2026-04-25T08:40:35Z</time></trkpt><trkpt lat="46.56895266537013" lon="26.757292188520662"><ele>390.0</ele><time>2026-04-25T08:40:37Z</time></trkpt><trkpt lat="46.568997438918664" lon="26.757203051302454"><ele>389.0</ele><time>2026-04-25T08:40:39Z</time></trkpt><trkpt lat="46.56906980332738" lon="26.757087208855083"><ele>388.0</ele><time>2026-04-25T08:40:41Z</time></trkpt><trkpt lat="46.569165895132386" lon="26.757052602167224"><ele>387.0</ele><time>2026-04-25T08:40:43Z</time></trkpt><trkpt lat="46.569261561876566" lon="26.75701137108932"><ele>387.0</ele><time>2026-04-25T08:40:45Z</time></trkpt><trkpt lat="46.56934440512502" lon="26.756942303945493"><ele>387.0</ele><time>2026-04-25T08:40:47Z</time></trkpt><trkpt lat="46.56940633498704" lon="26.756838230996507"><ele>387.0</ele><time>2026-04-25T08:40:49Z</time></trkpt><trkpt lat="46.56947534216334" lon="26.756741579875634"><ele>387.0</ele><time>2026-04-25T08:40:51Z</time></trkpt><trkpt lat="46.56954859445983" lon="26.75661719522978"><ele>387.0</ele><time>2026-04-25T08:40:53Z</time></trkpt><trkpt lat="46.56961959710568" lon="26.756485840024997"><ele>386.5</ele><time>2026-04-25T08:40:55Z</time></trkpt><trkpt lat="46.56970704429621" lon="26.756399054579663"><ele>386.0</ele><time>2026-04-25T08:40:57Z</time></trkpt><trkpt lat="46.56980029879246" lon="26.75631602536821"><ele>385.5</ele><time>2026-04-25T08:40:59Z</time></trkpt><trkpt lat="46.56985120355303" lon="26.756261995942474"><ele>385.0</ele><time>2026-04-25T08:41:00Z</time></trkpt><trkpt lat="46.569898522925655" lon="26.75619939294993"><ele>384.5</ele><time>2026-04-25T08:41:01Z</time></trkpt><trkpt lat="46.56996650170807" lon="26.756091114515815"><ele>384.0</ele><time>2026-04-25T08:41:03Z</time></trkpt><trkpt lat="46.57002618127285" lon="26.75597494337768"><ele>384.0</ele><time>2026-04-25T08:41:05Z</time></trkpt><trkpt lat="46.57005978090303" lon="26.755867218267714"><ele>384.0</ele><time>2026-04-25T08:41:07Z</time></trkpt><trkpt lat="46.57009927328946" lon="26.755751031351856"><ele>384.0</ele><time>2026-04-25T08:41:09Z</time></trkpt><trkpt lat="46.57014540956335" lon="26.7556210205867"><ele>384.0</ele><time>2026-04-25T08:41:11Z</time></trkpt><trkpt lat="46.57017639980046" lon="26.75549961346793"><ele>384.0</ele><time>2026-04-25T08:41:13Z</time></trkpt><trkpt lat="46.57018570595246" lon="26.75537965234601"><ele>384.0</ele><time>2026-04-25T08:41:14.999Z</time></trkpt><trkpt lat="46.57022907554769" lon="26.755234157317208"><ele>384.2</ele><time>2026-04-25T08:41:16.999Z</time></trkpt><trkpt lat="46.57029212846996" lon="26.75509734792992"><ele>384.4</ele><time>2026-04-25T08:41:18.999Z</time></trkpt><trkpt lat="46.570373617724954" lon="26.7549923961522"><ele>384.6</ele><time>2026-04-25T08:41:20.999Z</time></trkpt><trkpt lat="46.57046068547595" lon="26.754923720260614"><ele>384.8</ele><time>2026-04-25T08:41:22.999Z</time></trkpt><trkpt lat="46.570541946041715" lon="26.754861199417178"><ele>385.0</ele><time>2026-04-25T08:41:24.999Z</time></trkpt><trkpt lat="46.57059482876353" lon="26.75477812244283"><ele>383.2</ele><time>2026-04-25T08:41:26.999Z</time></trkpt><trkpt lat="46.570615049762715" lon="26.75466815757452"><ele>381.4</ele><time>2026-04-25T08:41:28.999Z</time></trkpt><trkpt lat="46.570578487100306" lon="26.754529869969367"><ele>379.6</ele><time>2026-04-25T08:41:30.999Z</time></trkpt><trkpt lat="46.5705100861524" lon="26.75443681670775"><ele>377.8</ele><time>2026-04-25T08:41:32.999Z</time></trkpt><trkpt lat="46.57041188799888" lon="26.754387607798826"><ele>376.0</ele><time>2026-04-25T08:41:34.999Z</time></trkpt><trkpt lat="46.57031900824776" lon="26.754321423155826"><ele>375.8</ele><time>2026-04-25T08:41:36.999Z</time></trkpt><trkpt lat="46.57022962438275" lon="26.7542390327894"><ele>375.6</ele><time>2026-04-25T08:41:38.999Z</time></trkpt><trkpt lat="46.57015849857716" lon="26.754129967714086"><ele>375.4</ele><time>2026-04-25T08:41:40.999Z</time></trkpt><trkpt lat="46.57009733880035" lon="26.754004941013612"><ele>375.2</ele><time>2026-04-25T08:41:42.999Z</time></trkpt><trkpt lat="46.5700668847166" lon="26.753865056876496"><ele>375.0</ele><time>2026-04-25T08:41:44.999Z</time></trkpt><trkpt lat="46.570048134248616" lon="26.753737807132353"><ele>375.0</ele><time>2026-04-25T08:41:46.999Z</time></trkpt><trkpt lat="46.57001875244728" lon="26.75362701684589"><ele>375.0</ele><time>2026-04-25T08:41:48.999Z</time></trkpt><trkpt lat="46.56997331691084" lon="26.75352299200906"><ele>375.0</ele><time>2026-04-25T08:41:50.999Z</time></trkpt><trkpt lat="46.56989704810564" lon="26.753486399034923"><ele>375.0</ele><time>2026-04-25T08:41:52.999Z</time></trkpt><trkpt lat="46.5698345634662" lon="26.753455673332226"><ele>375.0</ele><time>2026-04-25T08:41:54.999Z</time></trkpt><trkpt lat="46.569749904670296" lon="26.753462028021374"><ele>375.0</ele><time>2026-04-25T08:41:56.999Z</time></trkpt><trkpt lat="46.56966760252618" lon="26.753461246000775"><ele>373.4</ele><time>2026-04-25T08:41:58.999Z</time></trkpt><trkpt lat="46.56957665772641" lon="26.753455825951338"><ele>371.8</ele><time>2026-04-25T08:42:00.999Z</time></trkpt><trkpt lat="46.569486526266786" lon="26.753461103995118"><ele>370.20000000000005</ele><time>2026-04-25T08:42:02.999Z</time></trkpt><trkpt lat="46.56940287188431" lon="26.75343264599739"><ele>368.6</ele><time>2026-04-25T08:42:04.999Z</time></trkpt><trkpt lat="46.56929794251639" lon="26.753362374170383"><ele>367.0</ele><time>2026-04-25T08:42:06.999Z</time></trkpt><trkpt lat="46.56920279253844" lon="26.753273002892914"><ele>367.0</ele><time>2026-04-25T08:42:08.999Z</time></trkpt><trkpt lat="46.569123247866386" lon="26.753169599620676"><ele>367.0</ele><time>2026-04-25T08:42:10.999Z</time></trkpt><trkpt lat="46.569062262159854" lon="26.75301182836665"><ele>367.0</ele><time>2026-04-25T08:42:12.999Z</time></trkpt><trkpt lat="46.56899534009503" lon="26.752888190533422"><ele>367.0</ele><time>2026-04-25T08:42:14.999Z</time></trkpt><trkpt lat="46.568901854507764" lon="26.752766277691155"><ele>365.5</ele><time>2026-04-25T08:42:16.999Z</time></trkpt><trkpt lat="46.56885557450116" lon="26.752694458679503"><ele>364.0</ele><time>2026-04-25T08:42:17.999Z</time></trkpt><trkpt lat="46.56879567226911" lon="26.752542756142137"><ele>362.5</ele><time>2026-04-25T08:42:19.999Z</time></trkpt><trkpt lat="46.56876141838893" lon="26.752409103682435"><ele>361.0</ele><time>2026-04-25T08:42:21.998Z</time></trkpt><trkpt lat="46.568752138101914" lon="26.752318446095046"><ele>359.5</ele><time>2026-04-25T08:42:22.998Z</time></trkpt><trkpt lat="46.56873964718052" lon="26.752222923461467"><ele>358.0</ele><time>2026-04-25T08:42:23.998Z</time></trkpt><trkpt lat="46.56871474998379" lon="26.75205934129684"><ele>359.0</ele><time>2026-04-25T08:42:25.998Z</time></trkpt><trkpt lat="46.56868439571481" lon="26.751899559338884"><ele>360.0</ele><time>2026-04-25T08:42:27.998Z</time></trkpt><trkpt lat="46.56864584004039" lon="26.75176754981568"><ele>361.0</ele><time>2026-04-25T08:42:29.998Z</time></trkpt><trkpt lat="46.56860192436542" lon="26.75165497631575"><ele>362.0</ele><time>2026-04-25T08:42:32Z</time></trkpt><trkpt lat="46.568584449613304" lon="26.751529546058116"><ele>363.0</ele><time>2026-04-25T08:42:34Z</time></trkpt><trkpt lat="46.568585552680894" lon="26.751383976166466"><ele>363.0</ele><time>2026-04-25T08:42:36Z</time></trkpt><trkpt lat="46.568564274621075" lon="26.751247999961013"><ele>363.0</ele><time>2026-04-25T08:42:38Z</time></trkpt><trkpt lat="46.568518385714015" lon="26.751089985863775"><ele>363.0</ele><time>2026-04-25T08:42:40Z</time></trkpt><trkpt lat="46.56847638330065" lon="26.750935086944203"><ele>363.0</ele><time>2026-04-25T08:42:42Z</time></trkpt><trkpt lat="46.5684592573137" lon="26.750759483453496"><ele>363.2</ele><time>2026-04-25T08:42:44Z</time></trkpt><trkpt lat="46.568455961007835" lon="26.75063403096672"><ele>363.4</ele><time>2026-04-25T08:42:46Z</time></trkpt><trkpt lat="46.56843963520982" lon="26.75047015766607"><ele>363.59999999999997</ele><time>2026-04-25T08:42:48Z</time></trkpt><trkpt lat="46.56843156630168" lon="26.750321203571776"><ele>363.79999999999995</ele><time>2026-04-25T08:42:50Z</time></trkpt><trkpt lat="46.56840905505138" lon="26.75016885256793"><ele>364.0</ele><time>2026-04-25T08:42:52Z</time></trkpt><trkpt lat="46.56840785943712" lon="26.750029054689037"><ele>363.6</ele><time>2026-04-25T08:42:54Z</time></trkpt><trkpt lat="46.56841516984866" lon="26.74992329358034"><ele>363.2</ele><time>2026-04-25T08:42:56Z</time></trkpt><trkpt lat="46.56849645675353" lon="26.749813158977712"><ele>362.8</ele><time>2026-04-25T08:42:58Z</time></trkpt><trkpt lat="46.568577426927824" lon="26.749717763685435"><ele>362.40000000000003</ele><time>2026-04-25T08:43:00Z</time></trkpt><trkpt lat="46.5686626002247" lon="26.749618536808804"><ele>362.0</ele><time>2026-04-25T08:43:02Z</time></trkpt><trkpt lat="46.568722378131596" lon="26.749518113979562"><ele>360.0</ele><time>2026-04-25T08:43:04Z</time></trkpt><trkpt lat="46.56879181790552" lon="26.74941953376933"><ele>358.0</ele><time>2026-04-25T08:43:06Z</time></trkpt><trkpt lat="46.568878389211974" lon="26.74931227559541"><ele>356.0</ele><time>2026-04-25T08:43:08Z</time></trkpt><trkpt lat="46.56897775134136" lon="26.74923899161569"><ele>354.0</ele><time>2026-04-25T08:43:10Z</time></trkpt><trkpt lat="46.56909237045743" lon="26.749179169322694"><ele>352.0</ele><time>2026-04-25T08:43:12Z</time></trkpt><trkpt lat="46.56920288174967" lon="26.749138168059876"><ele>352.0</ele><time>2026-04-25T08:43:14Z</time></trkpt><trkpt lat="46.569270559843474" lon="26.74912372387261"><ele>352.0</ele><time>2026-04-25T08:43:15Z</time></trkpt><trkpt lat="46.56937201895827" lon="26.749106656680418"><ele>352.0</ele><time>2026-04-25T08:43:16.999Z</time></trkpt><trkpt lat="46.56945457844831" lon="26.749057932539255"><ele>352.0</ele><time>2026-04-25T08:43:18.999Z</time></trkpt><trkpt lat="46.569549739245815" lon="26.749016735759422"><ele>352.0</ele><time>2026-04-25T08:43:20.999Z</time></trkpt><trkpt lat="46.56965406537365" lon="26.74897730829267"><ele>350.40000000000003</ele><time>2026-04-25T08:43:22.999Z</time></trkpt><trkpt lat="46.569750255346904" lon="26.74897346735663"><ele>348.8</ele><time>2026-04-25T08:43:24.999Z</time></trkpt><trkpt lat="46.569839651424665" lon="26.74896995716631"><ele>347.2</ele><time>2026-04-25T08:43:26.999Z</time></trkpt><trkpt lat="46.56993436193788" lon="26.748910651792094"><ele>345.6</ele><time>2026-04-25T08:43:28.999Z</time></trkpt><trkpt lat="46.57004770799674" lon="26.74882142674012"><ele>344.0</ele><time>2026-04-25T08:43:30.999Z</time></trkpt><trkpt lat="46.570122955656345" lon="26.748731287828782"><ele>344.0</ele><time>2026-04-25T08:43:32.999Z</time></trkpt><trkpt lat="46.57018625404276" lon="26.748626210138248"><ele>344.0</ele><time>2026-04-25T08:43:34.999Z</time></trkpt><trkpt lat="46.57027164041153" lon="26.7485538617326"><ele>344.0</ele><time>2026-04-25T08:43:36.999Z</time></trkpt><trkpt lat="46.57037943184383" lon="26.748537000333407"><ele>344.0</ele><time>2026-04-25T08:43:38.999Z</time></trkpt><trkpt lat="46.57046134956293" lon="26.748555121285033"><ele>344.0</ele><time>2026-04-25T08:43:40.999Z</time></trkpt><trkpt lat="46.57053978128342" lon="26.748549246512823"><ele>343.79999999999995</ele><time>2026-04-25T08:43:42.999Z</time></trkpt><trkpt lat="46.57062837309521" lon="26.748538941685943"><ele>343.59999999999997</ele><time>2026-04-25T08:43:44.999Z</time></trkpt><trkpt lat="46.57071957897792" lon="26.748509116473077"><ele>343.4</ele><time>2026-04-25T08:43:46.999Z</time></trkpt><trkpt lat="46.57080966822968" lon="26.74846836609209"><ele>343.2</ele><time>2026-04-25T08:43:48.999Z</time></trkpt><trkpt lat="46.57087583362347" lon="26.748416994057077"><ele>343.0</ele><time>2026-04-25T08:43:50.999Z</time></trkpt><trkpt lat="46.57097015521378" lon="26.74833840384457"><ele>343.0</ele><time>2026-04-25T08:43:52.999Z</time></trkpt><trkpt lat="46.57105338030608" lon="26.74831984404243"><ele>343.0</ele><time>2026-04-25T08:43:54.999Z</time></trkpt><trkpt lat="46.57115584864176" lon="26.748303273381023"><ele>343.0</ele><time>2026-04-25T08:43:56.999Z</time></trkpt><trkpt lat="46.57124600038361" lon="26.74829045738573"><ele>332.0</ele><time>2026-04-25T08:43:58.999Z</time></trkpt><trkpt lat="46.5713149513067" lon="26.748256315437384"><ele>332.0</ele><time>2026-04-25T08:44:00.999Z</time></trkpt><trkpt lat="46.57139031245301" lon="26.748204098680358"><ele>332.0</ele><time>2026-04-25T08:44:03.999Z</time></trkpt></trkseg><trkseg><trkpt lat="46.57147355266361" lon="26.748019579209476"><ele>332.0</ele><time>2026-04-25T09:19:21Z</time></trkpt><trkpt lat="46.571460285707005" lon="26.74789938063182"><ele>332.0</ele><time>2026-04-25T09:19:23.999Z</time></trkpt><trkpt lat="46.57142375537052" lon="26.747818689629366"><ele>332.0</ele><time>2026-04-25T09:19:25.999Z</time></trkpt><trkpt lat="46.571359118988674" lon="26.747729601562025"><ele>332.0</ele><time>2026-04-25T09:19:28.999Z</time></trkpt><trkpt lat="46.57130034407626" lon="26.74766182964913"><ele>332.0</ele><time>2026-04-25T09:19:30.999Z</time></trkpt><trkpt lat="46.57124961029628" lon="26.74759721318644"><ele>332.0</ele><time>2026-04-25T09:19:32.999Z</time></trkpt><trkpt lat="46.5712009029823" lon="26.747494672006408"><ele>332.1666666666667</ele><time>2026-04-25T09:19:35.999Z</time></trkpt><trkpt lat="46.571182580058654" lon="26.747405117316497"><ele>332.33333333333337</ele><time>2026-04-25T09:19:38.999Z</time></trkpt><trkpt lat="46.571223987860556" lon="26.747299676262422"><ele>332.5</ele><time>2026-04-25T09:19:41.999Z</time></trkpt><trkpt lat="46.571275653580884" lon="26.747203030790757"><ele>332.6666666666667</ele><time>2026-04-25T09:19:44.999Z</time></trkpt><trkpt lat="46.57134418509968" lon="26.74712950129841"><ele>332.8333333333333</ele><time>2026-04-25T09:19:46.999Z</time></trkpt><trkpt lat="46.571408481477" lon="26.74707891319403"><ele>333.0</ele><time>2026-04-25T09:19:48.999Z</time></trkpt><trkpt lat="46.57148533415626" lon="26.747044343109412"><ele>333.0</ele><time>2026-04-25T09:19:50.999Z</time></trkpt><trkpt lat="46.57155047032899" lon="26.747000794406727"><ele>333.0</ele><time>2026-04-25T09:19:52.999Z</time></trkpt><trkpt lat="46.571622586205535" lon="26.7469501823924"><ele>333.0</ele><time>2026-04-25T09:19:55.999Z</time></trkpt><trkpt lat="46.571708423783306" lon="26.746898148838522"><ele>333.0</ele><time>2026-04-25T09:19:58.999Z</time></trkpt><trkpt lat="46.57178260401957" lon="26.74685563577733"><ele>333.0</ele><time>2026-04-25T09:20:01.999Z</time></trkpt><trkpt lat="46.57186197688157" lon="26.746807017200947"><ele>333.0</ele><time>2026-04-25T09:20:04.999Z</time></trkpt><trkpt lat="46.571928232701666" lon="26.746748177786102"><ele>334.0</ele><time>2026-04-25T09:20:07.999Z</time></trkpt><trkpt lat="46.57196221115768" lon="26.746665621521945"><ele>335.0</ele><time>2026-04-25T09:20:09.999Z</time></trkpt><trkpt lat="46.57198800643541" lon="26.746552031426653"><ele>336.0</ele><time>2026-04-25T09:20:12.999Z</time></trkpt><trkpt lat="46.57203469298502" lon="26.74648445546786"><ele>337.0</ele><time>2026-04-25T09:20:14.999Z</time></trkpt><trkpt lat="46.57211441217408" lon="26.746412596911767"><ele>338.0</ele><time>2026-04-25T09:20:17.999Z</time></trkpt><trkpt lat="46.57218094992326" lon="26.74637438059657"><ele>339.0</ele><time>2026-04-25T09:20:20.999Z</time></trkpt><trkpt lat="46.5722607743039" lon="26.746339179233612"><ele>336.5</ele><time>2026-04-25T09:20:23.999Z</time></trkpt><trkpt lat="46.572324121387744" lon="26.746317137010006"><ele>334.0</ele><time>2026-04-25T09:20:25.999Z</time></trkpt><trkpt lat="46.57239085442864" lon="26.746286535655383"><ele>331.5</ele><time>2026-04-25T09:20:27.998Z</time></trkpt><trkpt lat="46.57246220883814" lon="26.74625369291377"><ele>329.0</ele><time>2026-04-25T09:20:29.998Z</time></trkpt><trkpt lat="46.572526714287115" lon="26.746247602020695"><ele>326.5</ele><time>2026-04-25T09:20:32.998Z</time></trkpt><trkpt lat="46.57261062482601" lon="26.74624432642298"><ele>324.0</ele><time>2026-04-25T09:21:21.999Z</time></trkpt><trkpt lat="46.57270847862464" lon="26.74626211144307"><ele>324.0</ele><time>2026-04-25T09:21:24.999Z</time></trkpt><trkpt lat="46.5727973364921" lon="26.74628545123642"><ele>324.0</ele><time>2026-04-25T09:21:26.999Z</time></trkpt><trkpt lat="46.572865500652135" lon="26.746291585282734"><ele>324.0</ele><time>2026-04-25T09:21:28.999Z</time></trkpt><trkpt lat="46.57293558415473" lon="26.746279732057133"><ele>324.0</ele><time>2026-04-25T09:21:30.999Z</time></trkpt><trkpt lat="46.573024063194374" lon="26.74627035431854"><ele>324.0</ele><time>2026-04-25T09:21:33.999Z</time></trkpt><trkpt lat="46.57309446589225" lon="26.746236755727665"><ele>324.0</ele><time>2026-04-25T09:21:36.999Z</time></trkpt><trkpt lat="46.57316071487447" lon="26.746229425252785"><ele>323.0</ele><time>2026-04-25T09:21:39.999Z</time></trkpt><trkpt lat="46.5732340670133" lon="26.74624934753777"><ele>322.0</ele><time>2026-04-25T09:21:42.999Z</time></trkpt><trkpt lat="46.57329310417629" lon="26.746284216663188"><ele>321.0</ele><time>2026-04-25T09:21:45.999Z</time></trkpt><trkpt lat="46.57337437530557" lon="26.74633750619897"><ele>320.0</ele><time>2026-04-25T09:21:48.999Z</time></trkpt><trkpt lat="46.573433616064854" lon="26.74638516566914"><ele>319.0</ele><time>2026-04-25T09:21:50.999Z</time></trkpt><trkpt lat="46.573516528598404" lon="26.746465342146593"><ele>318.0</ele><time>2026-04-25T09:21:52.999Z</time></trkpt><trkpt lat="46.573606305956794" lon="26.74653124949775"><ele>318.0</ele><time>2026-04-25T09:21:54.999Z</time></trkpt><trkpt lat="46.57368041108235" lon="26.74660083356649"><ele>318.0</ele><time>2026-04-25T09:21:56.999Z</time></trkpt><trkpt lat="46.57376387020145" lon="26.746647632145248"><ele>318.0</ele><time>2026-04-25T09:21:58.999Z</time></trkpt><trkpt lat="46.57382537855676" lon="26.746679645787125"><ele>318.0</ele><time>2026-04-25T09:21:59.999Z</time></trkpt><trkpt lat="46.573946001475434" lon="26.746651523321933"><ele>318.0</ele><time>2026-04-25T09:22:01.999Z</time></trkpt><trkpt lat="46.57401329256236" lon="26.746635925408114"><ele>318.0</ele><time>2026-04-25T09:22:02.999Z</time></trkpt><trkpt lat="46.574117346505616" lon="26.74661270719755"><ele>317.6</ele><time>2026-04-25T09:22:04.999Z</time></trkpt><trkpt lat="46.574224699938945" lon="26.746605225323098"><ele>317.20000000000005</ele><time>2026-04-25T09:22:06.999Z</time></trkpt><trkpt lat="46.574318857725416" lon="26.74662290423001"><ele>316.8</ele><time>2026-04-25T09:22:08.999Z</time></trkpt><trkpt lat="46.57440211134724" lon="26.74668948969541"><ele>316.40000000000003</ele><time>2026-04-25T09:22:10.999Z</time></trkpt><trkpt lat="46.57445292060815" lon="26.746784174572117"><ele>316.0</ele><time>2026-04-25T09:22:12.999Z</time></trkpt><trkpt lat="46.574484125700124" lon="26.74690262370967"><ele>314.3333333333333</ele><time>2026-04-25T09:22:14.999Z</time></trkpt><trkpt lat="46.57450920061031" lon="26.747003372060945"><ele>312.66666666666663</ele><time>2026-04-25T09:22:16.999Z</time></trkpt><trkpt lat="46.574525192352546" lon="26.747100656974332"><ele>311.0</ele><time>2026-04-25T09:22:18.999Z</time></trkpt><trkpt lat="46.57455599838692" lon="26.747209165415736"><ele>309.3333333333333</ele><time>2026-04-25T09:22:20.999Z</time></trkpt><trkpt lat="46.574573176207075" lon="26.747311445137804"><ele>307.6666666666667</ele><time>2026-04-25T09:22:22.999Z</time></trkpt><trkpt lat="46.57461344537142" lon="26.7474230351374"><ele>306.0</ele><time>2026-04-25T09:22:24.999Z</time></trkpt><trkpt lat="46.57467493423524" lon="26.747492960494554"><ele>306.0</ele><time>2026-04-25T09:22:26.999Z</time></trkpt><trkpt lat="46.574758428146666" lon="26.747522242150655"><ele>306.0</ele><time>2026-04-25T09:22:28.998Z</time></trkpt><trkpt lat="46.57484083748943" lon="26.747506576526956"><ele>306.0</ele><time>2026-04-25T09:22:30.998Z</time></trkpt><trkpt lat="46.574913090687716" lon="26.747469566939536"><ele>306.0</ele><time>2026-04-25T09:22:32.998Z</time></trkpt><trkpt lat="46.57500720094029" lon="26.747446383398827"><ele>306.0</ele><time>2026-04-25T09:22:34.998Z</time></trkpt><trkpt lat="46.57508649743757" lon="26.74744028979268"><ele>306.0</ele><time>2026-04-25T09:22:36.998Z</time></trkpt><trkpt lat="46.57517597223909" lon="26.747471600544337"><ele>306.0</ele><time>2026-04-25T09:22:38.998Z</time></trkpt><trkpt lat="46.57525941853316" lon="26.747499770748995"><ele>306.0</ele><time>2026-04-25T09:22:40.998Z</time></trkpt><trkpt lat="46.57532857261164" lon="26.747566326153386"><ele>306.0</ele><time>2026-04-25T09:22:42.998Z</time></trkpt><trkpt lat="46.57540124579301" lon="26.747628460190743"><ele>306.0</ele><time>2026-04-25T09:22:44.998Z</time></trkpt><trkpt lat="46.575463305037864" lon="26.74769934797948"><ele>306.0</ele><time>2026-04-25T09:22:46.998Z</time></trkpt><trkpt lat="46.575534099220896" lon="26.74775755793482"><ele>306.0</ele><time>2026-04-25T09:22:48.998Z</time></trkpt><trkpt lat="46.57561721312346" lon="26.74778289325728"><ele>303.6666666666667</ele><time>2026-04-25T09:22:50.999Z</time></trkpt><trkpt lat="46.57568608153943" lon="26.747830759520507"><ele>301.3333333333333</ele><time>2026-04-25T09:22:52.999Z</time></trkpt><trkpt lat="46.57577079107763" lon="26.747871304695384"><ele>299.0</ele><time>2026-04-25T09:22:54.999Z</time></trkpt><trkpt lat="46.57584652274929" lon="26.747929359898194"><ele>296.66666666666663</ele><time>2026-04-25T09:22:56.999Z</time></trkpt><trkpt lat="46.57590777492109" lon="26.74796942584933"><ele>294.3333333333333</ele><time>2026-04-25T09:22:58.999Z</time></trkpt><trkpt lat="46.57598626062747" lon="26.747961396554448"><ele>292.0</ele><time>2026-04-25T09:23:00.999Z</time></trkpt><trkpt lat="46.57606613959969" lon="26.7478783505158"><ele>292.0</ele><time>2026-04-25T09:23:02.999Z</time></trkpt><trkpt lat="46.57613827261794" lon="26.747773501846922"><ele>292.0</ele><time>2026-04-25T09:23:04.999Z</time></trkpt><trkpt lat="46.5762016911633" lon="26.747665877028894"><ele>292.0</ele><time>2026-04-25T09:23:06.999Z</time></trkpt><trkpt lat="46.576258340457876" lon="26.74757280375715"><ele>292.0</ele><time>2026-04-25T09:23:08.999Z</time></trkpt><trkpt lat="46.57631728359401" lon="26.747468112799467"><ele>292.0</ele><time>2026-04-25T09:23:10.999Z</time></trkpt><trkpt lat="46.576361639301815" lon="26.747369912120746"><ele>291.8333333333333</ele><time>2026-04-25T09:23:12.999Z</time></trkpt><trkpt lat="46.57640072741038" lon="26.747264299118815"><ele>291.66666666666663</ele><time>2026-04-25T09:23:14.999Z</time></trkpt><trkpt lat="46.576447425944146" lon="26.747168640461762"><ele>291.5</ele><time>2026-04-25T09:23:16.999Z</time></trkpt><trkpt lat="46.57649153399031" lon="26.74709196092647"><ele>291.3333333333333</ele><time>2026-04-25T09:23:18.999Z</time></trkpt><trkpt lat="46.57655241556119" lon="26.747036314225536"><ele>291.1666666666667</ele><time>2026-04-25T09:23:21.999Z</time></trkpt><trkpt lat="46.57663324700206" lon="26.746979503756553"><ele>291.0</ele><time>2026-04-25T09:23:24.999Z</time></trkpt><trkpt lat="46.576708584144114" lon="26.746981456485717"><ele>291.0</ele><time>2026-04-25T09:23:33.999Z</time></trkpt><trkpt lat="46.57678632854441" lon="26.74704834220023"><ele>291.0</ele><time>2026-04-25T09:23:37.999Z</time></trkpt><trkpt lat="46.57682206807786" lon="26.747125827082602"><ele>291.0</ele><time>2026-04-25T09:23:39.999Z</time></trkpt><trkpt lat="46.57685540723885" lon="26.747205289421732"><ele>291.0</ele><time>2026-04-25T09:23:41.999Z</time></trkpt><trkpt lat="46.57687343687824" lon="26.747296341622196"><ele>291.0</ele><time>2026-04-25T09:23:43.999Z</time></trkpt><trkpt lat="46.57690016100662" lon="26.747390745025633"><ele>291.0</ele><time>2026-04-25T09:23:45.999Z</time></trkpt><trkpt lat="46.576928014129685" lon="26.747480686994"><ele>291.0</ele><time>2026-04-25T09:23:47.999Z</time></trkpt><trkpt lat="46.5769395249067" lon="26.747636760027998"><ele>290.5</ele><time>2026-04-25T09:23:50.999Z</time></trkpt><trkpt lat="46.57694894144933" lon="26.74775731095727"><ele>290.0</ele><time>2026-04-25T09:23:52.999Z</time></trkpt><trkpt lat="46.576958659126646" lon="26.74785931403682"><ele>289.5</ele><time>2026-04-25T09:23:54.999Z</time></trkpt><trkpt lat="46.576967712387" lon="26.74796868597059"><ele>289.0</ele><time>2026-04-25T09:23:56.999Z</time></trkpt><trkpt lat="46.57697297702977" lon="26.748064190816716"><ele>288.5</ele><time>2026-04-25T09:23:58.999Z</time></trkpt><trkpt lat="46.57698181405174" lon="26.748167553188537"><ele>288.0</ele><time>2026-04-25T09:24:00.999Z</time></trkpt><trkpt lat="46.577012794212244" lon="26.74830336127723"><ele>288.14285714285717</ele><time>2026-04-25T09:24:03.999Z</time></trkpt><trkpt lat="46.57704796788272" lon="26.748380704574547"><ele>288.2857142857143</ele><time>2026-04-25T09:24:05.999Z</time></trkpt><trkpt lat="46.57709953186225" lon="26.748444893121928"><ele>288.42857142857144</ele><time>2026-04-25T09:24:07.999Z</time></trkpt><trkpt lat="46.577171532374884" lon="26.74849934046118"><ele>288.57142857142856</ele><time>2026-04-25T09:24:09.999Z</time></trkpt><trkpt lat="46.57724858552844" lon="26.74852476991513"><ele>288.7142857142857</ele><time>2026-04-25T09:24:11.999Z</time></trkpt><trkpt lat="46.577308983886226" lon="26.748558453945982"><ele>288.8571428571429</ele><time>2026-04-25T09:24:13.999Z</time></trkpt><trkpt lat="46.57737710754809" lon="26.748612673665697"><ele>289.0</ele><time>2026-04-25T09:24:15.999Z</time></trkpt><trkpt lat="46.57745795475974" lon="26.748667207445923"><ele>288.5</ele><time>2026-04-25T09:24:17.999Z</time></trkpt><trkpt lat="46.577532600156395" lon="26.74871327999384"><ele>288.0</ele><time>2026-04-25T09:24:19.999Z</time></trkpt><trkpt lat="46.57759981840529" lon="26.748757312588122"><ele>287.5</ele><time>2026-04-25T09:24:21.999Z</time></trkpt><trkpt lat="46.57766262073297" lon="26.74878678539086"><ele>287.0</ele><time>2026-04-25T09:24:23.999Z</time></trkpt><trkpt lat="46.57772969494735" lon="26.74878721546379"><ele>286.5</ele><time>2026-04-25T09:24:25.999Z</time></trkpt><trkpt lat="46.57780561526546" lon="26.748763085952422"><ele>286.0</ele><time>2026-04-25T09:24:27.999Z</time></trkpt><trkpt lat="46.577896310661785" lon="26.748739644095945"><ele>285.8333333333333</ele><time>2026-04-25T09:24:29.999Z</time></trkpt><trkpt lat="46.57797093037443" lon="26.74872072014916"><ele>285.66666666666663</ele><time>2026-04-25T09:24:31.999Z</time></trkpt><trkpt lat="46.578036611762826" lon="26.748681756461057"><ele>285.5</ele><time>2026-04-25T09:24:33.999Z</time></trkpt><trkpt lat="46.57811682590609" lon="26.748658334728166"><ele>285.3333333333333</ele><time>2026-04-25T09:24:35.999Z</time></trkpt><trkpt lat="46.57820488378139" lon="26.748651343749856"><ele>285.1666666666667</ele><time>2026-04-25T09:24:37.999Z</time></trkpt><trkpt lat="46.578304470560596" lon="26.748670332158017"><ele>285.0</ele><time>2026-04-25T09:24:40.999Z</time></trkpt><trkpt lat="46.578388852011486" lon="26.748677964726507"><ele>285.0</ele><time>2026-04-25T09:24:42.999Z</time></trkpt><trkpt lat="46.57845335895054" lon="26.748703591414653"><ele>285.0</ele><time>2026-04-25T09:24:44.998Z</time></trkpt><trkpt lat="46.57852413071151" lon="26.748739513073993"><ele>285.0</ele><time>2026-04-25T09:24:46.998Z</time></trkpt><trkpt lat="46.578592191572625" lon="26.748773214146375"><ele>285.0</ele><time>2026-04-25T09:24:48.998Z</time></trkpt><trkpt lat="46.578679513336425" lon="26.748821116911962"><ele>285.0</ele><time>2026-04-25T09:24:51.998Z</time></trkpt><trkpt lat="46.5787442406285" lon="26.748862916567898"><ele>285.0</ele><time>2026-04-25T09:24:53.998Z</time></trkpt><trkpt lat="46.57883213892313" lon="26.748922733632106"><ele>285.5</ele><time>2026-04-25T09:24:56.999Z</time></trkpt><trkpt lat="46.578898946221436" lon="26.74896489557213"><ele>286.0</ele><time>2026-04-25T09:24:58.999Z</time></trkpt><trkpt lat="46.5789666309848" lon="26.749020166177313"><ele>286.5</ele><time>2026-04-25T09:25:01.999Z</time></trkpt><trkpt lat="46.5790267939871" lon="26.74907042340395"><ele>287.0</ele><time>2026-04-25T09:25:03.999Z</time></trkpt><trkpt lat="46.57907497938592" lon="26.74913187055051"><ele>287.5</ele><time>2026-04-25T09:25:05.999Z</time></trkpt><trkpt lat="46.579146475480535" lon="26.74918900186853"><ele>288.0</ele><time>2026-04-25T09:25:07.999Z</time></trkpt><trkpt lat="46.57922538629452" lon="26.749281587031174"><ele>286.2</ele><time>2026-04-25T09:25:09.999Z</time></trkpt><trkpt lat="46.579283847997246" lon="26.749378701147617"><ele>284.4</ele><time>2026-04-25T09:25:11.999Z</time></trkpt><trkpt lat="46.57934702085938" lon="26.74947497986905"><ele>282.59999999999997</ele><time>2026-04-25T09:25:13.999Z</time></trkpt><trkpt lat="46.579404306243134" lon="26.749602576654727"><ele>280.8</ele><time>2026-04-25T09:25:15.999Z</time></trkpt><trkpt lat="46.57947951821344" lon="26.749698750002512"><ele>279.0</ele><time>2026-04-25T09:25:17.999Z</time></trkpt><trkpt lat="46.579526261014024" lon="26.749824839240578"><ele>279.0</ele><time>2026-04-25T09:25:19.999Z</time></trkpt><trkpt lat="46.57958922710436" lon="26.74994473952617"><ele>279.0</ele><time>2026-04-25T09:25:21.999Z</time></trkpt><trkpt lat="46.579677947454734" lon="26.750006399549033"><ele>279.0</ele><time>2026-04-25T09:25:23.999Z</time></trkpt><trkpt lat="46.579779068518405" lon="26.750043736666075"><ele>279.0</ele><time>2026-04-25T09:25:25.999Z</time></trkpt><trkpt lat="46.579898752426985" lon="26.750050162690368"><ele>279.0</ele><time>2026-04-25T09:25:27.999Z</time></trkpt><trkpt lat="46.57996933704331" lon="26.75015168904423"><ele>279.0</ele><time>2026-04-25T09:25:28.999Z</time></trkpt><trkpt lat="46.580099115822634" lon="26.750164123190984"><ele>279.0</ele><time>2026-04-25T09:25:30.999Z</time></trkpt><trkpt lat="46.580196821236875" lon="26.750173830997028"><ele>279.0</ele><time>2026-04-25T09:25:32.999Z</time></trkpt><trkpt lat="46.58029822296075" lon="26.75018413651564"><ele>279.0</ele><time>2026-04-25T09:25:34.999Z</time></trkpt><trkpt lat="46.580403129009184" lon="26.750194790184146"><ele>279.0</ele><time>2026-04-25T09:25:36.999Z</time></trkpt><trkpt lat="46.58051616824237" lon="26.750205862214276"><ele>276.4</ele><time>2026-04-25T09:25:38.999Z</time></trkpt><trkpt lat="46.580642898230856" lon="26.75021810867551"><ele>273.79999999999995</ele><time>2026-04-25T09:25:40.999Z</time></trkpt><trkpt lat="46.580761419682986" lon="26.750229867412518"><ele>271.20000000000005</ele><time>2026-04-25T09:25:42.999Z</time></trkpt><trkpt lat="46.580828240988204" lon="26.75023634828306"><ele>268.6</ele><time>2026-04-25T09:25:43.999Z</time></trkpt><trkpt lat="46.58090380944797" lon="26.750243815489718"><ele>266.0</ele><time>2026-04-25T09:25:44.999Z</time></trkpt><trkpt lat="46.58098075177375" lon="26.750312432204147"><ele>266.0</ele><time>2026-04-25T09:25:46.999Z</time></trkpt><trkpt lat="46.581078633841486" lon="26.750413875533052"><ele>266.0</ele><time>2026-04-25T09:25:48.999Z</time></trkpt><trkpt lat="46.581176529922224" lon="26.750515569418695"><ele>266.0</ele><time>2026-04-25T09:25:50.999Z</time></trkpt><trkpt lat="46.581228667846965" lon="26.75056980482427"><ele>266.0</ele><time>2026-04-25T09:25:51.999Z</time></trkpt><trkpt lat="46.581334598741144" lon="26.750679643953205"><ele>266.0</ele><time>2026-04-25T09:25:53.999Z</time></trkpt><trkpt lat="46.58139207690683" lon="26.750740087900304"><ele>265.8</ele><time>2026-04-25T09:25:54.999Z</time></trkpt><trkpt lat="46.58145176476" lon="26.750801526244437"><ele>265.6</ele><time>2026-04-25T09:25:55.999Z</time></trkpt><trkpt lat="46.58154010251734" lon="26.75089361080805"><ele>265.4</ele><time>2026-04-25T09:25:57.999Z</time></trkpt><trkpt lat="46.58162570032225" lon="26.750983305902604"><ele>265.2</ele><time>2026-04-25T09:25:59.999Z</time></trkpt><trkpt lat="46.58175491160699" lon="26.75086554302962"><ele>265.0</ele><time>2026-04-25T09:26:00.999Z</time></trkpt><trkpt lat="46.58185145230465" lon="26.75084334552219"><ele>265.0</ele><time>2026-04-25T09:26:02.999Z</time></trkpt><trkpt lat="46.58196922674383" lon="26.750815452479266"><ele>265.0</ele><time>2026-04-25T09:26:04.999Z</time></trkpt><trkpt lat="46.58205687725691" lon="26.750824757826315"><ele>265.0</ele><time>2026-04-25T09:26:06.999Z</time></trkpt><trkpt lat="46.58214586719137" lon="26.75081229719882"><ele>265.0</ele><time>2026-04-25T09:26:08.999Z</time></trkpt><trkpt lat="46.58222626647719" lon="26.75080235243902"><ele>265.0</ele><time>2026-04-25T09:26:10.999Z</time></trkpt><trkpt lat="46.58232356074059" lon="26.750790292954246"><ele>264.2</ele><time>2026-04-25T09:26:12.999Z</time></trkpt><trkpt lat="46.58242581793965" lon="26.75077761932208"><ele>263.4</ele><time>2026-04-25T09:26:14.999Z</time></trkpt><trkpt lat="46.582514113003405" lon="26.750766523547497"><ele>262.6</ele><time>2026-04-25T09:26:16.999Z</time></trkpt><trkpt lat="46.58257939126126" lon="26.75075793862647"><ele>261.8</ele><time>2026-04-25T09:26:18.999Z</time></trkpt><trkpt lat="46.58267234779074" lon="26.750746905652882"><ele>261.0</ele><time>2026-04-25T09:26:20.999Z</time></trkpt><trkpt lat="46.582778574975045" lon="26.75074971078362"><ele>261.0</ele><time>2026-04-25T09:26:23.999Z</time></trkpt><trkpt lat="46.58284025501111" lon="26.75072697741116"><ele>261.0</ele><time>2026-04-25T09:26:24.999Z</time></trkpt><trkpt lat="46.582909674192386" lon="26.750781149334998"><ele>261.0</ele><time>2026-04-25T09:26:26.999Z</time></trkpt><trkpt lat="46.58298930352736" lon="26.75079989756014"><ele>261.0</ele><time>2026-04-25T09:26:28.999Z</time></trkpt><trkpt lat="46.58306873858334" lon="26.75081897200906"><ele>261.0</ele><time>2026-04-25T09:26:30.999Z</time></trkpt><trkpt lat="46.583142351787444" lon="26.750836620304995"><ele>261.0</ele><time>2026-04-25T09:26:32.999Z</time></trkpt><trkpt lat="46.583220497489556" lon="26.750855176664736"><ele>260.6</ele><time>2026-04-25T09:26:34.999Z</time></trkpt><trkpt lat="46.58331825787762" lon="26.750878390694155"><ele>260.20000000000005</ele><time>2026-04-25T09:26:36.999Z</time></trkpt><trkpt lat="46.583419931298074" lon="26.750903040160484"><ele>259.79999999999995</ele><time>2026-04-25T09:26:38.999Z</time></trkpt><trkpt lat="46.583507494149615" lon="26.75092382845469"><ele>259.4</ele><time>2026-04-25T09:26:40.999Z</time></trkpt><trkpt lat="46.583610277113515" lon="26.75094822374187"><ele>259.0</ele><time>2026-04-25T09:26:42.999Z</time></trkpt><trkpt lat="46.583703078514276" lon="26.75097024765259"><ele>258.25</ele><time>2026-04-25T09:26:44.999Z</time></trkpt><trkpt lat="46.58377303877496" lon="26.750986852904045"><ele>257.5</ele><time>2026-04-25T09:26:45.999Z</time></trkpt><trkpt lat="46.58385919353428" lon="26.751006256890637"><ele>256.75</ele><time>2026-04-25T09:26:47.999Z</time></trkpt><trkpt lat="46.583959758943266" lon="26.751036608441826"><ele>256.0</ele><time>2026-04-25T09:26:49.999Z</time></trkpt><trkpt lat="46.584122793961775" lon="26.750820242989008"><ele>255.99999999999997</ele><time>2026-04-25T09:26:51.999Z</time></trkpt><trkpt lat="46.58420720514773" lon="26.75072051972769"><ele>256.0</ele><time>2026-04-25T09:26:53.999Z</time></trkpt><trkpt lat="46.58428891432655" lon="26.750669446305288"><ele>256.0</ele><time>2026-04-25T09:26:56.999Z</time></trkpt><trkpt lat="46.58436611006166" lon="26.750599207160867"><ele>256.0</ele><time>2026-04-25T09:26:59.999Z</time></trkpt><trkpt lat="46.58442138567096" lon="26.750548911639097"><ele>255.99999999999997</ele><time>2026-04-25T09:27:01.999Z</time></trkpt><trkpt lat="46.58448225624024" lon="26.750493524804376"><ele>256.0</ele><time>2026-04-25T09:27:04Z</time></trkpt><trkpt lat="46.584591913430344" lon="26.75054622783495"><ele>255.7142857142857</ele><time>2026-04-25T09:27:07Z</time></trkpt><trkpt lat="46.584657550582314" lon="26.750533181943688"><ele>255.4285714285714</ele><time>2026-04-25T09:27:11Z</time></trkpt><trkpt lat="46.584723147976455" lon="26.750517893734884"><ele>255.14285714285714</ele><time>2026-04-25T09:28:43.999Z</time></trkpt><trkpt lat="46.584789382784535" lon="26.750512265095484"><ele>254.85714285714283</ele><time>2026-04-25T09:28:45.999Z</time></trkpt><trkpt lat="46.58485456219517" lon="26.75049630355784"><ele>254.57142857142856</ele><time>2026-04-25T09:28:47.999Z</time></trkpt><trkpt lat="46.584878823371255" lon="26.75058481831382"><ele>254.28571428571428</ele><time>2026-04-25T09:28:48.999Z</time></trkpt><trkpt lat="46.584956510437" lon="26.750677654213238"><ele>254.0</ele><time>2026-04-25T09:28:50.999Z</time></trkpt><trkpt lat="46.58502724999674" lon="26.75076143498569"><ele>254.0</ele><time>2026-04-25T09:28:52.999Z</time></trkpt><trkpt lat="46.5851205851399" lon="26.75086199259023"><ele>253.99999999999997</ele><time>2026-04-25T09:28:54.999Z</time></trkpt><trkpt lat="46.58521576781567" lon="26.75096745389744"><ele>253.99999999999997</ele><time>2026-04-25T09:28:56.999Z</time></trkpt><trkpt lat="46.58530716716334" lon="26.751074370039564"><ele>254.0</ele><time>2026-04-25T09:28:58.999Z</time></trkpt><trkpt lat="46.58535786636646" lon="26.751133929861016"><ele>254.0</ele><time>2026-04-25T09:28:59.999Z</time></trkpt><trkpt lat="46.58543402952121" lon="26.751220986884245"><ele>255.2</ele><time>2026-04-25T09:29:01.999Z</time></trkpt><trkpt lat="46.58547409763023" lon="26.751293040435925"><ele>256.4</ele><time>2026-04-25T09:29:02.999Z</time></trkpt><trkpt lat="46.585554260850365" lon="26.75139238379321"><ele>257.6</ele><time>2026-04-25T09:29:04.999Z</time></trkpt><trkpt lat="46.58563046209686" lon="26.75148681643054"><ele>258.8</ele><time>2026-04-25T09:29:06.999Z</time></trkpt><trkpt lat="46.585691931707" lon="26.75158170840219"><ele>260.0</ele><time>2026-04-25T09:29:09.001Z</time></trkpt><trkpt lat="46.5857508223401" lon="26.751712653997533"><ele>258.8</ele><time>2026-04-25T09:29:11.001Z</time></trkpt><trkpt lat="46.58578599645985" lon="26.751895529152748"><ele>257.6</ele><time>2026-04-25T09:29:13.001Z</time></trkpt><trkpt lat="46.585803811856486" lon="26.751987631031426"><ele>256.4</ele><time>2026-04-25T09:29:14.001Z</time></trkpt><trkpt lat="46.58584690482392" lon="26.752151301661048"><ele>255.2</ele><time>2026-04-25T09:29:16.001Z</time></trkpt><trkpt lat="46.58586554540352" lon="26.752243825303335"><ele>254.0</ele><time>2026-04-25T09:29:17.001Z</time></trkpt><trkpt lat="46.58588166497552" lon="26.752339116727708"><ele>254.0</ele><time>2026-04-25T09:29:18Z</time></trkpt><trkpt lat="46.585905346154476" lon="26.75243171771458"><ele>253.99999999999997</ele><time>2026-04-25T09:29:19Z</time></trkpt><trkpt lat="46.58592532189754" lon="26.752521646659435"><ele>253.99999999999997</ele><time>2026-04-25T09:29:20Z</time></trkpt><trkpt lat="46.58595917636333" lon="26.75267363889177"><ele>254.0</ele><time>2026-04-25T09:29:22Z</time></trkpt><trkpt lat="46.586001183538464" lon="26.752846840494055"><ele>254.0</ele><time>2026-04-25T09:29:24Z</time></trkpt><trkpt lat="46.586029183205305" lon="26.753030892638233"><ele>253.6</ele><time>2026-04-25T09:29:26Z</time></trkpt><trkpt lat="46.58604938601926" lon="26.753120350653443"><ele>253.2</ele><time>2026-04-25T09:29:27Z</time></trkpt><trkpt lat="46.586087248033046" lon="26.75328355562817"><ele>252.79999999999998</ele><time>2026-04-25T09:29:29Z</time></trkpt><trkpt lat="46.58617337544241" lon="26.75335812329052"><ele>252.39999999999998</ele><time>2026-04-25T09:29:30Z</time></trkpt><trkpt lat="46.586258457418175" lon="26.75346270899299"><ele>252.0</ele><time>2026-04-25T09:29:32Z</time></trkpt><trkpt lat="46.58634745049419" lon="26.753547414894346"><ele>250.8</ele><time>2026-04-25T09:29:34Z</time></trkpt><trkpt lat="46.5864074325512" lon="26.753645329225296"><ele>249.6</ele><time>2026-04-25T09:29:36Z</time></trkpt><trkpt lat="46.586514030135305" lon="26.75366116606491"><ele>248.40000000000003</ele><time>2026-04-25T09:29:38Z</time></trkpt><trkpt lat="46.58664066707891" lon="26.75368937305957"><ele>247.20000000000002</ele><time>2026-04-25T09:29:40Z</time></trkpt><trkpt lat="46.58674503652143" lon="26.75369974103405"><ele>246.0</ele><time>2026-04-25T09:29:42Z</time></trkpt><trkpt lat="46.58683291330149" lon="26.75373507479886"><ele>246.0</ele><time>2026-04-25T09:29:44Z</time></trkpt><trkpt lat="46.58690399305977" lon="26.753748658019404"><ele>246.0</ele><time>2026-04-25T09:29:46Z</time></trkpt><trkpt lat="46.586966826940966" lon="26.753759174578192"><ele>246.0</ele><time>2026-04-25T09:29:48Z</time></trkpt><trkpt lat="46.58703418248246" lon="26.753777219964338"><ele>246.0</ele><time>2026-04-25T09:29:50Z</time></trkpt><trkpt lat="46.58706945262457" lon="26.75385545692088"><ele>246.0</ele><time>2026-04-25T09:30:55.999Z</time></trkpt><trkpt lat="46.587114927299965" lon="26.75395837629899"><ele>246.0</ele><time>2026-04-25T09:30:57.999Z</time></trkpt><trkpt lat="46.58717236543509" lon="26.754086758765254"><ele>245.60000000000002</ele><time>2026-04-25T09:30:59.999Z</time></trkpt><trkpt lat="46.58722324746429" lon="26.754199774965628"><ele>245.20000000000002</ele><time>2026-04-25T09:31:01.999Z</time></trkpt><trkpt lat="46.58727478558827" lon="26.75431517090306"><ele>244.79999999999998</ele><time>2026-04-25T09:31:03.999Z</time></trkpt><trkpt lat="46.58732961624913" lon="26.754437350815387"><ele>244.39999999999998</ele><time>2026-04-25T09:31:05.999Z</time></trkpt><trkpt lat="46.587391954366716" lon="26.754592444416637"><ele>244.0</ele><time>2026-04-25T09:31:07.999Z</time></trkpt><trkpt lat="46.587450456643445" lon="26.754744300420878"><ele>244.0</ele><time>2026-04-25T09:31:09.999Z</time></trkpt><trkpt lat="46.58750698399244" lon="26.754891364677444"><ele>243.99999999999997</ele><time>2026-04-25T09:31:11.999Z</time></trkpt><trkpt lat="46.58754903858834" lon="26.755000462767274"><ele>243.99999999999997</ele><time>2026-04-25T09:31:13.999Z</time></trkpt><trkpt lat="46.587627381714846" lon="26.755041283108604"><ele>244.0</ele><time>2026-04-25T09:31:16.001Z</time></trkpt><trkpt lat="46.58770194248722" lon="26.75512576153755"><ele>244.0</ele><time>2026-04-25T09:31:18.001Z</time></trkpt><trkpt lat="46.587792355237724" lon="26.7552280386187"><ele>243.6</ele><time>2026-04-25T09:31:20.001Z</time></trkpt><trkpt lat="46.58787886265364" lon="26.7553258876473"><ele>243.2</ele><time>2026-04-25T09:31:22.001Z</time></trkpt><trkpt lat="46.587962769725465" lon="26.755421493584073"><ele>242.79999999999998</ele><time>2026-04-25T09:31:24.001Z</time></trkpt><trkpt lat="46.588049605144924" lon="26.755520283184282"><ele>242.39999999999998</ele><time>2026-04-25T09:31:26.001Z</time></trkpt><trkpt lat="46.588117569528585" lon="26.755597131902018"><ele>242.0</ele><time>2026-04-25T09:31:28.001Z</time></trkpt><trkpt lat="46.58819054936831" lon="26.755679594269445"><ele>242.0</ele><time>2026-04-25T09:31:30Z</time></trkpt><trkpt lat="46.588267263398535" lon="26.755789074256356"><ele>242.0</ele><time>2026-04-25T09:31:32Z</time></trkpt><trkpt lat="46.58835650688125" lon="26.755872458491083"><ele>242.0</ele><time>2026-04-25T09:31:34Z</time></trkpt><trkpt lat="46.58837644026697" lon="26.75596230356583"><ele>242.0</ele><time>2026-04-25T09:31:35Z</time></trkpt><trkpt lat="46.588444698514536" lon="26.756107637442614"><ele>242.0</ele><time>2026-04-25T09:31:37Z</time></trkpt><trkpt lat="46.58851237234395" lon="26.756234768174245"><ele>242.0</ele><time>2026-04-25T09:31:39Z</time></trkpt><trkpt lat="46.588563360741894" lon="26.756378899713464"><ele>242.0</ele><time>2026-04-25T09:31:41Z</time></trkpt><trkpt lat="46.58862064087872" lon="26.75647382364066"><ele>242.0</ele><time>2026-04-25T09:31:43Z</time></trkpt><trkpt lat="46.58867964255157" lon="26.75660175902712"><ele>242.0</ele><time>2026-04-25T09:31:45Z</time></trkpt><trkpt lat="46.58875496496762" lon="26.75674289603202"><ele>242.0</ele><time>2026-04-25T09:31:47Z</time></trkpt><trkpt lat="46.58881371505267" lon="26.75687974553854"><ele>241.2</ele><time>2026-04-25T09:31:49Z</time></trkpt><trkpt lat="46.58887964617871" lon="26.75701041524295"><ele>240.39999999999998</ele><time>2026-04-25T09:31:51Z</time></trkpt><trkpt lat="46.5889530086448" lon="26.757124767547616"><ele>239.60000000000002</ele><time>2026-04-25T09:31:52Z</time></trkpt><trkpt lat="46.58905593840602" lon="26.75715262759334"><ele>238.8</ele><time>2026-04-25T09:31:54Z</time></trkpt><trkpt lat="46.58912056874648" lon="26.75717054023093"><ele>238.0</ele><time>2026-04-25T09:31:55Z</time></trkpt><trkpt lat="46.589185868681525" lon="26.75718829815042"><ele>238.0</ele><time>2026-04-25T09:31:56Z</time></trkpt><trkpt lat="46.58925063389479" lon="26.757205916595616"><ele>238.0</ele><time>2026-04-25T09:31:57Z</time></trkpt><trkpt lat="46.589343581935516" lon="26.757230830663445"><ele>238.0</ele><time>2026-04-25T09:31:59Z</time></trkpt><trkpt lat="46.58945599130153" lon="26.75727532042079"><ele>238.0</ele><time>2026-04-25T09:32:01Z</time></trkpt><trkpt lat="46.589554996369614" lon="26.757314225478453"><ele>238.0</ele><time>2026-04-25T09:32:03Z</time></trkpt><trkpt lat="46.589654034230236" lon="26.75735287537136"><ele>237.8</ele><time>2026-04-25T09:32:05Z</time></trkpt><trkpt lat="46.58973222480199" lon="26.757368133916287"><ele>237.60000000000002</ele><time>2026-04-25T09:32:07Z</time></trkpt><trkpt lat="46.5898135557484" lon="26.75741920574846"><ele>237.39999999999998</ele><time>2026-04-25T09:32:09Z</time></trkpt><trkpt lat="46.589925357920606" lon="26.75748547525612"><ele>237.2</ele><time>2026-04-25T09:32:11Z</time></trkpt><trkpt lat="46.590020316087426" lon="26.75752763070817"><ele>237.0</ele><time>2026-04-25T09:32:13Z</time></trkpt><trkpt lat="46.590134153904174" lon="26.75754165177282"><ele>237.0</ele><time>2026-04-25T09:32:15Z</time></trkpt><trkpt lat="46.590192336154864" lon="26.75757951593339"><ele>237.0</ele><time>2026-04-25T09:32:16Z</time></trkpt><trkpt lat="46.5903135304123" lon="26.75759069659555"><ele>237.0</ele><time>2026-04-25T09:32:18Z</time></trkpt><trkpt lat="46.59043614635366" lon="26.757597922890863"><ele>237.0</ele><time>2026-04-25T09:32:20Z</time></trkpt><trkpt lat="46.59056184729078" lon="26.757589573775913"><ele>237.0</ele><time>2026-04-25T09:32:22Z</time></trkpt><trkpt lat="46.59062580060551" lon="26.75759484109572"><ele>237.0</ele><time>2026-04-25T09:32:23Z</time></trkpt><trkpt lat="46.590688824625005" lon="26.75758686118805"><ele>237.0</ele><time>2026-04-25T09:32:24Z</time></trkpt><trkpt lat="46.59075254029633" lon="26.757575224556913"><ele>237.0</ele><time>2026-04-25T09:32:25Z</time></trkpt><trkpt lat="46.59081634138403" lon="26.75755773362554"><ele>237.0</ele><time>2026-04-25T09:32:26Z</time></trkpt><trkpt lat="46.590881378650515" lon="26.75754061504231"><ele>237.0</ele><time>2026-04-25T09:32:27Z</time></trkpt><trkpt lat="46.59100130418207" lon="26.757509948508496"><ele>237.0</ele><time>2026-04-25T09:32:29Z</time></trkpt><trkpt lat="46.591126549932234" lon="26.757471955613223"><ele>236.6</ele><time>2026-04-25T09:32:31Z</time></trkpt><trkpt lat="46.591191409258535" lon="26.75744765599803"><ele>236.2</ele><time>2026-04-25T09:32:32Z</time></trkpt><trkpt lat="46.59130254375324" lon="26.75739841518027"><ele>235.8</ele><time>2026-04-25T09:32:33.999Z</time></trkpt><trkpt lat="46.59141194976996" lon="26.757354897479928"><ele>235.4</ele><time>2026-04-25T09:32:35.999Z</time></trkpt><trkpt lat="46.59153240242001" lon="26.75729606623887"><ele>235.0</ele><time>2026-04-25T09:32:37.999Z</time></trkpt><trkpt lat="46.59164010808412" lon="26.757234276518673"><ele>234.99999999999997</ele><time>2026-04-25T09:32:39.999Z</time></trkpt><trkpt lat="46.59175371052474" lon="26.757159934419768"><ele>235.0</ele><time>2026-04-25T09:32:41.999Z</time></trkpt><trkpt lat="46.59181200809705" lon="26.75711846664916"><ele>235.0</ele><time>2026-04-25T09:32:42.999Z</time></trkpt><trkpt lat="46.59186832254577" lon="26.75706730913616"><ele>235.0</ele><time>2026-04-25T09:32:43.999Z</time></trkpt><trkpt lat="46.59192354663778" lon="26.757014536900442"><ele>234.99999999999997</ele><time>2026-04-25T09:32:44.999Z</time></trkpt><trkpt lat="46.592009630440074" lon="26.7569194015978"><ele>235.0</ele><time>2026-04-25T09:32:46.999Z</time></trkpt><trkpt lat="46.59211216862708" lon="26.756839095603294"><ele>235.16666666666666</ele><time>2026-04-25T09:32:48.999Z</time></trkpt><trkpt lat="46.59216910939166" lon="26.756778108206415"><ele>235.33333333333331</ele><time>2026-04-25T09:32:49.999Z</time></trkpt><trkpt lat="46.59222380374914" lon="26.756712308351737"><ele>235.5</ele><time>2026-04-25T09:32:50.999Z</time></trkpt><trkpt lat="46.59232164643852" lon="26.75659706008912"><ele>235.66666666666669</ele><time>2026-04-25T09:32:52.999Z</time></trkpt><trkpt lat="46.592371702361305" lon="26.756537891042786"><ele>235.83333333333334</ele><time>2026-04-25T09:32:53.999Z</time></trkpt><trkpt lat="46.592423270768755" lon="26.756476934573165"><ele>236.0</ele><time>2026-04-25T09:32:54.999Z</time></trkpt><trkpt lat="46.59247649015317" lon="26.756411636250796"><ele>236.00000000000003</ele><time>2026-04-25T09:32:55.999Z</time></trkpt><trkpt lat="46.592529128538736" lon="26.756341344183156"><ele>236.0</ele><time>2026-04-25T09:32:56.999Z</time></trkpt><trkpt lat="46.59258444015784" lon="26.756267482230793"><ele>236.0</ele><time>2026-04-25T09:32:57.999Z</time></trkpt><trkpt lat="46.59264122967455" lon="26.75619164686249"><ele>236.0</ele><time>2026-04-25T09:32:58.999Z</time></trkpt><trkpt lat="46.59269244473618" lon="26.756094826016163"><ele>236.00000000000003</ele><time>2026-04-25T09:32:59.999Z</time></trkpt><trkpt lat="46.59275256237767" lon="26.756026542079407"><ele>236.0</ele><time>2026-04-25T09:33:00.999Z</time></trkpt><trkpt lat="46.59280886158776" lon="26.755954842458856"><ele>236.00000000000003</ele><time>2026-04-25T09:33:01.999Z</time></trkpt><trkpt lat="46.59286516620828" lon="26.75589082826868"><ele>236.0</ele><time>2026-04-25T09:33:02.999Z</time></trkpt><trkpt lat="46.59292100443943" lon="26.755825700486298"><ele>236.0</ele><time>2026-04-25T09:33:03.999Z</time></trkpt><trkpt lat="46.59298187505505" lon="26.755753543702262"><ele>236.0</ele><time>2026-04-25T09:33:04.999Z</time></trkpt><trkpt lat="46.593045183783126" lon="26.75568107605181"><ele>236.00000000000003</ele><time>2026-04-25T09:33:05.999Z</time></trkpt><trkpt lat="46.59310117118583" lon="26.755616908095917"><ele>236.0</ele><time>2026-04-25T09:33:06.999Z</time></trkpt><trkpt lat="46.59319026551476" lon="26.755514246450016"><ele>236.0</ele><time>2026-04-25T09:33:08.999Z</time></trkpt><trkpt lat="46.5932794355099" lon="26.75539496833318"><ele>236.00000000000003</ele><time>2026-04-25T09:33:10.999Z</time></trkpt><trkpt lat="46.593328682812704" lon="26.755331254573676"><ele>236.00000000000003</ele><time>2026-04-25T09:33:11.999Z</time></trkpt><trkpt lat="46.593407612123016" lon="26.755241218524613"><ele>236.0</ele><time>2026-04-25T09:33:13.999Z</time></trkpt><trkpt lat="46.59350892775901" lon="26.755131694555132"><ele>236.0</ele><time>2026-04-25T09:33:15.999Z</time></trkpt><trkpt lat="46.59356500853232" lon="26.755070819146418"><ele>235.33333333333334</ele><time>2026-04-25T09:33:16.999Z</time></trkpt><trkpt lat="46.59363572442829" lon="26.755006503251817"><ele>234.66666666666669</ele><time>2026-04-25T09:33:17.999Z</time></trkpt><trkpt lat="46.59370918363951" lon="26.754944435818075"><ele>234.0</ele><time>2026-04-25T09:33:18.999Z</time></trkpt><trkpt lat="46.59378148787168" lon="26.754873670535385"><ele>233.33333333333331</ele><time>2026-04-25T09:33:19.999Z</time></trkpt><trkpt lat="46.59385597072129" lon="26.754804173399364"><ele>232.66666666666666</ele><time>2026-04-25T09:33:21Z</time></trkpt><trkpt lat="46.5939172015231" lon="26.754739327629988"><ele>232.0</ele><time>2026-04-25T09:33:22Z</time></trkpt><trkpt lat="46.59396723571278" lon="26.754681306593046"><ele>232.0</ele><time>2026-04-25T09:33:23Z</time></trkpt><trkpt lat="46.594072664245786" lon="26.754568480273935"><ele>232.0</ele><time>2026-04-25T09:33:25Z</time></trkpt><trkpt lat="46.59412619469282" lon="26.7544998014826"><ele>232.0</ele><time>2026-04-25T09:33:26Z</time></trkpt><trkpt lat="46.594188451571156" lon="26.754419065303107"><ele>232.0</ele><time>2026-04-25T09:33:27Z</time></trkpt><trkpt lat="46.59424823553677" lon="26.754343043124916"><ele>232.0</ele><time>2026-04-25T09:33:28Z</time></trkpt><trkpt lat="46.59431529610967" lon="26.75426141144718"><ele>231.66666666666666</ele><time>2026-04-25T09:33:29Z</time></trkpt><trkpt lat="46.59437942447203" lon="26.754158709339514"><ele>231.33333333333331</ele><time>2026-04-25T09:33:30Z</time></trkpt><trkpt lat="46.59443980344166" lon="26.75406302204236"><ele>231.0</ele><time>2026-04-25T09:33:31Z</time></trkpt><trkpt lat="46.59449465307236" lon="26.75397246149247"><ele>230.66666666666669</ele><time>2026-04-25T09:33:32Z</time></trkpt><trkpt lat="46.594552838840194" lon="26.75387824463547"><ele>230.33333333333334</ele><time>2026-04-25T09:33:33Z</time></trkpt><trkpt lat="46.59461963745427" lon="26.753792759852704"><ele>230.0</ele><time>2026-04-25T09:33:34Z</time></trkpt><trkpt lat="46.594683347587015" lon="26.753709653934948"><ele>230.00000000000003</ele><time>2026-04-25T09:33:35Z</time></trkpt><trkpt lat="46.59474204911723" lon="26.753659531539117"><ele>230.0</ele><time>2026-04-25T09:33:36Z</time></trkpt><trkpt lat="46.594799177407914" lon="26.75361641672752"><ele>230.0</ele><time>2026-04-25T09:33:37Z</time></trkpt><trkpt lat="46.594904859706176" lon="26.753554532951394"><ele>230.0</ele><time>2026-04-25T09:33:39Z</time></trkpt><trkpt lat="46.5950237827167" lon="26.753487350560757"><ele>230.00000000000003</ele><time>2026-04-25T09:33:41Z</time></trkpt><trkpt lat="46.59509300884799" lon="26.75344641497203"><ele>230.0</ele><time>2026-04-25T09:33:42Z</time></trkpt><trkpt lat="46.59516909361524" lon="26.75340522097239"><ele>230.50000000000003</ele><time>2026-04-25T09:33:43Z</time></trkpt><trkpt lat="46.59524977489838" lon="26.75336329684185"><ele>231.0</ele><time>2026-04-25T09:33:44Z</time></trkpt><trkpt lat="46.59533186210778" lon="26.75332373559285"><ele>231.5</ele><time>2026-04-25T09:33:45Z</time></trkpt><trkpt lat="46.59540819548652" lon="26.753287633169442"><ele>232.0</ele><time>2026-04-25T09:33:46Z</time></trkpt><trkpt lat="46.595473893016845" lon="26.7532393527275"><ele>232.50000000000003</ele><time>2026-04-25T09:33:47Z</time></trkpt><trkpt lat="46.59557328705371" lon="26.7531383763417"><ele>233.0</ele><time>2026-04-25T09:33:49Z</time></trkpt><trkpt lat="46.59568894865837" lon="26.753053771081163"><ele>233.00000000000003</ele><time>2026-04-25T09:33:51Z</time></trkpt><trkpt lat="46.59575927931124" lon="26.75300407219753"><ele>233.0</ele><time>2026-04-25T09:33:52Z</time></trkpt><trkpt lat="46.59583972142167" lon="26.75295493414856"><ele>233.0</ele><time>2026-04-25T09:33:53Z</time></trkpt><trkpt lat="46.59592733999411" lon="26.752923308479485"><ele>233.0</ele><time>2026-04-25T09:33:54Z</time></trkpt><trkpt lat="46.59602013192679" lon="26.75289674998311"><ele>233.00000000000003</ele><time>2026-04-25T09:33:55Z</time></trkpt><trkpt lat="46.596102452455554" lon="26.752876836348385"><ele>233.0</ele><time>2026-04-25T09:33:56Z</time></trkpt><trkpt lat="46.59616783450448" lon="26.752859969935596"><ele>233.00000000000003</ele><time>2026-04-25T09:33:57Z</time></trkpt><trkpt lat="46.596274531290106" lon="26.752802163276495"><ele>233.0</ele><time>2026-04-25T09:33:59Z</time></trkpt><trkpt lat="46.59633454697755" lon="26.752769652480843"><ele>233.0</ele><time>2026-04-25T09:34:00Z</time></trkpt><trkpt lat="46.59640465188416" lon="26.752739279129653"><ele>233.0</ele><time>2026-04-25T09:34:01Z</time></trkpt><trkpt lat="46.59650819044623" lon="26.752676073705523"><ele>233.00000000000003</ele><time>2026-04-25T09:34:03Z</time></trkpt><trkpt lat="46.596568168295605" lon="26.752623169656268"><ele>233.0</ele><time>2026-04-25T09:34:04Z</time></trkpt><trkpt lat="46.5966327935053" lon="26.75256542518334"><ele>231.33333333333334</ele><time>2026-04-25T09:34:05Z</time></trkpt><trkpt lat="46.5966978272016" lon="26.752501609696147"><ele>229.66666666666669</ele><time>2026-04-25T09:34:06Z</time></trkpt><trkpt lat="46.59680573970073" lon="26.75242011806578"><ele>228.0</ele><time>2026-04-25T09:34:08Z</time></trkpt><trkpt lat="46.59686247943986" lon="26.752374148552562"><ele>226.33333333333331</ele><time>2026-04-25T09:34:09Z</time></trkpt><trkpt lat="46.59692716724265" lon="26.75231963515678"><ele>224.66666666666666</ele><time>2026-04-25T09:34:10Z</time></trkpt><trkpt lat="46.597000904829315" lon="26.75226549072409"><ele>223.0</ele><time>2026-04-25T09:34:11Z</time></trkpt><trkpt lat="46.59707341188252" lon="26.752210542312188"><ele>222.49999999999997</ele><time>2026-04-25T09:34:12Z</time></trkpt><trkpt lat="46.59714633510661" lon="26.752149115441636"><ele>222.0</ele><time>2026-04-25T09:34:13Z</time></trkpt><trkpt lat="46.59720252687888" lon="26.752099713927205"><ele>221.5</ele><time>2026-04-25T09:34:14Z</time></trkpt><trkpt lat="46.597257123710726" lon="26.752043862204506"><ele>221.0</ele><time>2026-04-25T09:34:15Z</time></trkpt><trkpt lat="46.597322914895805" lon="26.751987796541165"><ele>220.49999999999997</ele><time>2026-04-25T09:34:16Z</time></trkpt><trkpt lat="46.59739341691968" lon="26.7519280545004"><ele>220.0</ele><time>2026-04-25T09:34:17Z</time></trkpt><trkpt lat="46.5974667250752" lon="26.75187545608318"><ele>220.16666666666666</ele><time>2026-04-25T09:34:18Z</time></trkpt><trkpt lat="46.597533753941505" lon="26.75183376176886"><ele>220.33333333333331</ele><time>2026-04-25T09:34:19Z</time></trkpt><trkpt lat="46.59759792328612" lon="26.75180254717071"><ele>220.5</ele><time>2026-04-25T09:34:20Z</time></trkpt><trkpt lat="46.59771312715022" lon="26.751802908621954"><ele>220.66666666666669</ele><time>2026-04-25T09:34:22Z</time></trkpt><trkpt lat="46.59777417324309" lon="26.751829950708128"><ele>220.83333333333334</ele><time>2026-04-25T09:34:23Z</time></trkpt><trkpt lat="46.59784355787864" lon="26.75188289255044"><ele>221.0</ele><time>2026-04-25T09:34:24Z</time></trkpt><trkpt lat="46.597906628586315" lon="26.751954727432384"><ele>221.00000000000003</ele><time>2026-04-25T09:34:25Z</time></trkpt><trkpt lat="46.597971351231266" lon="26.75202289836293"><ele>221.0</ele><time>2026-04-25T09:34:26Z</time></trkpt><trkpt lat="46.598040451902015" lon="26.75209569600983"><ele>221.0</ele><time>2026-04-25T09:34:26.999Z</time></trkpt><trkpt lat="46.59810451371562" lon="26.75216695033905"><ele>221.0</ele><time>2026-04-25T09:34:27.999Z</time></trkpt><trkpt lat="46.5981611823759" lon="26.75223589962377"><ele>221.00000000000003</ele><time>2026-04-25T09:34:28.999Z</time></trkpt><trkpt lat="46.598211402446466" lon="26.752294602274006"><ele>221.0</ele><time>2026-04-25T09:34:29.999Z</time></trkpt><trkpt lat="46.59826899625609" lon="26.752349922053092"><ele>221.00000000000003</ele><time>2026-04-25T09:34:30.999Z</time></trkpt><trkpt lat="46.59833057817744" lon="26.752413351686172"><ele>221.0</ele><time>2026-04-25T09:34:31.999Z</time></trkpt><trkpt lat="46.5984350769473" lon="26.7524471504465"><ele>221.0</ele><time>2026-04-25T09:34:33.999Z</time></trkpt><trkpt lat="46.598501852173555" lon="26.752446359574176"><ele>221.0</ele><time>2026-04-25T09:34:34.999Z</time></trkpt><trkpt lat="46.59858715010959" lon="26.75241243170303"><ele>221.00000000000003</ele><time>2026-04-25T09:34:35.999Z</time></trkpt><trkpt lat="46.598657286522744" lon="26.752382108396098"><ele>221.0</ele><time>2026-04-25T09:34:36.999Z</time></trkpt><trkpt lat="46.59873501300909" lon="26.752364722699408"><ele>221.16666666666669</ele><time>2026-04-25T09:34:37.999Z</time></trkpt><trkpt lat="46.59879867402626" lon="26.752343343155424"><ele>221.33333333333334</ele><time>2026-04-25T09:34:38.999Z</time></trkpt><trkpt lat="46.59885585049049" lon="26.752297303577887"><ele>221.5</ele><time>2026-04-25T09:34:39.999Z</time></trkpt><trkpt lat="46.598915512834665" lon="26.752225215269398"><ele>221.66666666666669</ele><time>2026-04-25T09:34:40.999Z</time></trkpt><trkpt lat="46.59898710802894" lon="26.752147330130278"><ele>221.83333333333334</ele><time>2026-04-25T09:34:41.999Z</time></trkpt><trkpt lat="46.59903139596834" lon="26.752027194307804"><ele>222.0</ele><time>2026-04-25T09:34:42.999Z</time></trkpt><trkpt lat="46.599057824159665" lon="26.751893830234245"><ele>222.33333333333334</ele><time>2026-04-25T09:34:43.999Z</time></trkpt><trkpt lat="46.59908211677366" lon="26.75176750509442"><ele>222.66666666666669</ele><time>2026-04-25T09:34:44.999Z</time></trkpt><trkpt lat="46.59910332678965" lon="26.751652635812988"><ele>223.0</ele><time>2026-04-25T09:34:45.999Z</time></trkpt><trkpt lat="46.59912221980923" lon="26.75155111433624"><ele>223.33333333333334</ele><time>2026-04-25T09:34:46.999Z</time></trkpt><trkpt lat="46.59914607897764" lon="26.751452352271894"><ele>223.66666666666669</ele><time>2026-04-25T09:34:47.999Z</time></trkpt><trkpt lat="46.599167708067355" lon="26.751365893762404"><ele>224.0</ele><time>2026-04-25T09:34:48.999Z</time></trkpt><trkpt lat="46.59926690445155" lon="26.75124969479492"><ele>224.0</ele><time>2026-04-25T09:34:50.999Z</time></trkpt><trkpt lat="46.59935358522077" lon="26.75122520617923"><ele>223.99999999999997</ele><time>2026-04-25T09:34:51.999Z</time></trkpt><trkpt lat="46.59944451180692" lon="26.75121513940671"><ele>223.99999999999997</ele><time>2026-04-25T09:34:52.999Z</time></trkpt><trkpt lat="46.59954641039155" lon="26.751214708710087"><ele>224.0</ele><time>2026-04-25T09:34:53.999Z</time></trkpt><trkpt lat="46.59965626759864" lon="26.751216355011334"><ele>224.0</ele><time>2026-04-25T09:34:54.999Z</time></trkpt><trkpt lat="46.59975435171723" lon="26.751217732192448"><ele>224.2</ele><time>2026-04-25T09:34:55.999Z</time></trkpt><trkpt lat="46.5998517458279" lon="26.75122239816038"><ele>224.39999999999998</ele><time>2026-04-25T09:34:56.999Z</time></trkpt><trkpt lat="46.59995358784629" lon="26.751226972547514"><ele>224.6</ele><time>2026-04-25T09:34:57.999Z</time></trkpt><trkpt lat="46.60006062232003" lon="26.7512186578429"><ele>224.8</ele><time>2026-04-25T09:34:58.999Z</time></trkpt><trkpt lat="46.60017137038403" lon="26.751203293188123"><ele>225.0</ele><time>2026-04-25T09:34:59.999Z</time></trkpt><trkpt lat="46.600278319239564" lon="26.751193366226754"><ele>224.8</ele><time>2026-04-25T09:35:00.999Z</time></trkpt><trkpt lat="46.600382494508985" lon="26.751161593538775"><ele>224.6</ele><time>2026-04-25T09:35:01.999Z</time></trkpt><trkpt lat="46.600475510359985" lon="26.751136668419143"><ele>224.39999999999998</ele><time>2026-04-25T09:35:02.999Z</time></trkpt><trkpt lat="46.60056522691359" lon="26.751097362981174"><ele>224.2</ele><time>2026-04-25T09:35:03.999Z</time></trkpt><trkpt lat="46.60064697179862" lon="26.751056438638987"><ele>224.0</ele><time>2026-04-25T09:35:04.999Z</time></trkpt><trkpt lat="46.60072928879859" lon="26.751017481597287"><ele>224.0</ele><time>2026-04-25T09:35:05.999Z</time></trkpt><trkpt lat="46.60080364975892" lon="26.750989973844664"><ele>223.99999999999997</ele><time>2026-04-25T09:35:06.999Z</time></trkpt><trkpt lat="46.60093315943439" lon="26.750971596674642"><ele>223.99999999999997</ele><time>2026-04-25T09:35:08.999Z</time></trkpt><trkpt lat="46.60101360797992" lon="26.75099968152268"><ele>224.0</ele><time>2026-04-25T09:35:09.999Z</time></trkpt><trkpt lat="46.601097093110056" lon="26.751069354969708"><ele>224.0</ele><time>2026-04-25T09:35:10.999Z</time></trkpt><trkpt lat="46.60117936309587" lon="26.751159967322845"><ele>224.6</ele><time>2026-04-25T09:35:11.999Z</time></trkpt><trkpt lat="46.601255636707315" lon="26.751261110987343"><ele>225.2</ele><time>2026-04-25T09:35:12.999Z</time></trkpt><trkpt lat="46.60132993927405" lon="26.751355729635748"><ele>225.79999999999998</ele><time>2026-04-25T09:35:13.999Z</time></trkpt><trkpt lat="46.60140272272139" lon="26.751436765962747"><ele>226.39999999999998</ele><time>2026-04-25T09:35:14.999Z</time></trkpt><trkpt lat="46.60148098824388" lon="26.751517311361177"><ele>227.0</ele><time>2026-04-25T09:35:15.999Z</time></trkpt><trkpt lat="46.60157218541616" lon="26.751585574266684"><ele>227.0</ele><time>2026-04-25T09:35:16.999Z</time></trkpt><trkpt lat="46.60166645383862" lon="26.751629059754784"><ele>227.0</ele><time>2026-04-25T09:35:17.999Z</time></trkpt><trkpt lat="46.601762570377254" lon="26.75166397133153"><ele>227.0</ele><time>2026-04-25T09:35:18.999Z</time></trkpt><trkpt lat="46.60185959515571" lon="26.751693123129485"><ele>227.0</ele><time>2026-04-25T09:35:19.999Z</time></trkpt><trkpt lat="46.601954188338055" lon="26.751730873519083"><ele>227.0</ele><time>2026-04-25T09:35:20.999Z</time></trkpt><trkpt lat="46.60205052543926" lon="26.751773261795964"><ele>227.2</ele><time>2026-04-25T09:35:21.999Z</time></trkpt><trkpt lat="46.602141776896644" lon="26.751822938156025"><ele>227.39999999999998</ele><time>2026-04-25T09:35:22.999Z</time></trkpt><trkpt lat="46.60223466276085" lon="26.751871454422734"><ele>227.60000000000002</ele><time>2026-04-25T09:35:23.999Z</time></trkpt><trkpt lat="46.60233308038904" lon="26.75191784220965"><ele>227.8</ele><time>2026-04-25T09:35:24.999Z</time></trkpt><trkpt lat="46.602435864941334" lon="26.751958686859343"><ele>228.0</ele><time>2026-04-25T09:35:25.999Z</time></trkpt><trkpt lat="46.602529756008515" lon="26.751985148635388"><ele>227.0</ele><time>2026-04-25T09:35:27Z</time></trkpt><trkpt lat="46.60262071631058" lon="26.752005103666907"><ele>226.0</ele><time>2026-04-25T09:35:28Z</time></trkpt><trkpt lat="46.60270380495281" lon="26.752025196227837"><ele>225.0</ele><time>2026-04-25T09:35:29Z</time></trkpt><trkpt lat="46.60278716565251" lon="26.752053977033878"><ele>224.0</ele><time>2026-04-25T09:35:30Z</time></trkpt><trkpt lat="46.6028753733895" lon="26.752086336790956"><ele>223.0</ele><time>2026-04-25T09:35:31Z</time></trkpt><trkpt lat="46.60296186074347" lon="26.75211951525044"><ele>222.0</ele><time>2026-04-25T09:35:32Z</time></trkpt><trkpt lat="46.60305059840356" lon="26.752159303723378"><ele>222.0</ele><time>2026-04-25T09:35:33Z</time></trkpt><trkpt lat="46.603136131854136" lon="26.752203112819924"><ele>222.0</ele><time>2026-04-25T09:35:34Z</time></trkpt><trkpt lat="46.60322178439998" lon="26.752242364126648"><ele>222.0</ele><time>2026-04-25T09:35:35Z</time></trkpt><trkpt lat="46.60330156757195" lon="26.752301495830388"><ele>222.0</ele><time>2026-04-25T09:35:36Z</time></trkpt><trkpt lat="46.60338167486695" lon="26.752358251519112"><ele>222.0</ele><time>2026-04-25T09:35:37Z</time></trkpt><trkpt lat="46.60345867700546" lon="26.752437099393358"><ele>222.0</ele><time>2026-04-25T09:35:38Z</time></trkpt><trkpt lat="46.603522631684726" lon="26.752525050132327"><ele>222.0</ele><time>2026-04-25T09:35:39Z</time></trkpt><trkpt lat="46.60358874441576" lon="26.75261701714597"><ele>222.0</ele><time>2026-04-25T09:35:40Z</time></trkpt><trkpt lat="46.603664931633844" lon="26.752707792433167"><ele>222.0</ele><time>2026-04-25T09:35:41Z</time></trkpt><trkpt lat="46.60374624440252" lon="26.75279179859289"><ele>222.0</ele><time>2026-04-25T09:35:42Z</time></trkpt><trkpt lat="46.603835289351146" lon="26.75286386306015"><ele>221.6</ele><time>2026-04-25T09:35:43Z</time></trkpt><trkpt lat="46.60392305187286" lon="26.752932102311284"><ele>221.2</ele><time>2026-04-25T09:35:44Z</time></trkpt><trkpt lat="46.60401354954972" lon="26.75300934128799"><ele>220.8</ele><time>2026-04-25T09:35:45Z</time></trkpt><trkpt lat="46.60409404093995" lon="26.753083701279316"><ele>220.4</ele><time>2026-04-25T09:35:46Z</time></trkpt><trkpt lat="46.60416509608193" lon="26.753158813179027"><ele>220.0</ele><time>2026-04-25T09:35:47Z</time></trkpt><trkpt lat="46.60422721548507" lon="26.75324548583953"><ele>220.0</ele><time>2026-04-25T09:35:48Z</time></trkpt><trkpt lat="46.604287471805044" lon="26.753335772006924"><ele>220.0</ele><time>2026-04-25T09:35:49Z</time></trkpt><trkpt lat="46.60435057564114" lon="26.753433251340233"><ele>220.0</ele><time>2026-04-25T09:35:50Z</time></trkpt><trkpt lat="46.604421134993906" lon="26.753526371888256"><ele>220.0</ele><time>2026-04-25T09:35:51Z</time></trkpt><trkpt lat="46.60448918039093" lon="26.75362176694352"><ele>220.0</ele><time>2026-04-25T09:35:52Z</time></trkpt><trkpt lat="46.60456209393215" lon="26.75371601590847"><ele>219.99999999999997</ele><time>2026-04-25T09:35:53Z</time></trkpt><trkpt lat="46.604629361922186" lon="26.753809572096095"><ele>220.0</ele><time>2026-04-25T09:35:54Z</time></trkpt><trkpt lat="46.60469647789112" lon="26.75389408721083"><ele>220.0</ele><time>2026-04-25T09:35:55Z</time></trkpt><trkpt lat="46.60475040700192" lon="26.753959681782398"><ele>220.0</ele><time>2026-04-25T09:35:56Z</time></trkpt><trkpt lat="46.604807951127505" lon="26.7540257827195"><ele>219.99999999999997</ele><time>2026-04-25T09:35:57Z</time></trkpt><trkpt lat="46.604872208824084" lon="26.75409102191373"><ele>220.0</ele><time>2026-04-25T09:35:58Z</time></trkpt><trkpt lat="46.60494008891747" lon="26.754158661293733"><ele>219.99999999999997</ele><time>2026-04-25T09:35:59Z</time></trkpt><trkpt lat="46.60500994346039" lon="26.754215206928453"><ele>220.0</ele><time>2026-04-25T09:36:00Z</time></trkpt><trkpt lat="46.60507999965328" lon="26.754247278400975"><ele>220.0</ele><time>2026-04-25T09:36:01Z</time></trkpt><trkpt lat="46.60515181734663" lon="26.754270513033518"><ele>220.0</ele><time>2026-04-25T09:36:02Z</time></trkpt><trkpt lat="46.60522916522377" lon="26.754286471215302"><ele>219.99999999999997</ele><time>2026-04-25T09:36:03Z</time></trkpt><trkpt lat="46.60531063602002" lon="26.754308258983638"><ele>220.0</ele><time>2026-04-25T09:36:04Z</time></trkpt><trkpt lat="46.6053976039924" lon="26.754322753399464"><ele>219.83333333333331</ele><time>2026-04-25T09:36:05Z</time></trkpt><trkpt lat="46.605483900806526" lon="26.75435678044709"><ele>219.66666666666666</ele><time>2026-04-25T09:36:06Z</time></trkpt><trkpt lat="46.60556458345898" lon="26.754345112324934"><ele>219.5</ele><time>2026-04-25T09:36:07Z</time></trkpt><trkpt lat="46.605648776479846" lon="26.754364326368684"><ele>219.33333333333331</ele><time>2026-04-25T09:36:08Z</time></trkpt><trkpt lat="46.60573194464111" lon="26.754376708746232"><ele>219.16666666666666</ele><time>2026-04-25T09:36:09Z</time></trkpt><trkpt lat="46.60580431628121" lon="26.754386359130926"><ele>219.0</ele><time>2026-04-25T09:36:10Z</time></trkpt><trkpt lat="46.60587699718587" lon="26.75439772705785"><ele>218.39999999999998</ele><time>2026-04-25T09:36:11Z</time></trkpt><trkpt lat="46.60596090994313" lon="26.754412756249778"><ele>217.79999999999998</ele><time>2026-04-25T09:36:12Z</time></trkpt><trkpt lat="46.606046667107286" lon="26.75442497738331"><ele>217.20000000000002</ele><time>2026-04-25T09:36:13Z</time></trkpt><trkpt lat="46.6061366678747" lon="26.75444118079226"><ele>216.60000000000002</ele><time>2026-04-25T09:36:14Z</time></trkpt><trkpt lat="46.60623389312934" lon="26.754452839701067"><ele>216.0</ele><time>2026-04-25T09:36:15Z</time></trkpt><trkpt lat="46.60633167906805" lon="26.754461427499987"><ele>215.83333333333334</ele><time>2026-04-25T09:36:16Z</time></trkpt><trkpt lat="46.606422786939866" lon="26.754462911583722"><ele>215.66666666666669</ele><time>2026-04-25T09:36:17Z</time></trkpt><trkpt lat="46.606501959783344" lon="26.75446488757562"><ele>215.5</ele><time>2026-04-25T09:36:18Z</time></trkpt><trkpt lat="46.6065739937957" lon="26.754463827409378"><ele>215.33333333333334</ele><time>2026-04-25T09:36:19Z</time></trkpt><trkpt lat="46.606644073923945" lon="26.754462730040792"><ele>215.16666666666669</ele><time>2026-04-25T09:36:20Z</time></trkpt><trkpt lat="46.606725532594766" lon="26.75446724859792"><ele>215.0</ele><time>2026-04-25T09:36:21Z</time></trkpt><trkpt lat="46.60681109616281" lon="26.754466273936135"><ele>215.00000000000003</ele><time>2026-04-25T09:36:22Z</time></trkpt><trkpt lat="46.606899797896034" lon="26.75446579814274"><ele>215.0</ele><time>2026-04-25T09:36:23Z</time></trkpt><trkpt lat="46.60698384303378" lon="26.75446674617483"><ele>215.0</ele><time>2026-04-25T09:36:24Z</time></trkpt><trkpt lat="46.60705361927105" lon="26.754465196312623"><ele>215.0</ele><time>2026-04-25T09:36:25Z</time></trkpt><trkpt lat="46.60716373598844" lon="26.75447046973954"><ele>215.00000000000003</ele><time>2026-04-25T09:36:27Z</time></trkpt><trkpt lat="46.607239650444455" lon="26.75447052316852"><ele>215.0</ele><time>2026-04-25T09:36:28.999Z</time></trkpt><trkpt lat="46.60731198193932" lon="26.754440830011237"><ele>215.6</ele><time>2026-04-25T09:36:31.999Z</time></trkpt><trkpt lat="46.60735677392803" lon="26.7543029590467"><ele>216.2</ele><time>2026-04-25T09:36:33.999Z</time></trkpt><trkpt lat="46.60735047866016" lon="26.75414571218294"><ele>216.8</ele><time>2026-04-25T09:36:35.999Z</time></trkpt><trkpt lat="46.607343700672374" lon="26.753976882291344"><ele>217.4</ele><time>2026-04-25T09:36:37.999Z</time></trkpt><trkpt lat="46.60733978921684" lon="26.753879453639044"><ele>218.0</ele><time>2026-04-25T09:36:38.999Z</time></trkpt><trkpt lat="46.60733277750197" lon="26.75370480168228"><ele>218.00000000000003</ele><time>2026-04-25T09:36:40.999Z</time></trkpt><trkpt lat="46.607328896662146" lon="26.753608135393662"><ele>218.0</ele><time>2026-04-25T09:36:41.999Z</time></trkpt><trkpt lat="46.60732451889414" lon="26.7534990917342"><ele>218.0</ele><time>2026-04-25T09:36:42.999Z</time></trkpt><trkpt lat="46.60731984586686" lon="26.753382693271103"><ele>218.0</ele><time>2026-04-25T09:36:43.999Z</time></trkpt><trkpt lat="46.60731300782059" lon="26.75325460427298"><ele>218.00000000000003</ele><time>2026-04-25T09:36:44.999Z</time></trkpt><trkpt lat="46.60730595964364" lon="26.75313226541251"><ele>218.0</ele><time>2026-04-25T09:36:45.999Z</time></trkpt><trkpt lat="46.60728280539688" lon="26.753000430508475"><ele>218.0</ele><time>2026-04-25T09:36:46.999Z</time></trkpt><trkpt lat="46.60727886881613" lon="26.752868026168894"><ele>218.0</ele><time>2026-04-25T09:36:47.999Z</time></trkpt><trkpt lat="46.607281912189336" lon="26.75274711573427"><ele>218.0</ele><time>2026-04-25T09:36:48.999Z</time></trkpt><trkpt lat="46.607304689334676" lon="26.752544047076103"><ele>218.0</ele><time>2026-04-25T09:36:49.999Z</time></trkpt><trkpt lat="46.607320372324494" lon="26.752380337317263"><ele>218.0</ele><time>2026-04-25T09:36:50.999Z</time></trkpt><trkpt lat="46.607353505047215" lon="26.752212287680738"><ele>218.0</ele><time>2026-04-25T09:36:51.999Z</time></trkpt><trkpt lat="46.60739974248918" lon="26.75204178563503"><ele>218.0</ele><time>2026-04-25T09:36:52.999Z</time></trkpt><trkpt lat="46.607442099288164" lon="26.751858187235907"><ele>218.0</ele><time>2026-04-25T09:36:53.999Z</time></trkpt><trkpt lat="46.60750499540316" lon="26.751696776185025"><ele>218.0</ele><time>2026-04-25T09:36:54.999Z</time></trkpt><trkpt lat="46.607560498088716" lon="26.751546243805368"><ele>218.0</ele><time>2026-04-25T09:36:55.999Z</time></trkpt><trkpt lat="46.60761572267616" lon="26.751385333677327"><ele>218.0</ele><time>2026-04-25T09:36:56.999Z</time></trkpt><trkpt lat="46.6076774448084" lon="26.751218597075855"><ele>218.0</ele><time>2026-04-25T09:36:57.999Z</time></trkpt><trkpt lat="46.60773709264587" lon="26.751052376342162"><ele>218.0</ele><time>2026-04-25T09:36:58.999Z</time></trkpt><trkpt lat="46.607799582662366" lon="26.750877556317246"><ele>218.25</ele><time>2026-04-25T09:36:59.999Z</time></trkpt><trkpt lat="46.607861024052625" lon="26.75070558773683"><ele>218.5</ele><time>2026-04-25T09:37:00.999Z</time></trkpt><trkpt lat="46.60791923867818" lon="26.750529601606136"><ele>218.75</ele><time>2026-04-25T09:37:01.999Z</time></trkpt><trkpt lat="46.607970637875454" lon="26.75037041618426"><ele>219.0</ele><time>2026-04-25T09:37:02.999Z</time></trkpt><trkpt lat="46.60801697759894" lon="26.750232360298813"><ele>218.79999999999998</ele><time>2026-04-25T09:37:03.999Z</time></trkpt><trkpt lat="46.60806251797363" lon="26.750104451124866"><ele>218.59999999999997</ele><time>2026-04-25T09:37:04.999Z</time></trkpt><trkpt lat="46.60810530528956" lon="26.749970065357214"><ele>218.4</ele><time>2026-04-25T09:37:05.999Z</time></trkpt><trkpt lat="46.60815319114026" lon="26.74982756511842"><ele>218.2</ele><time>2026-04-25T09:37:06.999Z</time></trkpt><trkpt lat="46.608201876854494" lon="26.749680463879642"><ele>218.0</ele><time>2026-04-25T09:37:07.999Z</time></trkpt><trkpt lat="46.608250172458824" lon="26.749532761768954"><ele>218.0</ele><time>2026-04-25T09:37:08.999Z</time></trkpt><trkpt lat="46.60830242934827" lon="26.74938093718628"><ele>218.0</ele><time>2026-04-25T09:37:09.999Z</time></trkpt><trkpt lat="46.60834961755648" lon="26.74922713240848"><ele>218.0</ele><time>2026-04-25T09:37:10.999Z</time></trkpt><trkpt lat="46.608395377103825" lon="26.74907815707257"><ele>218.0</ele><time>2026-04-25T09:37:11.999Z</time></trkpt><trkpt lat="46.60844157627208" lon="26.748923234621085"><ele>218.0</ele><time>2026-04-25T09:37:12.999Z</time></trkpt><trkpt lat="46.60848184193204" lon="26.748771269112314"><ele>218.0</ele><time>2026-04-25T09:37:13.999Z</time></trkpt><trkpt lat="46.60852950382024" lon="26.74861136931148"><ele>218.0</ele><time>2026-04-25T09:37:14.999Z</time></trkpt><trkpt lat="46.608564980131234" lon="26.748450901574557"><ele>218.0</ele><time>2026-04-25T09:37:15.999Z</time></trkpt><trkpt lat="46.60858508561108" lon="26.74828824272083"><ele>218.0</ele><time>2026-04-25T09:37:16.999Z</time></trkpt><trkpt lat="46.60860628777113" lon="26.74812325259067"><ele>218.0</ele><time>2026-04-25T09:37:17.999Z</time></trkpt><trkpt lat="46.608621933964784" lon="26.747957615002054"><ele>218.0</ele><time>2026-04-25T09:37:18.999Z</time></trkpt><trkpt lat="46.60863584379233" lon="26.747792177858905"><ele>218.0</ele><time>2026-04-25T09:37:19.999Z</time></trkpt><trkpt lat="46.60864599311882" lon="26.747628221819856"><ele>218.2</ele><time>2026-04-25T09:37:20.999Z</time></trkpt><trkpt lat="46.60864962854604" lon="26.747464689270796"><ele>218.4</ele><time>2026-04-25T09:37:21.999Z</time></trkpt><trkpt lat="46.60864828428437" lon="26.747313777876602"><ele>218.59999999999997</ele><time>2026-04-25T09:37:22.999Z</time></trkpt><trkpt lat="46.608652510025166" lon="26.74715026911011"><ele>218.79999999999998</ele><time>2026-04-25T09:37:23.999Z</time></trkpt><trkpt lat="46.608658351639114" lon="26.746983935589572"><ele>219.0</ele><time>2026-04-25T09:37:24.999Z</time></trkpt><trkpt lat="46.60866496873907" lon="26.746812122990512"><ele>219.25</ele><time>2026-04-25T09:37:25.999Z</time></trkpt><trkpt lat="46.60867110424679" lon="26.746647284763597"><ele>219.5</ele><time>2026-04-25T09:37:26.999Z</time></trkpt><trkpt lat="46.608681924245246" lon="26.746476465478587"><ele>219.75</ele><time>2026-04-25T09:37:27.999Z</time></trkpt><trkpt lat="46.608703006562614" lon="26.74631408048147"><ele>220.0</ele><time>2026-04-25T09:37:28.999Z</time></trkpt><trkpt lat="46.60873481406802" lon="26.746158526158503"><ele>220.5</ele><time>2026-04-25T09:37:29.999Z</time></trkpt><trkpt lat="46.60878245462639" lon="26.74600273256118"><ele>221.0</ele><time>2026-04-25T09:37:30.999Z</time></trkpt><trkpt lat="46.608835411664735" lon="26.745855446609834"><ele>221.5</ele><time>2026-04-25T09:37:31.999Z</time></trkpt><trkpt lat="46.60889249213476" lon="26.745706097870222"><ele>222.0</ele><time>2026-04-25T09:37:33Z</time></trkpt><trkpt lat="46.60895329202607" lon="26.745558549123746"><ele>222.0</ele><time>2026-04-25T09:37:34Z</time></trkpt><trkpt lat="46.609016268597664" lon="26.745407517620418"><ele>222.0</ele><time>2026-04-25T09:37:35Z</time></trkpt><trkpt lat="46.60908043774254" lon="26.745265553908602"><ele>222.0</ele><time>2026-04-25T09:37:36Z</time></trkpt><trkpt lat="46.60914099072125" lon="26.745124082550348"><ele>222.0</ele><time>2026-04-25T09:37:37Z</time></trkpt><trkpt lat="46.609200328731305" lon="26.744989431624763"><ele>222.2</ele><time>2026-04-25T09:37:38Z</time></trkpt><trkpt lat="46.60925512348019" lon="26.74485381051621"><ele>222.39999999999998</ele><time>2026-04-25T09:37:39Z</time></trkpt><trkpt lat="46.60931114031331" lon="26.744715681266054"><ele>222.60000000000002</ele><time>2026-04-25T09:37:40Z</time></trkpt><trkpt lat="46.60937325809936" lon="26.74457570467023"><ele>222.8</ele><time>2026-04-25T09:37:41Z</time></trkpt><trkpt lat="46.6094403270993" lon="26.74443816014452"><ele>223.0</ele><time>2026-04-25T09:37:42Z</time></trkpt><trkpt lat="46.60950583172116" lon="26.74431429669328"><ele>224.0</ele><time>2026-04-25T09:37:43Z</time></trkpt><trkpt lat="46.60957948837122" lon="26.74419583755297"><ele>225.0</ele><time>2026-04-25T09:37:44Z</time></trkpt><trkpt lat="46.609661563124" lon="26.744083256911146"><ele>226.0</ele><time>2026-04-25T09:37:45Z</time></trkpt><trkpt lat="46.609757185750006" lon="26.743984719743302"><ele>227.0</ele><time>2026-04-25T09:37:46Z</time></trkpt><trkpt lat="46.60986035247874" lon="26.74389782863439"><ele>227.0</ele><time>2026-04-25T09:37:47Z</time></trkpt><trkpt lat="46.609962780674856" lon="26.743810179212357"><ele>227.0</ele><time>2026-04-25T09:37:48Z</time></trkpt><trkpt lat="46.610064574948716" lon="26.743731360302103"><ele>227.0</ele><time>2026-04-25T09:37:49Z</time></trkpt><trkpt lat="46.61017033374182" lon="26.743664451177832"><ele>227.0</ele><time>2026-04-25T09:37:50Z</time></trkpt><trkpt lat="46.61027968667686" lon="26.743598158749528"><ele>228.25</ele><time>2026-04-25T09:37:51Z</time></trkpt><trkpt lat="46.610390799545506" lon="26.743550244830672"><ele>229.5</ele><time>2026-04-25T09:37:52Z</time></trkpt><trkpt lat="46.61050686807741" lon="26.74350631391084"><ele>230.75</ele><time>2026-04-25T09:37:53Z</time></trkpt><trkpt lat="46.61062348736454" lon="26.74347669824233"><ele>232.0</ele><time>2026-04-25T09:37:54Z</time></trkpt><trkpt lat="46.61073908560655" lon="26.743462130711915"><ele>229.75</ele><time>2026-04-25T09:37:55Z</time></trkpt><trkpt lat="46.61085876357481" lon="26.74344900830591"><ele>227.5</ele><time>2026-04-25T09:37:56Z</time></trkpt><trkpt lat="46.61098177708161" lon="26.743442060895436"><ele>225.25</ele><time>2026-04-25T09:37:57Z</time></trkpt><trkpt lat="46.611092780785945" lon="26.7434193214737"><ele>223.0</ele><time>2026-04-25T09:37:58Z</time></trkpt><trkpt lat="46.61119835709096" lon="26.743384093680607"><ele>223.0</ele><time>2026-04-25T09:37:59Z</time></trkpt><trkpt lat="46.61129123713809" lon="26.743326705521568"><ele>223.0</ele><time>2026-04-25T09:38:00Z</time></trkpt><trkpt lat="46.61138610219624" lon="26.74325307263759"><ele>223.0</ele><time>2026-04-25T09:38:01Z</time></trkpt><trkpt lat="46.61146325567026" lon="26.743132028549976"><ele>223.0</ele><time>2026-04-25T09:38:02Z</time></trkpt><trkpt lat="46.61153700444831" lon="26.742988318717526"><ele>223.0</ele><time>2026-04-25T09:38:03Z</time></trkpt><trkpt lat="46.61159681010138" lon="26.74282482320302"><ele>222.25</ele><time>2026-04-25T09:38:04Z</time></trkpt><trkpt lat="46.61165988626328" lon="26.742655943038443"><ele>221.5</ele><time>2026-04-25T09:38:05Z</time></trkpt><trkpt lat="46.61172607423485" lon="26.742478864875693"><ele>220.75</ele><time>2026-04-25T09:38:06Z</time></trkpt><trkpt lat="46.611788071998134" lon="26.742286746663567"><ele>220.0</ele><time>2026-04-25T09:38:07Z</time></trkpt><trkpt lat="46.61184960744309" lon="26.742094272429583"><ele>220.0</ele><time>2026-04-25T09:38:08Z</time></trkpt><trkpt lat="46.6119144571204" lon="26.741908756279788"><ele>220.0</ele><time>2026-04-25T09:38:09Z</time></trkpt><trkpt lat="46.611983717809785" lon="26.741732642017524"><ele>220.0</ele><time>2026-04-25T09:38:10Z</time></trkpt><trkpt lat="46.612051262260884" lon="26.741551051868427"><ele>220.0</ele><time>2026-04-25T09:38:11Z</time></trkpt><trkpt lat="46.61212540311839" lon="26.74136691751889"><ele>220.66666666666666</ele><time>2026-04-25T09:38:12Z</time></trkpt><trkpt lat="46.6121988335347" lon="26.741178654974977"><ele>221.33333333333331</ele><time>2026-04-25T09:38:13Z</time></trkpt><trkpt lat="46.61227521563369" lon="26.74099030971021"><ele>222.0</ele><time>2026-04-25T09:38:14Z</time></trkpt><trkpt lat="46.61235187665858" lon="26.74080009549411"><ele>222.33333333333331</ele><time>2026-04-25T09:38:15Z</time></trkpt><trkpt lat="46.612431273663994" lon="26.740611353500107"><ele>222.66666666666666</ele><time>2026-04-25T09:38:16Z</time></trkpt><trkpt lat="46.61250820963226" lon="26.740424360925388"><ele>223.0</ele><time>2026-04-25T09:38:17Z</time></trkpt><trkpt lat="46.61258526161537" lon="26.740225008843495"><ele>222.25</ele><time>2026-04-25T09:38:18Z</time></trkpt><trkpt lat="46.61265441765796" lon="26.740040774097334"><ele>221.5</ele><time>2026-04-25T09:38:19Z</time></trkpt><trkpt lat="46.61273605361823" lon="26.739853290869444"><ele>220.75</ele><time>2026-04-25T09:38:20Z</time></trkpt><trkpt lat="46.612807682841684" lon="26.739678791812413"><ele>220.0</ele><time>2026-04-25T09:38:21Z</time></trkpt><trkpt lat="46.61287728338756" lon="26.739502966047894"><ele>221.5</ele><time>2026-04-25T09:38:22Z</time></trkpt><trkpt lat="46.612945752609136" lon="26.739327680085598"><ele>223.0</ele><time>2026-04-25T09:38:23Z</time></trkpt><trkpt lat="46.613020257466005" lon="26.739154300624044"><ele>224.5</ele><time>2026-04-25T09:38:24Z</time></trkpt><trkpt lat="46.613087301272294" lon="26.738979611302586"><ele>226.0</ele><time>2026-04-25T09:38:25Z</time></trkpt><trkpt lat="46.61315733990566" lon="26.73880921397304"><ele>226.0</ele><time>2026-04-25T09:38:26Z</time></trkpt><trkpt lat="46.613228023944345" lon="26.738637170812606"><ele>226.0</ele><time>2026-04-25T09:38:27Z</time></trkpt><trkpt lat="46.6132956842567" lon="26.73845551317588"><ele>226.0</ele><time>2026-04-25T09:38:28Z</time></trkpt><trkpt lat="46.61336973120696" lon="26.73828393800924"><ele>226.0</ele><time>2026-04-25T09:38:29Z</time></trkpt><trkpt lat="46.61343417215988" lon="26.738125626246223"><ele>225.25</ele><time>2026-04-25T09:38:29.999Z</time></trkpt><trkpt lat="46.6134989635447" lon="26.73797330316648"><ele>224.5</ele><time>2026-04-25T09:38:30.999Z</time></trkpt><trkpt lat="46.61356198155415" lon="26.73780258580203"><ele>223.75</ele><time>2026-04-25T09:38:31.999Z</time></trkpt><trkpt lat="46.6136341907886" lon="26.737640913857952"><ele>223.0</ele><time>2026-04-25T09:38:32.999Z</time></trkpt><trkpt lat="46.613700528485076" lon="26.73747767855142"><ele>223.5</ele><time>2026-04-25T09:38:33.999Z</time></trkpt><trkpt lat="46.61376168923507" lon="26.73730835865522"><ele>224.0</ele><time>2026-04-25T09:38:34.999Z</time></trkpt><trkpt lat="46.61382126779748" lon="26.737147831693164"><ele>224.5</ele><time>2026-04-25T09:38:35.999Z</time></trkpt><trkpt lat="46.613862885580154" lon="26.736968768498283"><ele>225.0</ele><time>2026-04-25T09:38:36.999Z</time></trkpt><trkpt lat="46.61389631888769" lon="26.736797821853077"><ele>225.0</ele><time>2026-04-25T09:38:37.999Z</time></trkpt><trkpt lat="46.61391197118671" lon="26.73660733315596"><ele>225.0</ele><time>2026-04-25T09:38:38.999Z</time></trkpt><trkpt lat="46.61390600991538" lon="26.736406744203034"><ele>225.0</ele><time>2026-04-25T09:38:39.999Z</time></trkpt><trkpt lat="46.613888220817444" lon="26.73620036026476"><ele>225.0</ele><time>2026-04-25T09:38:40.999Z</time></trkpt><trkpt lat="46.613874664991236" lon="26.736007469226823"><ele>224.5</ele><time>2026-04-25T09:38:41.999Z</time></trkpt><trkpt lat="46.613853271840746" lon="26.735802125516376"><ele>224.0</ele><time>2026-04-25T09:38:42.999Z</time></trkpt><trkpt lat="46.61381468399119" lon="26.73559801700308"><ele>223.5</ele><time>2026-04-25T09:38:43.999Z</time></trkpt><trkpt lat="46.613788789309815" lon="26.735409509943352"><ele>223.0</ele><time>2026-04-25T09:38:44.999Z</time></trkpt><trkpt lat="46.6137674675193" lon="26.7352141508584"><ele>223.0</ele><time>2026-04-25T09:38:45.999Z</time></trkpt><trkpt lat="46.61373735606372" lon="26.735024496388743"><ele>223.0</ele><time>2026-04-25T09:38:46.999Z</time></trkpt><trkpt lat="46.6137093806913" lon="26.73483196451515"><ele>223.0</ele><time>2026-04-25T09:38:47.999Z</time></trkpt><trkpt lat="46.613685346697075" lon="26.734637036084052"><ele>223.0</ele><time>2026-04-25T09:38:48.999Z</time></trkpt><trkpt lat="46.61366174956664" lon="26.734440862051095"><ele>222.75</ele><time>2026-04-25T09:38:49.999Z</time></trkpt><trkpt lat="46.613637668847055" lon="26.734247990596952"><ele>222.5</ele><time>2026-04-25T09:38:50.999Z</time></trkpt><trkpt lat="46.61361119372432" lon="26.734051449209662"><ele>222.25</ele><time>2026-04-25T09:38:51.999Z</time></trkpt><trkpt lat="46.61358427703426" lon="26.73385036273028"><ele>222.0</ele><time>2026-04-25T09:38:52.999Z</time></trkpt><trkpt lat="46.61355457318819" lon="26.73364129633744"><ele>222.0</ele><time>2026-04-25T09:38:53.999Z</time></trkpt><trkpt lat="46.61353086012322" lon="26.733436951420767"><ele>222.0</ele><time>2026-04-25T09:38:54.999Z</time></trkpt><trkpt lat="46.61350332985724" lon="26.733226872991825"><ele>222.0</ele><time>2026-04-25T09:38:55.999Z</time></trkpt><trkpt lat="46.61348081270739" lon="26.73301305332346"><ele>222.0</ele><time>2026-04-25T09:38:56.999Z</time></trkpt><trkpt lat="46.61345056828004" lon="26.732801316103775"><ele>222.33333333333331</ele><time>2026-04-25T09:38:57.999Z</time></trkpt><trkpt lat="46.61342755683291" lon="26.732592716473555"><ele>222.66666666666666</ele><time>2026-04-25T09:38:58.999Z</time></trkpt><trkpt lat="46.61339853419424" lon="26.732366516309398"><ele>223.0</ele><time>2026-04-25T09:38:59.999Z</time></trkpt><trkpt lat="46.61336883181471" lon="26.73215635341853"><ele>223.0</ele><time>2026-04-25T09:39:00.999Z</time></trkpt><trkpt lat="46.613346055031" lon="26.731950423252"><ele>223.0</ele><time>2026-04-25T09:39:01.999Z</time></trkpt><trkpt lat="46.61331280967048" lon="26.73175004780238"><ele>223.0</ele><time>2026-04-25T09:39:02.999Z</time></trkpt><trkpt lat="46.613294313945744" lon="26.73154638586937"><ele>223.0</ele><time>2026-04-25T09:39:03.999Z</time></trkpt><trkpt lat="46.61325785136775" lon="26.731336498896695"><ele>223.25</ele><time>2026-04-25T09:39:04.999Z</time></trkpt><trkpt lat="46.61322584372679" lon="26.731140061360293"><ele>223.5</ele><time>2026-04-25T09:39:05.999Z</time></trkpt><trkpt lat="46.61319733463819" lon="26.730918697236387"><ele>223.75</ele><time>2026-04-25T09:39:06.999Z</time></trkpt><trkpt lat="46.61318492603763" lon="26.730697119003946"><ele>224.0</ele><time>2026-04-25T09:39:07.999Z</time></trkpt><trkpt lat="46.61315694026456" lon="26.730467198301245"><ele>224.0</ele><time>2026-04-25T09:39:08.999Z</time></trkpt><trkpt lat="46.613132540293705" lon="26.73026673734426"><ele>224.0</ele><time>2026-04-25T09:39:09.999Z</time></trkpt><trkpt lat="46.61310746675363" lon="26.730059597523418"><ele>224.0</ele><time>2026-04-25T09:39:10.999Z</time></trkpt><trkpt lat="46.61308444568502" lon="26.72986910794828"><ele>224.0</ele><time>2026-04-25T09:39:11.999Z</time></trkpt><trkpt lat="46.61306180106208" lon="26.72968215712926"><ele>224.5</ele><time>2026-04-25T09:39:12.999Z</time></trkpt><trkpt lat="46.613038364447306" lon="26.72948986037915"><ele>225.0</ele><time>2026-04-25T09:39:13.999Z</time></trkpt><trkpt lat="46.61301530157759" lon="26.729300842239226"><ele>225.5</ele><time>2026-04-25T09:39:14.999Z</time></trkpt><trkpt lat="46.612965503873326" lon="26.729125118454665"><ele>226.0</ele><time>2026-04-25T09:39:15.999Z</time></trkpt><trkpt lat="46.61290983657121" lon="26.72895314820558"><ele>226.0</ele><time>2026-04-25T09:39:16.999Z</time></trkpt><trkpt lat="46.61281831664741" lon="26.72880559177522"><ele>226.0</ele><time>2026-04-25T09:39:17.999Z</time></trkpt><trkpt lat="46.61273164475902" lon="26.728668827582048"><ele>226.0</ele><time>2026-04-25T09:39:18.999Z</time></trkpt><trkpt lat="46.61262472005137" lon="26.728542996869955"><ele>226.0</ele><time>2026-04-25T09:39:19.999Z</time></trkpt><trkpt lat="46.612518079845835" lon="26.728424150423102"><ele>226.0</ele><time>2026-04-25T09:39:20.999Z</time></trkpt><trkpt lat="46.612411815581716" lon="26.72828949656904"><ele>226.0</ele><time>2026-04-25T09:39:21.999Z</time></trkpt><trkpt lat="46.612287307750606" lon="26.728168398654873"><ele>226.0</ele><time>2026-04-25T09:39:22.999Z</time></trkpt><trkpt lat="46.61215670736104" lon="26.72806826180222"><ele>226.0</ele><time>2026-04-25T09:39:23.999Z</time></trkpt><trkpt lat="46.612037817538216" lon="26.727946565579845"><ele>225.75</ele><time>2026-04-25T09:39:24.999Z</time></trkpt><trkpt lat="46.611919645874714" lon="26.727829082546037"><ele>225.5</ele><time>2026-04-25T09:39:25.999Z</time></trkpt><trkpt lat="46.61180159316619" lon="26.72771871142683"><ele>225.25</ele><time>2026-04-25T09:39:26.999Z</time></trkpt><trkpt lat="46.611680748371796" lon="26.727606714532428"><ele>225.0</ele><time>2026-04-25T09:39:27.999Z</time></trkpt><trkpt lat="46.61156816395193" lon="26.727486165172007"><ele>226.0</ele><time>2026-04-25T09:39:28.999Z</time></trkpt><trkpt lat="46.611466540087" lon="26.72736561741769"><ele>227.0</ele><time>2026-04-25T09:39:29.999Z</time></trkpt><trkpt lat="46.611382977691626" lon="26.72724163296845"><ele>228.0</ele><time>2026-04-25T09:39:30.999Z</time></trkpt><trkpt lat="46.61131297991858" lon="26.727098221898597"><ele>229.0</ele><time>2026-04-25T09:39:31.999Z</time></trkpt><trkpt lat="46.61126027007536" lon="26.72693659203158"><ele>229.25</ele><time>2026-04-25T09:39:32.999Z</time></trkpt><trkpt lat="46.61122991621707" lon="26.726772780121664"><ele>229.5</ele><time>2026-04-25T09:39:33.999Z</time></trkpt><trkpt lat="46.6112017941313" lon="26.726592601605834"><ele>229.75</ele><time>2026-04-25T09:39:34.999Z</time></trkpt><trkpt lat="46.611144641285485" lon="26.726454333553733"><ele>230.0</ele><time>2026-04-25T09:39:35.999Z</time></trkpt><trkpt lat="46.61095973083606" lon="26.7261827839054"><ele>229.0</ele><time>2026-04-25T09:39:36.999Z</time></trkpt><trkpt lat="46.610895552491414" lon="26.725985283759726"><ele>228.0</ele><time>2026-04-25T09:39:37.999Z</time></trkpt><trkpt lat="46.61082806587991" lon="26.725785621188795"><ele>227.0</ele><time>2026-04-25T09:39:39Z</time></trkpt><trkpt lat="46.61075811169448" lon="26.725583876997074"><ele>227.0</ele><time>2026-04-25T09:39:40Z</time></trkpt><trkpt lat="46.61068908456042" lon="26.725394837282987"><ele>227.0</ele><time>2026-04-25T09:39:41Z</time></trkpt><trkpt lat="46.61062948912883" lon="26.725215712037933"><ele>227.0</ele><time>2026-04-25T09:39:42Z</time></trkpt><trkpt lat="46.610568262723326" lon="26.725041977108905"><ele>227.0</ele><time>2026-04-25T09:39:43Z</time></trkpt><trkpt lat="46.610491347427384" lon="26.7248853947907"><ele>227.25</ele><time>2026-04-25T09:39:44Z</time></trkpt><trkpt lat="46.61040942371517" lon="26.724722187009927"><ele>227.5</ele><time>2026-04-25T09:39:45Z</time></trkpt><trkpt lat="46.61032727669708" lon="26.724552273418592"><ele>227.75</ele><time>2026-04-25T09:39:46Z</time></trkpt><trkpt lat="46.61024129616629" lon="26.72437912304081"><ele>228.0</ele><time>2026-04-25T09:39:47Z</time></trkpt><trkpt lat="46.61015045608202" lon="26.72421194564234"><ele>228.0</ele><time>2026-04-25T09:39:48Z</time></trkpt><trkpt lat="46.61006581729794" lon="26.72405124389635"><ele>228.0</ele><time>2026-04-25T09:39:49Z</time></trkpt><trkpt lat="46.60998862351392" lon="26.723878074957792"><ele>228.0</ele><time>2026-04-25T09:39:50Z</time></trkpt><trkpt lat="46.609899083568884" lon="26.723720668139208"><ele>228.0</ele><time>2026-04-25T09:39:51Z</time></trkpt><trkpt lat="46.60980978154174" lon="26.723554685957023"><ele>227.75</ele><time>2026-04-25T09:39:52Z</time></trkpt><trkpt lat="46.60971805548997" lon="26.723396546166345"><ele>227.5</ele><time>2026-04-25T09:39:53Z</time></trkpt><trkpt lat="46.60962718127608" lon="26.723240757289883"><ele>227.25</ele><time>2026-04-25T09:39:54Z</time></trkpt><trkpt lat="46.609535361669316" lon="26.72307713280996"><ele>227.0</ele><time>2026-04-25T09:39:55Z</time></trkpt><trkpt lat="46.60944076943153" lon="26.722913494654208"><ele>227.0</ele><time>2026-04-25T09:39:56Z</time></trkpt><trkpt lat="46.609345378947104" lon="26.722744166090717"><ele>227.0</ele><time>2026-04-25T09:39:57Z</time></trkpt><trkpt lat="46.60924825722898" lon="26.7225923863777"><ele>227.0</ele><time>2026-04-25T09:39:58Z</time></trkpt><trkpt lat="46.609152222447214" lon="26.72242324289732"><ele>227.0</ele><time>2026-04-25T09:39:59Z</time></trkpt><trkpt lat="46.60904516779491" lon="26.72227024797505"><ele>227.75</ele><time>2026-04-25T09:40:00Z</time></trkpt><trkpt lat="46.60892678440829" lon="26.72214088723875"><ele>228.5</ele><time>2026-04-25T09:40:01Z</time></trkpt><trkpt lat="46.60880495124325" lon="26.7220290743239"><ele>229.25</ele><time>2026-04-25T09:40:02Z</time></trkpt><trkpt lat="46.60866945520562" lon="26.721937322218725"><ele>230.0</ele><time>2026-04-25T09:40:03Z</time></trkpt><trkpt lat="46.60853290178958" lon="26.72187610440545"><ele>230.0</ele><time>2026-04-25T09:40:04Z</time></trkpt><trkpt lat="46.608380227489675" lon="26.72182881855379"><ele>230.0</ele><time>2026-04-25T09:40:05Z</time></trkpt><trkpt lat="46.60823615426013" lon="26.721780871748035"><ele>230.0</ele><time>2026-04-25T09:40:06Z</time></trkpt><trkpt lat="46.60808464319461" lon="26.721746866401165"><ele>230.0</ele><time>2026-04-25T09:40:07Z</time></trkpt><trkpt lat="46.60793004758062" lon="26.721713625996326"><ele>230.0</ele><time>2026-04-25T09:40:08Z</time></trkpt><trkpt lat="46.60778040413233" lon="26.721682263447768"><ele>230.0</ele><time>2026-04-25T09:40:09Z</time></trkpt><trkpt lat="46.60762159910053" lon="26.721644853046246"><ele>229.33333333333334</ele><time>2026-04-25T09:40:10Z</time></trkpt><trkpt lat="46.60746570589258" lon="26.721612869892354"><ele>228.66666666666669</ele><time>2026-04-25T09:40:11Z</time></trkpt><trkpt lat="46.607307191949936" lon="26.721579150672063"><ele>228.0</ele><time>2026-04-25T09:40:12Z</time></trkpt><trkpt lat="46.60714575429997" lon="26.721542374367033"><ele>228.33333333333331</ele><time>2026-04-25T09:40:13Z</time></trkpt><trkpt lat="46.606990800549376" lon="26.721513217044436"><ele>228.66666666666666</ele><time>2026-04-25T09:40:14Z</time></trkpt><trkpt lat="46.60682493540292" lon="26.72148390482977"><ele>229.0</ele><time>2026-04-25T09:40:15Z</time></trkpt><trkpt lat="46.60666394953765" lon="26.721452298733272"><ele>229.0</ele><time>2026-04-25T09:40:16Z</time></trkpt><trkpt lat="46.60650082461243" lon="26.721418601997918"><ele>229.0</ele><time>2026-04-25T09:40:17Z</time></trkpt><trkpt lat="46.60633980177229" lon="26.721384668799296"><ele>229.0</ele><time>2026-04-25T09:40:18Z</time></trkpt><trkpt lat="46.60618803243216" lon="26.72135163355752"><ele>229.66666666666666</ele><time>2026-04-25T09:40:19Z</time></trkpt><trkpt lat="46.60602938072711" lon="26.721318467535536"><ele>230.33333333333331</ele><time>2026-04-25T09:40:20Z</time></trkpt><trkpt lat="46.6058724702882" lon="26.721285935283834"><ele>231.0</ele><time>2026-04-25T09:40:21Z</time></trkpt><trkpt lat="46.6057211926195" lon="26.721254880167127"><ele>231.0</ele><time>2026-04-25T09:40:22Z</time></trkpt><trkpt lat="46.60556948590235" lon="26.721225019022576"><ele>231.0</ele><time>2026-04-25T09:40:23Z</time></trkpt><trkpt lat="46.60542900438262" lon="26.721192837085752"><ele>231.0</ele><time>2026-04-25T09:40:24Z</time></trkpt><trkpt lat="46.605302559609854" lon="26.721163465356298"><ele>231.0</ele><time>2026-04-25T09:40:25Z</time></trkpt><trkpt lat="46.60519789163215" lon="26.721136351138018"><ele>230.66666666666666</ele><time>2026-04-25T09:40:26Z</time></trkpt><trkpt lat="46.60510680231751" lon="26.721112552270938"><ele>230.33333333333331</ele><time>2026-04-25T09:40:27Z</time></trkpt><trkpt lat="46.60502179122362" lon="26.7210963350153"><ele>230.0</ele><time>2026-04-25T09:40:28Z</time></trkpt><trkpt lat="46.604935366625085" lon="26.721077545221597"><ele>229.66666666666666</ele><time>2026-04-25T09:40:29Z</time></trkpt><trkpt lat="46.60485370841875" lon="26.72106294301536"><ele>229.33333333333331</ele><time>2026-04-25T09:40:30Z</time></trkpt><trkpt lat="46.604774024274384" lon="26.72104877857627"><ele>229.0</ele><time>2026-04-25T09:40:31Z</time></trkpt><trkpt lat="46.604698290229415" lon="26.721030134910187"><ele>229.66666666666666</ele><time>2026-04-25T09:40:32Z</time></trkpt><trkpt lat="46.60462291037304" lon="26.72101337095862"><ele>230.33333333333331</ele><time>2026-04-25T09:40:32.999Z</time></trkpt><trkpt lat="46.604540149476286" lon="26.720996764667373"><ele>231.0</ele><time>2026-04-25T09:40:33.999Z</time></trkpt><trkpt lat="46.60445888762154" lon="26.720980382178293"><ele>231.66666666666669</ele><time>2026-04-25T09:40:34.999Z</time></trkpt><trkpt lat="46.60437316680853" lon="26.720966183666842"><ele>232.33333333333334</ele><time>2026-04-25T09:40:35.999Z</time></trkpt><trkpt lat="46.60428165334617" lon="26.720949114356387"><ele>233.0</ele><time>2026-04-25T09:40:36.999Z</time></trkpt><trkpt lat="46.60418747245567" lon="26.720931175694282"><ele>233.0</ele><time>2026-04-25T09:40:37.999Z</time></trkpt><trkpt lat="46.60409449510401" lon="26.720920453386377"><ele>233.0</ele><time>2026-04-25T09:40:38.999Z</time></trkpt><trkpt lat="46.60399834514812" lon="26.720905254378348"><ele>233.0</ele><time>2026-04-25T09:40:39.999Z</time></trkpt><trkpt lat="46.60390487733254" lon="26.720892231019075"><ele>233.0</ele><time>2026-04-25T09:40:40.999Z</time></trkpt><trkpt lat="46.60381853286183" lon="26.720869867044733"><ele>233.0</ele><time>2026-04-25T09:40:41.999Z</time></trkpt><trkpt lat="46.6037382316088" lon="26.72084956608504"><ele>233.00000000000003</ele><time>2026-04-25T09:40:42.999Z</time></trkpt><trkpt lat="46.60367130751174" lon="26.720833078614334"><ele>233.0</ele><time>2026-04-25T09:40:43.999Z</time></trkpt><trkpt lat="46.60356632222743" lon="26.7208176139565"><ele>233.0</ele><time>2026-04-25T09:40:45.999Z</time></trkpt><trkpt lat="46.60350040236564" lon="26.720821116852914"><ele>233.0</ele><time>2026-04-25T09:40:47.999Z</time></trkpt><trkpt lat="46.60343931768797" lon="26.720898826974416"><ele>233.00000000000003</ele><time>2026-04-25T09:40:50.999Z</time></trkpt><trkpt lat="46.603397565132546" lon="26.72098300856933"><ele>233.0</ele><time>2026-04-25T09:40:52.999Z</time></trkpt><trkpt lat="46.60335063614572" lon="26.721062379092654"><ele>232.66666666666669</ele><time>2026-04-25T09:40:54.999Z</time></trkpt><trkpt lat="46.603293311600986" lon="26.721134484489237"><ele>232.33333333333334</ele><time>2026-04-25T09:40:56.999Z</time></trkpt><trkpt lat="46.60323852863191" lon="26.721194711956855"><ele>232.0</ele><time>2026-04-25T09:40:58.999Z</time></trkpt><trkpt lat="46.603182968434965" lon="26.72125023036246"><ele>231.66666666666669</ele><time>2026-04-25T09:41:00.999Z</time></trkpt><trkpt lat="46.60311324184326" lon="26.72130487425732"><ele>231.33333333333334</ele><time>2026-04-25T09:41:02.999Z</time></trkpt><trkpt lat="46.60303198252509" lon="26.721340738998023"><ele>231.0</ele><time>2026-04-25T09:41:04.999Z</time></trkpt><trkpt lat="46.60295436588235" lon="26.721375982822483"><ele>231.0</ele><time>2026-04-25T09:41:06.999Z</time></trkpt><trkpt lat="46.60287251851268" lon="26.721422261790558"><ele>231.0</ele><time>2026-04-25T09:41:08.999Z</time></trkpt><trkpt lat="46.6028029310709" lon="26.72146146500351"><ele>231.0</ele><time>2026-04-25T09:41:10.999Z</time></trkpt><trkpt lat="46.60273225510101" lon="26.72150078525913"><ele>231.0</ele><time>2026-04-25T09:41:12.999Z</time></trkpt><trkpt lat="46.60267155994515" lon="26.721570481492048"><ele>231.0</ele><time>2026-04-25T09:41:14.999Z</time></trkpt><trkpt lat="46.60264210481211" lon="26.721688214140205"><ele>231.0</ele><time>2026-04-25T09:41:16.999Z</time></trkpt><trkpt lat="46.6026002903436" lon="26.72178464131067"><ele>231.16666666666666</ele><time>2026-04-25T09:41:18.999Z</time></trkpt><trkpt lat="46.602578059087456" lon="26.72189425339662"><ele>231.33333333333331</ele><time>2026-04-25T09:41:20.999Z</time></trkpt><trkpt lat="46.60257335709244" lon="26.721992620599963"><ele>231.5</ele><time>2026-04-25T09:41:22.999Z</time></trkpt><trkpt lat="46.60253578154029" lon="26.722102866815383"><ele>231.66666666666666</ele><time>2026-04-25T09:41:24.999Z</time></trkpt><trkpt lat="46.60251353332602" lon="26.722213123431708"><ele>231.83333333333331</ele><time>2026-04-25T09:41:26.999Z</time></trkpt><trkpt lat="46.60248739700978" lon="26.722341817520213"><ele>232.0</ele><time>2026-04-25T09:41:28.999Z</time></trkpt><trkpt lat="46.60246210018356" lon="26.722465002100158"><ele>232.39999999999998</ele><time>2026-04-25T09:41:30.999Z</time></trkpt><trkpt lat="46.60244196964026" lon="26.722600944198202"><ele>232.79999999999998</ele><time>2026-04-25T09:41:32.999Z</time></trkpt><trkpt lat="46.60236139076567" lon="26.72264110092829"><ele>233.2</ele><time>2026-04-25T09:41:34.999Z</time></trkpt><trkpt lat="46.60228939276532" lon="26.722719469470263"><ele>233.6</ele><time>2026-04-25T09:41:36.999Z</time></trkpt><trkpt lat="46.6021964111889" lon="26.72278741572888"><ele>234.0</ele><time>2026-04-25T09:41:38.999Z</time></trkpt><trkpt lat="46.6020964982715" lon="26.722837814359874"><ele>240.79999999999998</ele><time>2026-04-25T09:41:40.998Z</time></trkpt><trkpt lat="46.60199142765099" lon="26.722845246556073"><ele>247.59999999999997</ele><time>2026-04-25T09:41:42.998Z</time></trkpt><trkpt lat="46.60188004446648" lon="26.722858955341767"><ele>254.4</ele><time>2026-04-25T09:41:45Z</time></trkpt><trkpt lat="46.60177466799842" lon="26.72282241375171"><ele>261.2</ele><time>2026-04-25T09:41:47Z</time></trkpt><trkpt lat="46.601666869032194" lon="26.722795607074563"><ele>268.0</ele><time>2026-04-25T09:41:49Z</time></trkpt><trkpt lat="46.60155159819867" lon="26.72276710191908"><ele>268.0</ele><time>2026-04-25T09:41:51Z</time></trkpt><trkpt lat="46.601446238907506" lon="26.72275656273972"><ele>268.0</ele><time>2026-04-25T09:41:53Z</time></trkpt><trkpt lat="46.601349261138566" lon="26.722722774466423"><ele>268.0</ele><time>2026-04-25T09:41:55Z</time></trkpt><trkpt lat="46.60126997488002" lon="26.722693689129507"><ele>268.0</ele><time>2026-04-25T09:41:57Z</time></trkpt><trkpt lat="46.601172061392155" lon="26.722638464423387"><ele>268.0</ele><time>2026-04-25T09:41:59Z</time></trkpt><trkpt lat="46.60107711474349" lon="26.722634325618934"><ele>269.16666666666663</ele><time>2026-04-25T09:42:01Z</time></trkpt><trkpt lat="46.60098081211631" lon="26.72265089723763"><ele>270.3333333333333</ele><time>2026-04-25T09:42:03Z</time></trkpt><trkpt lat="46.60092435620562" lon="26.722739774727664"><ele>271.5</ele><time>2026-04-25T09:42:05Z</time></trkpt><trkpt lat="46.60086772252021" lon="26.722829125756114"><ele>272.6666666666667</ele><time>2026-04-25T09:42:07Z</time></trkpt><trkpt lat="46.60088224179924" lon="26.722920610251766"><ele>273.83333333333337</ele><time>2026-04-25T09:42:08Z</time></trkpt><trkpt lat="46.60086232349548" lon="26.72302499826098"><ele>275.0</ele><time>2026-04-25T09:42:10Z</time></trkpt><trkpt lat="46.60089036862362" lon="26.72313551391002"><ele>275.0</ele><time>2026-04-25T09:42:12Z</time></trkpt><trkpt lat="46.60096139569737" lon="26.723217946705095"><ele>275.0</ele><time>2026-04-25T09:42:14Z</time></trkpt><trkpt lat="46.60104179679919" lon="26.723255648442148"><ele>275.0</ele><time>2026-04-25T09:42:16Z</time></trkpt><trkpt lat="46.6011217937246" lon="26.723353429964632"><ele>275.0</ele><time>2026-04-25T09:42:18Z</time></trkpt><trkpt lat="46.60120598195951" lon="26.723385451347774"><ele>275.0</ele><time>2026-04-25T09:42:20Z</time></trkpt><trkpt lat="46.60129493731168" lon="26.72341928549586"><ele>273.6</ele><time>2026-04-25T09:42:22Z</time></trkpt><trkpt lat="46.60140177418018" lon="26.72344227311673"><ele>272.2</ele><time>2026-04-25T09:42:24Z</time></trkpt><trkpt lat="46.60147317782787" lon="26.723488723660736"><ele>270.8</ele><time>2026-04-25T09:42:26Z</time></trkpt><trkpt lat="46.60155854195393" lon="26.723524767300262"><ele>269.4</ele><time>2026-04-25T09:42:28Z</time></trkpt><trkpt lat="46.601651017226025" lon="26.72354796689224"><ele>268.0</ele><time>2026-04-25T09:42:30Z</time></trkpt><trkpt lat="46.60176013200401" lon="26.723584683531712"><ele>267.4</ele><time>2026-04-25T09:42:32Z</time></trkpt><trkpt lat="46.60186393635148" lon="26.723633765654416"><ele>266.8</ele><time>2026-04-25T09:42:34Z</time></trkpt><trkpt lat="46.60192555180118" lon="26.723671774655386"><ele>266.2</ele><time>2026-04-25T09:42:34.999Z</time></trkpt><trkpt lat="46.60202692395266" lon="26.723746631150828"><ele>265.6</ele><time>2026-04-25T09:42:36.999Z</time></trkpt><trkpt lat="46.602115507089714" lon="26.723913510435263"><ele>265.0</ele><time>2026-04-25T09:42:38.999Z</time></trkpt><trkpt lat="46.60209712255737" lon="26.724057464277166"><ele>265.0</ele><time>2026-04-25T09:42:40.999Z</time></trkpt><trkpt lat="46.60203066547286" lon="26.724179293555906"><ele>265.0</ele><time>2026-04-25T09:42:42.999Z</time></trkpt><trkpt lat="46.60198717334865" lon="26.724307881622142"><ele>265.0</ele><time>2026-04-25T09:42:44.999Z</time></trkpt><trkpt lat="46.60194374287778" lon="26.72443460695021"><ele>265.0</ele><time>2026-04-25T09:42:46.999Z</time></trkpt><trkpt lat="46.60193080806136" lon="26.724550754853826"><ele>265.0</ele><time>2026-04-25T09:42:48.999Z</time></trkpt><trkpt lat="46.601987797520366" lon="26.72470546501469"><ele>266.8</ele><time>2026-04-25T09:42:50.999Z</time></trkpt><trkpt lat="46.6019962159686" lon="26.724844078873005"><ele>268.6</ele><time>2026-04-25T09:42:52.999Z</time></trkpt><trkpt lat="46.60200441976079" lon="26.724979159316018"><ele>270.4</ele><time>2026-04-25T09:42:54.999Z</time></trkpt><trkpt lat="46.601910407289196" lon="26.725049917041833"><ele>272.2</ele><time>2026-04-25T09:42:55.999Z</time></trkpt><trkpt lat="46.60188675107178" lon="26.72514052194737"><ele>274.0</ele><time>2026-04-25T09:42:56.999Z</time></trkpt><trkpt lat="46.6018089876149" lon="26.72527694001821"><ele>278.16666666666663</ele><time>2026-04-25T09:42:58.999Z</time></trkpt><trkpt lat="46.60177438439626" lon="26.725363048988758"><ele>282.3333333333333</ele><time>2026-04-25T09:42:59.999Z</time></trkpt><trkpt lat="46.601720755892735" lon="26.725531102006563"><ele>286.5</ele><time>2026-04-25T09:43:01.999Z</time></trkpt><trkpt lat="46.601664930503006" lon="26.7255813144808"><ele>290.6666666666667</ele><time>2026-04-25T09:43:02.999Z</time></trkpt><trkpt lat="46.6016157336286" lon="26.725658218517466"><ele>294.83333333333337</ele><time>2026-04-25T09:43:03.999Z</time></trkpt><trkpt lat="46.601569484308385" lon="26.725730832576872"><ele>299.0</ele><time>2026-04-25T09:43:04.999Z</time></trkpt><trkpt lat="46.601510950612166" lon="26.725822293344955"><ele>299.0</ele><time>2026-04-25T09:43:05.999Z</time></trkpt><trkpt lat="46.601451507600096" lon="26.72593286158088"><ele>299.0</ele><time>2026-04-25T09:43:07.999Z</time></trkpt><trkpt lat="46.60133170203995" lon="26.725988850530772"><ele>299.0</ele><time>2026-04-25T09:43:09.999Z</time></trkpt><trkpt lat="46.60122270254945" lon="26.726060684008754"><ele>299.0</ele><time>2026-04-25T09:43:11.999Z</time></trkpt><trkpt lat="46.60111412659654" lon="26.72615594010925"><ele>299.57142857142856</ele><time>2026-04-25T09:43:13.999Z</time></trkpt><trkpt lat="46.601048205707094" lon="26.726168122258056"><ele>300.14285714285717</ele><time>2026-04-25T09:43:14.999Z</time></trkpt><trkpt lat="46.60097390384187" lon="26.726184135598793"><ele>300.7142857142857</ele><time>2026-04-25T09:43:15.999Z</time></trkpt><trkpt lat="46.60089999033296" lon="26.72620256198226"><ele>301.2857142857143</ele><time>2026-04-25T09:43:16.999Z</time></trkpt><trkpt lat="46.600826830598685" lon="26.726203341855303"><ele>301.85714285714283</ele><time>2026-04-25T09:43:17.999Z</time></trkpt><trkpt lat="46.6007604389787" lon="26.726209607900643"><ele>302.42857142857144</ele><time>2026-04-25T09:43:18.999Z</time></trkpt><trkpt lat="46.6006905165502" lon="26.726241588749346"><ele>303.0</ele><time>2026-04-25T09:43:19.999Z</time></trkpt><trkpt lat="46.600624581406564" lon="26.726240777466277"><ele>303.0</ele><time>2026-04-25T09:43:20.999Z</time></trkpt><trkpt lat="46.60051550445398" lon="26.72625614621499"><ele>303.0</ele><time>2026-04-25T09:43:22.999Z</time></trkpt><trkpt lat="46.60044431213343" lon="26.726268722478277"><ele>303.0</ele><time>2026-04-25T09:43:23.999Z</time></trkpt><trkpt lat="46.60032171142058" lon="26.72628280927984"><ele>303.0</ele><time>2026-04-25T09:43:25.999Z</time></trkpt><trkpt lat="46.60025253222496" lon="26.726293652935937"><ele>303.0</ele><time>2026-04-25T09:43:26.999Z</time></trkpt><trkpt lat="46.60007986891521" lon="26.726293727472967"><ele>304.8333333333333</ele><time>2026-04-25T09:43:28.999Z</time></trkpt><trkpt lat="46.60001969192891" lon="26.726338813198172"><ele>306.6666666666667</ele><time>2026-04-25T09:43:29.999Z</time></trkpt><trkpt lat="46.59990999624551" lon="26.726421049762205"><ele>308.5</ele><time>2026-04-25T09:43:31.999Z</time></trkpt><trkpt lat="46.59985022346957" lon="26.726465931670766"><ele>310.33333333333337</ele><time>2026-04-25T09:43:32.999Z</time></trkpt><trkpt lat="46.59978752695267" lon="26.72652704401178"><ele>312.1666666666667</ele><time>2026-04-25T09:43:33.999Z</time></trkpt><trkpt lat="46.59972325378994" lon="26.72655484700544"><ele>314.0</ele><time>2026-04-25T09:43:34.999Z</time></trkpt><trkpt lat="46.599659051954184" lon="26.726598198215783"><ele>314.0</ele><time>2026-04-25T09:43:35.999Z</time></trkpt><trkpt lat="46.599598848334935" lon="26.72663855852118"><ele>314.0</ele><time>2026-04-25T09:43:36.999Z</time></trkpt><trkpt lat="46.59948371146091" lon="26.726693026517918"><ele>314.0</ele><time>2026-04-25T09:43:38.999Z</time></trkpt><trkpt lat="46.59941865644126" lon="26.726709692707075"><ele>314.0</ele><time>2026-04-25T09:43:39.998Z</time></trkpt><trkpt lat="46.59935291047319" lon="26.726726464633458"><ele>314.0</ele><time>2026-04-25T09:43:40.998Z</time></trkpt><trkpt lat="46.59929039574479" lon="26.72675857954527"><ele>314.0</ele><time>2026-04-25T09:43:41.998Z</time></trkpt><trkpt lat="46.59917283820674" lon="26.7267837172187"><ele>314.6666666666667</ele><time>2026-04-25T09:43:43.998Z</time></trkpt><trkpt lat="46.59910906611938" lon="26.72681542225168"><ele>315.33333333333337</ele><time>2026-04-25T09:43:44.998Z</time></trkpt><trkpt lat="46.598960412091806" lon="26.726876104756695"><ele>316.0</ele><time>2026-04-25T09:43:46.998Z</time></trkpt><trkpt lat="46.59891928715186" lon="26.726960796128342"><ele>316.6666666666667</ele><time>2026-04-25T09:43:47.998Z</time></trkpt><trkpt lat="46.59888228725121" lon="26.727036992459947"><ele>317.3333333333333</ele><time>2026-04-25T09:43:48.998Z</time></trkpt><trkpt lat="46.5988454662818" lon="26.727111972544954"><ele>318.0</ele><time>2026-04-25T09:43:49.998Z</time></trkpt><trkpt lat="46.59880778098885" lon="26.727188195831037"><ele>318.0</ele><time>2026-04-25T09:43:51Z</time></trkpt><trkpt lat="46.59877705989514" lon="26.727268302880823"><ele>318.0</ele><time>2026-04-25T09:43:52Z</time></trkpt><trkpt lat="46.59874182931805" lon="26.727365368173277"><ele>318.0</ele><time>2026-04-25T09:43:53Z</time></trkpt><trkpt lat="46.598682030655496" lon="26.72752792739848"><ele>318.0</ele><time>2026-04-25T09:43:55Z</time></trkpt><trkpt lat="46.59864785297456" lon="26.727616077890932"><ele>318.0</ele><time>2026-04-25T09:43:56Z</time></trkpt><trkpt lat="46.59861365602586" lon="26.72770135825429"><ele>318.0</ele><time>2026-04-25T09:43:57Z</time></trkpt><trkpt lat="46.59857821406944" lon="26.727789743497482"><ele>318.6666666666667</ele><time>2026-04-25T09:43:58Z</time></trkpt><trkpt lat="46.59854226703925" lon="26.727880326556814"><ele>319.3333333333333</ele><time>2026-04-25T09:43:59Z</time></trkpt><trkpt lat="46.59850822484471" lon="26.727984823759368"><ele>320.0</ele><time>2026-04-25T09:44:00Z</time></trkpt><trkpt lat="46.59848430402289" lon="26.728075631740726"><ele>320.66666666666663</ele><time>2026-04-25T09:44:01Z</time></trkpt><trkpt lat="46.59843877577952" lon="26.728229101451966"><ele>321.3333333333333</ele><time>2026-04-25T09:44:03Z</time></trkpt><trkpt lat="46.59838588836478" lon="26.72836346532944"><ele>322.0</ele><time>2026-04-25T09:44:05Z</time></trkpt><trkpt lat="46.59832528599484" lon="26.728477450049503"><ele>322.0</ele><time>2026-04-25T09:44:07Z</time></trkpt><trkpt lat="46.59824337074024" lon="26.728513081937145"><ele>322.0</ele><time>2026-04-25T09:44:09Z</time></trkpt><trkpt lat="46.598160501445605" lon="26.728571288865297"><ele>322.0</ele><time>2026-04-25T09:44:11Z</time></trkpt><trkpt lat="46.598064701502565" lon="26.728522477944228"><ele>322.0</ele><time>2026-04-25T09:44:13Z</time></trkpt><trkpt lat="46.59795914869416" lon="26.728477713005123"><ele>322.0</ele><time>2026-04-25T09:44:15Z</time></trkpt><trkpt lat="46.59792428558531" lon="26.728392970256987"><ele>322.0</ele><time>2026-04-25T09:44:16Z</time></trkpt><trkpt lat="46.59783711045379" lon="26.728292397049376"><ele>322.0</ele><time>2026-04-25T09:44:18Z</time></trkpt><trkpt lat="46.59782405479378" lon="26.728199626226843"><ele>322.0</ele><time>2026-04-25T09:44:19Z</time></trkpt><trkpt lat="46.5977593272566" lon="26.728068355029695"><ele>322.0</ele><time>2026-04-25T09:44:21Z</time></trkpt><trkpt lat="46.59766477046611" lon="26.728037129365777"><ele>322.0</ele><time>2026-04-25T09:44:22Z</time></trkpt><trkpt lat="46.59754372323088" lon="26.72800632308717"><ele>322.0</ele><time>2026-04-25T09:44:24Z</time></trkpt><trkpt lat="46.597413175433836" lon="26.72794047252762"><ele>322.0</ele><time>2026-04-25T09:44:26Z</time></trkpt><trkpt lat="46.59731381941583" lon="26.72789886443973"><ele>322.0</ele><time>2026-04-25T09:44:28Z</time></trkpt><trkpt lat="46.59724362308568" lon="26.727920515568538"><ele>322.0</ele><time>2026-04-25T09:44:29Z</time></trkpt><trkpt lat="46.59717798396355" lon="26.727919190204243"><ele>322.0</ele><time>2026-04-25T09:44:30Z</time></trkpt><trkpt lat="46.597071031337286" lon="26.727916284765925"><ele>320.6</ele><time>2026-04-25T09:44:32Z</time></trkpt><trkpt lat="46.59696161286733" lon="26.727910979626305"><ele>319.20000000000005</ele><time>2026-04-25T09:44:34Z</time></trkpt><trkpt lat="46.596864007851764" lon="26.727888755908246"><ele>317.8</ele><time>2026-04-25T09:44:36Z</time></trkpt><trkpt lat="46.59677128397033" lon="26.727967087491926"><ele>316.4</ele><time>2026-04-25T09:44:37.999Z</time></trkpt><trkpt lat="46.59668024636836" lon="26.728097053021344"><ele>315.0</ele><time>2026-04-25T09:44:39.999Z</time></trkpt><trkpt lat="46.59665280487155" lon="26.728194642237913"><ele>315.0</ele><time>2026-04-25T09:44:40.999Z</time></trkpt><trkpt lat="46.59662833734252" lon="26.728292993218872"><ele>315.0</ele><time>2026-04-25T09:44:41.999Z</time></trkpt><trkpt lat="46.59661271292934" lon="26.72838438114636"><ele>315.0</ele><time>2026-04-25T09:44:42.999Z</time></trkpt><trkpt lat="46.5965879195523" lon="26.728480959171"><ele>315.0</ele><time>2026-04-25T09:44:43.999Z</time></trkpt><trkpt lat="46.596562485470045" lon="26.72856711728913"><ele>315.0</ele><time>2026-04-25T09:44:44.999Z</time></trkpt><trkpt lat="46.59651996162454" lon="26.728724732713474"><ele>315.0</ele><time>2026-04-25T09:44:46.999Z</time></trkpt><trkpt lat="46.59646668668013" lon="26.728885147203368"><ele>315.8333333333333</ele><time>2026-04-25T09:44:48.999Z</time></trkpt><trkpt lat="46.596426232344925" lon="26.728984767348933"><ele>316.6666666666667</ele><time>2026-04-25T09:44:49.999Z</time></trkpt><trkpt lat="46.596424348320475" lon="26.729077505113732"><ele>317.5</ele><time>2026-04-25T09:44:50.999Z</time></trkpt><trkpt lat="46.59642222949671" lon="26.729227235631907"><ele>318.33333333333337</ele><time>2026-04-25T09:44:52.999Z</time></trkpt><trkpt lat="46.59639329880674" lon="26.729337036312728"><ele>319.1666666666667</ele><time>2026-04-25T09:44:54.999Z</time></trkpt><trkpt lat="46.59635788413068" lon="26.729417130866693"><ele>320.0</ele><time>2026-04-25T09:44:55.999Z</time></trkpt><trkpt lat="46.5963196977953" lon="26.72950317514666"><ele>321.83333333333337</ele><time>2026-04-25T09:44:56.999Z</time></trkpt><trkpt lat="46.59627612552152" lon="26.729582562245405"><ele>323.6666666666667</ele><time>2026-04-25T09:44:57.999Z</time></trkpt><trkpt lat="46.59623759604786" lon="26.72965700441888"><ele>325.5</ele><time>2026-04-25T09:44:58.999Z</time></trkpt><trkpt lat="46.59615393340758" lon="26.729812097988578"><ele>327.3333333333333</ele><time>2026-04-25T09:45:00.999Z</time></trkpt><trkpt lat="46.5961074578884" lon="26.729898795854925"><ele>329.16666666666663</ele><time>2026-04-25T09:45:01.999Z</time></trkpt><trkpt lat="46.59606413317533" lon="26.72997759434879"><ele>331.0</ele><time>2026-04-25T09:45:02.999Z</time></trkpt><trkpt lat="46.595986306884" lon="26.730118026266776"><ele>328.0</ele><time>2026-04-25T09:45:04.999Z</time></trkpt><trkpt lat="46.59591574688786" lon="26.730198990236584"><ele>325.0</ele><time>2026-04-25T09:45:06.999Z</time></trkpt><trkpt lat="46.59583747426984" lon="26.730267201561958"><ele>322.0</ele><time>2026-04-25T09:45:08.999Z</time></trkpt><trkpt lat="46.59574709477866" lon="26.730357193209432"><ele>319.0</ele><time>2026-04-25T09:45:10.999Z</time></trkpt><trkpt lat="46.595663052534924" lon="26.730439150529126"><ele>316.0</ele><time>2026-04-25T09:45:12.999Z</time></trkpt><trkpt lat="46.595580216927246" lon="26.730535482132478"><ele>316.0</ele><time>2026-04-25T09:45:14.999Z</time></trkpt><trkpt lat="46.595577086845516" lon="26.730646987717307"><ele>316.0</ele><time>2026-04-25T09:45:15.999Z</time></trkpt><trkpt lat="46.595533640827334" lon="26.7308105521918"><ele>316.0</ele><time>2026-04-25T09:45:17.999Z</time></trkpt><trkpt lat="46.59551306281998" lon="26.730928639203853"><ele>316.0</ele><time>2026-04-25T09:45:18.999Z</time></trkpt><trkpt lat="46.59551930124926" lon="26.731117385796853"><ele>316.0</ele><time>2026-04-25T09:45:20.999Z</time></trkpt><trkpt lat="46.59552523307137" lon="26.73128535040601"><ele>315.3333333333333</ele><time>2026-04-25T09:45:22.999Z</time></trkpt><trkpt lat="46.59552799985335" lon="26.731380688599355"><ele>314.66666666666663</ele><time>2026-04-25T09:45:23.999Z</time></trkpt><trkpt lat="46.595531645277305" lon="26.731487095999015"><ele>314.0</ele><time>2026-04-25T09:45:24.999Z</time></trkpt><trkpt lat="46.59556151396316" lon="26.731656418629075"><ele>313.3333333333333</ele><time>2026-04-25T09:45:26.999Z</time></trkpt><trkpt lat="46.59557216261377" lon="26.731813778304776"><ele>312.6666666666667</ele><time>2026-04-25T09:45:28.999Z</time></trkpt><trkpt lat="46.59560367630865" lon="26.73190020751918"><ele>312.0</ele><time>2026-04-25T09:45:29.999Z</time></trkpt><trkpt lat="46.59566693053656" lon="26.732022313126848"><ele>311.6</ele><time>2026-04-25T09:45:31.999Z</time></trkpt><trkpt lat="46.5957314517499" lon="26.732148198211064"><ele>311.2</ele><time>2026-04-25T09:45:33.999Z</time></trkpt><trkpt lat="46.59575885115285" lon="26.73226621913911"><ele>310.8</ele><time>2026-04-25T09:45:35.999Z</time></trkpt><trkpt lat="46.59576389274012" lon="26.73236153912369"><ele>310.4</ele><time>2026-04-25T09:45:37.999Z</time></trkpt><trkpt lat="46.59571921243676" lon="26.732510853596292"><ele>310.0</ele><time>2026-04-25T09:45:39.999Z</time></trkpt><trkpt lat="46.59566343398464" lon="26.732667006895117"><ele>310.0</ele><time>2026-04-25T09:45:41.998Z</time></trkpt><trkpt lat="46.59562644371286" lon="26.732744571618973"><ele>310.0</ele><time>2026-04-25T09:45:42.998Z</time></trkpt><trkpt lat="46.59556551222942" lon="26.732873612533318"><ele>310.0</ele><time>2026-04-25T09:45:44.998Z</time></trkpt><trkpt lat="46.5954768457215" lon="26.73292562312931"><ele>310.0</ele><time>2026-04-25T09:45:46.998Z</time></trkpt><trkpt lat="46.595380127255346" lon="26.733006728074983"><ele>310.0</ele><time>2026-04-25T09:45:48.998Z</time></trkpt><trkpt lat="46.5952652732565" lon="26.73304253410776"><ele>310.0</ele><time>2026-04-25T09:45:50.998Z</time></trkpt><trkpt lat="46.595153741400885" lon="26.73306688759538"><ele>310.0</ele><time>2026-04-25T09:45:52.998Z</time></trkpt><trkpt lat="46.595071328838884" lon="26.733126524302097"><ele>310.0</ele><time>2026-04-25T09:45:54.998Z</time></trkpt><trkpt lat="46.594965551895356" lon="26.733223115969814"><ele>310.0</ele><time>2026-04-25T09:45:57Z</time></trkpt><trkpt lat="46.594864780891605" lon="26.73327501089485"><ele>310.0</ele><time>2026-04-25T09:45:59Z</time></trkpt><trkpt lat="46.59480556571865" lon="26.733317583873585"><ele>310.0</ele><time>2026-04-25T09:46:00Z</time></trkpt><trkpt lat="46.594713236365905" lon="26.733384671013923"><ele>310.0</ele><time>2026-04-25T09:46:02Z</time></trkpt><trkpt lat="46.59463293258545" lon="26.733423124360744"><ele>310.0</ele><time>2026-04-25T09:46:04Z</time></trkpt><trkpt lat="46.59456898061181" lon="26.733477665658803"><ele>310.0</ele><time>2026-04-25T09:46:05Z</time></trkpt><trkpt lat="46.59450407272064" lon="26.733461972172123"><ele>310.0</ele><time>2026-04-25T09:46:06Z</time></trkpt><trkpt lat="46.59443792395283" lon="26.733446344349787"><ele>310.0</ele><time>2026-04-25T09:46:07Z</time></trkpt><trkpt lat="46.59432704696236" lon="26.73341989561117"><ele>311.0</ele><time>2026-04-25T09:46:09Z</time></trkpt><trkpt lat="46.594261239999284" lon="26.73326034059181"><ele>312.0</ele><time>2026-04-25T09:46:10Z</time></trkpt><trkpt lat="46.59420731569301" lon="26.733136453521233"><ele>313.0</ele><time>2026-04-25T09:46:12Z</time></trkpt><trkpt lat="46.59415229593517" lon="26.73303084975562"><ele>314.0</ele><time>2026-04-25T09:46:14Z</time></trkpt><trkpt lat="46.59409035394078" lon="26.73291473340299"><ele>315.0</ele><time>2026-04-25T09:46:16Z</time></trkpt><trkpt lat="46.59401531381734" lon="26.73280122018415"><ele>315.0</ele><time>2026-04-25T09:46:18Z</time></trkpt><trkpt lat="46.59396842631498" lon="26.732730219948085"><ele>315.0</ele><time>2026-04-25T09:46:19Z</time></trkpt><trkpt lat="46.59392377677955" lon="26.732662566678705"><ele>315.0</ele><time>2026-04-25T09:46:20Z</time></trkpt><trkpt lat="46.59382445832519" lon="26.732529548556627"><ele>315.0</ele><time>2026-04-25T09:46:22Z</time></trkpt><trkpt lat="46.593731279794" lon="26.732430524059627"><ele>315.0</ele><time>2026-04-25T09:46:24Z</time></trkpt><trkpt lat="46.59363905725682" lon="26.732347639779974"><ele>313.0</ele><time>2026-04-25T09:46:26Z</time></trkpt><trkpt lat="46.5935507504982" lon="26.732237592906483"><ele>311.0</ele><time>2026-04-25T09:46:28Z</time></trkpt><trkpt lat="46.59346991170474" lon="26.732247435792708"><ele>309.0</ele><time>2026-04-25T09:46:29Z</time></trkpt><trkpt lat="46.59339445276314" lon="26.73222583161464"><ele>307.0</ele><time>2026-04-25T09:46:30Z</time></trkpt><trkpt lat="46.59330853003021" lon="26.732220280265537"><ele>305.0</ele><time>2026-04-25T09:46:31Z</time></trkpt><trkpt lat="46.593238096273176" lon="26.73218508121029"><ele>303.0</ele><time>2026-04-25T09:46:32Z</time></trkpt><trkpt lat="46.59310966675277" lon="26.73218217105003"><ele>303.0</ele><time>2026-04-25T09:46:34Z</time></trkpt><trkpt lat="46.59304032613177" lon="26.732146029722603"><ele>303.0</ele><time>2026-04-25T09:46:35Z</time></trkpt><trkpt lat="46.5929623473694" lon="26.732132136978265"><ele>303.0</ele><time>2026-04-25T09:46:36Z</time></trkpt><trkpt lat="46.59289084524051" lon="26.732119398089104"><ele>303.0</ele><time>2026-04-25T09:46:37Z</time></trkpt><trkpt lat="46.59281525666477" lon="26.732130022710038"><ele>303.0</ele><time>2026-04-25T09:46:38Z</time></trkpt><trkpt lat="46.592696988313385" lon="26.732103437210856"><ele>303.0</ele><time>2026-04-25T09:46:40Z</time></trkpt><trkpt lat="46.59263358644683" lon="26.732094490991305"><ele>302.6666666666667</ele><time>2026-04-25T09:46:41Z</time></trkpt><trkpt lat="46.59251356757183" lon="26.732076151733175"><ele>302.3333333333333</ele><time>2026-04-25T09:46:42.999Z</time></trkpt><trkpt lat="46.59240412698603" lon="26.732023766725053"><ele>302.0</ele><time>2026-04-25T09:46:44.999Z</time></trkpt><trkpt lat="46.592336079423276" lon="26.731993224811518"><ele>301.66666666666663</ele><time>2026-04-25T09:46:45.999Z</time></trkpt><trkpt lat="46.592275702140284" lon="26.731963994416137"><ele>301.3333333333333</ele><time>2026-04-25T09:46:46.999Z</time></trkpt><trkpt lat="46.59221162951624" lon="26.731939457739337"><ele>301.0</ele><time>2026-04-25T09:46:47.999Z</time></trkpt><trkpt lat="46.59214515237703" lon="26.731921829561603"><ele>301.0</ele><time>2026-04-25T09:46:48.999Z</time></trkpt><trkpt lat="46.592034673966715" lon="26.73189027573166"><ele>301.0</ele><time>2026-04-25T09:46:50.999Z</time></trkpt><trkpt lat="46.59195170017335" lon="26.73182169940248"><ele>301.0</ele><time>2026-04-25T09:46:52.999Z</time></trkpt><trkpt lat="46.591863076917434" lon="26.731757309727833"><ele>301.0</ele><time>2026-04-25T09:46:54.999Z</time></trkpt><trkpt lat="46.59181667938863" lon="26.731691226895776"><ele>301.0</ele><time>2026-04-25T09:46:56.999Z</time></trkpt><trkpt lat="46.59173977999748" lon="26.73098439914651"><ele>296.3333333333333</ele><time>2026-04-25T09:47:00.999Z</time></trkpt><trkpt lat="46.59205032547276" lon="26.730954849577188"><ele>291.6666666666667</ele><time>2026-04-25T09:47:03.999Z</time></trkpt><trkpt lat="46.592147099439615" lon="26.730949352563663"><ele>287.0</ele><time>2026-04-25T09:47:05.999Z</time></trkpt><trkpt lat="46.592307576285464" lon="26.7311756453314"><ele>287.0</ele><time>2026-04-25T09:47:08.999Z</time></trkpt><trkpt lat="46.59240888645864" lon="26.731078619689626"><ele>287.0</ele><time>2026-04-25T09:47:10.999Z</time></trkpt><trkpt lat="46.592452323333355" lon="26.731010810352355"><ele>287.0</ele><time>2026-04-25T09:47:11.999Z</time></trkpt><trkpt lat="46.59251264574652" lon="26.7309674663005"><ele>287.0</ele><time>2026-04-25T09:47:12.999Z</time></trkpt><trkpt lat="46.5926171030745" lon="26.730881424451315"><ele>287.0</ele><time>2026-04-25T09:47:14.999Z</time></trkpt><trkpt lat="46.592696497461496" lon="26.730800047651606"><ele>287.0</ele><time>2026-04-25T09:47:16.999Z</time></trkpt><trkpt lat="46.59276381656068" lon="26.730715721409936"><ele>287.0</ele><time>2026-04-25T09:47:17.999Z</time></trkpt><trkpt lat="46.59278258985969" lon="26.730550627427835"><ele>287.0</ele><time>2026-04-25T09:47:19.999Z</time></trkpt><trkpt lat="46.59280217851983" lon="26.730376192324506"><ele>287.0</ele><time>2026-04-25T09:47:21.999Z</time></trkpt><trkpt lat="46.59282014474333" lon="26.73021227101875"><ele>287.0</ele><time>2026-04-25T09:47:23.999Z</time></trkpt><trkpt lat="46.59279905696876" lon="26.730106014192828"><ele>289.0</ele><time>2026-04-25T09:47:24.999Z</time></trkpt><trkpt lat="46.59278090227384" lon="26.72994451455196"><ele>291.0</ele><time>2026-04-25T09:47:26.999Z</time></trkpt><trkpt lat="46.59276209653461" lon="26.72977883096054"><ele>293.0</ele><time>2026-04-25T09:47:28.999Z</time></trkpt><trkpt lat="46.59268225926809" lon="26.729688261979852"><ele>295.0</ele><time>2026-04-25T09:47:29.999Z</time></trkpt><trkpt lat="46.592575428862915" lon="26.7296091582437"><ele>297.0</ele><time>2026-04-25T09:47:31.999Z</time></trkpt><trkpt lat="46.59252543467171" lon="26.729549049460825"><ele>297.0</ele><time>2026-04-25T09:47:32.999Z</time></trkpt><trkpt lat="46.592426954104745" lon="26.72944562175821"><ele>297.0</ele><time>2026-04-25T09:47:34.999Z</time></trkpt><trkpt lat="46.5923016341541" lon="26.729419114744882"><ele>297.0</ele><time>2026-04-25T09:47:36.999Z</time></trkpt><trkpt lat="46.592233128133145" lon="26.729430204551903"><ele>297.0</ele><time>2026-04-25T09:47:37.999Z</time></trkpt><trkpt lat="46.59216462180336" lon="26.729413260689277"><ele>297.0</ele><time>2026-04-25T09:47:38.999Z</time></trkpt><trkpt lat="46.592101376802034" lon="26.72940741562166"><ele>297.0</ele><time>2026-04-25T09:47:39.999Z</time></trkpt><trkpt lat="46.592032026741926" lon="26.729402833320837"><ele>297.0</ele><time>2026-04-25T09:47:40.999Z</time></trkpt><trkpt lat="46.591930779645196" lon="26.729396070138986"><ele>297.0</ele><time>2026-04-25T09:47:42.999Z</time></trkpt><trkpt lat="46.59177501237586" lon="26.72936075036442"><ele>297.0</ele><time>2026-04-25T09:47:44.999Z</time></trkpt><trkpt lat="46.59186230404942" lon="26.729166806233536"><ele>296.8</ele><time>2026-04-25T09:47:46.998Z</time></trkpt><trkpt lat="46.59188780119803" lon="26.72908066275135"><ele>296.6</ele><time>2026-04-25T09:47:47.998Z</time></trkpt><trkpt lat="46.59193228737748" lon="26.728929300693338"><ele>296.40000000000003</ele><time>2026-04-25T09:47:49.998Z</time></trkpt><trkpt lat="46.59198006497748" lon="26.7287651855328"><ele>296.2</ele><time>2026-04-25T09:47:51.998Z</time></trkpt><trkpt lat="46.59200664335173" lon="26.728674746563755"><ele>296.0</ele><time>2026-04-25T09:47:52.998Z</time></trkpt><trkpt lat="46.59205151038357" lon="26.72852369980167"><ele>296.0</ele><time>2026-04-25T09:47:54.998Z</time></trkpt><trkpt lat="46.5921096494806" lon="26.728359354075394"><ele>296.0</ele><time>2026-04-25T09:47:56.998Z</time></trkpt><trkpt lat="46.59213217506446" lon="26.728270359767507"><ele>296.0</ele><time>2026-04-25T09:47:57.998Z</time></trkpt><trkpt lat="46.59216635433124" lon="26.72817896619609"><ele>296.0</ele><time>2026-04-25T09:47:58.998Z</time></trkpt><trkpt lat="46.592229619197106" lon="26.728025084065894"><ele>296.0</ele><time>2026-04-25T09:48:00.998Z</time></trkpt><trkpt lat="46.59227018608622" lon="26.727892200475342"><ele>296.0</ele><time>2026-04-25T09:48:03Z</time></trkpt><trkpt lat="46.59229252311491" lon="26.727752840811934"><ele>296.0</ele><time>2026-04-25T09:48:05Z</time></trkpt><trkpt lat="46.59232154131633" lon="26.727622839767"><ele>296.0</ele><time>2026-04-25T09:48:07Z</time></trkpt><trkpt lat="46.592335618436096" lon="26.727487283957093"><ele>296.0</ele><time>2026-04-25T09:48:09Z</time></trkpt><trkpt lat="46.59226629068258" lon="26.727349867636914"><ele>296.0</ele><time>2026-04-25T09:48:11Z</time></trkpt><trkpt lat="46.592202553392916" lon="26.72724385379233"><ele>295.6</ele><time>2026-04-25T09:48:13Z</time></trkpt><trkpt lat="46.59213157446021" lon="26.727257212361263"><ele>295.20000000000005</ele><time>2026-04-25T09:48:14Z</time></trkpt><trkpt lat="46.592012658607274" lon="26.7272186935056"><ele>294.79999999999995</ele><time>2026-04-25T09:48:16Z</time></trkpt><trkpt lat="46.59191244514933" lon="26.727250391123906"><ele>294.4</ele><time>2026-04-25T09:48:18Z</time></trkpt><trkpt lat="46.591814643436706" lon="26.72728182001091"><ele>294.0</ele><time>2026-04-25T09:48:20Z</time></trkpt><trkpt lat="46.59173343716157" lon="26.727276916786405"><ele>296.8</ele><time>2026-04-25T09:48:22Z</time></trkpt><trkpt lat="46.59162936748669" lon="26.727220142348763"><ele>299.59999999999997</ele><time>2026-04-25T09:48:24Z</time></trkpt><trkpt lat="46.591524757321714" lon="26.72717864035407"><ele>302.4</ele><time>2026-04-25T09:48:26Z</time></trkpt><trkpt lat="46.59141948512993" lon="26.727114306093373"><ele>305.2</ele><time>2026-04-25T09:48:28Z</time></trkpt><trkpt lat="46.591319810276495" lon="26.727042700272847"><ele>308.0</ele><time>2026-04-25T09:48:30Z</time></trkpt><trkpt lat="46.59120075726676" lon="26.727023149907755"><ele>310.6</ele><time>2026-04-25T09:48:32Z</time></trkpt><trkpt lat="46.59108694874299" lon="26.727026309872713"><ele>313.20000000000005</ele><time>2026-04-25T09:48:34Z</time></trkpt><trkpt lat="46.590980515133246" lon="26.727034467886767"><ele>315.8</ele><time>2026-04-25T09:48:36Z</time></trkpt><trkpt lat="46.59088632062689" lon="26.72704659151131"><ele>318.40000000000003</ele><time>2026-04-25T09:48:38Z</time></trkpt><trkpt lat="46.590781928232126" lon="26.727005596949812"><ele>321.0</ele><time>2026-04-25T09:48:40Z</time></trkpt><trkpt lat="46.59067232380499" lon="26.726949031452282"><ele>318.8</ele><time>2026-04-25T09:48:42Z</time></trkpt><trkpt lat="46.59057780862166" lon="26.72685577754242"><ele>316.6</ele><time>2026-04-25T09:48:44Z</time></trkpt><trkpt lat="46.59048192307663" lon="26.726762872583222"><ele>314.4</ele><time>2026-04-25T09:48:46Z</time></trkpt><trkpt lat="46.590414645802745" lon="26.726645887261533"><ele>312.2</ele><time>2026-04-25T09:48:48Z</time></trkpt><trkpt lat="46.59031852843931" lon="26.726601982269727"><ele>310.0</ele><time>2026-04-25T09:48:49.999Z</time></trkpt><trkpt lat="46.59020444934504" lon="26.72665439566286"><ele>310.0</ele><time>2026-04-25T09:48:51.999Z</time></trkpt><trkpt lat="46.590113060074316" lon="26.726752368008466"><ele>310.0</ele><time>2026-04-25T09:48:53.999Z</time></trkpt><trkpt lat="46.590047404583125" lon="26.726844669809783"><ele>310.0</ele><time>2026-04-25T09:48:55.999Z</time></trkpt><trkpt lat="46.58996634842988" lon="26.726958622670065"><ele>310.0</ele><time>2026-04-25T09:48:57.999Z</time></trkpt><trkpt lat="46.58986487297497" lon="26.727010204577777"><ele>310.0</ele><time>2026-04-25T09:48:59.999Z</time></trkpt><trkpt lat="46.589799422220686" lon="26.72704485500885"><ele>312.0</ele><time>2026-04-25T09:49:00.999Z</time></trkpt><trkpt lat="46.58973518593754" lon="26.727081452436693"><ele>314.0</ele><time>2026-04-25T09:49:01.999Z</time></trkpt><trkpt lat="46.589663153732054" lon="26.72710933451192"><ele>316.0</ele><time>2026-04-25T09:49:02.999Z</time></trkpt><trkpt lat="46.5895940255254" lon="26.727136092463233"><ele>318.0</ele><time>2026-04-25T09:49:03.999Z</time></trkpt><trkpt lat="46.589518653637406" lon="26.727165095685912"><ele>320.0</ele><time>2026-04-25T09:49:04.999Z</time></trkpt><trkpt lat="46.58941498026208" lon="26.72720487249007"><ele>322.0</ele><time>2026-04-25T09:49:06.999Z</time></trkpt><trkpt lat="46.58931061078729" lon="26.727245530410016"><ele>323.40000000000003</ele><time>2026-04-25T09:49:08.999Z</time></trkpt><trkpt lat="46.589191961136024" lon="26.727213802682286"><ele>324.8</ele><time>2026-04-25T09:49:10.999Z</time></trkpt><trkpt lat="46.58910872573006" lon="26.727212310977407"><ele>326.2</ele><time>2026-04-25T09:49:11.999Z</time></trkpt><trkpt lat="46.58904790967429" lon="26.727165393346375"><ele>327.6</ele><time>2026-04-25T09:49:12.999Z</time></trkpt><trkpt lat="46.588939045194905" lon="26.727080212801503"><ele>329.0</ele><time>2026-04-25T09:49:14.999Z</time></trkpt><trkpt lat="46.58886170304362" lon="26.7270154430954"><ele>329.0</ele><time>2026-04-25T09:49:16.999Z</time></trkpt><trkpt lat="46.5887512917322" lon="26.726922448426883"><ele>329.0</ele><time>2026-04-25T09:49:18.999Z</time></trkpt><trkpt lat="46.58864616150956" lon="26.72683895521039"><ele>329.0</ele><time>2026-04-25T09:49:20.999Z</time></trkpt><trkpt lat="46.58855425968036" lon="26.72675536172744"><ele>329.0</ele><time>2026-04-25T09:49:22.999Z</time></trkpt><trkpt lat="46.58845627526836" lon="26.726780557895285"><ele>329.2</ele><time>2026-04-25T09:49:24.999Z</time></trkpt><trkpt lat="46.58835042550562" lon="26.726867364773195"><ele>329.4</ele><time>2026-04-25T09:49:26.999Z</time></trkpt><trkpt lat="46.58824221522242" lon="26.726972455099187"><ele>329.6</ele><time>2026-04-25T09:49:28.999Z</time></trkpt><trkpt lat="46.588200440763686" lon="26.727049330782314"><ele>329.8</ele><time>2026-04-25T09:49:29.999Z</time></trkpt><trkpt lat="46.58810076185303" lon="26.7271507532054"><ele>330.0</ele><time>2026-04-25T09:49:31.999Z</time></trkpt><trkpt lat="46.58806273974117" lon="26.727230497396903"><ele>330.0</ele><time>2026-04-25T09:49:32.999Z</time></trkpt><trkpt lat="46.587954839854554" lon="26.727299768910374"><ele>330.0</ele><time>2026-04-25T09:49:34.999Z</time></trkpt><trkpt lat="46.58789095880731" lon="26.72729879210642"><ele>330.0</ele><time>2026-04-25T09:49:35.999Z</time></trkpt><trkpt lat="46.58782282388015" lon="26.72728287792852"><ele>330.0</ele><time>2026-04-25T09:49:36.999Z</time></trkpt><trkpt lat="46.58770565068768" lon="26.727262049321006"><ele>330.0</ele><time>2026-04-25T09:49:38.999Z</time></trkpt><trkpt lat="46.58762162311604" lon="26.727221919986306"><ele>330.5</ele><time>2026-04-25T09:49:40.999Z</time></trkpt><trkpt lat="46.58754241784268" lon="26.727175538273045"><ele>331.0</ele><time>2026-04-25T09:49:42.999Z</time></trkpt><trkpt lat="46.587455773508886" lon="26.7271520123177"><ele>331.5</ele><time>2026-04-25T09:49:44.999Z</time></trkpt><trkpt lat="46.58738977693572" lon="26.727138471523986"><ele>332.0</ele><time>2026-04-25T09:49:45.999Z</time></trkpt><trkpt lat="46.58731439310289" lon="26.727152813218805"><ele>332.5</ele><time>2026-04-25T09:49:47.999Z</time></trkpt><trkpt lat="46.58721822738352" lon="26.727272951140844"><ele>333.0</ele><time>2026-04-25T09:49:49.999Z</time></trkpt><trkpt lat="46.58716794707666" lon="26.727350927215344"><ele>333.0</ele><time>2026-04-25T09:49:51.999Z</time></trkpt><trkpt lat="46.58709324855656" lon="26.72740131715124"><ele>333.0</ele><time>2026-04-25T09:49:53.998Z</time></trkpt><trkpt lat="46.58700212142345" lon="26.72744218721325"><ele>333.0</ele><time>2026-04-25T09:49:55.998Z</time></trkpt><trkpt lat="46.586889526251554" lon="26.72741099991036"><ele>333.0</ele><time>2026-04-25T09:49:57.998Z</time></trkpt><trkpt lat="46.586833361475264" lon="26.727368741148837"><ele>333.0</ele><time>2026-04-25T09:49:58.998Z</time></trkpt><trkpt lat="46.586704585196564" lon="26.72737758647349"><ele>332.59999999999997</ele><time>2026-04-25T09:50:00.998Z</time></trkpt><trkpt lat="46.58660563845013" lon="26.72741304391233"><ele>332.2</ele><time>2026-04-25T09:50:02.998Z</time></trkpt><trkpt lat="46.586476595153705" lon="26.727392446308343"><ele>331.8</ele><time>2026-04-25T09:50:04.998Z</time></trkpt><trkpt lat="46.58641615565874" lon="26.727366291703845"><ele>331.4</ele><time>2026-04-25T09:50:05.998Z</time></trkpt><trkpt lat="46.586309070776494" lon="26.72732748432206"><ele>331.0</ele><time>2026-04-25T09:50:07.998Z</time></trkpt><trkpt lat="46.58619319572586" lon="26.727346245413685"><ele>332.20000000000005</ele><time>2026-04-25T09:50:10Z</time></trkpt><trkpt lat="46.586125576606115" lon="26.727339236115412"><ele>333.40000000000003</ele><time>2026-04-25T09:50:11Z</time></trkpt><trkpt lat="46.586005010479575" lon="26.727358128142118"><ele>334.6</ele><time>2026-04-25T09:50:13Z</time></trkpt><trkpt lat="46.58590351108944" lon="26.727390062331967"><ele>335.8</ele><time>2026-04-25T09:50:15Z</time></trkpt><trkpt lat="46.58580152091914" lon="26.72735790943461"><ele>337.0</ele><time>2026-04-25T09:50:17Z</time></trkpt><trkpt lat="46.58569979893165" lon="26.727247968225537"><ele>337.0</ele><time>2026-04-25T09:50:19Z</time></trkpt><trkpt lat="46.585620347663024" lon="26.72709050076836"><ele>337.0</ele><time>2026-04-25T09:50:21Z</time></trkpt><trkpt lat="46.585573427023874" lon="26.726976398812106"><ele>337.0</ele><time>2026-04-25T09:50:22Z</time></trkpt><trkpt lat="46.585546265230356" lon="26.726883772593272"><ele>337.0</ele><time>2026-04-25T09:50:23Z</time></trkpt><trkpt lat="46.585519681753354" lon="26.726790712440028"><ele>337.0</ele><time>2026-04-25T09:50:24Z</time></trkpt><trkpt lat="46.58550802945478" lon="26.72666777750055"><ele>337.0</ele><time>2026-04-25T09:50:25Z</time></trkpt><trkpt lat="46.58546947268948" lon="26.72650340182368"><ele>337.0</ele><time>2026-04-25T09:50:27Z</time></trkpt><trkpt lat="46.58543200965514" lon="26.726401385334952"><ele>337.0</ele><time>2026-04-25T09:50:28Z</time></trkpt><trkpt lat="46.585398590700905" lon="26.726310748520774"><ele>337.0</ele><time>2026-04-25T09:50:29Z</time></trkpt><trkpt lat="46.585341701771895" lon="26.726159047932175"><ele>337.0</ele><time>2026-04-25T09:50:31Z</time></trkpt><trkpt lat="46.58528567445077" lon="26.725994367147337"><ele>337.0</ele><time>2026-04-25T09:50:33Z</time></trkpt><trkpt lat="46.585237582440044" lon="26.725930256357692"><ele>337.0</ele><time>2026-04-25T09:50:34Z</time></trkpt><trkpt lat="46.58520042083127" lon="26.725767585329866"><ele>337.0</ele><time>2026-04-25T09:50:36Z</time></trkpt><trkpt lat="46.585155480369224" lon="26.725688690420437"><ele>337.0</ele><time>2026-04-25T09:50:37Z</time></trkpt><trkpt lat="46.5851320478305" lon="26.725592649020395"><ele>337.0</ele><time>2026-04-25T09:50:38Z</time></trkpt><trkpt lat="46.58510439822059" lon="26.72550194274413"><ele>337.0</ele><time>2026-04-25T09:50:39Z</time></trkpt><trkpt lat="46.58507540503316" lon="26.72541118794322"><ele>337.0</ele><time>2026-04-25T09:50:40Z</time></trkpt><trkpt lat="46.5850103572918" lon="26.725282676905273"><ele>337.0</ele><time>2026-04-25T09:50:42Z</time></trkpt><trkpt lat="46.58493726862071" lon="26.725220904392916"><ele>332.0</ele><time>2026-04-25T09:50:44Z</time></trkpt></trkseg><trkseg><trkpt lat="46.5848485566052" lon="26.725228887321336"><ele>331.83333333333337</ele><time>2026-04-25T10:44:07.999Z</time></trkpt><trkpt lat="46.584792028955476" lon="26.725285779370278"><ele>331.6666666666667</ele><time>2026-04-25T10:44:09.999Z</time></trkpt><trkpt lat="46.58471186479859" lon="26.72534768617593"><ele>331.5</ele><time>2026-04-25T10:44:12.999Z</time></trkpt><trkpt lat="46.58464996045193" lon="26.725417736576368"><ele>331.3333333333333</ele><time>2026-04-25T10:44:14.999Z</time></trkpt><trkpt lat="46.58457760298303" lon="26.725485719813324"><ele>331.16666666666663</ele><time>2026-04-25T10:44:17.999Z</time></trkpt><trkpt lat="46.58452049408236" lon="26.725554550606244"><ele>331.0</ele><time>2026-04-25T10:44:20.999Z</time></trkpt><trkpt lat="46.584466449851774" lon="26.725607344580048"><ele>331.0</ele><time>2026-04-25T10:44:22.999Z</time></trkpt><trkpt lat="46.58439232360225" lon="26.725699672589535"><ele>331.0</ele><time>2026-04-25T10:44:25.999Z</time></trkpt><trkpt lat="46.584328030819634" lon="26.725784448296224"><ele>331.0</ele><time>2026-04-25T10:44:27.999Z</time></trkpt><trkpt lat="46.58427678617801" lon="26.72587282873046"><ele>331.0</ele><time>2026-04-25T10:44:29.999Z</time></trkpt><trkpt lat="46.58422343842842" lon="26.725987344412143"><ele>331.0</ele><time>2026-04-25T10:44:32.999Z</time></trkpt><trkpt lat="46.58419117656834" lon="26.726081164489553"><ele>331.0</ele><time>2026-04-25T10:44:34.999Z</time></trkpt><trkpt lat="46.58414950056082" lon="26.726210000565388"><ele>332.20000000000005</ele><time>2026-04-25T10:44:37.999Z</time></trkpt><trkpt lat="46.58410770859645" lon="26.72635358460017"><ele>333.40000000000003</ele><time>2026-04-25T10:44:39.999Z</time></trkpt><trkpt lat="46.58404786066345" lon="26.726492271451818"><ele>334.6</ele><time>2026-04-25T10:44:41.999Z</time></trkpt><trkpt lat="46.58393117019661" lon="26.72646581385608"><ele>335.8</ele><time>2026-04-25T10:44:42.999Z</time></trkpt><trkpt lat="46.58387141234748" lon="26.726568150734"><ele>337.0</ele><time>2026-04-25T10:44:44.999Z</time></trkpt><trkpt lat="46.5838052798964" lon="26.72666301787567"><ele>337.0</ele><time>2026-04-25T10:44:46.999Z</time></trkpt><trkpt lat="46.583747454700635" lon="26.7267479284688"><ele>337.0</ele><time>2026-04-25T10:44:48.999Z</time></trkpt><trkpt lat="46.58366506590157" lon="26.726830316992487"><ele>337.0</ele><time>2026-04-25T10:44:50.999Z</time></trkpt><trkpt lat="46.58358319295149" lon="26.72688692949744"><ele>337.0</ele><time>2026-04-25T10:44:52.999Z</time></trkpt><trkpt lat="46.58347980804598" lon="26.72686824495773"><ele>337.0</ele><time>2026-04-25T10:44:54.999Z</time></trkpt><trkpt lat="46.583395186515425" lon="26.726902554010685"><ele>337.40000000000003</ele><time>2026-04-25T10:44:56.999Z</time></trkpt><trkpt lat="46.58330978330608" lon="26.726891218010103"><ele>337.8</ele><time>2026-04-25T10:44:58.999Z</time></trkpt><trkpt lat="46.58322486932354" lon="26.726903654382976"><ele>338.2</ele><time>2026-04-25T10:45:00.999Z</time></trkpt><trkpt lat="46.583142388562" lon="26.726966204599016"><ele>338.6</ele><time>2026-04-25T10:45:02.999Z</time></trkpt><trkpt lat="46.58304811017024" lon="26.726992088650796"><ele>339.0</ele><time>2026-04-25T10:45:04.999Z</time></trkpt><trkpt lat="46.5829585439927" lon="26.726990334542858"><ele>339.0</ele><time>2026-04-25T10:45:06.999Z</time></trkpt><trkpt lat="46.582857320695624" lon="26.727025275625202"><ele>339.0</ele><time>2026-04-25T10:45:08.999Z</time></trkpt><trkpt lat="46.58274134077771" lon="26.72702752520616"><ele>339.0</ele><time>2026-04-25T10:45:10.999Z</time></trkpt><trkpt lat="46.58265332527451" lon="26.726964076076797"><ele>339.0</ele><time>2026-04-25T10:45:12.999Z</time></trkpt><trkpt lat="46.58257090562043" lon="26.72690964583106"><ele>339.0</ele><time>2026-04-25T10:45:14.999Z</time></trkpt><trkpt lat="46.582489905161545" lon="26.726894160501608"><ele>336.1666666666667</ele><time>2026-04-25T10:45:16.999Z</time></trkpt><trkpt lat="46.58240174269776" lon="26.72684292159761"><ele>333.3333333333333</ele><time>2026-04-25T10:45:18.999Z</time></trkpt><trkpt lat="46.582339199017916" lon="26.72677286261795"><ele>330.5</ele><time>2026-04-25T10:45:20.999Z</time></trkpt><trkpt lat="46.58226790530971" lon="26.726708502485955"><ele>327.66666666666663</ele><time>2026-04-25T10:45:22.999Z</time></trkpt><trkpt lat="46.582194026160856" lon="26.726654765073643"><ele>324.8333333333333</ele><time>2026-04-25T10:45:24.999Z</time></trkpt><trkpt lat="46.58211229580072" lon="26.72663122832629"><ele>322.0</ele><time>2026-04-25T10:45:26.999Z</time></trkpt><trkpt lat="46.58203628885083" lon="26.72656733731337"><ele>323.3333333333333</ele><time>2026-04-25T10:45:28.999Z</time></trkpt><trkpt lat="46.581954860558575" lon="26.726545820567534"><ele>324.66666666666663</ele><time>2026-04-25T10:45:30.999Z</time></trkpt><trkpt lat="46.58188434951153" lon="26.72648820918354"><ele>326.0</ele><time>2026-04-25T10:45:32.999Z</time></trkpt><trkpt lat="46.58182028113948" lon="26.72644468362407"><ele>327.3333333333333</ele><time>2026-04-25T10:45:34.999Z</time></trkpt><trkpt lat="46.58179297819705" lon="26.72633637464413"><ele>328.6666666666667</ele><time>2026-04-25T10:45:36.999Z</time></trkpt><trkpt lat="46.581734734701534" lon="26.726227154015234"><ele>330.0</ele><time>2026-04-25T10:45:38.999Z</time></trkpt><trkpt lat="46.58170478888665" lon="26.726124618833516"><ele>328.5</ele><time>2026-04-25T10:45:40.999Z</time></trkpt><trkpt lat="46.58167977410391" lon="26.726028742120626"><ele>327.0</ele><time>2026-04-25T10:45:42.999Z</time></trkpt><trkpt lat="46.581643449202836" lon="26.725905765664468"><ele>325.5</ele><time>2026-04-25T10:45:44.999Z</time></trkpt><trkpt lat="46.581636023893026" lon="26.725781136398183"><ele>324.0</ele><time>2026-04-25T10:45:46.999Z</time></trkpt><trkpt lat="46.58161497375865" lon="26.725645470303355"><ele>322.5</ele><time>2026-04-25T10:45:48.999Z</time></trkpt><trkpt lat="46.58158481694882" lon="26.725536682092482"><ele>321.0</ele><time>2026-04-25T10:45:50.999Z</time></trkpt><trkpt lat="46.58155254966057" lon="26.72544521191973"><ele>321.0</ele><time>2026-04-25T10:45:52.999Z</time></trkpt><trkpt lat="46.58147035919996" lon="26.725391428527853"><ele>321.0</ele><time>2026-04-25T10:45:54.999Z</time></trkpt><trkpt lat="46.58139354121543" lon="26.725350835148685"><ele>321.0</ele><time>2026-04-25T10:45:56.999Z</time></trkpt><trkpt lat="46.58130957631241" lon="26.72533805402444"><ele>321.0</ele><time>2026-04-25T10:45:58.999Z</time></trkpt><trkpt lat="46.58122107508481" lon="26.725345092860643"><ele>321.0</ele><time>2026-04-25T10:46:00.999Z</time></trkpt><trkpt lat="46.58114825590347" lon="26.72524867381325"><ele>321.0</ele><time>2026-04-25T10:46:02.998Z</time></trkpt><trkpt lat="46.5811262760931" lon="26.725106799725292"><ele>322.20000000000005</ele><time>2026-04-25T10:46:04.998Z</time></trkpt><trkpt lat="46.58116347457768" lon="26.72498960172104"><ele>323.40000000000003</ele><time>2026-04-25T10:46:06.998Z</time></trkpt><trkpt lat="46.581169357970936" lon="26.72483843149903"><ele>324.6</ele><time>2026-04-25T10:46:08.999Z</time></trkpt><trkpt lat="46.58116880376963" lon="26.72468021708568"><ele>325.8</ele><time>2026-04-25T10:46:10.999Z</time></trkpt><trkpt lat="46.581184719464595" lon="26.724539771817895"><ele>327.0</ele><time>2026-04-25T10:46:12.999Z</time></trkpt><trkpt lat="46.58118954253054" lon="26.724393292653392"><ele>325.6</ele><time>2026-04-25T10:46:14.999Z</time></trkpt><trkpt lat="46.5811462668101" lon="26.724269412686088"><ele>324.20000000000005</ele><time>2026-04-25T10:46:16.999Z</time></trkpt><trkpt lat="46.58111237563764" lon="26.72413381001607"><ele>322.8</ele><time>2026-04-25T10:46:18.999Z</time></trkpt><trkpt lat="46.58109086198973" lon="26.724009439896605"><ele>321.4</ele><time>2026-04-25T10:46:20.999Z</time></trkpt><trkpt lat="46.581031389003805" lon="26.7238745809615"><ele>320.0</ele><time>2026-04-25T10:46:22.999Z</time></trkpt><trkpt lat="46.58097127693506" lon="26.723744713854334"><ele>320.0</ele><time>2026-04-25T10:46:24.999Z</time></trkpt><trkpt lat="46.58092831911509" lon="26.72362184237383"><ele>320.0</ele><time>2026-04-25T10:46:26.999Z</time></trkpt><trkpt lat="46.58091903082158" lon="26.723495055303726"><ele>320.0</ele><time>2026-04-25T10:46:28.999Z</time></trkpt><trkpt lat="46.58090093366652" lon="26.723378081614285"><ele>320.0</ele><time>2026-04-25T10:46:30.999Z</time></trkpt><trkpt lat="46.58096629867494" lon="26.723350140008122"><ele>320.0</ele><time>2026-04-25T10:46:31.999Z</time></trkpt><trkpt lat="46.58103712446671" lon="26.72329072485881"><ele>320.0</ele><time>2026-04-25T10:46:33.999Z</time></trkpt><trkpt lat="46.581132304485386" lon="26.723199266429383"><ele>316.6</ele><time>2026-04-25T10:46:35.999Z</time></trkpt><trkpt lat="46.58121882226961" lon="26.723115903115076"><ele>313.2</ele><time>2026-04-25T10:46:37.999Z</time></trkpt><trkpt lat="46.581296868306126" lon="26.722971497695216"><ele>309.8</ele><time>2026-04-25T10:46:39.999Z</time></trkpt><trkpt lat="46.58136965345367" lon="26.722835932577656"><ele>306.4</ele><time>2026-04-25T10:46:41.999Z</time></trkpt><trkpt lat="46.58142872665587" lon="26.722728036823465"><ele>303.0</ele><time>2026-04-25T10:46:43.999Z</time></trkpt><trkpt lat="46.5813958894106" lon="26.722582509030172"><ele>303.0</ele><time>2026-04-25T10:46:44.999Z</time></trkpt><trkpt lat="46.58139177464367" lon="26.722423802843295"><ele>303.0</ele><time>2026-04-25T10:46:46.999Z</time></trkpt><trkpt lat="46.581380015168214" lon="26.72227387878931"><ele>303.0</ele><time>2026-04-25T10:46:48.999Z</time></trkpt><trkpt lat="46.581356295660335" lon="26.722111695589554"><ele>303.0</ele><time>2026-04-25T10:46:50.999Z</time></trkpt><trkpt lat="46.581332695801585" lon="26.72195329774263"><ele>303.0</ele><time>2026-04-25T10:46:52.999Z</time></trkpt><trkpt lat="46.581331459180504" lon="26.72183416567236"><ele>304.8</ele><time>2026-04-25T10:46:54.999Z</time></trkpt><trkpt lat="46.581327733025944" lon="26.721670247075096"><ele>306.6</ele><time>2026-04-25T10:46:56.999Z</time></trkpt><trkpt lat="46.581326864996285" lon="26.72157709386665"><ele>308.4</ele><time>2026-04-25T10:46:57.999Z</time></trkpt><trkpt lat="46.581325836429805" lon="26.72148285371174"><ele>310.2</ele><time>2026-04-25T10:46:58.999Z</time></trkpt><trkpt lat="46.58132339648651" lon="26.72130729749201"><ele>312.0</ele><time>2026-04-25T10:47:00.999Z</time></trkpt><trkpt lat="46.58125457069905" lon="26.721197114730778"><ele>312.0</ele><time>2026-04-25T10:47:01.999Z</time></trkpt><trkpt lat="46.58118533603624" lon="26.721065903789263"><ele>312.0</ele><time>2026-04-25T10:47:03.999Z</time></trkpt><trkpt lat="46.581135833448265" lon="26.720932578128952"><ele>312.0</ele><time>2026-04-25T10:47:05.999Z</time></trkpt><trkpt lat="46.581065191801144" lon="26.720935626779845"><ele>312.0</ele><time>2026-04-25T10:47:06.999Z</time></trkpt><trkpt lat="46.580958598968444" lon="26.720855423339152"><ele>312.0</ele><time>2026-04-25T10:47:08.999Z</time></trkpt><trkpt lat="46.580859556073" lon="26.720760032523383"><ele>314.8</ele><time>2026-04-25T10:47:10.999Z</time></trkpt><trkpt lat="46.58079783634676" lon="26.720726705295082"><ele>317.6</ele><time>2026-04-25T10:47:11.999Z</time></trkpt><trkpt lat="46.5806795334167" lon="26.720663077646783"><ele>320.40000000000003</ele><time>2026-04-25T10:47:13.999Z</time></trkpt><trkpt lat="46.5805604111289" lon="26.720598929281827"><ele>323.2</ele><time>2026-04-25T10:47:15.999Z</time></trkpt><trkpt lat="46.5804460644221" lon="26.720537341018105"><ele>326.0</ele><time>2026-04-25T10:47:17.999Z</time></trkpt><trkpt lat="46.5803641411867" lon="26.720502112319455"><ele>324.40000000000003</ele><time>2026-04-25T10:47:19.999Z</time></trkpt><trkpt lat="46.58027025639423" lon="26.720443034304587"><ele>322.8</ele><time>2026-04-25T10:47:21.999Z</time></trkpt><trkpt lat="46.58019868488618" lon="26.720377981864257"><ele>321.20000000000005</ele><time>2026-04-25T10:47:23.999Z</time></trkpt><trkpt lat="46.58011060086325" lon="26.72031702220466"><ele>319.6</ele><time>2026-04-25T10:47:25.999Z</time></trkpt><trkpt lat="46.58007546990172" lon="26.720197394611116"><ele>318.0</ele><time>2026-04-25T10:47:27.999Z</time></trkpt><trkpt lat="46.58003202918246" lon="26.72009821145239"><ele>318.0</ele><time>2026-04-25T10:47:29.999Z</time></trkpt><trkpt lat="46.579971103584896" lon="26.720021255587447"><ele>318.0</ele><time>2026-04-25T10:47:31.999Z</time></trkpt><trkpt lat="46.579915391279826" lon="26.71995436095804"><ele>318.0</ele><time>2026-04-25T10:47:33.999Z</time></trkpt><trkpt lat="46.57980319433997" lon="26.719979603043853"><ele>318.0</ele><time>2026-04-25T10:47:35.999Z</time></trkpt><trkpt lat="46.57969936300393" lon="26.719990571398764"><ele>318.0</ele><time>2026-04-25T10:47:38Z</time></trkpt><trkpt lat="46.57960165575502" lon="26.720003052035775"><ele>317.0</ele><time>2026-04-25T10:47:40Z</time></trkpt><trkpt lat="46.579505097593874" lon="26.720016300078118"><ele>316.0</ele><time>2026-04-25T10:47:42Z</time></trkpt><trkpt lat="46.5793901392135" lon="26.72003130528544"><ele>315.0</ele><time>2026-04-25T10:47:44Z</time></trkpt><trkpt lat="46.579298688972536" lon="26.720043764803847"><ele>314.0</ele><time>2026-04-25T10:47:46Z</time></trkpt><trkpt lat="46.579225705894025" lon="26.71998299167987"><ele>313.0</ele><time>2026-04-25T10:47:48Z</time></trkpt><trkpt lat="46.579149001394676" lon="26.719955665061732"><ele>313.0</ele><time>2026-04-25T10:47:50Z</time></trkpt><trkpt lat="46.579058970160446" lon="26.71988480914423"><ele>313.0</ele><time>2026-04-25T10:47:52Z</time></trkpt><trkpt lat="46.578964867758096" lon="26.71980991425704"><ele>313.0</ele><time>2026-04-25T10:47:54Z</time></trkpt><trkpt lat="46.578889414071824" lon="26.71974829158689"><ele>313.0</ele><time>2026-04-25T10:47:56Z</time></trkpt><trkpt lat="46.578807130529626" lon="26.719677920212344"><ele>313.0</ele><time>2026-04-25T10:47:58Z</time></trkpt><trkpt lat="46.57873619304251" lon="26.71960512273822"><ele>313.0</ele><time>2026-04-25T10:48:00Z</time></trkpt><trkpt lat="46.57869796956621" lon="26.719522397412504"><ele>313.0</ele><time>2026-04-25T10:48:01Z</time></trkpt><trkpt lat="46.57863499810397" lon="26.719406441544894"><ele>313.0</ele><time>2026-04-25T10:48:03Z</time></trkpt><trkpt lat="46.5785752382474" lon="26.719307004292716"><ele>313.0</ele><time>2026-04-25T10:48:05Z</time></trkpt><trkpt lat="46.57853693837588" lon="26.7191983510634"><ele>313.0</ele><time>2026-04-25T10:48:07Z</time></trkpt><trkpt lat="46.57848906283214" lon="26.71909692472114"><ele>313.0</ele><time>2026-04-25T10:48:08.998Z</time></trkpt><trkpt lat="46.57843376753358" lon="26.718985077600543"><ele>312.8333333333333</ele><time>2026-04-25T10:48:10.998Z</time></trkpt><trkpt lat="46.578382807882356" lon="26.718877639687037"><ele>312.66666666666663</ele><time>2026-04-25T10:48:12.998Z</time></trkpt><trkpt lat="46.57833593336128" lon="26.718780953858857"><ele>312.5</ele><time>2026-04-25T10:48:14.998Z</time></trkpt><trkpt lat="46.57828769789227" lon="26.71868034855121"><ele>312.3333333333333</ele><time>2026-04-25T10:48:16.999Z</time></trkpt><trkpt lat="46.57824313570607" lon="26.71858801364275"><ele>312.1666666666667</ele><time>2026-04-25T10:48:18.999Z</time></trkpt><trkpt lat="46.578184469246914" lon="26.718503740651254"><ele>312.0</ele><time>2026-04-25T10:48:20.999Z</time></trkpt><trkpt lat="46.57813197852057" lon="26.718397216672834"><ele>309.4</ele><time>2026-04-25T10:48:22.999Z</time></trkpt><trkpt lat="46.57808320543733" lon="26.718289094175063"><ele>306.79999999999995</ele><time>2026-04-25T10:48:24.999Z</time></trkpt><trkpt lat="46.57803553741924" lon="26.718167256326474"><ele>304.2</ele><time>2026-04-25T10:48:26.999Z</time></trkpt><trkpt lat="46.577994312077905" lon="26.718055194525594"><ele>301.59999999999997</ele><time>2026-04-25T10:48:28.999Z</time></trkpt><trkpt lat="46.57794124597125" lon="26.71791235234806"><ele>299.0</ele><time>2026-04-25T10:48:30.999Z</time></trkpt><trkpt lat="46.57790054614959" lon="26.71777939273879"><ele>298.0</ele><time>2026-04-25T10:48:32.999Z</time></trkpt><trkpt lat="46.57785573586262" lon="26.717655640309435"><ele>297.0</ele><time>2026-04-25T10:48:34.999Z</time></trkpt><trkpt lat="46.57778678569242" lon="26.717574769078873"><ele>296.0</ele><time>2026-04-25T10:48:36.999Z</time></trkpt><trkpt lat="46.57773151665898" lon="26.717496711645953"><ele>295.0</ele><time>2026-04-25T10:48:38.999Z</time></trkpt><trkpt lat="46.577643987534756" lon="26.717415682141244"><ele>294.0</ele><time>2026-04-25T10:48:40.999Z</time></trkpt><trkpt lat="46.577554852933275" lon="26.717426947641197"><ele>294.0</ele><time>2026-04-25T10:48:42.999Z</time></trkpt><trkpt lat="46.57744752104594" lon="26.717441069063103"><ele>294.0</ele><time>2026-04-25T10:48:44.999Z</time></trkpt><trkpt lat="46.57736284765517" lon="26.717452187697667"><ele>294.0</ele><time>2026-04-25T10:48:46.999Z</time></trkpt><trkpt lat="46.5772934541774" lon="26.71746144591126"><ele>294.0</ele><time>2026-04-25T10:48:48.999Z</time></trkpt><trkpt lat="46.57722164002528" lon="26.717468741535217"><ele>294.0</ele><time>2026-04-25T10:48:50.999Z</time></trkpt><trkpt lat="46.577154088730154" lon="26.717486439637746"><ele>294.0</ele><time>2026-04-25T10:48:53Z</time></trkpt><trkpt lat="46.57707689311919" lon="26.71750326548381"><ele>292.0</ele><time>2026-04-25T10:48:55Z</time></trkpt><trkpt lat="46.576985965014735" lon="26.717514459210214"><ele>290.0</ele><time>2026-04-25T10:48:57Z</time></trkpt><trkpt lat="46.57689216361193" lon="26.717499690297103"><ele>288.0</ele><time>2026-04-25T10:48:59Z</time></trkpt><trkpt lat="46.5767983210943" lon="26.717509131812875"><ele>286.0</ele><time>2026-04-25T10:49:01Z</time></trkpt><trkpt lat="46.576709405589675" lon="26.717517828418597"><ele>284.0</ele><time>2026-04-25T10:49:03Z</time></trkpt><trkpt lat="46.576613091599185" lon="26.71752656798366"><ele>284.0</ele><time>2026-04-25T10:49:05Z</time></trkpt><trkpt lat="46.57653255861927" lon="26.717551924394606"><ele>284.0</ele><time>2026-04-25T10:49:07Z</time></trkpt><trkpt lat="46.576464943490095" lon="26.71760231397948"><ele>284.0</ele><time>2026-04-25T10:49:09Z</time></trkpt><trkpt lat="46.57638873954771" lon="26.717659299397205"><ele>284.0</ele><time>2026-04-25T10:49:11Z</time></trkpt><trkpt lat="46.576333228622985" lon="26.717758189668288"><ele>284.0</ele><time>2026-04-25T10:49:13Z</time></trkpt><trkpt lat="46.576293681359864" lon="26.717844456214873"><ele>284.0</ele><time>2026-04-25T10:49:15Z</time></trkpt><trkpt lat="46.5761993426736" lon="26.717977995564848"><ele>283.57142857142856</ele><time>2026-04-25T10:49:17Z</time></trkpt><trkpt lat="46.57618860221572" lon="26.71807901940476"><ele>283.1428571428571</ele><time>2026-04-25T10:49:19Z</time></trkpt><trkpt lat="46.57617916458177" lon="26.71818137569922"><ele>282.7142857142857</ele><time>2026-04-25T10:49:21Z</time></trkpt><trkpt lat="46.57617122220954" lon="26.718273915560484"><ele>282.2857142857143</ele><time>2026-04-25T10:49:23Z</time></trkpt><trkpt lat="46.576160966470034" lon="26.718399365193882"><ele>281.8571428571429</ele><time>2026-04-25T10:49:26Z</time></trkpt><trkpt lat="46.57615283124479" lon="26.718498777226117"><ele>281.42857142857144</ele><time>2026-04-25T10:49:48Z</time></trkpt><trkpt lat="46.576143842225115" lon="26.718604406524815"><ele>281.0</ele><time>2026-04-25T10:49:52Z</time></trkpt><trkpt lat="46.5762093013874" lon="26.71865794070521"><ele>283.1666666666667</ele><time>2026-04-25T10:50:30Z</time></trkpt><trkpt lat="46.576242758479765" lon="26.71856975798812"><ele>285.33333333333337</ele><time>2026-04-25T10:52:26.002Z</time></trkpt><trkpt lat="46.576211554661974" lon="26.71847984035876"><ele>287.5</ele><time>2026-04-25T10:52:29.001Z</time></trkpt><trkpt lat="46.5762196594408" lon="26.718379819597708"><ele>289.6666666666667</ele><time>2026-04-25T10:52:33.001Z</time></trkpt><trkpt lat="46.57622503122844" lon="26.718242540822082"><ele>291.8333333333333</ele><time>2026-04-25T10:53:45.001Z</time></trkpt><trkpt lat="46.57621900463674" lon="26.718109813216497"><ele>294.0</ele><time>2026-04-25T10:53:47.001Z</time></trkpt><trkpt lat="46.57625433778518" lon="26.718016950414924"><ele>294.0</ele><time>2026-04-25T10:53:48.001Z</time></trkpt><trkpt lat="46.576304918274886" lon="26.717896878314676"><ele>294.0</ele><time>2026-04-25T10:53:50.001Z</time></trkpt><trkpt lat="46.57634303530524" lon="26.717794956960525"><ele>294.0</ele><time>2026-04-25T10:53:52.001Z</time></trkpt><trkpt lat="46.5764238928569" lon="26.71770814508314"><ele>294.0</ele><time>2026-04-25T10:53:55.001Z</time></trkpt><trkpt lat="46.57649849874365" lon="26.717651613559187"><ele>294.0</ele><time>2026-04-25T10:53:57.001Z</time></trkpt><trkpt lat="46.57655376332407" lon="26.717590394729395"><ele>294.0</ele><time>2026-04-25T10:54:00.001Z</time></trkpt><trkpt lat="46.57662520947188" lon="26.717573875111338"><ele>294.0</ele><time>2026-04-25T10:54:02.001Z</time></trkpt><trkpt lat="46.57669072182281" lon="26.71756803398912"><ele>294.0</ele><time>2026-04-25T10:54:04.001Z</time></trkpt><trkpt lat="46.57677591588699" lon="26.717580655897596"><ele>294.0</ele><time>2026-04-25T10:54:06.001Z</time></trkpt><trkpt lat="46.57686325574207" lon="26.717561163361562"><ele>294.0</ele><time>2026-04-25T10:54:08.001Z</time></trkpt><trkpt lat="46.57695050002656" lon="26.71754264936229"><ele>294.0</ele><time>2026-04-25T10:54:10.001Z</time></trkpt><trkpt lat="46.57704724360719" lon="26.717533228375444"><ele>294.0</ele><time>2026-04-25T10:54:12.001Z</time></trkpt><trkpt lat="46.577128720977356" lon="26.717526200206308"><ele>294.0</ele><time>2026-04-25T10:54:14.001Z</time></trkpt><trkpt lat="46.57719798844854" lon="26.717508841396555"><ele>294.0</ele><time>2026-04-25T10:54:16.001Z</time></trkpt><trkpt lat="46.577263178760425" lon="26.717502637242287"><ele>294.0</ele><time>2026-04-25T10:54:18.001Z</time></trkpt><trkpt lat="46.57734498204799" lon="26.717502875559134"><ele>294.0</ele><time>2026-04-25T10:54:21.001Z</time></trkpt><trkpt lat="46.57741475837983" lon="26.717516970215538"><ele>294.0</ele><time>2026-04-25T10:54:23.001Z</time></trkpt><trkpt lat="46.57751417934396" lon="26.717498065454354"><ele>294.0</ele><time>2026-04-25T10:54:26.001Z</time></trkpt><trkpt lat="46.57760348615152" lon="26.71745944458194"><ele>294.0</ele><time>2026-04-25T10:54:28.001Z</time></trkpt><trkpt lat="46.5776791102889" lon="26.717478797862146"><ele>294.0</ele><time>2026-04-25T10:54:30.001Z</time></trkpt><trkpt lat="46.57775399889202" lon="26.717575229776866"><ele>294.0</ele><time>2026-04-25T10:54:32.001Z</time></trkpt><trkpt lat="46.577807478157304" lon="26.71769625185899"><ele>294.0</ele><time>2026-04-25T10:54:34.001Z</time></trkpt><trkpt lat="46.57787307206402" lon="26.717796522993638"><ele>294.0</ele><time>2026-04-25T10:54:37.001Z</time></trkpt><trkpt lat="46.57791613654376" lon="26.7179081257908"><ele>295.0</ele><time>2026-04-25T10:54:39.001Z</time></trkpt><trkpt lat="46.577959767165744" lon="26.718021772523322"><ele>296.0</ele><time>2026-04-25T10:54:41.001Z</time></trkpt><trkpt lat="46.57801031612008" lon="26.718152710748843"><ele>297.0</ele><time>2026-04-25T10:54:43.001Z</time></trkpt><trkpt lat="46.57805952030851" lon="26.71828026560095"><ele>298.0</ele><time>2026-04-25T10:54:45.001Z</time></trkpt><trkpt lat="46.57809603727117" lon="26.718368821056615"><ele>299.0</ele><time>2026-04-25T10:54:47.001Z</time></trkpt><trkpt lat="46.578150295470806" lon="26.718481276611403"><ele>301.59999999999997</ele><time>2026-04-25T10:54:50.001Z</time></trkpt><trkpt lat="46.57819424051454" lon="26.71857087803996"><ele>304.2</ele><time>2026-04-25T10:54:52.001Z</time></trkpt><trkpt lat="46.57824625684083" lon="26.71867865851577"><ele>306.79999999999995</ele><time>2026-04-25T10:54:54.001Z</time></trkpt><trkpt lat="46.57830907063163" lon="26.718809418977173"><ele>309.4</ele><time>2026-04-25T10:54:56.001Z</time></trkpt><trkpt lat="46.57837250236237" lon="26.718941869659933"><ele>312.0</ele><time>2026-04-25T10:54:58.001Z</time></trkpt><trkpt lat="46.57841992265907" lon="26.71907762219437"><ele>312.0</ele><time>2026-04-25T10:55:00.001Z</time></trkpt><trkpt lat="46.578482715159716" lon="26.719169299349762"><ele>312.0</ele><time>2026-04-25T10:55:02.001Z</time></trkpt><trkpt lat="46.57853236252681" lon="26.719273169221925"><ele>312.0</ele><time>2026-04-25T10:55:04.001Z</time></trkpt><trkpt lat="46.57858603558909" lon="26.71938467157327"><ele>312.0</ele><time>2026-04-25T10:55:06.001Z</time></trkpt><trkpt lat="46.578622425346076" lon="26.719461652803272"><ele>312.0</ele><time>2026-04-25T10:55:07.001Z</time></trkpt><trkpt lat="46.57867863939415" lon="26.71957899430126"><ele>312.0</ele><time>2026-04-25T10:55:09.001Z</time></trkpt><trkpt lat="46.57872887399677" lon="26.719684460599158"><ele>312.2</ele><time>2026-04-25T10:55:11.001Z</time></trkpt><trkpt lat="46.57882542026911" lon="26.719716946335716"><ele>312.4</ele><time>2026-04-25T10:55:13.001Z</time></trkpt><trkpt lat="46.57890496566079" lon="26.719782227166487"><ele>312.6</ele><time>2026-04-25T10:55:15.001Z</time></trkpt><trkpt lat="46.57900655142054" lon="26.719869607842313"><ele>312.8</ele><time>2026-04-25T10:55:17.001Z</time></trkpt><trkpt lat="46.57909138914239" lon="26.719936387413846"><ele>313.0</ele><time>2026-04-25T10:55:19Z</time></trkpt><trkpt lat="46.57919303477762" lon="26.720020301378618"><ele>313.0</ele><time>2026-04-25T10:55:21Z</time></trkpt><trkpt lat="46.57929502341214" lon="26.720079324617664"><ele>313.0</ele><time>2026-04-25T10:55:23Z</time></trkpt><trkpt lat="46.57936568365045" lon="26.72008288174818"><ele>313.0</ele><time>2026-04-25T10:55:24Z</time></trkpt><trkpt lat="46.57948203375438" lon="26.720068187325012"><ele>313.0</ele><time>2026-04-25T10:55:26Z</time></trkpt><trkpt lat="46.579548648000944" lon="26.720058447601552"><ele>313.0</ele><time>2026-04-25T10:55:27Z</time></trkpt><trkpt lat="46.579671079589225" lon="26.720042583353116"><ele>314.0</ele><time>2026-04-25T10:55:29Z</time></trkpt><trkpt lat="46.57978942893596" lon="26.720034308540082"><ele>315.0</ele><time>2026-04-25T10:55:31Z</time></trkpt><trkpt lat="46.57989242872452" lon="26.720030731367356"><ele>316.0</ele><time>2026-04-25T10:55:33Z</time></trkpt><trkpt lat="46.57999178872868" lon="26.720113182623084"><ele>317.0</ele><time>2026-04-25T10:55:35Z</time></trkpt><trkpt lat="46.58003198499608" lon="26.720193620554376"><ele>318.0</ele><time>2026-04-25T10:55:36Z</time></trkpt><trkpt lat="46.58005848574845" lon="26.72028439253632"><ele>319.3333333333333</ele><time>2026-04-25T10:55:37Z</time></trkpt><trkpt lat="46.58012650781945" lon="26.720420007879802"><ele>320.6666666666667</ele><time>2026-04-25T10:55:39Z</time></trkpt><trkpt lat="46.58019066555565" lon="26.72042736798903"><ele>322.0</ele><time>2026-04-25T10:55:40Z</time></trkpt><trkpt lat="46.58028347534314" lon="26.72050431942204"><ele>323.33333333333337</ele><time>2026-04-25T10:55:42Z</time></trkpt><trkpt lat="46.580349238495046" lon="26.72052763183096"><ele>324.6666666666667</ele><time>2026-04-25T10:55:44Z</time></trkpt><trkpt lat="46.580429243865176" lon="26.72056210267939"><ele>326.0</ele><time>2026-04-25T10:55:46Z</time></trkpt><trkpt lat="46.58049496166042" lon="26.72060272921059"><ele>326.0</ele><time>2026-04-25T10:55:48Z</time></trkpt><trkpt lat="46.58057807375626" lon="26.72064685264933"><ele>326.0</ele><time>2026-04-25T10:55:50Z</time></trkpt><trkpt lat="46.58066448354486" lon="26.720688232882136"><ele>326.0</ele><time>2026-04-25T10:55:52Z</time></trkpt><trkpt lat="46.58074966701725" lon="26.7207522802351"><ele>326.0</ele><time>2026-04-25T10:55:54Z</time></trkpt><trkpt lat="46.580825951985396" lon="26.720793310422287"><ele>326.0</ele><time>2026-04-25T10:55:56Z</time></trkpt><trkpt lat="46.5808850320476" lon="26.72085354021138"><ele>326.0</ele><time>2026-04-25T10:55:58Z</time></trkpt><trkpt lat="46.58096330314435" lon="26.720913151180547"><ele>326.0</ele><time>2026-04-25T10:56:00Z</time></trkpt><trkpt lat="46.58104571283027" lon="26.720975240134305"><ele>326.0</ele><time>2026-04-25T10:56:02Z</time></trkpt><trkpt lat="46.58113827462351" lon="26.7209914624837"><ele>326.0</ele><time>2026-04-25T10:56:04Z</time></trkpt><trkpt lat="46.58119203603129" lon="26.72110462161068"><ele>326.0</ele><time>2026-04-25T10:56:06Z</time></trkpt><trkpt lat="46.58122575683322" lon="26.721214422735223"><ele>326.0</ele><time>2026-04-25T10:56:08Z</time></trkpt><trkpt lat="46.58129035441703" lon="26.721327844725653"><ele>323.6666666666667</ele><time>2026-04-25T10:56:10Z</time></trkpt><trkpt lat="46.581292002110125" lon="26.72145484006505"><ele>321.33333333333337</ele><time>2026-04-25T10:56:12Z</time></trkpt><trkpt lat="46.581293574231026" lon="26.721576579496144"><ele>319.0</ele><time>2026-04-25T10:56:14Z</time></trkpt><trkpt lat="46.581294639894445" lon="26.721690942292707"><ele>316.6666666666667</ele><time>2026-04-25T10:56:16Z</time></trkpt><trkpt lat="46.58129565664108" lon="26.72180005386034"><ele>314.3333333333333</ele><time>2026-04-25T10:56:18Z</time></trkpt><trkpt lat="46.58130439831882" lon="26.721911612649127"><ele>312.0</ele><time>2026-04-25T10:56:20Z</time></trkpt><trkpt lat="46.58130988166452" lon="26.722028747673775"><ele>310.2</ele><time>2026-04-25T10:56:22Z</time></trkpt><trkpt lat="46.58133168912931" lon="26.722175032756102"><ele>308.4</ele><time>2026-04-25T10:56:24Z</time></trkpt><trkpt lat="46.581352862447204" lon="26.72232147687482"><ele>306.6</ele><time>2026-04-25T10:56:26Z</time></trkpt><trkpt lat="46.58136599680136" lon="26.72247068883747"><ele>304.8</ele><time>2026-04-25T10:56:28Z</time></trkpt><trkpt lat="46.58134757940755" lon="26.72263052787831"><ele>303.0</ele><time>2026-04-25T10:56:30Z</time></trkpt><trkpt lat="46.58134048197892" lon="26.722811589096143"><ele>302.3333333333333</ele><time>2026-04-25T10:56:32Z</time></trkpt><trkpt lat="46.58129273687781" lon="26.722900145143306"><ele>301.6666666666667</ele><time>2026-04-25T10:56:33.001Z</time></trkpt><trkpt lat="46.581253805163776" lon="26.722972959471303"><ele>301.0</ele><time>2026-04-25T10:56:34.001Z</time></trkpt><trkpt lat="46.58121105377259" lon="26.72305274472064"><ele>300.33333333333337</ele><time>2026-04-25T10:56:35.001Z</time></trkpt><trkpt lat="46.581143073811134" lon="26.72313077025043"><ele>299.6666666666667</ele><time>2026-04-25T10:56:36.001Z</time></trkpt><trkpt lat="46.58105017012198" lon="26.7232201992026"><ele>299.0</ele><time>2026-04-25T10:56:38.001Z</time></trkpt><trkpt lat="46.58095627022309" lon="26.723311120505393"><ele>303.0</ele><time>2026-04-25T10:56:40.001Z</time></trkpt><trkpt lat="46.58090007799248" lon="26.723444867106103"><ele>307.0</ele><time>2026-04-25T10:56:43.001Z</time></trkpt><trkpt lat="46.58091186314437" lon="26.723571914136603"><ele>311.0</ele><time>2026-04-25T10:56:45.001Z</time></trkpt><trkpt lat="46.58090667948146" lon="26.723688681236325"><ele>315.0</ele><time>2026-04-25T10:56:46.001Z</time></trkpt><trkpt lat="46.58094108505493" lon="26.7237705068265"><ele>319.0</ele><time>2026-04-25T10:56:47.001Z</time></trkpt><trkpt lat="46.581007050092886" lon="26.723928301687316"><ele>319.2</ele><time>2026-04-25T10:56:49.001Z</time></trkpt><trkpt lat="46.58106249336967" lon="26.724061181327034"><ele>319.4</ele><time>2026-04-25T10:56:51.001Z</time></trkpt><trkpt lat="46.58109333801995" lon="26.72419928605514"><ele>319.6</ele><time>2026-04-25T10:56:53.001Z</time></trkpt><trkpt lat="46.58113230440168" lon="26.724355195469663"><ele>319.8</ele><time>2026-04-25T10:56:55.001Z</time></trkpt><trkpt lat="46.5811621455959" lon="26.724513249795255"><ele>320.0</ele><time>2026-04-25T10:56:57Z</time></trkpt><trkpt lat="46.581145899239864" lon="26.724683019316778"><ele>320.2</ele><time>2026-04-25T10:56:59Z</time></trkpt><trkpt lat="46.5811444296587" lon="26.724844205974858"><ele>320.4</ele><time>2026-04-25T10:57:01Z</time></trkpt><trkpt lat="46.5811354226291" lon="26.725020483911756"><ele>320.6</ele><time>2026-04-25T10:57:03Z</time></trkpt><trkpt lat="46.581110242829475" lon="26.7251696956498"><ele>320.8</ele><time>2026-04-25T10:57:05Z</time></trkpt><trkpt lat="46.581141780843524" lon="26.725261636167804"><ele>321.0</ele><time>2026-04-25T10:57:06Z</time></trkpt><trkpt lat="46.58118639678449" lon="26.725334368992485"><ele>321.0</ele><time>2026-04-25T10:57:07Z</time></trkpt><trkpt lat="46.58123787800339" lon="26.725387777851914"><ele>321.0</ele><time>2026-04-25T10:57:08Z</time></trkpt><trkpt lat="46.58133425058092" lon="26.72540774524218"><ele>321.0</ele><time>2026-04-25T10:57:09Z</time></trkpt><trkpt lat="46.581452694588215" lon="26.725421920624687"><ele>321.0</ele><time>2026-04-25T10:57:11Z</time></trkpt><trkpt lat="46.58150888530209" lon="26.725482746117883"><ele>321.0</ele><time>2026-04-25T10:57:13Z</time></trkpt><trkpt lat="46.581567107964744" lon="26.72559246046716"><ele>321.0</ele><time>2026-04-25T10:57:15Z</time></trkpt><trkpt lat="46.58159666989302" lon="26.725676257005958"><ele>321.0</ele><time>2026-04-25T10:57:16Z</time></trkpt><trkpt lat="46.5816131923979" lon="26.72585398827963"><ele>321.0</ele><time>2026-04-25T10:57:18Z</time></trkpt><trkpt lat="46.581652819160205" lon="26.726023033982013"><ele>321.0</ele><time>2026-04-25T10:57:20Z</time></trkpt><trkpt lat="46.58169294573841" lon="26.72616197682925"><ele>321.0</ele><time>2026-04-25T10:57:22Z</time></trkpt><trkpt lat="46.581730192980764" lon="26.726290680103784"><ele>321.0</ele><time>2026-04-25T10:57:24Z</time></trkpt><trkpt lat="46.581796656624995" lon="26.72644113284659"><ele>321.20000000000005</ele><time>2026-04-25T10:57:26Z</time></trkpt><trkpt lat="46.581892179818226" lon="26.726549314618648"><ele>321.40000000000003</ele><time>2026-04-25T10:57:28Z</time></trkpt><trkpt lat="46.581989758199" lon="26.726613992034455"><ele>321.6</ele><time>2026-04-25T10:57:30Z</time></trkpt><trkpt lat="46.58208092860784" lon="26.72666538245604"><ele>321.8</ele><time>2026-04-25T10:57:32Z</time></trkpt><trkpt lat="46.58217826352884" lon="26.72672001076407"><ele>322.0</ele><time>2026-04-25T10:57:34Z</time></trkpt><trkpt lat="46.58226631743946" lon="26.726789544596723"><ele>322.0</ele><time>2026-04-25T10:57:36Z</time></trkpt><trkpt lat="46.58236565948059" lon="26.726869239682813"><ele>322.0</ele><time>2026-04-25T10:57:38Z</time></trkpt><trkpt lat="46.58244450729014" lon="26.72693208984868"><ele>322.0</ele><time>2026-04-25T10:57:40Z</time></trkpt><trkpt lat="46.58251071645027" lon="26.7269362283855"><ele>322.0</ele><time>2026-04-25T10:57:41Z</time></trkpt><trkpt lat="46.582623704756195" lon="26.726963639012382"><ele>322.0</ele><time>2026-04-25T10:57:43Z</time></trkpt><trkpt lat="46.582677014183304" lon="26.72702098363631"><ele>324.40000000000003</ele><time>2026-04-25T10:57:44Z</time></trkpt><trkpt lat="46.58274901216187" lon="26.727075651098488"><ele>326.8</ele><time>2026-04-25T10:57:45Z</time></trkpt><trkpt lat="46.58286207672854" lon="26.727073458064037"><ele>329.2</ele><time>2026-04-25T10:57:47Z</time></trkpt><trkpt lat="46.58299024386279" lon="26.72705469313289"><ele>331.6</ele><time>2026-04-25T10:57:49Z</time></trkpt><trkpt lat="46.58310202178561" lon="26.727028338922327"><ele>334.0</ele><time>2026-04-25T10:57:51Z</time></trkpt><trkpt lat="46.58316819750753" lon="26.72700630895752"><ele>335.0</ele><time>2026-04-25T10:57:52Z</time></trkpt><trkpt lat="46.58328357851667" lon="26.72696228024432"><ele>336.0</ele><time>2026-04-25T10:57:54Z</time></trkpt><trkpt lat="46.583382379643886" lon="26.726952645095878"><ele>337.0</ele><time>2026-04-25T10:57:56Z</time></trkpt><trkpt lat="46.583496164690885" lon="26.726938125103207"><ele>338.0</ele><time>2026-04-25T10:57:58Z</time></trkpt><trkpt lat="46.583609917943775" lon="26.726915262020345"><ele>339.0</ele><time>2026-04-25T10:58:00Z</time></trkpt><trkpt lat="46.583705128582196" lon="26.726919596425173"><ele>338.6</ele><time>2026-04-25T10:58:02Z</time></trkpt><trkpt lat="46.5837572831189" lon="26.72679673403547"><ele>338.2</ele><time>2026-04-25T10:58:04Z</time></trkpt><trkpt lat="46.583830946747064" lon="26.726694130731815"><ele>337.8</ele><time>2026-04-25T10:58:06Z</time></trkpt><trkpt lat="46.583918300340166" lon="26.7265687462015"><ele>337.40000000000003</ele><time>2026-04-25T10:58:08Z</time></trkpt><trkpt lat="46.583991882586865" lon="26.72643322080398"><ele>337.0</ele><time>2026-04-25T10:58:10Z</time></trkpt><trkpt lat="46.58403242450192" lon="26.726360033625028"><ele>337.0</ele><time>2026-04-25T10:58:11Z</time></trkpt><trkpt lat="46.58406326655689" lon="26.7262243977926"><ele>337.0</ele><time>2026-04-25T10:58:13Z</time></trkpt><trkpt lat="46.5841091546626" lon="26.726067344402477"><ele>337.0</ele><time>2026-04-25T10:58:15Z</time></trkpt><trkpt lat="46.5841511999733" lon="26.72592210687053"><ele>337.0</ele><time>2026-04-25T10:58:17Z</time></trkpt><trkpt lat="46.58423017780577" lon="26.72585550788321"><ele>337.0</ele><time>2026-04-25T10:58:18Z</time></trkpt><trkpt lat="46.58430979222639" lon="26.725746349533342"><ele>337.0</ele><time>2026-04-25T10:58:20Z</time></trkpt><trkpt lat="46.58439456287917" lon="26.725632140047654"><ele>337.0</ele><time>2026-04-25T10:58:22Z</time></trkpt><trkpt lat="46.58448859774843" lon="26.725521551927894"><ele>337.0</ele><time>2026-04-25T10:58:24Z</time></trkpt><trkpt lat="46.58458327535325" lon="26.725412205267933"><ele>337.0</ele><time>2026-04-25T10:58:26Z</time></trkpt><trkpt lat="46.58464199798302" lon="26.725348106229024"><ele>337.0</ele><time>2026-04-25T10:58:27Z</time></trkpt><trkpt lat="46.584697464564655" lon="26.725293499965144"><ele>337.0</ele><time>2026-04-25T10:58:28Z</time></trkpt><trkpt lat="46.584788036881605" lon="26.725203881304726"><ele>337.0</ele><time>2026-04-25T10:58:30Z</time></trkpt><trkpt lat="46.58488560694146" lon="26.72522390925559"><ele>337.0</ele><time>2026-04-25T10:58:31Z</time></trkpt><trkpt lat="46.58498916140235" lon="26.72521014264243"><ele>337.0</ele><time>2026-04-25T10:58:33Z</time></trkpt><trkpt lat="46.585007908648386" lon="26.725352868907212"><ele>337.0</ele><time>2026-04-25T10:58:34Z</time></trkpt><trkpt lat="46.58506994439725" lon="26.725479082683265"><ele>337.0</ele><time>2026-04-25T10:58:36Z</time></trkpt><trkpt lat="46.585117012434054" lon="26.725633703832013"><ele>337.0</ele><time>2026-04-25T10:58:38Z</time></trkpt><trkpt lat="46.585182220344585" lon="26.725779067096536"><ele>337.0</ele><time>2026-04-25T10:58:40.001Z</time></trkpt><trkpt lat="46.5852270109005" lon="26.72591294220868"><ele>337.0</ele><time>2026-04-25T10:58:42.001Z</time></trkpt><trkpt lat="46.58525838586295" lon="26.726038956675254"><ele>337.0</ele><time>2026-04-25T10:58:44.001Z</time></trkpt><trkpt lat="46.585316135256626" lon="26.72619183321701"><ele>337.0</ele><time>2026-04-25T10:58:46.001Z</time></trkpt><trkpt lat="46.58536699110958" lon="26.726327502362878"><ele>337.0</ele><time>2026-04-25T10:58:48.001Z</time></trkpt><trkpt lat="46.585413745974854" lon="26.726454339150827"><ele>337.0</ele><time>2026-04-25T10:58:50.001Z</time></trkpt><trkpt lat="46.585469025620135" lon="26.72660487270882"><ele>337.0</ele><time>2026-04-25T10:58:52.001Z</time></trkpt><trkpt lat="46.585475177950684" lon="26.72675911180905"><ele>337.0</ele><time>2026-04-25T10:58:54Z</time></trkpt><trkpt lat="46.5855179906491" lon="26.726910691236032"><ele>337.0</ele><time>2026-04-25T10:58:56Z</time></trkpt><trkpt lat="46.58556513823195" lon="26.72707147356717"><ele>337.0</ele><time>2026-04-25T10:58:58Z</time></trkpt><trkpt lat="46.58562861036215" lon="26.727188548619523"><ele>337.0</ele><time>2026-04-25T10:59:00Z</time></trkpt><trkpt lat="46.58568444517266" lon="26.727299298955845"><ele>337.0</ele><time>2026-04-25T10:59:02Z</time></trkpt><trkpt lat="46.585740577057045" lon="26.727410646010433"><ele>337.0</ele><time>2026-04-25T10:59:04Z</time></trkpt><trkpt lat="46.58582451817943" lon="26.72740928807628"><ele>337.0</ele><time>2026-04-25T10:59:05Z</time></trkpt><trkpt lat="46.58592439804602" lon="26.727416819908154"><ele>337.0</ele><time>2026-04-25T10:59:07Z</time></trkpt><trkpt lat="46.58603418475586" lon="26.72740319073914"><ele>337.0</ele><time>2026-04-25T10:59:09Z</time></trkpt><trkpt lat="46.5861425988996" lon="26.727384932703288"><ele>337.0</ele><time>2026-04-25T10:59:11Z</time></trkpt><trkpt lat="46.58627349512707" lon="26.727362534797862"><ele>336.0</ele><time>2026-04-25T10:59:13Z</time></trkpt><trkpt lat="46.58633727557809" lon="26.727394445520055"><ele>335.0</ele><time>2026-04-25T10:59:14Z</time></trkpt><trkpt lat="46.58640072864184" lon="26.72741034608303"><ele>334.0</ele><time>2026-04-25T10:59:15Z</time></trkpt><trkpt lat="46.58646227558056" lon="26.72744203357052"><ele>333.0</ele><time>2026-04-25T10:59:16Z</time></trkpt><trkpt lat="46.586571283588036" lon="26.72744395888189"><ele>332.0</ele><time>2026-04-25T10:59:18Z</time></trkpt><trkpt lat="46.58670219124045" lon="26.727420117601664"><ele>331.0</ele><time>2026-04-25T10:59:20Z</time></trkpt><trkpt lat="46.58676694233952" lon="26.727428234576195"><ele>331.0</ele><time>2026-04-25T10:59:21Z</time></trkpt><trkpt lat="46.58689113058839" lon="26.727453056864718"><ele>331.0</ele><time>2026-04-25T10:59:23Z</time></trkpt><trkpt lat="46.58695407389938" lon="26.727485681842367"><ele>331.0</ele><time>2026-04-25T10:59:24Z</time></trkpt><trkpt lat="46.58706138855592" lon="26.72751767106968"><ele>331.0</ele><time>2026-04-25T10:59:26Z</time></trkpt><trkpt lat="46.58712510574495" lon="26.727506387039885"><ele>331.0</ele><time>2026-04-25T10:59:27Z</time></trkpt><trkpt lat="46.58715145378626" lon="26.727418232412678"><ele>331.0</ele><time>2026-04-25T10:59:28Z</time></trkpt><trkpt lat="46.58720517585172" lon="26.727350944595305"><ele>331.4</ele><time>2026-04-25T10:59:30Z</time></trkpt><trkpt lat="46.587278513458095" lon="26.727263512787314"><ele>331.8</ele><time>2026-04-25T10:59:32Z</time></trkpt><trkpt lat="46.58736823744698" lon="26.72719125755747"><ele>332.2</ele><time>2026-04-25T10:59:33Z</time></trkpt><trkpt lat="46.58745914098984" lon="26.727173963522564"><ele>332.59999999999997</ele><time>2026-04-25T10:59:35Z</time></trkpt><trkpt lat="46.58752541541897" lon="26.727220034885082"><ele>333.0</ele><time>2026-04-25T10:59:36Z</time></trkpt><trkpt lat="46.58762836065181" lon="26.72727588528942"><ele>333.0</ele><time>2026-04-25T10:59:38Z</time></trkpt><trkpt lat="46.58772780841914" lon="26.727357436646816"><ele>333.0</ele><time>2026-04-25T10:59:40Z</time></trkpt><trkpt lat="46.587848079724786" lon="26.727378661955374"><ele>333.0</ele><time>2026-04-25T10:59:42Z</time></trkpt><trkpt lat="46.58794728061792" lon="26.727395385533526"><ele>333.0</ele><time>2026-04-25T10:59:44Z</time></trkpt><trkpt lat="46.58801578008614" lon="26.7273143627219"><ele>333.0</ele><time>2026-04-25T10:59:46Z</time></trkpt><trkpt lat="46.588083248535405" lon="26.727236216033866"><ele>332.5</ele><time>2026-04-25T10:59:48Z</time></trkpt><trkpt lat="46.588142979768755" lon="26.727161494994125"><ele>332.0</ele><time>2026-04-25T10:59:50Z</time></trkpt><trkpt lat="46.588200126170435" lon="26.72708946341694"><ele>331.5</ele><time>2026-04-25T10:59:52Z</time></trkpt><trkpt lat="46.5882673541917" lon="26.72700472444148"><ele>331.0</ele><time>2026-04-25T10:59:54Z</time></trkpt><trkpt lat="46.588361983672634" lon="26.726914051229862"><ele>330.5</ele><time>2026-04-25T10:59:56Z</time></trkpt><trkpt lat="46.58843225641958" lon="26.726847725822925"><ele>330.0</ele><time>2026-04-25T10:59:58Z</time></trkpt><trkpt lat="46.5885186790053" lon="26.726817272869116"><ele>330.0</ele><time>2026-04-25T11:00:00Z</time></trkpt><trkpt lat="46.58860038810286" lon="26.726788649186506"><ele>330.0</ele><time>2026-04-25T11:00:02Z</time></trkpt><trkpt lat="46.58865522004434" lon="26.726899294147376"><ele>330.0</ele><time>2026-04-25T11:00:03Z</time></trkpt><trkpt lat="46.58875857327084" lon="26.7269618352489"><ele>330.0</ele><time>2026-04-25T11:00:05Z</time></trkpt><trkpt lat="46.58885669328258" lon="26.727048115941713"><ele>330.0</ele><time>2026-04-25T11:00:07Z</time></trkpt><trkpt lat="46.58895307157784" lon="26.727129867350175"><ele>329.8</ele><time>2026-04-25T11:00:09Z</time></trkpt><trkpt lat="46.58902823173527" lon="26.72720484919421"><ele>329.6</ele><time>2026-04-25T11:00:11Z</time></trkpt><trkpt lat="46.58910278796623" lon="26.727262316973736"><ele>329.4</ele><time>2026-04-25T11:00:13Z</time></trkpt><trkpt lat="46.58919481598402" lon="26.727284796262268"><ele>329.2</ele><time>2026-04-25T11:00:15Z</time></trkpt><trkpt lat="46.58928406883681" lon="26.72729491593035"><ele>329.0</ele><time>2026-04-25T11:00:17Z</time></trkpt><trkpt lat="46.58937877206469" lon="26.7273265109308"><ele>329.0</ele><time>2026-04-25T11:00:19Z</time></trkpt><trkpt lat="46.5894178575081" lon="26.727253707787977"><ele>329.0</ele><time>2026-04-25T11:00:20Z</time></trkpt><trkpt lat="46.589525519645775" lon="26.72721240062365"><ele>329.0</ele><time>2026-04-25T11:00:22Z</time></trkpt><trkpt lat="46.589636653180946" lon="26.72716956061832"><ele>329.0</ele><time>2026-04-25T11:00:24Z</time></trkpt><trkpt lat="46.58974342095733" lon="26.727128233118098"><ele>329.0</ele><time>2026-04-25T11:00:26Z</time></trkpt><trkpt lat="46.5898461239057" lon="26.727071524489347"><ele>327.25</ele><time>2026-04-25T11:00:28Z</time></trkpt><trkpt lat="46.58995136244554" lon="26.727015774714534"><ele>325.5</ele><time>2026-04-25T11:00:30Z</time></trkpt><trkpt lat="46.59006695908192" lon="26.72695446907761"><ele>323.75</ele><time>2026-04-25T11:00:32Z</time></trkpt><trkpt lat="46.59012127677823" lon="26.72680804932099"><ele>322.0</ele><time>2026-04-25T11:00:34Z</time></trkpt><trkpt lat="46.59019553570452" lon="26.72670364990297"><ele>321.8333333333333</ele><time>2026-04-25T11:00:36Z</time></trkpt><trkpt lat="46.59028196125484" lon="26.726636072836378"><ele>321.66666666666663</ele><time>2026-04-25T11:00:38Z</time></trkpt><trkpt lat="46.590381389884755" lon="26.726664937430073"><ele>321.5</ele><time>2026-04-25T11:00:40Z</time></trkpt><trkpt lat="46.59044629236243" lon="26.7267806621417"><ele>321.3333333333333</ele><time>2026-04-25T11:00:41.999Z</time></trkpt><trkpt lat="46.59049829705884" lon="26.726846449655955"><ele>321.1666666666667</ele><time>2026-04-25T11:00:42.999Z</time></trkpt><trkpt lat="46.59055380067054" lon="26.726899330046383"><ele>321.0</ele><time>2026-04-25T11:00:43.999Z</time></trkpt><trkpt lat="46.59063915716755" lon="26.726953932798256"><ele>321.0</ele><time>2026-04-25T11:00:46.001Z</time></trkpt><trkpt lat="46.59072437201014" lon="26.726999765219922"><ele>321.0</ele><time>2026-04-25T11:00:48.001Z</time></trkpt><trkpt lat="46.59078385537886" lon="26.727030281831897"><ele>321.0</ele><time>2026-04-25T11:00:49.001Z</time></trkpt><trkpt lat="46.59089692844133" lon="26.727068348311935"><ele>321.0</ele><time>2026-04-25T11:00:51.001Z</time></trkpt><trkpt lat="46.59096132264612" lon="26.72708214638063"><ele>321.0</ele><time>2026-04-25T11:00:52.001Z</time></trkpt><trkpt lat="46.591097206534585" lon="26.72708870597833"><ele>321.0</ele><time>2026-04-25T11:00:54.001Z</time></trkpt><trkpt lat="46.59116887391228" lon="26.727081132060263"><ele>321.0</ele><time>2026-04-25T11:00:55.001Z</time></trkpt><trkpt lat="46.59124270537224" lon="26.72707981737601"><ele>321.0</ele><time>2026-04-25T11:00:56.001Z</time></trkpt><trkpt lat="46.59130978541527" lon="26.727077833444525"><ele>321.0</ele><time>2026-04-25T11:00:57.001Z</time></trkpt><trkpt lat="46.59140424205669" lon="26.727138223852084"><ele>321.0</ele><time>2026-04-25T11:00:59Z</time></trkpt><trkpt lat="46.591512392410365" lon="26.727205210028806"><ele>321.0</ele><time>2026-04-25T11:01:01Z</time></trkpt><trkpt lat="46.591622646181115" lon="26.727262327468743"><ele>318.40000000000003</ele><time>2026-04-25T11:01:03Z</time></trkpt><trkpt lat="46.59171799101652" lon="26.727329279564984"><ele>315.8</ele><time>2026-04-25T11:01:05Z</time></trkpt><trkpt lat="46.591826375303825" lon="26.727354337563405"><ele>313.20000000000005</ele><time>2026-04-25T11:01:07Z</time></trkpt><trkpt lat="46.591940933384315" lon="26.72729077352344"><ele>310.6</ele><time>2026-04-25T11:01:09Z</time></trkpt><trkpt lat="46.59204470873224" lon="26.727264716638842"><ele>308.0</ele><time>2026-04-25T11:01:11Z</time></trkpt><trkpt lat="46.592146059480505" lon="26.727295842150372"><ele>306.0</ele><time>2026-04-25T11:01:13Z</time></trkpt><trkpt lat="46.59223336498281" lon="26.727306973401266"><ele>304.0</ele><time>2026-04-25T11:01:15Z</time></trkpt><trkpt lat="46.59227817258665" lon="26.727407272656116"><ele>302.0</ele><time>2026-04-25T11:01:17Z</time></trkpt><trkpt lat="46.59230354982174" lon="26.727507610813376"><ele>300.0</ele><time>2026-04-25T11:01:19Z</time></trkpt><trkpt lat="46.59228583544126" lon="26.727643750567957"><ele>298.0</ele><time>2026-04-25T11:01:21Z</time></trkpt><trkpt lat="46.59227181930295" lon="26.727782483939674"><ele>296.0</ele><time>2026-04-25T11:01:23Z</time></trkpt><trkpt lat="46.59223683486131" lon="26.727890956344005"><ele>296.0</ele><time>2026-04-25T11:01:25Z</time></trkpt><trkpt lat="46.59219244102399" lon="26.728007643776436"><ele>296.0</ele><time>2026-04-25T11:01:27Z</time></trkpt><trkpt lat="46.59215521424935" lon="26.72813521463873"><ele>296.0</ele><time>2026-04-25T11:01:29Z</time></trkpt><trkpt lat="46.59210491873219" lon="26.728274220177457"><ele>296.0</ele><time>2026-04-25T11:01:31Z</time></trkpt><trkpt lat="46.59204447941858" lon="26.728422383475422"><ele>296.0</ele><time>2026-04-25T11:01:33Z</time></trkpt><trkpt lat="46.592002488121494" lon="26.728566563228473"><ele>299.6</ele><time>2026-04-25T11:01:35Z</time></trkpt><trkpt lat="46.59196402881475" lon="26.72869604914304"><ele>303.20000000000005</ele><time>2026-04-25T11:01:37Z</time></trkpt><trkpt lat="46.591924351485815" lon="26.728832659822075"><ele>306.79999999999995</ele><time>2026-04-25T11:01:39Z</time></trkpt><trkpt lat="46.591885760500695" lon="26.728993005992013"><ele>310.4</ele><time>2026-04-25T11:01:41Z</time></trkpt><trkpt lat="46.59182865165256" lon="26.72911341197199"><ele>314.0</ele><time>2026-04-25T11:01:43Z</time></trkpt><trkpt lat="46.59173370796044" lon="26.729330855692478"><ele>313.25</ele><time>2026-04-25T11:01:45Z</time></trkpt><trkpt lat="46.59176340683231" lon="26.729469116064607"><ele>312.5</ele><time>2026-04-25T11:01:47Z</time></trkpt><trkpt lat="46.591940350668025" lon="26.729433586833228"><ele>311.75</ele><time>2026-04-25T11:01:48Z</time></trkpt><trkpt lat="46.59206388465868" lon="26.729430286861323"><ele>311.0</ele><time>2026-04-25T11:01:50Z</time></trkpt><trkpt lat="46.59218263256268" lon="26.729462647964105"><ele>308.6666666666667</ele><time>2026-04-25T11:01:52Z</time></trkpt><trkpt lat="46.59228230456008" lon="26.729446815812544"><ele>306.33333333333337</ele><time>2026-04-25T11:01:54Z</time></trkpt><trkpt lat="46.592343855177475" lon="26.729473064541374"><ele>304.0</ele><time>2026-04-25T11:01:55Z</time></trkpt><trkpt lat="46.592438371227914" lon="26.729479467283404"><ele>301.6666666666667</ele><time>2026-04-25T11:01:57Z</time></trkpt><trkpt lat="46.5924880897533" lon="26.729549171877505"><ele>299.3333333333333</ele><time>2026-04-25T11:01:58Z</time></trkpt><trkpt lat="46.5925481571634" lon="26.72958627525187"><ele>297.0</ele><time>2026-04-25T11:01:59Z</time></trkpt><trkpt lat="46.59263520204209" lon="26.72969121234531"><ele>297.0</ele><time>2026-04-25T11:02:01Z</time></trkpt><trkpt lat="46.59271406359642" lon="26.72977972832337"><ele>297.0</ele><time>2026-04-25T11:02:03Z</time></trkpt><trkpt lat="46.592740869409354" lon="26.729889460340676"><ele>297.0</ele><time>2026-04-25T11:02:04Z</time></trkpt><trkpt lat="46.59274167775663" lon="26.72998286151174"><ele>297.0</ele><time>2026-04-25T11:02:05Z</time></trkpt><trkpt lat="46.59274968234072" lon="26.73008446630149"><ele>297.0</ele><time>2026-04-25T11:02:06Z</time></trkpt><trkpt lat="46.59278159830097" lon="26.730256239406113"><ele>297.0</ele><time>2026-04-25T11:02:08Z</time></trkpt><trkpt lat="46.59276599415724" lon="26.730398915826648"><ele>295.0</ele><time>2026-04-25T11:02:10Z</time></trkpt><trkpt lat="46.592749713908354" lon="26.730543092237447"><ele>293.0</ele><time>2026-04-25T11:02:12Z</time></trkpt><trkpt lat="46.5927350332428" lon="26.730673812617813"><ele>291.0</ele><time>2026-04-25T11:02:14Z</time></trkpt><trkpt lat="46.592718815433464" lon="26.730806983029705"><ele>289.0</ele><time>2026-04-25T11:02:16Z</time></trkpt><trkpt lat="46.592605629136564" lon="26.730844193287602"><ele>287.0</ele><time>2026-04-25T11:02:17Z</time></trkpt><trkpt lat="46.59251560160333" lon="26.730923403043757"><ele>287.0</ele><time>2026-04-25T11:02:19Z</time></trkpt><trkpt lat="46.59245456045383" lon="26.730970698281364"><ele>287.0</ele><time>2026-04-25T11:02:20Z</time></trkpt><trkpt lat="46.59239814030585" lon="26.73102357564972"><ele>287.0</ele><time>2026-04-25T11:02:21Z</time></trkpt><trkpt lat="46.59233748152429" lon="26.7310773625347"><ele>287.0</ele><time>2026-04-25T11:02:22Z</time></trkpt><trkpt lat="46.59228820640571" lon="26.730916698926258"><ele>287.0</ele><time>2026-04-25T11:02:23Z</time></trkpt><trkpt lat="46.59220502221272" lon="26.730897746392515"><ele>287.0</ele><time>2026-04-25T11:02:24.999Z</time></trkpt><trkpt lat="46.59213272857273" lon="26.730901852701578"><ele>287.0</ele><time>2026-04-25T11:02:26.999Z</time></trkpt><trkpt lat="46.59206250248922" lon="26.73090584178994"><ele>287.0</ele><time>2026-04-25T11:02:28.999Z</time></trkpt><trkpt lat="46.591971438289455" lon="26.730911014586372"><ele>287.0</ele><time>2026-04-25T11:02:31.999Z</time></trkpt><trkpt lat="46.5916819953933" lon="26.730982501702186"><ele>292.0</ele><time>2026-04-25T11:02:34.999Z</time></trkpt><trkpt lat="46.59164936897385" lon="26.73174146986264"><ele>292.0</ele><time>2026-04-25T11:02:37.999Z</time></trkpt><trkpt lat="46.59183884984621" lon="26.731790745711145"><ele>292.0</ele><time>2026-04-25T11:02:38.999Z</time></trkpt><trkpt lat="46.591909925122295" lon="26.73189398901424"><ele>292.0</ele><time>2026-04-25T11:02:40.999Z</time></trkpt><trkpt lat="46.59200133075656" lon="26.73190741157262"><ele>292.0</ele><time>2026-04-25T11:02:41.999Z</time></trkpt><trkpt lat="46.59210476690438" lon="26.731937934481202"><ele>293.5</ele><time>2026-04-25T11:02:43.999Z</time></trkpt><trkpt lat="46.59222886821565" lon="26.731990285879856"><ele>295.0</ele><time>2026-04-25T11:02:45.999Z</time></trkpt><trkpt lat="46.592307804647625" lon="26.732023213396094"><ele>296.5</ele><time>2026-04-25T11:02:46.999Z</time></trkpt><trkpt lat="46.59238690970387" lon="26.732056840327214"><ele>298.0</ele><time>2026-04-25T11:02:47.999Z</time></trkpt><trkpt lat="46.59246016741374" lon="26.732084844054533"><ele>299.5</ele><time>2026-04-25T11:02:48.999Z</time></trkpt><trkpt lat="46.59252211009459" lon="26.732106803199834"><ele>301.0</ele><time>2026-04-25T11:02:49.999Z</time></trkpt><trkpt lat="46.59263513044774" lon="26.73210060789256"><ele>301.0</ele><time>2026-04-25T11:02:52.001Z</time></trkpt><trkpt lat="46.59270022433223" lon="26.73211853384582"><ele>301.0</ele><time>2026-04-25T11:02:53.001Z</time></trkpt><trkpt lat="46.592767305099535" lon="26.732128061797322"><ele>301.0</ele><time>2026-04-25T11:02:54.001Z</time></trkpt><trkpt lat="46.59283618856589" lon="26.7321377656447"><ele>301.0</ele><time>2026-04-25T11:02:55.001Z</time></trkpt><trkpt lat="46.59296545332439" lon="26.732181332287677"><ele>301.0</ele><time>2026-04-25T11:02:57.001Z</time></trkpt><trkpt lat="46.59303243488845" lon="26.7321932657786"><ele>301.0</ele><time>2026-04-25T11:02:58.001Z</time></trkpt><trkpt lat="46.59310451091684" lon="26.732206106908496"><ele>301.3333333333333</ele><time>2026-04-25T11:02:59Z</time></trkpt><trkpt lat="46.5931719090944" lon="26.732218114452596"><ele>301.66666666666663</ele><time>2026-04-25T11:03:00Z</time></trkpt><trkpt lat="46.593239274676925" lon="26.73223420571178"><ele>302.0</ele><time>2026-04-25T11:03:01Z</time></trkpt><trkpt lat="46.59330845718029" lon="26.732249800236442"><ele>302.3333333333333</ele><time>2026-04-25T11:03:02Z</time></trkpt><trkpt lat="46.593376894250994" lon="26.732265055207453"><ele>302.6666666666667</ele><time>2026-04-25T11:03:03Z</time></trkpt><trkpt lat="46.59349341109799" lon="26.732290387057887"><ele>303.0</ele><time>2026-04-25T11:03:05Z</time></trkpt><trkpt lat="46.59355698946612" lon="26.73229807820326"><ele>303.0</ele><time>2026-04-25T11:03:06Z</time></trkpt><trkpt lat="46.59361554961467" lon="26.73234465363463"><ele>303.0</ele><time>2026-04-25T11:03:07Z</time></trkpt><trkpt lat="46.59370279620556" lon="26.732463082357516"><ele>303.0</ele><time>2026-04-25T11:03:09Z</time></trkpt><trkpt lat="46.593756951692505" lon="26.732516938214303"><ele>303.0</ele><time>2026-04-25T11:03:10Z</time></trkpt><trkpt lat="46.59382860471248" lon="26.73258937256656"><ele>303.0</ele><time>2026-04-25T11:03:11Z</time></trkpt><trkpt lat="46.59388830053956" lon="26.732678614400555"><ele>303.0</ele><time>2026-04-25T11:03:12Z</time></trkpt><trkpt lat="46.59394399731048" lon="26.732763023125187"><ele>305.0</ele><time>2026-04-25T11:03:13Z</time></trkpt><trkpt lat="46.593996990431414" lon="26.73284327659028"><ele>307.0</ele><time>2026-04-25T11:03:14Z</time></trkpt><trkpt lat="46.594047451356175" lon="26.732919755189606"><ele>309.0</ele><time>2026-04-25T11:03:15Z</time></trkpt><trkpt lat="46.594082081984396" lon="26.73300325626508"><ele>311.0</ele><time>2026-04-25T11:03:16Z</time></trkpt><trkpt lat="46.594163872719655" lon="26.733119702461643"><ele>313.0</ele><time>2026-04-25T11:03:18Z</time></trkpt><trkpt lat="46.59420277868059" lon="26.73320536767601"><ele>315.0</ele><time>2026-04-25T11:03:19Z</time></trkpt><trkpt lat="46.59426646565724" lon="26.733355941604"><ele>315.0</ele><time>2026-04-25T11:03:21Z</time></trkpt><trkpt lat="46.59433792870593" lon="26.733471423129505"><ele>315.0</ele><time>2026-04-25T11:03:22Z</time></trkpt><trkpt lat="46.594453155516895" lon="26.733498610750402"><ele>315.0</ele><time>2026-04-25T11:03:24Z</time></trkpt><trkpt lat="46.59455244720168" lon="26.733519132425673"><ele>315.0</ele><time>2026-04-25T11:03:26Z</time></trkpt><trkpt lat="46.594624548727275" lon="26.733522116899874"><ele>315.0</ele><time>2026-04-25T11:03:27Z</time></trkpt><trkpt lat="46.59466960293272" lon="26.73345706226145"><ele>314.0</ele><time>2026-04-25T11:03:28Z</time></trkpt><trkpt lat="46.59477732725323" lon="26.733392088501787"><ele>313.0</ele><time>2026-04-25T11:03:30Z</time></trkpt><trkpt lat="46.59485974902774" lon="26.733343615356965"><ele>312.0</ele><time>2026-04-25T11:03:32Z</time></trkpt><trkpt lat="46.59495501960472" lon="26.7332858609025"><ele>311.0</ele><time>2026-04-25T11:03:34Z</time></trkpt><trkpt lat="46.59502107760816" lon="26.733234078186058"><ele>310.0</ele><time>2026-04-25T11:03:35Z</time></trkpt><trkpt lat="46.59511505469476" lon="26.73314897678639"><ele>310.0</ele><time>2026-04-25T11:03:37Z</time></trkpt><trkpt lat="46.59522388480019" lon="26.733069953956182"><ele>310.0</ele><time>2026-04-25T11:03:39Z</time></trkpt><trkpt lat="46.5952884733023" lon="26.73307632642032"><ele>310.0</ele><time>2026-04-25T11:03:40Z</time></trkpt><trkpt lat="46.59539870214325" lon="26.733046817085"><ele>310.0</ele><time>2026-04-25T11:03:42Z</time></trkpt><trkpt lat="46.59549852897128" lon="26.732964463802425"><ele>310.0</ele><time>2026-04-25T11:03:44Z</time></trkpt><trkpt lat="46.5956090925749" lon="26.732905858179624"><ele>310.0</ele><time>2026-04-25T11:03:46Z</time></trkpt><trkpt lat="46.59563179736427" lon="26.732820123494747"><ele>310.0</ele><time>2026-04-25T11:03:47Z</time></trkpt><trkpt lat="46.59569129611986" lon="26.732694756352913"><ele>310.0</ele><time>2026-04-25T11:03:49Z</time></trkpt><trkpt lat="46.5957537154818" lon="26.732569899116214"><ele>310.0</ele><time>2026-04-25T11:03:51Z</time></trkpt><trkpt lat="46.59578461261592" lon="26.732413824598765"><ele>310.0</ele><time>2026-04-25T11:03:53Z</time></trkpt><trkpt lat="46.59582751431625" lon="26.73227404957767"><ele>310.0</ele><time>2026-04-25T11:03:55Z</time></trkpt><trkpt lat="46.5957804598336" lon="26.732206015039736"><ele>310.0</ele><time>2026-04-25T11:03:56Z</time></trkpt><trkpt lat="46.59577454455454" lon="26.73210539338539"><ele>310.0</ele><time>2026-04-25T11:03:57Z</time></trkpt><trkpt lat="46.595714524022554" lon="26.732034190247635"><ele>310.0</ele><time>2026-04-25T11:03:58Z</time></trkpt><trkpt lat="46.59567911206372" lon="26.731944714571767"><ele>310.0</ele><time>2026-04-25T11:03:59Z</time></trkpt><trkpt lat="46.59563786966929" lon="26.731873707856398"><ele>310.0</ele><time>2026-04-25T11:04:00Z</time></trkpt><trkpt lat="46.59559329392878" lon="26.7317995448621"><ele>310.0</ele><time>2026-04-25T11:04:01Z</time></trkpt><trkpt lat="46.595593435946974" lon="26.731699203139947"><ele>310.3333333333333</ele><time>2026-04-25T11:04:02Z</time></trkpt><trkpt lat="46.595582014871454" lon="26.731593802875214"><ele>310.66666666666663</ele><time>2026-04-25T11:04:03Z</time></trkpt><trkpt lat="46.595578746681504" lon="26.731486893406792"><ele>311.0</ele><time>2026-04-25T11:04:04Z</time></trkpt><trkpt lat="46.59556140993354" lon="26.731383202014637"><ele>311.3333333333333</ele><time>2026-04-25T11:04:05Z</time></trkpt><trkpt lat="46.59555828435874" lon="26.731267617967468"><ele>311.6666666666667</ele><time>2026-04-25T11:04:06Z</time></trkpt><trkpt lat="46.59555392985996" lon="26.731154858100965"><ele>312.0</ele><time>2026-04-25T11:04:07Z</time></trkpt><trkpt lat="46.5955497493893" lon="26.7310457069286"><ele>312.5714285714286</ele><time>2026-04-25T11:04:08Z</time></trkpt><trkpt lat="46.59554238535761" lon="26.73094931356425"><ele>313.1428571428571</ele><time>2026-04-25T11:04:09Z</time></trkpt><trkpt lat="46.59553739410346" lon="26.73085406431634"><ele>313.7142857142857</ele><time>2026-04-25T11:04:10Z</time></trkpt><trkpt lat="46.595576685899545" lon="26.73076890348737"><ele>314.28571428571433</ele><time>2026-04-25T11:04:11Z</time></trkpt><trkpt lat="46.59559513005324" lon="26.730675658178153"><ele>314.8571428571429</ele><time>2026-04-25T11:04:12Z</time></trkpt><trkpt lat="46.59561519461059" lon="26.730576658369348"><ele>315.42857142857144</ele><time>2026-04-25T11:04:13Z</time></trkpt><trkpt lat="46.5956682968678" lon="26.730496272377685"><ele>316.0</ele><time>2026-04-25T11:04:14Z</time></trkpt><trkpt lat="46.59572241499352" lon="26.730437432875455"><ele>316.0</ele><time>2026-04-25T11:04:15Z</time></trkpt><trkpt lat="46.59578546723723" lon="26.73038459112938"><ele>316.0</ele><time>2026-04-25T11:04:15.999Z</time></trkpt><trkpt lat="46.59583530833888" lon="26.730325353211065"><ele>316.0</ele><time>2026-04-25T11:04:16.999Z</time></trkpt><trkpt lat="46.595944551677356" lon="26.73023021339576"><ele>316.0</ele><time>2026-04-25T11:04:18.999Z</time></trkpt><trkpt lat="46.59600032285289" lon="26.73018161203907"><ele>316.0</ele><time>2026-04-25T11:04:19.999Z</time></trkpt><trkpt lat="46.596068887188004" lon="26.730046218200673"><ele>316.0</ele><time>2026-04-25T11:04:21.999Z</time></trkpt><trkpt lat="46.59611217521318" lon="26.72996752352357"><ele>319.75</ele><time>2026-04-25T11:04:22.999Z</time></trkpt><trkpt lat="46.59618825926832" lon="26.72982671685555"><ele>323.5</ele><time>2026-04-25T11:04:24.999Z</time></trkpt><trkpt lat="46.59623280012795" lon="26.72974408319628"><ele>327.25</ele><time>2026-04-25T11:04:25.999Z</time></trkpt><trkpt lat="46.5963076696843" lon="26.729602030632737"><ele>331.0</ele><time>2026-04-25T11:04:27.999Z</time></trkpt><trkpt lat="46.5963747692435" lon="26.72942716066374"><ele>329.16666666666663</ele><time>2026-04-25T11:04:29.999Z</time></trkpt><trkpt lat="46.5964195211124" lon="26.729357539753142"><ele>327.3333333333333</ele><time>2026-04-25T11:04:30.999Z</time></trkpt><trkpt lat="46.59644032250021" lon="26.729158222257908"><ele>325.5</ele><time>2026-04-25T11:04:32.999Z</time></trkpt><trkpt lat="46.5964579754242" lon="26.72906127118109"><ele>323.6666666666667</ele><time>2026-04-25T11:04:33.999Z</time></trkpt><trkpt lat="46.5964601877008" lon="26.72895238297057"><ele>321.83333333333337</ele><time>2026-04-25T11:04:34.999Z</time></trkpt><trkpt lat="46.59650635764137" lon="26.72887383878878"><ele>320.0</ele><time>2026-04-25T11:04:35.999Z</time></trkpt><trkpt lat="46.596531858477086" lon="26.728773801385138"><ele>320.0</ele><time>2026-04-25T11:04:36.999Z</time></trkpt><trkpt lat="46.59655605059723" lon="26.728686718442738"><ele>320.0</ele><time>2026-04-25T11:04:37.999Z</time></trkpt><trkpt lat="46.59658342152784" lon="26.728587142502473"><ele>320.0</ele><time>2026-04-25T11:04:38.999Z</time></trkpt><trkpt lat="46.59660589527346" lon="26.72849614383952"><ele>320.0</ele><time>2026-04-25T11:04:39.999Z</time></trkpt><trkpt lat="46.59662836295538" lon="26.728407729115272"><ele>320.0</ele><time>2026-04-25T11:04:40.999Z</time></trkpt><trkpt lat="46.59665178571177" lon="26.728312091156546"><ele>320.0</ele><time>2026-04-25T11:04:41.999Z</time></trkpt><trkpt lat="46.596673832939466" lon="26.72822576530992"><ele>320.0</ele><time>2026-04-25T11:04:42.999Z</time></trkpt><trkpt lat="46.596710277331574" lon="26.728079494"><ele>320.33333333333337</ele><time>2026-04-25T11:04:44.999Z</time></trkpt><trkpt lat="46.596796491048146" lon="26.72800849870775"><ele>320.6666666666667</ele><time>2026-04-25T11:04:46.999Z</time></trkpt><trkpt lat="46.5968632412216" lon="26.727932595079114"><ele>321.0</ele><time>2026-04-25T11:04:48.999Z</time></trkpt><trkpt lat="46.59693511336303" lon="26.727957988790727"><ele>321.3333333333333</ele><time>2026-04-25T11:04:50.999Z</time></trkpt><trkpt lat="46.597035562228726" lon="26.72796287525636"><ele>321.66666666666663</ele><time>2026-04-25T11:04:52.999Z</time></trkpt><trkpt lat="46.59710800037156" lon="26.727966065037002"><ele>322.0</ele><time>2026-04-25T11:04:53.999Z</time></trkpt><trkpt lat="46.59717641351056" lon="26.72794435368096"><ele>322.0</ele><time>2026-04-25T11:04:54.999Z</time></trkpt><trkpt lat="46.5972491935988" lon="26.727959767483465"><ele>322.0</ele><time>2026-04-25T11:04:55.999Z</time></trkpt><trkpt lat="46.597315100316436" lon="26.727982647703097"><ele>322.0</ele><time>2026-04-25T11:04:57Z</time></trkpt><trkpt lat="46.59738766689057" lon="26.727966062631022"><ele>322.0</ele><time>2026-04-25T11:04:58.001Z</time></trkpt><trkpt lat="46.597455542919505" lon="26.72799607144171"><ele>322.0</ele><time>2026-04-25T11:04:59Z</time></trkpt><trkpt lat="46.59757957712659" lon="26.728049906729854"><ele>322.0</ele><time>2026-04-25T11:05:01Z</time></trkpt><trkpt lat="46.59768615378913" lon="26.728097072552668"><ele>322.0</ele><time>2026-04-25T11:05:03Z</time></trkpt><trkpt lat="46.59781220785943" lon="26.72825874715551"><ele>322.0</ele><time>2026-04-25T11:05:05Z</time></trkpt><trkpt lat="46.59784553742458" lon="26.72833700234156"><ele>322.0</ele><time>2026-04-25T11:05:06Z</time></trkpt><trkpt lat="46.59789540939681" lon="26.728405398290537"><ele>322.0</ele><time>2026-04-25T11:05:07Z</time></trkpt><trkpt lat="46.597931055469935" lon="26.728483379670948"><ele>322.0</ele><time>2026-04-25T11:05:08Z</time></trkpt><trkpt lat="46.59798126355557" lon="26.72854332916682"><ele>322.0</ele><time>2026-04-25T11:05:09Z</time></trkpt><trkpt lat="46.59804958257734" lon="26.72857351091533"><ele>322.0</ele><time>2026-04-25T11:05:10Z</time></trkpt><trkpt lat="46.5981219335058" lon="26.7285962643328"><ele>322.0</ele><time>2026-04-25T11:05:11Z</time></trkpt><trkpt lat="46.59823112731455" lon="26.7285545457561"><ele>322.0</ele><time>2026-04-25T11:05:13Z</time></trkpt><trkpt lat="46.598303678919606" lon="26.728526915357033"><ele>322.0</ele><time>2026-04-25T11:05:14Z</time></trkpt><trkpt lat="46.59836719481341" lon="26.728485078999707"><ele>322.0</ele><time>2026-04-25T11:05:15Z</time></trkpt><trkpt lat="46.598434002627755" lon="26.72829755219175"><ele>322.0</ele><time>2026-04-25T11:05:17Z</time></trkpt><trkpt lat="46.598481003079876" lon="26.728219183410015"><ele>322.0</ele><time>2026-04-25T11:05:18Z</time></trkpt><trkpt lat="46.59849559378404" lon="26.728115699268432"><ele>322.0</ele><time>2026-04-25T11:05:19Z</time></trkpt><trkpt lat="46.59853368069619" lon="26.728018154576965"><ele>322.0</ele><time>2026-04-25T11:05:20Z</time></trkpt><trkpt lat="46.59856510610183" lon="26.727926097402044"><ele>322.0</ele><time>2026-04-25T11:05:21Z</time></trkpt><trkpt lat="46.59860030411585" lon="26.727828407709012"><ele>322.0</ele><time>2026-04-25T11:05:22Z</time></trkpt><trkpt lat="46.59864029906821" lon="26.727719622805143"><ele>321.42857142857144</ele><time>2026-04-25T11:05:23Z</time></trkpt><trkpt lat="46.59866867359545" lon="26.72761668900212"><ele>320.8571428571429</ele><time>2026-04-25T11:05:24Z</time></trkpt><trkpt lat="46.598712139332335" lon="26.72753502288306"><ele>320.2857142857143</ele><time>2026-04-25T11:05:25Z</time></trkpt><trkpt lat="46.59874012503704" lon="26.727439659649484"><ele>319.7142857142857</ele><time>2026-04-25T11:05:26Z</time></trkpt><trkpt lat="46.598779299738936" lon="26.727336982350113"><ele>319.14285714285717</ele><time>2026-04-25T11:05:27Z</time></trkpt><trkpt lat="46.59881861097228" lon="26.727228955739026"><ele>318.57142857142856</ele><time>2026-04-25T11:05:28Z</time></trkpt><trkpt lat="46.59886350729432" lon="26.727158328210443"><ele>318.0</ele><time>2026-04-25T11:05:29Z</time></trkpt><trkpt lat="46.59893390074943" lon="26.727014544146247"><ele>318.6666666666667</ele><time>2026-04-25T11:05:31Z</time></trkpt><trkpt lat="46.59901135578937" lon="26.726859911400876"><ele>319.3333333333333</ele><time>2026-04-25T11:05:33Z</time></trkpt><trkpt lat="46.59909087951559" lon="26.726855246170455"><ele>320.0</ele><time>2026-04-25T11:05:34Z</time></trkpt><trkpt lat="46.599165622289384" lon="26.72683080171383"><ele>320.66666666666663</ele><time>2026-04-25T11:05:35Z</time></trkpt><trkpt lat="46.59922936970623" lon="26.72678993389444"><ele>321.3333333333333</ele><time>2026-04-25T11:05:36Z</time></trkpt><trkpt lat="46.599310898454746" lon="26.726769904201046"><ele>322.0</ele><time>2026-04-25T11:05:37Z</time></trkpt><trkpt lat="46.59938787083778" lon="26.726753870042458"><ele>322.0</ele><time>2026-04-25T11:05:38Z</time></trkpt><trkpt lat="46.59945983706651" lon="26.726742585182375"><ele>322.0</ele><time>2026-04-25T11:05:39Z</time></trkpt><trkpt lat="46.59952646516633" lon="26.726724820230814"><ele>322.0</ele><time>2026-04-25T11:05:40Z</time></trkpt><trkpt lat="46.5996014437382" lon="26.726689870027247"><ele>322.0</ele><time>2026-04-25T11:05:41Z</time></trkpt><trkpt lat="46.59967406516339" lon="26.7266413237252"><ele>322.0</ele><time>2026-04-25T11:05:42Z</time></trkpt><trkpt lat="46.59975159871296" lon="26.72658929284175"><ele>322.0</ele><time>2026-04-25T11:05:43Z</time></trkpt><trkpt lat="46.59982848912563" lon="26.72651864820676"><ele>320.66666666666663</ele><time>2026-04-25T11:05:44Z</time></trkpt><trkpt lat="46.59991007918616" lon="26.72645548006627"><ele>319.3333333333333</ele><time>2026-04-25T11:05:45Z</time></trkpt><trkpt lat="46.599991319660866" lon="26.726422190048815"><ele>318.0</ele><time>2026-04-25T11:05:46Z</time></trkpt><trkpt lat="46.60005659926931" lon="26.726365507698567"><ele>316.6666666666667</ele><time>2026-04-25T11:05:47Z</time></trkpt><trkpt lat="46.60011594868176" lon="26.7263210413601"><ele>315.33333333333337</ele><time>2026-04-25T11:05:48Z</time></trkpt><trkpt lat="46.60020007927961" lon="26.72631756319616"><ele>314.0</ele><time>2026-04-25T11:05:49Z</time></trkpt><trkpt lat="46.600298731626765" lon="26.72631868914752"><ele>312.1666666666667</ele><time>2026-04-25T11:05:50Z</time></trkpt><trkpt lat="46.600387613196744" lon="26.726288730561972"><ele>310.33333333333337</ele><time>2026-04-25T11:05:51Z</time></trkpt><trkpt lat="46.600468923923664" lon="26.72627935236893"><ele>308.5</ele><time>2026-04-25T11:05:52Z</time></trkpt><trkpt lat="46.600563650143854" lon="26.72626679454976"><ele>306.6666666666667</ele><time>2026-04-25T11:05:53Z</time></trkpt><trkpt lat="46.60065660566972" lon="26.72625381440528"><ele>304.8333333333333</ele><time>2026-04-25T11:05:54Z</time></trkpt><trkpt lat="46.6007413760278" lon="26.72624306269307"><ele>303.0</ele><time>2026-04-25T11:05:55Z</time></trkpt><trkpt lat="46.60081868650635" lon="26.726233392183513"><ele>303.0</ele><time>2026-04-25T11:05:56Z</time></trkpt><trkpt lat="46.60089426706345" lon="26.726243573394534"><ele>303.0</ele><time>2026-04-25T11:05:57Z</time></trkpt><trkpt lat="46.60096817076662" lon="26.72623588659682"><ele>303.0</ele><time>2026-04-25T11:05:58Z</time></trkpt><trkpt lat="46.60104159994575" lon="26.726228249563523"><ele>303.0</ele><time>2026-04-25T11:05:59Z</time></trkpt><trkpt lat="46.60110855973703" lon="26.72622128577917"><ele>303.0</ele><time>2026-04-25T11:06:00Z</time></trkpt><trkpt lat="46.60116285128075" lon="26.726164719033683"><ele>303.0</ele><time>2026-04-25T11:06:01Z</time></trkpt><trkpt lat="46.601228337665" lon="26.72612012647762"><ele>303.0</ele><time>2026-04-25T11:06:02Z</time></trkpt><trkpt lat="46.60134998671401" lon="26.726047727493913"><ele>302.42857142857144</ele><time>2026-04-25T11:06:04Z</time></trkpt><trkpt lat="46.60145257535633" lon="26.725967027692803"><ele>301.85714285714283</ele><time>2026-04-25T11:06:06Z</time></trkpt><trkpt lat="46.60150677722346" lon="26.725900528828706"><ele>301.2857142857143</ele><time>2026-04-25T11:06:07Z</time></trkpt><trkpt lat="46.601541560213505" lon="26.725819170505982"><ele>300.7142857142857</ele><time>2026-04-25T11:06:08Z</time></trkpt><trkpt lat="46.60158979765953" lon="26.72575370152456"><ele>300.14285714285717</ele><time>2026-04-25T11:06:09Z</time></trkpt><trkpt lat="46.601634015389656" lon="26.725686095484757"><ele>299.57142857142856</ele><time>2026-04-25T11:06:10Z</time></trkpt><trkpt lat="46.60167165254906" lon="26.72560743640461"><ele>299.0</ele><time>2026-04-25T11:06:11Z</time></trkpt><trkpt lat="46.60173302272407" lon="26.72556513845592"><ele>299.0</ele><time>2026-04-25T11:06:12Z</time></trkpt><trkpt lat="46.60180081974319" lon="26.725417074314176"><ele>299.0</ele><time>2026-04-25T11:06:13.999Z</time></trkpt><trkpt lat="46.601864990792066" lon="26.7252754335643"><ele>299.0</ele><time>2026-04-25T11:06:15.999Z</time></trkpt><trkpt lat="46.60192330230622" lon="26.725147844644212"><ele>299.0</ele><time>2026-04-25T11:06:17.999Z</time></trkpt><trkpt lat="46.601986581515625" lon="26.725009240064114"><ele>299.8</ele><time>2026-04-25T11:06:19.999Z</time></trkpt><trkpt lat="46.60203000758973" lon="26.724850330450142"><ele>300.59999999999997</ele><time>2026-04-25T11:06:20.999Z</time></trkpt><trkpt lat="46.602009150320434" lon="26.724670203791234"><ele>301.4</ele><time>2026-04-25T11:06:22.999Z</time></trkpt><trkpt lat="46.601975592531524" lon="26.724526313027088"><ele>302.2</ele><time>2026-04-25T11:06:24.999Z</time></trkpt><trkpt lat="46.601980635481105" lon="26.724434572726587"><ele>303.0</ele><time>2026-04-25T11:06:26.999Z</time></trkpt><trkpt lat="46.602026249742465" lon="26.724291748016903"><ele>293.5</ele><time>2026-04-25T11:06:28.999Z</time></trkpt><trkpt lat="46.602061664372066" lon="26.724153285386784"><ele>284.0</ele><time>2026-04-25T11:06:30.999Z</time></trkpt><trkpt lat="46.60213743908472" lon="26.724004838883666"><ele>274.5</ele><time>2026-04-25T11:06:32.999Z</time></trkpt><trkpt lat="46.60215412959222" lon="26.723870578886903"><ele>265.0</ele><time>2026-04-25T11:06:34.999Z</time></trkpt><trkpt lat="46.602036287799564" lon="26.723699210081325"><ele>265.6</ele><time>2026-04-25T11:06:35.999Z</time></trkpt><trkpt lat="46.60194778459345" lon="26.723632266682248"><ele>266.2</ele><time>2026-04-25T11:06:37.999Z</time></trkpt><trkpt lat="46.60187987892878" lon="26.723610490048586"><ele>266.8</ele><time>2026-04-25T11:06:38.999Z</time></trkpt><trkpt lat="46.60176949744249" lon="26.723585178269726"><ele>267.4</ele><time>2026-04-25T11:06:40.999Z</time></trkpt><trkpt lat="46.60166085080851" lon="26.72351726464623"><ele>268.0</ele><time>2026-04-25T11:06:42.999Z</time></trkpt><trkpt lat="46.60154921199234" lon="26.723469936740145"><ele>268.0</ele><time>2026-04-25T11:06:44.999Z</time></trkpt><trkpt lat="46.60144137051056" lon="26.72342615658917"><ele>268.0</ele><time>2026-04-25T11:06:46.999Z</time></trkpt><trkpt lat="46.60133561723074" lon="26.723384871896307"><ele>268.0</ele><time>2026-04-25T11:06:48.999Z</time></trkpt><trkpt lat="46.60127432518837" lon="26.72336152601124"><ele>268.0</ele><time>2026-04-25T11:06:49.999Z</time></trkpt><trkpt lat="46.60119189624139" lon="26.72332669449997"><ele>268.0</ele><time>2026-04-25T11:06:51.999Z</time></trkpt><trkpt lat="46.60109414810995" lon="26.723273321365863"><ele>269.16666666666663</ele><time>2026-04-25T11:06:53.999Z</time></trkpt><trkpt lat="46.601020501899036" lon="26.723207596325466"><ele>270.3333333333333</ele><time>2026-04-25T11:06:55.999Z</time></trkpt><trkpt lat="46.60095041608014" lon="26.72315424307193"><ele>271.5</ele><time>2026-04-25T11:06:57.999Z</time></trkpt><trkpt lat="46.60091287298698" lon="26.723059353255085"><ele>272.6666666666667</ele><time>2026-04-25T11:06:59.999Z</time></trkpt><trkpt lat="46.60089926727611" lon="26.722931265886857"><ele>273.83333333333337</ele><time>2026-04-25T11:07:01.999Z</time></trkpt><trkpt lat="46.60093834303857" lon="26.722818634271256"><ele>275.0</ele><time>2026-04-25T11:07:04Z</time></trkpt><trkpt lat="46.6009972660688" lon="26.722719855344057"><ele>273.83333333333337</ele><time>2026-04-25T11:07:06Z</time></trkpt><trkpt lat="46.60104390069476" lon="26.72262283477947"><ele>272.6666666666667</ele><time>2026-04-25T11:07:08Z</time></trkpt><trkpt lat="46.6011047255877" lon="26.72268758574862"><ele>271.5</ele><time>2026-04-25T11:07:09Z</time></trkpt><trkpt lat="46.60118786624425" lon="26.72270792095262"><ele>270.3333333333333</ele><time>2026-04-25T11:07:11Z</time></trkpt><trkpt lat="46.60126825569402" lon="26.722733285416275"><ele>269.16666666666663</ele><time>2026-04-25T11:07:13Z</time></trkpt><trkpt lat="46.60135533762769" lon="26.722742531880314"><ele>268.0</ele><time>2026-04-25T11:07:15Z</time></trkpt><trkpt lat="46.601430715249606" lon="26.72277622726724"><ele>268.0</ele><time>2026-04-25T11:07:17Z</time></trkpt><trkpt lat="46.6015341243364" lon="26.722797950214257"><ele>268.0</ele><time>2026-04-25T11:07:19Z</time></trkpt><trkpt lat="46.60164665229851" lon="26.722822847168892"><ele>268.0</ele><time>2026-04-25T11:07:21Z</time></trkpt><trkpt lat="46.60176885168145" lon="26.722851902931026"><ele>268.0</ele><time>2026-04-25T11:07:23Z</time></trkpt><trkpt lat="46.60183407061389" lon="26.72286448420182"><ele>268.0</ele><time>2026-04-25T11:07:24Z</time></trkpt><trkpt lat="46.601953032935384" lon="26.722882769062945"><ele>264.2</ele><time>2026-04-25T11:07:26Z</time></trkpt><trkpt lat="46.60208048452067" lon="26.72287672582376"><ele>260.4</ele><time>2026-04-25T11:07:28Z</time></trkpt><trkpt lat="46.60219235751892" lon="26.72287097248685"><ele>256.59999999999997</ele><time>2026-04-25T11:07:30Z</time></trkpt><trkpt lat="46.602240632917336" lon="26.722805494056864"><ele>252.79999999999998</ele><time>2026-04-25T11:07:31Z</time></trkpt><trkpt lat="46.6023530257476" lon="26.722748042738218"><ele>249.0</ele><time>2026-04-25T11:07:33Z</time></trkpt><trkpt lat="46.60241953614448" lon="26.722626402743526"><ele>246.0</ele><time>2026-04-25T11:07:35Z</time></trkpt><trkpt lat="46.60248160910344" lon="26.722530047850267"><ele>242.99999999999997</ele><time>2026-04-25T11:07:37Z</time></trkpt><trkpt lat="46.602505249814214" lon="26.72238979506922"><ele>239.99999999999997</ele><time>2026-04-25T11:07:39Z</time></trkpt><trkpt lat="46.60253090768498" lon="26.72221975820922"><ele>237.0</ele><time>2026-04-25T11:07:41Z</time></trkpt><trkpt lat="46.602558115650616" lon="26.722104064753637"><ele>234.0</ele><time>2026-04-25T11:07:43Z</time></trkpt><trkpt lat="46.60258470556297" lon="26.721970131952112"><ele>233.6</ele><time>2026-04-25T11:07:45Z</time></trkpt><trkpt lat="46.60261253652063" lon="26.721842228723187"><ele>233.2</ele><time>2026-04-25T11:07:47Z</time></trkpt><trkpt lat="46.60263680188507" lon="26.721711865107633"><ele>232.79999999999998</ele><time>2026-04-25T11:07:49Z</time></trkpt><trkpt lat="46.602684315868984" lon="26.72160569356229"><ele>232.39999999999998</ele><time>2026-04-25T11:07:51Z</time></trkpt><trkpt lat="46.60277278978063" lon="26.721526071816616"><ele>232.0</ele><time>2026-04-25T11:07:53Z</time></trkpt><trkpt lat="46.602872688158406" lon="26.72144418584484"><ele>231.8</ele><time>2026-04-25T11:07:55Z</time></trkpt><trkpt lat="46.60293367990959" lon="26.721409172785737"><ele>231.6</ele><time>2026-04-25T11:07:56Z</time></trkpt><trkpt lat="46.603058262114025" lon="26.721353954888276"><ele>231.40000000000003</ele><time>2026-04-25T11:07:58Z</time></trkpt><trkpt lat="46.603160613871744" lon="26.721292655539578"><ele>231.20000000000002</ele><time>2026-04-25T11:08:00Z</time></trkpt><trkpt lat="46.603239390026744" lon="26.721219830245442"><ele>231.0</ele><time>2026-04-25T11:08:02Z</time></trkpt><trkpt lat="46.603314496859554" lon="26.72114673808099"><ele>231.20000000000002</ele><time>2026-04-25T11:08:04Z</time></trkpt><trkpt lat="46.60339431121983" lon="26.721034770004522"><ele>231.40000000000003</ele><time>2026-04-25T11:08:06Z</time></trkpt><trkpt lat="46.60344243966795" lon="26.720943145152294"><ele>231.6</ele><time>2026-04-25T11:08:08Z</time></trkpt><trkpt lat="46.60350451641601" lon="26.720849774233212"><ele>231.8</ele><time>2026-04-25T11:08:10.999Z</time></trkpt><trkpt lat="46.60361102674891" lon="26.720882357525685"><ele>232.0</ele><time>2026-04-25T11:08:13.999Z</time></trkpt><trkpt lat="46.603739406736615" lon="26.72091463668606"><ele>232.16666666666666</ele><time>2026-04-25T11:08:15.999Z</time></trkpt><trkpt lat="46.60381078596682" lon="26.720932267226495"><ele>232.33333333333331</ele><time>2026-04-25T11:08:16.999Z</time></trkpt><trkpt lat="46.603893420957235" lon="26.72092983868446"><ele>232.5</ele><time>2026-04-25T11:08:17.999Z</time></trkpt><trkpt lat="46.60398500522208" lon="26.720955626157576"><ele>232.66666666666669</ele><time>2026-04-25T11:08:18.999Z</time></trkpt><trkpt lat="46.604079507606436" lon="26.720975638037707"><ele>232.83333333333334</ele><time>2026-04-25T11:08:19.999Z</time></trkpt><trkpt lat="46.60417047334355" lon="26.72102063000788"><ele>233.0</ele><time>2026-04-25T11:08:20.999Z</time></trkpt><trkpt lat="46.60427416242185" lon="26.7210467348305"><ele>232.0</ele><time>2026-04-25T11:08:21.999Z</time></trkpt><trkpt lat="46.6043822899137" lon="26.72107360286884"><ele>231.0</ele><time>2026-04-25T11:08:22.999Z</time></trkpt><trkpt lat="46.604496522070576" lon="26.721099097145427"><ele>230.0</ele><time>2026-04-25T11:08:23.999Z</time></trkpt><trkpt lat="46.604608526546684" lon="26.721121235421307"><ele>229.0</ele><time>2026-04-25T11:08:24.999Z</time></trkpt><trkpt lat="46.60472882275546" lon="26.721145012622138"><ele>229.0</ele><time>2026-04-25T11:08:25.999Z</time></trkpt><trkpt lat="46.60485133249363" lon="26.721169215735085"><ele>229.0</ele><time>2026-04-25T11:08:26.999Z</time></trkpt><trkpt lat="46.60496985793207" lon="26.721192608127904"><ele>229.0</ele><time>2026-04-25T11:08:27.999Z</time></trkpt><trkpt lat="46.605096490428984" lon="26.721217421574288"><ele>229.0</ele><time>2026-04-25T11:08:28.999Z</time></trkpt><trkpt lat="46.60522762504132" lon="26.721243034400967"><ele>229.5</ele><time>2026-04-25T11:08:29.999Z</time></trkpt><trkpt lat="46.60535949525518" lon="26.721268792258545"><ele>230.0</ele><time>2026-04-25T11:08:30.999Z</time></trkpt><trkpt lat="46.60549421508293" lon="26.721295654602756"><ele>230.5</ele><time>2026-04-25T11:08:31.999Z</time></trkpt><trkpt lat="46.60561325301917" lon="26.721319390057776"><ele>231.0</ele><time>2026-04-25T11:08:32.999Z</time></trkpt><trkpt lat="46.60574447619936" lon="26.721345763975364"><ele>231.0</ele><time>2026-04-25T11:08:33.999Z</time></trkpt><trkpt lat="46.60586839548765" lon="26.721371633260443"><ele>231.0</ele><time>2026-04-25T11:08:34.999Z</time></trkpt><trkpt lat="46.605986255124414" lon="26.72139637914949"><ele>231.0</ele><time>2026-04-25T11:08:35.999Z</time></trkpt><trkpt lat="46.60610332310133" lon="26.72142110085656"><ele>231.0</ele><time>2026-04-25T11:08:36.999Z</time></trkpt><trkpt lat="46.60621840982513" lon="26.72144540417109"><ele>230.5</ele><time>2026-04-25T11:08:37.999Z</time></trkpt><trkpt lat="46.60633831602231" lon="26.721470689211717"><ele>230.0</ele><time>2026-04-25T11:08:38.999Z</time></trkpt><trkpt lat="46.60645724520559" lon="26.721494822471616"><ele>229.5</ele><time>2026-04-25T11:08:39.999Z</time></trkpt><trkpt lat="46.60657836177262" lon="26.721520148912713"><ele>229.0</ele><time>2026-04-25T11:08:40.999Z</time></trkpt><trkpt lat="46.60669752556204" lon="26.721545765630417"><ele>229.0</ele><time>2026-04-25T11:08:41.999Z</time></trkpt><trkpt lat="46.60682005017924" lon="26.721571036318853"><ele>229.0</ele><time>2026-04-25T11:08:42.999Z</time></trkpt><trkpt lat="46.60693691418929" lon="26.721595260647657"><ele>229.0</ele><time>2026-04-25T11:08:43.999Z</time></trkpt><trkpt lat="46.60705246381393" lon="26.72161925364654"><ele>229.0</ele><time>2026-04-25T11:08:44.999Z</time></trkpt><trkpt lat="46.60718071938854" lon="26.721646045809266"><ele>228.75</ele><time>2026-04-25T11:08:45.999Z</time></trkpt><trkpt lat="46.60730526844905" lon="26.72167228252269"><ele>228.5</ele><time>2026-04-25T11:08:46.999Z</time></trkpt><trkpt lat="46.607430708406554" lon="26.72169870699401"><ele>228.25</ele><time>2026-04-25T11:08:47.999Z</time></trkpt><trkpt lat="46.60756654023749" lon="26.72172732052811"><ele>228.0</ele><time>2026-04-25T11:08:48.999Z</time></trkpt><trkpt lat="46.60770463584302" lon="26.721756036879682"><ele>228.5</ele><time>2026-04-25T11:08:49.999Z</time></trkpt><trkpt lat="46.607852681614474" lon="26.721786777459354"><ele>229.0</ele><time>2026-04-25T11:08:50.999Z</time></trkpt><trkpt lat="46.60798013827836" lon="26.721813847362377"><ele>229.5</ele><time>2026-04-25T11:08:51.999Z</time></trkpt><trkpt lat="46.60809716948512" lon="26.72183872305531"><ele>230.0</ele><time>2026-04-25T11:08:52.999Z</time></trkpt><trkpt lat="46.608205633278025" lon="26.72186226966225"><ele>230.0</ele><time>2026-04-25T11:08:53.999Z</time></trkpt><trkpt lat="46.60832039630367" lon="26.721892992967256"><ele>230.0</ele><time>2026-04-25T11:08:54.999Z</time></trkpt><trkpt lat="46.60843975663765" lon="26.72193782504263"><ele>230.0</ele><time>2026-04-25T11:08:55.999Z</time></trkpt><trkpt lat="46.60856439704028" lon="26.721992235678883"><ele>230.0</ele><time>2026-04-25T11:08:56.999Z</time></trkpt><trkpt lat="46.60868938457051" lon="26.722056961396"><ele>230.75</ele><time>2026-04-25T11:08:57.999Z</time></trkpt><trkpt lat="46.60880838038002" lon="26.722137639149278"><ele>231.5</ele><time>2026-04-25T11:08:58.999Z</time></trkpt><trkpt lat="46.60891861179592" lon="26.72223785054967"><ele>232.25</ele><time>2026-04-25T11:08:59.999Z</time></trkpt><trkpt lat="46.60902979790896" lon="26.722357869093063"><ele>233.0</ele><time>2026-04-25T11:09:00.999Z</time></trkpt><trkpt lat="46.60912866275907" lon="26.7224936182"><ele>233.0</ele><time>2026-04-25T11:09:01.999Z</time></trkpt><trkpt lat="46.609227884622506" lon="26.722651986826843"><ele>233.0</ele><time>2026-04-25T11:09:02.999Z</time></trkpt><trkpt lat="46.609324769655686" lon="26.72281564105934"><ele>233.0</ele><time>2026-04-25T11:09:03.999Z</time></trkpt><trkpt lat="46.6094286674768" lon="26.72296917429402"><ele>233.0</ele><time>2026-04-25T11:09:04.999Z</time></trkpt><trkpt lat="46.60951047210427" lon="26.723121430219123"><ele>233.5</ele><time>2026-04-25T11:09:05.999Z</time></trkpt><trkpt lat="46.60958275738068" lon="26.723262055972135"><ele>234.0</ele><time>2026-04-25T11:09:06.999Z</time></trkpt><trkpt lat="46.6096557499797" lon="26.723403185740477"><ele>234.5</ele><time>2026-04-25T11:09:07.999Z</time></trkpt><trkpt lat="46.60973194362784" lon="26.72354630864249"><ele>235.0</ele><time>2026-04-25T11:09:09Z</time></trkpt><trkpt lat="46.60980604290466" lon="26.723685031561406"><ele>233.25</ele><time>2026-04-25T11:09:10Z</time></trkpt><trkpt lat="46.609877445015755" lon="26.723817686115172"><ele>231.5</ele><time>2026-04-25T11:09:11Z</time></trkpt><trkpt lat="46.609952760414295" lon="26.723963382303133"><ele>229.75</ele><time>2026-04-25T11:09:12Z</time></trkpt><trkpt lat="46.610033420492556" lon="26.724110370187674"><ele>228.0</ele><time>2026-04-25T11:09:13Z</time></trkpt><trkpt lat="46.610112411539255" lon="26.72426084533074"><ele>227.5</ele><time>2026-04-25T11:09:14Z</time></trkpt><trkpt lat="46.610187061332375" lon="26.724405078611884"><ele>227.0</ele><time>2026-04-25T11:09:15Z</time></trkpt><trkpt lat="46.61024396716409" lon="26.724539501056015"><ele>226.5</ele><time>2026-04-25T11:09:16Z</time></trkpt><trkpt lat="46.61031251630557" lon="26.72467445926914"><ele>226.0</ele><time>2026-04-25T11:09:17Z</time></trkpt><trkpt lat="46.61038540791079" lon="26.724824001606414"><ele>226.25</ele><time>2026-04-25T11:09:18Z</time></trkpt><trkpt lat="46.6104617193466" lon="26.724981622735"><ele>226.5</ele><time>2026-04-25T11:09:19Z</time></trkpt><trkpt lat="46.6105360327791" lon="26.72514279502315"><ele>226.75</ele><time>2026-04-25T11:09:20Z</time></trkpt><trkpt lat="46.610612861246004" lon="26.72532206519302"><ele>227.0</ele><time>2026-04-25T11:09:21Z</time></trkpt><trkpt lat="46.61068393224498" lon="26.725499334410216"><ele>227.0</ele><time>2026-04-25T11:09:22Z</time></trkpt><trkpt lat="46.610744696400836" lon="26.725666288643804"><ele>227.0</ele><time>2026-04-25T11:09:23Z</time></trkpt><trkpt lat="46.61080494842535" lon="26.72582690073932"><ele>227.0</ele><time>2026-04-25T11:09:24Z</time></trkpt><trkpt lat="46.61085938207699" lon="26.72597434564926"><ele>227.0</ele><time>2026-04-25T11:09:25Z</time></trkpt><trkpt lat="46.61091421222768" lon="26.726129897115204"><ele>226.75</ele><time>2026-04-25T11:09:26Z</time></trkpt><trkpt lat="46.6109712128098" lon="26.726293255996293"><ele>226.5</ele><time>2026-04-25T11:09:27Z</time></trkpt><trkpt lat="46.61103138156478" lon="26.72646333560305"><ele>226.25</ele><time>2026-04-25T11:09:28Z</time></trkpt><trkpt lat="46.611090069549796" lon="26.72664010125891"><ele>226.0</ele><time>2026-04-25T11:09:29Z</time></trkpt><trkpt lat="46.61114791835482" lon="26.726817423266297"><ele>226.75</ele><time>2026-04-25T11:09:30Z</time></trkpt><trkpt lat="46.61121749620357" lon="26.726986733248964"><ele>227.5</ele><time>2026-04-25T11:09:31Z</time></trkpt><trkpt lat="46.61127441743218" lon="26.727121153892476"><ele>228.25</ele><time>2026-04-25T11:09:32Z</time></trkpt><trkpt lat="46.611335367332536" lon="26.727274215389684"><ele>229.0</ele><time>2026-04-25T11:09:33Z</time></trkpt><trkpt lat="46.61143920693241" lon="26.72738301746735"><ele>229.0</ele><time>2026-04-25T11:09:34Z</time></trkpt><trkpt lat="46.611542114802624" lon="26.727496722271656"><ele>229.0</ele><time>2026-04-25T11:09:35Z</time></trkpt><trkpt lat="46.61164779532866" lon="26.727601526934826"><ele>229.0</ele><time>2026-04-25T11:09:36Z</time></trkpt><trkpt lat="46.61175779583182" lon="26.727706524138473"><ele>229.0</ele><time>2026-04-25T11:09:37Z</time></trkpt><trkpt lat="46.61186276627931" lon="26.727811850676094"><ele>228.25</ele><time>2026-04-25T11:09:38Z</time></trkpt><trkpt lat="46.61197215582218" lon="26.727919274815118"><ele>227.5</ele><time>2026-04-25T11:09:39Z</time></trkpt><trkpt lat="46.61208111222419" lon="26.7280338912368"><ele>226.75</ele><time>2026-04-25T11:09:40Z</time></trkpt><trkpt lat="46.61219353380683" lon="26.728138397068243"><ele>226.0</ele><time>2026-04-25T11:09:41Z</time></trkpt><trkpt lat="46.612303874097485" lon="26.728247743872473"><ele>226.0</ele><time>2026-04-25T11:09:42Z</time></trkpt><trkpt lat="46.61241245614677" lon="26.728356286550344"><ele>226.0</ele><time>2026-04-25T11:09:43Z</time></trkpt><trkpt lat="46.61251888168156" lon="26.728466939070756"><ele>226.0</ele><time>2026-04-25T11:09:44Z</time></trkpt><trkpt lat="46.612623306099586" lon="26.728572734872564"><ele>226.0</ele><time>2026-04-25T11:09:45Z</time></trkpt><trkpt lat="46.61271295383995" lon="26.72869124158907"><ele>225.5</ele><time>2026-04-25T11:09:46Z</time></trkpt><trkpt lat="46.61279617316975" lon="26.728830039124734"><ele>225.0</ele><time>2026-04-25T11:09:47Z</time></trkpt><trkpt lat="46.61286307664652" lon="26.728971119060756"><ele>224.5</ele><time>2026-04-25T11:09:48Z</time></trkpt><trkpt lat="46.61291881082824" lon="26.72913256171817"><ele>224.0</ele><time>2026-04-25T11:09:49Z</time></trkpt><trkpt lat="46.61296333180565" lon="26.729304979608322"><ele>224.5</ele><time>2026-04-25T11:09:50Z</time></trkpt><trkpt lat="46.61299300469286" lon="26.729487943807634"><ele>225.0</ele><time>2026-04-25T11:09:51Z</time></trkpt><trkpt lat="46.6130170095968" lon="26.729674758352058"><ele>225.5</ele><time>2026-04-25T11:09:52Z</time></trkpt><trkpt lat="46.61303684741754" lon="26.729856049306008"><ele>226.0</ele><time>2026-04-25T11:09:53Z</time></trkpt><trkpt lat="46.6130611870895" lon="26.73004416790401"><ele>225.5</ele><time>2026-04-25T11:09:54Z</time></trkpt><trkpt lat="46.61308674054603" lon="26.730235724297753"><ele>225.0</ele><time>2026-04-25T11:09:55Z</time></trkpt><trkpt lat="46.613108396973914" lon="26.73041571729674"><ele>224.5</ele><time>2026-04-25T11:09:56Z</time></trkpt><trkpt lat="46.61312942423131" lon="26.73060519719147"><ele>224.0</ele><time>2026-04-25T11:09:57Z</time></trkpt><trkpt lat="46.6131542723279" lon="26.730778561887306"><ele>224.0</ele><time>2026-04-25T11:09:58Z</time></trkpt><trkpt lat="46.61317783535087" lon="26.73095898441725"><ele>224.0</ele><time>2026-04-25T11:09:59Z</time></trkpt><trkpt lat="46.61320161632912" lon="26.731148500949335"><ele>224.0</ele><time>2026-04-25T11:10:00Z</time></trkpt><trkpt lat="46.61322300273802" lon="26.731333929838723"><ele>224.0</ele><time>2026-04-25T11:10:01Z</time></trkpt><trkpt lat="46.61324683419346" lon="26.731526892722787"><ele>224.0</ele><time>2026-04-25T11:10:02Z</time></trkpt><trkpt lat="46.613269829251124" lon="26.731726457801518"><ele>224.0</ele><time>2026-04-25T11:10:03Z</time></trkpt><trkpt lat="46.61329785042715" lon="26.731932045483617"><ele>224.0</ele><time>2026-04-25T11:10:04Z</time></trkpt><trkpt lat="46.613323200734044" lon="26.732118927676378"><ele>224.0</ele><time>2026-04-25T11:10:05Z</time></trkpt><trkpt lat="46.61334831399414" lon="26.73232190011"><ele>223.75</ele><time>2026-04-25T11:10:06Z</time></trkpt><trkpt lat="46.61337326324185" lon="26.732509972630382"><ele>223.5</ele><time>2026-04-25T11:10:06.999Z</time></trkpt><trkpt lat="46.61339595363384" lon="26.732712172382545"><ele>223.25</ele><time>2026-04-25T11:10:07.999Z</time></trkpt><trkpt lat="46.61342795292853" lon="26.732908470678495"><ele>223.0</ele><time>2026-04-25T11:10:08.999Z</time></trkpt><trkpt lat="46.6134508533188" lon="26.733107434207042"><ele>222.75</ele><time>2026-04-25T11:10:09.999Z</time></trkpt><trkpt lat="46.613472561178384" lon="26.73331161975966"><ele>222.5</ele><time>2026-04-25T11:10:10.999Z</time></trkpt><trkpt lat="46.61349850232163" lon="26.733517344694494"><ele>222.25</ele><time>2026-04-25T11:10:11.999Z</time></trkpt><trkpt lat="46.61352542373322" lon="26.733718599036457"><ele>222.0</ele><time>2026-04-25T11:10:12.999Z</time></trkpt><trkpt lat="46.61355155395157" lon="26.733921941511227"><ele>222.0</ele><time>2026-04-25T11:10:13.999Z</time></trkpt><trkpt lat="46.6135732026343" lon="26.734119769288732"><ele>222.0</ele><time>2026-04-25T11:10:14.999Z</time></trkpt><trkpt lat="46.613602628217706" lon="26.73432502963455"><ele>222.0</ele><time>2026-04-25T11:10:15.999Z</time></trkpt><trkpt lat="46.6136294999636" lon="26.734532734681956"><ele>222.0</ele><time>2026-04-25T11:10:16.999Z</time></trkpt><trkpt lat="46.61365609226782" lon="26.734737718996392"><ele>222.25</ele><time>2026-04-25T11:10:17.999Z</time></trkpt><trkpt lat="46.613685172658315" lon="26.734945190774358"><ele>222.5</ele><time>2026-04-25T11:10:18.999Z</time></trkpt><trkpt lat="46.6137121138408" lon="26.73514881259233"><ele>222.75</ele><time>2026-04-25T11:10:19.999Z</time></trkpt><trkpt lat="46.61373817542862" lon="26.735364719900453"><ele>223.0</ele><time>2026-04-25T11:10:20.999Z</time></trkpt><trkpt lat="46.6137687238482" lon="26.735574857711015"><ele>223.0</ele><time>2026-04-25T11:10:21.999Z</time></trkpt><trkpt lat="46.613792446423" lon="26.73577372168189"><ele>223.0</ele><time>2026-04-25T11:10:22.999Z</time></trkpt><trkpt lat="46.61382177472087" lon="26.735987042517053"><ele>223.0</ele><time>2026-04-25T11:10:23.999Z</time></trkpt><trkpt lat="46.613847659649075" lon="26.736200507432976"><ele>223.0</ele><time>2026-04-25T11:10:24.999Z</time></trkpt><trkpt lat="46.61386059338021" lon="26.73640995928025"><ele>223.5</ele><time>2026-04-25T11:10:25.999Z</time></trkpt><trkpt lat="46.61385628153814" lon="26.73661988158044"><ele>224.0</ele><time>2026-04-25T11:10:26.999Z</time></trkpt><trkpt lat="46.613831940934396" lon="26.736831050130796"><ele>224.5</ele><time>2026-04-25T11:10:27.999Z</time></trkpt><trkpt lat="46.61379060434243" lon="26.73703925966846"><ele>225.0</ele><time>2026-04-25T11:10:28.999Z</time></trkpt><trkpt lat="46.61373469287209" lon="26.737240634273856"><ele>224.33333333333331</ele><time>2026-04-25T11:10:29.999Z</time></trkpt><trkpt lat="46.613664411654334" lon="26.737434034497255"><ele>223.66666666666666</ele><time>2026-04-25T11:10:30.999Z</time></trkpt><trkpt lat="46.6135852436293" lon="26.737628103821397"><ele>223.0</ele><time>2026-04-25T11:10:31.999Z</time></trkpt><trkpt lat="46.61350465764743" lon="26.73782531327178"><ele>223.0</ele><time>2026-04-25T11:10:32.999Z</time></trkpt><trkpt lat="46.6134254074728" lon="26.738029899647557"><ele>223.0</ele><time>2026-04-25T11:10:33.999Z</time></trkpt><trkpt lat="46.61335114111764" lon="26.738215872075642"><ele>223.0</ele><time>2026-04-25T11:10:34.999Z</time></trkpt><trkpt lat="46.61327032438459" lon="26.738410031617022"><ele>224.0</ele><time>2026-04-25T11:10:35.999Z</time></trkpt><trkpt lat="46.61319017884142" lon="26.738605685069853"><ele>225.0</ele><time>2026-04-25T11:10:36.999Z</time></trkpt><trkpt lat="46.61311205978031" lon="26.738805659971426"><ele>226.0</ele><time>2026-04-25T11:10:37.999Z</time></trkpt><trkpt lat="46.6130373527095" lon="26.7390039218149"><ele>226.0</ele><time>2026-04-25T11:10:38.999Z</time></trkpt><trkpt lat="46.61295362232637" lon="26.739209814504292"><ele>226.0</ele><time>2026-04-25T11:10:39.999Z</time></trkpt><trkpt lat="46.612870915660984" lon="26.739409254613104"><ele>226.0</ele><time>2026-04-25T11:10:40.999Z</time></trkpt><trkpt lat="46.61278733503768" lon="26.73960975067917"><ele>225.0</ele><time>2026-04-25T11:10:41.999Z</time></trkpt><trkpt lat="46.612706229632636" lon="26.739818972954158"><ele>224.0</ele><time>2026-04-25T11:10:42.999Z</time></trkpt><trkpt lat="46.61262595117726" lon="26.740022207175222"><ele>223.0</ele><time>2026-04-25T11:10:43.999Z</time></trkpt><trkpt lat="46.61254202978442" lon="26.740229606472145"><ele>223.0</ele><time>2026-04-25T11:10:44.999Z</time></trkpt><trkpt lat="46.61245857323831" lon="26.74043120410124"><ele>223.0</ele><time>2026-04-25T11:10:45.999Z</time></trkpt><trkpt lat="46.61237424998292" lon="26.740637849333467"><ele>223.0</ele><time>2026-04-25T11:10:46.999Z</time></trkpt><trkpt lat="46.61229287117672" lon="26.740841931115014"><ele>223.0</ele><time>2026-04-25T11:10:47.999Z</time></trkpt><trkpt lat="46.61221684399397" lon="26.741032327518845"><ele>223.0</ele><time>2026-04-25T11:10:48.999Z</time></trkpt><trkpt lat="46.6121468708355" lon="26.741206416648115"><ele>223.0</ele><time>2026-04-25T11:10:49.999Z</time></trkpt><trkpt lat="46.61207286872454" lon="26.74138896004896"><ele>223.0</ele><time>2026-04-25T11:10:50.999Z</time></trkpt><trkpt lat="46.61200035493818" lon="26.74157100810008"><ele>222.25</ele><time>2026-04-25T11:10:51.999Z</time></trkpt><trkpt lat="46.611927697426474" lon="26.741759966263373"><ele>221.5</ele><time>2026-04-25T11:10:52.999Z</time></trkpt><trkpt lat="46.6118626843617" lon="26.741954071013815"><ele>220.75</ele><time>2026-04-25T11:10:53.999Z</time></trkpt><trkpt lat="46.611796957758095" lon="26.742149623398355"><ele>220.0</ele><time>2026-04-25T11:10:54.999Z</time></trkpt><trkpt lat="46.6117316595045" lon="26.742338853812672"><ele>220.0</ele><time>2026-04-25T11:10:55.999Z</time></trkpt><trkpt lat="46.611668294388686" lon="26.74252737021873"><ele>220.0</ele><time>2026-04-25T11:10:56.999Z</time></trkpt><trkpt lat="46.611608107595096" lon="26.742702496277165"><ele>220.0</ele><time>2026-04-25T11:10:57.999Z</time></trkpt><trkpt lat="46.61154652752393" lon="26.74286634848623"><ele>220.0</ele><time>2026-04-25T11:10:58.999Z</time></trkpt><trkpt lat="46.61148641600703" lon="26.7430113311808"><ele>220.2</ele><time>2026-04-25T11:10:59.999Z</time></trkpt><trkpt lat="46.61141981058379" lon="26.743135636129033"><ele>220.4</ele><time>2026-04-25T11:11:00.999Z</time></trkpt><trkpt lat="46.61132591836523" lon="26.74320756366982"><ele>220.60000000000002</ele><time>2026-04-25T11:11:01.999Z</time></trkpt><trkpt lat="46.611230853995124" lon="26.743282343627943"><ele>220.8</ele><time>2026-04-25T11:11:02.999Z</time></trkpt><trkpt lat="46.61111918292523" lon="26.74332510443795"><ele>221.0</ele><time>2026-04-25T11:11:03.999Z</time></trkpt><trkpt lat="46.610998510175214" lon="26.74336163849982"><ele>221.0</ele><time>2026-04-25T11:11:04.999Z</time></trkpt><trkpt lat="46.61086460540728" lon="26.74337583546856"><ele>221.0</ele><time>2026-04-25T11:11:05.999Z</time></trkpt><trkpt lat="46.61072799431345" lon="26.743419380279"><ele>221.0</ele><time>2026-04-25T11:11:06.999Z</time></trkpt><trkpt lat="46.61058655198159" lon="26.743438882011024"><ele>221.0</ele><time>2026-04-25T11:11:07.999Z</time></trkpt><trkpt lat="46.61044491703606" lon="26.743470879344184"><ele>220.66666666666669</ele><time>2026-04-25T11:11:08.999Z</time></trkpt><trkpt lat="46.61030050541171" lon="26.743533697288605"><ele>220.33333333333331</ele><time>2026-04-25T11:11:09.999Z</time></trkpt><trkpt lat="46.61015989676755" lon="26.74360715256352"><ele>220.0</ele><time>2026-04-25T11:11:10.999Z</time></trkpt><trkpt lat="46.61001479762093" lon="26.74367696991256"><ele>221.75</ele><time>2026-04-25T11:11:11.999Z</time></trkpt><trkpt lat="46.60989091264203" lon="26.743803240746416"><ele>223.5</ele><time>2026-04-25T11:11:12.999Z</time></trkpt><trkpt lat="46.609768370116925" lon="26.74390928020112"><ele>225.25</ele><time>2026-04-25T11:11:13.999Z</time></trkpt><trkpt lat="46.60965746329927" lon="26.744031381333777"><ele>227.0</ele><time>2026-04-25T11:11:15Z</time></trkpt><trkpt lat="46.60955222340478" lon="26.74417187589783"><ele>226.0</ele><time>2026-04-25T11:11:16Z</time></trkpt><trkpt lat="46.60946112712159" lon="26.74433442715665"><ele>225.0</ele><time>2026-04-25T11:11:17Z</time></trkpt><trkpt lat="46.609378072870115" lon="26.744514470519054"><ele>224.0</ele><time>2026-04-25T11:11:18Z</time></trkpt><trkpt lat="46.60929786590241" lon="26.744702587811418"><ele>223.0</ele><time>2026-04-25T11:11:19Z</time></trkpt><trkpt lat="46.609217750120564" lon="26.74488827370456"><ele>223.0</ele><time>2026-04-25T11:11:20Z</time></trkpt><trkpt lat="46.60913554909788" lon="26.745078672784256"><ele>223.0</ele><time>2026-04-25T11:11:21Z</time></trkpt><trkpt lat="46.6090557418446" lon="26.74525789813455"><ele>223.0</ele><time>2026-04-25T11:11:22Z</time></trkpt><trkpt lat="46.60897699297838" lon="26.745435835071447"><ele>223.0</ele><time>2026-04-25T11:11:23Z</time></trkpt><trkpt lat="46.60889972796765" lon="26.745613944900544"><ele>222.75</ele><time>2026-04-25T11:11:24Z</time></trkpt><trkpt lat="46.608827814047466" lon="26.745791481470093"><ele>222.5</ele><time>2026-04-25T11:11:25Z</time></trkpt><trkpt lat="46.608761901088755" lon="26.745968639696752"><ele>222.25</ele><time>2026-04-25T11:11:26Z</time></trkpt><trkpt lat="46.60870768996691" lon="26.746162539165976"><ele>222.0</ele><time>2026-04-25T11:11:27Z</time></trkpt><trkpt lat="46.608676146176755" lon="26.746359760608016"><ele>221.5</ele><time>2026-04-25T11:11:28Z</time></trkpt><trkpt lat="46.608653962727594" lon="26.746560144362615"><ele>221.0</ele><time>2026-04-25T11:11:29Z</time></trkpt><trkpt lat="46.60864249489316" lon="26.74677197721532"><ele>220.5</ele><time>2026-04-25T11:11:30Z</time></trkpt><trkpt lat="46.60863728214773" lon="26.746984102476475"><ele>220.0</ele><time>2026-04-25T11:11:31Z</time></trkpt><trkpt lat="46.60863384894057" lon="26.747193582262266"><ele>219.75</ele><time>2026-04-25T11:11:32Z</time></trkpt><trkpt lat="46.60862857008742" lon="26.747403096060197"><ele>219.5</ele><time>2026-04-25T11:11:33Z</time></trkpt><trkpt lat="46.608621895086195" lon="26.74761130012248"><ele>219.25</ele><time>2026-04-25T11:11:34Z</time></trkpt><trkpt lat="46.608611749090485" lon="26.747819808907344"><ele>219.0</ele><time>2026-04-25T11:11:35Z</time></trkpt><trkpt lat="46.60859546800261" lon="26.74802993749914"><ele>218.66666666666669</ele><time>2026-04-25T11:11:36Z</time></trkpt><trkpt lat="46.60856804738895" lon="26.74824158142135"><ele>218.33333333333334</ele><time>2026-04-25T11:11:37Z</time></trkpt><trkpt lat="46.60852925345177" lon="26.748455695081994"><ele>218.0</ele><time>2026-04-25T11:11:38Z</time></trkpt><trkpt lat="46.60847982961276" lon="26.748666320246073"><ele>218.0</ele><time>2026-04-25T11:11:39Z</time></trkpt><trkpt lat="46.60841952493362" lon="26.748878468545563"><ele>218.0</ele><time>2026-04-25T11:11:40Z</time></trkpt><trkpt lat="46.60835510552064" lon="26.749093464716324"><ele>218.0</ele><time>2026-04-25T11:11:41Z</time></trkpt><trkpt lat="46.608284073993694" lon="26.74931472431601"><ele>218.0</ele><time>2026-04-25T11:11:42Z</time></trkpt><trkpt lat="46.6082150280699" lon="26.749525273289173"><ele>218.0</ele><time>2026-04-25T11:11:43Z</time></trkpt><trkpt lat="46.60814725362839" lon="26.74973461650502"><ele>218.0</ele><time>2026-04-25T11:11:44Z</time></trkpt><trkpt lat="46.60807543797351" lon="26.749948355526037"><ele>218.0</ele><time>2026-04-25T11:11:45Z</time></trkpt><trkpt lat="46.60800115500946" lon="26.750169906663988"><ele>218.0</ele><time>2026-04-25T11:11:46Z</time></trkpt><trkpt lat="46.60791759549792" lon="26.750412566943872"><ele>218.0</ele><time>2026-04-25T11:11:47Z</time></trkpt><trkpt lat="46.60783318747931" lon="26.750659676589155"><ele>218.0</ele><time>2026-04-25T11:11:48Z</time></trkpt><trkpt lat="46.60779333935218" lon="26.750807153334385"><ele>218.0</ele><time>2026-04-25T11:11:49Z</time></trkpt><trkpt lat="46.607720811599386" lon="26.75102434693252"><ele>218.0</ele><time>2026-04-25T11:11:50Z</time></trkpt><trkpt lat="46.60764566438168" lon="26.751241282511163"><ele>218.0</ele><time>2026-04-25T11:11:51Z</time></trkpt><trkpt lat="46.60757092121603" lon="26.75145240219911"><ele>218.0</ele><time>2026-04-25T11:11:52Z</time></trkpt><trkpt lat="46.607493856590985" lon="26.751655407320015"><ele>218.0</ele><time>2026-04-25T11:11:53Z</time></trkpt><trkpt lat="46.60741887157519" lon="26.75185643288897"><ele>218.0</ele><time>2026-04-25T11:11:54Z</time></trkpt><trkpt lat="46.60735199176139" lon="26.75204423727664"><ele>218.0</ele><time>2026-04-25T11:11:55Z</time></trkpt><trkpt lat="46.60729549095125" lon="26.752223307924893"><ele>218.0</ele><time>2026-04-25T11:11:56Z</time></trkpt><trkpt lat="46.607251330011145" lon="26.752394001397178"><ele>218.0</ele><time>2026-04-25T11:11:57Z</time></trkpt><trkpt lat="46.607231383653165" lon="26.752578244756908"><ele>218.0</ele><time>2026-04-25T11:11:58Z</time></trkpt><trkpt lat="46.60723083241301" lon="26.752781485079723"><ele>218.0</ele><time>2026-04-25T11:11:59Z</time></trkpt><trkpt lat="46.607242479151" lon="26.752996253922216"><ele>218.0</ele><time>2026-04-25T11:12:00Z</time></trkpt><trkpt lat="46.60725711894565" lon="26.753219366708805"><ele>218.0</ele><time>2026-04-25T11:12:01Z</time></trkpt><trkpt lat="46.60726925694577" lon="26.75344837465512"><ele>218.0</ele><time>2026-04-25T11:12:02Z</time></trkpt><trkpt lat="46.60727724805379" lon="26.753680937782693"><ele>218.0</ele><time>2026-04-25T11:12:03Z</time></trkpt><trkpt lat="46.607286567728394" lon="26.75391571048901"><ele>218.0</ele><time>2026-04-25T11:12:04Z</time></trkpt><trkpt lat="46.607293166043185" lon="26.754141273661233"><ele>218.0</ele><time>2026-04-25T11:12:05Z</time></trkpt><trkpt lat="46.60730143413218" lon="26.75436682525821"><ele>218.0</ele><time>2026-04-25T11:12:06Z</time></trkpt><trkpt lat="46.60731319619447" lon="26.75459409858211"><ele>218.0</ele><time>2026-04-25T11:12:07Z</time></trkpt><trkpt lat="46.60733201597449" lon="26.754817598223436"><ele>218.0</ele><time>2026-04-25T11:12:08Z</time></trkpt><trkpt lat="46.60737610389407" lon="26.755036030313427"><ele>218.0</ele><time>2026-04-25T11:12:09Z</time></trkpt><trkpt lat="46.60744063641341" lon="26.755248173101986"><ele>218.0</ele><time>2026-04-25T11:12:10Z</time></trkpt><trkpt lat="46.60754610037752" lon="26.755445200454044"><ele>217.33333333333334</ele><time>2026-04-25T11:12:11Z</time></trkpt><trkpt lat="46.607633268869506" lon="26.755642755545207"><ele>216.66666666666669</ele><time>2026-04-25T11:12:11.999Z</time></trkpt><trkpt lat="46.60771392503893" lon="26.755835838119292"><ele>216.0</ele><time>2026-04-25T11:12:12.999Z</time></trkpt><trkpt lat="46.60779665654868" lon="26.756033045890355"><ele>218.0</ele><time>2026-04-25T11:12:13.999Z</time></trkpt><trkpt lat="46.60787980726889" lon="26.75623842532563"><ele>220.0</ele><time>2026-04-25T11:12:14.999Z</time></trkpt><trkpt lat="46.60795800717606" lon="26.756424825658197"><ele>222.0</ele><time>2026-04-25T11:12:15.999Z</time></trkpt><trkpt lat="46.60803129342186" lon="26.756611252878198"><ele>222.0</ele><time>2026-04-25T11:12:16.999Z</time></trkpt><trkpt lat="46.608097486723786" lon="26.756803999726188"><ele>222.0</ele><time>2026-04-25T11:12:17.999Z</time></trkpt><trkpt lat="46.60815265376211" lon="26.757012074636936"><ele>222.0</ele><time>2026-04-25T11:12:18.999Z</time></trkpt><trkpt lat="46.60819060389068" lon="26.757233958105836"><ele>220.66666666666669</ele><time>2026-04-25T11:12:19.999Z</time></trkpt><trkpt lat="46.608217451823656" lon="26.757460630682026"><ele>219.33333333333334</ele><time>2026-04-25T11:12:20.999Z</time></trkpt><trkpt lat="46.60823371730713" lon="26.75768508999715"><ele>218.0</ele><time>2026-04-25T11:12:21.999Z</time></trkpt><trkpt lat="46.608244866161264" lon="26.75791328413703"><ele>218.0</ele><time>2026-04-25T11:12:22.999Z</time></trkpt><trkpt lat="46.60825678205533" lon="26.7581369143306"><ele>218.0</ele><time>2026-04-25T11:12:23.999Z</time></trkpt><trkpt lat="46.608270665020484" lon="26.758353076269547"><ele>218.0</ele><time>2026-04-25T11:12:24.999Z</time></trkpt><trkpt lat="46.60828276321909" lon="26.758567315774712"><ele>217.66666666666669</ele><time>2026-04-25T11:12:25.999Z</time></trkpt><trkpt lat="46.60829520354311" lon="26.758783879193764"><ele>217.33333333333331</ele><time>2026-04-25T11:12:26.999Z</time></trkpt><trkpt lat="46.608307016094635" lon="26.75900520918748"><ele>217.0</ele><time>2026-04-25T11:12:27.999Z</time></trkpt><trkpt lat="46.60831918186371" lon="26.759232885546044"><ele>216.66666666666666</ele><time>2026-04-25T11:12:28.999Z</time></trkpt><trkpt lat="46.60833402524075" lon="26.75946459532062"><ele>216.33333333333331</ele><time>2026-04-25T11:12:29.999Z</time></trkpt><trkpt lat="46.60834252748446" lon="26.7597050890615"><ele>216.0</ele><time>2026-04-25T11:12:30.999Z</time></trkpt><trkpt lat="46.608357901868914" lon="26.759947424399382"><ele>216.0</ele><time>2026-04-25T11:12:31.999Z</time></trkpt><trkpt lat="46.60838011099101" lon="26.76019153826656"><ele>216.0</ele><time>2026-04-25T11:12:32.999Z</time></trkpt><trkpt lat="46.60840950829767" lon="26.760422985777385"><ele>216.0</ele><time>2026-04-25T11:12:33.999Z</time></trkpt><trkpt lat="46.60844731603792" lon="26.760633431293527"><ele>216.5</ele><time>2026-04-25T11:12:34.999Z</time></trkpt><trkpt lat="46.60848668818799" lon="26.760828938410274"><ele>217.0</ele><time>2026-04-25T11:12:35.999Z</time></trkpt><trkpt lat="46.60853038922404" lon="26.761027822786204"><ele>217.5</ele><time>2026-04-25T11:12:36.999Z</time></trkpt><trkpt lat="46.6085707742576" lon="26.76123401955925"><ele>218.0</ele><time>2026-04-25T11:12:37.999Z</time></trkpt><trkpt lat="46.608597313092076" lon="26.761457522080224"><ele>218.33333333333334</ele><time>2026-04-25T11:12:38.999Z</time></trkpt><trkpt lat="46.60860657604644" lon="26.761684867413468"><ele>218.66666666666669</ele><time>2026-04-25T11:12:39.999Z</time></trkpt><trkpt lat="46.608609199105715" lon="26.76191658320236"><ele>219.0</ele><time>2026-04-25T11:12:40.999Z</time></trkpt><trkpt lat="46.6086150861397" lon="26.7621491872831"><ele>219.33333333333331</ele><time>2026-04-25T11:12:41.999Z</time></trkpt><trkpt lat="46.60862526309998" lon="26.762372764242794"><ele>219.66666666666666</ele><time>2026-04-25T11:12:42.999Z</time></trkpt><trkpt lat="46.60864451159954" lon="26.7626077815144"><ele>220.0</ele><time>2026-04-25T11:12:43.999Z</time></trkpt><trkpt lat="46.60866888461072" lon="26.762835766182842"><ele>220.0</ele><time>2026-04-25T11:12:44.999Z</time></trkpt><trkpt lat="46.60870099218659" lon="26.763070647342538"><ele>220.0</ele><time>2026-04-25T11:12:45.999Z</time></trkpt><trkpt lat="46.608740900017985" lon="26.76329634708752"><ele>220.0</ele><time>2026-04-25T11:12:46.999Z</time></trkpt><trkpt lat="46.60878267337818" lon="26.76352678179072"><ele>219.66666666666666</ele><time>2026-04-25T11:12:47.999Z</time></trkpt><trkpt lat="46.6088229693343" lon="26.763753686145943"><ele>219.33333333333331</ele><time>2026-04-25T11:12:48.999Z</time></trkpt><trkpt lat="46.60886559037266" lon="26.76398624575906"><ele>219.0</ele><time>2026-04-25T11:12:49.999Z</time></trkpt><trkpt lat="46.608911034168706" lon="26.764212020585674"><ele>218.66666666666669</ele><time>2026-04-25T11:12:50.999Z</time></trkpt><trkpt lat="46.6089521422744" lon="26.764444436993934"><ele>218.33333333333334</ele><time>2026-04-25T11:12:51.999Z</time></trkpt><trkpt lat="46.60898731615638" lon="26.764670693062765"><ele>218.0</ele><time>2026-04-25T11:12:52.999Z</time></trkpt><trkpt lat="46.609020632903544" lon="26.764898125401334"><ele>218.0</ele><time>2026-04-25T11:12:53.999Z</time></trkpt><trkpt lat="46.60904035340016" lon="26.765120447212134"><ele>218.0</ele><time>2026-04-25T11:12:54.999Z</time></trkpt><trkpt lat="46.609052018983526" lon="26.765342983300307"><ele>218.0</ele><time>2026-04-25T11:12:55.999Z</time></trkpt><trkpt lat="46.609050971418746" lon="26.765568844459565"><ele>218.0</ele><time>2026-04-25T11:12:56.999Z</time></trkpt><trkpt lat="46.609039339207" lon="26.765798568248183"><ele>218.0</ele><time>2026-04-25T11:12:57.999Z</time></trkpt><trkpt lat="46.60901558755031" lon="26.766029919703197"><ele>218.0</ele><time>2026-04-25T11:12:58.999Z</time></trkpt><trkpt lat="46.608993064084174" lon="26.766256064461466"><ele>218.66666666666669</ele><time>2026-04-25T11:12:59.999Z</time></trkpt><trkpt lat="46.60897346202526" lon="26.76648761215789"><ele>219.33333333333331</ele><time>2026-04-25T11:13:00.999Z</time></trkpt><trkpt lat="46.60895354693666" lon="26.766728969009048"><ele>220.0</ele><time>2026-04-25T11:13:01.999Z</time></trkpt><trkpt lat="46.60893174102884" lon="26.766970835397075"><ele>220.0</ele><time>2026-04-25T11:13:02.999Z</time></trkpt><trkpt lat="46.60891296849581" lon="26.767212532373176"><ele>220.0</ele><time>2026-04-25T11:13:03.999Z</time></trkpt><trkpt lat="46.60889729000074" lon="26.76745052720922"><ele>220.0</ele><time>2026-04-25T11:13:04.999Z</time></trkpt><trkpt lat="46.6088781571142" lon="26.767690560796673"><ele>220.0</ele><time>2026-04-25T11:13:05.999Z</time></trkpt><trkpt lat="46.60885938552876" lon="26.767927987371543"><ele>220.0</ele><time>2026-04-25T11:13:06.999Z</time></trkpt><trkpt lat="46.608837547814055" lon="26.768170338065847"><ele>220.0</ele><time>2026-04-25T11:13:07.999Z</time></trkpt><trkpt lat="46.60880986191762" lon="26.7684156090414"><ele>220.0</ele><time>2026-04-25T11:13:08.999Z</time></trkpt><trkpt lat="46.60878693128442" lon="26.76865555424501"><ele>220.0</ele><time>2026-04-25T11:13:09.999Z</time></trkpt><trkpt lat="46.6087632659514" lon="26.76889497710494"><ele>220.0</ele><time>2026-04-25T11:13:10.999Z</time></trkpt><trkpt lat="46.60873866908554" lon="26.769139557018317"><ele>221.33333333333331</ele><time>2026-04-25T11:13:11.999Z</time></trkpt><trkpt lat="46.60871417503501" lon="26.769386903133665"><ele>222.66666666666669</ele><time>2026-04-25T11:13:12.999Z</time></trkpt><trkpt lat="46.60869193574913" lon="26.769627989047628"><ele>224.0</ele><time>2026-04-25T11:13:13.999Z</time></trkpt><trkpt lat="46.60866854375524" lon="26.769860434778295"><ele>220.66666666666669</ele><time>2026-04-25T11:13:14.999Z</time></trkpt><trkpt lat="46.60864520423813" lon="26.770100563583963"><ele>217.33333333333331</ele><time>2026-04-25T11:13:15.999Z</time></trkpt><trkpt lat="46.6086249642607" lon="26.770337494835115"><ele>214.0</ele><time>2026-04-25T11:13:16.999Z</time></trkpt><trkpt lat="46.60860738259899" lon="26.770575469562637"><ele>214.0</ele><time>2026-04-25T11:13:17.999Z</time></trkpt><trkpt lat="46.60858985384014" lon="26.77081230257593"><ele>214.0</ele><time>2026-04-25T11:13:18.999Z</time></trkpt><trkpt lat="46.608579681602244" lon="26.771053020652978"><ele>214.0</ele><time>2026-04-25T11:13:19.999Z</time></trkpt><trkpt lat="46.60857062170867" lon="26.771296277796754"><ele>214.33333333333331</ele><time>2026-04-25T11:13:21Z</time></trkpt><trkpt lat="46.60856048596351" lon="26.771530977164826"><ele>214.66666666666669</ele><time>2026-04-25T11:13:22Z</time></trkpt><trkpt lat="46.608554786358134" lon="26.771774795183173"><ele>215.0</ele><time>2026-04-25T11:13:23Z</time></trkpt><trkpt lat="46.608547701297546" lon="26.77200646698042"><ele>215.0</ele><time>2026-04-25T11:13:24Z</time></trkpt><trkpt lat="46.608543318355004" lon="26.772241386263996"><ele>215.0</ele><time>2026-04-25T11:13:25Z</time></trkpt><trkpt lat="46.60853494457793" lon="26.772469003073887"><ele>215.0</ele><time>2026-04-25T11:13:26Z</time></trkpt><trkpt lat="46.60852810433819" lon="26.772690885372576"><ele>215.33333333333334</ele><time>2026-04-25T11:13:27Z</time></trkpt><trkpt lat="46.608524232692865" lon="26.772917321371082"><ele>215.66666666666669</ele><time>2026-04-25T11:13:28Z</time></trkpt><trkpt lat="46.60851876286856" lon="26.773151377771807"><ele>216.0</ele><time>2026-04-25T11:13:29Z</time></trkpt><trkpt lat="46.60851430198561" lon="26.773384145842847"><ele>217.0</ele><time>2026-04-25T11:13:30Z</time></trkpt><trkpt lat="46.60850492862192" lon="26.773603446836212"><ele>218.0</ele><time>2026-04-25T11:13:31Z</time></trkpt><trkpt lat="46.608499924448594" lon="26.773835284448776"><ele>219.0</ele><time>2026-04-25T11:13:32Z</time></trkpt><trkpt lat="46.60849347100819" lon="26.774051165683947"><ele>219.0</ele><time>2026-04-25T11:13:33Z</time></trkpt><trkpt lat="46.608484548748635" lon="26.77424174296385"><ele>219.0</ele><time>2026-04-25T11:13:34Z</time></trkpt><trkpt lat="46.608467667251176" lon="26.774423326999113"><ele>219.0</ele><time>2026-04-25T11:13:35Z</time></trkpt><trkpt lat="46.60843914533816" lon="26.774608275521928"><ele>219.0</ele><time>2026-04-25T11:13:36Z</time></trkpt><trkpt lat="46.60839370231855" lon="26.774788461933476"><ele>219.0</ele><time>2026-04-25T11:13:37Z</time></trkpt><trkpt lat="46.60833338934188" lon="26.774959514178768"><ele>219.0</ele><time>2026-04-25T11:13:38Z</time></trkpt><trkpt lat="46.608255286534956" lon="26.775123273186853"><ele>219.0</ele><time>2026-04-25T11:13:39Z</time></trkpt><trkpt lat="46.608168401202896" lon="26.775273202295626"><ele>219.0</ele><time>2026-04-25T11:13:40Z</time></trkpt><trkpt lat="46.60807433788053" lon="26.77542779235188"><ele>218.75</ele><time>2026-04-25T11:13:41Z</time></trkpt><trkpt lat="46.60797774816999" lon="26.775580007161945"><ele>218.5</ele><time>2026-04-25T11:13:42Z</time></trkpt><trkpt lat="46.60788080715703" lon="26.775731593012676"><ele>218.25</ele><time>2026-04-25T11:13:43Z</time></trkpt><trkpt lat="46.607787853441195" lon="26.775878836289813"><ele>218.0</ele><time>2026-04-25T11:13:44Z</time></trkpt><trkpt lat="46.60768965167086" lon="26.776026465635898"><ele>218.0</ele><time>2026-04-25T11:13:45Z</time></trkpt><trkpt lat="46.607588163524" lon="26.77617404332564"><ele>218.0</ele><time>2026-04-25T11:13:46Z</time></trkpt><trkpt lat="46.607490342912875" lon="26.776329452525992"><ele>218.0</ele><time>2026-04-25T11:13:47Z</time></trkpt><trkpt lat="46.60740090112953" lon="26.776479480746456"><ele>218.0</ele><time>2026-04-25T11:13:48Z</time></trkpt><trkpt lat="46.60732560852592" lon="26.77662663985784"><ele>218.0</ele><time>2026-04-25T11:13:49Z</time></trkpt><trkpt lat="46.607263864431864" lon="26.77678146133435"><ele>218.0</ele><time>2026-04-25T11:13:50Z</time></trkpt><trkpt lat="46.60721685213343" lon="26.776959844566317"><ele>218.0</ele><time>2026-04-25T11:13:51Z</time></trkpt><trkpt lat="46.607184493051875" lon="26.77716657985876"><ele>218.0</ele><time>2026-04-25T11:13:52Z</time></trkpt><trkpt lat="46.60715219628768" lon="26.777381116293537"><ele>219.0</ele><time>2026-04-25T11:13:53Z</time></trkpt><trkpt lat="46.607105506413255" lon="26.777603607621952"><ele>220.0</ele><time>2026-04-25T11:13:54Z</time></trkpt><trkpt lat="46.607059126487" lon="26.777832054876413"><ele>221.0</ele><time>2026-04-25T11:13:55Z</time></trkpt><trkpt lat="46.607010393607666" lon="26.7780669291135"><ele>218.0</ele><time>2026-04-25T11:13:56Z</time></trkpt><trkpt lat="46.60696364078617" lon="26.778305446858734"><ele>215.0</ele><time>2026-04-25T11:13:57Z</time></trkpt><trkpt lat="46.60691532907484" lon="26.778551585617937"><ele>212.0</ele><time>2026-04-25T11:13:58Z</time></trkpt><trkpt lat="46.60686563421813" lon="26.77879522990983"><ele>212.0</ele><time>2026-04-25T11:13:59Z</time></trkpt><trkpt lat="46.6068157429924" lon="26.779039086236157"><ele>212.0</ele><time>2026-04-25T11:14:00Z</time></trkpt><trkpt lat="46.60676648941977" lon="26.779284068408682"><ele>212.0</ele><time>2026-04-25T11:14:01Z</time></trkpt><trkpt lat="46.606715739054536" lon="26.779533219423662"><ele>212.0</ele><time>2026-04-25T11:14:02Z</time></trkpt><trkpt lat="46.60666461408887" lon="26.779764722307032"><ele>212.0</ele><time>2026-04-25T11:14:03Z</time></trkpt><trkpt lat="46.60661703213504" lon="26.779997285123155"><ele>212.0</ele><time>2026-04-25T11:14:04Z</time></trkpt><trkpt lat="46.60656210029566" lon="26.780239178481256"><ele>212.66666666666669</ele><time>2026-04-25T11:14:05Z</time></trkpt><trkpt lat="46.60651168361001" lon="26.78048671477214"><ele>213.33333333333331</ele><time>2026-04-25T11:14:06Z</time></trkpt><trkpt lat="46.60646467178981" lon="26.78071984739506"><ele>214.0</ele><time>2026-04-25T11:14:07Z</time></trkpt><trkpt lat="46.60641393929025" lon="26.78095997451153"><ele>214.33333333333331</ele><time>2026-04-25T11:14:08Z</time></trkpt><trkpt lat="46.60637163161282" lon="26.781179053800763"><ele>214.66666666666669</ele><time>2026-04-25T11:14:09Z</time></trkpt><trkpt lat="46.60632854938299" lon="26.781391788219377"><ele>215.0</ele><time>2026-04-25T11:14:10Z</time></trkpt><trkpt lat="46.60628726497983" lon="26.781592884424246"><ele>215.0</ele><time>2026-04-25T11:14:11Z</time></trkpt><trkpt lat="46.606240214446615" lon="26.781807923431227"><ele>215.0</ele><time>2026-04-25T11:14:12Z</time></trkpt><trkpt lat="46.6061947898857" lon="26.782026120895267"><ele>215.0</ele><time>2026-04-25T11:14:13Z</time></trkpt><trkpt lat="46.60614963843064" lon="26.782231556902495"><ele>214.0</ele><time>2026-04-25T11:14:14Z</time></trkpt><trkpt lat="46.60610818861602" lon="26.782427789631424"><ele>213.0</ele><time>2026-04-25T11:14:14.999Z</time></trkpt><trkpt lat="46.606064794816284" lon="26.78261560443003"><ele>212.0</ele><time>2026-04-25T11:14:15.999Z</time></trkpt><trkpt lat="46.606025496336976" lon="26.782786768707144"><ele>211.0</ele><time>2026-04-25T11:14:16.999Z</time></trkpt><trkpt lat="46.605981414257016" lon="26.78294876252593"><ele>211.0</ele><time>2026-04-25T11:14:17.999Z</time></trkpt><trkpt lat="46.60592447061372" lon="26.783095310974847"><ele>211.0</ele><time>2026-04-25T11:14:18.999Z</time></trkpt><trkpt lat="46.60585463065207" lon="26.783222676625915"><ele>211.0</ele><time>2026-04-25T11:14:19.999Z</time></trkpt><trkpt lat="46.605763497294454" lon="26.783331255014946"><ele>211.0</ele><time>2026-04-25T11:14:20.999Z</time></trkpt><trkpt lat="46.60567198870195" lon="26.783428506872518"><ele>210.4</ele><time>2026-04-25T11:14:21.999Z</time></trkpt><trkpt lat="46.60556453224838" lon="26.783518666398543"><ele>209.8</ele><time>2026-04-25T11:14:22.999Z</time></trkpt><trkpt lat="46.60546508932728" lon="26.783593389133365"><ele>209.20000000000002</ele><time>2026-04-25T11:14:23.999Z</time></trkpt><trkpt lat="46.60537607384222" lon="26.783669511087467"><ele>208.60000000000002</ele><time>2026-04-25T11:14:24.999Z</time></trkpt><trkpt lat="46.605295619270954" lon="26.783744911645048"><ele>208.0</ele><time>2026-04-25T11:14:25.999Z</time></trkpt><trkpt lat="46.60522036254669" lon="26.783846746028182"><ele>208.0</ele><time>2026-04-25T11:14:26.999Z</time></trkpt><trkpt lat="46.60516190909819" lon="26.783979454042342"><ele>208.0</ele><time>2026-04-25T11:14:27.999Z</time></trkpt><trkpt lat="46.60512192712246" lon="26.784140536175478"><ele>208.0</ele><time>2026-04-25T11:14:28.999Z</time></trkpt><trkpt lat="46.6051047499405" lon="26.784316830599025"><ele>208.0</ele><time>2026-04-25T11:14:29.999Z</time></trkpt><trkpt lat="46.60511908213861" lon="26.784505705731856"><ele>208.0</ele><time>2026-04-25T11:14:30.999Z</time></trkpt><trkpt lat="46.60510162123402" lon="26.784666175455985"><ele>208.0</ele><time>2026-04-25T11:14:31.999Z</time></trkpt><trkpt lat="46.605156870004855" lon="26.784860201741868"><ele>208.0</ele><time>2026-04-25T11:14:32.999Z</time></trkpt><trkpt lat="46.60521859033449" lon="26.78504703755329"><ele>208.0</ele><time>2026-04-25T11:14:33.999Z</time></trkpt><trkpt lat="46.60528196565402" lon="26.785234805515675"><ele>211.25</ele><time>2026-04-25T11:14:34.999Z</time></trkpt><trkpt lat="46.6053375926419" lon="26.785425302979213"><ele>214.5</ele><time>2026-04-25T11:14:35.999Z</time></trkpt><trkpt lat="46.60536857605659" lon="26.785623944772734"><ele>217.75</ele><time>2026-04-25T11:14:36.999Z</time></trkpt><trkpt lat="46.605374677388276" lon="26.78583142868864"><ele>221.0</ele><time>2026-04-25T11:14:37.999Z</time></trkpt><trkpt lat="46.60534994849572" lon="26.786039754505754"><ele>218.5</ele><time>2026-04-25T11:14:38.999Z</time></trkpt><trkpt lat="46.60531456027963" lon="26.7862435933988"><ele>216.0</ele><time>2026-04-25T11:14:39.999Z</time></trkpt><trkpt lat="46.60528388056477" lon="26.78645494253212"><ele>213.5</ele><time>2026-04-25T11:14:40.999Z</time></trkpt><trkpt lat="46.605251728654245" lon="26.786676374873167"><ele>211.0</ele><time>2026-04-25T11:14:41.999Z</time></trkpt><trkpt lat="46.60521853903833" lon="26.786904317077457"><ele>211.0</ele><time>2026-04-25T11:14:42.999Z</time></trkpt><trkpt lat="46.605186790791855" lon="26.78712192586693"><ele>211.0</ele><time>2026-04-25T11:14:43.999Z</time></trkpt><trkpt lat="46.60516118061473" lon="26.787342658812406"><ele>211.0</ele><time>2026-04-25T11:14:44.999Z</time></trkpt><trkpt lat="46.605116198367135" lon="26.787567377319508"><ele>211.33333333333331</ele><time>2026-04-25T11:14:45.999Z</time></trkpt><trkpt lat="46.60508320658476" lon="26.787803572418348"><ele>211.66666666666669</ele><time>2026-04-25T11:14:46.999Z</time></trkpt><trkpt lat="46.60504625565925" lon="26.78804117384095"><ele>212.0</ele><time>2026-04-25T11:14:47.999Z</time></trkpt><trkpt lat="46.605005699912084" lon="26.78828144958029"><ele>211.66666666666669</ele><time>2026-04-25T11:14:48.999Z</time></trkpt><trkpt lat="46.604969738588046" lon="26.788525236210653"><ele>211.33333333333331</ele><time>2026-04-25T11:14:49.999Z</time></trkpt><trkpt lat="46.604935212335796" lon="26.788771018298046"><ele>211.0</ele><time>2026-04-25T11:14:50.999Z</time></trkpt><trkpt lat="46.60489978945437" lon="26.78901736093204"><ele>211.0</ele><time>2026-04-25T11:14:51.999Z</time></trkpt><trkpt lat="46.60486401548144" lon="26.789262673572363"><ele>211.0</ele><time>2026-04-25T11:14:52.999Z</time></trkpt><trkpt lat="46.60483052929772" lon="26.789494666747768"><ele>211.0</ele><time>2026-04-25T11:14:53.999Z</time></trkpt><trkpt lat="46.60479752185501" lon="26.78972203458583"><ele>211.0</ele><time>2026-04-25T11:14:54.999Z</time></trkpt><trkpt lat="46.60476355957324" lon="26.789951933366723"><ele>211.0</ele><time>2026-04-25T11:14:55.999Z</time></trkpt><trkpt lat="46.604728887691856" lon="26.790179410896663"><ele>211.0</ele><time>2026-04-25T11:14:56.999Z</time></trkpt><trkpt lat="46.60469213389967" lon="26.790413540061152"><ele>211.33333333333331</ele><time>2026-04-25T11:14:57.999Z</time></trkpt><trkpt lat="46.604658764517644" lon="26.79064434819695"><ele>211.66666666666669</ele><time>2026-04-25T11:14:58.999Z</time></trkpt><trkpt lat="46.604625407241166" lon="26.790878837026774"><ele>212.0</ele><time>2026-04-25T11:14:59.999Z</time></trkpt><trkpt lat="46.60459123423986" lon="26.791102985288177"><ele>212.66666666666669</ele><time>2026-04-25T11:15:00.999Z</time></trkpt><trkpt lat="46.60455403868891" lon="26.79133243625334"><ele>213.33333333333331</ele><time>2026-04-25T11:15:01.999Z</time></trkpt><trkpt lat="46.604515882517184" lon="26.791567219673947"><ele>214.0</ele><time>2026-04-25T11:15:02.999Z</time></trkpt><trkpt lat="46.60447431988867" lon="26.79180053386533"><ele>212.33333333333331</ele><time>2026-04-25T11:15:03.999Z</time></trkpt><trkpt lat="46.604412354728886" lon="26.792023159996944"><ele>210.66666666666669</ele><time>2026-04-25T11:15:04.999Z</time></trkpt><trkpt lat="46.604340504389874" lon="26.792249689947283"><ele>209.0</ele><time>2026-04-25T11:15:05.999Z</time></trkpt><trkpt lat="46.60426875902815" lon="26.792475888976558"><ele>209.33333333333334</ele><time>2026-04-25T11:15:06.999Z</time></trkpt><trkpt lat="46.6041961232246" lon="26.7927035303734"><ele>209.66666666666669</ele><time>2026-04-25T11:15:07.999Z</time></trkpt><trkpt lat="46.604123011496455" lon="26.79293231916047"><ele>210.0</ele><time>2026-04-25T11:15:08.999Z</time></trkpt><trkpt lat="46.604051261424196" lon="26.793159183384773"><ele>210.0</ele><time>2026-04-25T11:15:09.999Z</time></trkpt><trkpt lat="46.603982210862256" lon="26.793374820328406"><ele>210.0</ele><time>2026-04-25T11:15:10.999Z</time></trkpt><trkpt lat="46.60391548308042" lon="26.793573849887565"><ele>210.0</ele><time>2026-04-25T11:15:11.999Z</time></trkpt><trkpt lat="46.60385107172161" lon="26.79376126149359"><ele>211.33333333333331</ele><time>2026-04-25T11:15:12.999Z</time></trkpt><trkpt lat="46.60378717708287" lon="26.79394643576465"><ele>212.66666666666666</ele><time>2026-04-25T11:15:13.999Z</time></trkpt><trkpt lat="46.60371880870848" lon="26.79414636867954"><ele>214.0</ele><time>2026-04-25T11:15:14.999Z</time></trkpt><trkpt lat="46.60364657898432" lon="26.794355537109606"><ele>214.0</ele><time>2026-04-25T11:15:15.999Z</time></trkpt><trkpt lat="46.60357755374242" lon="26.794561063839364"><ele>214.0</ele><time>2026-04-25T11:15:16.999Z</time></trkpt><trkpt lat="46.60351703491469" lon="26.794776023519237"><ele>214.0</ele><time>2026-04-25T11:15:17.999Z</time></trkpt><trkpt lat="46.60345835632936" lon="26.794983597202137"><ele>213.33333333333331</ele><time>2026-04-25T11:15:18.999Z</time></trkpt><trkpt lat="46.60340551122126" lon="26.795205920087668"><ele>212.66666666666669</ele><time>2026-04-25T11:15:19.999Z</time></trkpt><trkpt lat="46.60336199145927" lon="26.79543316787471"><ele>212.0</ele><time>2026-04-25T11:15:20.999Z</time></trkpt><trkpt lat="46.60331511209674" lon="26.79566221351725"><ele>212.0</ele><time>2026-04-25T11:15:21.999Z</time></trkpt><trkpt lat="46.60328099068168" lon="26.795902744729343"><ele>212.0</ele><time>2026-04-25T11:15:22.999Z</time></trkpt><trkpt lat="46.60322592905166" lon="26.79613477215233"><ele>212.0</ele><time>2026-04-25T11:15:23.998Z</time></trkpt><trkpt lat="46.60316135748766" lon="26.79635515461829"><ele>211.66666666666669</ele><time>2026-04-25T11:15:24.998Z</time></trkpt><trkpt lat="46.603075359561274" lon="26.796580612728977"><ele>211.33333333333331</ele><time>2026-04-25T11:15:25.998Z</time></trkpt><trkpt lat="46.602979181780135" lon="26.796794905531954"><ele>211.0</ele><time>2026-04-25T11:15:27Z</time></trkpt><trkpt lat="46.602884825297444" lon="26.797008046829042"><ele>210.0</ele><time>2026-04-25T11:15:28Z</time></trkpt><trkpt lat="46.6027914525654" lon="26.797219520990758"><ele>209.0</ele><time>2026-04-25T11:15:29Z</time></trkpt><trkpt lat="46.60268755109528" lon="26.797435307783434"><ele>208.0</ele><time>2026-04-25T11:15:30Z</time></trkpt><trkpt lat="46.602588194833906" lon="26.797634225008704"><ele>208.33333333333331</ele><time>2026-04-25T11:15:31Z</time></trkpt><trkpt lat="46.602485727314736" lon="26.797849448607074"><ele>208.66666666666669</ele><time>2026-04-25T11:15:32Z</time></trkpt><trkpt lat="46.60238703573484" lon="26.798068503852825"><ele>209.0</ele><time>2026-04-25T11:15:33Z</time></trkpt><trkpt lat="46.60229352588886" lon="26.798271184296237"><ele>209.0</ele><time>2026-04-25T11:15:34Z</time></trkpt><trkpt lat="46.602205778936145" lon="26.79848890800966"><ele>209.0</ele><time>2026-04-25T11:15:35Z</time></trkpt><trkpt lat="46.602106619622454" lon="26.7986972785022"><ele>209.0</ele><time>2026-04-25T11:15:36Z</time></trkpt><trkpt lat="46.601990270915174" lon="26.798902359171247"><ele>209.0</ele><time>2026-04-25T11:15:37Z</time></trkpt><trkpt lat="46.60189676327525" lon="26.799116476604574"><ele>209.0</ele><time>2026-04-25T11:15:38Z</time></trkpt><trkpt lat="46.60179799855875" lon="26.799330143714922"><ele>209.0</ele><time>2026-04-25T11:15:39Z</time></trkpt><trkpt lat="46.6016916101675" lon="26.799540582510485"><ele>209.0</ele><time>2026-04-25T11:15:40Z</time></trkpt><trkpt lat="46.60158814746267" lon="26.79975168309675"><ele>209.0</ele><time>2026-04-25T11:15:41Z</time></trkpt><trkpt lat="46.601485684634625" lon="26.799966081177462"><ele>209.0</ele><time>2026-04-25T11:15:42Z</time></trkpt><trkpt lat="46.60138167743585" lon="26.800175324024405"><ele>208.66666666666669</ele><time>2026-04-25T11:15:43Z</time></trkpt><trkpt lat="46.60128371009343" lon="26.800387498405257"><ele>208.33333333333331</ele><time>2026-04-25T11:15:44Z</time></trkpt><trkpt lat="46.60118566503933" lon="26.800598932559172"><ele>208.0</ele><time>2026-04-25T11:15:45Z</time></trkpt><trkpt lat="46.60107813915569" lon="26.8008093883106"><ele>208.66666666666666</ele><time>2026-04-25T11:15:46Z</time></trkpt><trkpt lat="46.60097514464126" lon="26.801027636987563"><ele>209.33333333333331</ele><time>2026-04-25T11:15:47Z</time></trkpt><trkpt lat="46.60086792913402" lon="26.80123910322092"><ele>210.0</ele><time>2026-04-25T11:15:48Z</time></trkpt><trkpt lat="46.60077002968958" lon="26.80144786642708"><ele>210.0</ele><time>2026-04-25T11:15:49Z</time></trkpt><trkpt lat="46.6006757629855" lon="26.801633971999976"><ele>210.0</ele><time>2026-04-25T11:15:50Z</time></trkpt><trkpt lat="46.60059474130019" lon="26.801815287986507"><ele>210.0</ele><time>2026-04-25T11:15:51Z</time></trkpt><trkpt lat="46.60050722337849" lon="26.801988099286376"><ele>210.0</ele><time>2026-04-25T11:15:52Z</time></trkpt><trkpt lat="46.600424104336" lon="26.802175503607717"><ele>210.0</ele><time>2026-04-25T11:15:53Z</time></trkpt><trkpt lat="46.600332561085715" lon="26.802360655611125"><ele>210.0</ele><time>2026-04-25T11:15:54Z</time></trkpt><trkpt lat="46.60024389543459" lon="26.802549895723825"><ele>208.66666666666669</ele><time>2026-04-25T11:15:55Z</time></trkpt><trkpt lat="46.60015325285747" lon="26.80274091228572"><ele>207.33333333333334</ele><time>2026-04-25T11:15:56Z</time></trkpt><trkpt lat="46.600062092910186" lon="26.802925732883175"><ele>206.0</ele><time>2026-04-25T11:15:57Z</time></trkpt><trkpt lat="46.59997288490138" lon="26.803112160103318"><ele>206.0</ele><time>2026-04-25T11:15:58Z</time></trkpt><trkpt lat="46.59988975017039" lon="26.803297022085143"><ele>206.0</ele><time>2026-04-25T11:15:59Z</time></trkpt><trkpt lat="46.59980090672955" lon="26.80346490130142"><ele>206.0</ele><time>2026-04-25T11:16:00Z</time></trkpt><trkpt lat="46.59971716226447" lon="26.803632391869"><ele>206.0</ele><time>2026-04-25T11:16:01Z</time></trkpt><trkpt lat="46.59963062959954" lon="26.803781941087436"><ele>206.5</ele><time>2026-04-25T11:16:02Z</time></trkpt><trkpt lat="46.599536777821164" lon="26.80393045994946"><ele>207.0</ele><time>2026-04-25T11:16:03Z</time></trkpt><trkpt lat="46.59943102763567" lon="26.80407660271021"><ele>207.5</ele><time>2026-04-25T11:16:04Z</time></trkpt><trkpt lat="46.59930796148067" lon="26.804211354973653"><ele>208.0</ele><time>2026-04-25T11:16:05Z</time></trkpt><trkpt lat="46.599177128608964" lon="26.804341969241992"><ele>206.66666666666666</ele><time>2026-04-25T11:16:06Z</time></trkpt><trkpt lat="46.59904544012439" lon="26.804479099042133"><ele>205.33333333333331</ele><time>2026-04-25T11:16:07Z</time></trkpt><trkpt lat="46.598917752994616" lon="26.804624507322377"><ele>204.0</ele><time>2026-04-25T11:16:08Z</time></trkpt><trkpt lat="46.598795521285965" lon="26.80476280158226"><ele>204.0</ele><time>2026-04-25T11:16:09Z</time></trkpt><trkpt lat="46.59866680524539" lon="26.804904720828553"><ele>204.0</ele><time>2026-04-25T11:16:10Z</time></trkpt><trkpt lat="46.59853451084316" lon="26.805042386611802"><ele>204.0</ele><time>2026-04-25T11:16:11Z</time></trkpt><trkpt lat="46.59840546904987" lon="26.805180256239982"><ele>206.33333333333331</ele><time>2026-04-25T11:16:12Z</time></trkpt><trkpt lat="46.598275896064486" lon="26.805320553783858"><ele>208.66666666666666</ele><time>2026-04-25T11:16:13Z</time></trkpt><trkpt lat="46.598148092780534" lon="26.805459295252927"><ele>211.0</ele><time>2026-04-25T11:16:14Z</time></trkpt><trkpt lat="46.598020929920075" lon="26.805596765541036"><ele>211.0</ele><time>2026-04-25T11:16:15Z</time></trkpt><trkpt lat="46.59789148424265" lon="26.8057342355966"><ele>211.0</ele><time>2026-04-25T11:16:16Z</time></trkpt><trkpt lat="46.59776321371785" lon="26.805866333680065"><ele>211.0</ele><time>2026-04-25T11:16:17Z</time></trkpt><trkpt lat="46.59764242711632" lon="26.80598969582252"><ele>211.5</ele><time>2026-04-25T11:16:17.999Z</time></trkpt><trkpt lat="46.59752904759621" lon="26.80611039656378"><ele>212.0</ele><time>2026-04-25T11:16:18.999Z</time></trkpt><trkpt lat="46.59742339626799" lon="26.806222086846113"><ele>212.5</ele><time>2026-04-25T11:16:19.999Z</time></trkpt><trkpt lat="46.597326795317095" lon="26.806326244376375"><ele>213.0</ele><time>2026-04-25T11:16:20.999Z</time></trkpt><trkpt lat="46.59723835362496" lon="26.806421377442838"><ele>213.0</ele><time>2026-04-25T11:16:21.999Z</time></trkpt><trkpt lat="46.59715364017266" lon="26.806510430283105"><ele>213.0</ele><time>2026-04-25T11:16:22.999Z</time></trkpt><trkpt lat="46.597069870263525" lon="26.80660522953324"><ele>213.0</ele><time>2026-04-25T11:16:23.999Z</time></trkpt><trkpt lat="46.596993506541196" lon="26.80672337475752"><ele>213.0</ele><time>2026-04-25T11:16:24.999Z</time></trkpt><trkpt lat="46.596930797511085" lon="26.80686665129002"><ele>213.0</ele><time>2026-04-25T11:16:25.999Z</time></trkpt><trkpt lat="46.596881198043064" lon="26.807030526583087"><ele>210.5</ele><time>2026-04-25T11:16:26.999Z</time></trkpt><trkpt lat="46.59684470547599" lon="26.807217294729384"><ele>208.0</ele><time>2026-04-25T11:16:27.999Z</time></trkpt><trkpt lat="46.59681999059702" lon="26.80741501835173"><ele>205.5</ele><time>2026-04-25T11:16:28.999Z</time></trkpt><trkpt lat="46.596795463144964" lon="26.807626778702684"><ele>203.0</ele><time>2026-04-25T11:16:29.999Z</time></trkpt><trkpt lat="46.59676529251502" lon="26.807850679673404"><ele>202.66666666666669</ele><time>2026-04-25T11:16:30.999Z</time></trkpt><trkpt lat="46.59673160636202" lon="26.808081095177975"><ele>202.33333333333331</ele><time>2026-04-25T11:16:31.999Z</time></trkpt><trkpt lat="46.596700978920296" lon="26.80831193184976"><ele>202.0</ele><time>2026-04-25T11:16:32.999Z</time></trkpt><trkpt lat="46.59667018842262" lon="26.80854151586141"><ele>202.0</ele><time>2026-04-25T11:16:33.999Z</time></trkpt><trkpt lat="46.596642880166605" lon="26.808768892952763"><ele>202.0</ele><time>2026-04-25T11:16:34.999Z</time></trkpt><trkpt lat="46.5966143654727" lon="26.80898993887359"><ele>202.0</ele><time>2026-04-25T11:16:35.999Z</time></trkpt><trkpt lat="46.596587528065" lon="26.809207263917294"><ele>202.0</ele><time>2026-04-25T11:16:36.999Z</time></trkpt><trkpt lat="46.596558390717995" lon="26.80942311331176"><ele>202.0</ele><time>2026-04-25T11:16:37.999Z</time></trkpt><trkpt lat="46.59652288357099" lon="26.80965379212832"><ele>202.0</ele><time>2026-04-25T11:16:38.999Z</time></trkpt><trkpt lat="46.59648866756591" lon="26.809884009871872"><ele>202.0</ele><time>2026-04-25T11:16:39.999Z</time></trkpt><trkpt lat="46.59645422137659" lon="26.810113809338322"><ele>202.0</ele><time>2026-04-25T11:16:40.999Z</time></trkpt><trkpt lat="46.59642634926638" lon="26.81033831947343"><ele>202.0</ele><time>2026-04-25T11:16:41.999Z</time></trkpt><trkpt lat="46.596395634880444" lon="26.810576111635854"><ele>201.33333333333331</ele><time>2026-04-25T11:16:42.999Z</time></trkpt><trkpt lat="46.59636186491585" lon="26.810812760964037"><ele>200.66666666666669</ele><time>2026-04-25T11:16:43.999Z</time></trkpt><trkpt lat="46.596327541306536" lon="26.811049770931664"><ele>200.0</ele><time>2026-04-25T11:16:44.999Z</time></trkpt><trkpt lat="46.5962961122449" lon="26.81128670699066"><ele>200.0</ele><time>2026-04-25T11:16:45.999Z</time></trkpt><trkpt lat="46.596263440727" lon="26.811526683426333"><ele>200.0</ele><time>2026-04-25T11:16:46.999Z</time></trkpt><trkpt lat="46.596231208356016" lon="26.811764227765103"><ele>200.0</ele><time>2026-04-25T11:16:47.999Z</time></trkpt><trkpt lat="46.596201511644956" lon="26.811998859348357"><ele>200.0</ele><time>2026-04-25T11:16:48.999Z</time></trkpt><trkpt lat="46.59617046416301" lon="26.812243127450834"><ele>200.0</ele><time>2026-04-25T11:16:49.999Z</time></trkpt><trkpt lat="46.596136687116754" lon="26.812483693714327"><ele>200.0</ele><time>2026-04-25T11:16:50.999Z</time></trkpt><trkpt lat="46.59610316730531" lon="26.812726295187737"><ele>200.0</ele><time>2026-04-25T11:16:51.999Z</time></trkpt><trkpt lat="46.59607224248944" lon="26.812969010954077"><ele>200.0</ele><time>2026-04-25T11:16:52.999Z</time></trkpt><trkpt lat="46.59603763936954" lon="26.813215122403594"><ele>200.0</ele><time>2026-04-25T11:16:53.999Z</time></trkpt><trkpt lat="46.59600948988117" lon="26.813466634329696"><ele>199.66666666666669</ele><time>2026-04-25T11:16:54.999Z</time></trkpt><trkpt lat="46.595992035473365" lon="26.813709862001108"><ele>199.33333333333331</ele><time>2026-04-25T11:16:55.999Z</time></trkpt><trkpt lat="46.59597753983392" lon="26.813946596158765"><ele>199.0</ele><time>2026-04-25T11:16:56.999Z</time></trkpt><trkpt lat="46.59596428079411" lon="26.814179482954003"><ele>199.0</ele><time>2026-04-25T11:16:57.999Z</time></trkpt><trkpt lat="46.595947918795424" lon="26.81442239476911"><ele>199.0</ele><time>2026-04-25T11:16:58.999Z</time></trkpt><trkpt lat="46.59593542160501" lon="26.81466306779371"><ele>199.0</ele><time>2026-04-25T11:16:59.999Z</time></trkpt><trkpt lat="46.595921458347505" lon="26.81490026277715"><ele>199.0</ele><time>2026-04-25T11:17:00.999Z</time></trkpt><trkpt lat="46.59591217016479" lon="26.81514273792156"><ele>199.0</ele><time>2026-04-25T11:17:01.999Z</time></trkpt><trkpt lat="46.595900354059594" lon="26.81537893703467"><ele>199.0</ele><time>2026-04-25T11:17:02.999Z</time></trkpt><trkpt lat="46.59588806765463" lon="26.815620340410465"><ele>199.0</ele><time>2026-04-25T11:17:03.999Z</time></trkpt><trkpt lat="46.595881538701065" lon="26.81586890637133"><ele>199.0</ele><time>2026-04-25T11:17:04.999Z</time></trkpt><trkpt lat="46.59587048619767" lon="26.816114332301296"><ele>199.0</ele><time>2026-04-25T11:17:05.999Z</time></trkpt><trkpt lat="46.59586175409276" lon="26.816363007059184"><ele>199.0</ele><time>2026-04-25T11:17:06.999Z</time></trkpt><trkpt lat="46.59585842011032" lon="26.816607290769998"><ele>199.0</ele><time>2026-04-25T11:17:07.999Z</time></trkpt><trkpt lat="46.595853838403926" lon="26.816851920962726"><ele>199.0</ele><time>2026-04-25T11:17:08.999Z</time></trkpt><trkpt lat="46.59585043070685" lon="26.817086859127418"><ele>199.0</ele><time>2026-04-25T11:17:09.999Z</time></trkpt><trkpt lat="46.595848225509876" lon="26.817319419118956"><ele>199.0</ele><time>2026-04-25T11:17:10.999Z</time></trkpt><trkpt lat="46.59584907898278" lon="26.81755482325713"><ele>199.0</ele><time>2026-04-25T11:17:11.999Z</time></trkpt><trkpt lat="46.595850075615026" lon="26.81777723108131"><ele>199.33333333333331</ele><time>2026-04-25T11:17:12.999Z</time></trkpt><trkpt lat="46.59585154777098" lon="26.817995141091235"><ele>199.66666666666669</ele><time>2026-04-25T11:17:13.999Z</time></trkpt><trkpt lat="46.5958577146334" lon="26.818217254842406"><ele>200.0</ele><time>2026-04-25T11:17:14.999Z</time></trkpt><trkpt lat="46.595861428341294" lon="26.818438969500104"><ele>200.33333333333334</ele><time>2026-04-25T11:17:15.999Z</time></trkpt><trkpt lat="46.59585126166354" lon="26.81867015339124"><ele>200.66666666666669</ele><time>2026-04-25T11:17:16.999Z</time></trkpt><trkpt lat="46.595854586404826" lon="26.81888835341634"><ele>201.0</ele><time>2026-04-25T11:17:17.999Z</time></trkpt><trkpt lat="46.59585284178859" lon="26.819093227011088"><ele>201.0</ele><time>2026-04-25T11:17:18.999Z</time></trkpt><trkpt lat="46.59583132167581" lon="26.819272614509924"><ele>201.0</ele><time>2026-04-25T11:17:19.999Z</time></trkpt><trkpt lat="46.595793552346336" lon="26.819442282839297"><ele>201.0</ele><time>2026-04-25T11:17:20.999Z</time></trkpt><trkpt lat="46.5957422267213" lon="26.819615820637946"><ele>201.0</ele><time>2026-04-25T11:17:21.999Z</time></trkpt><trkpt lat="46.595674668228924" lon="26.81977998158503"><ele>201.5</ele><time>2026-04-25T11:17:22.999Z</time></trkpt><trkpt lat="46.59559923959743" lon="26.819946563058473"><ele>202.0</ele><time>2026-04-25T11:17:23.999Z</time></trkpt><trkpt lat="46.595526550556784" lon="26.820118131263744"><ele>202.5</ele><time>2026-04-25T11:17:24.999Z</time></trkpt><trkpt lat="46.59546958780744" lon="26.82028650149479"><ele>203.0</ele><time>2026-04-25T11:17:25.998Z</time></trkpt><trkpt lat="46.595427124701715" lon="26.82045438519981"><ele>203.75</ele><time>2026-04-25T11:17:26.998Z</time></trkpt><trkpt lat="46.595400333435784" lon="26.820639797463947"><ele>204.5</ele><time>2026-04-25T11:17:27.998Z</time></trkpt><trkpt lat="46.595395788129544" lon="26.82083190486031"><ele>205.25</ele><time>2026-04-25T11:17:28.998Z</time></trkpt><trkpt lat="46.595412418354236" lon="26.821037730434565"><ele>206.0</ele><time>2026-04-25T11:17:29.998Z</time></trkpt><trkpt lat="46.59543383933162" lon="26.821247317877585"><ele>208.0</ele><time>2026-04-25T11:17:30.998Z</time></trkpt><trkpt lat="46.59544512295897" lon="26.82145817454245"><ele>210.0</ele><time>2026-04-25T11:17:31.998Z</time></trkpt><trkpt lat="46.595439237853455" lon="26.82166754499275"><ele>212.0</ele><time>2026-04-25T11:17:33Z</time></trkpt><trkpt lat="46.59542618106629" lon="26.82188203671682"><ele>214.0</ele><time>2026-04-25T11:17:34Z</time></trkpt><trkpt lat="46.59540643398541" lon="26.822097211177603"><ele>216.33333333333331</ele><time>2026-04-25T11:17:35Z</time></trkpt><trkpt lat="46.5953763774684" lon="26.82230868805346"><ele>218.66666666666669</ele><time>2026-04-25T11:17:36Z</time></trkpt><trkpt lat="46.59533324089427" lon="26.822521587509787"><ele>221.0</ele><time>2026-04-25T11:17:37Z</time></trkpt><trkpt lat="46.59528410455674" lon="26.822736114355248"><ele>213.0</ele><time>2026-04-25T11:17:38Z</time></trkpt><trkpt lat="46.595239342067146" lon="26.822952480543147"><ele>205.0</ele><time>2026-04-25T11:17:39Z</time></trkpt><trkpt lat="46.59519704746741" lon="26.823178403368182"><ele>197.0</ele><time>2026-04-25T11:17:40Z</time></trkpt><trkpt lat="46.59515574917485" lon="26.82340676113402"><ele>198.33333333333334</ele><time>2026-04-25T11:17:41Z</time></trkpt><trkpt lat="46.59511531773889" lon="26.823632846192247"><ele>199.66666666666669</ele><time>2026-04-25T11:17:42Z</time></trkpt><trkpt lat="46.59507250188244" lon="26.823857845909387"><ele>201.0</ele><time>2026-04-25T11:17:43Z</time></trkpt><trkpt lat="46.59502914721538" lon="26.824088357468536"><ele>201.0</ele><time>2026-04-25T11:17:44Z</time></trkpt><trkpt lat="46.594985799740705" lon="26.82430003085566"><ele>201.0</ele><time>2026-04-25T11:17:45Z</time></trkpt><trkpt lat="46.59494623538153" lon="26.824507791810607"><ele>201.0</ele><time>2026-04-25T11:17:46Z</time></trkpt><trkpt lat="46.594903816171104" lon="26.82471115718159"><ele>201.0</ele><time>2026-04-25T11:17:47Z</time></trkpt><trkpt lat="46.59486166944961" lon="26.824922435467684"><ele>202.0</ele><time>2026-04-25T11:17:48Z</time></trkpt><trkpt lat="46.59482033966246" lon="26.825134616653237"><ele>203.0</ele><time>2026-04-25T11:17:49Z</time></trkpt><trkpt lat="46.594779860366415" lon="26.825352455028526"><ele>204.0</ele><time>2026-04-25T11:17:50Z</time></trkpt><trkpt lat="46.594743794779866" lon="26.825574035137645"><ele>205.66666666666669</ele><time>2026-04-25T11:17:51Z</time></trkpt><trkpt lat="46.59471250535542" lon="26.8258016439724"><ele>207.33333333333334</ele><time>2026-04-25T11:17:52Z</time></trkpt><trkpt lat="46.59469902569593" lon="26.826045742522474"><ele>209.0</ele><time>2026-04-25T11:17:53Z</time></trkpt><trkpt lat="46.59470091154253" lon="26.826286715711444"><ele>209.33333333333334</ele><time>2026-04-25T11:17:54Z</time></trkpt><trkpt lat="46.59470591434771" lon="26.82652662229813"><ele>209.66666666666669</ele><time>2026-04-25T11:17:55Z</time></trkpt><trkpt lat="46.59470401196565" lon="26.826756948724867"><ele>210.0</ele><time>2026-04-25T11:17:56Z</time></trkpt><trkpt lat="46.59469468413063" lon="26.826988783258113"><ele>208.66666666666669</ele><time>2026-04-25T11:17:57Z</time></trkpt><trkpt lat="46.594690454472655" lon="26.827207877990244"><ele>207.33333333333334</ele><time>2026-04-25T11:17:58Z</time></trkpt><trkpt lat="46.59470289599575" lon="26.827440943863"><ele>206.0</ele><time>2026-04-25T11:17:59Z</time></trkpt><trkpt lat="46.594728375979656" lon="26.827673086220926"><ele>204.75</ele><time>2026-04-25T11:18:00Z</time></trkpt><trkpt lat="46.594771691754694" lon="26.827880277919167"><ele>203.5</ele><time>2026-04-25T11:18:01Z</time></trkpt><trkpt lat="46.59482538758019" lon="26.828060774081848"><ele>202.25</ele><time>2026-04-25T11:18:02Z</time></trkpt><trkpt lat="46.59489781752503" lon="26.828228075412873"><ele>201.0</ele><time>2026-04-25T11:18:03Z</time></trkpt><trkpt lat="46.59498160000174" lon="26.828392704670286"><ele>201.75</ele><time>2026-04-25T11:18:04Z</time></trkpt><trkpt lat="46.59508130567795" lon="26.828543458153373"><ele>202.5</ele><time>2026-04-25T11:18:05Z</time></trkpt><trkpt lat="46.595190396693674" lon="26.828684141579195"><ele>203.25</ele><time>2026-04-25T11:18:06Z</time></trkpt><trkpt lat="46.59529625913145" lon="26.828805027286233"><ele>204.0</ele><time>2026-04-25T11:18:07Z</time></trkpt><trkpt lat="46.595394870833125" lon="26.828916487620432"><ele>204.0</ele><time>2026-04-25T11:18:08Z</time></trkpt><trkpt lat="46.59548290841807" lon="26.829032387192864"><ele>204.0</ele><time>2026-04-25T11:18:09Z</time></trkpt><trkpt lat="46.595552372183555" lon="26.82917355488721"><ele>204.0</ele><time>2026-04-25T11:18:10Z</time></trkpt><trkpt lat="46.59560831788488" lon="26.82934458192924"><ele>204.0</ele><time>2026-04-25T11:18:11Z</time></trkpt><trkpt lat="46.595647214317786" lon="26.82953220923599"><ele>202.5</ele><time>2026-04-25T11:18:12Z</time></trkpt><trkpt lat="46.59566165633145" lon="26.829735029362233"><ele>201.0</ele><time>2026-04-25T11:18:13Z</time></trkpt><trkpt lat="46.595667931305115" lon="26.82994574969974"><ele>199.5</ele><time>2026-04-25T11:18:14Z</time></trkpt><trkpt lat="46.595670700425494" lon="26.83016745017747"><ele>198.0</ele><time>2026-04-25T11:18:15Z</time></trkpt><trkpt lat="46.595698023092766" lon="26.830390298333867"><ele>196.66666666666669</ele><time>2026-04-25T11:18:16Z</time></trkpt><trkpt lat="46.595747818177266" lon="26.83060195653142"><ele>195.33333333333334</ele><time>2026-04-25T11:18:17Z</time></trkpt><trkpt lat="46.59581966671035" lon="26.830819928246033"><ele>194.0</ele><time>2026-04-25T11:18:18Z</time></trkpt><trkpt lat="46.59589348156259" lon="26.83102777172186"><ele>193.0</ele><time>2026-04-25T11:18:19Z</time></trkpt><trkpt lat="46.59596375741761" lon="26.831231079469354"><ele>192.0</ele><time>2026-04-25T11:18:20Z</time></trkpt><trkpt lat="46.596027638463276" lon="26.831420966607773"><ele>191.0</ele><time>2026-04-25T11:18:21Z</time></trkpt><trkpt lat="46.59608356964919" lon="26.831606200195598"><ele>190.0</ele><time>2026-04-25T11:18:22Z</time></trkpt><trkpt lat="46.596126286924225" lon="26.831796235567253"><ele>190.0</ele><time>2026-04-25T11:18:22.999Z</time></trkpt><trkpt lat="46.59615339706991" lon="26.83198275243111"><ele>190.0</ele><time>2026-04-25T11:18:23.999Z</time></trkpt><trkpt lat="46.59616893139146" lon="26.832187827090767"><ele>190.0</ele><time>2026-04-25T11:18:24.999Z</time></trkpt><trkpt lat="46.59617555666202" lon="26.832403154861677"><ele>190.0</ele><time>2026-04-25T11:18:25.999Z</time></trkpt><trkpt lat="46.59617845545186" lon="26.832624812290753"><ele>192.33333333333334</ele><time>2026-04-25T11:18:26.999Z</time></trkpt><trkpt lat="46.596187176196025" lon="26.832842282143776"><ele>194.66666666666669</ele><time>2026-04-25T11:18:27.999Z</time></trkpt><trkpt lat="46.596200288055826" lon="26.833063205557327"><ele>197.0</ele><time>2026-04-25T11:18:28.999Z</time></trkpt><trkpt lat="46.59620693527683" lon="26.833283287428358"><ele>197.0</ele><time>2026-04-25T11:18:29.999Z</time></trkpt><trkpt lat="46.59620312096983" lon="26.833504555516434"><ele>197.0</ele><time>2026-04-25T11:18:30.999Z</time></trkpt><trkpt lat="46.59618855074552" lon="26.83372905849666"><ele>197.0</ele><time>2026-04-25T11:18:31.999Z</time></trkpt><trkpt lat="46.5961594686768" lon="26.83394823489806"><ele>197.0</ele><time>2026-04-25T11:18:32.999Z</time></trkpt><trkpt lat="46.596119511839184" lon="26.83417095715958"><ele>197.0</ele><time>2026-04-25T11:18:33.999Z</time></trkpt><trkpt lat="46.59607725941712" lon="26.83438982133706"><ele>197.0</ele><time>2026-04-25T11:18:34.999Z</time></trkpt><trkpt lat="46.59603581951524" lon="26.834622446538262"><ele>198.0</ele><time>2026-04-25T11:18:35.999Z</time></trkpt><trkpt lat="46.595994307857374" lon="26.834854448932024"><ele>199.0</ele><time>2026-04-25T11:18:36.999Z</time></trkpt><trkpt lat="46.59595704765226" lon="26.835083778195536"><ele>200.0</ele><time>2026-04-25T11:18:37.999Z</time></trkpt><trkpt lat="46.59591472251539" lon="26.835316087774284"><ele>200.0</ele><time>2026-04-25T11:18:38.999Z</time></trkpt><trkpt lat="46.59586545619049" lon="26.8355452410647"><ele>200.0</ele><time>2026-04-25T11:18:39.999Z</time></trkpt><trkpt lat="46.59579704962641" lon="26.835770681341362"><ele>200.0</ele><time>2026-04-25T11:18:40.999Z</time></trkpt><trkpt lat="46.59571211068455" lon="26.83598360681253"><ele>200.66666666666669</ele><time>2026-04-25T11:18:41.999Z</time></trkpt><trkpt lat="46.59561635336213" lon="26.836180912397285"><ele>201.33333333333331</ele><time>2026-04-25T11:18:42.999Z</time></trkpt><trkpt lat="46.595516015788675" lon="26.836375669963225"><ele>202.0</ele><time>2026-04-25T11:18:43.999Z</time></trkpt><trkpt lat="46.59541587655444" lon="26.836564095763187"><ele>201.33333333333331</ele><time>2026-04-25T11:18:44.999Z</time></trkpt><trkpt lat="46.59530994188966" lon="26.836757147499508"><ele>200.66666666666669</ele><time>2026-04-25T11:18:45.999Z</time></trkpt><trkpt lat="46.595205268665005" lon="26.836962166613386"><ele>200.0</ele><time>2026-04-25T11:18:46.999Z</time></trkpt><trkpt lat="46.59510908810731" lon="26.83715005688558"><ele>200.0</ele><time>2026-04-25T11:18:47.999Z</time></trkpt><trkpt lat="46.595013815089075" lon="26.83733393935351"><ele>200.0</ele><time>2026-04-25T11:18:48.999Z</time></trkpt><trkpt lat="46.59491311084281" lon="26.837516079921247"><ele>200.0</ele><time>2026-04-25T11:18:49.999Z</time></trkpt><trkpt lat="46.59480912585949" lon="26.83769019923776"><ele>201.33333333333334</ele><time>2026-04-25T11:18:50.999Z</time></trkpt><trkpt lat="46.594704324969385" lon="26.837857938717185"><ele>202.66666666666669</ele><time>2026-04-25T11:18:51.999Z</time></trkpt><trkpt lat="46.594595456091774" lon="26.838032252003394"><ele>204.0</ele><time>2026-04-25T11:18:52.999Z</time></trkpt><trkpt lat="46.594484058982935" lon="26.838203603145562"><ele>201.66666666666669</ele><time>2026-04-25T11:18:53.999Z</time></trkpt><trkpt lat="46.59437556304074" lon="26.838378824871633"><ele>199.33333333333334</ele><time>2026-04-25T11:18:54.999Z</time></trkpt><trkpt lat="46.594265274395376" lon="26.838569213716944"><ele>197.0</ele><time>2026-04-25T11:18:55.999Z</time></trkpt><trkpt lat="46.59415462095045" lon="26.838755021040598"><ele>197.0</ele><time>2026-04-25T11:18:56.999Z</time></trkpt><trkpt lat="46.594043860019376" lon="26.838945610698108"><ele>197.0</ele><time>2026-04-25T11:18:57.999Z</time></trkpt><trkpt lat="46.59393455076118" lon="26.839125850730046"><ele>197.0</ele><time>2026-04-25T11:18:58.999Z</time></trkpt><trkpt lat="46.5938334251405" lon="26.839298978024573"><ele>198.33333333333334</ele><time>2026-04-25T11:18:59.999Z</time></trkpt><trkpt lat="46.593727669210416" lon="26.839463271175948"><ele>199.66666666666669</ele><time>2026-04-25T11:19:00.999Z</time></trkpt><trkpt lat="46.59361837046422" lon="26.83962295306499"><ele>201.0</ele><time>2026-04-25T11:19:01.999Z</time></trkpt><trkpt lat="46.5935079326303" lon="26.839782725129343"><ele>200.33333333333331</ele><time>2026-04-25T11:19:02.999Z</time></trkpt><trkpt lat="46.59338261679848" lon="26.839943104585686"><ele>199.66666666666666</ele><time>2026-04-25T11:19:03.999Z</time></trkpt><trkpt lat="46.593243379256" lon="26.840092865622815"><ele>199.0</ele><time>2026-04-25T11:19:04.999Z</time></trkpt><trkpt lat="46.59311058570534" lon="26.84023292096288"><ele>199.0</ele><time>2026-04-25T11:19:05.999Z</time></trkpt><trkpt lat="46.592972503199604" lon="26.840379297232086"><ele>199.0</ele><time>2026-04-25T11:19:06.999Z</time></trkpt><trkpt lat="46.59284244650208" lon="26.840526014246397"><ele>199.0</ele><time>2026-04-25T11:19:07.999Z</time></trkpt><trkpt lat="46.59271146127408" lon="26.84068214082"><ele>197.66666666666666</ele><time>2026-04-25T11:19:08.999Z</time></trkpt><trkpt lat="46.59259100585043" lon="26.840851533320073"><ele>196.33333333333331</ele><time>2026-04-25T11:19:09.999Z</time></trkpt><trkpt lat="46.59247993497512" lon="26.84103635991367"><ele>195.0</ele><time>2026-04-25T11:19:10.999Z</time></trkpt><trkpt lat="46.59237595851343" lon="26.84123087047567"><ele>195.0</ele><time>2026-04-25T11:19:11.999Z</time></trkpt><trkpt lat="46.592277381979045" lon="26.841420951422492"><ele>195.0</ele><time>2026-04-25T11:19:12.999Z</time></trkpt><trkpt lat="46.59216997452992" lon="26.841610094220826"><ele>195.0</ele><time>2026-04-25T11:19:13.999Z</time></trkpt><trkpt lat="46.592050311337054" lon="26.841789562169133"><ele>194.33333333333331</ele><time>2026-04-25T11:19:14.999Z</time></trkpt><trkpt lat="46.59192743280391" lon="26.84196412791755"><ele>193.66666666666666</ele><time>2026-04-25T11:19:15.999Z</time></trkpt><trkpt lat="46.591805727795446" lon="26.842141707091983"><ele>193.0</ele><time>2026-04-25T11:19:16.999Z</time></trkpt><trkpt lat="46.59168670617941" lon="26.84231209719122"><ele>193.0</ele><time>2026-04-25T11:19:17.999Z</time></trkpt><trkpt lat="46.59158474155876" lon="26.84245928458168"><ele>193.0</ele><time>2026-04-25T11:19:18.999Z</time></trkpt><trkpt lat="46.591484600433255" lon="26.84260171740961"><ele>193.0</ele><time>2026-04-25T11:19:19.999Z</time></trkpt><trkpt lat="46.591389674668605" lon="26.84273716957877"><ele>193.0</ele><time>2026-04-25T11:19:20.999Z</time></trkpt><trkpt lat="46.59128693758836" lon="26.84287630821941"><ele>193.0</ele><time>2026-04-25T11:19:21.999Z</time></trkpt><trkpt lat="46.591181121254266" lon="26.84301244423317"><ele>193.0</ele><time>2026-04-25T11:19:22.999Z</time></trkpt><trkpt lat="46.591065981337856" lon="26.84314898948864"><ele>193.0</ele><time>2026-04-25T11:19:23.999Z</time></trkpt><trkpt lat="46.59094770663843" lon="26.843290602682245"><ele>193.0</ele><time>2026-04-25T11:19:24.999Z</time></trkpt><trkpt lat="46.59082298495356" lon="26.84343420841502"><ele>194.33333333333331</ele><time>2026-04-25T11:19:25.999Z</time></trkpt><trkpt lat="46.59070049024739" lon="26.84358155253503"><ele>195.66666666666669</ele><time>2026-04-25T11:19:26.999Z</time></trkpt><trkpt lat="46.590579852737974" lon="26.843727684834313"><ele>197.0</ele><time>2026-04-25T11:19:27.999Z</time></trkpt><trkpt lat="46.59045836708352" lon="26.843875718923886"><ele>195.0</ele><time>2026-04-25T11:19:28.999Z</time></trkpt><trkpt lat="46.590336517337" lon="26.84403702528664"><ele>193.0</ele><time>2026-04-25T11:19:29.998Z</time></trkpt><trkpt lat="46.59022197431062" lon="26.84420716382199"><ele>191.0</ele><time>2026-04-25T11:19:30.998Z</time></trkpt><trkpt lat="46.5901155013088" lon="26.844388769290102"><ele>191.0</ele><time>2026-04-25T11:19:31.998Z</time></trkpt><trkpt lat="46.59002109705481" lon="26.844604031924707"><ele>191.0</ele><time>2026-04-25T11:19:32.998Z</time></trkpt><trkpt lat="46.58993167167608" lon="26.84480232371206"><ele>191.0</ele><time>2026-04-25T11:19:33.998Z</time></trkpt><trkpt lat="46.58985218935703" lon="26.845011765711583"><ele>193.33333333333331</ele><time>2026-04-25T11:19:34.998Z</time></trkpt><trkpt lat="46.58977024960239" lon="26.84522277474386"><ele>195.66666666666666</ele><time>2026-04-25T11:19:35.998Z</time></trkpt><trkpt lat="46.58968826567621" lon="26.84541782010698"><ele>198.0</ele><time>2026-04-25T11:19:36.998Z</time></trkpt><trkpt lat="46.589594446235104" lon="26.845604328199187"><ele>196.33333333333331</ele><time>2026-04-25T11:19:37.998Z</time></trkpt><trkpt lat="46.58949092764978" lon="26.84576386030715"><ele>194.66666666666666</ele><time>2026-04-25T11:19:39Z</time></trkpt><trkpt lat="46.58937381805918" lon="26.8459233103348"><ele>193.0</ele><time>2026-04-25T11:19:40Z</time></trkpt><trkpt lat="46.589250536896394" lon="26.846085565614622"><ele>193.0</ele><time>2026-04-25T11:19:41Z</time></trkpt><trkpt lat="46.58914701632561" lon="26.846247725352864"><ele>193.0</ele><time>2026-04-25T11:19:42Z</time></trkpt><trkpt lat="46.58906299232014" lon="26.846400921969472"><ele>193.0</ele><time>2026-04-25T11:19:43Z</time></trkpt><trkpt lat="46.588967784199546" lon="26.84654985297706"><ele>193.0</ele><time>2026-04-25T11:19:44Z</time></trkpt><trkpt lat="46.58885162385184" lon="26.846680124841882"><ele>193.0</ele><time>2026-04-25T11:19:45Z</time></trkpt><trkpt lat="46.58872909462847" lon="26.84679078292719"><ele>193.0</ele><time>2026-04-25T11:19:46Z</time></trkpt><trkpt lat="46.588605411595964" lon="26.84689739754912"><ele>193.0</ele><time>2026-04-25T11:19:47Z</time></trkpt><trkpt lat="46.5884818611933" lon="26.847009779436192"><ele>193.0</ele><time>2026-04-25T11:19:48Z</time></trkpt><trkpt lat="46.58835959789845" lon="26.847112415734056"><ele>193.25</ele><time>2026-04-25T11:19:49Z</time></trkpt><trkpt lat="46.5882440127003" lon="26.84722082630999"><ele>193.5</ele><time>2026-04-25T11:19:50Z</time></trkpt><trkpt lat="46.58813997723259" lon="26.847347617346582"><ele>193.75</ele><time>2026-04-25T11:19:51Z</time></trkpt><trkpt lat="46.58805526991486" lon="26.84750223047176"><ele>194.0</ele><time>2026-04-25T11:19:52Z</time></trkpt><trkpt lat="46.58798230701678" lon="26.847678972642605"><ele>193.25</ele><time>2026-04-25T11:19:53Z</time></trkpt><trkpt lat="46.58792654520394" lon="26.84786557721937"><ele>192.5</ele><time>2026-04-25T11:19:54Z</time></trkpt><trkpt lat="46.58787434767823" lon="26.848059943628297"><ele>191.75</ele><time>2026-04-25T11:19:55Z</time></trkpt><trkpt lat="46.58781373270829" lon="26.848255958760735"><ele>191.0</ele><time>2026-04-25T11:19:56Z</time></trkpt><trkpt lat="46.587745829575816" lon="26.84844714241915"><ele>192.0</ele><time>2026-04-25T11:19:57Z</time></trkpt><trkpt lat="46.58766492983628" lon="26.84863378855071"><ele>193.0</ele><time>2026-04-25T11:19:58Z</time></trkpt><trkpt lat="46.587572647386445" lon="26.84881155859566"><ele>194.0</ele><time>2026-04-25T11:19:59Z</time></trkpt><trkpt lat="46.587477210623526" lon="26.848979739317357"><ele>194.0</ele><time>2026-04-25T11:20:00Z</time></trkpt><trkpt lat="46.587376149201106" lon="26.84914463274019"><ele>194.0</ele><time>2026-04-25T11:20:01Z</time></trkpt><trkpt lat="46.5872755648739" lon="26.84930850571722"><ele>194.0</ele><time>2026-04-25T11:20:02Z</time></trkpt><trkpt lat="46.58718579720895" lon="26.84945928376119"><ele>194.0</ele><time>2026-04-25T11:20:03Z</time></trkpt><trkpt lat="46.58710240325285" lon="26.849611216871093"><ele>193.25</ele><time>2026-04-25T11:20:04Z</time></trkpt><trkpt lat="46.587028079324405" lon="26.849775836342086"><ele>192.5</ele><time>2026-04-25T11:20:05Z</time></trkpt><trkpt lat="46.5869654673441" lon="26.849961963667624"><ele>191.75</ele><time>2026-04-25T11:20:06Z</time></trkpt><trkpt lat="46.58692296575038" lon="26.850162118900776"><ele>191.0</ele><time>2026-04-25T11:20:07Z</time></trkpt><trkpt lat="46.58689664173286" lon="26.85036855691636"><ele>191.0</ele><time>2026-04-25T11:20:08Z</time></trkpt><trkpt lat="46.586871900704054" lon="26.85056373809025"><ele>191.0</ele><time>2026-04-25T11:20:09Z</time></trkpt><trkpt lat="46.58684060858573" lon="26.85074583232248"><ele>191.0</ele><time>2026-04-25T11:20:10Z</time></trkpt><trkpt lat="46.58680134038323" lon="26.85092430759642"><ele>191.0</ele><time>2026-04-25T11:20:11Z</time></trkpt><trkpt lat="46.58675165919546" lon="26.851093647409744"><ele>191.75</ele><time>2026-04-25T11:20:12Z</time></trkpt><trkpt lat="46.586682211105" lon="26.85125280561797"><ele>192.5</ele><time>2026-04-25T11:20:13Z</time></trkpt><trkpt lat="46.58660433864723" lon="26.851411002441914"><ele>193.25</ele><time>2026-04-25T11:20:14Z</time></trkpt><trkpt lat="46.586519605102524" lon="26.85157040775758"><ele>194.0</ele><time>2026-04-25T11:20:15Z</time></trkpt><trkpt lat="46.58642938034429" lon="26.85172781650359"><ele>193.0</ele><time>2026-04-25T11:20:16Z</time></trkpt><trkpt lat="46.5863340090271" lon="26.85188600448503"><ele>192.0</ele><time>2026-04-25T11:20:17Z</time></trkpt><trkpt lat="46.58623238857752" lon="26.85204729198077"><ele>191.0</ele><time>2026-04-25T11:20:18Z</time></trkpt><trkpt lat="46.586128990605616" lon="26.85220674266519"><ele>190.0</ele><time>2026-04-25T11:20:19Z</time></trkpt><trkpt lat="46.58602026755978" lon="26.8523695207721"><ele>190.0</ele><time>2026-04-25T11:20:20Z</time></trkpt><trkpt lat="46.58590676160814" lon="26.852531342477732"><ele>190.0</ele><time>2026-04-25T11:20:21Z</time></trkpt><trkpt lat="46.58579693666117" lon="26.852691016720673"><ele>190.0</ele><time>2026-04-25T11:20:22Z</time></trkpt><trkpt lat="46.58568711645567" lon="26.852855586846935"><ele>191.33333333333334</ele><time>2026-04-25T11:20:23Z</time></trkpt><trkpt lat="46.58558443671981" lon="26.853034825615918"><ele>192.66666666666669</ele><time>2026-04-25T11:20:24Z</time></trkpt><trkpt lat="46.58550136203836" lon="26.853210885250753"><ele>194.0</ele><time>2026-04-25T11:20:25Z</time></trkpt><trkpt lat="46.58542437999799" lon="26.853396870837596"><ele>192.66666666666669</ele><time>2026-04-25T11:20:25.999Z</time></trkpt><trkpt lat="46.58538158937854" lon="26.85355060753842"><ele>191.33333333333334</ele><time>2026-04-25T11:20:26.999Z</time></trkpt><trkpt lat="46.58532686966088" lon="26.85365793240971"><ele>190.0</ele><time>2026-04-25T11:20:27.999Z</time></trkpt><trkpt lat="46.585165957548895" lon="26.854011428056495"><ele>190.0</ele><time>2026-04-25T11:20:28.999Z</time></trkpt><trkpt lat="46.58508188958598" lon="26.85421272086295"><ele>190.0</ele><time>2026-04-25T11:20:29.999Z</time></trkpt><trkpt lat="46.58499170056594" lon="26.854412252967013"><ele>190.0</ele><time>2026-04-25T11:20:30.999Z</time></trkpt><trkpt lat="46.58490457257361" lon="26.854618476668247"><ele>191.33333333333334</ele><time>2026-04-25T11:20:31.999Z</time></trkpt><trkpt lat="46.58482053155389" lon="26.85482570602673"><ele>192.66666666666669</ele><time>2026-04-25T11:20:32.999Z</time></trkpt><trkpt lat="46.58473733740528" lon="26.85502153391268"><ele>194.0</ele><time>2026-04-25T11:20:33.999Z</time></trkpt><trkpt lat="46.58466296666009" lon="26.855204144687395"><ele>195.25</ele><time>2026-04-25T11:20:34.999Z</time></trkpt><trkpt lat="46.5845866953103" lon="26.855382759226767"><ele>196.5</ele><time>2026-04-25T11:20:35.999Z</time></trkpt><trkpt lat="46.58450977754928" lon="26.855561608444386"><ele>197.75</ele><time>2026-04-25T11:20:36.999Z</time></trkpt><trkpt lat="46.58442861646131" lon="26.8557403209043"><ele>199.0</ele><time>2026-04-25T11:20:37.999Z</time></trkpt><trkpt lat="46.58433708887235" lon="26.855911922280526"><ele>196.66666666666666</ele><time>2026-04-25T11:20:38.999Z</time></trkpt><trkpt lat="46.58424278518243" lon="26.856085223712157"><ele>194.33333333333331</ele><time>2026-04-25T11:20:39.999Z</time></trkpt><trkpt lat="46.58414193209102" lon="26.856254618743794"><ele>192.0</ele><time>2026-04-25T11:20:40.999Z</time></trkpt><trkpt lat="46.58403565032526" lon="26.85642335270759"><ele>192.0</ele><time>2026-04-25T11:20:41.999Z</time></trkpt><trkpt lat="46.5839367010491" lon="26.85658815662721"><ele>192.0</ele><time>2026-04-25T11:20:42.999Z</time></trkpt><trkpt lat="46.58385641635728" lon="26.856749347182202"><ele>192.0</ele><time>2026-04-25T11:20:43.999Z</time></trkpt><trkpt lat="46.5837849703262" lon="26.856904001303523"><ele>192.0</ele><time>2026-04-25T11:20:44.999Z</time></trkpt><trkpt lat="46.58371867596777" lon="26.857040696797494"><ele>191.25</ele><time>2026-04-25T11:20:45.999Z</time></trkpt><trkpt lat="46.58366985730018" lon="26.85718432452327"><ele>190.5</ele><time>2026-04-25T11:20:46.999Z</time></trkpt><trkpt lat="46.58362792073259" lon="26.857334950570603"><ele>189.75</ele><time>2026-04-25T11:20:47.999Z</time></trkpt><trkpt lat="46.58358555691959" lon="26.857500931726072"><ele>189.0</ele><time>2026-04-25T11:20:48.999Z</time></trkpt><trkpt lat="46.58355079560571" lon="26.857678444835155"><ele>189.0</ele><time>2026-04-25T11:20:49.999Z</time></trkpt><trkpt lat="46.583530988842696" lon="26.85786855335053"><ele>189.0</ele><time>2026-04-25T11:20:50.999Z</time></trkpt><trkpt lat="46.58353327342616" lon="26.85807500086733"><ele>189.0</ele><time>2026-04-25T11:20:51.999Z</time></trkpt><trkpt lat="46.58351435605372" lon="26.858260124070714"><ele>189.0</ele><time>2026-04-25T11:20:52.999Z</time></trkpt><trkpt lat="46.58349452825121" lon="26.85843502885701"><ele>189.0</ele><time>2026-04-25T11:20:53.999Z</time></trkpt><trkpt lat="46.58347863204024" lon="26.85860074729941"><ele>189.0</ele><time>2026-04-25T11:20:54.999Z</time></trkpt><trkpt lat="46.58345880013646" lon="26.85876028281613"><ele>189.0</ele><time>2026-04-25T11:20:55.999Z</time></trkpt><trkpt lat="46.583432119845526" lon="26.858930148631757"><ele>189.0</ele><time>2026-04-25T11:20:56.999Z</time></trkpt><trkpt lat="46.583395429838255" lon="26.859101076712598"><ele>189.0</ele><time>2026-04-25T11:20:57.999Z</time></trkpt><trkpt lat="46.58335523390592" lon="26.859274819290775"><ele>189.0</ele><time>2026-04-25T11:20:58.999Z</time></trkpt><trkpt lat="46.58331178855008" lon="26.859442175108928"><ele>189.0</ele><time>2026-04-25T11:20:59.999Z</time></trkpt><trkpt lat="46.58326619144948" lon="26.859614113857326"><ele>189.0</ele><time>2026-04-25T11:21:00.999Z</time></trkpt><trkpt lat="46.583222751201106" lon="26.859791994421897"><ele>189.0</ele><time>2026-04-25T11:21:01.999Z</time></trkpt><trkpt lat="46.58317830581506" lon="26.85996630093071"><ele>189.0</ele><time>2026-04-25T11:21:02.999Z</time></trkpt><trkpt lat="46.58313739079741" lon="26.860125061622316"><ele>189.0</ele><time>2026-04-25T11:21:03.999Z</time></trkpt><trkpt lat="46.58309958469235" lon="26.86027965885462"><ele>189.0</ele><time>2026-04-25T11:21:04.999Z</time></trkpt><trkpt lat="46.583054220552214" lon="26.86044052914983"><ele>188.5</ele><time>2026-04-25T11:21:05.999Z</time></trkpt><trkpt lat="46.58301117403187" lon="26.86061211822324"><ele>188.0</ele><time>2026-04-25T11:21:06.999Z</time></trkpt><trkpt lat="46.58296029041823" lon="26.860790240991058"><ele>187.5</ele><time>2026-04-25T11:21:07.999Z</time></trkpt><trkpt lat="46.58290372905207" lon="26.860973379996288"><ele>187.0</ele><time>2026-04-25T11:21:08.999Z</time></trkpt><trkpt lat="46.58284566082055" lon="26.861165915809785"><ele>186.0</ele><time>2026-04-25T11:21:09.999Z</time></trkpt><trkpt lat="46.582778700347035" lon="26.861356319488788"><ele>185.0</ele><time>2026-04-25T11:21:10.999Z</time></trkpt><trkpt lat="46.582707532781995" lon="26.861551704288523"><ele>184.0</ele><time>2026-04-25T11:21:11.999Z</time></trkpt><trkpt lat="46.58264081551332" lon="26.86174730891261"><ele>183.0</ele><time>2026-04-25T11:21:12.999Z</time></trkpt><trkpt lat="46.58257348969681" lon="26.861939785828394"><ele>183.0</ele><time>2026-04-25T11:21:13.999Z</time></trkpt><trkpt lat="46.58250614460298" lon="26.862130182359795"><ele>183.0</ele><time>2026-04-25T11:21:14.999Z</time></trkpt><trkpt lat="46.58244499152117" lon="26.862312300605552"><ele>183.0</ele><time>2026-04-25T11:21:15.999Z</time></trkpt><trkpt lat="46.58237892229506" lon="26.862498782542804"><ele>183.0</ele><time>2026-04-25T11:21:16.999Z</time></trkpt><trkpt lat="46.58231345063711" lon="26.862687688938532"><ele>183.0</ele><time>2026-04-25T11:21:17.999Z</time></trkpt><trkpt lat="46.58224803269292" lon="26.86288092339433"><ele>183.0</ele><time>2026-04-25T11:21:18.999Z</time></trkpt><trkpt lat="46.582182213084465" lon="26.86307502314784"><ele>183.0</ele><time>2026-04-25T11:21:19.999Z</time></trkpt><trkpt lat="46.58211473682131" lon="26.86327237129835"><ele>183.0</ele><time>2026-04-25T11:21:20.999Z</time></trkpt><trkpt lat="46.58204373288877" lon="26.863467337920568"><ele>183.33333333333334</ele><time>2026-04-25T11:21:21.999Z</time></trkpt><trkpt lat="46.581974856992495" lon="26.86366369233717"><ele>183.66666666666669</ele><time>2026-04-25T11:21:22.999Z</time></trkpt><trkpt lat="46.58191062437243" lon="26.863860728083885"><ele>184.0</ele><time>2026-04-25T11:21:23.999Z</time></trkpt><trkpt lat="46.581843349602394" lon="26.864062012327505"><ele>184.0</ele><time>2026-04-25T11:21:24.999Z</time></trkpt><trkpt lat="46.58177442480431" lon="26.864258004417554"><ele>184.0</ele><time>2026-04-25T11:21:25.999Z</time></trkpt><trkpt lat="46.58170594348254" lon="26.864451145489898"><ele>184.0</ele><time>2026-04-25T11:21:26.999Z</time></trkpt><trkpt lat="46.58163470512058" lon="26.864645724367087"><ele>183.75</ele><time>2026-04-25T11:21:27.999Z</time></trkpt><trkpt lat="46.58156284360093" lon="26.864834941183496"><ele>183.5</ele><time>2026-04-25T11:21:28.999Z</time></trkpt><trkpt lat="46.58148855326844" lon="26.86502485719221"><ele>183.25</ele><time>2026-04-25T11:21:29.999Z</time></trkpt><trkpt lat="46.58141688623743" lon="26.865217415190223"><ele>183.0</ele><time>2026-04-25T11:21:30.999Z</time></trkpt><trkpt lat="46.58135256300678" lon="26.8654118626562"><ele>183.0</ele><time>2026-04-25T11:21:31.999Z</time></trkpt><trkpt lat="46.58128827516151" lon="26.865602494757304"><ele>183.0</ele><time>2026-04-25T11:21:32.998Z</time></trkpt><trkpt lat="46.58122555146048" lon="26.865792176958482"><ele>183.0</ele><time>2026-04-25T11:21:33.998Z</time></trkpt><trkpt lat="46.581162670869034" lon="26.865980584958123"><ele>183.0</ele><time>2026-04-25T11:21:34.998Z</time></trkpt><trkpt lat="46.58109964394567" lon="26.866166871549503"><ele>183.25</ele><time>2026-04-25T11:21:35.998Z</time></trkpt><trkpt lat="46.58103691114902" lon="26.86634882551572"><ele>183.5</ele><time>2026-04-25T11:21:36.998Z</time></trkpt><trkpt lat="46.58097166692588" lon="26.866540903495974"><ele>183.75</ele><time>2026-04-25T11:21:37.998Z</time></trkpt><trkpt lat="46.58090930182286" lon="26.866725539185545"><ele>184.0</ele><time>2026-04-25T11:21:38.998Z</time></trkpt><trkpt lat="46.58084784300846" lon="26.86690558028081"><ele>184.0</ele><time>2026-04-25T11:21:39.998Z</time></trkpt><trkpt lat="46.58078917126217" lon="26.867080349309166"><ele>184.0</ele><time>2026-04-25T11:21:40.998Z</time></trkpt><trkpt lat="46.58072636961749" lon="26.867257362287464"><ele>184.0</ele><time>2026-04-25T11:21:41.998Z</time></trkpt><trkpt lat="46.58066835837963" lon="26.86743026205048"><ele>184.0</ele><time>2026-04-25T11:21:42.998Z</time></trkpt><trkpt lat="46.58060361543569" lon="26.867615135726677"><ele>184.0</ele><time>2026-04-25T11:21:43.998Z</time></trkpt><trkpt lat="46.580541317970656" lon="26.867797637184452"><ele>184.0</ele><time>2026-04-25T11:21:45Z</time></trkpt><trkpt lat="46.580477938814944" lon="26.867979618039833"><ele>184.0</ele><time>2026-04-25T11:21:46Z</time></trkpt><trkpt lat="46.58041388781391" lon="26.868161399324368"><ele>184.0</ele><time>2026-04-25T11:21:47Z</time></trkpt><trkpt lat="46.58034822214462" lon="26.86835033561337"><ele>183.5</ele><time>2026-04-25T11:21:48Z</time></trkpt><trkpt lat="46.5802804587229" lon="26.868538663917132"><ele>183.0</ele><time>2026-04-25T11:21:49Z</time></trkpt><trkpt lat="46.580214181137016" lon="26.868729253422185"><ele>182.5</ele><time>2026-04-25T11:21:50Z</time></trkpt><trkpt lat="46.580145855315486" lon="26.868925451417677"><ele>182.0</ele><time>2026-04-25T11:21:51Z</time></trkpt><trkpt lat="46.58007405976026" lon="26.869124173676138"><ele>181.66666666666666</ele><time>2026-04-25T11:21:52Z</time></trkpt><trkpt lat="46.58000242353917" lon="26.869322518774"><ele>181.33333333333334</ele><time>2026-04-25T11:21:53Z</time></trkpt><trkpt lat="46.5799297330631" lon="26.86952107783532"><ele>181.0</ele><time>2026-04-25T11:21:54Z</time></trkpt><trkpt lat="46.57986314717045" lon="26.869721090395853"><ele>181.0</ele><time>2026-04-25T11:21:55Z</time></trkpt><trkpt lat="46.579792075491405" lon="26.869929273069495"><ele>181.0</ele><time>2026-04-25T11:21:56Z</time></trkpt><trkpt lat="46.57972301065597" lon="26.8701323944867"><ele>181.0</ele><time>2026-04-25T11:21:57Z</time></trkpt><trkpt lat="46.57965071192676" lon="26.870339173561867"><ele>181.0</ele><time>2026-04-25T11:21:58Z</time></trkpt><trkpt lat="46.579579947492945" lon="26.870538500482755"><ele>181.0</ele><time>2026-04-25T11:21:59Z</time></trkpt><trkpt lat="46.57950728202668" lon="26.87073956077494"><ele>181.0</ele><time>2026-04-25T11:22:00Z</time></trkpt><trkpt lat="46.57943562907284" lon="26.870945652574775"><ele>180.66666666666669</ele><time>2026-04-25T11:22:01Z</time></trkpt><trkpt lat="46.57936518240786" lon="26.871147803938495"><ele>180.33333333333334</ele><time>2026-04-25T11:22:02Z</time></trkpt><trkpt lat="46.57929320314808" lon="26.871355608111056"><ele>180.0</ele><time>2026-04-25T11:22:03Z</time></trkpt><trkpt lat="46.579219092089104" lon="26.871566286737792"><ele>180.0</ele><time>2026-04-25T11:22:04Z</time></trkpt><trkpt lat="46.57914599248441" lon="26.87177212509746"><ele>180.0</ele><time>2026-04-25T11:22:05Z</time></trkpt><trkpt lat="46.579079390558455" lon="26.871971449136236"><ele>180.0</ele><time>2026-04-25T11:22:06Z</time></trkpt><trkpt lat="46.579012006854036" lon="26.872159104163092"><ele>180.25</ele><time>2026-04-25T11:22:07Z</time></trkpt><trkpt lat="46.57894803112813" lon="26.87234379501043"><ele>180.5</ele><time>2026-04-25T11:22:08Z</time></trkpt><trkpt lat="46.578884631281845" lon="26.872523326501646"><ele>180.75</ele><time>2026-04-25T11:22:09Z</time></trkpt><trkpt lat="46.578827541677555" lon="26.872686389642254"><ele>181.0</ele><time>2026-04-25T11:22:10Z</time></trkpt><trkpt lat="46.578777185867814" lon="26.87284208799146"><ele>181.20000000000002</ele><time>2026-04-25T11:22:11Z</time></trkpt><trkpt lat="46.578725453151336" lon="26.872981285874936"><ele>181.4</ele><time>2026-04-25T11:22:12Z</time></trkpt><trkpt lat="46.57867823582551" lon="26.87312488179593"><ele>181.6</ele><time>2026-04-25T11:22:13Z</time></trkpt><trkpt lat="46.57862667662818" lon="26.87325828341585"><ele>181.8</ele><time>2026-04-25T11:22:14Z</time></trkpt><trkpt lat="46.578574353251376" lon="26.873387544119154"><ele>182.0</ele><time>2026-04-25T11:22:15Z</time></trkpt><trkpt lat="46.578509841383784" lon="26.873501993247203"><ele>181.6</ele><time>2026-04-25T11:22:16Z</time></trkpt><trkpt lat="46.57843900023109" lon="26.873602835833"><ele>181.2</ele><time>2026-04-25T11:22:17Z</time></trkpt><trkpt lat="46.57835870047855" lon="26.873693985922703"><ele>180.8</ele><time>2026-04-25T11:22:18Z</time></trkpt><trkpt lat="46.5782642273494" lon="26.87376926303442"><ele>180.4</ele><time>2026-04-25T11:22:19Z</time></trkpt><trkpt lat="46.578168505785975" lon="26.873825319387553"><ele>180.0</ele><time>2026-04-25T11:22:20Z</time></trkpt><trkpt lat="46.57806575424361" lon="26.873866685149395"><ele>180.0</ele><time>2026-04-25T11:22:21Z</time></trkpt><trkpt lat="46.57795061579636" lon="26.873901589565783"><ele>180.0</ele><time>2026-04-25T11:22:22Z</time></trkpt><trkpt lat="46.5778350667972" lon="26.87393282779754"><ele>180.0</ele><time>2026-04-25T11:22:23Z</time></trkpt><trkpt lat="46.577734591939596" lon="26.87396426911925"><ele>180.0</ele><time>2026-04-25T11:22:24Z</time></trkpt><trkpt lat="46.57763278068524" lon="26.874002592332793"><ele>180.0</ele><time>2026-04-25T11:22:25Z</time></trkpt><trkpt lat="46.57752195592376" lon="26.874049797214383"><ele>180.0</ele><time>2026-04-25T11:22:26Z</time></trkpt><trkpt lat="46.57740220330426" lon="26.87409769377491"><ele>180.0</ele><time>2026-04-25T11:22:27Z</time></trkpt><trkpt lat="46.57727697984351" lon="26.87414680922657"><ele>180.0</ele><time>2026-04-25T11:22:28Z</time></trkpt><trkpt lat="46.577149448631346" lon="26.8741929160786"><ele>180.0</ele><time>2026-04-25T11:22:29Z</time></trkpt><trkpt lat="46.57701356746807" lon="26.874241041910103"><ele>180.0</ele><time>2026-04-25T11:22:30Z</time></trkpt><trkpt lat="46.576884859031" lon="26.87428722132281"><ele>180.0</ele><time>2026-04-25T11:22:30.999Z</time></trkpt><trkpt lat="46.57675750775689" lon="26.87433452342335"><ele>180.0</ele><time>2026-04-25T11:22:31.999Z</time></trkpt><trkpt lat="46.57663281046691" lon="26.87437915816921"><ele>180.0</ele><time>2026-04-25T11:22:32.999Z</time></trkpt><trkpt lat="46.57650374639673" lon="26.874428360881584"><ele>180.0</ele><time>2026-04-25T11:22:33.999Z</time></trkpt><trkpt lat="46.576378271956074" lon="26.874477631614948"><ele>180.0</ele><time>2026-04-25T11:22:34.999Z</time></trkpt><trkpt lat="46.57626031198631" lon="26.87453112158494"><ele>180.0</ele><time>2026-04-25T11:22:35.999Z</time></trkpt><trkpt lat="46.57614616606298" lon="26.87459438416307"><ele>180.0</ele><time>2026-04-25T11:22:36.999Z</time></trkpt><trkpt lat="46.57603443641788" lon="26.87467229127603"><ele>180.0</ele><time>2026-04-25T11:22:37.999Z</time></trkpt><trkpt lat="46.57591711593875" lon="26.874756769839934"><ele>180.0</ele><time>2026-04-25T11:22:38.999Z</time></trkpt><trkpt lat="46.575800919076606" lon="26.8748351355571"><ele>180.0</ele><time>2026-04-25T11:22:39.999Z</time></trkpt><trkpt lat="46.575682940162814" lon="26.874924655595677"><ele>180.0</ele><time>2026-04-25T11:22:40.999Z</time></trkpt><trkpt lat="46.57556173579857" lon="26.875019116558992"><ele>179.75</ele><time>2026-04-25T11:22:41.999Z</time></trkpt><trkpt lat="46.575433115228556" lon="26.875119344334028"><ele>179.5</ele><time>2026-04-25T11:22:42.999Z</time></trkpt><trkpt lat="46.57530773425491" lon="26.875210563403723"><ele>179.25</ele><time>2026-04-25T11:22:43.999Z</time></trkpt><trkpt lat="46.5751749707109" lon="26.875294061939893"><ele>179.0</ele><time>2026-04-25T11:22:44.999Z</time></trkpt><trkpt lat="46.575048014022656" lon="26.87539426367641"><ele>178.75</ele><time>2026-04-25T11:22:45.999Z</time></trkpt><trkpt lat="46.57492031338938" lon="26.87550326780009"><ele>178.5</ele><time>2026-04-25T11:22:46.999Z</time></trkpt><trkpt lat="46.57479088741987" lon="26.87559797008014"><ele>178.25</ele><time>2026-04-25T11:22:47.999Z</time></trkpt><trkpt lat="46.574660782906975" lon="26.87568694511177"><ele>178.0</ele><time>2026-04-25T11:22:48.999Z</time></trkpt><trkpt lat="46.57453852653882" lon="26.875771644775494"><ele>177.75</ele><time>2026-04-25T11:22:49.999Z</time></trkpt><trkpt lat="46.5744181889059" lon="26.875864041017294"><ele>177.5</ele><time>2026-04-25T11:22:50.999Z</time></trkpt><trkpt lat="46.57429606619663" lon="26.87595642141568"><ele>177.25</ele><time>2026-04-25T11:22:51.999Z</time></trkpt><trkpt lat="46.574172061612025" lon="26.876046996067153"><ele>177.0</ele><time>2026-04-25T11:22:52.999Z</time></trkpt><trkpt lat="46.57404415793019" lon="26.876141680985654"><ele>176.75</ele><time>2026-04-25T11:22:53.999Z</time></trkpt><trkpt lat="46.57392406359608" lon="26.876233811990918"><ele>176.5</ele><time>2026-04-25T11:22:54.999Z</time></trkpt><trkpt lat="46.573801301002895" lon="26.876325965502534"><ele>176.25</ele><time>2026-04-25T11:22:55.999Z</time></trkpt><trkpt lat="46.57367878460878" lon="26.876418673803457"><ele>176.0</ele><time>2026-04-25T11:22:56.999Z</time></trkpt><trkpt lat="46.573556207481815" lon="26.876510384376548"><ele>176.0</ele><time>2026-04-25T11:22:57.999Z</time></trkpt><trkpt lat="46.57343122397616" lon="26.876599708400587"><ele>176.0</ele><time>2026-04-25T11:22:58.999Z</time></trkpt><trkpt lat="46.57330547708261" lon="26.876689140009283"><ele>176.0</ele><time>2026-04-25T11:22:59.999Z</time></trkpt><trkpt lat="46.57318154041164" lon="26.876782691677377"><ele>176.0</ele><time>2026-04-25T11:23:00.999Z</time></trkpt><trkpt lat="46.57305726619577" lon="26.876876404520317"><ele>176.0</ele><time>2026-04-25T11:23:01.999Z</time></trkpt><trkpt lat="46.572938667948286" lon="26.87695825886541"><ele>176.0</ele><time>2026-04-25T11:23:02.999Z</time></trkpt><trkpt lat="46.572819017988245" lon="26.87704473016726"><ele>176.0</ele><time>2026-04-25T11:23:03.999Z</time></trkpt><trkpt lat="46.572701104935135" lon="26.877136034420413"><ele>176.0</ele><time>2026-04-25T11:23:04.999Z</time></trkpt><trkpt lat="46.572582021973616" lon="26.877224242581036"><ele>176.0</ele><time>2026-04-25T11:23:05.999Z</time></trkpt><trkpt lat="46.57246350514132" lon="26.87731236040753"><ele>176.0</ele><time>2026-04-25T11:23:06.999Z</time></trkpt><trkpt lat="46.57234552341723" lon="26.877400362823714"><ele>176.0</ele><time>2026-04-25T11:23:07.999Z</time></trkpt><trkpt lat="46.57223012923994" lon="26.87748312488992"><ele>176.0</ele><time>2026-04-25T11:23:08.999Z</time></trkpt><trkpt lat="46.572117062333696" lon="26.877562181662864"><ele>176.0</ele><time>2026-04-25T11:23:09.999Z</time></trkpt><trkpt lat="46.57200318155641" lon="26.877643339329552"><ele>176.0</ele><time>2026-04-25T11:23:10.999Z</time></trkpt><trkpt lat="46.57188914830774" lon="26.877726758020394"><ele>176.0</ele><time>2026-04-25T11:23:11.999Z</time></trkpt><trkpt lat="46.57177061422533" lon="26.87781630372806"><ele>176.0</ele><time>2026-04-25T11:23:12.999Z</time></trkpt><trkpt lat="46.57164909839327" lon="26.877907996545215"><ele>176.0</ele><time>2026-04-25T11:23:13.999Z</time></trkpt><trkpt lat="46.57151857602884" lon="26.87800241394932"><ele>176.0</ele><time>2026-04-25T11:23:14.999Z</time></trkpt><trkpt lat="46.571399996902464" lon="26.878090727683983"><ele>176.0</ele><time>2026-04-25T11:23:15.999Z</time></trkpt><trkpt lat="46.5712825483593" lon="26.87818370565335"><ele>176.0</ele><time>2026-04-25T11:23:16.999Z</time></trkpt><trkpt lat="46.57116338030371" lon="26.87826966326669"><ele>176.0</ele><time>2026-04-25T11:23:17.999Z</time></trkpt><trkpt lat="46.57104789491599" lon="26.878352074739247"><ele>176.0</ele><time>2026-04-25T11:23:18.999Z</time></trkpt><trkpt lat="46.57093322886921" lon="26.87843547943729"><ele>176.0</ele><time>2026-04-25T11:23:19.999Z</time></trkpt><trkpt lat="46.57081213144389" lon="26.878519822083092"><ele>176.0</ele><time>2026-04-25T11:23:20.999Z</time></trkpt><trkpt lat="46.57069464399635" lon="26.878603540866123"><ele>176.0</ele><time>2026-04-25T11:23:21.999Z</time></trkpt><trkpt lat="46.57057197539424" lon="26.878683533557528"><ele>176.0</ele><time>2026-04-25T11:23:22.999Z</time></trkpt><trkpt lat="46.57045167493486" lon="26.8787655175734"><ele>176.0</ele><time>2026-04-25T11:23:23.999Z</time></trkpt><trkpt lat="46.57032837832591" lon="26.878854279746992"><ele>176.0</ele><time>2026-04-25T11:23:24.999Z</time></trkpt><trkpt lat="46.57020895588822" lon="26.878943247776096"><ele>176.0</ele><time>2026-04-25T11:23:25.999Z</time></trkpt><trkpt lat="46.57008976139932" lon="26.879029821966043"><ele>176.0</ele><time>2026-04-25T11:23:26.999Z</time></trkpt><trkpt lat="46.569967837489514" lon="26.879116605378446"><ele>176.0</ele><time>2026-04-25T11:23:27.999Z</time></trkpt><trkpt lat="46.569844589042056" lon="26.87920366423009"><ele>176.0</ele><time>2026-04-25T11:23:28.999Z</time></trkpt><trkpt lat="46.569729907804046" lon="26.87928626677064"><ele>176.0</ele><time>2026-04-25T11:23:29.999Z</time></trkpt><trkpt lat="46.56962240576378" lon="26.87936340325173"><ele>176.0</ele><time>2026-04-25T11:23:30.999Z</time></trkpt><trkpt lat="46.56951706162053" lon="26.879441959459456"><ele>176.0</ele><time>2026-04-25T11:23:31.999Z</time></trkpt><trkpt lat="46.56940322063254" lon="26.87952495575678"><ele>176.0</ele><time>2026-04-25T11:23:32.999Z</time></trkpt><trkpt lat="46.569283768018664" lon="26.879614026460548"><ele>175.75</ele><time>2026-04-25T11:23:33.999Z</time></trkpt><trkpt lat="46.569165957138445" lon="26.87970943150871"><ele>175.5</ele><time>2026-04-25T11:23:34.999Z</time></trkpt><trkpt lat="46.569040771636935" lon="26.87980381151239"><ele>175.25</ele><time>2026-04-25T11:23:35.999Z</time></trkpt><trkpt lat="46.568914432482465" lon="26.87990095154237"><ele>175.0</ele><time>2026-04-25T11:23:36.999Z</time></trkpt><trkpt lat="46.56878761309815" lon="26.879991216132254"><ele>175.25</ele><time>2026-04-25T11:23:37.999Z</time></trkpt><trkpt lat="46.56866989160714" lon="26.88008415709563"><ele>175.5</ele><time>2026-04-25T11:23:38.998Z</time></trkpt><trkpt lat="46.56855734446767" lon="26.880170314038207"><ele>175.75</ele><time>2026-04-25T11:23:39.998Z</time></trkpt><trkpt lat="46.56843078711153" lon="26.880259030814777"><ele>176.0</ele><time>2026-04-25T11:23:40.998Z</time></trkpt><trkpt lat="46.56830306427299" lon="26.88034576216375"><ele>176.0</ele><time>2026-04-25T11:23:41.998Z</time></trkpt><trkpt lat="46.56817994365302" lon="26.880430697406677"><ele>176.0</ele><time>2026-04-25T11:23:42.998Z</time></trkpt><trkpt lat="46.568055480359284" lon="26.880520697538977"><ele>176.0</ele><time>2026-04-25T11:23:43.998Z</time></trkpt><trkpt lat="46.56793020618997" lon="26.880615810039394"><ele>176.0</ele><time>2026-04-25T11:23:44.998Z</time></trkpt><trkpt lat="46.56781593037299" lon="26.880701562132497"><ele>176.75</ele><time>2026-04-25T11:23:45.998Z</time></trkpt><trkpt lat="46.56771262975891" lon="26.880782514538172"><ele>177.5</ele><time>2026-04-25T11:23:46.998Z</time></trkpt><trkpt lat="46.56760526744818" lon="26.880861962505474"><ele>178.25</ele><time>2026-04-25T11:23:47.998Z</time></trkpt><trkpt lat="46.567491378481016" lon="26.880941270264994"><ele>179.0</ele><time>2026-04-25T11:23:48.998Z</time></trkpt><trkpt lat="46.56737400652581" lon="26.881026070151126"><ele>179.0</ele><time>2026-04-25T11:23:49.998Z</time></trkpt><trkpt lat="46.56725504069787" lon="26.881116362036625"><ele>179.0</ele><time>2026-04-25T11:23:51Z</time></trkpt><trkpt lat="46.567134581458646" lon="26.88120847014457"><ele>179.0</ele><time>2026-04-25T11:23:52Z</time></trkpt><trkpt lat="46.56701003467524" lon="26.881302482262708"><ele>179.0</ele><time>2026-04-25T11:23:53Z</time></trkpt><trkpt lat="46.5668861799326" lon="26.88140038103864"><ele>179.0</ele><time>2026-04-25T11:23:54Z</time></trkpt><trkpt lat="46.56676891632867" lon="26.881486601092327"><ele>179.0</ele><time>2026-04-25T11:23:55Z</time></trkpt><trkpt lat="46.56664778783903" lon="26.881574131488595"><ele>179.0</ele><time>2026-04-25T11:23:56Z</time></trkpt><trkpt lat="46.566530333031864" lon="26.8816619215639"><ele>179.0</ele><time>2026-04-25T11:23:57Z</time></trkpt><trkpt lat="46.56641423725584" lon="26.881746466860154"><ele>179.0</ele><time>2026-04-25T11:23:58Z</time></trkpt><trkpt lat="46.5662872576216" lon="26.88183675353281"><ele>179.0</ele><time>2026-04-25T11:23:59Z</time></trkpt><trkpt lat="46.56615678745877" lon="26.8819197033027"><ele>179.0</ele><time>2026-04-25T11:24:00Z</time></trkpt><trkpt lat="46.566029992797255" lon="26.881987722296422"><ele>179.0</ele><time>2026-04-25T11:24:01Z</time></trkpt><trkpt lat="46.565904347353" lon="26.882040252972907"><ele>179.25</ele><time>2026-04-25T11:24:02Z</time></trkpt><trkpt lat="46.565773947202864" lon="26.882080878887223"><ele>179.5</ele><time>2026-04-25T11:24:03Z</time></trkpt><trkpt lat="46.56564403701489" lon="26.88212238424796"><ele>179.75</ele><time>2026-04-25T11:24:04Z</time></trkpt><trkpt lat="46.565511184924496" lon="26.88216030496603"><ele>180.0</ele><time>2026-04-25T11:24:05Z</time></trkpt><trkpt lat="46.56537696770168" lon="26.882205094555804"><ele>180.5</ele><time>2026-04-25T11:24:06Z</time></trkpt><trkpt lat="46.56523917981856" lon="26.882249896359163"><ele>181.0</ele><time>2026-04-25T11:24:07Z</time></trkpt><trkpt lat="46.565094709964896" lon="26.882292895999417"><ele>181.5</ele><time>2026-04-25T11:24:08Z</time></trkpt><trkpt lat="46.56495334163445" lon="26.882339431108758"><ele>182.0</ele><time>2026-04-25T11:24:09Z</time></trkpt><trkpt lat="46.56481114490778" lon="26.88238775494536"><ele>182.0</ele><time>2026-04-25T11:24:10Z</time></trkpt><trkpt lat="46.56467091243673" lon="26.882436032848357"><ele>182.0</ele><time>2026-04-25T11:24:11Z</time></trkpt><trkpt lat="46.56453104125245" lon="26.88248146198357"><ele>182.0</ele><time>2026-04-25T11:24:12Z</time></trkpt><trkpt lat="46.564392647532046" lon="26.88252699657695"><ele>182.0</ele><time>2026-04-25T11:24:13Z</time></trkpt><trkpt lat="46.56425353135972" lon="26.882570037372435"><ele>181.75</ele><time>2026-04-25T11:24:14Z</time></trkpt><trkpt lat="46.56411624679941" lon="26.88261474711532"><ele>181.5</ele><time>2026-04-25T11:24:15Z</time></trkpt><trkpt lat="46.563979164273135" lon="26.882657878411187"><ele>181.25</ele><time>2026-04-25T11:24:16Z</time></trkpt><trkpt lat="46.56383821848683" lon="26.882702476620377"><ele>181.0</ele><time>2026-04-25T11:24:17Z</time></trkpt><trkpt lat="46.56369512372838" lon="26.882745506636272"><ele>181.5</ele><time>2026-04-25T11:24:18Z</time></trkpt><trkpt lat="46.563566649022164" lon="26.882786148918264"><ele>182.0</ele><time>2026-04-25T11:24:19Z</time></trkpt><trkpt lat="46.56343415954156" lon="26.8828297730028"><ele>182.5</ele><time>2026-04-25T11:24:20Z</time></trkpt><trkpt lat="46.56330726521672" lon="26.88287070611808"><ele>183.0</ele><time>2026-04-25T11:24:21Z</time></trkpt><trkpt lat="46.56318014204905" lon="26.882903830387242"><ele>183.0</ele><time>2026-04-25T11:24:22Z</time></trkpt><trkpt lat="46.56306257934012" lon="26.88293604443826"><ele>183.0</ele><time>2026-04-25T11:24:23Z</time></trkpt><trkpt lat="46.56294829534054" lon="26.882969998157172"><ele>183.0</ele><time>2026-04-25T11:24:24Z</time></trkpt><trkpt lat="46.56283365388615" lon="26.88300528684333"><ele>183.0</ele><time>2026-04-25T11:24:25Z</time></trkpt><trkpt lat="46.56271629689878" lon="26.88304514664678"><ele>183.25</ele><time>2026-04-25T11:24:26Z</time></trkpt><trkpt lat="46.56259234291383" lon="26.88308810825544"><ele>183.5</ele><time>2026-04-25T11:24:27Z</time></trkpt><trkpt lat="46.56245966216844" lon="26.88312984726353"><ele>183.75</ele><time>2026-04-25T11:24:28Z</time></trkpt><trkpt lat="46.56232140449124" lon="26.883165838989026"><ele>184.0</ele><time>2026-04-25T11:24:29Z</time></trkpt><trkpt lat="46.56219173269259" lon="26.88320324893033"><ele>184.0</ele><time>2026-04-25T11:24:30Z</time></trkpt><trkpt lat="46.5620584262385" lon="26.883247880676798"><ele>184.0</ele><time>2026-04-25T11:24:31Z</time></trkpt><trkpt lat="46.56192052646925" lon="26.883293552858824"><ele>184.0</ele><time>2026-04-25T11:24:32Z</time></trkpt><trkpt lat="46.56178143561746" lon="26.88333435226526"><ele>184.0</ele><time>2026-04-25T11:24:33Z</time></trkpt><trkpt lat="46.56163796897417" lon="26.88336334391687"><ele>184.25</ele><time>2026-04-25T11:24:34Z</time></trkpt><trkpt lat="46.56149201264257" lon="26.88339331557127"><ele>184.5</ele><time>2026-04-25T11:24:35Z</time></trkpt><trkpt lat="46.56134912540934" lon="26.883425568288533"><ele>184.75</ele><time>2026-04-25T11:24:35.999Z</time></trkpt><trkpt lat="46.561210062803035" lon="26.883447824818813"><ele>185.0</ele><time>2026-04-25T11:24:36.999Z</time></trkpt><trkpt lat="46.56107213158872" lon="26.883456516020676"><ele>185.25</ele><time>2026-04-25T11:24:37.999Z</time></trkpt><trkpt lat="46.56093845481812" lon="26.883463097240377"><ele>185.5</ele><time>2026-04-25T11:24:38.999Z</time></trkpt><trkpt lat="46.560797178902945" lon="26.883469117380123"><ele>185.75</ele><time>2026-04-25T11:24:39.999Z</time></trkpt><trkpt lat="46.56066530183806" lon="26.8834723133689"><ele>186.0</ele><time>2026-04-25T11:24:40.999Z</time></trkpt><trkpt lat="46.56052299143232" lon="26.88348231877181"><ele>186.0</ele><time>2026-04-25T11:24:41.999Z</time></trkpt><trkpt lat="46.56037920695838" lon="26.883489323722138"><ele>186.0</ele><time>2026-04-25T11:24:42.999Z</time></trkpt><trkpt lat="46.56023836508403" lon="26.883488647563418"><ele>186.0</ele><time>2026-04-25T11:24:43.999Z</time></trkpt><trkpt lat="46.56009620839349" lon="26.88349330112145"><ele>186.0</ele><time>2026-04-25T11:24:44.999Z</time></trkpt><trkpt lat="46.55995508138611" lon="26.883494810510417"><ele>186.0</ele><time>2026-04-25T11:24:45.999Z</time></trkpt><trkpt lat="46.55981414626665" lon="26.88350800938827"><ele>186.0</ele><time>2026-04-25T11:24:46.999Z</time></trkpt><trkpt lat="46.5596741914315" lon="26.883524587752213"><ele>186.0</ele><time>2026-04-25T11:24:47.999Z</time></trkpt><trkpt lat="46.559539270683416" lon="26.8835589058178"><ele>186.0</ele><time>2026-04-25T11:24:48.999Z</time></trkpt><trkpt lat="46.5594014991971" lon="26.883599956647206"><ele>185.75</ele><time>2026-04-25T11:24:49.999Z</time></trkpt><trkpt lat="46.55927386201763" lon="26.883651037839382"><ele>185.5</ele><time>2026-04-25T11:24:50.999Z</time></trkpt><trkpt lat="46.559150750657174" lon="26.883713198092504"><ele>185.25</ele><time>2026-04-25T11:24:51.999Z</time></trkpt><trkpt lat="46.55901913824137" lon="26.883790321530693"><ele>185.0</ele><time>2026-04-25T11:24:52.999Z</time></trkpt><trkpt lat="46.55888908845373" lon="26.883876576946765"><ele>185.0</ele><time>2026-04-25T11:24:53.999Z</time></trkpt><trkpt lat="46.5587656712085" lon="26.883965869263506"><ele>185.0</ele><time>2026-04-25T11:24:54.999Z</time></trkpt><trkpt lat="46.55865346132268" lon="26.884065160265095"><ele>185.0</ele><time>2026-04-25T11:24:55.999Z</time></trkpt><trkpt lat="46.55853686959728" lon="26.884187574784725"><ele>185.0</ele><time>2026-04-25T11:24:56.999Z</time></trkpt><trkpt lat="46.55841929885221" lon="26.88431848354528"><ele>185.25</ele><time>2026-04-25T11:24:57.999Z</time></trkpt><trkpt lat="46.55830206144263" lon="26.884454984302664"><ele>185.5</ele><time>2026-04-25T11:24:58.999Z</time></trkpt><trkpt lat="46.55818599367337" lon="26.88459491162201"><ele>185.75</ele><time>2026-04-25T11:24:59.999Z</time></trkpt><trkpt lat="46.55807503367193" lon="26.884723649044986"><ele>186.0</ele><time>2026-04-25T11:25:00.999Z</time></trkpt><trkpt lat="46.55797533703495" lon="26.884839625276204"><ele>186.0</ele><time>2026-04-25T11:25:01.999Z</time></trkpt><trkpt lat="46.557875940628016" lon="26.884956368656727"><ele>186.0</ele><time>2026-04-25T11:25:02.999Z</time></trkpt><trkpt lat="46.55777198335944" lon="26.885072276372007"><ele>186.0</ele><time>2026-04-25T11:25:03.999Z</time></trkpt><trkpt lat="46.55767129975588" lon="26.885186017550506"><ele>186.0</ele><time>2026-04-25T11:25:04.999Z</time></trkpt><trkpt lat="46.55757726342062" lon="26.885286116185984"><ele>185.60000000000002</ele><time>2026-04-25T11:25:05.999Z</time></trkpt><trkpt lat="46.55748825686079" lon="26.885375516983775"><ele>185.2</ele><time>2026-04-25T11:25:06.999Z</time></trkpt><trkpt lat="46.55740107909057" lon="26.8854382231086"><ele>184.8</ele><time>2026-04-25T11:25:07.999Z</time></trkpt><trkpt lat="46.55731136113356" lon="26.88548573660271"><ele>184.39999999999998</ele><time>2026-04-25T11:25:08.999Z</time></trkpt><trkpt lat="46.55722092415529" lon="26.88550994979819"><ele>184.0</ele><time>2026-04-25T11:25:09.999Z</time></trkpt><trkpt lat="46.55713161855285" lon="26.885515896411672"><ele>184.6</ele><time>2026-04-25T11:25:10.999Z</time></trkpt><trkpt lat="46.557033117596255" lon="26.88550439997959"><ele>185.2</ele><time>2026-04-25T11:25:11.999Z</time></trkpt><trkpt lat="46.556929096652155" lon="26.885518687714637"><ele>185.79999999999998</ele><time>2026-04-25T11:25:12.999Z</time></trkpt><trkpt lat="46.556824233912685" lon="26.885502460959277"><ele>186.39999999999998</ele><time>2026-04-25T11:25:13.999Z</time></trkpt><trkpt lat="46.55672097289082" lon="26.88548648169172"><ele>187.0</ele><time>2026-04-25T11:25:14.999Z</time></trkpt><trkpt lat="46.5566427473251" lon="26.88529769811813"><ele>187.0</ele><time>2026-04-25T11:25:15.999Z</time></trkpt><trkpt lat="46.55656595454124" lon="26.885212845947695"><ele>187.0</ele><time>2026-04-25T11:25:16.999Z</time></trkpt><trkpt lat="46.55651682978917" lon="26.885118858865106"><ele>187.0</ele><time>2026-04-25T11:25:17.999Z</time></trkpt><trkpt lat="46.55647607446609" lon="26.885030068622907"><ele>187.0</ele><time>2026-04-25T11:25:18.999Z</time></trkpt><trkpt lat="46.55642299290509" lon="26.884891463156613"><ele>187.0</ele><time>2026-04-25T11:25:20.999Z</time></trkpt><trkpt lat="46.556400587967545" lon="26.884779662983686"><ele>187.0</ele><time>2026-04-25T11:25:22.999Z</time></trkpt><trkpt lat="46.556404411774366" lon="26.884663522491568"><ele>188.0</ele><time>2026-04-25T11:25:25.999Z</time></trkpt><trkpt lat="46.55647081360897" lon="26.884589590164534"><ele>188.0</ele><time>2026-04-25T11:25:30.999Z</time></trkpt></trkseg></trk></gpx>